<?xml version='1.0' encoding='UTF-8'?><gpx version="1.1" creator="JPX - https://github.com/jenetics/jpx" xmlns="http://www.topografix.com/GPX/1/1"><trk><trkseg><trkpt lat="44.9012712" lon="9.1019171"><ele>273.0</ele><time>2026-05-03T07:19:50.789Z</time></trkpt><trkpt lat="44.9013639" lon="9.1020718"><ele>273.0</ele><time>2026-05-03T07:19:51.783Z</time></trkpt><trkpt lat="44.9014424" lon="9.1021417"><ele>273.0</ele><time>2026-05-03T07:19:52.795Z</time></trkpt><trkpt lat="44.9015203" lon="9.1022214"><ele>273.0</ele><time>2026-05-03T07:19:53.795Z</time></trkpt><trkpt lat="44.901602" lon="9.1023164"><ele>273.0</ele><time>2026-05-03T07:19:54.795Z</time></trkpt><trkpt lat="44.9016684" lon="9.1024311"><ele>271.5</ele><time>2026-05-03T07:19:55.79Z</time></trkpt><trkpt lat="44.901711" lon="9.1025655"><ele>270.0</ele><time>2026-05-03T07:19:56.789Z</time></trkpt><trkpt lat="44.9017247" lon="9.1027135"><ele>268.5</ele><time>2026-05-03T07:19:57.787Z</time></trkpt><trkpt lat="44.9017001" lon="9.1028778"><ele>267.0</ele><time>2026-05-03T07:19:58.795Z</time></trkpt><trkpt lat="44.9016617" lon="9.1030482"><ele>267.0</ele><time>2026-05-03T07:19:59.794Z</time></trkpt><trkpt lat="44.9016223" lon="9.1032203"><ele>267.0</ele><time>2026-05-03T07:20:00.79Z</time></trkpt><trkpt lat="44.9015967" lon="9.1033732"><ele>267.0</ele><time>2026-05-03T07:20:01.785Z</time></trkpt><trkpt lat="44.9015934" lon="9.1035177"><ele>267.0</ele><time>2026-05-03T07:20:02.788Z</time></trkpt><trkpt lat="44.9016247" lon="9.103647"><ele>267.0</ele><time>2026-05-03T07:20:03.791Z</time></trkpt><trkpt lat="44.9016834" lon="9.10376"><ele>268.5</ele><time>2026-05-03T07:20:04.792Z</time></trkpt><trkpt lat="44.9017619" lon="9.1038648"><ele>270.0</ele><time>2026-05-03T07:20:05.787Z</time></trkpt><trkpt lat="44.9018801" lon="9.1039779"><ele>271.5</ele><time>2026-05-03T07:20:06.785Z</time></trkpt><trkpt lat="44.9020046" lon="9.1040783"><ele>273.0</ele><time>2026-05-03T07:20:07.79Z</time></trkpt><trkpt lat="44.9021315" lon="9.1041617"><ele>273.0</ele><time>2026-05-03T07:20:08.789Z</time></trkpt><trkpt lat="44.9022526" lon="9.1042155"><ele>273.0</ele><time>2026-05-03T07:20:10.446Z</time></trkpt><trkpt lat="44.9023768" lon="9.104244"><ele>273.0</ele><time>2026-05-03T07:20:11.434Z</time></trkpt><trkpt lat="44.9025101" lon="9.1042815"><ele>273.0</ele><time>2026-05-03T07:20:12.426Z</time></trkpt><trkpt lat="44.902648" lon="9.1043217"><ele>274.5</ele><time>2026-05-03T07:20:13.424Z</time></trkpt><trkpt lat="44.9027867" lon="9.1043826"><ele>276.0</ele><time>2026-05-03T07:20:14.429Z</time></trkpt><trkpt lat="44.9029198" lon="9.1044644"><ele>277.5</ele><time>2026-05-03T07:20:15.432Z</time></trkpt><trkpt lat="44.9030548" lon="9.1045567"><ele>279.0</ele><time>2026-05-03T07:20:16.418Z</time></trkpt><trkpt lat="44.9031935" lon="9.1046473"><ele>279.0</ele><time>2026-05-03T07:20:17.423Z</time></trkpt><trkpt lat="44.9033287" lon="9.1047399"><ele>279.0</ele><time>2026-05-03T07:20:18.43Z</time></trkpt><trkpt lat="44.9034583" lon="9.1048459"><ele>279.0</ele><time>2026-05-03T07:20:19.416Z</time></trkpt><trkpt lat="44.9035753" lon="9.1049652"><ele>279.0</ele><time>2026-05-03T07:20:20.436Z</time></trkpt><trkpt lat="44.9036748" lon="9.1050756"><ele>280.25</ele><time>2026-05-03T07:20:21.421Z</time></trkpt><trkpt lat="44.9037805" lon="9.1051971"><ele>281.5</ele><time>2026-05-03T07:20:22.42Z</time></trkpt><trkpt lat="44.9038795" lon="9.1052976"><ele>282.75</ele><time>2026-05-03T07:20:23.423Z</time></trkpt><trkpt lat="44.9039911" lon="9.1053689"><ele>284.0</ele><time>2026-05-03T07:20:24.42Z</time></trkpt><trkpt lat="44.9040901" lon="9.1054127"><ele>284.0</ele><time>2026-05-03T07:20:25.422Z</time></trkpt><trkpt lat="44.9041794" lon="9.105454"><ele>284.0</ele><time>2026-05-03T07:20:26.419Z</time></trkpt><trkpt lat="44.9042576" lon="9.1054945"><ele>284.0</ele><time>2026-05-03T07:20:27.554Z</time></trkpt><trkpt lat="44.9043449" lon="9.1055372"><ele>284.0</ele><time>2026-05-03T07:20:29.421Z</time></trkpt><trkpt lat="44.9043813" lon="9.105429"><ele>284.0</ele><time>2026-05-03T07:20:31.422Z</time></trkpt><trkpt lat="44.9042962" lon="9.1053999"><ele>284.0</ele><time>2026-05-03T07:20:34.423Z</time></trkpt><trkpt lat="44.9042275" lon="9.105395"><ele>284.0</ele><time>2026-05-03T07:20:37.428Z</time></trkpt><trkpt lat="44.9041129" lon="9.1053607"><ele>284.0</ele><time>2026-05-03T07:20:39.421Z</time></trkpt><trkpt lat="44.9040414" lon="9.1053256"><ele>284.0</ele><time>2026-05-03T07:20:40.422Z</time></trkpt><trkpt lat="44.9039641" lon="9.1052741"><ele>284.0</ele><time>2026-05-03T07:20:41.417Z</time></trkpt><trkpt lat="44.9038691" lon="9.1051994"><ele>284.0</ele><time>2026-05-03T07:20:42.42Z</time></trkpt><trkpt lat="44.9037649" lon="9.1050933"><ele>284.0</ele><time>2026-05-03T07:20:43.425Z</time></trkpt><trkpt lat="44.9036473" lon="9.1049628"><ele>284.0</ele><time>2026-05-03T07:20:44.425Z</time></trkpt><trkpt lat="44.9035038" lon="9.1048237"><ele>284.0</ele><time>2026-05-03T07:20:45.418Z</time></trkpt><trkpt lat="44.9033573" lon="9.1046947"><ele>282.33333333333337</ele><time>2026-05-03T07:20:46.417Z</time></trkpt><trkpt lat="44.9032018" lon="9.1045875"><ele>280.6666666666667</ele><time>2026-05-03T07:20:47.426Z</time></trkpt><trkpt lat="44.9030527" lon="9.1044935"><ele>279.0</ele><time>2026-05-03T07:20:48.421Z</time></trkpt><trkpt lat="44.9028757" lon="9.1043956"><ele>279.0</ele><time>2026-05-03T07:20:49.418Z</time></trkpt><trkpt lat="44.9026887" lon="9.104294"><ele>279.0</ele><time>2026-05-03T07:20:50.435Z</time></trkpt><trkpt lat="44.9025216" lon="9.1042238"><ele>279.0</ele><time>2026-05-03T07:20:51.425Z</time></trkpt><trkpt lat="44.9023551" lon="9.1041789"><ele>278.5</ele><time>2026-05-03T07:20:52.422Z</time></trkpt><trkpt lat="44.9022361" lon="9.1041408"><ele>278.0</ele><time>2026-05-03T07:20:53.422Z</time></trkpt><trkpt lat="44.9021244" lon="9.1040974"><ele>277.5</ele><time>2026-05-03T07:20:54.428Z</time></trkpt><trkpt lat="44.9019957" lon="9.104017"><ele>277.0</ele><time>2026-05-03T07:20:55.425Z</time></trkpt><trkpt lat="44.9018657" lon="9.1039207"><ele>274.75</ele><time>2026-05-03T07:20:56.419Z</time></trkpt><trkpt lat="44.9017421" lon="9.1038171"><ele>272.5</ele><time>2026-05-03T07:20:57.421Z</time></trkpt><trkpt lat="44.9016707" lon="9.1036927"><ele>270.25</ele><time>2026-05-03T07:20:58.422Z</time></trkpt><trkpt lat="44.9016267" lon="9.1035633"><ele>268.0</ele><time>2026-05-03T07:20:59.425Z</time></trkpt><trkpt lat="44.9016128" lon="9.1034269"><ele>268.0</ele><time>2026-05-03T07:21:00.423Z</time></trkpt><trkpt lat="44.9016274" lon="9.1032713"><ele>268.0</ele><time>2026-05-03T07:21:01.424Z</time></trkpt><trkpt lat="44.9016603" lon="9.1031086"><ele>268.0</ele><time>2026-05-03T07:21:02.42Z</time></trkpt><trkpt lat="44.9016912" lon="9.1029487"><ele>268.0</ele><time>2026-05-03T07:21:03.42Z</time></trkpt><trkpt lat="44.9017206" lon="9.1028058"><ele>267.75</ele><time>2026-05-03T07:21:04.422Z</time></trkpt><trkpt lat="44.9017283" lon="9.1026616"><ele>267.5</ele><time>2026-05-03T07:21:05.423Z</time></trkpt><trkpt lat="44.9017076" lon="9.1025153"><ele>267.25</ele><time>2026-05-03T07:21:06.426Z</time></trkpt><trkpt lat="44.9016528" lon="9.1023811"><ele>267.0</ele><time>2026-05-03T07:21:07.42Z</time></trkpt><trkpt lat="44.9015637" lon="9.1022389"><ele>268.2</ele><time>2026-05-03T07:21:08.431Z</time></trkpt><trkpt lat="44.9014644" lon="9.1021133"><ele>269.4</ele><time>2026-05-03T07:21:09.418Z</time></trkpt><trkpt lat="44.9013657" lon="9.1020279"><ele>270.6</ele><time>2026-05-03T07:21:10.424Z</time></trkpt><trkpt lat="44.9012956" lon="9.1019521"><ele>271.8</ele><time>2026-05-03T07:21:12.425Z</time></trkpt><trkpt lat="44.9012539" lon="9.101881"><ele>273.0</ele><time>2026-05-03T07:21:47.418Z</time></trkpt><trkpt lat="44.9011758" lon="9.1018627"><ele>273.0</ele><time>2026-05-03T07:23:54.419Z</time></trkpt><trkpt lat="44.9011085" lon="9.1018123"><ele>273.0</ele><time>2026-05-03T07:23:56.431Z</time></trkpt><trkpt lat="44.9010456" lon="9.101764"><ele>273.0</ele><time>2026-05-03T07:23:58.421Z</time></trkpt><trkpt lat="44.900961" lon="9.1017264"><ele>273.0</ele><time>2026-05-03T07:24:08.423Z</time></trkpt><trkpt lat="44.9008868" lon="9.1017002"><ele>273.0</ele><time>2026-05-03T07:24:09.423Z</time></trkpt><trkpt lat="44.9008072" lon="9.1016788"><ele>273.0</ele><time>2026-05-03T07:24:10.426Z</time></trkpt><trkpt lat="44.9007158" lon="9.1016524"><ele>270.8</ele><time>2026-05-03T07:24:11.422Z</time></trkpt><trkpt lat="44.9006205" lon="9.1016259"><ele>268.6</ele><time>2026-05-03T07:24:12.425Z</time></trkpt><trkpt lat="44.9005374" lon="9.1015955"><ele>266.4</ele><time>2026-05-03T07:24:13.421Z</time></trkpt><trkpt lat="44.9004488" lon="9.1015579"><ele>264.2</ele><time>2026-05-03T07:24:14.42Z</time></trkpt><trkpt lat="44.9003595" lon="9.1015055"><ele>262.0</ele><time>2026-05-03T07:24:15.429Z</time></trkpt><trkpt lat="44.9002741" lon="9.1014307"><ele>262.0</ele><time>2026-05-03T07:24:16.419Z</time></trkpt><trkpt lat="44.9001991" lon="9.1013277"><ele>262.0</ele><time>2026-05-03T07:24:17.428Z</time></trkpt><trkpt lat="44.9001289" lon="9.1011873"><ele>262.0</ele><time>2026-05-03T07:24:18.42Z</time></trkpt><trkpt lat="44.9000886" lon="9.1009917"><ele>262.0</ele><time>2026-05-03T07:24:19.424Z</time></trkpt><trkpt lat="44.90006" lon="9.1008113"><ele>259.5</ele><time>2026-05-03T07:24:20.423Z</time></trkpt><trkpt lat="44.9000246" lon="9.1006262"><ele>257.0</ele><time>2026-05-03T07:24:21.423Z</time></trkpt><trkpt lat="44.899969" lon="9.1004629"><ele>254.5</ele><time>2026-05-03T07:24:22.431Z</time></trkpt><trkpt lat="44.8998922" lon="9.1003274"><ele>252.0</ele><time>2026-05-03T07:24:23.423Z</time></trkpt><trkpt lat="44.8997981" lon="9.1002077"><ele>252.0</ele><time>2026-05-03T07:24:24.418Z</time></trkpt><trkpt lat="44.8997116" lon="9.1000722"><ele>252.0</ele><time>2026-05-03T07:24:25.423Z</time></trkpt><trkpt lat="44.8996356" lon="9.0999142"><ele>252.0</ele><time>2026-05-03T07:24:26.424Z</time></trkpt><trkpt lat="44.8995752" lon="9.0997397"><ele>252.0</ele><time>2026-05-03T07:24:27.42Z</time></trkpt><trkpt lat="44.8995306" lon="9.0995528"><ele>252.25</ele><time>2026-05-03T07:24:28.42Z</time></trkpt><trkpt lat="44.8994813" lon="9.0993596"><ele>252.5</ele><time>2026-05-03T07:24:29.425Z</time></trkpt><trkpt lat="44.8994323" lon="9.0991736"><ele>252.75</ele><time>2026-05-03T07:24:30.422Z</time></trkpt><trkpt lat="44.8993797" lon="9.098984"><ele>253.0</ele><time>2026-05-03T07:24:31.417Z</time></trkpt><trkpt lat="44.8993264" lon="9.0988012"><ele>252.5</ele><time>2026-05-03T07:24:32.422Z</time></trkpt><trkpt lat="44.8992638" lon="9.0986241"><ele>252.0</ele><time>2026-05-03T07:24:33.423Z</time></trkpt><trkpt lat="44.8991902" lon="9.0984466"><ele>251.5</ele><time>2026-05-03T07:24:34.42Z</time></trkpt><trkpt lat="44.8991098" lon="9.0982744"><ele>251.0</ele><time>2026-05-03T07:24:35.422Z</time></trkpt><trkpt lat="44.8990359" lon="9.0981306"><ele>251.0</ele><time>2026-05-03T07:24:36.418Z</time></trkpt><trkpt lat="44.8989657" lon="9.0979934"><ele>251.0</ele><time>2026-05-03T07:24:37.42Z</time></trkpt><trkpt lat="44.898894" lon="9.097859"><ele>251.0</ele><time>2026-05-03T07:24:38.431Z</time></trkpt><trkpt lat="44.898822" lon="9.0977254"><ele>251.0</ele><time>2026-05-03T07:24:39.428Z</time></trkpt><trkpt lat="44.898746" lon="9.0975952"><ele>251.0</ele><time>2026-05-03T07:24:40.416Z</time></trkpt><trkpt lat="44.8986729" lon="9.0974583"><ele>251.0</ele><time>2026-05-03T07:24:41.417Z</time></trkpt><trkpt lat="44.8986058" lon="9.0973259"><ele>251.0</ele><time>2026-05-03T07:24:42.422Z</time></trkpt><trkpt lat="44.8985344" lon="9.0971919"><ele>251.0</ele><time>2026-05-03T07:24:43.423Z</time></trkpt><trkpt lat="44.8984605" lon="9.0970602"><ele>249.5</ele><time>2026-05-03T07:24:44.422Z</time></trkpt><trkpt lat="44.8983943" lon="9.0969213"><ele>248.0</ele><time>2026-05-03T07:24:45.423Z</time></trkpt><trkpt lat="44.8983445" lon="9.0967696"><ele>246.5</ele><time>2026-05-03T07:24:46.423Z</time></trkpt><trkpt lat="44.8983182" lon="9.0966069"><ele>245.0</ele><time>2026-05-03T07:24:47.425Z</time></trkpt><trkpt lat="44.8983169" lon="9.0964394"><ele>245.0</ele><time>2026-05-03T07:24:48.427Z</time></trkpt><trkpt lat="44.89833" lon="9.0962725"><ele>245.0</ele><time>2026-05-03T07:24:49.426Z</time></trkpt><trkpt lat="44.8983417" lon="9.0960967"><ele>245.0</ele><time>2026-05-03T07:24:50.423Z</time></trkpt><trkpt lat="44.8983355" lon="9.0959295"><ele>245.0</ele><time>2026-05-03T07:24:51.42Z</time></trkpt><trkpt lat="44.898312" lon="9.0957631"><ele>248.0</ele><time>2026-05-03T07:24:52.458Z</time></trkpt><trkpt lat="44.898266" lon="9.0956053"><ele>251.0</ele><time>2026-05-03T07:24:53.43Z</time></trkpt><trkpt lat="44.8981949" lon="9.0954688"><ele>254.0</ele><time>2026-05-03T07:24:54.427Z</time></trkpt><trkpt lat="44.8981216" lon="9.0953319"><ele>257.0</ele><time>2026-05-03T07:24:55.428Z</time></trkpt><trkpt lat="44.8980487" lon="9.0951956"><ele>257.0</ele><time>2026-05-03T07:24:56.428Z</time></trkpt><trkpt lat="44.8979864" lon="9.0950608"><ele>257.0</ele><time>2026-05-03T07:24:57.425Z</time></trkpt><trkpt lat="44.8979239" lon="9.094933"><ele>257.0</ele><time>2026-05-03T07:24:58.421Z</time></trkpt><trkpt lat="44.8978482" lon="9.0947989"><ele>257.0</ele><time>2026-05-03T07:24:59.424Z</time></trkpt><trkpt lat="44.8977749" lon="9.0946531"><ele>260.25</ele><time>2026-05-03T07:25:00.427Z</time></trkpt><trkpt lat="44.8977009" lon="9.0945023"><ele>263.5</ele><time>2026-05-03T07:25:01.42Z</time></trkpt><trkpt lat="44.8976298" lon="9.0943574"><ele>266.75</ele><time>2026-05-03T07:25:02.429Z</time></trkpt><trkpt lat="44.8975477" lon="9.0942249"><ele>270.0</ele><time>2026-05-03T07:25:03.42Z</time></trkpt><trkpt lat="44.8974571" lon="9.0941114"><ele>266.2</ele><time>2026-05-03T07:25:04.428Z</time></trkpt><trkpt lat="44.8973647" lon="9.0940142"><ele>262.4</ele><time>2026-05-03T07:25:05.419Z</time></trkpt><trkpt lat="44.8972628" lon="9.0939376"><ele>258.6</ele><time>2026-05-03T07:25:06.417Z</time></trkpt><trkpt lat="44.8971591" lon="9.0938669"><ele>254.8</ele><time>2026-05-03T07:25:07.425Z</time></trkpt><trkpt lat="44.8970816" lon="9.0937775"><ele>251.0</ele><time>2026-05-03T07:25:08.42Z</time></trkpt><trkpt lat="44.8970118" lon="9.0936716"><ele>251.0</ele><time>2026-05-03T07:25:09.421Z</time></trkpt><trkpt lat="44.8969893" lon="9.0935336"><ele>251.00000000000003</ele><time>2026-05-03T07:25:10.42Z</time></trkpt><trkpt lat="44.8969767" lon="9.0934057"><ele>251.00000000000003</ele><time>2026-05-03T07:25:11.425Z</time></trkpt><trkpt lat="44.8969891" lon="9.0932324"><ele>251.0</ele><time>2026-05-03T07:25:12.426Z</time></trkpt><trkpt lat="44.8970085" lon="9.0930603"><ele>251.0</ele><time>2026-05-03T07:25:13.419Z</time></trkpt><trkpt lat="44.8970164" lon="9.0928748"><ele>249.25</ele><time>2026-05-03T07:25:14.422Z</time></trkpt><trkpt lat="44.897025" lon="9.0926915"><ele>247.5</ele><time>2026-05-03T07:25:15.43Z</time></trkpt><trkpt lat="44.8970342" lon="9.0925115"><ele>245.75</ele><time>2026-05-03T07:25:16.421Z</time></trkpt><trkpt lat="44.897039" lon="9.0923348"><ele>244.0</ele><time>2026-05-03T07:25:17.423Z</time></trkpt><trkpt lat="44.897055" lon="9.0921494"><ele>242.75</ele><time>2026-05-03T07:25:18.421Z</time></trkpt><trkpt lat="44.8970742" lon="9.0919691"><ele>241.5</ele><time>2026-05-03T07:25:19.422Z</time></trkpt><trkpt lat="44.8971152" lon="9.0917905"><ele>240.25</ele><time>2026-05-03T07:25:20.431Z</time></trkpt><trkpt lat="44.8971566" lon="9.0916156"><ele>239.0</ele><time>2026-05-03T07:25:21.418Z</time></trkpt><trkpt lat="44.8971948" lon="9.0914501"><ele>239.0</ele><time>2026-05-03T07:25:22.427Z</time></trkpt><trkpt lat="44.8972399" lon="9.0912671"><ele>239.0</ele><time>2026-05-03T07:25:23.426Z</time></trkpt><trkpt lat="44.8972818" lon="9.0910785"><ele>239.0</ele><time>2026-05-03T07:25:24.432Z</time></trkpt><trkpt lat="44.8973112" lon="9.0909046"><ele>239.0</ele><time>2026-05-03T07:25:25.424Z</time></trkpt><trkpt lat="44.8973284" lon="9.0907462"><ele>238.79999999999998</ele><time>2026-05-03T07:25:26.427Z</time></trkpt><trkpt lat="44.8973337" lon="9.0906035"><ele>238.59999999999997</ele><time>2026-05-03T07:25:27.422Z</time></trkpt><trkpt lat="44.8973252" lon="9.0904631"><ele>238.4</ele><time>2026-05-03T07:25:28.431Z</time></trkpt><trkpt lat="44.8973172" lon="9.0903213"><ele>238.2</ele><time>2026-05-03T07:25:29.423Z</time></trkpt><trkpt lat="44.8973102" lon="9.0901687"><ele>238.0</ele><time>2026-05-03T07:25:30.424Z</time></trkpt><trkpt lat="44.8972905" lon="9.0900267"><ele>238.0</ele><time>2026-05-03T07:25:31.431Z</time></trkpt><trkpt lat="44.8972475" lon="9.0899003"><ele>238.0</ele><time>2026-05-03T07:25:32.434Z</time></trkpt><trkpt lat="44.8971829" lon="9.089755"><ele>238.0</ele><time>2026-05-03T07:25:33.435Z</time></trkpt><trkpt lat="44.8971058" lon="9.0896063"><ele>238.0</ele><time>2026-05-03T07:25:34.423Z</time></trkpt><trkpt lat="44.8970256" lon="9.0894609"><ele>238.0</ele><time>2026-05-03T07:25:35.43Z</time></trkpt><trkpt lat="44.8969358" lon="9.0893057"><ele>238.0</ele><time>2026-05-03T07:25:36.418Z</time></trkpt><trkpt lat="44.8968487" lon="9.089146"><ele>238.0</ele><time>2026-05-03T07:25:37.419Z</time></trkpt><trkpt lat="44.8967702" lon="9.0889864"><ele>238.0</ele><time>2026-05-03T07:25:38.424Z</time></trkpt><trkpt lat="44.8967035" lon="9.0888188"><ele>236.25</ele><time>2026-05-03T07:25:39.447Z</time></trkpt><trkpt lat="44.8966465" lon="9.0886468"><ele>234.5</ele><time>2026-05-03T07:25:40.422Z</time></trkpt><trkpt lat="44.8965844" lon="9.0884741"><ele>232.75</ele><time>2026-05-03T07:25:41.422Z</time></trkpt><trkpt lat="44.8965289" lon="9.0882931"><ele>231.0</ele><time>2026-05-03T07:25:42.421Z</time></trkpt><trkpt lat="44.8964756" lon="9.0881079"><ele>231.0</ele><time>2026-05-03T07:25:43.419Z</time></trkpt><trkpt lat="44.8964197" lon="9.0879233"><ele>231.0</ele><time>2026-05-03T07:25:44.423Z</time></trkpt><trkpt lat="44.8963581" lon="9.0877337"><ele>231.0</ele><time>2026-05-03T07:25:45.423Z</time></trkpt><trkpt lat="44.8962993" lon="9.087549"><ele>231.0</ele><time>2026-05-03T07:25:46.419Z</time></trkpt><trkpt lat="44.8962434" lon="9.0873745"><ele>231.75</ele><time>2026-05-03T07:25:47.418Z</time></trkpt><trkpt lat="44.8961869" lon="9.0872158"><ele>232.5</ele><time>2026-05-03T07:25:48.419Z</time></trkpt><trkpt lat="44.8961391" lon="9.0870603"><ele>233.25</ele><time>2026-05-03T07:25:49.423Z</time></trkpt><trkpt lat="44.8960872" lon="9.0869011"><ele>234.0</ele><time>2026-05-03T07:25:50.424Z</time></trkpt><trkpt lat="44.8960435" lon="9.0867413"><ele>233.75</ele><time>2026-05-03T07:25:51.422Z</time></trkpt><trkpt lat="44.896011" lon="9.0865736"><ele>233.5</ele><time>2026-05-03T07:25:52.418Z</time></trkpt><trkpt lat="44.8959876" lon="9.0864013"><ele>233.25</ele><time>2026-05-03T07:25:53.422Z</time></trkpt><trkpt lat="44.8959652" lon="9.086223"><ele>233.0</ele><time>2026-05-03T07:25:54.421Z</time></trkpt><trkpt lat="44.8959486" lon="9.0860432"><ele>233.0</ele><time>2026-05-03T07:25:55.424Z</time></trkpt><trkpt lat="44.8959321" lon="9.0858593"><ele>233.0</ele><time>2026-05-03T07:25:56.425Z</time></trkpt><trkpt lat="44.8959173" lon="9.0856689"><ele>233.0</ele><time>2026-05-03T07:25:57.425Z</time></trkpt><trkpt lat="44.8959034" lon="9.085475"><ele>233.0</ele><time>2026-05-03T07:25:58.421Z</time></trkpt><trkpt lat="44.8958842" lon="9.0852819"><ele>230.75</ele><time>2026-05-03T07:25:59.418Z</time></trkpt><trkpt lat="44.8958637" lon="9.0850859"><ele>228.5</ele><time>2026-05-03T07:26:00.421Z</time></trkpt><trkpt lat="44.8958513" lon="9.0848903"><ele>226.25</ele><time>2026-05-03T07:26:01.424Z</time></trkpt><trkpt lat="44.8958322" lon="9.0846958"><ele>224.0</ele><time>2026-05-03T07:26:02.42Z</time></trkpt><trkpt lat="44.8958092" lon="9.0845045"><ele>224.0</ele><time>2026-05-03T07:26:03.418Z</time></trkpt><trkpt lat="44.8957896" lon="9.0843092"><ele>224.0</ele><time>2026-05-03T07:26:04.42Z</time></trkpt><trkpt lat="44.8957728" lon="9.0841133"><ele>224.0</ele><time>2026-05-03T07:26:05.42Z</time></trkpt><trkpt lat="44.8957583" lon="9.0839214"><ele>224.0</ele><time>2026-05-03T07:26:06.424Z</time></trkpt><trkpt lat="44.8957443" lon="9.0837241"><ele>223.5</ele><time>2026-05-03T07:26:07.427Z</time></trkpt><trkpt lat="44.8957425" lon="9.0835217"><ele>223.0</ele><time>2026-05-03T07:26:08.422Z</time></trkpt><trkpt lat="44.8957556" lon="9.0833235"><ele>222.5</ele><time>2026-05-03T07:26:09.418Z</time></trkpt><trkpt lat="44.895774" lon="9.0831253"><ele>222.0</ele><time>2026-05-03T07:26:10.429Z</time></trkpt><trkpt lat="44.8957974" lon="9.0829174"><ele>221.33333333333331</ele><time>2026-05-03T07:26:11.422Z</time></trkpt><trkpt lat="44.8958227" lon="9.0826994"><ele>220.66666666666666</ele><time>2026-05-03T07:26:12.42Z</time></trkpt><trkpt lat="44.8958463" lon="9.0824885"><ele>220.0</ele><time>2026-05-03T07:26:13.426Z</time></trkpt><trkpt lat="44.8958669" lon="9.0822719"><ele>220.0</ele><time>2026-05-03T07:26:14.424Z</time></trkpt><trkpt lat="44.8958904" lon="9.0820566"><ele>220.0</ele><time>2026-05-03T07:26:15.425Z</time></trkpt><trkpt lat="44.8959153" lon="9.0818398"><ele>220.0</ele><time>2026-05-03T07:26:16.429Z</time></trkpt><trkpt lat="44.8959409" lon="9.0816211"><ele>222.66666666666666</ele><time>2026-05-03T07:26:17.419Z</time></trkpt><trkpt lat="44.8959675" lon="9.0814071"><ele>225.33333333333331</ele><time>2026-05-03T07:26:18.419Z</time></trkpt><trkpt lat="44.8960041" lon="9.0811964"><ele>228.0</ele><time>2026-05-03T07:26:19.417Z</time></trkpt><trkpt lat="44.8960532" lon="9.0809919"><ele>228.0</ele><time>2026-05-03T07:26:20.422Z</time></trkpt><trkpt lat="44.89611" lon="9.0808181"><ele>228.0</ele><time>2026-05-03T07:26:21.422Z</time></trkpt><trkpt lat="44.8961557" lon="9.0806672"><ele>228.0</ele><time>2026-05-03T07:26:22.424Z</time></trkpt><trkpt lat="44.8961978" lon="9.0805297"><ele>228.0</ele><time>2026-05-03T07:26:23.419Z</time></trkpt><trkpt lat="44.8962186" lon="9.0803945"><ele>229.0</ele><time>2026-05-03T07:26:24.421Z</time></trkpt><trkpt lat="44.8961965" lon="9.080273"><ele>230.0</ele><time>2026-05-03T07:26:25.423Z</time></trkpt><trkpt lat="44.8961398" lon="9.0801575"><ele>231.0</ele><time>2026-05-03T07:26:26.42Z</time></trkpt><trkpt lat="44.8960789" lon="9.0800238"><ele>232.0</ele><time>2026-05-03T07:26:27.423Z</time></trkpt><trkpt lat="44.8960431" lon="9.0798609"><ele>233.0</ele><time>2026-05-03T07:26:28.427Z</time></trkpt><trkpt lat="44.8960355" lon="9.0797023"><ele>235.0</ele><time>2026-05-03T07:26:29.422Z</time></trkpt><trkpt lat="44.8960508" lon="9.0795394"><ele>237.0</ele><time>2026-05-03T07:26:30.424Z</time></trkpt><trkpt lat="44.8961027" lon="9.0793919"><ele>239.0</ele><time>2026-05-03T07:26:31.418Z</time></trkpt><trkpt lat="44.8961662" lon="9.079259"><ele>241.0</ele><time>2026-05-03T07:26:32.428Z</time></trkpt><trkpt lat="44.8962029" lon="9.0791055"><ele>244.75</ele><time>2026-05-03T07:26:33.417Z</time></trkpt><trkpt lat="44.8962058" lon="9.0789384"><ele>248.5</ele><time>2026-05-03T07:26:34.425Z</time></trkpt><trkpt lat="44.8961733" lon="9.0787794"><ele>252.25</ele><time>2026-05-03T07:26:35.427Z</time></trkpt><trkpt lat="44.8961125" lon="9.0786305"><ele>256.0</ele><time>2026-05-03T07:26:36.42Z</time></trkpt><trkpt lat="44.8960233" lon="9.0784966"><ele>250.5</ele><time>2026-05-03T07:26:37.424Z</time></trkpt><trkpt lat="44.8959162" lon="9.078376"><ele>245.0</ele><time>2026-05-03T07:26:38.429Z</time></trkpt><trkpt lat="44.8958179" lon="9.0782425"><ele>239.5</ele><time>2026-05-03T07:26:39.421Z</time></trkpt><trkpt lat="44.8957383" lon="9.0780824"><ele>234.0</ele><time>2026-05-03T07:26:40.421Z</time></trkpt><trkpt lat="44.8956803" lon="9.0779013"><ele>234.0</ele><time>2026-05-03T07:26:41.424Z</time></trkpt><trkpt lat="44.8956185" lon="9.0777207"><ele>234.0</ele><time>2026-05-03T07:26:42.42Z</time></trkpt><trkpt lat="44.8955506" lon="9.0775378"><ele>234.0</ele><time>2026-05-03T07:26:43.422Z</time></trkpt><trkpt lat="44.8954708" lon="9.0773611"><ele>234.0</ele><time>2026-05-03T07:26:44.42Z</time></trkpt><trkpt lat="44.8954003" lon="9.0771876"><ele>235.75</ele><time>2026-05-03T07:26:45.42Z</time></trkpt><trkpt lat="44.8953264" lon="9.0770408"><ele>237.5</ele><time>2026-05-03T07:26:46.421Z</time></trkpt><trkpt lat="44.8952558" lon="9.0769062"><ele>239.25</ele><time>2026-05-03T07:26:47.421Z</time></trkpt><trkpt lat="44.8951746" lon="9.0767968"><ele>241.0</ele><time>2026-05-03T07:26:48.416Z</time></trkpt><trkpt lat="44.8950842" lon="9.0767099"><ele>238.5</ele><time>2026-05-03T07:26:49.418Z</time></trkpt><trkpt lat="44.8949888" lon="9.0766275"><ele>236.0</ele><time>2026-05-03T07:26:50.421Z</time></trkpt><trkpt lat="44.8948934" lon="9.0765379"><ele>233.5</ele><time>2026-05-03T07:26:51.424Z</time></trkpt><trkpt lat="44.8948033" lon="9.0764376"><ele>231.0</ele><time>2026-05-03T07:26:52.424Z</time></trkpt><trkpt lat="44.8947216" lon="9.0763162"><ele>231.0</ele><time>2026-05-03T07:26:53.423Z</time></trkpt><trkpt lat="44.8946553" lon="9.0761685"><ele>231.0</ele><time>2026-05-03T07:26:54.424Z</time></trkpt><trkpt lat="44.8946067" lon="9.076015"><ele>231.0</ele><time>2026-05-03T07:26:55.422Z</time></trkpt><trkpt lat="44.8945898" lon="9.0758315"><ele>231.0</ele><time>2026-05-03T07:26:56.419Z</time></trkpt><trkpt lat="44.8945878" lon="9.075649"><ele>230.5</ele><time>2026-05-03T07:26:57.42Z</time></trkpt><trkpt lat="44.8945855" lon="9.0754661"><ele>230.0</ele><time>2026-05-03T07:26:58.424Z</time></trkpt><trkpt lat="44.894589" lon="9.0752851"><ele>229.5</ele><time>2026-05-03T07:26:59.421Z</time></trkpt><trkpt lat="44.8946019" lon="9.0751011"><ele>229.0</ele><time>2026-05-03T07:27:00.418Z</time></trkpt><trkpt lat="44.8946422" lon="9.0749193"><ele>228.75</ele><time>2026-05-03T07:27:01.419Z</time></trkpt><trkpt lat="44.8947018" lon="9.0747513"><ele>228.5</ele><time>2026-05-03T07:27:02.421Z</time></trkpt><trkpt lat="44.8947717" lon="9.0745923"><ele>228.25</ele><time>2026-05-03T07:27:03.424Z</time></trkpt><trkpt lat="44.8948455" lon="9.0744304"><ele>228.0</ele><time>2026-05-03T07:27:04.42Z</time></trkpt><trkpt lat="44.8949131" lon="9.07428"><ele>228.0</ele><time>2026-05-03T07:27:05.423Z</time></trkpt><trkpt lat="44.8949552" lon="9.0741289"><ele>228.0</ele><time>2026-05-03T07:27:06.422Z</time></trkpt><trkpt lat="44.8949766" lon="9.0739718"><ele>228.0</ele><time>2026-05-03T07:27:07.422Z</time></trkpt><trkpt lat="44.8949702" lon="9.0737979"><ele>228.0</ele><time>2026-05-03T07:27:08.421Z</time></trkpt><trkpt lat="44.8949356" lon="9.0736219"><ele>227.25</ele><time>2026-05-03T07:27:09.419Z</time></trkpt><trkpt lat="44.894896" lon="9.0734355"><ele>226.5</ele><time>2026-05-03T07:27:10.43Z</time></trkpt><trkpt lat="44.8948445" lon="9.0732483"><ele>225.75</ele><time>2026-05-03T07:27:11.424Z</time></trkpt><trkpt lat="44.894785" lon="9.0730575"><ele>225.0</ele><time>2026-05-03T07:27:12.422Z</time></trkpt><trkpt lat="44.8947081" lon="9.0728709"><ele>223.75</ele><time>2026-05-03T07:27:13.426Z</time></trkpt><trkpt lat="44.8946191" lon="9.0727002"><ele>222.5</ele><time>2026-05-03T07:27:14.42Z</time></trkpt><trkpt lat="44.8945278" lon="9.0725479"><ele>221.25</ele><time>2026-05-03T07:27:15.423Z</time></trkpt><trkpt lat="44.8944556" lon="9.0723939"><ele>220.0</ele><time>2026-05-03T07:27:16.419Z</time></trkpt><trkpt lat="44.8944024" lon="9.0722241"><ele>220.0</ele><time>2026-05-03T07:27:17.423Z</time></trkpt><trkpt lat="44.8943779" lon="9.0720326"><ele>220.0</ele><time>2026-05-03T07:27:18.418Z</time></trkpt><trkpt lat="44.8943764" lon="9.0718304"><ele>220.0</ele><time>2026-05-03T07:27:19.425Z</time></trkpt><trkpt lat="44.8943733" lon="9.0716175"><ele>220.0</ele><time>2026-05-03T07:27:20.422Z</time></trkpt><trkpt lat="44.8943658" lon="9.0713999"><ele>221.0</ele><time>2026-05-03T07:27:21.42Z</time></trkpt><trkpt lat="44.8943493" lon="9.071184"><ele>222.0</ele><time>2026-05-03T07:27:22.421Z</time></trkpt><trkpt lat="44.8943328" lon="9.0709733"><ele>223.0</ele><time>2026-05-03T07:27:23.42Z</time></trkpt><trkpt lat="44.8943257" lon="9.0707772"><ele>224.0</ele><time>2026-05-03T07:27:24.419Z</time></trkpt><trkpt lat="44.8943392" lon="9.0705884"><ele>224.0</ele><time>2026-05-03T07:27:25.422Z</time></trkpt><trkpt lat="44.8943849" lon="9.0704138"><ele>224.0</ele><time>2026-05-03T07:27:26.422Z</time></trkpt><trkpt lat="44.8944372" lon="9.0702364"><ele>224.0</ele><time>2026-05-03T07:27:27.438Z</time></trkpt><trkpt lat="44.8944631" lon="9.0700481"><ele>224.0</ele><time>2026-05-03T07:27:28.42Z</time></trkpt><trkpt lat="44.8944729" lon="9.0698485"><ele>224.0</ele><time>2026-05-03T07:27:29.422Z</time></trkpt><trkpt lat="44.8944751" lon="9.069642"><ele>224.0</ele><time>2026-05-03T07:27:30.421Z</time></trkpt><trkpt lat="44.894451" lon="9.0694505"><ele>224.0</ele><time>2026-05-03T07:27:31.423Z</time></trkpt><trkpt lat="44.8944034" lon="9.0692631"><ele>224.0</ele><time>2026-05-03T07:27:32.425Z</time></trkpt><trkpt lat="44.8943402" lon="9.0690783"><ele>224.33333333333334</ele><time>2026-05-03T07:27:33.42Z</time></trkpt><trkpt lat="44.8942743" lon="9.0688896"><ele>224.66666666666669</ele><time>2026-05-03T07:27:34.417Z</time></trkpt><trkpt lat="44.8942174" lon="9.0686949"><ele>225.0</ele><time>2026-05-03T07:27:35.429Z</time></trkpt><trkpt lat="44.8941733" lon="9.0684872"><ele>220.33333333333331</ele><time>2026-05-03T07:27:36.422Z</time></trkpt><trkpt lat="44.8941289" lon="9.0682775"><ele>215.66666666666666</ele><time>2026-05-03T07:27:37.42Z</time></trkpt><trkpt lat="44.8940871" lon="9.0680713"><ele>211.0</ele><time>2026-05-03T07:27:38.421Z</time></trkpt><trkpt lat="44.8940441" lon="9.0678669"><ele>211.0</ele><time>2026-05-03T07:27:39.428Z</time></trkpt><trkpt lat="44.8940128" lon="9.0676797"><ele>211.0</ele><time>2026-05-03T07:27:40.425Z</time></trkpt><trkpt lat="44.8939877" lon="9.0675028"><ele>211.0</ele><time>2026-05-03T07:27:41.423Z</time></trkpt><trkpt lat="44.8940008" lon="9.067331"><ele>211.0</ele><time>2026-05-03T07:27:42.423Z</time></trkpt><trkpt lat="44.8940235" lon="9.0671704"><ele>211.25</ele><time>2026-05-03T07:27:43.44Z</time></trkpt><trkpt lat="44.8940564" lon="9.0670294"><ele>211.5</ele><time>2026-05-03T07:27:44.456Z</time></trkpt><trkpt lat="44.8941011" lon="9.0668543"><ele>211.75</ele><time>2026-05-03T07:27:45.428Z</time></trkpt><trkpt lat="44.8941631" lon="9.0666612"><ele>212.0</ele><time>2026-05-03T07:27:46.427Z</time></trkpt><trkpt lat="44.894214" lon="9.066481"><ele>215.75</ele><time>2026-05-03T07:27:47.417Z</time></trkpt><trkpt lat="44.8942553" lon="9.0662984"><ele>219.5</ele><time>2026-05-03T07:27:48.42Z</time></trkpt><trkpt lat="44.89428" lon="9.0661175"><ele>223.25</ele><time>2026-05-03T07:27:49.433Z</time></trkpt><trkpt lat="44.8942845" lon="9.0659334"><ele>227.0</ele><time>2026-05-03T07:27:50.417Z</time></trkpt><trkpt lat="44.8942694" lon="9.0657421"><ele>223.0</ele><time>2026-05-03T07:27:51.418Z</time></trkpt><trkpt lat="44.8942489" lon="9.0655466"><ele>219.0</ele><time>2026-05-03T07:27:52.427Z</time></trkpt><trkpt lat="44.8942267" lon="9.0653501"><ele>215.0</ele><time>2026-05-03T07:27:53.422Z</time></trkpt><trkpt lat="44.8942003" lon="9.0651588"><ele>211.0</ele><time>2026-05-03T07:27:54.422Z</time></trkpt><trkpt lat="44.8941753" lon="9.0649678"><ele>210.25</ele><time>2026-05-03T07:27:55.418Z</time></trkpt><trkpt lat="44.8941544" lon="9.0647863"><ele>209.5</ele><time>2026-05-03T07:27:56.426Z</time></trkpt><trkpt lat="44.8941486" lon="9.0646059"><ele>208.75</ele><time>2026-05-03T07:27:57.428Z</time></trkpt><trkpt lat="44.8941583" lon="9.0644322"><ele>208.0</ele><time>2026-05-03T07:27:58.424Z</time></trkpt><trkpt lat="44.894176" lon="9.0642572"><ele>207.5</ele><time>2026-05-03T07:27:59.42Z</time></trkpt><trkpt lat="44.8941971" lon="9.0640778"><ele>207.0</ele><time>2026-05-03T07:28:00.423Z</time></trkpt><trkpt lat="44.8942201" lon="9.0638994"><ele>206.5</ele><time>2026-05-03T07:28:01.416Z</time></trkpt><trkpt lat="44.8942433" lon="9.0637211"><ele>206.0</ele><time>2026-05-03T07:28:02.418Z</time></trkpt><trkpt lat="44.8942619" lon="9.0635404"><ele>207.75</ele><time>2026-05-03T07:28:03.419Z</time></trkpt><trkpt lat="44.8942881" lon="9.0633569"><ele>209.5</ele><time>2026-05-03T07:28:04.426Z</time></trkpt><trkpt lat="44.8943186" lon="9.0631722"><ele>211.25</ele><time>2026-05-03T07:28:05.426Z</time></trkpt><trkpt lat="44.894365" lon="9.0629881"><ele>213.0</ele><time>2026-05-03T07:28:06.425Z</time></trkpt><trkpt lat="44.8944236" lon="9.0628048"><ele>213.0</ele><time>2026-05-03T07:28:07.421Z</time></trkpt><trkpt lat="44.8944883" lon="9.0626249"><ele>213.0</ele><time>2026-05-03T07:28:08.419Z</time></trkpt><trkpt lat="44.8945548" lon="9.0624467"><ele>213.0</ele><time>2026-05-03T07:28:09.425Z</time></trkpt><trkpt lat="44.8946219" lon="9.0622663"><ele>213.0</ele><time>2026-05-03T07:28:10.429Z</time></trkpt><trkpt lat="44.8946905" lon="9.0620861"><ele>212.25</ele><time>2026-05-03T07:28:11.418Z</time></trkpt><trkpt lat="44.8947604" lon="9.0619091"><ele>211.5</ele><time>2026-05-03T07:28:12.42Z</time></trkpt><trkpt lat="44.8948279" lon="9.0617195"><ele>210.75</ele><time>2026-05-03T07:28:13.422Z</time></trkpt><trkpt lat="44.8948831" lon="9.0615316"><ele>210.0</ele><time>2026-05-03T07:28:14.419Z</time></trkpt><trkpt lat="44.8949206" lon="9.0613403"><ele>208.75</ele><time>2026-05-03T07:28:15.421Z</time></trkpt><trkpt lat="44.8949476" lon="9.0611566"><ele>207.5</ele><time>2026-05-03T07:28:16.425Z</time></trkpt><trkpt lat="44.8949524" lon="9.060957"><ele>206.25</ele><time>2026-05-03T07:28:17.418Z</time></trkpt><trkpt lat="44.8949581" lon="9.0607704"><ele>205.0</ele><time>2026-05-03T07:28:18.421Z</time></trkpt><trkpt lat="44.8949685" lon="9.0605967"><ele>205.25</ele><time>2026-05-03T07:28:19.417Z</time></trkpt><trkpt lat="44.8949951" lon="9.0604165"><ele>205.5</ele><time>2026-05-03T07:28:20.42Z</time></trkpt><trkpt lat="44.895019" lon="9.0602393"><ele>205.75</ele><time>2026-05-03T07:28:21.423Z</time></trkpt><trkpt lat="44.8950517" lon="9.0600754"><ele>206.0</ele><time>2026-05-03T07:28:22.417Z</time></trkpt><trkpt lat="44.8950885" lon="9.0599275"><ele>206.00000000000003</ele><time>2026-05-03T07:28:23.428Z</time></trkpt><trkpt lat="44.8951218" lon="9.059789"><ele>206.0</ele><time>2026-05-03T07:28:24.423Z</time></trkpt><trkpt lat="44.8951377" lon="9.0596483"><ele>206.0</ele><time>2026-05-03T07:28:25.423Z</time></trkpt><trkpt lat="44.8951444" lon="9.0595236"><ele>206.0</ele><time>2026-05-03T07:28:26.419Z</time></trkpt><trkpt lat="44.8951327" lon="9.0594178"><ele>206.00000000000003</ele><time>2026-05-03T07:28:27.422Z</time></trkpt><trkpt lat="44.8951184" lon="9.0593274"><ele>206.0</ele><time>2026-05-03T07:28:28.418Z</time></trkpt><trkpt lat="44.8950696" lon="9.0592169"><ele>205.20000000000002</ele><time>2026-05-03T07:28:30.422Z</time></trkpt><trkpt lat="44.8950851" lon="9.0590665"><ele>204.4</ele><time>2026-05-03T07:28:41.427Z</time></trkpt><trkpt lat="44.8951124" lon="9.0589659"><ele>203.6</ele><time>2026-05-03T07:28:42.422Z</time></trkpt><trkpt lat="44.8951504" lon="9.058854"><ele>202.8</ele><time>2026-05-03T07:28:43.426Z</time></trkpt><trkpt lat="44.8951948" lon="9.058725"><ele>202.0</ele><time>2026-05-03T07:28:44.425Z</time></trkpt><trkpt lat="44.8952377" lon="9.0585853"><ele>202.0</ele><time>2026-05-03T07:28:45.419Z</time></trkpt><trkpt lat="44.8952874" lon="9.0584383"><ele>202.0</ele><time>2026-05-03T07:28:46.421Z</time></trkpt><trkpt lat="44.8953347" lon="9.0582844"><ele>202.0</ele><time>2026-05-03T07:28:47.426Z</time></trkpt><trkpt lat="44.8953857" lon="9.0581315"><ele>202.0</ele><time>2026-05-03T07:28:48.418Z</time></trkpt><trkpt lat="44.8954385" lon="9.057974"><ele>201.6</ele><time>2026-05-03T07:28:49.42Z</time></trkpt><trkpt lat="44.8954834" lon="9.057825"><ele>201.2</ele><time>2026-05-03T07:28:50.426Z</time></trkpt><trkpt lat="44.8955281" lon="9.0576876"><ele>200.8</ele><time>2026-05-03T07:28:51.424Z</time></trkpt><trkpt lat="44.8955645" lon="9.0575605"><ele>200.4</ele><time>2026-05-03T07:28:52.421Z</time></trkpt><trkpt lat="44.8956072" lon="9.0574307"><ele>200.0</ele><time>2026-05-03T07:28:53.419Z</time></trkpt><trkpt lat="44.8956463" lon="9.057297"><ele>199.8</ele><time>2026-05-03T07:28:54.425Z</time></trkpt><trkpt lat="44.8956864" lon="9.0571652"><ele>199.6</ele><time>2026-05-03T07:28:55.418Z</time></trkpt><trkpt lat="44.8957252" lon="9.0570276"><ele>199.39999999999998</ele><time>2026-05-03T07:28:56.421Z</time></trkpt><trkpt lat="44.8957612" lon="9.056898"><ele>199.2</ele><time>2026-05-03T07:28:57.424Z</time></trkpt><trkpt lat="44.8957933" lon="9.0567924"><ele>199.0</ele><time>2026-05-03T07:28:58.421Z</time></trkpt><trkpt lat="44.8958289" lon="9.0566916"><ele>198.83333333333331</ele><time>2026-05-03T07:28:59.42Z</time></trkpt><trkpt lat="44.8958568" lon="9.0565992"><ele>198.66666666666666</ele><time>2026-05-03T07:29:00.426Z</time></trkpt><trkpt lat="44.8958968" lon="9.0565052"><ele>198.5</ele><time>2026-05-03T07:29:01.426Z</time></trkpt><trkpt lat="44.8959363" lon="9.0563848"><ele>198.33333333333331</ele><time>2026-05-03T07:29:03.419Z</time></trkpt><trkpt lat="44.8958676" lon="9.0562682"><ele>198.16666666666666</ele><time>2026-05-03T07:29:05.424Z</time></trkpt><trkpt lat="44.8958102" lon="9.0562135"><ele>198.0</ele><time>2026-05-03T07:29:06.425Z</time></trkpt><trkpt lat="44.8957446" lon="9.0561571"><ele>198.0</ele><time>2026-05-03T07:29:07.425Z</time></trkpt><trkpt lat="44.8956669" lon="9.0560892"><ele>198.0</ele><time>2026-05-03T07:29:08.418Z</time></trkpt><trkpt lat="44.8955819" lon="9.0560242"><ele>198.0</ele><time>2026-05-03T07:29:09.423Z</time></trkpt><trkpt lat="44.8954964" lon="9.0559462"><ele>198.0</ele><time>2026-05-03T07:29:10.439Z</time></trkpt><trkpt lat="44.8954027" lon="9.0558705"><ele>198.0</ele><time>2026-05-03T07:29:11.424Z</time></trkpt><trkpt lat="44.8953045" lon="9.0557905"><ele>198.0</ele><time>2026-05-03T07:29:12.423Z</time></trkpt><trkpt lat="44.8952012" lon="9.0556957"><ele>198.0</ele><time>2026-05-03T07:29:13.422Z</time></trkpt><trkpt lat="44.8950972" lon="9.0556072"><ele>198.0</ele><time>2026-05-03T07:29:14.423Z</time></trkpt><trkpt lat="44.8949969" lon="9.0555213"><ele>198.0</ele><time>2026-05-03T07:29:15.427Z</time></trkpt><trkpt lat="44.8949081" lon="9.0554326"><ele>197.0</ele><time>2026-05-03T07:29:16.428Z</time></trkpt><trkpt lat="44.8948062" lon="9.0553365"><ele>196.0</ele><time>2026-05-03T07:29:17.425Z</time></trkpt><trkpt lat="44.8946955" lon="9.0552417"><ele>195.0</ele><time>2026-05-03T07:29:18.425Z</time></trkpt><trkpt lat="44.8945787" lon="9.0551434"><ele>194.0</ele><time>2026-05-03T07:29:19.423Z</time></trkpt><trkpt lat="44.8944616" lon="9.0550299"><ele>193.33333333333334</ele><time>2026-05-03T07:29:20.421Z</time></trkpt><trkpt lat="44.894322" lon="9.0549065"><ele>192.66666666666669</ele><time>2026-05-03T07:29:21.419Z</time></trkpt><trkpt lat="44.8941915" lon="9.0547975"><ele>192.0</ele><time>2026-05-03T07:29:22.419Z</time></trkpt><trkpt lat="44.894065" lon="9.0546863"><ele>191.5</ele><time>2026-05-03T07:29:23.419Z</time></trkpt><trkpt lat="44.8939351" lon="9.0545758"><ele>191.0</ele><time>2026-05-03T07:29:24.422Z</time></trkpt><trkpt lat="44.8938162" lon="9.0544694"><ele>190.5</ele><time>2026-05-03T07:29:25.432Z</time></trkpt><trkpt lat="44.8936967" lon="9.0543698"><ele>190.0</ele><time>2026-05-03T07:29:26.422Z</time></trkpt><trkpt lat="44.8935805" lon="9.0542667"><ele>190.0</ele><time>2026-05-03T07:29:27.417Z</time></trkpt><trkpt lat="44.8934634" lon="9.0541655"><ele>190.0</ele><time>2026-05-03T07:29:28.416Z</time></trkpt><trkpt lat="44.8933505" lon="9.0540622"><ele>190.0</ele><time>2026-05-03T07:29:29.419Z</time></trkpt><trkpt lat="44.8932667" lon="9.0539345"><ele>190.0</ele><time>2026-05-03T07:29:30.425Z</time></trkpt><trkpt lat="44.893198" lon="9.0537696"><ele>191.75</ele><time>2026-05-03T07:29:31.42Z</time></trkpt><trkpt lat="44.893145" lon="9.0535979"><ele>193.5</ele><time>2026-05-03T07:29:32.421Z</time></trkpt><trkpt lat="44.8931064" lon="9.053427"><ele>195.25</ele><time>2026-05-03T07:29:33.426Z</time></trkpt><trkpt lat="44.8930927" lon="9.0532689"><ele>197.0</ele><time>2026-05-03T07:29:34.425Z</time></trkpt><trkpt lat="44.8931201" lon="9.053116"><ele>198.0</ele><time>2026-05-03T07:29:35.422Z</time></trkpt><trkpt lat="44.8931729" lon="9.0529794"><ele>199.0</ele><time>2026-05-03T07:29:36.42Z</time></trkpt><trkpt lat="44.8932233" lon="9.0528401"><ele>200.0</ele><time>2026-05-03T07:29:37.423Z</time></trkpt><trkpt lat="44.8932646" lon="9.0526953"><ele>201.0</ele><time>2026-05-03T07:29:38.424Z</time></trkpt><trkpt lat="44.8932773" lon="9.0525455"><ele>202.0</ele><time>2026-05-03T07:29:39.421Z</time></trkpt><trkpt lat="44.8932552" lon="9.052383"><ele>202.5</ele><time>2026-05-03T07:29:40.425Z</time></trkpt><trkpt lat="44.8932106" lon="9.0522152"><ele>203.0</ele><time>2026-05-03T07:29:41.42Z</time></trkpt><trkpt lat="44.8931676" lon="9.0520443"><ele>203.5</ele><time>2026-05-03T07:29:42.425Z</time></trkpt><trkpt lat="44.8931296" lon="9.0518772"><ele>204.0</ele><time>2026-05-03T07:29:43.42Z</time></trkpt><trkpt lat="44.8931045" lon="9.0517308"><ele>205.39999999999998</ele><time>2026-05-03T07:29:44.418Z</time></trkpt><trkpt lat="44.8930891" lon="9.0515965"><ele>206.8</ele><time>2026-05-03T07:29:45.416Z</time></trkpt><trkpt lat="44.8930847" lon="9.0514888"><ele>208.2</ele><time>2026-05-03T07:29:46.42Z</time></trkpt><trkpt lat="44.893035" lon="9.05136"><ele>209.60000000000002</ele><time>2026-05-03T07:29:48.422Z</time></trkpt><trkpt lat="44.8929291" lon="9.0513855"><ele>211.0</ele><time>2026-05-03T07:29:50.428Z</time></trkpt><trkpt lat="44.8928602" lon="9.0514522"><ele>211.0</ele><time>2026-05-03T07:29:51.427Z</time></trkpt><trkpt lat="44.892766" lon="9.0515385"><ele>211.0</ele><time>2026-05-03T07:29:52.419Z</time></trkpt><trkpt lat="44.8926599" lon="9.0516323"><ele>211.0</ele><time>2026-05-03T07:29:53.422Z</time></trkpt><trkpt lat="44.8925416" lon="9.051727"><ele>211.0</ele><time>2026-05-03T07:29:54.419Z</time></trkpt><trkpt lat="44.8924216" lon="9.0518089"><ele>209.5</ele><time>2026-05-03T07:29:55.418Z</time></trkpt><trkpt lat="44.8922919" lon="9.0518917"><ele>208.0</ele><time>2026-05-03T07:29:56.42Z</time></trkpt><trkpt lat="44.8921577" lon="9.0519658"><ele>206.5</ele><time>2026-05-03T07:29:57.42Z</time></trkpt><trkpt lat="44.8920166" lon="9.0520375"><ele>205.0</ele><time>2026-05-03T07:29:58.419Z</time></trkpt><trkpt lat="44.891875" lon="9.0521079"><ele>206.0</ele><time>2026-05-03T07:29:59.425Z</time></trkpt><trkpt lat="44.8917347" lon="9.0521721"><ele>207.0</ele><time>2026-05-03T07:30:00.42Z</time></trkpt><trkpt lat="44.8915851" lon="9.0522379"><ele>208.0</ele><time>2026-05-03T07:30:01.418Z</time></trkpt><trkpt lat="44.8914329" lon="9.0522994"><ele>208.0</ele><time>2026-05-03T07:30:02.42Z</time></trkpt><trkpt lat="44.8912821" lon="9.0523566"><ele>208.0</ele><time>2026-05-03T07:30:03.422Z</time></trkpt><trkpt lat="44.8911369" lon="9.052418"><ele>208.0</ele><time>2026-05-03T07:30:04.419Z</time></trkpt><trkpt lat="44.8909941" lon="9.0524757"><ele>207.25</ele><time>2026-05-03T07:30:05.419Z</time></trkpt><trkpt lat="44.8908559" lon="9.0525265"><ele>206.5</ele><time>2026-05-03T07:30:06.423Z</time></trkpt><trkpt lat="44.8907155" lon="9.0525858"><ele>205.75</ele><time>2026-05-03T07:30:07.425Z</time></trkpt><trkpt lat="44.8905748" lon="9.05264"><ele>205.0</ele><time>2026-05-03T07:30:08.419Z</time></trkpt><trkpt lat="44.8904354" lon="9.0526967"><ele>205.0</ele><time>2026-05-03T07:30:09.421Z</time></trkpt><trkpt lat="44.8902924" lon="9.0527532"><ele>205.0</ele><time>2026-05-03T07:30:10.424Z</time></trkpt><trkpt lat="44.8901445" lon="9.052811"><ele>205.0</ele><time>2026-05-03T07:30:11.421Z</time></trkpt><trkpt lat="44.8899926" lon="9.0528726"><ele>205.33333333333331</ele><time>2026-05-03T07:30:12.429Z</time></trkpt><trkpt lat="44.8898378" lon="9.052939"><ele>205.66666666666669</ele><time>2026-05-03T07:30:13.421Z</time></trkpt><trkpt lat="44.8896805" lon="9.0530113"><ele>206.0</ele><time>2026-05-03T07:30:14.417Z</time></trkpt><trkpt lat="44.8895257" lon="9.0530814"><ele>206.0</ele><time>2026-05-03T07:30:15.422Z</time></trkpt><trkpt lat="44.8893767" lon="9.0531414"><ele>206.0</ele><time>2026-05-03T07:30:16.418Z</time></trkpt><trkpt lat="44.889236" lon="9.0531729"><ele>206.0</ele><time>2026-05-03T07:30:17.419Z</time></trkpt><trkpt lat="44.8891063" lon="9.0531593"><ele>206.0</ele><time>2026-05-03T07:30:18.42Z</time></trkpt><trkpt lat="44.888987" lon="9.0530986"><ele>206.5</ele><time>2026-05-03T07:30:19.418Z</time></trkpt><trkpt lat="44.888874" lon="9.0529962"><ele>207.0</ele><time>2026-05-03T07:30:20.423Z</time></trkpt><trkpt lat="44.8887672" lon="9.0528738"><ele>207.5</ele><time>2026-05-03T07:30:21.425Z</time></trkpt><trkpt lat="44.8886539" lon="9.0527604"><ele>208.0</ele><time>2026-05-03T07:30:22.419Z</time></trkpt><trkpt lat="44.888539" lon="9.052662"><ele>207.75</ele><time>2026-05-03T07:30:23.42Z</time></trkpt><trkpt lat="44.8884117" lon="9.0525875"><ele>207.5</ele><time>2026-05-03T07:30:24.421Z</time></trkpt><trkpt lat="44.8882857" lon="9.052534"><ele>207.25</ele><time>2026-05-03T07:30:25.417Z</time></trkpt><trkpt lat="44.8881635" lon="9.0525147"><ele>207.0</ele><time>2026-05-03T07:30:26.421Z</time></trkpt><trkpt lat="44.8880397" lon="9.0525262"><ele>207.0</ele><time>2026-05-03T07:30:27.426Z</time></trkpt><trkpt lat="44.8879158" lon="9.0525645"><ele>207.0</ele><time>2026-05-03T07:30:28.421Z</time></trkpt><trkpt lat="44.887795" lon="9.0526269"><ele>207.0</ele><time>2026-05-03T07:30:29.423Z</time></trkpt><trkpt lat="44.8876729" lon="9.0526515"><ele>207.0</ele><time>2026-05-03T07:30:30.417Z</time></trkpt><trkpt lat="44.8875519" lon="9.052644"><ele>207.0</ele><time>2026-05-03T07:30:31.424Z</time></trkpt><trkpt lat="44.8874329" lon="9.0525847"><ele>207.0</ele><time>2026-05-03T07:30:32.419Z</time></trkpt><trkpt lat="44.8873008" lon="9.0524947"><ele>207.0</ele><time>2026-05-03T07:30:33.42Z</time></trkpt><trkpt lat="44.8871618" lon="9.0524118"><ele>207.0</ele><time>2026-05-03T07:30:34.419Z</time></trkpt><trkpt lat="44.8870161" lon="9.0523381"><ele>207.75</ele><time>2026-05-03T07:30:35.418Z</time></trkpt><trkpt lat="44.8868786" lon="9.05226"><ele>208.5</ele><time>2026-05-03T07:30:36.42Z</time></trkpt><trkpt lat="44.8867461" lon="9.0521966"><ele>209.25</ele><time>2026-05-03T07:30:37.419Z</time></trkpt><trkpt lat="44.8866057" lon="9.0521662"><ele>210.0</ele><time>2026-05-03T07:30:38.423Z</time></trkpt><trkpt lat="44.8864674" lon="9.052155"><ele>212.0</ele><time>2026-05-03T07:30:39.432Z</time></trkpt><trkpt lat="44.8863479" lon="9.0521676"><ele>214.0</ele><time>2026-05-03T07:30:40.421Z</time></trkpt><trkpt lat="44.8862255" lon="9.0521834"><ele>216.0</ele><time>2026-05-03T07:30:41.422Z</time></trkpt><trkpt lat="44.8861078" lon="9.0522176"><ele>218.0</ele><time>2026-05-03T07:30:42.427Z</time></trkpt><trkpt lat="44.8859957" lon="9.0522552"><ele>219.75</ele><time>2026-05-03T07:30:43.42Z</time></trkpt><trkpt lat="44.8858752" lon="9.052293"><ele>221.5</ele><time>2026-05-03T07:30:44.418Z</time></trkpt><trkpt lat="44.8857599" lon="9.0523398"><ele>223.25</ele><time>2026-05-03T07:30:45.423Z</time></trkpt><trkpt lat="44.8856449" lon="9.0523876"><ele>225.0</ele><time>2026-05-03T07:30:46.419Z</time></trkpt><trkpt lat="44.8855312" lon="9.0524228"><ele>225.0</ele><time>2026-05-03T07:30:47.419Z</time></trkpt><trkpt lat="44.8854099" lon="9.0524521"><ele>225.0</ele><time>2026-05-03T07:30:48.433Z</time></trkpt><trkpt lat="44.8852845" lon="9.0524654"><ele>225.0</ele><time>2026-05-03T07:30:49.417Z</time></trkpt><trkpt lat="44.8851585" lon="9.0524967"><ele>225.0</ele><time>2026-05-03T07:30:50.423Z</time></trkpt><trkpt lat="44.8850294" lon="9.0525389"><ele>223.75</ele><time>2026-05-03T07:30:51.421Z</time></trkpt><trkpt lat="44.8849059" lon="9.0525935"><ele>222.5</ele><time>2026-05-03T07:30:52.419Z</time></trkpt><trkpt lat="44.8847874" lon="9.0526705"><ele>221.25</ele><time>2026-05-03T07:30:53.428Z</time></trkpt><trkpt lat="44.8846659" lon="9.0527787"><ele>220.0</ele><time>2026-05-03T07:30:54.422Z</time></trkpt><trkpt lat="44.8845583" lon="9.0528957"><ele>220.0</ele><time>2026-05-03T07:30:55.419Z</time></trkpt><trkpt lat="44.8844496" lon="9.053021"><ele>220.0</ele><time>2026-05-03T07:30:56.427Z</time></trkpt><trkpt lat="44.8843283" lon="9.0531357"><ele>220.0</ele><time>2026-05-03T07:30:57.419Z</time></trkpt><trkpt lat="44.8842099" lon="9.053252"><ele>220.0</ele><time>2026-05-03T07:30:58.424Z</time></trkpt><trkpt lat="44.8840817" lon="9.0533714"><ele>220.5</ele><time>2026-05-03T07:30:59.423Z</time></trkpt><trkpt lat="44.8839729" lon="9.053484"><ele>221.0</ele><time>2026-05-03T07:31:00.419Z</time></trkpt><trkpt lat="44.8838677" lon="9.0536285"><ele>221.5</ele><time>2026-05-03T07:31:01.418Z</time></trkpt><trkpt lat="44.883755" lon="9.0537575"><ele>222.0</ele><time>2026-05-03T07:31:02.42Z</time></trkpt><trkpt lat="44.8836433" lon="9.0538669"><ele>222.0</ele><time>2026-05-03T07:31:03.425Z</time></trkpt><trkpt lat="44.8835346" lon="9.0539966"><ele>222.0</ele><time>2026-05-03T07:31:04.419Z</time></trkpt><trkpt lat="44.8834235" lon="9.0541226"><ele>222.0</ele><time>2026-05-03T07:31:05.425Z</time></trkpt><trkpt lat="44.8833075" lon="9.0542402"><ele>222.0</ele><time>2026-05-03T07:31:06.425Z</time></trkpt><trkpt lat="44.8832054" lon="9.0543217"><ele>220.0</ele><time>2026-05-03T07:31:07.422Z</time></trkpt><trkpt lat="44.8830938" lon="9.0544052"><ele>218.0</ele><time>2026-05-03T07:31:08.424Z</time></trkpt><trkpt lat="44.882977" lon="9.0544606"><ele>216.0</ele><time>2026-05-03T07:31:09.42Z</time></trkpt><trkpt lat="44.8828616" lon="9.0544981"><ele>214.0</ele><time>2026-05-03T07:31:10.421Z</time></trkpt><trkpt lat="44.8827398" lon="9.0545207"><ele>214.0</ele><time>2026-05-03T07:31:11.422Z</time></trkpt><trkpt lat="44.8826176" lon="9.0545303"><ele>213.99999999999997</ele><time>2026-05-03T07:31:12.421Z</time></trkpt><trkpt lat="44.8824966" lon="9.0545381"><ele>213.99999999999997</ele><time>2026-05-03T07:31:13.428Z</time></trkpt><trkpt lat="44.8823885" lon="9.0545444"><ele>214.0</ele><time>2026-05-03T07:31:14.421Z</time></trkpt><trkpt lat="44.8822981" lon="9.0545577"><ele>214.0</ele><time>2026-05-03T07:31:15.424Z</time></trkpt><trkpt lat="44.8822203" lon="9.0545743"><ele>213.83333333333331</ele><time>2026-05-03T07:31:16.422Z</time></trkpt><trkpt lat="44.8821527" lon="9.054623"><ele>213.66666666666666</ele><time>2026-05-03T07:31:17.427Z</time></trkpt><trkpt lat="44.8820955" lon="9.0546912"><ele>213.5</ele><time>2026-05-03T07:31:18.422Z</time></trkpt><trkpt lat="44.882042" lon="9.0547753"><ele>213.33333333333331</ele><time>2026-05-03T07:31:19.425Z</time></trkpt><trkpt lat="44.8820012" lon="9.0548819"><ele>213.16666666666666</ele><time>2026-05-03T07:31:20.421Z</time></trkpt><trkpt lat="44.8819574" lon="9.054976"><ele>213.0</ele><time>2026-05-03T07:31:21.426Z</time></trkpt><trkpt lat="44.8819225" lon="9.0550849"><ele>213.0</ele><time>2026-05-03T07:31:22.42Z</time></trkpt><trkpt lat="44.8818852" lon="9.0551944"><ele>213.0</ele><time>2026-05-03T07:31:23.423Z</time></trkpt><trkpt lat="44.8818363" lon="9.0552819"><ele>213.0</ele><time>2026-05-03T07:31:24.419Z</time></trkpt><trkpt lat="44.881754" lon="9.0553418"><ele>213.0</ele><time>2026-05-03T07:31:25.431Z</time></trkpt><trkpt lat="44.8816742" lon="9.0553514"><ele>213.0</ele><time>2026-05-03T07:31:26.423Z</time></trkpt><trkpt lat="44.8815808" lon="9.0553317"><ele>213.0</ele><time>2026-05-03T07:31:27.419Z</time></trkpt><trkpt lat="44.8814782" lon="9.055294"><ele>214.60000000000002</ele><time>2026-05-03T07:31:28.42Z</time></trkpt><trkpt lat="44.8813788" lon="9.0552545"><ele>216.20000000000002</ele><time>2026-05-03T07:31:29.421Z</time></trkpt><trkpt lat="44.8812727" lon="9.0552293"><ele>217.8</ele><time>2026-05-03T07:31:30.422Z</time></trkpt><trkpt lat="44.8811719" lon="9.0552018"><ele>219.4</ele><time>2026-05-03T07:31:31.422Z</time></trkpt><trkpt lat="44.8810642" lon="9.0551403"><ele>221.0</ele><time>2026-05-03T07:31:32.425Z</time></trkpt><trkpt lat="44.8809827" lon="9.0550707"><ele>221.33333333333334</ele><time>2026-05-03T07:31:33.424Z</time></trkpt><trkpt lat="44.8809209" lon="9.0549857"><ele>221.66666666666669</ele><time>2026-05-03T07:31:34.43Z</time></trkpt><trkpt lat="44.8808647" lon="9.0549227"><ele>222.0</ele><time>2026-05-03T07:31:35.426Z</time></trkpt><trkpt lat="44.8807509" lon="9.0548855"><ele>222.33333333333331</ele><time>2026-05-03T07:31:37.418Z</time></trkpt><trkpt lat="44.8806794" lon="9.0549181"><ele>222.66666666666666</ele><time>2026-05-03T07:31:38.421Z</time></trkpt><trkpt lat="44.8806009" lon="9.0549784"><ele>223.0</ele><time>2026-05-03T07:31:39.431Z</time></trkpt><trkpt lat="44.8805147" lon="9.0550614"><ele>223.0</ele><time>2026-05-03T07:31:40.417Z</time></trkpt><trkpt lat="44.8804178" lon="9.055158"><ele>223.0</ele><time>2026-05-03T07:31:41.421Z</time></trkpt><trkpt lat="44.8803367" lon="9.0552366"><ele>223.0</ele><time>2026-05-03T07:31:42.423Z</time></trkpt><trkpt lat="44.8802566" lon="9.0553149"><ele>223.0</ele><time>2026-05-03T07:31:43.426Z</time></trkpt><trkpt lat="44.8801634" lon="9.0553981"><ele>223.0</ele><time>2026-05-03T07:31:44.419Z</time></trkpt><trkpt lat="44.8800593" lon="9.0554789"><ele>222.75</ele><time>2026-05-03T07:31:45.421Z</time></trkpt><trkpt lat="44.8799492" lon="9.0555687"><ele>222.5</ele><time>2026-05-03T07:31:46.422Z</time></trkpt><trkpt lat="44.8798386" lon="9.0556716"><ele>222.25</ele><time>2026-05-03T07:31:47.425Z</time></trkpt><trkpt lat="44.8797319" lon="9.0557677"><ele>222.0</ele><time>2026-05-03T07:31:48.419Z</time></trkpt><trkpt lat="44.8796294" lon="9.0558599"><ele>222.0</ele><time>2026-05-03T07:31:49.421Z</time></trkpt><trkpt lat="44.8795343" lon="9.055943"><ele>222.0</ele><time>2026-05-03T07:31:50.424Z</time></trkpt><trkpt lat="44.8794506" lon="9.0560054"><ele>222.0</ele><time>2026-05-03T07:31:51.422Z</time></trkpt><trkpt lat="44.8793606" lon="9.0560296"><ele>222.0</ele><time>2026-05-03T07:31:52.424Z</time></trkpt><trkpt lat="44.8792754" lon="9.0559992"><ele>222.0</ele><time>2026-05-03T07:31:53.422Z</time></trkpt><trkpt lat="44.8792013" lon="9.0559197"><ele>221.8</ele><time>2026-05-03T07:31:54.424Z</time></trkpt><trkpt lat="44.8791409" lon="9.0558028"><ele>221.6</ele><time>2026-05-03T07:31:55.422Z</time></trkpt><trkpt lat="44.8790859" lon="9.0556652"><ele>221.40000000000003</ele><time>2026-05-03T07:31:56.421Z</time></trkpt><trkpt lat="44.8790285" lon="9.0555255"><ele>221.20000000000002</ele><time>2026-05-03T07:31:57.451Z</time></trkpt><trkpt lat="44.8789652" lon="9.0554117"><ele>221.0</ele><time>2026-05-03T07:31:58.433Z</time></trkpt><trkpt lat="44.878884" lon="9.0553459"><ele>221.0</ele><time>2026-05-03T07:31:59.424Z</time></trkpt><trkpt lat="44.8788032" lon="9.0553492"><ele>221.00000000000003</ele><time>2026-05-03T07:32:00.421Z</time></trkpt><trkpt lat="44.8787136" lon="9.055385"><ele>221.00000000000003</ele><time>2026-05-03T07:32:01.424Z</time></trkpt><trkpt lat="44.878622" lon="9.0554236"><ele>221.0</ele><time>2026-05-03T07:32:02.424Z</time></trkpt><trkpt lat="44.8785025" lon="9.0554956"><ele>221.0</ele><time>2026-05-03T07:32:03.427Z</time></trkpt><trkpt lat="44.8783866" lon="9.0555398"><ele>221.25</ele><time>2026-05-03T07:32:04.421Z</time></trkpt><trkpt lat="44.8782681" lon="9.0556103"><ele>221.5</ele><time>2026-05-03T07:32:05.426Z</time></trkpt><trkpt lat="44.8781485" lon="9.0556853"><ele>221.75</ele><time>2026-05-03T07:32:06.419Z</time></trkpt><trkpt lat="44.8780314" lon="9.0557654"><ele>222.0</ele><time>2026-05-03T07:32:07.427Z</time></trkpt><trkpt lat="44.877912" lon="9.0558289"><ele>222.0</ele><time>2026-05-03T07:32:08.427Z</time></trkpt><trkpt lat="44.8777858" lon="9.0558742"><ele>222.0</ele><time>2026-05-03T07:32:09.422Z</time></trkpt><trkpt lat="44.8776578" lon="9.0558881"><ele>222.0</ele><time>2026-05-03T07:32:10.418Z</time></trkpt><trkpt lat="44.8775343" lon="9.0558676"><ele>222.0</ele><time>2026-05-03T07:32:11.426Z</time></trkpt><trkpt lat="44.87741" lon="9.0558294"><ele>224.0</ele><time>2026-05-03T07:32:12.428Z</time></trkpt><trkpt lat="44.8772821" lon="9.0557865"><ele>226.0</ele><time>2026-05-03T07:32:13.42Z</time></trkpt><trkpt lat="44.8771446" lon="9.0557387"><ele>228.0</ele><time>2026-05-03T07:32:14.426Z</time></trkpt><trkpt lat="44.8770163" lon="9.0556714"><ele>230.0</ele><time>2026-05-03T07:32:15.425Z</time></trkpt><trkpt lat="44.8768895" lon="9.055595"><ele>230.5</ele><time>2026-05-03T07:32:16.42Z</time></trkpt><trkpt lat="44.8767578" lon="9.0555288"><ele>231.0</ele><time>2026-05-03T07:32:17.42Z</time></trkpt><trkpt lat="44.8766412" lon="9.0554476"><ele>231.5</ele><time>2026-05-03T07:32:18.427Z</time></trkpt><trkpt lat="44.8765316" lon="9.0553713"><ele>232.0</ele><time>2026-05-03T07:32:19.418Z</time></trkpt><trkpt lat="44.8764277" lon="9.0553131"><ele>232.0</ele><time>2026-05-03T07:32:20.422Z</time></trkpt><trkpt lat="44.8763375" lon="9.0552975"><ele>232.0</ele><time>2026-05-03T07:32:21.425Z</time></trkpt><trkpt lat="44.8762657" lon="9.0553208"><ele>232.0</ele><time>2026-05-03T07:32:22.428Z</time></trkpt><trkpt lat="44.8761848" lon="9.0553873"><ele>232.0</ele><time>2026-05-03T07:32:23.424Z</time></trkpt><trkpt lat="44.8760844" lon="9.0554719"><ele>232.0</ele><time>2026-05-03T07:32:24.421Z</time></trkpt><trkpt lat="44.8759853" lon="9.0555407"><ele>232.75</ele><time>2026-05-03T07:32:25.419Z</time></trkpt><trkpt lat="44.8758788" lon="9.0556207"><ele>233.5</ele><time>2026-05-03T07:32:26.417Z</time></trkpt><trkpt lat="44.8757615" lon="9.0557138"><ele>234.25</ele><time>2026-05-03T07:32:27.421Z</time></trkpt><trkpt lat="44.8756468" lon="9.0558055"><ele>235.0</ele><time>2026-05-03T07:32:28.418Z</time></trkpt><trkpt lat="44.8755253" lon="9.0559022"><ele>235.0</ele><time>2026-05-03T07:32:29.422Z</time></trkpt><trkpt lat="44.8754035" lon="9.0559983"><ele>235.0</ele><time>2026-05-03T07:32:30.425Z</time></trkpt><trkpt lat="44.8752769" lon="9.0561064"><ele>235.0</ele><time>2026-05-03T07:32:31.421Z</time></trkpt><trkpt lat="44.8751516" lon="9.0562146"><ele>235.0</ele><time>2026-05-03T07:32:32.427Z</time></trkpt><trkpt lat="44.8750222" lon="9.0563259"><ele>236.0</ele><time>2026-05-03T07:32:33.418Z</time></trkpt><trkpt lat="44.8748925" lon="9.0564385"><ele>237.0</ele><time>2026-05-03T07:32:34.418Z</time></trkpt><trkpt lat="44.8747622" lon="9.0565495"><ele>238.0</ele><time>2026-05-03T07:32:35.429Z</time></trkpt><trkpt lat="44.8746355" lon="9.0566585"><ele>238.25</ele><time>2026-05-03T07:32:36.42Z</time></trkpt><trkpt lat="44.874507" lon="9.0567634"><ele>238.5</ele><time>2026-05-03T07:32:37.421Z</time></trkpt><trkpt lat="44.8743804" lon="9.0568648"><ele>238.75</ele><time>2026-05-03T07:32:38.43Z</time></trkpt><trkpt lat="44.8742526" lon="9.056972"><ele>239.0</ele><time>2026-05-03T07:32:39.426Z</time></trkpt><trkpt lat="44.874118" lon="9.0570889"><ele>239.0</ele><time>2026-05-03T07:32:40.423Z</time></trkpt><trkpt lat="44.8739953" lon="9.0571997"><ele>239.0</ele><time>2026-05-03T07:32:41.422Z</time></trkpt><trkpt lat="44.8738696" lon="9.0573062"><ele>239.0</ele><time>2026-05-03T07:32:42.42Z</time></trkpt><trkpt lat="44.8737401" lon="9.0574128"><ele>239.0</ele><time>2026-05-03T07:32:43.423Z</time></trkpt><trkpt lat="44.8736094" lon="9.0575136"><ele>239.33333333333334</ele><time>2026-05-03T07:32:44.419Z</time></trkpt><trkpt lat="44.8734782" lon="9.057616"><ele>239.66666666666669</ele><time>2026-05-03T07:32:45.424Z</time></trkpt><trkpt lat="44.8733479" lon="9.0577221"><ele>240.0</ele><time>2026-05-03T07:32:46.427Z</time></trkpt><trkpt lat="44.8732121" lon="9.0578258"><ele>240.0</ele><time>2026-05-03T07:32:47.428Z</time></trkpt><trkpt lat="44.8730795" lon="9.0579294"><ele>240.0</ele><time>2026-05-03T07:32:48.423Z</time></trkpt><trkpt lat="44.8729475" lon="9.0580311"><ele>240.0</ele><time>2026-05-03T07:32:49.426Z</time></trkpt><trkpt lat="44.8728148" lon="9.0581333"><ele>240.0</ele><time>2026-05-03T07:32:50.421Z</time></trkpt><trkpt lat="44.8726871" lon="9.0582351"><ele>240.0</ele><time>2026-05-03T07:32:51.421Z</time></trkpt><trkpt lat="44.8725627" lon="9.0583433"><ele>240.0</ele><time>2026-05-03T07:32:52.42Z</time></trkpt><trkpt lat="44.872435" lon="9.0584544"><ele>240.0</ele><time>2026-05-03T07:32:53.418Z</time></trkpt><trkpt lat="44.8723058" lon="9.0585659"><ele>241.0</ele><time>2026-05-03T07:32:54.42Z</time></trkpt><trkpt lat="44.8721794" lon="9.0586698"><ele>242.0</ele><time>2026-05-03T07:32:55.421Z</time></trkpt><trkpt lat="44.8720626" lon="9.0587641"><ele>243.0</ele><time>2026-05-03T07:32:56.42Z</time></trkpt><trkpt lat="44.8719641" lon="9.0588282"><ele>244.0</ele><time>2026-05-03T07:32:57.422Z</time></trkpt><trkpt lat="44.8718643" lon="9.0588711"><ele>244.0</ele><time>2026-05-03T07:32:58.42Z</time></trkpt><trkpt lat="44.8717771" lon="9.0588614"><ele>243.99999999999997</ele><time>2026-05-03T07:32:59.419Z</time></trkpt><trkpt lat="44.8717169" lon="9.0588037"><ele>243.99999999999997</ele><time>2026-05-03T07:33:00.423Z</time></trkpt><trkpt lat="44.8716154" lon="9.0587204"><ele>244.0</ele><time>2026-05-03T07:33:01.428Z</time></trkpt><trkpt lat="44.8715093" lon="9.0586262"><ele>244.0</ele><time>2026-05-03T07:33:02.419Z</time></trkpt><trkpt lat="44.8714026" lon="9.058522"><ele>245.25</ele><time>2026-05-03T07:33:03.419Z</time></trkpt><trkpt lat="44.8712904" lon="9.0584135"><ele>246.5</ele><time>2026-05-03T07:33:04.427Z</time></trkpt><trkpt lat="44.8711819" lon="9.0583085"><ele>247.75</ele><time>2026-05-03T07:33:05.421Z</time></trkpt><trkpt lat="44.8710787" lon="9.0582207"><ele>249.0</ele><time>2026-05-03T07:33:06.42Z</time></trkpt><trkpt lat="44.8709722" lon="9.0581518"><ele>248.75</ele><time>2026-05-03T07:33:07.424Z</time></trkpt><trkpt lat="44.8708883" lon="9.0581608"><ele>248.5</ele><time>2026-05-03T07:33:08.423Z</time></trkpt><trkpt lat="44.8707709" lon="9.0583018"><ele>248.25</ele><time>2026-05-03T07:33:10.424Z</time></trkpt><trkpt lat="44.8707552" lon="9.0584294"><ele>248.0</ele><time>2026-05-03T07:33:11.423Z</time></trkpt><trkpt lat="44.8707723" lon="9.058756"><ele>248.0</ele><time>2026-05-03T07:33:13.419Z</time></trkpt><trkpt lat="44.870749" lon="9.0589127"><ele>248.0</ele><time>2026-05-03T07:33:14.432Z</time></trkpt><trkpt lat="44.8706138" lon="9.0592064"><ele>248.0</ele><time>2026-05-03T07:33:16.427Z</time></trkpt><trkpt lat="44.8705204" lon="9.0593257"><ele>249.5</ele><time>2026-05-03T07:33:17.421Z</time></trkpt><trkpt lat="44.8702939" lon="9.059458"><ele>251.0</ele><time>2026-05-03T07:33:19.42Z</time></trkpt><trkpt lat="44.8698883" lon="9.0595136"><ele>251.0</ele><time>2026-05-03T07:33:22.423Z</time></trkpt><trkpt lat="44.8696119" lon="9.0595002"><ele>251.0</ele><time>2026-05-03T07:33:24.42Z</time></trkpt><trkpt lat="44.8692298" lon="9.0593215"><ele>252.5</ele><time>2026-05-03T07:33:27.42Z</time></trkpt><trkpt lat="44.8689333" lon="9.0591587"><ele>254.0</ele><time>2026-05-03T07:33:30.419Z</time></trkpt><trkpt lat="44.8686517" lon="9.0592238"><ele>254.0</ele><time>2026-05-03T07:33:33.431Z</time></trkpt><trkpt lat="44.8685524" lon="9.0593105"><ele>254.0</ele><time>2026-05-03T07:33:34.423Z</time></trkpt><trkpt lat="44.8681709" lon="9.0601271"><ele>254.0</ele><time>2026-05-03T07:33:40.427Z</time></trkpt><trkpt lat="44.8681367" lon="9.060266"><ele>254.0</ele><time>2026-05-03T07:33:41.429Z</time></trkpt><trkpt lat="44.8680569" lon="9.0603755"><ele>254.0</ele><time>2026-05-03T07:33:42.419Z</time></trkpt><trkpt lat="44.8679551" lon="9.0604746"><ele>254.0</ele><time>2026-05-03T07:33:43.424Z</time></trkpt><trkpt lat="44.8678387" lon="9.0605642"><ele>254.0</ele><time>2026-05-03T07:33:44.421Z</time></trkpt><trkpt lat="44.8677134" lon="9.0606575"><ele>254.0</ele><time>2026-05-03T07:33:45.425Z</time></trkpt><trkpt lat="44.8675888" lon="9.0607494"><ele>254.0</ele><time>2026-05-03T07:33:46.422Z</time></trkpt><trkpt lat="44.8674713" lon="9.0608526"><ele>254.0</ele><time>2026-05-03T07:33:47.424Z</time></trkpt><trkpt lat="44.8673631" lon="9.0609332"><ele>253.25</ele><time>2026-05-03T07:33:48.429Z</time></trkpt><trkpt lat="44.8672514" lon="9.061028"><ele>252.5</ele><time>2026-05-03T07:33:49.421Z</time></trkpt><trkpt lat="44.8671462" lon="9.0611128"><ele>251.75</ele><time>2026-05-03T07:33:50.421Z</time></trkpt><trkpt lat="44.8670417" lon="9.0611914"><ele>251.0</ele><time>2026-05-03T07:33:51.423Z</time></trkpt><trkpt lat="44.8669441" lon="9.0612892"><ele>251.0</ele><time>2026-05-03T07:33:52.424Z</time></trkpt><trkpt lat="44.8668641" lon="9.0613944"><ele>251.0</ele><time>2026-05-03T07:33:53.419Z</time></trkpt><trkpt lat="44.8667966" lon="9.0615212"><ele>251.0</ele><time>2026-05-03T07:33:54.417Z</time></trkpt><trkpt lat="44.8667313" lon="9.0616565"><ele>251.0</ele><time>2026-05-03T07:33:55.421Z</time></trkpt><trkpt lat="44.8666778" lon="9.0618048"><ele>248.75</ele><time>2026-05-03T07:33:56.425Z</time></trkpt><trkpt lat="44.8666488" lon="9.0619659"><ele>246.5</ele><time>2026-05-03T07:33:57.422Z</time></trkpt><trkpt lat="44.8666427" lon="9.0621379"><ele>244.25</ele><time>2026-05-03T07:33:58.428Z</time></trkpt><trkpt lat="44.8666533" lon="9.0623199"><ele>242.0</ele><time>2026-05-03T07:33:59.424Z</time></trkpt><trkpt lat="44.8666556" lon="9.0624904"><ele>241.0</ele><time>2026-05-03T07:34:00.433Z</time></trkpt><trkpt lat="44.8666441" lon="9.0626444"><ele>240.0</ele><time>2026-05-03T07:34:01.418Z</time></trkpt><trkpt lat="44.8666199" lon="9.0627832"><ele>239.0</ele><time>2026-05-03T07:34:02.429Z</time></trkpt><trkpt lat="44.8665781" lon="9.0629202"><ele>238.0</ele><time>2026-05-03T07:34:03.436Z</time></trkpt><trkpt lat="44.8665161" lon="9.0630632"><ele>237.0</ele><time>2026-05-03T07:34:04.433Z</time></trkpt><trkpt lat="44.8664375" lon="9.0631832"><ele>237.0</ele><time>2026-05-03T07:34:05.427Z</time></trkpt><trkpt lat="44.8663385" lon="9.063305"><ele>237.0</ele><time>2026-05-03T07:34:06.426Z</time></trkpt><trkpt lat="44.866253" lon="9.0634223"><ele>237.0</ele><time>2026-05-03T07:34:07.42Z</time></trkpt><trkpt lat="44.8661644" lon="9.0635416"><ele>237.0</ele><time>2026-05-03T07:34:08.418Z</time></trkpt><trkpt lat="44.8660871" lon="9.0636492"><ele>237.0</ele><time>2026-05-03T07:34:09.424Z</time></trkpt><trkpt lat="44.8660259" lon="9.063742"><ele>237.0</ele><time>2026-05-03T07:34:10.418Z</time></trkpt><trkpt lat="44.8659772" lon="9.06381"><ele>237.0</ele><time>2026-05-03T07:34:11.423Z</time></trkpt><trkpt lat="44.8659338" lon="9.0639327"><ele>237.0</ele><time>2026-05-03T07:34:13.416Z</time></trkpt><trkpt lat="44.865973" lon="9.0640837"><ele>237.0</ele><time>2026-05-03T07:34:15.424Z</time></trkpt><trkpt lat="44.8660274" lon="9.0641636"><ele>237.0</ele><time>2026-05-03T07:34:16.425Z</time></trkpt><trkpt lat="44.8660918" lon="9.0642457"><ele>237.0</ele><time>2026-05-03T07:34:17.423Z</time></trkpt><trkpt lat="44.8661645" lon="9.0643351"><ele>237.0</ele><time>2026-05-03T07:34:18.426Z</time></trkpt><trkpt lat="44.8662374" lon="9.0644337"><ele>237.0</ele><time>2026-05-03T07:34:19.424Z</time></trkpt><trkpt lat="44.8663173" lon="9.0645233"><ele>237.0</ele><time>2026-05-03T07:34:20.42Z</time></trkpt><trkpt lat="44.8663962" lon="9.0646185"><ele>237.0</ele><time>2026-05-03T07:34:21.424Z</time></trkpt><trkpt lat="44.8664762" lon="9.0647135"><ele>237.0</ele><time>2026-05-03T07:34:22.419Z</time></trkpt><trkpt lat="44.8665493" lon="9.0648012"><ele>237.0</ele><time>2026-05-03T07:34:23.433Z</time></trkpt><trkpt lat="44.8666058" lon="9.0648803"><ele>237.0</ele><time>2026-05-03T07:34:24.421Z</time></trkpt><trkpt lat="44.8666407" lon="9.0649791"><ele>237.0</ele><time>2026-05-03T07:34:25.427Z</time></trkpt><trkpt lat="44.8666391" lon="9.0650831"><ele>237.0</ele><time>2026-05-03T07:34:26.422Z</time></trkpt><trkpt lat="44.8665932" lon="9.0651716"><ele>237.0</ele><time>2026-05-03T07:34:27.417Z</time></trkpt><trkpt lat="44.8665248" lon="9.0652577"><ele>237.2</ele><time>2026-05-03T07:34:28.426Z</time></trkpt><trkpt lat="44.8664504" lon="9.0653455"><ele>237.39999999999998</ele><time>2026-05-03T07:34:29.421Z</time></trkpt><trkpt lat="44.8663733" lon="9.0654493"><ele>237.60000000000002</ele><time>2026-05-03T07:34:30.421Z</time></trkpt><trkpt lat="44.8662962" lon="9.0655634"><ele>237.8</ele><time>2026-05-03T07:34:31.417Z</time></trkpt><trkpt lat="44.866213" lon="9.0656879"><ele>238.0</ele><time>2026-05-03T07:34:32.418Z</time></trkpt><trkpt lat="44.8661286" lon="9.0658067"><ele>237.66666666666666</ele><time>2026-05-03T07:34:33.421Z</time></trkpt><trkpt lat="44.8660627" lon="9.0659112"><ele>237.33333333333331</ele><time>2026-05-03T07:34:34.423Z</time></trkpt><trkpt lat="44.8660057" lon="9.0660071"><ele>237.0</ele><time>2026-05-03T07:34:35.422Z</time></trkpt><trkpt lat="44.8659552" lon="9.0660929"><ele>236.66666666666669</ele><time>2026-05-03T07:34:36.418Z</time></trkpt><trkpt lat="44.8659022" lon="9.0661888"><ele>236.33333333333334</ele><time>2026-05-03T07:34:37.421Z</time></trkpt><trkpt lat="44.8658425" lon="9.0662868"><ele>236.0</ele><time>2026-05-03T07:34:38.418Z</time></trkpt><trkpt lat="44.8657706" lon="9.0663775"><ele>235.8</ele><time>2026-05-03T07:34:39.423Z</time></trkpt><trkpt lat="44.8656897" lon="9.0664752"><ele>235.60000000000002</ele><time>2026-05-03T07:34:40.421Z</time></trkpt><trkpt lat="44.8656121" lon="9.0665782"><ele>235.4</ele><time>2026-05-03T07:34:41.423Z</time></trkpt><trkpt lat="44.8655381" lon="9.0666923"><ele>235.2</ele><time>2026-05-03T07:34:42.429Z</time></trkpt><trkpt lat="44.8654694" lon="9.066804"><ele>235.0</ele><time>2026-05-03T07:34:43.422Z</time></trkpt><trkpt lat="44.8654018" lon="9.0669201"><ele>234.8</ele><time>2026-05-03T07:34:44.422Z</time></trkpt><trkpt lat="44.8653393" lon="9.0670376"><ele>234.6</ele><time>2026-05-03T07:34:45.419Z</time></trkpt><trkpt lat="44.8652766" lon="9.0671602"><ele>234.39999999999998</ele><time>2026-05-03T07:34:46.42Z</time></trkpt><trkpt lat="44.865225" lon="9.0672769"><ele>234.2</ele><time>2026-05-03T07:34:47.421Z</time></trkpt><trkpt lat="44.8651812" lon="9.067377"><ele>234.0</ele><time>2026-05-03T07:34:48.423Z</time></trkpt><trkpt lat="44.8651386" lon="9.0674562"><ele>234.16666666666666</ele><time>2026-05-03T07:34:49.426Z</time></trkpt><trkpt lat="44.8650784" lon="9.0675443"><ele>234.33333333333331</ele><time>2026-05-03T07:34:51.419Z</time></trkpt><trkpt lat="44.8650018" lon="9.067525"><ele>234.5</ele><time>2026-05-03T07:37:20.21Z</time></trkpt><trkpt lat="44.8649128" lon="9.0675143"><ele>234.66666666666666</ele><time>2026-05-03T07:37:22.222Z</time></trkpt><trkpt lat="44.8648402" lon="9.0675115"><ele>234.83333333333331</ele><time>2026-05-03T07:37:23.21Z</time></trkpt><trkpt lat="44.864758" lon="9.0675005"><ele>235.0</ele><time>2026-05-03T07:37:24.211Z</time></trkpt><trkpt lat="44.8646698" lon="9.067455"><ele>235.25</ele><time>2026-05-03T07:37:25.209Z</time></trkpt><trkpt lat="44.8645913" lon="9.0673648"><ele>235.5</ele><time>2026-05-03T07:37:26.204Z</time></trkpt><trkpt lat="44.8645182" lon="9.0672599"><ele>235.75</ele><time>2026-05-03T07:37:27.219Z</time></trkpt><trkpt lat="44.8644318" lon="9.0671412"><ele>236.0</ele><time>2026-05-03T07:37:28.213Z</time></trkpt><trkpt lat="44.8643332" lon="9.0670091"><ele>236.66666666666669</ele><time>2026-05-03T07:37:29.207Z</time></trkpt><trkpt lat="44.8642299" lon="9.0668672"><ele>237.33333333333331</ele><time>2026-05-03T07:37:30.207Z</time></trkpt><trkpt lat="44.8641089" lon="9.0667109"><ele>238.0</ele><time>2026-05-03T07:37:31.207Z</time></trkpt><trkpt lat="44.8639682" lon="9.0665379"><ele>238.33333333333331</ele><time>2026-05-03T07:37:32.213Z</time></trkpt><trkpt lat="44.8638367" lon="9.0663643"><ele>238.66666666666669</ele><time>2026-05-03T07:37:33.211Z</time></trkpt><trkpt lat="44.8637205" lon="9.0662103"><ele>239.0</ele><time>2026-05-03T07:37:34.212Z</time></trkpt><trkpt lat="44.863608" lon="9.0660578"><ele>239.0</ele><time>2026-05-03T07:37:35.21Z</time></trkpt><trkpt lat="44.8635015" lon="9.06591"><ele>239.0</ele><time>2026-05-03T07:37:36.214Z</time></trkpt><trkpt lat="44.8633962" lon="9.0657698"><ele>239.0</ele><time>2026-05-03T07:37:37.212Z</time></trkpt><trkpt lat="44.8632938" lon="9.0656429"><ele>239.0</ele><time>2026-05-03T07:37:38.205Z</time></trkpt><trkpt lat="44.8631889" lon="9.0655223"><ele>240.2</ele><time>2026-05-03T07:37:39.213Z</time></trkpt><trkpt lat="44.8630971" lon="9.0654088"><ele>241.39999999999998</ele><time>2026-05-03T07:37:40.214Z</time></trkpt><trkpt lat="44.8630163" lon="9.065316"><ele>242.6</ele><time>2026-05-03T07:37:41.207Z</time></trkpt><trkpt lat="44.8629334" lon="9.0652534"><ele>243.8</ele><time>2026-05-03T07:37:42.209Z</time></trkpt><trkpt lat="44.862848" lon="9.0652296"><ele>245.0</ele><time>2026-05-03T07:37:43.208Z</time></trkpt><trkpt lat="44.8627737" lon="9.0652615"><ele>245.0</ele><time>2026-05-03T07:37:44.21Z</time></trkpt><trkpt lat="44.8627045" lon="9.0653468"><ele>245.0</ele><time>2026-05-03T07:37:45.219Z</time></trkpt><trkpt lat="44.8626257" lon="9.0654656"><ele>245.0</ele><time>2026-05-03T07:37:46.217Z</time></trkpt><trkpt lat="44.8625501" lon="9.0656141"><ele>245.0</ele><time>2026-05-03T07:37:47.208Z</time></trkpt><trkpt lat="44.8624631" lon="9.0657629"><ele>246.2</ele><time>2026-05-03T07:37:48.211Z</time></trkpt><trkpt lat="44.8623868" lon="9.0658909"><ele>247.4</ele><time>2026-05-03T07:37:49.217Z</time></trkpt><trkpt lat="44.8623191" lon="9.0660164"><ele>248.60000000000002</ele><time>2026-05-03T07:37:50.208Z</time></trkpt><trkpt lat="44.8622691" lon="9.0661257"><ele>249.8</ele><time>2026-05-03T07:37:51.212Z</time></trkpt><trkpt lat="44.8622132" lon="9.0661891"><ele>251.0</ele><time>2026-05-03T07:37:52.213Z</time></trkpt><trkpt lat="44.8621433" lon="9.0662375"><ele>251.0</ele><time>2026-05-03T07:37:53.212Z</time></trkpt><trkpt lat="44.8620533" lon="9.0662921"><ele>251.00000000000003</ele><time>2026-05-03T07:37:54.21Z</time></trkpt><trkpt lat="44.8619659" lon="9.0663308"><ele>251.00000000000003</ele><time>2026-05-03T07:37:55.209Z</time></trkpt><trkpt lat="44.8618569" lon="9.066368"><ele>251.0</ele><time>2026-05-03T07:37:56.207Z</time></trkpt><trkpt lat="44.8617914" lon="9.0664208"><ele>251.0</ele><time>2026-05-03T07:37:57.216Z</time></trkpt><trkpt lat="44.8616991" lon="9.0664863"><ele>253.0</ele><time>2026-05-03T07:37:58.214Z</time></trkpt><trkpt lat="44.861631" lon="9.066575"><ele>255.00000000000003</ele><time>2026-05-03T07:37:59.212Z</time></trkpt><trkpt lat="44.8615512" lon="9.0666418"><ele>257.0</ele><time>2026-05-03T07:38:00.211Z</time></trkpt><trkpt lat="44.8614716" lon="9.0666845"><ele>259.0</ele><time>2026-05-03T07:38:01.21Z</time></trkpt><trkpt lat="44.8613932" lon="9.0666749"><ele>261.0</ele><time>2026-05-03T07:38:02.21Z</time></trkpt><trkpt lat="44.8612902" lon="9.0666975"><ele>261.0</ele><time>2026-05-03T07:38:03.205Z</time></trkpt><trkpt lat="44.8611796" lon="9.0667702"><ele>261.0</ele><time>2026-05-03T07:38:04.21Z</time></trkpt><trkpt lat="44.8610955" lon="9.0668467"><ele>261.0</ele><time>2026-05-03T07:38:05.213Z</time></trkpt><trkpt lat="44.861039" lon="9.0669387"><ele>261.0</ele><time>2026-05-03T07:38:06.208Z</time></trkpt><trkpt lat="44.8610325" lon="9.0671279"><ele>261.0</ele><time>2026-05-03T07:38:07.21Z</time></trkpt><trkpt lat="44.8609954" lon="9.0672888"><ele>261.0</ele><time>2026-05-03T07:38:08.212Z</time></trkpt><trkpt lat="44.8609578" lon="9.067443"><ele>261.0</ele><time>2026-05-03T07:38:09.21Z</time></trkpt><trkpt lat="44.8609109" lon="9.067585"><ele>261.0</ele><time>2026-05-03T07:38:10.208Z</time></trkpt><trkpt lat="44.8608589" lon="9.0677322"><ele>261.0</ele><time>2026-05-03T07:38:11.206Z</time></trkpt><trkpt lat="44.8607921" lon="9.0678222"><ele>261.0</ele><time>2026-05-03T07:38:12.205Z</time></trkpt><trkpt lat="44.860737" lon="9.0679136"><ele>266.2</ele><time>2026-05-03T07:38:13.209Z</time></trkpt><trkpt lat="44.8606987" lon="9.0680033"><ele>271.40000000000003</ele><time>2026-05-03T07:38:14.215Z</time></trkpt><trkpt lat="44.8606772" lon="9.0680962"><ele>276.6</ele><time>2026-05-03T07:38:15.211Z</time></trkpt><trkpt lat="44.8607604" lon="9.0682424"><ele>281.8</ele><time>2026-05-03T07:38:16.212Z</time></trkpt><trkpt lat="44.860758" lon="9.0683645"><ele>287.0</ele><time>2026-05-03T07:38:17.21Z</time></trkpt><trkpt lat="44.8607536" lon="9.06854"><ele>287.0</ele><time>2026-05-03T07:38:18.208Z</time></trkpt><trkpt lat="44.8607441" lon="9.0686713"><ele>287.0</ele><time>2026-05-03T07:38:19.21Z</time></trkpt><trkpt lat="44.8607057" lon="9.0687711"><ele>287.0</ele><time>2026-05-03T07:38:20.21Z</time></trkpt><trkpt lat="44.86062" lon="9.0688789"><ele>287.0</ele><time>2026-05-03T07:38:21.208Z</time></trkpt><trkpt lat="44.8605302" lon="9.0689587"><ele>287.0</ele><time>2026-05-03T07:38:22.211Z</time></trkpt><trkpt lat="44.8604355" lon="9.0690267"><ele>287.0</ele><time>2026-05-03T07:38:23.212Z</time></trkpt><trkpt lat="44.8603584" lon="9.0690362"><ele>287.0</ele><time>2026-05-03T07:38:24.21Z</time></trkpt><trkpt lat="44.8602697" lon="9.0690567"><ele>287.0</ele><time>2026-05-03T07:38:25.206Z</time></trkpt><trkpt lat="44.8601703" lon="9.0690779"><ele>287.0</ele><time>2026-05-03T07:38:26.208Z</time></trkpt><trkpt lat="44.8600314" lon="9.0690672"><ele>287.0</ele><time>2026-05-03T07:38:27.204Z</time></trkpt><trkpt lat="44.8599006" lon="9.0690392"><ele>296.75</ele><time>2026-05-03T07:38:28.212Z</time></trkpt><trkpt lat="44.8597617" lon="9.0689984"><ele>306.5</ele><time>2026-05-03T07:38:29.213Z</time></trkpt><trkpt lat="44.8596025" lon="9.0690077"><ele>316.25</ele><time>2026-05-03T07:38:30.215Z</time></trkpt><trkpt lat="44.8594677" lon="9.0690135"><ele>326.0</ele><time>2026-05-03T07:38:31.21Z</time></trkpt><trkpt lat="44.8593675" lon="9.0689939"><ele>324.8</ele><time>2026-05-03T07:38:32.209Z</time></trkpt><trkpt lat="44.8592606" lon="9.0689875"><ele>323.6</ele><time>2026-05-03T07:38:33.212Z</time></trkpt><trkpt lat="44.8591874" lon="9.0689841"><ele>322.4</ele><time>2026-05-03T07:38:34.207Z</time></trkpt><trkpt lat="44.8591002" lon="9.0689638"><ele>321.2</ele><time>2026-05-03T07:38:35.216Z</time></trkpt><trkpt lat="44.858999" lon="9.0689998"><ele>320.0</ele><time>2026-05-03T07:38:37.209Z</time></trkpt><trkpt lat="44.8589185" lon="9.0691325"><ele>320.0</ele><time>2026-05-03T07:38:39.223Z</time></trkpt><trkpt lat="44.858871" lon="9.0692879"><ele>320.0</ele><time>2026-05-03T07:38:40.217Z</time></trkpt><trkpt lat="44.8588108" lon="9.0694582"><ele>320.0</ele><time>2026-05-03T07:38:41.208Z</time></trkpt><trkpt lat="44.8587366" lon="9.0696189"><ele>320.0</ele><time>2026-05-03T07:38:42.215Z</time></trkpt><trkpt lat="44.8586501" lon="9.0697742"><ele>320.0</ele><time>2026-05-03T07:38:43.212Z</time></trkpt><trkpt lat="44.8585105" lon="9.0699022"><ele>320.0</ele><time>2026-05-03T07:38:44.216Z</time></trkpt><trkpt lat="44.8583755" lon="9.07002"><ele>320.0</ele><time>2026-05-03T07:38:45.209Z</time></trkpt><trkpt lat="44.8582536" lon="9.0701548"><ele>321.33333333333337</ele><time>2026-05-03T07:38:46.214Z</time></trkpt><trkpt lat="44.858113" lon="9.0702889"><ele>322.6666666666667</ele><time>2026-05-03T07:38:47.206Z</time></trkpt><trkpt lat="44.857975" lon="9.0704095"><ele>324.0</ele><time>2026-05-03T07:38:48.208Z</time></trkpt><trkpt lat="44.8578422" lon="9.0705063"><ele>324.0</ele><time>2026-05-03T07:38:49.208Z</time></trkpt><trkpt lat="44.8576773" lon="9.070601"><ele>324.0</ele><time>2026-05-03T07:38:50.217Z</time></trkpt><trkpt lat="44.8576066" lon="9.0705444"><ele>324.0</ele><time>2026-05-03T07:38:51.208Z</time></trkpt><trkpt lat="44.8575416" lon="9.070435"><ele>324.0</ele><time>2026-05-03T07:38:52.209Z</time></trkpt><trkpt lat="44.8574358" lon="9.0703408"><ele>324.75</ele><time>2026-05-03T07:38:53.21Z</time></trkpt><trkpt lat="44.8573346" lon="9.0702452"><ele>325.5</ele><time>2026-05-03T07:38:54.209Z</time></trkpt><trkpt lat="44.8572173" lon="9.0702039"><ele>326.25</ele><time>2026-05-03T07:38:55.213Z</time></trkpt><trkpt lat="44.8570915" lon="9.0701824"><ele>327.0</ele><time>2026-05-03T07:38:56.208Z</time></trkpt><trkpt lat="44.8569729" lon="9.0701429"><ele>327.0</ele><time>2026-05-03T07:38:57.21Z</time></trkpt><trkpt lat="44.8568732" lon="9.0700941"><ele>327.0</ele><time>2026-05-03T07:38:58.219Z</time></trkpt><trkpt lat="44.8568173" lon="9.0700007"><ele>327.0</ele><time>2026-05-03T07:38:59.207Z</time></trkpt><trkpt lat="44.8567956" lon="9.0698643"><ele>327.0</ele><time>2026-05-03T07:39:00.208Z</time></trkpt><trkpt lat="44.8567714" lon="9.0697165"><ele>327.0</ele><time>2026-05-03T07:39:01.207Z</time></trkpt><trkpt lat="44.8567495" lon="9.0695489"><ele>327.5</ele><time>2026-05-03T07:39:02.211Z</time></trkpt><trkpt lat="44.8567207" lon="9.0693673"><ele>328.0</ele><time>2026-05-03T07:39:03.206Z</time></trkpt><trkpt lat="44.8566738" lon="9.069188"><ele>328.5</ele><time>2026-05-03T07:39:04.207Z</time></trkpt><trkpt lat="44.8566201" lon="9.0690287"><ele>329.0</ele><time>2026-05-03T07:39:05.21Z</time></trkpt><trkpt lat="44.856579" lon="9.0688717"><ele>331.75</ele><time>2026-05-03T07:39:06.208Z</time></trkpt><trkpt lat="44.8565698" lon="9.0686972"><ele>334.5</ele><time>2026-05-03T07:39:07.213Z</time></trkpt><trkpt lat="44.8565691" lon="9.0685064"><ele>337.25</ele><time>2026-05-03T07:39:08.207Z</time></trkpt><trkpt lat="44.8565673" lon="9.0683072"><ele>340.0</ele><time>2026-05-03T07:39:09.211Z</time></trkpt><trkpt lat="44.8565393" lon="9.0681197"><ele>342.5</ele><time>2026-05-03T07:39:10.206Z</time></trkpt><trkpt lat="44.8564947" lon="9.0679675"><ele>345.0</ele><time>2026-05-03T07:39:11.21Z</time></trkpt><trkpt lat="44.8564163" lon="9.0678318"><ele>347.5</ele><time>2026-05-03T07:39:12.209Z</time></trkpt><trkpt lat="44.8563103" lon="9.0676802"><ele>350.0</ele><time>2026-05-03T07:39:13.204Z</time></trkpt><trkpt lat="44.8562002" lon="9.0675151"><ele>349.5</ele><time>2026-05-03T07:39:14.21Z</time></trkpt><trkpt lat="44.8561021" lon="9.0673699"><ele>349.0</ele><time>2026-05-03T07:39:15.208Z</time></trkpt><trkpt lat="44.8560175" lon="9.0672135"><ele>348.5</ele><time>2026-05-03T07:39:16.208Z</time></trkpt><trkpt lat="44.8559356" lon="9.0670702"><ele>348.0</ele><time>2026-05-03T07:39:17.215Z</time></trkpt><trkpt lat="44.8558616" lon="9.0669296"><ele>348.0</ele><time>2026-05-03T07:39:18.215Z</time></trkpt><trkpt lat="44.8558152" lon="9.0667433"><ele>348.0</ele><time>2026-05-03T07:39:19.208Z</time></trkpt><trkpt lat="44.8557676" lon="9.0665389"><ele>348.0</ele><time>2026-05-03T07:39:20.213Z</time></trkpt><trkpt lat="44.8557295" lon="9.0663659"><ele>348.0</ele><time>2026-05-03T07:39:21.216Z</time></trkpt><trkpt lat="44.8557065" lon="9.0662124"><ele>350.0</ele><time>2026-05-03T07:39:22.214Z</time></trkpt><trkpt lat="44.8557039" lon="9.0660545"><ele>352.0</ele><time>2026-05-03T07:39:23.211Z</time></trkpt><trkpt lat="44.8557215" lon="9.065913"><ele>354.0</ele><time>2026-05-03T07:39:24.208Z</time></trkpt><trkpt lat="44.8557479" lon="9.0658078"><ele>356.0</ele><time>2026-05-03T07:39:25.215Z</time></trkpt><trkpt lat="44.8557926" lon="9.06569"><ele>358.0</ele><time>2026-05-03T07:39:26.209Z</time></trkpt><trkpt lat="44.8558397" lon="9.0655508"><ele>360.0</ele><time>2026-05-03T07:39:27.212Z</time></trkpt><trkpt lat="44.8558725" lon="9.0653955"><ele>362.0</ele><time>2026-05-03T07:39:28.208Z</time></trkpt><trkpt lat="44.855931" lon="9.0652433"><ele>364.0</ele><time>2026-05-03T07:39:29.217Z</time></trkpt><trkpt lat="44.8559761" lon="9.0651152"><ele>366.0</ele><time>2026-05-03T07:39:30.214Z</time></trkpt><trkpt lat="44.8559898" lon="9.0650025"><ele>368.0</ele><time>2026-05-03T07:39:31.207Z</time></trkpt><trkpt lat="44.8560261" lon="9.0648836"><ele>370.5</ele><time>2026-05-03T07:39:32.206Z</time></trkpt><trkpt lat="44.8560662" lon="9.0647774"><ele>373.0</ele><time>2026-05-03T07:39:33.21Z</time></trkpt><trkpt lat="44.8561361" lon="9.0646961"><ele>375.5</ele><time>2026-05-03T07:39:34.204Z</time></trkpt><trkpt lat="44.8562144" lon="9.06463"><ele>378.0</ele><time>2026-05-03T07:39:35.209Z</time></trkpt><trkpt lat="44.8562867" lon="9.0645691"><ele>380.5</ele><time>2026-05-03T07:39:36.207Z</time></trkpt><trkpt lat="44.8563523" lon="9.0645023"><ele>383.0</ele><time>2026-05-03T07:39:37.205Z</time></trkpt><trkpt lat="44.8564041" lon="9.0644302"><ele>383.0</ele><time>2026-05-03T07:39:38.208Z</time></trkpt><trkpt lat="44.8564643" lon="9.0642715"><ele>383.0</ele><time>2026-05-03T07:39:40.208Z</time></trkpt><trkpt lat="44.8564678" lon="9.0641225"><ele>383.0</ele><time>2026-05-03T07:39:41.208Z</time></trkpt><trkpt lat="44.8564821" lon="9.0639621"><ele>383.0</ele><time>2026-05-03T07:39:42.218Z</time></trkpt><trkpt lat="44.8564869" lon="9.0637835"><ele>384.6666666666667</ele><time>2026-05-03T07:39:43.212Z</time></trkpt><trkpt lat="44.8564938" lon="9.063629"><ele>386.33333333333337</ele><time>2026-05-03T07:39:44.209Z</time></trkpt><trkpt lat="44.8565125" lon="9.0635025"><ele>388.0</ele><time>2026-05-03T07:39:45.206Z</time></trkpt><trkpt lat="44.8565284" lon="9.063385"><ele>389.6666666666667</ele><time>2026-05-03T07:39:46.212Z</time></trkpt><trkpt lat="44.8565459" lon="9.0632831"><ele>391.3333333333333</ele><time>2026-05-03T07:39:47.216Z</time></trkpt><trkpt lat="44.8565675" lon="9.0631639"><ele>393.0</ele><time>2026-05-03T07:39:48.216Z</time></trkpt><trkpt lat="44.8565775" lon="9.0630324"><ele>394.59999999999997</ele><time>2026-05-03T07:39:49.206Z</time></trkpt><trkpt lat="44.8565874" lon="9.0629288"><ele>396.2</ele><time>2026-05-03T07:39:50.21Z</time></trkpt><trkpt lat="44.8565642" lon="9.0627865"><ele>397.8</ele><time>2026-05-03T07:39:52.211Z</time></trkpt><trkpt lat="44.8564251" lon="9.0627175"><ele>399.4</ele><time>2026-05-03T07:39:54.212Z</time></trkpt><trkpt lat="44.8563093" lon="9.0626793"><ele>401.0</ele><time>2026-05-03T07:39:55.215Z</time></trkpt><trkpt lat="44.8562465" lon="9.0625747"><ele>401.0</ele><time>2026-05-03T07:39:56.216Z</time></trkpt><trkpt lat="44.8562264" lon="9.0624698"><ele>401.0</ele><time>2026-05-03T07:39:57.21Z</time></trkpt><trkpt lat="44.8562239" lon="9.0623577"><ele>401.0</ele><time>2026-05-03T07:39:58.209Z</time></trkpt><trkpt lat="44.8562227" lon="9.0622343"><ele>401.0</ele><time>2026-05-03T07:39:59.215Z</time></trkpt><trkpt lat="44.8562259" lon="9.062095"><ele>401.0</ele><time>2026-05-03T07:40:00.209Z</time></trkpt><trkpt lat="44.8562673" lon="9.0619427"><ele>402.3333333333333</ele><time>2026-05-03T07:40:01.214Z</time></trkpt><trkpt lat="44.8562988" lon="9.0617904"><ele>403.66666666666663</ele><time>2026-05-03T07:40:02.209Z</time></trkpt><trkpt lat="44.8563299" lon="9.0616793"><ele>405.0</ele><time>2026-05-03T07:40:03.205Z</time></trkpt><trkpt lat="44.8563565" lon="9.0615708"><ele>406.33333333333337</ele><time>2026-05-03T07:40:04.203Z</time></trkpt><trkpt lat="44.8563508" lon="9.0614746"><ele>407.6666666666667</ele><time>2026-05-03T07:40:05.208Z</time></trkpt><trkpt lat="44.8563302" lon="9.0613732"><ele>409.0</ele><time>2026-05-03T07:40:06.207Z</time></trkpt><trkpt lat="44.8563132" lon="9.0612641"><ele>412.5</ele><time>2026-05-03T07:40:07.206Z</time></trkpt><trkpt lat="44.8562908" lon="9.0611145"><ele>416.0</ele><time>2026-05-03T07:40:08.205Z</time></trkpt><trkpt lat="44.8562331" lon="9.0609172"><ele>419.5</ele><time>2026-05-03T07:40:09.21Z</time></trkpt><trkpt lat="44.8561703" lon="9.0606922"><ele>423.0</ele><time>2026-05-03T07:40:10.215Z</time></trkpt><trkpt lat="44.8561265" lon="9.060524"><ele>426.5</ele><time>2026-05-03T07:40:11.204Z</time></trkpt><trkpt lat="44.85607" lon="9.0603556"><ele>430.0</ele><time>2026-05-03T07:40:12.206Z</time></trkpt><trkpt lat="44.8560206" lon="9.0601945"><ele>433.5</ele><time>2026-05-03T07:40:13.207Z</time></trkpt><trkpt lat="44.8559967" lon="9.0600392"><ele>437.0</ele><time>2026-05-03T07:40:14.212Z</time></trkpt><trkpt lat="44.8559685" lon="9.0599218"><ele>436.0</ele><time>2026-05-03T07:40:15.206Z</time></trkpt><trkpt lat="44.8559239" lon="9.0598314"><ele>435.00000000000006</ele><time>2026-05-03T07:40:16.203Z</time></trkpt><trkpt lat="44.8558603" lon="9.0597434"><ele>434.00000000000006</ele><time>2026-05-03T07:40:17.204Z</time></trkpt><trkpt lat="44.8557811" lon="9.0596737"><ele>433.0</ele><time>2026-05-03T07:40:18.209Z</time></trkpt><trkpt lat="44.8556801" lon="9.0596387"><ele>432.0</ele><time>2026-05-03T07:40:19.209Z</time></trkpt><trkpt lat="44.8555651" lon="9.0596103"><ele>432.0</ele><time>2026-05-03T07:40:20.205Z</time></trkpt><trkpt lat="44.8554561" lon="9.059594"><ele>432.0</ele><time>2026-05-03T07:40:21.212Z</time></trkpt><trkpt lat="44.8553771" lon="9.0596013"><ele>432.0</ele><time>2026-05-03T07:40:22.204Z</time></trkpt><trkpt lat="44.8553068" lon="9.0596412"><ele>432.0</ele><time>2026-05-03T07:40:23.207Z</time></trkpt><trkpt lat="44.855227" lon="9.0596612"><ele>432.0</ele><time>2026-05-03T07:40:24.212Z</time></trkpt><trkpt lat="44.8551367" lon="9.0596564"><ele>432.0</ele><time>2026-05-03T07:40:25.207Z</time></trkpt><trkpt lat="44.8550375" lon="9.0596165"><ele>430.75</ele><time>2026-05-03T07:40:26.206Z</time></trkpt><trkpt lat="44.8549416" lon="9.0595364"><ele>429.5</ele><time>2026-05-03T07:40:27.208Z</time></trkpt><trkpt lat="44.8548452" lon="9.0594321"><ele>428.25</ele><time>2026-05-03T07:40:28.206Z</time></trkpt><trkpt lat="44.8547538" lon="9.0592979"><ele>427.0</ele><time>2026-05-03T07:40:29.212Z</time></trkpt><trkpt lat="44.854668" lon="9.0592051"><ele>427.0</ele><time>2026-05-03T07:40:30.206Z</time></trkpt><trkpt lat="44.8545885" lon="9.0591491"><ele>427.00000000000006</ele><time>2026-05-03T07:40:31.209Z</time></trkpt><trkpt lat="44.8544885" lon="9.0591323"><ele>427.00000000000006</ele><time>2026-05-03T07:40:33.205Z</time></trkpt><trkpt lat="44.8544015" lon="9.0591395"><ele>427.0</ele><time>2026-05-03T07:42:25.213Z</time></trkpt><trkpt lat="44.8543222" lon="9.05913"><ele>427.0</ele><time>2026-05-03T07:42:26.208Z</time></trkpt><trkpt lat="44.8542181" lon="9.0590386"><ele>428.8</ele><time>2026-05-03T07:42:28.212Z</time></trkpt><trkpt lat="44.8541799" lon="9.0589386"><ele>430.6</ele><time>2026-05-03T07:42:29.21Z</time></trkpt><trkpt lat="44.8541348" lon="9.0587747"><ele>432.40000000000003</ele><time>2026-05-03T07:42:30.211Z</time></trkpt><trkpt lat="44.8541022" lon="9.0586414"><ele>434.20000000000005</ele><time>2026-05-03T07:42:31.212Z</time></trkpt><trkpt lat="44.8540718" lon="9.0585181"><ele>436.0</ele><time>2026-05-03T07:42:32.21Z</time></trkpt><trkpt lat="44.854054" lon="9.0583917"><ele>438.50000000000006</ele><time>2026-05-03T07:42:33.21Z</time></trkpt><trkpt lat="44.8540297" lon="9.0582667"><ele>441.0</ele><time>2026-05-03T07:42:34.214Z</time></trkpt><trkpt lat="44.8540017" lon="9.0581463"><ele>443.5</ele><time>2026-05-03T07:42:35.208Z</time></trkpt><trkpt lat="44.8539552" lon="9.0580343"><ele>446.0</ele><time>2026-05-03T07:42:36.205Z</time></trkpt><trkpt lat="44.8539003" lon="9.0579284"><ele>448.50000000000006</ele><time>2026-05-03T07:42:37.209Z</time></trkpt><trkpt lat="44.8538462" lon="9.0578636"><ele>451.0</ele><time>2026-05-03T07:42:38.205Z</time></trkpt><trkpt lat="44.853714" lon="9.0577978"><ele>451.0</ele><time>2026-05-03T07:42:40.21Z</time></trkpt><trkpt lat="44.8536473" lon="9.0577476"><ele>451.0</ele><time>2026-05-03T07:42:41.211Z</time></trkpt><trkpt lat="44.8535773" lon="9.0576719"><ele>451.0</ele><time>2026-05-03T07:42:42.224Z</time></trkpt><trkpt lat="44.853493" lon="9.0575715"><ele>451.0</ele><time>2026-05-03T07:42:43.208Z</time></trkpt><trkpt lat="44.8533934" lon="9.0574592"><ele>451.0</ele><time>2026-05-03T07:42:44.208Z</time></trkpt><trkpt lat="44.8532894" lon="9.0573394"><ele>452.0</ele><time>2026-05-03T07:42:45.208Z</time></trkpt><trkpt lat="44.8531892" lon="9.0572006"><ele>453.0</ele><time>2026-05-03T07:42:46.212Z</time></trkpt><trkpt lat="44.8530925" lon="9.0570781"><ele>454.0</ele><time>2026-05-03T07:42:47.213Z</time></trkpt><trkpt lat="44.8530288" lon="9.057001"><ele>455.0</ele><time>2026-05-03T07:42:48.207Z</time></trkpt><trkpt lat="44.8529727" lon="9.0569492"><ele>456.0</ele><time>2026-05-03T07:42:49.208Z</time></trkpt><trkpt lat="44.8529046" lon="9.0569533"><ele>456.0</ele><time>2026-05-03T07:42:50.22Z</time></trkpt><trkpt lat="44.852846" lon="9.0570004"><ele>456.0</ele><time>2026-05-03T07:42:51.213Z</time></trkpt><trkpt lat="44.8527892" lon="9.0570764"><ele>456.0</ele><time>2026-05-03T07:42:52.21Z</time></trkpt><trkpt lat="44.8527145" lon="9.0571662"><ele>456.0</ele><time>2026-05-03T07:42:53.212Z</time></trkpt><trkpt lat="44.8526577" lon="9.0572889"><ele>456.0</ele><time>2026-05-03T07:42:54.212Z</time></trkpt><trkpt lat="44.8525935" lon="9.0573699"><ele>456.0</ele><time>2026-05-03T07:42:55.213Z</time></trkpt><trkpt lat="44.8525341" lon="9.0574472"><ele>454.3333333333333</ele><time>2026-05-03T07:42:56.209Z</time></trkpt><trkpt lat="44.852467" lon="9.0574901"><ele>452.66666666666663</ele><time>2026-05-03T07:42:57.21Z</time></trkpt><trkpt lat="44.8523935" lon="9.057542"><ele>451.0</ele><time>2026-05-03T07:42:58.207Z</time></trkpt><trkpt lat="44.8523378" lon="9.0576031"><ele>449.3333333333333</ele><time>2026-05-03T07:42:59.212Z</time></trkpt><trkpt lat="44.8522784" lon="9.0576606"><ele>447.66666666666663</ele><time>2026-05-03T07:43:00.208Z</time></trkpt><trkpt lat="44.8521517" lon="9.0576758"><ele>446.0</ele><time>2026-05-03T07:43:02.207Z</time></trkpt><trkpt lat="44.8520584" lon="9.0576535"><ele>446.0</ele><time>2026-05-03T07:43:03.212Z</time></trkpt><trkpt lat="44.8519766" lon="9.0574836"><ele>446.0</ele><time>2026-05-03T07:43:04.216Z</time></trkpt><trkpt lat="44.8519005" lon="9.0573077"><ele>446.0</ele><time>2026-05-03T07:43:05.207Z</time></trkpt><trkpt lat="44.8518234" lon="9.0571415"><ele>446.0</ele><time>2026-05-03T07:43:06.208Z</time></trkpt><trkpt lat="44.8517825" lon="9.05698"><ele>447.3333333333333</ele><time>2026-05-03T07:43:07.205Z</time></trkpt><trkpt lat="44.8517379" lon="9.0568714"><ele>448.66666666666663</ele><time>2026-05-03T07:43:08.214Z</time></trkpt><trkpt lat="44.8516651" lon="9.0567905"><ele>450.0</ele><time>2026-05-03T07:43:09.209Z</time></trkpt><trkpt lat="44.8515861" lon="9.0567575"><ele>451.33333333333337</ele><time>2026-05-03T07:43:10.213Z</time></trkpt><trkpt lat="44.8515129" lon="9.0567113"><ele>452.6666666666667</ele><time>2026-05-03T07:43:11.215Z</time></trkpt><trkpt lat="44.8514228" lon="9.0566692"><ele>454.0</ele><time>2026-05-03T07:43:12.211Z</time></trkpt><trkpt lat="44.8513019" lon="9.0566149"><ele>455.75</ele><time>2026-05-03T07:43:13.208Z</time></trkpt><trkpt lat="44.851194" lon="9.0565676"><ele>457.5</ele><time>2026-05-03T07:43:14.207Z</time></trkpt><trkpt lat="44.8510914" lon="9.0565099"><ele>459.25</ele><time>2026-05-03T07:43:15.212Z</time></trkpt><trkpt lat="44.8509849" lon="9.0564182"><ele>461.0</ele><time>2026-05-03T07:43:16.217Z</time></trkpt><trkpt lat="44.8509212" lon="9.0562387"><ele>461.0</ele><time>2026-05-03T07:43:17.209Z</time></trkpt><trkpt lat="44.8508391" lon="9.0560928"><ele>461.0</ele><time>2026-05-03T07:43:18.208Z</time></trkpt><trkpt lat="44.8508009" lon="9.0559238"><ele>461.0</ele><time>2026-05-03T07:43:19.209Z</time></trkpt><trkpt lat="44.8507454" lon="9.0557988"><ele>461.0</ele><time>2026-05-03T07:43:20.211Z</time></trkpt><trkpt lat="44.8506881" lon="9.0557261"><ele>461.0</ele><time>2026-05-03T07:43:21.206Z</time></trkpt><trkpt lat="44.8506166" lon="9.055693"><ele>460.99999999999994</ele><time>2026-05-03T07:43:22.211Z</time></trkpt><trkpt lat="44.8505514" lon="9.0557551"><ele>461.0</ele><time>2026-05-03T07:43:24.226Z</time></trkpt><trkpt lat="44.8504721" lon="9.0558879"><ele>461.0</ele><time>2026-05-03T07:43:26.21Z</time></trkpt><trkpt lat="44.8505126" lon="9.0560082"><ele>461.0</ele><time>2026-05-03T07:43:27.218Z</time></trkpt><trkpt lat="44.8505021" lon="9.0561146"><ele>460.99999999999994</ele><time>2026-05-03T07:43:28.212Z</time></trkpt><trkpt lat="44.8505136" lon="9.0562136"><ele>461.0</ele><time>2026-05-03T07:43:29.209Z</time></trkpt><trkpt lat="44.8505071" lon="9.0563333"><ele>461.0</ele><time>2026-05-03T07:43:30.21Z</time></trkpt><trkpt lat="44.8504471" lon="9.0565591"><ele>461.0</ele><time>2026-05-03T07:43:31.214Z</time></trkpt><trkpt lat="44.8503975" lon="9.0567581"><ele>461.0</ele><time>2026-05-03T07:43:32.207Z</time></trkpt><trkpt lat="44.8503733" lon="9.0569105"><ele>461.0</ele><time>2026-05-03T07:43:33.211Z</time></trkpt><trkpt lat="44.8503423" lon="9.0570573"><ele>460.8333333333333</ele><time>2026-05-03T07:43:34.206Z</time></trkpt><trkpt lat="44.8502762" lon="9.0570903"><ele>460.66666666666663</ele><time>2026-05-03T07:43:35.209Z</time></trkpt><trkpt lat="44.8502283" lon="9.0571493"><ele>460.5</ele><time>2026-05-03T07:43:36.209Z</time></trkpt><trkpt lat="44.850178" lon="9.0572047"><ele>460.33333333333337</ele><time>2026-05-03T07:43:40.211Z</time></trkpt><trkpt lat="44.8501162" lon="9.0572586"><ele>460.1666666666667</ele><time>2026-05-03T07:46:05.21Z</time></trkpt><trkpt lat="44.8499924" lon="9.0573362"><ele>460.0</ele><time>2026-05-03T07:46:07.206Z</time></trkpt><trkpt lat="44.8499309" lon="9.057374"><ele>460.00000000000006</ele><time>2026-05-03T07:46:08.211Z</time></trkpt><trkpt lat="44.8498709" lon="9.0574145"><ele>460.0</ele><time>2026-05-03T07:46:09.209Z</time></trkpt><trkpt lat="44.8498079" lon="9.0574599"><ele>460.0</ele><time>2026-05-03T07:46:10.215Z</time></trkpt><trkpt lat="44.8497355" lon="9.0575105"><ele>460.0</ele><time>2026-05-03T07:46:11.209Z</time></trkpt><trkpt lat="44.849653" lon="9.0575603"><ele>460.00000000000006</ele><time>2026-05-03T07:46:12.209Z</time></trkpt><trkpt lat="44.8495587" lon="9.0576144"><ele>460.0</ele><time>2026-05-03T07:46:13.205Z</time></trkpt><trkpt lat="44.8494681" lon="9.0576689"><ele>459.00000000000006</ele><time>2026-05-03T07:46:14.207Z</time></trkpt><trkpt lat="44.8493805" lon="9.0577207"><ele>458.0</ele><time>2026-05-03T07:46:15.214Z</time></trkpt><trkpt lat="44.8493032" lon="9.0577684"><ele>457.0</ele><time>2026-05-03T07:46:16.21Z</time></trkpt><trkpt lat="44.8492365" lon="9.0578044"><ele>456.0</ele><time>2026-05-03T07:46:17.222Z</time></trkpt><trkpt lat="44.8491365" lon="9.0578572"><ele>455.00000000000006</ele><time>2026-05-03T07:46:19.207Z</time></trkpt><trkpt lat="44.849089" lon="9.0579537"><ele>454.0</ele><time>2026-05-03T07:46:23.208Z</time></trkpt><trkpt lat="44.849137" lon="9.0581251"><ele>453.6</ele><time>2026-05-03T07:46:25.219Z</time></trkpt><trkpt lat="44.8491758" lon="9.0582282"><ele>453.2</ele><time>2026-05-03T07:46:26.209Z</time></trkpt><trkpt lat="44.8492273" lon="9.0583415"><ele>452.80000000000007</ele><time>2026-05-03T07:46:27.209Z</time></trkpt><trkpt lat="44.849297" lon="9.0584658"><ele>452.40000000000003</ele><time>2026-05-03T07:46:28.211Z</time></trkpt><trkpt lat="44.8493794" lon="9.0585841"><ele>452.0</ele><time>2026-05-03T07:46:29.211Z</time></trkpt><trkpt lat="44.8494573" lon="9.0586921"><ele>451.99999999999994</ele><time>2026-05-03T07:46:30.217Z</time></trkpt><trkpt lat="44.8495182" lon="9.0588115"><ele>452.0</ele><time>2026-05-03T07:46:31.221Z</time></trkpt><trkpt lat="44.8495588" lon="9.0589186"><ele>452.0</ele><time>2026-05-03T07:46:32.21Z</time></trkpt><trkpt lat="44.8495865" lon="9.0590258"><ele>452.0</ele><time>2026-05-03T07:46:33.209Z</time></trkpt><trkpt lat="44.8495975" lon="9.0591207"><ele>451.99999999999994</ele><time>2026-05-03T07:46:34.214Z</time></trkpt><trkpt lat="44.8495773" lon="9.059233"><ele>452.0</ele><time>2026-05-03T07:46:35.211Z</time></trkpt><trkpt lat="44.8495346" lon="9.059385"><ele>451.5</ele><time>2026-05-03T07:46:36.209Z</time></trkpt><trkpt lat="44.8494892" lon="9.0595351"><ele>451.0</ele><time>2026-05-03T07:46:37.213Z</time></trkpt><trkpt lat="44.8494379" lon="9.059696"><ele>450.5</ele><time>2026-05-03T07:46:38.224Z</time></trkpt><trkpt lat="44.8494011" lon="9.0598525"><ele>450.0</ele><time>2026-05-03T07:46:39.208Z</time></trkpt><trkpt lat="44.8493619" lon="9.0600017"><ele>450.0</ele><time>2026-05-03T07:46:40.214Z</time></trkpt><trkpt lat="44.8493354" lon="9.0601659"><ele>450.0</ele><time>2026-05-03T07:46:41.223Z</time></trkpt><trkpt lat="44.8493256" lon="9.0603296"><ele>450.0</ele><time>2026-05-03T07:46:42.205Z</time></trkpt><trkpt lat="44.8493088" lon="9.0605005"><ele>450.0</ele><time>2026-05-03T07:46:43.208Z</time></trkpt><trkpt lat="44.8492782" lon="9.0606543"><ele>445.8</ele><time>2026-05-03T07:46:44.213Z</time></trkpt><trkpt lat="44.849254" lon="9.0607978"><ele>441.6</ele><time>2026-05-03T07:46:45.211Z</time></trkpt><trkpt lat="44.8492321" lon="9.0609401"><ele>437.4</ele><time>2026-05-03T07:46:46.207Z</time></trkpt><trkpt lat="44.8492045" lon="9.0610971"><ele>433.2</ele><time>2026-05-03T07:46:47.212Z</time></trkpt><trkpt lat="44.8491794" lon="9.0612669"><ele>429.0</ele><time>2026-05-03T07:46:48.207Z</time></trkpt><trkpt lat="44.8491409" lon="9.0614302"><ele>429.0</ele><time>2026-05-03T07:46:49.206Z</time></trkpt><trkpt lat="44.8491018" lon="9.0615769"><ele>429.0</ele><time>2026-05-03T07:46:50.212Z</time></trkpt><trkpt lat="44.8490665" lon="9.06173"><ele>429.0</ele><time>2026-05-03T07:46:51.213Z</time></trkpt><trkpt lat="44.8490527" lon="9.0618776"><ele>429.0</ele><time>2026-05-03T07:46:52.215Z</time></trkpt><trkpt lat="44.8490369" lon="9.0620376"><ele>429.0</ele><time>2026-05-03T07:46:53.209Z</time></trkpt><trkpt lat="44.8490073" lon="9.0621994"><ele>430.2</ele><time>2026-05-03T07:46:54.213Z</time></trkpt><trkpt lat="44.8489715" lon="9.0623607"><ele>431.4</ele><time>2026-05-03T07:46:55.207Z</time></trkpt><trkpt lat="44.8489428" lon="9.0625082"><ele>432.6</ele><time>2026-05-03T07:46:56.207Z</time></trkpt><trkpt lat="44.8489142" lon="9.0626389"><ele>433.8</ele><time>2026-05-03T07:46:57.208Z</time></trkpt><trkpt lat="44.8488812" lon="9.0627702"><ele>435.0</ele><time>2026-05-03T07:46:58.211Z</time></trkpt><trkpt lat="44.8488612" lon="9.0628935"><ele>435.0</ele><time>2026-05-03T07:46:59.205Z</time></trkpt><trkpt lat="44.8488815" lon="9.0630074"><ele>435.0</ele><time>2026-05-03T07:47:00.208Z</time></trkpt><trkpt lat="44.8489277" lon="9.0630943"><ele>435.0</ele><time>2026-05-03T07:47:01.211Z</time></trkpt><trkpt lat="44.8489804" lon="9.0631637"><ele>435.0</ele><time>2026-05-03T07:47:02.21Z</time></trkpt><trkpt lat="44.8490188" lon="9.0632777"><ele>435.0</ele><time>2026-05-03T07:47:04.211Z</time></trkpt><trkpt lat="44.8489629" lon="9.0634165"><ele>435.0</ele><time>2026-05-03T07:47:06.214Z</time></trkpt><trkpt lat="44.8489048" lon="9.0635157"><ele>433.5</ele><time>2026-05-03T07:47:07.213Z</time></trkpt><trkpt lat="44.8488265" lon="9.0636374"><ele>432.0</ele><time>2026-05-03T07:47:08.216Z</time></trkpt><trkpt lat="44.8487341" lon="9.0637782"><ele>430.5</ele><time>2026-05-03T07:47:09.218Z</time></trkpt><trkpt lat="44.8486315" lon="9.0639252"><ele>429.0</ele><time>2026-05-03T07:47:10.213Z</time></trkpt><trkpt lat="44.8485231" lon="9.0640711"><ele>426.25</ele><time>2026-05-03T07:47:11.213Z</time></trkpt><trkpt lat="44.8484176" lon="9.0642219"><ele>423.5</ele><time>2026-05-03T07:47:12.211Z</time></trkpt><trkpt lat="44.848319" lon="9.0643566"><ele>420.75</ele><time>2026-05-03T07:47:13.21Z</time></trkpt><trkpt lat="44.8482307" lon="9.0644872"><ele>418.0</ele><time>2026-05-03T07:47:14.213Z</time></trkpt><trkpt lat="44.848148" lon="9.064624"><ele>418.0</ele><time>2026-05-03T07:47:15.208Z</time></trkpt><trkpt lat="44.8480697" lon="9.0647421"><ele>418.0</ele><time>2026-05-03T07:47:16.211Z</time></trkpt><trkpt lat="44.8479947" lon="9.0648638"><ele>418.0</ele><time>2026-05-03T07:47:17.209Z</time></trkpt><trkpt lat="44.8479295" lon="9.064997"><ele>418.0</ele><time>2026-05-03T07:47:18.209Z</time></trkpt><trkpt lat="44.8478721" lon="9.0651437"><ele>417.75</ele><time>2026-05-03T07:47:19.21Z</time></trkpt><trkpt lat="44.8478286" lon="9.0652872"><ele>417.5</ele><time>2026-05-03T07:47:20.206Z</time></trkpt><trkpt lat="44.8478148" lon="9.0654438"><ele>417.25</ele><time>2026-05-03T07:47:21.212Z</time></trkpt><trkpt lat="44.8477941" lon="9.065632"><ele>417.0</ele><time>2026-05-03T07:47:22.223Z</time></trkpt><trkpt lat="44.8477871" lon="9.0658201"><ele>415.75</ele><time>2026-05-03T07:47:23.207Z</time></trkpt><trkpt lat="44.8477786" lon="9.0660002"><ele>414.5</ele><time>2026-05-03T07:47:24.211Z</time></trkpt><trkpt lat="44.8477684" lon="9.0661722"><ele>413.25</ele><time>2026-05-03T07:47:25.21Z</time></trkpt><trkpt lat="44.8477235" lon="9.0663606"><ele>412.0</ele><time>2026-05-03T07:47:26.207Z</time></trkpt><trkpt lat="44.8476891" lon="9.0665307"><ele>410.20000000000005</ele><time>2026-05-03T07:47:27.214Z</time></trkpt><trkpt lat="44.8476325" lon="9.0666564"><ele>408.4</ele><time>2026-05-03T07:47:28.209Z</time></trkpt><trkpt lat="44.847588" lon="9.0667931"><ele>406.6</ele><time>2026-05-03T07:47:29.207Z</time></trkpt><trkpt lat="44.8475357" lon="9.0669023"><ele>404.79999999999995</ele><time>2026-05-03T07:47:30.212Z</time></trkpt><trkpt lat="44.847472" lon="9.0670184"><ele>403.0</ele><time>2026-05-03T07:47:31.208Z</time></trkpt><trkpt lat="44.8474135" lon="9.0671382"><ele>402.0</ele><time>2026-05-03T07:47:32.212Z</time></trkpt><trkpt lat="44.8473509" lon="9.0672777"><ele>401.0</ele><time>2026-05-03T07:47:33.219Z</time></trkpt><trkpt lat="44.8473003" lon="9.0674098"><ele>400.0</ele><time>2026-05-03T07:47:34.219Z</time></trkpt><trkpt lat="44.8472451" lon="9.0675636"><ele>399.0</ele><time>2026-05-03T07:47:35.223Z</time></trkpt><trkpt lat="44.8471667" lon="9.0677256"><ele>398.4</ele><time>2026-05-03T07:47:36.208Z</time></trkpt><trkpt lat="44.84709" lon="9.0678707"><ele>397.79999999999995</ele><time>2026-05-03T07:47:37.209Z</time></trkpt><trkpt lat="44.8470507" lon="9.068005"><ele>397.20000000000005</ele><time>2026-05-03T07:47:38.208Z</time></trkpt><trkpt lat="44.8470013" lon="9.0681238"><ele>396.6</ele><time>2026-05-03T07:47:39.208Z</time></trkpt><trkpt lat="44.8469591" lon="9.0682392"><ele>396.0</ele><time>2026-05-03T07:47:40.206Z</time></trkpt><trkpt lat="44.84691" lon="9.0683382"><ele>394.20000000000005</ele><time>2026-05-03T07:47:41.206Z</time></trkpt><trkpt lat="44.8468536" lon="9.0684217"><ele>392.40000000000003</ele><time>2026-05-03T07:47:42.206Z</time></trkpt><trkpt lat="44.8467927" lon="9.068458"><ele>390.6</ele><time>2026-05-03T07:47:43.218Z</time></trkpt><trkpt lat="44.8466918" lon="9.0683648"><ele>388.8</ele><time>2026-05-03T07:47:45.208Z</time></trkpt><trkpt lat="44.8466717" lon="9.0682486"><ele>387.0</ele><time>2026-05-03T07:47:46.214Z</time></trkpt><trkpt lat="44.8466671" lon="9.0681061"><ele>386.40000000000003</ele><time>2026-05-03T07:47:47.204Z</time></trkpt><trkpt lat="44.8466627" lon="9.0679677"><ele>385.8</ele><time>2026-05-03T07:47:48.208Z</time></trkpt><trkpt lat="44.8466504" lon="9.0678252"><ele>385.2</ele><time>2026-05-03T07:47:49.207Z</time></trkpt><trkpt lat="44.846625" lon="9.0676816"><ele>384.6</ele><time>2026-05-03T07:47:50.208Z</time></trkpt><trkpt lat="44.8466013" lon="9.067522"><ele>384.0</ele><time>2026-05-03T07:47:51.209Z</time></trkpt><trkpt lat="44.8465767" lon="9.0673718"><ele>383.4</ele><time>2026-05-03T07:47:52.206Z</time></trkpt><trkpt lat="44.8465585" lon="9.0672074"><ele>382.79999999999995</ele><time>2026-05-03T07:47:53.211Z</time></trkpt><trkpt lat="44.8465249" lon="9.0670612"><ele>382.20000000000005</ele><time>2026-05-03T07:47:54.209Z</time></trkpt><trkpt lat="44.8464497" lon="9.0669633"><ele>381.6</ele><time>2026-05-03T07:47:55.206Z</time></trkpt><trkpt lat="44.8463778" lon="9.0668582"><ele>381.0</ele><time>2026-05-03T07:47:56.206Z</time></trkpt><trkpt lat="44.8463067" lon="9.066755"><ele>381.0</ele><time>2026-05-03T07:47:57.211Z</time></trkpt><trkpt lat="44.846241" lon="9.0666607"><ele>381.0</ele><time>2026-05-03T07:47:58.207Z</time></trkpt><trkpt lat="44.8461856" lon="9.0665653"><ele>381.0</ele><time>2026-05-03T07:47:59.211Z</time></trkpt><trkpt lat="44.8461289" lon="9.0664597"><ele>381.0</ele><time>2026-05-03T07:48:00.207Z</time></trkpt><trkpt lat="44.8460761" lon="9.0663389"><ele>381.0</ele><time>2026-05-03T07:48:01.208Z</time></trkpt><trkpt lat="44.8460344" lon="9.0662182"><ele>381.1666666666667</ele><time>2026-05-03T07:48:02.209Z</time></trkpt><trkpt lat="44.8459989" lon="9.0660965"><ele>381.3333333333333</ele><time>2026-05-03T07:48:03.209Z</time></trkpt><trkpt lat="44.8459564" lon="9.0659914"><ele>381.5</ele><time>2026-05-03T07:48:04.209Z</time></trkpt><trkpt lat="44.8459109" lon="9.0659054"><ele>381.66666666666663</ele><time>2026-05-03T07:48:05.206Z</time></trkpt><trkpt lat="44.8458573" lon="9.0658365"><ele>381.8333333333333</ele><time>2026-05-03T07:48:06.214Z</time></trkpt><trkpt lat="44.8457899" lon="9.0657873"><ele>382.0</ele><time>2026-05-03T07:48:07.205Z</time></trkpt><trkpt lat="44.845728" lon="9.0657376"><ele>379.3333333333333</ele><time>2026-05-03T07:48:08.221Z</time></trkpt><trkpt lat="44.8456682" lon="9.0656886"><ele>376.66666666666663</ele><time>2026-05-03T07:48:09.211Z</time></trkpt><trkpt lat="44.8456075" lon="9.0656405"><ele>374.0</ele><time>2026-05-03T07:48:10.218Z</time></trkpt><trkpt lat="44.8455433" lon="9.0656129"><ele>371.3333333333333</ele><time>2026-05-03T07:48:11.223Z</time></trkpt><trkpt lat="44.8454806" lon="9.0655895"><ele>368.6666666666667</ele><time>2026-05-03T07:48:12.211Z</time></trkpt><trkpt lat="44.8453751" lon="9.0656026"><ele>366.0</ele><time>2026-05-03T07:48:14.209Z</time></trkpt><trkpt lat="44.8453279" lon="9.0657216"><ele>365.5</ele><time>2026-05-03T07:48:16.225Z</time></trkpt><trkpt lat="44.8453296" lon="9.0658992"><ele>365.0</ele><time>2026-05-03T07:48:18.215Z</time></trkpt><trkpt lat="44.84533" lon="9.0659997"><ele>364.5</ele><time>2026-05-03T07:48:19.217Z</time></trkpt><trkpt lat="44.8453285" lon="9.0660918"><ele>364.0</ele><time>2026-05-03T07:48:20.212Z</time></trkpt><trkpt lat="44.8453163" lon="9.0661852"><ele>363.5</ele><time>2026-05-03T07:48:21.207Z</time></trkpt><trkpt lat="44.8452994" lon="9.066286"><ele>363.0</ele><time>2026-05-03T07:48:22.211Z</time></trkpt><trkpt lat="44.8452702" lon="9.0663797"><ele>363.0</ele><time>2026-05-03T07:48:23.207Z</time></trkpt><trkpt lat="44.8452344" lon="9.0664694"><ele>363.0</ele><time>2026-05-03T07:48:24.204Z</time></trkpt><trkpt lat="44.8452001" lon="9.0665442"><ele>363.0</ele><time>2026-05-03T07:48:25.204Z</time></trkpt><trkpt lat="44.8450917" lon="9.0666386"><ele>363.0</ele><time>2026-05-03T07:48:27.212Z</time></trkpt><trkpt lat="44.8450065" lon="9.0665432"><ele>363.0</ele><time>2026-05-03T07:48:29.208Z</time></trkpt><trkpt lat="44.8449934" lon="9.0664375"><ele>363.0</ele><time>2026-05-03T07:48:30.21Z</time></trkpt><trkpt lat="44.8449744" lon="9.0663204"><ele>360.0</ele><time>2026-05-03T07:48:31.217Z</time></trkpt><trkpt lat="44.844965" lon="9.0661814"><ele>357.0</ele><time>2026-05-03T07:48:32.207Z</time></trkpt><trkpt lat="44.8449518" lon="9.0660522"><ele>354.0</ele><time>2026-05-03T07:48:33.209Z</time></trkpt><trkpt lat="44.844945" lon="9.0659193"><ele>351.0</ele><time>2026-05-03T07:48:34.225Z</time></trkpt><trkpt lat="44.8449389" lon="9.0657812"><ele>348.0</ele><time>2026-05-03T07:48:35.216Z</time></trkpt><trkpt lat="44.8449298" lon="9.0656445"><ele>347.4</ele><time>2026-05-03T07:48:36.214Z</time></trkpt><trkpt lat="44.8449247" lon="9.0655126"><ele>346.79999999999995</ele><time>2026-05-03T07:48:37.212Z</time></trkpt><trkpt lat="44.8449268" lon="9.0653826"><ele>346.2</ele><time>2026-05-03T07:48:38.215Z</time></trkpt><trkpt lat="44.844939" lon="9.0652618"><ele>345.6</ele><time>2026-05-03T07:48:39.217Z</time></trkpt><trkpt lat="44.8449967" lon="9.0651508"><ele>345.0</ele><time>2026-05-03T07:48:40.212Z</time></trkpt><trkpt lat="44.8450437" lon="9.0650427"><ele>345.1666666666667</ele><time>2026-05-03T07:48:41.212Z</time></trkpt><trkpt lat="44.8450923" lon="9.06494"><ele>345.3333333333333</ele><time>2026-05-03T07:48:42.214Z</time></trkpt><trkpt lat="44.8450851" lon="9.0648393"><ele>345.5</ele><time>2026-05-03T07:48:43.211Z</time></trkpt><trkpt lat="44.8450614" lon="9.0647379"><ele>345.66666666666663</ele><time>2026-05-03T07:48:44.214Z</time></trkpt><trkpt lat="44.8450177" lon="9.0646584"><ele>345.8333333333333</ele><time>2026-05-03T07:48:45.204Z</time></trkpt><trkpt lat="44.8449648" lon="9.0646086"><ele>346.0</ele><time>2026-05-03T07:48:46.21Z</time></trkpt><trkpt lat="44.8448493" lon="9.0645737"><ele>346.0</ele><time>2026-05-03T07:48:48.203Z</time></trkpt><trkpt lat="44.8447515" lon="9.0645588"><ele>346.0</ele><time>2026-05-03T07:48:50.208Z</time></trkpt><trkpt lat="44.8446668" lon="9.0645584"><ele>346.0</ele><time>2026-05-03T07:48:52.215Z</time></trkpt><trkpt lat="44.8446039" lon="9.0645656"><ele>346.0</ele><time>2026-05-03T07:48:54.209Z</time></trkpt><trkpt lat="44.8445369" lon="9.064585"><ele>346.0</ele><time>2026-05-03T07:48:58.22Z</time></trkpt><trkpt lat="44.8444866" lon="9.0646712"><ele>346.0</ele><time>2026-05-03T07:49:21.219Z</time></trkpt><trkpt lat="44.8444711" lon="9.0647657"><ele>346.0</ele><time>2026-05-03T07:49:22.211Z</time></trkpt><trkpt lat="44.8444419" lon="9.0648833"><ele>346.0</ele><time>2026-05-03T07:49:23.211Z</time></trkpt><trkpt lat="44.8444135" lon="9.0649996"><ele>346.0</ele><time>2026-05-03T07:49:24.21Z</time></trkpt><trkpt lat="44.8443788" lon="9.0651423"><ele>346.0</ele><time>2026-05-03T07:49:25.206Z</time></trkpt><trkpt lat="44.8443335" lon="9.0652984"><ele>346.0</ele><time>2026-05-03T07:49:26.217Z</time></trkpt><trkpt lat="44.8442832" lon="9.0654411"><ele>344.20000000000005</ele><time>2026-05-03T07:49:27.217Z</time></trkpt><trkpt lat="44.8442319" lon="9.0655601"><ele>342.40000000000003</ele><time>2026-05-03T07:49:28.207Z</time></trkpt><trkpt lat="44.8441675" lon="9.065655"><ele>340.6</ele><time>2026-05-03T07:49:29.209Z</time></trkpt><trkpt lat="44.8440893" lon="9.0657127"><ele>338.8</ele><time>2026-05-03T07:49:30.204Z</time></trkpt><trkpt lat="44.8439987" lon="9.0657406"><ele>337.0</ele><time>2026-05-03T07:49:31.207Z</time></trkpt><trkpt lat="44.843905" lon="9.0657633"><ele>336.16666666666663</ele><time>2026-05-03T07:49:32.211Z</time></trkpt><trkpt lat="44.843836" lon="9.0658024"><ele>335.3333333333333</ele><time>2026-05-03T07:49:33.21Z</time></trkpt><trkpt lat="44.8437831" lon="9.0659511"><ele>334.5</ele><time>2026-05-03T07:49:35.212Z</time></trkpt><trkpt lat="44.8438289" lon="9.0660187"><ele>333.6666666666667</ele><time>2026-05-03T07:49:36.208Z</time></trkpt><trkpt lat="44.8438918" lon="9.0660913"><ele>332.83333333333337</ele><time>2026-05-03T07:49:37.21Z</time></trkpt><trkpt lat="44.8439542" lon="9.0661726"><ele>332.0</ele><time>2026-05-03T07:49:38.216Z</time></trkpt><trkpt lat="44.8439918" lon="9.0662729"><ele>332.0</ele><time>2026-05-03T07:49:39.211Z</time></trkpt><trkpt lat="44.8439935" lon="9.0664225"><ele>332.0</ele><time>2026-05-03T07:49:40.211Z</time></trkpt><trkpt lat="44.843995" lon="9.0665896"><ele>332.0</ele><time>2026-05-03T07:49:41.206Z</time></trkpt><trkpt lat="44.8439953" lon="9.0667537"><ele>332.0</ele><time>2026-05-03T07:49:42.211Z</time></trkpt><trkpt lat="44.8439858" lon="9.066917"><ele>330.5</ele><time>2026-05-03T07:49:43.219Z</time></trkpt><trkpt lat="44.8439812" lon="9.0671007"><ele>329.0</ele><time>2026-05-03T07:49:44.207Z</time></trkpt><trkpt lat="44.8439781" lon="9.0672887"><ele>327.5</ele><time>2026-05-03T07:49:45.207Z</time></trkpt><trkpt lat="44.843979" lon="9.0674923"><ele>326.0</ele><time>2026-05-03T07:49:46.211Z</time></trkpt><trkpt lat="44.8439755" lon="9.0676985"><ele>324.5</ele><time>2026-05-03T07:49:47.211Z</time></trkpt><trkpt lat="44.8439675" lon="9.0679177"><ele>323.0</ele><time>2026-05-03T07:49:48.213Z</time></trkpt><trkpt lat="44.8439516" lon="9.0681407"><ele>321.5</ele><time>2026-05-03T07:49:49.217Z</time></trkpt><trkpt lat="44.8439505" lon="9.0683037"><ele>320.0</ele><time>2026-05-03T07:49:50.21Z</time></trkpt><trkpt lat="44.8439367" lon="9.0684823"><ele>318.5</ele><time>2026-05-03T07:49:51.21Z</time></trkpt><trkpt lat="44.8439108" lon="9.0686623"><ele>317.0</ele><time>2026-05-03T07:49:52.213Z</time></trkpt><trkpt lat="44.8438787" lon="9.0688458"><ele>315.5</ele><time>2026-05-03T07:49:53.209Z</time></trkpt><trkpt lat="44.8438448" lon="9.0690219"><ele>314.0</ele><time>2026-05-03T07:49:54.211Z</time></trkpt><trkpt lat="44.8438159" lon="9.0692045"><ele>313.25</ele><time>2026-05-03T07:49:55.223Z</time></trkpt><trkpt lat="44.8438073" lon="9.0693747"><ele>312.5</ele><time>2026-05-03T07:49:56.212Z</time></trkpt><trkpt lat="44.8438223" lon="9.0695323"><ele>311.75</ele><time>2026-05-03T07:49:57.211Z</time></trkpt><trkpt lat="44.8438598" lon="9.0696908"><ele>311.0</ele><time>2026-05-03T07:49:58.212Z</time></trkpt><trkpt lat="44.8439118" lon="9.0698409"><ele>311.0</ele><time>2026-05-03T07:49:59.206Z</time></trkpt><trkpt lat="44.843947" lon="9.0700047"><ele>311.0</ele><time>2026-05-03T07:50:00.208Z</time></trkpt><trkpt lat="44.8439695" lon="9.070155"><ele>311.0</ele><time>2026-05-03T07:50:01.208Z</time></trkpt><trkpt lat="44.8439819" lon="9.070309"><ele>311.0</ele><time>2026-05-03T07:50:02.211Z</time></trkpt><trkpt lat="44.8439785" lon="9.0704777"><ele>311.0</ele><time>2026-05-03T07:50:03.211Z</time></trkpt><trkpt lat="44.8439669" lon="9.0706268"><ele>311.0</ele><time>2026-05-03T07:50:04.214Z</time></trkpt><trkpt lat="44.8439589" lon="9.0707436"><ele>311.0</ele><time>2026-05-03T07:50:05.212Z</time></trkpt><trkpt lat="44.8439446" lon="9.0708514"><ele>311.0</ele><time>2026-05-03T07:50:06.212Z</time></trkpt><trkpt lat="44.8439075" lon="9.0709633"><ele>311.0</ele><time>2026-05-03T07:50:08.211Z</time></trkpt><trkpt lat="44.8437993" lon="9.0709982"><ele>311.40000000000003</ele><time>2026-05-03T07:50:10.211Z</time></trkpt><trkpt lat="44.8437104" lon="9.0709983"><ele>311.8</ele><time>2026-05-03T07:50:11.218Z</time></trkpt><trkpt lat="44.8436059" lon="9.0710039"><ele>312.20000000000005</ele><time>2026-05-03T07:50:12.218Z</time></trkpt><trkpt lat="44.8434906" lon="9.0710046"><ele>312.6</ele><time>2026-05-03T07:50:13.217Z</time></trkpt><trkpt lat="44.8433753" lon="9.0710043"><ele>313.0</ele><time>2026-05-03T07:50:14.208Z</time></trkpt><trkpt lat="44.8432538" lon="9.0710207"><ele>315.4</ele><time>2026-05-03T07:50:15.212Z</time></trkpt><trkpt lat="44.8431329" lon="9.0710254"><ele>317.8</ele><time>2026-05-03T07:50:16.21Z</time></trkpt><trkpt lat="44.8430292" lon="9.0710126"><ele>320.2</ele><time>2026-05-03T07:50:17.21Z</time></trkpt><trkpt lat="44.8429288" lon="9.0709721"><ele>322.6</ele><time>2026-05-03T07:50:18.205Z</time></trkpt><trkpt lat="44.8428332" lon="9.0709147"><ele>325.0</ele><time>2026-05-03T07:50:19.217Z</time></trkpt><trkpt lat="44.8427269" lon="9.0708252"><ele>326.0</ele><time>2026-05-03T07:50:20.215Z</time></trkpt><trkpt lat="44.8426032" lon="9.0707315"><ele>327.0</ele><time>2026-05-03T07:50:21.221Z</time></trkpt><trkpt lat="44.8424738" lon="9.0706551"><ele>328.0</ele><time>2026-05-03T07:50:22.219Z</time></trkpt><trkpt lat="44.8423523" lon="9.0705885"><ele>329.0</ele><time>2026-05-03T07:50:23.206Z</time></trkpt><trkpt lat="44.8422461" lon="9.0705091"><ele>329.0</ele><time>2026-05-03T07:50:24.209Z</time></trkpt><trkpt lat="44.8421484" lon="9.0704291"><ele>329.0</ele><time>2026-05-03T07:50:25.216Z</time></trkpt><trkpt lat="44.8420628" lon="9.0703926"><ele>329.0</ele><time>2026-05-03T07:50:26.205Z</time></trkpt><trkpt lat="44.841971" lon="9.0703849"><ele>329.0</ele><time>2026-05-03T07:50:27.206Z</time></trkpt><trkpt lat="44.8418573" lon="9.0704086"><ele>329.0</ele><time>2026-05-03T07:50:28.209Z</time></trkpt><trkpt lat="44.8417271" lon="9.0704551"><ele>330.0</ele><time>2026-05-03T07:50:29.211Z</time></trkpt><trkpt lat="44.8416071" lon="9.0704859"><ele>331.0</ele><time>2026-05-03T07:50:30.207Z</time></trkpt><trkpt lat="44.8415088" lon="9.070478"><ele>332.0</ele><time>2026-05-03T07:50:31.212Z</time></trkpt><trkpt lat="44.8414215" lon="9.0704385"><ele>333.0</ele><time>2026-05-03T07:50:32.209Z</time></trkpt><trkpt lat="44.841336" lon="9.0703643"><ele>334.0</ele><time>2026-05-03T07:50:33.203Z</time></trkpt><trkpt lat="44.8412453" lon="9.0702649"><ele>334.0</ele><time>2026-05-03T07:50:34.205Z</time></trkpt><trkpt lat="44.8411743" lon="9.0702183"><ele>334.0</ele><time>2026-05-03T07:50:35.214Z</time></trkpt><trkpt lat="44.8410986" lon="9.0701762"><ele>334.0</ele><time>2026-05-03T07:50:36.213Z</time></trkpt><trkpt lat="44.8410005" lon="9.070204"><ele>334.0</ele><time>2026-05-03T07:50:37.21Z</time></trkpt><trkpt lat="44.8409114" lon="9.0702408"><ele>334.0</ele><time>2026-05-03T07:50:38.208Z</time></trkpt><trkpt lat="44.8408259" lon="9.0702774"><ele>334.0</ele><time>2026-05-03T07:50:39.204Z</time></trkpt><trkpt lat="44.8407371" lon="9.0703184"><ele>334.79999999999995</ele><time>2026-05-03T07:50:40.206Z</time></trkpt><trkpt lat="44.8406662" lon="9.0703288"><ele>335.59999999999997</ele><time>2026-05-03T07:50:41.208Z</time></trkpt><trkpt lat="44.8405577" lon="9.0703078"><ele>336.4</ele><time>2026-05-03T07:50:43.206Z</time></trkpt><trkpt lat="44.8404472" lon="9.0702252"><ele>337.2</ele><time>2026-05-03T07:50:45.215Z</time></trkpt><trkpt lat="44.8403584" lon="9.0701694"><ele>338.0</ele><time>2026-05-03T07:50:47.208Z</time></trkpt><trkpt lat="44.8402432" lon="9.0700795"><ele>338.0</ele><time>2026-05-03T07:50:49.214Z</time></trkpt><trkpt lat="44.8401716" lon="9.0700283"><ele>338.0</ele><time>2026-05-03T07:50:50.212Z</time></trkpt><trkpt lat="44.8400841" lon="9.0700019"><ele>338.0</ele><time>2026-05-03T07:50:51.207Z</time></trkpt><trkpt lat="44.8399803" lon="9.06997"><ele>338.0</ele><time>2026-05-03T07:50:52.206Z</time></trkpt><trkpt lat="44.8398954" lon="9.0699332"><ele>338.0</ele><time>2026-05-03T07:50:53.209Z</time></trkpt><trkpt lat="44.8398022" lon="9.0698579"><ele>341.33333333333337</ele><time>2026-05-03T07:50:54.209Z</time></trkpt><trkpt lat="44.8397363" lon="9.0697834"><ele>344.6666666666667</ele><time>2026-05-03T07:50:55.215Z</time></trkpt><trkpt lat="44.8396917" lon="9.0696571"><ele>348.0</ele><time>2026-05-03T07:50:56.21Z</time></trkpt><trkpt lat="44.8396538" lon="9.0695774"><ele>351.3333333333333</ele><time>2026-05-03T07:50:57.206Z</time></trkpt><trkpt lat="44.8395979" lon="9.0695215"><ele>354.66666666666663</ele><time>2026-05-03T07:50:58.206Z</time></trkpt><trkpt lat="44.8395304" lon="9.0694579"><ele>358.0</ele><time>2026-05-03T07:50:59.215Z</time></trkpt><trkpt lat="44.8394502" lon="9.0693669"><ele>358.0</ele><time>2026-05-03T07:51:00.212Z</time></trkpt><trkpt lat="44.8393646" lon="9.0693123"><ele>358.0</ele><time>2026-05-03T07:51:01.211Z</time></trkpt><trkpt lat="44.8392817" lon="9.0692473"><ele>358.0</ele><time>2026-05-03T07:51:02.209Z</time></trkpt><trkpt lat="44.8391857" lon="9.0692343"><ele>358.0</ele><time>2026-05-03T07:51:03.209Z</time></trkpt><trkpt lat="44.8391069" lon="9.0692204"><ele>358.0</ele><time>2026-05-03T07:51:04.214Z</time></trkpt><trkpt lat="44.8390376" lon="9.0692228"><ele>358.0</ele><time>2026-05-03T07:51:05.208Z</time></trkpt><trkpt lat="44.8389368" lon="9.0691365"><ele>360.3333333333333</ele><time>2026-05-03T07:51:07.21Z</time></trkpt><trkpt lat="44.8388848" lon="9.0690493"><ele>362.66666666666663</ele><time>2026-05-03T07:51:08.21Z</time></trkpt><trkpt lat="44.8388337" lon="9.0689437"><ele>365.0</ele><time>2026-05-03T07:51:09.208Z</time></trkpt><trkpt lat="44.8387697" lon="9.0688314"><ele>367.3333333333333</ele><time>2026-05-03T07:51:10.207Z</time></trkpt><trkpt lat="44.838712" lon="9.0687491"><ele>369.6666666666667</ele><time>2026-05-03T07:51:11.211Z</time></trkpt><trkpt lat="44.83866" lon="9.0686975"><ele>372.0</ele><time>2026-05-03T07:51:12.21Z</time></trkpt><trkpt lat="44.838511" lon="9.0686668"><ele>373.6</ele><time>2026-05-03T07:51:14.209Z</time></trkpt><trkpt lat="44.8383908" lon="9.0686563"><ele>375.20000000000005</ele><time>2026-05-03T07:51:15.212Z</time></trkpt><trkpt lat="44.8382835" lon="9.0686179"><ele>376.8</ele><time>2026-05-03T07:51:16.205Z</time></trkpt><trkpt lat="44.8381858" lon="9.0685818"><ele>378.4</ele><time>2026-05-03T07:51:17.209Z</time></trkpt><trkpt lat="44.8381237" lon="9.0685417"><ele>380.0</ele><time>2026-05-03T07:51:18.211Z</time></trkpt><trkpt lat="44.8379966" lon="9.0684532"><ele>380.0</ele><time>2026-05-03T07:51:20.208Z</time></trkpt><trkpt lat="44.8378954" lon="9.0683746"><ele>380.0</ele><time>2026-05-03T07:51:21.207Z</time></trkpt><trkpt lat="44.8377839" lon="9.0683305"><ele>380.0</ele><time>2026-05-03T07:51:22.209Z</time></trkpt><trkpt lat="44.8376745" lon="9.0683161"><ele>380.0</ele><time>2026-05-03T07:51:23.208Z</time></trkpt><trkpt lat="44.8375801" lon="9.0682989"><ele>380.0</ele><time>2026-05-03T07:51:24.211Z</time></trkpt><trkpt lat="44.8374994" lon="9.0682497"><ele>385.0</ele><time>2026-05-03T07:51:25.209Z</time></trkpt><trkpt lat="44.8374233" lon="9.0681865"><ele>390.0</ele><time>2026-05-03T07:51:26.21Z</time></trkpt><trkpt lat="44.8373491" lon="9.0680655"><ele>395.0</ele><time>2026-05-03T07:51:27.212Z</time></trkpt><trkpt lat="44.8372639" lon="9.067938"><ele>400.0</ele><time>2026-05-03T07:51:28.205Z</time></trkpt><trkpt lat="44.8371715" lon="9.0678172"><ele>400.0</ele><time>2026-05-03T07:51:29.207Z</time></trkpt><trkpt lat="44.8370662" lon="9.0676899"><ele>400.0</ele><time>2026-05-03T07:51:30.208Z</time></trkpt><trkpt lat="44.8369682" lon="9.0675772"><ele>400.0</ele><time>2026-05-03T07:51:31.219Z</time></trkpt><trkpt lat="44.8368609" lon="9.0674638"><ele>400.0</ele><time>2026-05-03T07:51:32.207Z</time></trkpt><trkpt lat="44.8367548" lon="9.0674026"><ele>402.4</ele><time>2026-05-03T07:51:33.214Z</time></trkpt><trkpt lat="44.8366652" lon="9.0673479"><ele>404.8</ele><time>2026-05-03T07:51:34.215Z</time></trkpt><trkpt lat="44.8365601" lon="9.0673289"><ele>407.20000000000005</ele><time>2026-05-03T07:51:35.21Z</time></trkpt><trkpt lat="44.8364716" lon="9.0672783"><ele>409.6</ele><time>2026-05-03T07:51:36.211Z</time></trkpt><trkpt lat="44.8364059" lon="9.0672373"><ele>412.0</ele><time>2026-05-03T07:51:37.211Z</time></trkpt><trkpt lat="44.836327" lon="9.0671708"><ele>412.0</ele><time>2026-05-03T07:51:39.209Z</time></trkpt><trkpt lat="44.8362268" lon="9.0671275"><ele>412.0</ele><time>2026-05-03T07:52:03.204Z</time></trkpt><trkpt lat="44.8360932" lon="9.0671309"><ele>412.0</ele><time>2026-05-03T07:52:05.214Z</time></trkpt><trkpt lat="44.8360154" lon="9.0671127"><ele>412.0</ele><time>2026-05-03T07:52:06.213Z</time></trkpt><trkpt lat="44.8359169" lon="9.067085"><ele>412.0</ele><time>2026-05-03T07:52:07.211Z</time></trkpt><trkpt lat="44.8358033" lon="9.0670727"><ele>411.6</ele><time>2026-05-03T07:52:08.209Z</time></trkpt><trkpt lat="44.8356859" lon="9.0670528"><ele>411.20000000000005</ele><time>2026-05-03T07:52:09.204Z</time></trkpt><trkpt lat="44.8355675" lon="9.0670384"><ele>410.8</ele><time>2026-05-03T07:52:10.207Z</time></trkpt><trkpt lat="44.8354658" lon="9.0670234"><ele>410.4</ele><time>2026-05-03T07:52:11.213Z</time></trkpt><trkpt lat="44.8353724" lon="9.0670073"><ele>410.0</ele><time>2026-05-03T07:52:12.212Z</time></trkpt><trkpt lat="44.8352625" lon="9.0669827"><ele>410.0</ele><time>2026-05-03T07:52:13.213Z</time></trkpt><trkpt lat="44.8351683" lon="9.066933"><ele>410.0</ele><time>2026-05-03T07:52:14.211Z</time></trkpt><trkpt lat="44.835073" lon="9.0668482"><ele>410.0</ele><time>2026-05-03T07:52:15.209Z</time></trkpt><trkpt lat="44.8349712" lon="9.0667522"><ele>410.0</ele><time>2026-05-03T07:52:16.205Z</time></trkpt><trkpt lat="44.8348638" lon="9.0666419"><ele>408.75</ele><time>2026-05-03T07:52:17.208Z</time></trkpt><trkpt lat="44.8347396" lon="9.0665321"><ele>407.5</ele><time>2026-05-03T07:52:18.215Z</time></trkpt><trkpt lat="44.8346088" lon="9.0664095"><ele>406.25</ele><time>2026-05-03T07:52:19.213Z</time></trkpt><trkpt lat="44.8344952" lon="9.0662965"><ele>405.0</ele><time>2026-05-03T07:52:20.214Z</time></trkpt><trkpt lat="44.8343888" lon="9.0661974"><ele>407.0</ele><time>2026-05-03T07:52:21.21Z</time></trkpt><trkpt lat="44.8342863" lon="9.0661245"><ele>409.0</ele><time>2026-05-03T07:52:22.214Z</time></trkpt><trkpt lat="44.8341755" lon="9.0660631"><ele>411.0</ele><time>2026-05-03T07:52:23.215Z</time></trkpt><trkpt lat="44.8340568" lon="9.0660029"><ele>413.0</ele><time>2026-05-03T07:52:24.204Z</time></trkpt><trkpt lat="44.8339216" lon="9.0659351"><ele>413.0</ele><time>2026-05-03T07:52:25.206Z</time></trkpt><trkpt lat="44.8337808" lon="9.0658578"><ele>413.0</ele><time>2026-05-03T07:52:26.212Z</time></trkpt><trkpt lat="44.8336454" lon="9.0657781"><ele>413.0</ele><time>2026-05-03T07:52:27.206Z</time></trkpt><trkpt lat="44.8335148" lon="9.0657009"><ele>413.0</ele><time>2026-05-03T07:52:28.213Z</time></trkpt><trkpt lat="44.8333692" lon="9.0656302"><ele>411.0</ele><time>2026-05-03T07:52:29.208Z</time></trkpt><trkpt lat="44.8332364" lon="9.0655719"><ele>409.0</ele><time>2026-05-03T07:52:30.206Z</time></trkpt><trkpt lat="44.8331251" lon="9.0655063"><ele>407.0</ele><time>2026-05-03T07:52:31.206Z</time></trkpt><trkpt lat="44.8330198" lon="9.0654357"><ele>405.0</ele><time>2026-05-03T07:52:32.216Z</time></trkpt><trkpt lat="44.8329233" lon="9.0653078"><ele>405.0</ele><time>2026-05-03T07:52:33.216Z</time></trkpt><trkpt lat="44.8328155" lon="9.0652103"><ele>405.0</ele><time>2026-05-03T07:52:34.22Z</time></trkpt><trkpt lat="44.8327306" lon="9.0651149"><ele>405.0</ele><time>2026-05-03T07:52:35.212Z</time></trkpt><trkpt lat="44.8326642" lon="9.0650234"><ele>405.0</ele><time>2026-05-03T07:52:36.217Z</time></trkpt><trkpt lat="44.8325893" lon="9.0649474"><ele>405.0</ele><time>2026-05-03T07:52:37.209Z</time></trkpt><trkpt lat="44.832519" lon="9.0648774"><ele>405.2</ele><time>2026-05-03T07:52:38.211Z</time></trkpt><trkpt lat="44.8324462" lon="9.0648504"><ele>405.4</ele><time>2026-05-03T07:52:39.21Z</time></trkpt><trkpt lat="44.8323437" lon="9.0648183"><ele>405.6</ele><time>2026-05-03T07:52:40.21Z</time></trkpt><trkpt lat="44.8322179" lon="9.0647916"><ele>405.8</ele><time>2026-05-03T07:52:41.208Z</time></trkpt><trkpt lat="44.8320942" lon="9.064786"><ele>406.0</ele><time>2026-05-03T07:52:42.207Z</time></trkpt><trkpt lat="44.8320189" lon="9.0647231"><ele>406.0</ele><time>2026-05-03T07:52:43.208Z</time></trkpt><trkpt lat="44.8319281" lon="9.0646471"><ele>406.0</ele><time>2026-05-03T07:52:44.207Z</time></trkpt><trkpt lat="44.8318374" lon="9.0645256"><ele>406.0</ele><time>2026-05-03T07:52:45.206Z</time></trkpt><trkpt lat="44.8317576" lon="9.0644016"><ele>406.0</ele><time>2026-05-03T07:52:46.218Z</time></trkpt><trkpt lat="44.8316782" lon="9.0643147"><ele>407.0</ele><time>2026-05-03T07:52:47.206Z</time></trkpt><trkpt lat="44.8315828" lon="9.0642463"><ele>408.0</ele><time>2026-05-03T07:52:48.21Z</time></trkpt><trkpt lat="44.831479" lon="9.064212"><ele>409.0</ele><time>2026-05-03T07:52:49.21Z</time></trkpt><trkpt lat="44.8313776" lon="9.0642092"><ele>410.0</ele><time>2026-05-03T07:52:50.219Z</time></trkpt><trkpt lat="44.8312471" lon="9.0642117"><ele>411.0</ele><time>2026-05-03T07:52:51.209Z</time></trkpt><trkpt lat="44.8311289" lon="9.064219"><ele>411.0</ele><time>2026-05-03T07:52:52.209Z</time></trkpt><trkpt lat="44.8310458" lon="9.0642598"><ele>411.0</ele><time>2026-05-03T07:52:55.207Z</time></trkpt><trkpt lat="44.8309958" lon="9.0643511"><ele>411.0</ele><time>2026-05-03T07:52:57.209Z</time></trkpt><trkpt lat="44.8309617" lon="9.0645011"><ele>411.0</ele><time>2026-05-03T07:52:59.22Z</time></trkpt><trkpt lat="44.8309345" lon="9.0645839"><ele>411.0</ele><time>2026-05-03T07:53:00.214Z</time></trkpt><trkpt lat="44.8309053" lon="9.0646874"><ele>411.0</ele><time>2026-05-03T07:53:01.21Z</time></trkpt><trkpt lat="44.8308753" lon="9.0647891"><ele>411.0</ele><time>2026-05-03T07:53:02.207Z</time></trkpt><trkpt lat="44.8308522" lon="9.0648863"><ele>411.0</ele><time>2026-05-03T07:53:03.213Z</time></trkpt><trkpt lat="44.8308222" lon="9.0649825"><ele>411.0</ele><time>2026-05-03T07:53:04.213Z</time></trkpt><trkpt lat="44.8307799" lon="9.0651468"><ele>411.0</ele><time>2026-05-03T07:53:06.207Z</time></trkpt><trkpt lat="44.8307426" lon="9.0652995"><ele>411.0</ele><time>2026-05-03T07:53:08.207Z</time></trkpt><trkpt lat="44.8307161" lon="9.0654394"><ele>413.0</ele><time>2026-05-03T07:53:10.217Z</time></trkpt><trkpt lat="44.8306963" lon="9.0655917"><ele>415.0</ele><time>2026-05-03T07:53:12.218Z</time></trkpt><trkpt lat="44.8306885" lon="9.0656826"><ele>417.0</ele><time>2026-05-03T07:53:13.211Z</time></trkpt><trkpt lat="44.8306703" lon="9.0658002"><ele>419.0</ele><time>2026-05-03T07:53:14.207Z</time></trkpt><trkpt lat="44.8306546" lon="9.0659296"><ele>421.0</ele><time>2026-05-03T07:53:15.206Z</time></trkpt><trkpt lat="44.8306462" lon="9.0660685"><ele>423.5</ele><time>2026-05-03T07:53:16.209Z</time></trkpt><trkpt lat="44.8306419" lon="9.0662282"><ele>426.0</ele><time>2026-05-03T07:53:17.225Z</time></trkpt><trkpt lat="44.8306462" lon="9.0663966"><ele>428.5</ele><time>2026-05-03T07:53:18.215Z</time></trkpt><trkpt lat="44.8306558" lon="9.0665677"><ele>431.0</ele><time>2026-05-03T07:53:19.212Z</time></trkpt><trkpt lat="44.8306731" lon="9.0667332"><ele>432.75</ele><time>2026-05-03T07:53:20.208Z</time></trkpt><trkpt lat="44.8306985" lon="9.0668988"><ele>434.5</ele><time>2026-05-03T07:53:21.208Z</time></trkpt><trkpt lat="44.8307255" lon="9.0670704"><ele>436.25</ele><time>2026-05-03T07:53:22.208Z</time></trkpt><trkpt lat="44.8307444" lon="9.0672477"><ele>438.0</ele><time>2026-05-03T07:53:23.22Z</time></trkpt><trkpt lat="44.8307457" lon="9.0674164"><ele>439.25</ele><time>2026-05-03T07:53:24.219Z</time></trkpt><trkpt lat="44.8307341" lon="9.0675875"><ele>440.5</ele><time>2026-05-03T07:53:25.237Z</time></trkpt><trkpt lat="44.8307263" lon="9.0677553"><ele>441.75</ele><time>2026-05-03T07:53:26.215Z</time></trkpt><trkpt lat="44.8307199" lon="9.0679175"><ele>443.0</ele><time>2026-05-03T07:53:27.209Z</time></trkpt><trkpt lat="44.8307195" lon="9.0680737"><ele>443.0</ele><time>2026-05-03T07:53:28.213Z</time></trkpt><trkpt lat="44.8307169" lon="9.0682261"><ele>443.0</ele><time>2026-05-03T07:53:29.221Z</time></trkpt><trkpt lat="44.8307052" lon="9.0683895"><ele>443.0</ele><time>2026-05-03T07:53:30.221Z</time></trkpt><trkpt lat="44.8306958" lon="9.0685497"><ele>443.0</ele><time>2026-05-03T07:53:31.21Z</time></trkpt><trkpt lat="44.8306779" lon="9.0687195"><ele>444.5</ele><time>2026-05-03T07:53:32.207Z</time></trkpt><trkpt lat="44.8306595" lon="9.0688904"><ele>446.0</ele><time>2026-05-03T07:53:33.207Z</time></trkpt><trkpt lat="44.830638" lon="9.0690636"><ele>447.5</ele><time>2026-05-03T07:53:34.211Z</time></trkpt><trkpt lat="44.8306213" lon="9.0692361"><ele>449.0</ele><time>2026-05-03T07:53:35.206Z</time></trkpt><trkpt lat="44.8306015" lon="9.0694063"><ele>450.2</ele><time>2026-05-03T07:53:36.209Z</time></trkpt><trkpt lat="44.8305794" lon="9.0695646"><ele>451.4</ele><time>2026-05-03T07:53:37.204Z</time></trkpt><trkpt lat="44.8305476" lon="9.0697123"><ele>452.6</ele><time>2026-05-03T07:53:38.207Z</time></trkpt><trkpt lat="44.8305221" lon="9.0698556"><ele>453.8</ele><time>2026-05-03T07:53:39.204Z</time></trkpt><trkpt lat="44.830494" lon="9.0700115"><ele>455.0</ele><time>2026-05-03T07:53:40.207Z</time></trkpt><trkpt lat="44.830466" lon="9.0701684"><ele>456.6</ele><time>2026-05-03T07:53:41.209Z</time></trkpt><trkpt lat="44.8304448" lon="9.0703244"><ele>458.2</ele><time>2026-05-03T07:53:42.208Z</time></trkpt><trkpt lat="44.8304212" lon="9.0704648"><ele>459.79999999999995</ele><time>2026-05-03T07:53:43.205Z</time></trkpt><trkpt lat="44.8304017" lon="9.0706096"><ele>461.4</ele><time>2026-05-03T07:53:44.206Z</time></trkpt><trkpt lat="44.8304022" lon="9.0707202"><ele>463.0</ele><time>2026-05-03T07:53:45.222Z</time></trkpt><trkpt lat="44.8304738" lon="9.0708292"><ele>465.0</ele><time>2026-05-03T07:53:47.206Z</time></trkpt><trkpt lat="44.8305612" lon="9.0708763"><ele>466.99999999999994</ele><time>2026-05-03T07:53:49.208Z</time></trkpt><trkpt lat="44.8305624" lon="9.0709903"><ele>468.99999999999994</ele><time>2026-05-03T07:53:52.209Z</time></trkpt><trkpt lat="44.8304874" lon="9.0710199"><ele>471.0</ele><time>2026-05-03T07:53:54.207Z</time></trkpt><trkpt lat="44.8303676" lon="9.0709939"><ele>473.0</ele><time>2026-05-03T07:53:57.205Z</time></trkpt><trkpt lat="44.8301766" lon="9.0709213"><ele>475.3333333333333</ele><time>2026-05-03T07:53:58.216Z</time></trkpt><trkpt lat="44.830081" lon="9.0709103"><ele>477.66666666666663</ele><time>2026-05-03T07:53:59.219Z</time></trkpt><trkpt lat="44.8299541" lon="9.0709424"><ele>480.0</ele><time>2026-05-03T07:54:00.21Z</time></trkpt><trkpt lat="44.82989" lon="9.0709961"><ele>482.33333333333337</ele><time>2026-05-03T07:54:01.207Z</time></trkpt><trkpt lat="44.8298472" lon="9.0710734"><ele>484.6666666666667</ele><time>2026-05-03T07:54:02.204Z</time></trkpt><trkpt lat="44.829816" lon="9.071163"><ele>487.0</ele><time>2026-05-03T07:54:03.211Z</time></trkpt><trkpt lat="44.8297989" lon="9.0713067"><ele>487.00000000000006</ele><time>2026-05-03T07:54:05.209Z</time></trkpt><trkpt lat="44.8298029" lon="9.0714298"><ele>487.0</ele><time>2026-05-03T07:54:07.209Z</time></trkpt><trkpt lat="44.8298188" lon="9.0715192"><ele>487.0</ele><time>2026-05-03T07:54:08.203Z</time></trkpt><trkpt lat="44.8298366" lon="9.071627"><ele>487.0</ele><time>2026-05-03T07:54:09.218Z</time></trkpt><trkpt lat="44.8298404" lon="9.071747"><ele>487.00000000000006</ele><time>2026-05-03T07:54:10.215Z</time></trkpt><trkpt lat="44.829838" lon="9.0718732"><ele>487.0</ele><time>2026-05-03T07:54:11.211Z</time></trkpt><trkpt lat="44.8298199" lon="9.0720107"><ele>488.20000000000005</ele><time>2026-05-03T07:54:12.209Z</time></trkpt><trkpt lat="44.82979" lon="9.0721549"><ele>489.40000000000003</ele><time>2026-05-03T07:54:13.218Z</time></trkpt><trkpt lat="44.8297626" lon="9.0722828"><ele>490.59999999999997</ele><time>2026-05-03T07:54:14.209Z</time></trkpt><trkpt lat="44.8297377" lon="9.0724132"><ele>491.79999999999995</ele><time>2026-05-03T07:54:15.211Z</time></trkpt><trkpt lat="44.8297051" lon="9.0725383"><ele>493.0</ele><time>2026-05-03T07:54:16.207Z</time></trkpt><trkpt lat="44.8296614" lon="9.0726558"><ele>493.0</ele><time>2026-05-03T07:54:17.209Z</time></trkpt><trkpt lat="44.8295942" lon="9.0727635"><ele>492.99999999999994</ele><time>2026-05-03T07:54:18.212Z</time></trkpt><trkpt lat="44.8295232" lon="9.0728675"><ele>492.99999999999994</ele><time>2026-05-03T07:54:19.22Z</time></trkpt><trkpt lat="44.8294485" lon="9.0729591"><ele>493.0</ele><time>2026-05-03T07:54:20.204Z</time></trkpt><trkpt lat="44.8293827" lon="9.0730326"><ele>493.0</ele><time>2026-05-03T07:54:21.207Z</time></trkpt><trkpt lat="44.8292902" lon="9.0730996"><ele>496.50000000000006</ele><time>2026-05-03T07:54:23.209Z</time></trkpt><trkpt lat="44.8292101" lon="9.0730969"><ele>500.0</ele><time>2026-05-03T07:54:25.207Z</time></trkpt><trkpt lat="44.8291856" lon="9.0729447"><ele>503.5</ele><time>2026-05-03T07:54:27.215Z</time></trkpt><trkpt lat="44.829151" lon="9.0728534"><ele>507.0</ele><time>2026-05-03T07:54:31.207Z</time></trkpt><trkpt lat="44.8290738" lon="9.0729494"><ele>510.50000000000006</ele><time>2026-05-03T07:54:34.208Z</time></trkpt><trkpt lat="44.8290845" lon="9.0730643"><ele>514.0</ele><time>2026-05-03T07:54:35.211Z</time></trkpt><trkpt lat="44.8291027" lon="9.0732027"><ele>514.5</ele><time>2026-05-03T07:54:36.212Z</time></trkpt><trkpt lat="44.8291112" lon="9.0733307"><ele>515.0</ele><time>2026-05-03T07:54:37.211Z</time></trkpt><trkpt lat="44.8291072" lon="9.0735112"><ele>515.5</ele><time>2026-05-03T07:54:38.212Z</time></trkpt><trkpt lat="44.829075" lon="9.0736943"><ele>516.0</ele><time>2026-05-03T07:54:39.211Z</time></trkpt><trkpt lat="44.8290552" lon="9.0738829"><ele>516.0</ele><time>2026-05-03T07:54:40.212Z</time></trkpt><trkpt lat="44.8290494" lon="9.0740768"><ele>516.0</ele><time>2026-05-03T07:54:41.216Z</time></trkpt><trkpt lat="44.8290257" lon="9.074256"><ele>516.0</ele><time>2026-05-03T07:54:42.207Z</time></trkpt><trkpt lat="44.8289926" lon="9.0743841"><ele>516.0</ele><time>2026-05-03T07:54:43.207Z</time></trkpt><trkpt lat="44.8289477" lon="9.0745156"><ele>516.0</ele><time>2026-05-03T07:54:44.21Z</time></trkpt><trkpt lat="44.8288922" lon="9.0745788"><ele>516.0</ele><time>2026-05-03T07:54:45.231Z</time></trkpt><trkpt lat="44.8288566" lon="9.0747001"><ele>516.0</ele><time>2026-05-03T07:54:46.215Z</time></trkpt><trkpt lat="44.828819" lon="9.0748163"><ele>516.0</ele><time>2026-05-03T07:54:47.207Z</time></trkpt><trkpt lat="44.8287948" lon="9.0749224"><ele>516.0</ele><time>2026-05-03T07:54:48.208Z</time></trkpt><trkpt lat="44.8287855" lon="9.0750183"><ele>516.0</ele><time>2026-05-03T07:54:49.216Z</time></trkpt><trkpt lat="44.8287883" lon="9.0751978"><ele>516.2</ele><time>2026-05-03T07:54:51.208Z</time></trkpt><trkpt lat="44.8287909" lon="9.0752872"><ele>516.4000000000001</ele><time>2026-05-03T07:54:52.204Z</time></trkpt><trkpt lat="44.8288039" lon="9.0754254"><ele>516.6</ele><time>2026-05-03T07:54:54.211Z</time></trkpt><trkpt lat="44.8287964" lon="9.0755651"><ele>516.8000000000001</ele><time>2026-05-03T07:54:56.209Z</time></trkpt><trkpt lat="44.8287867" lon="9.0756964"><ele>517.0</ele><time>2026-05-03T07:54:58.213Z</time></trkpt><trkpt lat="44.8288078" lon="9.075853"><ele>518.6</ele><time>2026-05-03T07:55:00.204Z</time></trkpt><trkpt lat="44.8288582" lon="9.0759864"><ele>520.2</ele><time>2026-05-03T07:55:02.202Z</time></trkpt><trkpt lat="44.8289204" lon="9.0761065"><ele>521.8</ele><time>2026-05-03T07:55:04.211Z</time></trkpt><trkpt lat="44.8289696" lon="9.0762485"><ele>523.4</ele><time>2026-05-03T07:55:06.215Z</time></trkpt><trkpt lat="44.8290222" lon="9.0763921"><ele>525.0</ele><time>2026-05-03T07:55:08.214Z</time></trkpt><trkpt lat="44.8290486" lon="9.0764737"><ele>527.6</ele><time>2026-05-03T07:55:09.209Z</time></trkpt><trkpt lat="44.8290771" lon="9.076622"><ele>530.2</ele><time>2026-05-03T07:55:11.212Z</time></trkpt><trkpt lat="44.8291142" lon="9.0767327"><ele>532.8</ele><time>2026-05-03T07:55:13.209Z</time></trkpt><trkpt lat="44.829132" lon="9.0768683"><ele>535.4</ele><time>2026-05-03T07:55:15.213Z</time></trkpt><trkpt lat="44.829148" lon="9.0769988"><ele>538.0</ele><time>2026-05-03T07:55:17.218Z</time></trkpt><trkpt lat="44.8291743" lon="9.0771457"><ele>538.0</ele><time>2026-05-03T07:55:19.208Z</time></trkpt><trkpt lat="44.8291995" lon="9.0772685"><ele>538.0</ele><time>2026-05-03T07:55:21.217Z</time></trkpt><trkpt lat="44.8291912" lon="9.0773829"><ele>538.0</ele><time>2026-05-03T07:55:23.208Z</time></trkpt><trkpt lat="44.8292009" lon="9.0774952"><ele>538.0</ele><time>2026-05-03T07:55:25.216Z</time></trkpt><trkpt lat="44.8292077" lon="9.0776195"><ele>538.0</ele><time>2026-05-03T07:55:28.22Z</time></trkpt><trkpt lat="44.8292236" lon="9.0777088"><ele>538.0</ele><time>2026-05-03T07:55:30.205Z</time></trkpt><trkpt lat="44.8292105" lon="9.0778018"><ele>540.4</ele><time>2026-05-03T07:55:32.211Z</time></trkpt><trkpt lat="44.8291557" lon="9.077873"><ele>542.8</ele><time>2026-05-03T07:55:34.209Z</time></trkpt><trkpt lat="44.8290581" lon="9.0777318"><ele>545.2</ele><time>2026-05-03T07:55:36.206Z</time></trkpt><trkpt lat="44.8290076" lon="9.077655"><ele>547.6</ele><time>2026-05-03T07:55:37.206Z</time></trkpt><trkpt lat="44.8289499" lon="9.0775754"><ele>550.0</ele><time>2026-05-03T07:55:38.208Z</time></trkpt><trkpt lat="44.8288815" lon="9.077473"><ele>547.6</ele><time>2026-05-03T07:55:39.207Z</time></trkpt><trkpt lat="44.8287986" lon="9.0773796"><ele>545.2</ele><time>2026-05-03T07:55:40.205Z</time></trkpt><trkpt lat="44.8287231" lon="9.0772881"><ele>542.8</ele><time>2026-05-03T07:55:41.21Z</time></trkpt><trkpt lat="44.8286374" lon="9.0772263"><ele>540.4</ele><time>2026-05-03T07:55:42.207Z</time></trkpt><trkpt lat="44.8285356" lon="9.0771627"><ele>538.0</ele><time>2026-05-03T07:55:43.209Z</time></trkpt><trkpt lat="44.8284422" lon="9.0771173"><ele>545.4</ele><time>2026-05-03T07:55:44.207Z</time></trkpt><trkpt lat="44.8283626" lon="9.0771201"><ele>552.8</ele><time>2026-05-03T07:55:45.208Z</time></trkpt><trkpt lat="44.8283009" lon="9.0772336"><ele>560.2</ele><time>2026-05-03T07:55:46.208Z</time></trkpt><trkpt lat="44.8282544" lon="9.0773405"><ele>567.6</ele><time>2026-05-03T07:55:47.206Z</time></trkpt><trkpt lat="44.8281855" lon="9.0774458"><ele>575.0</ele><time>2026-05-03T07:55:48.207Z</time></trkpt><trkpt lat="44.8281174" lon="9.0775165"><ele>575.6666666666666</ele><time>2026-05-03T07:55:49.212Z</time></trkpt><trkpt lat="44.8280447" lon="9.0775707"><ele>576.3333333333333</ele><time>2026-05-03T07:55:50.207Z</time></trkpt><trkpt lat="44.8279835" lon="9.0776039"><ele>577.0</ele><time>2026-05-03T07:55:51.206Z</time></trkpt><trkpt lat="44.8279031" lon="9.0775669"><ele>577.6666666666666</ele><time>2026-05-03T07:55:52.216Z</time></trkpt><trkpt lat="44.8278005" lon="9.0775218"><ele>578.3333333333334</ele><time>2026-05-03T07:55:54.206Z</time></trkpt><trkpt lat="44.8277146" lon="9.0775872"><ele>579.0</ele><time>2026-05-03T07:55:56.21Z</time></trkpt><trkpt lat="44.8276666" lon="9.07767"><ele>581.2</ele><time>2026-05-03T07:55:58.21Z</time></trkpt><trkpt lat="44.8276214" lon="9.0777429"><ele>583.4</ele><time>2026-05-03T07:55:59.211Z</time></trkpt><trkpt lat="44.8275559" lon="9.0778597"><ele>585.6</ele><time>2026-05-03T07:56:00.219Z</time></trkpt><trkpt lat="44.8274785" lon="9.0779951"><ele>587.8</ele><time>2026-05-03T07:56:01.21Z</time></trkpt><trkpt lat="44.8273933" lon="9.0781543"><ele>590.0</ele><time>2026-05-03T07:56:02.212Z</time></trkpt><trkpt lat="44.8272752" lon="9.0783548"><ele>590.0</ele><time>2026-05-03T07:56:03.231Z</time></trkpt><trkpt lat="44.8271704" lon="9.078535"><ele>590.0</ele><time>2026-05-03T07:56:04.22Z</time></trkpt><trkpt lat="44.8270832" lon="9.078695"><ele>590.0</ele><time>2026-05-03T07:56:05.214Z</time></trkpt><trkpt lat="44.8269834" lon="9.0788713"><ele>590.0</ele><time>2026-05-03T07:56:06.206Z</time></trkpt><trkpt lat="44.8268831" lon="9.0790116"><ele>590.0</ele><time>2026-05-03T07:56:07.208Z</time></trkpt><trkpt lat="44.8267639" lon="9.0791665"><ele>590.0</ele><time>2026-05-03T07:56:08.207Z</time></trkpt><trkpt lat="44.8266539" lon="9.0793017"><ele>590.0</ele><time>2026-05-03T07:56:09.241Z</time></trkpt><trkpt lat="44.8265639" lon="9.0793984"><ele>590.4</ele><time>2026-05-03T07:56:10.231Z</time></trkpt><trkpt lat="44.8264577" lon="9.0794875"><ele>590.8</ele><time>2026-05-03T07:56:11.217Z</time></trkpt><trkpt lat="44.8263432" lon="9.0795585"><ele>591.2</ele><time>2026-05-03T07:56:12.211Z</time></trkpt><trkpt lat="44.8262579" lon="9.0795994"><ele>591.6</ele><time>2026-05-03T07:56:13.216Z</time></trkpt><trkpt lat="44.826197" lon="9.0796386"><ele>592.0</ele><time>2026-05-03T07:56:14.206Z</time></trkpt><trkpt lat="44.8261261" lon="9.0797078"><ele>592.0</ele><time>2026-05-03T07:56:15.22Z</time></trkpt><trkpt lat="44.8260764" lon="9.07979"><ele>592.0</ele><time>2026-05-03T07:56:16.207Z</time></trkpt><trkpt lat="44.8260545" lon="9.0799167"><ele>592.0</ele><time>2026-05-03T07:56:17.203Z</time></trkpt><trkpt lat="44.8260079" lon="9.08001"><ele>592.0</ele><time>2026-05-03T07:56:18.21Z</time></trkpt><trkpt lat="44.8259292" lon="9.0801057"><ele>592.0</ele><time>2026-05-03T07:56:19.208Z</time></trkpt><trkpt lat="44.8258591" lon="9.0801858"><ele>592.0</ele><time>2026-05-03T07:56:20.207Z</time></trkpt><trkpt lat="44.8257943" lon="9.0802873"><ele>592.2</ele><time>2026-05-03T07:56:21.208Z</time></trkpt><trkpt lat="44.8257189" lon="9.0804113"><ele>592.4000000000001</ele><time>2026-05-03T07:56:22.212Z</time></trkpt><trkpt lat="44.8256479" lon="9.0805058"><ele>592.5999999999999</ele><time>2026-05-03T07:56:23.209Z</time></trkpt><trkpt lat="44.8255753" lon="9.0805475"><ele>592.8</ele><time>2026-05-03T07:56:24.205Z</time></trkpt><trkpt lat="44.8254933" lon="9.080448"><ele>593.0</ele><time>2026-05-03T07:56:26.213Z</time></trkpt><trkpt lat="44.8254356" lon="9.0803578"><ele>593.0</ele><time>2026-05-03T07:56:27.216Z</time></trkpt><trkpt lat="44.8253591" lon="9.0802379"><ele>593.0</ele><time>2026-05-03T07:56:29.204Z</time></trkpt><trkpt lat="44.825276" lon="9.0803935"><ele>593.0</ele><time>2026-05-03T07:56:31.208Z</time></trkpt><trkpt lat="44.8252459" lon="9.0804828"><ele>593.0</ele><time>2026-05-03T07:56:32.206Z</time></trkpt><trkpt lat="44.8251971" lon="9.0806279"><ele>593.0</ele><time>2026-05-03T07:56:34.226Z</time></trkpt><trkpt lat="44.8251352" lon="9.0807572"><ele>596.0</ele><time>2026-05-03T07:56:35.209Z</time></trkpt><trkpt lat="44.8250554" lon="9.0809138"><ele>599.0</ele><time>2026-05-03T07:56:36.208Z</time></trkpt><trkpt lat="44.8249889" lon="9.0810471"><ele>602.0</ele><time>2026-05-03T07:56:37.215Z</time></trkpt><trkpt lat="44.8249122" lon="9.0811467"><ele>605.0</ele><time>2026-05-03T07:56:38.211Z</time></trkpt><trkpt lat="44.8248299" lon="9.0812256"><ele>605.0</ele><time>2026-05-03T07:56:39.516Z</time></trkpt><trkpt lat="44.8247514" lon="9.0813223"><ele>605.0</ele><time>2026-05-03T07:56:40.517Z</time></trkpt><trkpt lat="44.8246827" lon="9.0814236"><ele>605.0</ele><time>2026-05-03T07:56:41.512Z</time></trkpt><trkpt lat="44.8246154" lon="9.0815131"><ele>605.0</ele><time>2026-05-03T07:56:42.511Z</time></trkpt><trkpt lat="44.8245445" lon="9.0815887"><ele>605.0</ele><time>2026-05-03T07:56:43.515Z</time></trkpt><trkpt lat="44.8244744" lon="9.0816025"><ele>605.2</ele><time>2026-05-03T07:56:44.519Z</time></trkpt><trkpt lat="44.8243826" lon="9.0816815"><ele>605.4</ele><time>2026-05-03T07:56:46.518Z</time></trkpt><trkpt lat="44.8243155" lon="9.0817999"><ele>605.6</ele><time>2026-05-03T07:56:47.509Z</time></trkpt><trkpt lat="44.8242641" lon="9.0818694"><ele>605.8</ele><time>2026-05-03T07:56:48.516Z</time></trkpt><trkpt lat="44.8241968" lon="9.081937"><ele>606.0</ele><time>2026-05-03T07:56:49.517Z</time></trkpt><trkpt lat="44.8240899" lon="9.0819356"><ele>606.0</ele><time>2026-05-03T07:56:50.521Z</time></trkpt><trkpt lat="44.8240238" lon="9.0819237"><ele>606.0</ele><time>2026-05-03T07:56:51.511Z</time></trkpt><trkpt lat="44.8239364" lon="9.0820003"><ele>606.0</ele><time>2026-05-03T07:56:53.513Z</time></trkpt><trkpt lat="44.8238855" lon="9.0820854"><ele>606.0</ele><time>2026-05-03T07:56:54.528Z</time></trkpt><trkpt lat="44.8238217" lon="9.0823284"><ele>606.0</ele><time>2026-05-03T07:56:55.537Z</time></trkpt><trkpt lat="44.8237644" lon="9.0824757"><ele>607.25</ele><time>2026-05-03T07:56:56.518Z</time></trkpt><trkpt lat="44.8237479" lon="9.0825862"><ele>608.5</ele><time>2026-05-03T07:56:57.513Z</time></trkpt><trkpt lat="44.8236716" lon="9.0826856"><ele>609.75</ele><time>2026-05-03T07:56:59.512Z</time></trkpt><trkpt lat="44.8235106" lon="9.0827197"><ele>611.0</ele><time>2026-05-03T07:57:01.51Z</time></trkpt><trkpt lat="44.8234075" lon="9.0827226"><ele>611.0</ele><time>2026-05-03T07:57:02.511Z</time></trkpt><trkpt lat="44.8232853" lon="9.0827453"><ele>611.0</ele><time>2026-05-03T07:57:03.51Z</time></trkpt><trkpt lat="44.8231894" lon="9.0827809"><ele>611.0</ele><time>2026-05-03T07:57:04.511Z</time></trkpt><trkpt lat="44.8231312" lon="9.0828171"><ele>611.0</ele><time>2026-05-03T07:57:05.516Z</time></trkpt><trkpt lat="44.8230779" lon="9.0828891"><ele>611.0</ele><time>2026-05-03T07:57:06.513Z</time></trkpt><trkpt lat="44.8230203" lon="9.0829658"><ele>611.0</ele><time>2026-05-03T07:57:07.516Z</time></trkpt><trkpt lat="44.8229529" lon="9.0830952"><ele>611.0</ele><time>2026-05-03T07:57:08.508Z</time></trkpt><trkpt lat="44.8229085" lon="9.0832454"><ele>611.0</ele><time>2026-05-03T07:57:09.512Z</time></trkpt><trkpt lat="44.8228374" lon="9.0832992"><ele>611.0</ele><time>2026-05-03T07:57:10.513Z</time></trkpt><trkpt lat="44.8227614" lon="9.0833018"><ele>611.0</ele><time>2026-05-03T07:57:12.517Z</time></trkpt><trkpt lat="44.8227464" lon="9.0831536"><ele>611.0</ele><time>2026-05-03T07:57:47.513Z</time></trkpt><trkpt lat="44.8226966" lon="9.0830087"><ele>611.0</ele><time>2026-05-03T07:57:49.519Z</time></trkpt><trkpt lat="44.8226553" lon="9.0829171"><ele>611.0</ele><time>2026-05-03T07:57:50.515Z</time></trkpt><trkpt lat="44.8226083" lon="9.0828416"><ele>611.0</ele><time>2026-05-03T07:57:51.522Z</time></trkpt><trkpt lat="44.8225394" lon="9.0827078"><ele>611.0</ele><time>2026-05-03T07:57:53.507Z</time></trkpt><trkpt lat="44.8224995" lon="9.082605"><ele>611.0</ele><time>2026-05-03T07:57:55.514Z</time></trkpt><trkpt lat="44.8224585" lon="9.0825239"><ele>611.0</ele><time>2026-05-03T07:57:57.514Z</time></trkpt><trkpt lat="44.8224156" lon="9.0824332"><ele>614.25</ele><time>2026-05-03T07:58:01.514Z</time></trkpt><trkpt lat="44.822385" lon="9.0823065"><ele>617.5</ele><time>2026-05-03T07:58:04.518Z</time></trkpt><trkpt lat="44.8223771" lon="9.0822062"><ele>620.75</ele><time>2026-05-03T07:58:06.518Z</time></trkpt><trkpt lat="44.8224066" lon="9.0821002"><ele>624.0</ele><time>2026-05-03T07:58:08.518Z</time></trkpt><trkpt lat="44.8225386" lon="9.0817723"><ele>624.0</ele><time>2026-05-03T07:58:10.524Z</time></trkpt><trkpt lat="44.8225843" lon="9.0817085"><ele>624.0</ele><time>2026-05-03T07:58:12.509Z</time></trkpt><trkpt lat="44.8228177" lon="9.081256"><ele>627.0</ele><time>2026-05-03T07:58:14.511Z</time></trkpt><trkpt lat="44.8229094" lon="9.0810865"><ele>630.0</ele><time>2026-05-03T07:58:15.513Z</time></trkpt><trkpt lat="44.8229981" lon="9.0809973"><ele>633.0</ele><time>2026-05-03T07:58:16.506Z</time></trkpt><trkpt lat="44.8230961" lon="9.0809895"><ele>636.0</ele><time>2026-05-03T07:58:18.518Z</time></trkpt><trkpt lat="44.8230599" lon="9.080763"><ele>637.1666666666666</ele><time>2026-05-03T07:58:21.522Z</time></trkpt><trkpt lat="44.8230072" lon="9.0806385"><ele>638.3333333333334</ele><time>2026-05-03T07:58:22.515Z</time></trkpt><trkpt lat="44.8229675" lon="9.0805065"><ele>639.5</ele><time>2026-05-03T07:58:23.52Z</time></trkpt><trkpt lat="44.8229455" lon="9.0804025"><ele>640.6666666666667</ele><time>2026-05-03T07:58:24.508Z</time></trkpt><trkpt lat="44.8229585" lon="9.0802947"><ele>641.8333333333334</ele><time>2026-05-03T07:58:25.512Z</time></trkpt><trkpt lat="44.8229873" lon="9.0802042"><ele>643.0</ele><time>2026-05-03T07:58:26.505Z</time></trkpt><trkpt lat="44.8230351" lon="9.08009"><ele>643.0</ele><time>2026-05-03T07:58:27.513Z</time></trkpt><trkpt lat="44.8230893" lon="9.0799858"><ele>643.0</ele><time>2026-05-03T07:58:28.512Z</time></trkpt><trkpt lat="44.8231513" lon="9.0799051"><ele>643.0</ele><time>2026-05-03T07:58:29.512Z</time></trkpt><trkpt lat="44.8232445" lon="9.0798473"><ele>643.0</ele><time>2026-05-03T07:58:30.509Z</time></trkpt><trkpt lat="44.8233378" lon="9.0798028"><ele>643.0</ele><time>2026-05-03T07:58:31.521Z</time></trkpt><trkpt lat="44.8234329" lon="9.0797413"><ele>643.25</ele><time>2026-05-03T07:58:32.509Z</time></trkpt><trkpt lat="44.8235229" lon="9.0796609"><ele>643.5</ele><time>2026-05-03T07:58:33.511Z</time></trkpt><trkpt lat="44.8236319" lon="9.0795551"><ele>643.75</ele><time>2026-05-03T07:58:34.51Z</time></trkpt><trkpt lat="44.8237222" lon="9.0794366"><ele>644.0</ele><time>2026-05-03T07:58:35.521Z</time></trkpt><trkpt lat="44.8237824" lon="9.0793134"><ele>644.0</ele><time>2026-05-03T07:58:36.518Z</time></trkpt><trkpt lat="44.8237775" lon="9.0791383"><ele>644.0</ele><time>2026-05-03T07:58:38.514Z</time></trkpt><trkpt lat="44.8237959" lon="9.0789982"><ele>644.0</ele><time>2026-05-03T07:58:39.524Z</time></trkpt><trkpt lat="44.8238604" lon="9.078816"><ele>644.0</ele><time>2026-05-03T07:58:40.513Z</time></trkpt><trkpt lat="44.82391" lon="9.0786836"><ele>645.4000000000001</ele><time>2026-05-03T07:58:41.511Z</time></trkpt><trkpt lat="44.8239325" lon="9.078549"><ele>646.8</ele><time>2026-05-03T07:58:42.514Z</time></trkpt><trkpt lat="44.8239495" lon="9.0784364"><ele>648.2</ele><time>2026-05-03T07:58:43.512Z</time></trkpt><trkpt lat="44.8239428" lon="9.078288"><ele>649.5999999999999</ele><time>2026-05-03T07:58:44.508Z</time></trkpt><trkpt lat="44.8239356" lon="9.0781519"><ele>651.0</ele><time>2026-05-03T07:58:45.512Z</time></trkpt><trkpt lat="44.8239991" lon="9.0780699"><ele>652.3333333333334</ele><time>2026-05-03T07:58:46.512Z</time></trkpt><trkpt lat="44.8240514" lon="9.0779667"><ele>653.6666666666666</ele><time>2026-05-03T07:58:47.515Z</time></trkpt><trkpt lat="44.8241265" lon="9.0778585"><ele>655.0</ele><time>2026-05-03T07:58:48.515Z</time></trkpt><trkpt lat="44.8241764" lon="9.0777863"><ele>656.3333333333333</ele><time>2026-05-03T07:58:49.511Z</time></trkpt><trkpt lat="44.8242271" lon="9.0777201"><ele>657.6666666666666</ele><time>2026-05-03T07:58:50.524Z</time></trkpt><trkpt lat="44.8241467" lon="9.077753"><ele>659.0</ele><time>2026-05-03T07:58:55.514Z</time></trkpt><trkpt lat="44.8240764" lon="9.0777982"><ele>659.0</ele><time>2026-05-03T07:59:27.512Z</time></trkpt><trkpt lat="44.8239499" lon="9.0778521"><ele>659.0</ele><time>2026-05-03T07:59:29.509Z</time></trkpt><trkpt lat="44.8238737" lon="9.0778407"><ele>659.0</ele><time>2026-05-03T07:59:31.512Z</time></trkpt><trkpt lat="44.8238467" lon="9.0777106"><ele>659.0</ele><time>2026-05-03T07:59:35.522Z</time></trkpt><trkpt lat="44.823698" lon="9.077432"><ele>659.5</ele><time>2026-05-03T07:59:37.515Z</time></trkpt><trkpt lat="44.8236227" lon="9.0773876"><ele>660.0</ele><time>2026-05-03T07:59:38.511Z</time></trkpt><trkpt lat="44.8234557" lon="9.0773669"><ele>660.5</ele><time>2026-05-03T07:59:40.511Z</time></trkpt><trkpt lat="44.8233079" lon="9.0772493"><ele>661.0</ele><time>2026-05-03T07:59:42.527Z</time></trkpt><trkpt lat="44.8232373" lon="9.0772056"><ele>658.0</ele><time>2026-05-03T07:59:43.517Z</time></trkpt><trkpt lat="44.8230387" lon="9.0772506"><ele>655.0</ele><time>2026-05-03T07:59:46.516Z</time></trkpt><trkpt lat="44.8228615" lon="9.0771049"><ele>652.0</ele><time>2026-05-03T07:59:49.523Z</time></trkpt><trkpt lat="44.8227163" lon="9.0770365"><ele>652.0</ele><time>2026-05-03T07:59:52.511Z</time></trkpt><trkpt lat="44.8226703" lon="9.0769597"><ele>652.0</ele><time>2026-05-03T07:59:54.521Z</time></trkpt><trkpt lat="44.8227279" lon="9.0761996"><ele>651.5</ele><time>2026-05-03T08:00:01.514Z</time></trkpt><trkpt lat="44.8227796" lon="9.0756953"><ele>651.0</ele><time>2026-05-03T08:00:04.513Z</time></trkpt><trkpt lat="44.8227648" lon="9.0754677"><ele>651.0</ele><time>2026-05-03T08:00:06.519Z</time></trkpt><trkpt lat="44.8227288" lon="9.0753734"><ele>651.0</ele><time>2026-05-03T08:00:07.514Z</time></trkpt><trkpt lat="44.8226541" lon="9.075304"><ele>651.0</ele><time>2026-05-03T08:00:09.52Z</time></trkpt><trkpt lat="44.8226068" lon="9.0751607"><ele>651.0</ele><time>2026-05-03T08:00:16.535Z</time></trkpt><trkpt lat="44.8226453" lon="9.0750771"><ele>651.0</ele><time>2026-05-03T08:00:19.514Z</time></trkpt><trkpt lat="44.8226599" lon="9.0749897"><ele>651.0</ele><time>2026-05-03T08:00:44.518Z</time></trkpt><trkpt lat="44.8226012" lon="9.0750319"><ele>651.4285714285714</ele><time>2026-05-03T08:00:47.51Z</time></trkpt><trkpt lat="44.8225511" lon="9.0750981"><ele>651.8571428571429</ele><time>2026-05-03T08:00:49.515Z</time></trkpt><trkpt lat="44.8225052" lon="9.0751744"><ele>652.2857142857142</ele><time>2026-05-03T08:00:52.521Z</time></trkpt><trkpt lat="44.8224382" lon="9.0752229"><ele>652.7142857142858</ele><time>2026-05-03T08:00:55.515Z</time></trkpt><trkpt lat="44.8223707" lon="9.0752623"><ele>653.1428571428571</ele><time>2026-05-03T08:00:57.523Z</time></trkpt><trkpt lat="44.8222907" lon="9.0752944"><ele>653.5714285714286</ele><time>2026-05-03T08:00:59.514Z</time></trkpt><trkpt lat="44.8222154" lon="9.0753096"><ele>654.0</ele><time>2026-05-03T08:01:01.509Z</time></trkpt><trkpt lat="44.8221428" lon="9.0752962"><ele>654.0</ele><time>2026-05-03T08:01:04.509Z</time></trkpt><trkpt lat="44.8220678" lon="9.0753257"><ele>654.0</ele><time>2026-05-03T08:01:08.508Z</time></trkpt><trkpt lat="44.8220015" lon="9.0753637"><ele>654.0</ele><time>2026-05-03T08:01:27.534Z</time></trkpt><trkpt lat="44.8218844" lon="9.0755049"><ele>654.0</ele><time>2026-05-03T08:01:29.517Z</time></trkpt><trkpt lat="44.8218377" lon="9.0755802"><ele>654.0</ele><time>2026-05-03T08:01:30.522Z</time></trkpt><trkpt lat="44.821778" lon="9.0756818"><ele>655.8333333333334</ele><time>2026-05-03T08:01:32.514Z</time></trkpt><trkpt lat="44.8216829" lon="9.0757245"><ele>657.6666666666666</ele><time>2026-05-03T08:01:34.517Z</time></trkpt><trkpt lat="44.8215914" lon="9.0756935"><ele>659.5</ele><time>2026-05-03T08:01:35.514Z</time></trkpt><trkpt lat="44.8215334" lon="9.0756547"><ele>661.3333333333333</ele><time>2026-05-03T08:01:37.518Z</time></trkpt><trkpt lat="44.8214865" lon="9.0755797"><ele>663.1666666666666</ele><time>2026-05-03T08:01:40.515Z</time></trkpt><trkpt lat="44.821432" lon="9.0754896"><ele>665.0</ele><time>2026-05-03T08:01:41.522Z</time></trkpt><trkpt lat="44.8209777" lon="9.0747581"><ele>668.0</ele><time>2026-05-03T08:01:42.512Z</time></trkpt><trkpt lat="44.820869" lon="9.0745605"><ele>671.0</ele><time>2026-05-03T08:01:44.51Z</time></trkpt><trkpt lat="44.8207284" lon="9.0744344"><ele>674.0</ele><time>2026-05-03T08:01:46.517Z</time></trkpt><trkpt lat="44.8204933" lon="9.0744925"><ele>674.0</ele><time>2026-05-03T08:01:48.517Z</time></trkpt><trkpt lat="44.8203209" lon="9.0744898"><ele>674.0</ele><time>2026-05-03T08:01:50.517Z</time></trkpt><trkpt lat="44.8201111" lon="9.0744862"><ele>674.0</ele><time>2026-05-03T08:01:52.515Z</time></trkpt><trkpt lat="44.8199206" lon="9.0745986"><ele>675.75</ele><time>2026-05-03T08:01:54.514Z</time></trkpt><trkpt lat="44.8197721" lon="9.0746163"><ele>677.5</ele><time>2026-05-03T08:01:56.514Z</time></trkpt><trkpt lat="44.8196527" lon="9.0745842"><ele>679.25</ele><time>2026-05-03T08:01:58.522Z</time></trkpt><trkpt lat="44.8195383" lon="9.0745374"><ele>681.0</ele><time>2026-05-03T08:02:00.526Z</time></trkpt><trkpt lat="44.8194041" lon="9.0744688"><ele>680.5</ele><time>2026-05-03T08:02:02.521Z</time></trkpt><trkpt lat="44.8192847" lon="9.0743908"><ele>680.0</ele><time>2026-05-03T08:02:04.515Z</time></trkpt><trkpt lat="44.8191501" lon="9.0743512"><ele>679.5</ele><time>2026-05-03T08:02:06.511Z</time></trkpt><trkpt lat="44.8190083" lon="9.0743325"><ele>679.0</ele><time>2026-05-03T08:02:08.517Z</time></trkpt><trkpt lat="44.8188499" lon="9.0743518"><ele>679.0</ele><time>2026-05-03T08:02:10.517Z</time></trkpt><trkpt lat="44.8186648" lon="9.0744132"><ele>679.0</ele><time>2026-05-03T08:02:12.52Z</time></trkpt><trkpt lat="44.818504" lon="9.0745141"><ele>679.0</ele><time>2026-05-03T08:02:14.526Z</time></trkpt><trkpt lat="44.8183689" lon="9.0746255"><ele>678.25</ele><time>2026-05-03T08:02:16.515Z</time></trkpt><trkpt lat="44.8182451" lon="9.0747091"><ele>677.5</ele><time>2026-05-03T08:02:18.515Z</time></trkpt><trkpt lat="44.8181484" lon="9.0747208"><ele>676.75</ele><time>2026-05-03T08:02:20.514Z</time></trkpt><trkpt lat="44.8179835" lon="9.0746954"><ele>676.0</ele><time>2026-05-03T08:02:22.52Z</time></trkpt><trkpt lat="44.8178144" lon="9.0747183"><ele>676.0</ele><time>2026-05-03T08:02:24.518Z</time></trkpt><trkpt lat="44.8177407" lon="9.0748297"><ele>676.0</ele><time>2026-05-03T08:02:26.521Z</time></trkpt><trkpt lat="44.8176725" lon="9.0750569"><ele>676.0</ele><time>2026-05-03T08:02:28.516Z</time></trkpt><trkpt lat="44.8175912" lon="9.0752969"><ele>676.0</ele><time>2026-05-03T08:02:30.521Z</time></trkpt><trkpt lat="44.817556" lon="9.0754463"><ele>676.0</ele><time>2026-05-03T08:02:32.523Z</time></trkpt><trkpt lat="44.8174357" lon="9.0755838"><ele>676.0</ele><time>2026-05-03T08:02:34.517Z</time></trkpt><trkpt lat="44.8172822" lon="9.0756376"><ele>676.0</ele><time>2026-05-03T08:02:36.514Z</time></trkpt><trkpt lat="44.8170403" lon="9.0757221"><ele>676.0</ele><time>2026-05-03T08:02:38.515Z</time></trkpt><trkpt lat="44.8169126" lon="9.0757368"><ele>676.0</ele><time>2026-05-03T08:02:40.524Z</time></trkpt><trkpt lat="44.8168116" lon="9.0757533"><ele>676.0</ele><time>2026-05-03T08:02:42.521Z</time></trkpt><trkpt lat="44.8166886" lon="9.0757671"><ele>676.0</ele><time>2026-05-03T08:02:44.519Z</time></trkpt><trkpt lat="44.816585" lon="9.0757817"><ele>677.0</ele><time>2026-05-03T08:02:46.519Z</time></trkpt><trkpt lat="44.8165116" lon="9.0757692"><ele>678.0</ele><time>2026-05-03T08:02:48.517Z</time></trkpt><trkpt lat="44.8164322" lon="9.0756974"><ele>679.0</ele><time>2026-05-03T08:02:50.519Z</time></trkpt><trkpt lat="44.8163464" lon="9.0755798"><ele>680.0</ele><time>2026-05-03T08:02:52.52Z</time></trkpt><trkpt lat="44.8162602" lon="9.0755036"><ele>681.0</ele><time>2026-05-03T08:02:56.509Z</time></trkpt><trkpt lat="44.8161535" lon="9.075598"><ele>680.0</ele><time>2026-05-03T08:03:30.518Z</time></trkpt><trkpt lat="44.8160049" lon="9.0757717"><ele>679.0</ele><time>2026-05-03T08:03:33.525Z</time></trkpt><trkpt lat="44.8158854" lon="9.075931"><ele>678.0</ele><time>2026-05-03T08:03:35.513Z</time></trkpt><trkpt lat="44.8157602" lon="9.0761172"><ele>678.0</ele><time>2026-05-03T08:03:37.515Z</time></trkpt><trkpt lat="44.8156201" lon="9.076271"><ele>678.0</ele><time>2026-05-03T08:03:39.516Z</time></trkpt><trkpt lat="44.815448" lon="9.0764094"><ele>678.0</ele><time>2026-05-03T08:03:41.52Z</time></trkpt><trkpt lat="44.8153687" lon="9.0764726"><ele>678.0</ele><time>2026-05-03T08:03:42.52Z</time></trkpt><trkpt lat="44.8152875" lon="9.0765327"><ele>678.0</ele><time>2026-05-03T08:03:43.519Z</time></trkpt><trkpt lat="44.8152109" lon="9.0766079"><ele>678.0</ele><time>2026-05-03T08:03:44.526Z</time></trkpt><trkpt lat="44.8151379" lon="9.0767012"><ele>678.0</ele><time>2026-05-03T08:03:45.529Z</time></trkpt><trkpt lat="44.8150655" lon="9.0768022"><ele>678.0</ele><time>2026-05-03T08:03:46.52Z</time></trkpt><trkpt lat="44.8149877" lon="9.0769004"><ele>676.0</ele><time>2026-05-03T08:03:47.514Z</time></trkpt><trkpt lat="44.81491" lon="9.0769889"><ele>674.0</ele><time>2026-05-03T08:03:48.521Z</time></trkpt><trkpt lat="44.8148409" lon="9.0770768"><ele>672.0</ele><time>2026-05-03T08:03:49.514Z</time></trkpt><trkpt lat="44.8147743" lon="9.0771523"><ele>670.0</ele><time>2026-05-03T08:03:50.518Z</time></trkpt><trkpt lat="44.8146794" lon="9.0772254"><ele>668.0</ele><time>2026-05-03T08:03:52.524Z</time></trkpt><trkpt lat="44.8146154" lon="9.0772145"><ele>668.0</ele><time>2026-05-03T08:03:53.524Z</time></trkpt><trkpt lat="44.8144991" lon="9.0771063"><ele>668.0</ele><time>2026-05-03T08:03:55.518Z</time></trkpt><trkpt lat="44.8144389" lon="9.0770493"><ele>668.0</ele><time>2026-05-03T08:03:56.52Z</time></trkpt><trkpt lat="44.8143266" lon="9.0770548"><ele>668.0</ele><time>2026-05-03T08:03:58.518Z</time></trkpt><trkpt lat="44.8142803" lon="9.0771366"><ele>668.0</ele><time>2026-05-03T08:03:59.518Z</time></trkpt><trkpt lat="44.8142239" lon="9.0772423"><ele>665.4</ele><time>2026-05-03T08:04:00.519Z</time></trkpt><trkpt lat="44.814159" lon="9.0773468"><ele>662.8</ele><time>2026-05-03T08:04:01.517Z</time></trkpt><trkpt lat="44.8140953" lon="9.0774564"><ele>660.2</ele><time>2026-05-03T08:04:02.515Z</time></trkpt><trkpt lat="44.8140529" lon="9.0775848"><ele>657.6</ele><time>2026-05-03T08:04:03.518Z</time></trkpt><trkpt lat="44.8140153" lon="9.0777341"><ele>655.0</ele><time>2026-05-03T08:04:04.523Z</time></trkpt><trkpt lat="44.8139693" lon="9.0778855"><ele>655.0</ele><time>2026-05-03T08:04:05.518Z</time></trkpt><trkpt lat="44.8139233" lon="9.0780495"><ele>655.0</ele><time>2026-05-03T08:04:06.516Z</time></trkpt><trkpt lat="44.8138792" lon="9.0782158"><ele>655.0</ele><time>2026-05-03T08:04:07.52Z</time></trkpt><trkpt lat="44.8138323" lon="9.0783726"><ele>655.0</ele><time>2026-05-03T08:04:08.515Z</time></trkpt><trkpt lat="44.8137853" lon="9.0785249"><ele>656.6</ele><time>2026-05-03T08:04:09.515Z</time></trkpt><trkpt lat="44.8137336" lon="9.0786796"><ele>658.2</ele><time>2026-05-03T08:04:10.514Z</time></trkpt><trkpt lat="44.8136934" lon="9.0788258"><ele>659.8</ele><time>2026-05-03T08:04:11.516Z</time></trkpt><trkpt lat="44.8136578" lon="9.0789747"><ele>661.4</ele><time>2026-05-03T08:04:12.517Z</time></trkpt><trkpt lat="44.813621" lon="9.0791129"><ele>663.0</ele><time>2026-05-03T08:04:13.516Z</time></trkpt><trkpt lat="44.8135746" lon="9.0792273"><ele>664.1666666666666</ele><time>2026-05-03T08:04:14.508Z</time></trkpt><trkpt lat="44.8135314" lon="9.079322"><ele>665.3333333333334</ele><time>2026-05-03T08:04:15.522Z</time></trkpt><trkpt lat="44.8134967" lon="9.0793994"><ele>666.5</ele><time>2026-05-03T08:04:16.534Z</time></trkpt><trkpt lat="44.8134511" lon="9.0794975"><ele>667.6666666666667</ele><time>2026-05-03T08:04:18.512Z</time></trkpt><trkpt lat="44.8134221" lon="9.0796144"><ele>668.8333333333334</ele><time>2026-05-03T08:04:21.522Z</time></trkpt><trkpt lat="44.8134392" lon="9.0797175"><ele>670.0</ele><time>2026-05-03T08:04:23.513Z</time></trkpt><trkpt lat="44.8134799" lon="9.0798664"><ele>671.0</ele><time>2026-05-03T08:04:25.523Z</time></trkpt><trkpt lat="44.8134977" lon="9.0799699"><ele>672.0</ele><time>2026-05-03T08:04:26.519Z</time></trkpt><trkpt lat="44.8135389" lon="9.0800739"><ele>673.0</ele><time>2026-05-03T08:04:27.525Z</time></trkpt><trkpt lat="44.8135793" lon="9.0801778"><ele>674.0</ele><time>2026-05-03T08:04:28.521Z</time></trkpt><trkpt lat="44.8136346" lon="9.0802872"><ele>675.0</ele><time>2026-05-03T08:04:29.513Z</time></trkpt><trkpt lat="44.8136932" lon="9.0803675"><ele>676.0</ele><time>2026-05-03T08:04:30.515Z</time></trkpt><trkpt lat="44.8137356" lon="9.0804525"><ele>676.0</ele><time>2026-05-03T08:04:31.523Z</time></trkpt><trkpt lat="44.8137797" lon="9.0806351"><ele>676.0</ele><time>2026-05-03T08:04:33.516Z</time></trkpt><trkpt lat="44.813803" lon="9.0807707"><ele>676.0</ele><time>2026-05-03T08:04:34.525Z</time></trkpt><trkpt lat="44.8138186" lon="9.0809154"><ele>676.0</ele><time>2026-05-03T08:04:35.519Z</time></trkpt><trkpt lat="44.8138231" lon="9.0810488"><ele>676.0</ele><time>2026-05-03T08:04:36.514Z</time></trkpt><trkpt lat="44.8138472" lon="9.0811775"><ele>675.4</ele><time>2026-05-03T08:04:37.516Z</time></trkpt><trkpt lat="44.8138843" lon="9.0813247"><ele>674.8</ele><time>2026-05-03T08:04:38.523Z</time></trkpt><trkpt lat="44.813931" lon="9.081465"><ele>674.1999999999999</ele><time>2026-05-03T08:04:39.508Z</time></trkpt><trkpt lat="44.8139922" lon="9.0816124"><ele>673.5999999999999</ele><time>2026-05-03T08:04:40.514Z</time></trkpt><trkpt lat="44.8140404" lon="9.081728"><ele>673.0</ele><time>2026-05-03T08:04:41.512Z</time></trkpt><trkpt lat="44.814087" lon="9.0818176"><ele>672.0</ele><time>2026-05-03T08:04:42.518Z</time></trkpt><trkpt lat="44.8141285" lon="9.081981"><ele>671.0</ele><time>2026-05-03T08:04:44.51Z</time></trkpt><trkpt lat="44.8141611" lon="9.0820756"><ele>670.0</ele><time>2026-05-03T08:04:45.515Z</time></trkpt><trkpt lat="44.8141999" lon="9.0821552"><ele>669.0</ele><time>2026-05-03T08:04:46.514Z</time></trkpt><trkpt lat="44.8142602" lon="9.08223"><ele>668.0</ele><time>2026-05-03T08:04:47.526Z</time></trkpt><trkpt lat="44.8143097" lon="9.0823051"><ele>667.0</ele><time>2026-05-03T08:04:48.525Z</time></trkpt><trkpt lat="44.8143929" lon="9.0824145"><ele>669.8333333333334</ele><time>2026-05-03T08:04:50.51Z</time></trkpt><trkpt lat="44.8144628" lon="9.0824865"><ele>672.6666666666667</ele><time>2026-05-03T08:04:51.52Z</time></trkpt><trkpt lat="44.8145341" lon="9.0825606"><ele>675.5</ele><time>2026-05-03T08:04:52.522Z</time></trkpt><trkpt lat="44.8146061" lon="9.0826064"><ele>678.3333333333334</ele><time>2026-05-03T08:04:53.515Z</time></trkpt><trkpt lat="44.8146608" lon="9.0827058"><ele>681.1666666666666</ele><time>2026-05-03T08:04:54.523Z</time></trkpt><trkpt lat="44.8147235" lon="9.0827892"><ele>684.0</ele><time>2026-05-03T08:04:55.511Z</time></trkpt><trkpt lat="44.8147799" lon="9.082873"><ele>684.0</ele><time>2026-05-03T08:04:56.514Z</time></trkpt><trkpt lat="44.8148075" lon="9.0830114"><ele>684.0</ele><time>2026-05-03T08:04:57.511Z</time></trkpt><trkpt lat="44.8148885" lon="9.0830875"><ele>684.0</ele><time>2026-05-03T08:04:58.514Z</time></trkpt><trkpt lat="44.8149563" lon="9.08318"><ele>684.0</ele><time>2026-05-03T08:04:59.509Z</time></trkpt><trkpt lat="44.8150078" lon="9.0832671"><ele>684.0</ele><time>2026-05-03T08:05:00.514Z</time></trkpt><trkpt lat="44.81506" lon="9.0833619"><ele>683.1666666666666</ele><time>2026-05-03T08:05:01.514Z</time></trkpt><trkpt lat="44.8151024" lon="9.0834364"><ele>682.3333333333334</ele><time>2026-05-03T08:05:02.513Z</time></trkpt><trkpt lat="44.8151382" lon="9.0835177"><ele>681.5</ele><time>2026-05-03T08:05:03.509Z</time></trkpt><trkpt lat="44.8152073" lon="9.0836891"><ele>680.6666666666667</ele><time>2026-05-03T08:05:05.512Z</time></trkpt><trkpt lat="44.8152509" lon="9.0837752"><ele>679.8333333333334</ele><time>2026-05-03T08:05:06.526Z</time></trkpt><trkpt lat="44.8152975" lon="9.0838804"><ele>679.0</ele><time>2026-05-03T08:05:07.518Z</time></trkpt><trkpt lat="44.815355" lon="9.0839668"><ele>679.0</ele><time>2026-05-03T08:05:08.514Z</time></trkpt><trkpt lat="44.8154134" lon="9.0840553"><ele>679.0</ele><time>2026-05-03T08:05:09.514Z</time></trkpt><trkpt lat="44.8154709" lon="9.0841536"><ele>679.0</ele><time>2026-05-03T08:05:10.515Z</time></trkpt><trkpt lat="44.8155133" lon="9.0842344"><ele>679.0</ele><time>2026-05-03T08:05:11.522Z</time></trkpt><trkpt lat="44.8155462" lon="9.0843151"><ele>679.0</ele><time>2026-05-03T08:05:12.514Z</time></trkpt><trkpt lat="44.8155765" lon="9.0843992"><ele>679.0</ele><time>2026-05-03T08:05:13.519Z</time></trkpt><trkpt lat="44.8156081" lon="9.084485"><ele>679.0</ele><time>2026-05-03T08:05:14.515Z</time></trkpt><trkpt lat="44.8156525" lon="9.0845793"><ele>680.3333333333334</ele><time>2026-05-03T08:05:15.515Z</time></trkpt><trkpt lat="44.8156794" lon="9.0846728"><ele>681.6666666666667</ele><time>2026-05-03T08:05:16.517Z</time></trkpt><trkpt lat="44.815728" lon="9.0847659"><ele>683.0</ele><time>2026-05-03T08:05:17.509Z</time></trkpt><trkpt lat="44.8157284" lon="9.0849216"><ele>684.3333333333334</ele><time>2026-05-03T08:05:18.516Z</time></trkpt><trkpt lat="44.8157283" lon="9.0850403"><ele>685.6666666666666</ele><time>2026-05-03T08:05:19.516Z</time></trkpt><trkpt lat="44.8157616" lon="9.0851458"><ele>687.0</ele><time>2026-05-03T08:05:20.514Z</time></trkpt><trkpt lat="44.8157776" lon="9.0852562"><ele>687.0</ele><time>2026-05-03T08:05:21.519Z</time></trkpt><trkpt lat="44.8158103" lon="9.0854005"><ele>687.0</ele><time>2026-05-03T08:05:22.516Z</time></trkpt><trkpt lat="44.8158389" lon="9.0855963"><ele>687.0</ele><time>2026-05-03T08:05:23.52Z</time></trkpt><trkpt lat="44.8158812" lon="9.0857307"><ele>687.0</ele><time>2026-05-03T08:05:24.52Z</time></trkpt><trkpt lat="44.8159119" lon="9.0858656"><ele>687.0</ele><time>2026-05-03T08:05:25.513Z</time></trkpt><trkpt lat="44.815956" lon="9.0859926"><ele>687.0</ele><time>2026-05-03T08:05:26.514Z</time></trkpt><trkpt lat="44.8159826" lon="9.0861343"><ele>687.0</ele><time>2026-05-03T08:05:27.522Z</time></trkpt><trkpt lat="44.8160096" lon="9.0862343"><ele>687.0</ele><time>2026-05-03T08:05:28.515Z</time></trkpt><trkpt lat="44.8160203" lon="9.0863446"><ele>687.0</ele><time>2026-05-03T08:05:29.51Z</time></trkpt><trkpt lat="44.8160518" lon="9.0865136"><ele>692.6</ele><time>2026-05-03T08:05:31.513Z</time></trkpt><trkpt lat="44.8160449" lon="9.0866452"><ele>698.2</ele><time>2026-05-03T08:05:32.511Z</time></trkpt><trkpt lat="44.8160459" lon="9.0867725"><ele>703.8</ele><time>2026-05-03T08:05:33.516Z</time></trkpt><trkpt lat="44.816031" lon="9.0869236"><ele>709.4</ele><time>2026-05-03T08:05:34.521Z</time></trkpt><trkpt lat="44.8160132" lon="9.0870826"><ele>715.0</ele><time>2026-05-03T08:05:35.516Z</time></trkpt><trkpt lat="44.815999" lon="9.0872226"><ele>715.0</ele><time>2026-05-03T08:05:36.52Z</time></trkpt><trkpt lat="44.816006" lon="9.0873693"><ele>715.0</ele><time>2026-05-03T08:05:37.518Z</time></trkpt><trkpt lat="44.8160188" lon="9.0875122"><ele>715.0</ele><time>2026-05-03T08:05:38.514Z</time></trkpt><trkpt lat="44.8160412" lon="9.0876175"><ele>715.0</ele><time>2026-05-03T08:05:39.528Z</time></trkpt><trkpt lat="44.8160431" lon="9.087725"><ele>715.0</ele><time>2026-05-03T08:05:40.513Z</time></trkpt><trkpt lat="44.8160433" lon="9.087885"><ele>717.6</ele><time>2026-05-03T08:05:41.514Z</time></trkpt><trkpt lat="44.8160414" lon="9.0880193"><ele>720.2</ele><time>2026-05-03T08:05:42.523Z</time></trkpt><trkpt lat="44.8160328" lon="9.0881513"><ele>722.8</ele><time>2026-05-03T08:05:43.522Z</time></trkpt><trkpt lat="44.8160215" lon="9.088281"><ele>725.4</ele><time>2026-05-03T08:05:44.518Z</time></trkpt><trkpt lat="44.8160136" lon="9.0884152"><ele>728.0</ele><time>2026-05-03T08:05:45.512Z</time></trkpt><trkpt lat="44.816014" lon="9.0885496"><ele>721.4</ele><time>2026-05-03T08:05:47.523Z</time></trkpt><trkpt lat="44.8159577" lon="9.0886142"><ele>714.8</ele><time>2026-05-03T08:05:51.528Z</time></trkpt><trkpt lat="44.8158709" lon="9.0886259"><ele>708.2</ele><time>2026-05-03T08:06:29.518Z</time></trkpt><trkpt lat="44.8158" lon="9.0886204"><ele>701.6</ele><time>2026-05-03T08:06:32.521Z</time></trkpt><trkpt lat="44.8156952" lon="9.088597"><ele>695.0</ele><time>2026-05-03T08:06:34.52Z</time></trkpt><trkpt lat="44.8154354" lon="9.088528"><ele>695.0</ele><time>2026-05-03T08:06:35.518Z</time></trkpt><trkpt lat="44.8153403" lon="9.0884958"><ele>695.0</ele><time>2026-05-03T08:06:36.507Z</time></trkpt><trkpt lat="44.8152458" lon="9.0884715"><ele>695.0</ele><time>2026-05-03T08:06:37.52Z</time></trkpt><trkpt lat="44.8151414" lon="9.0884572"><ele>695.0</ele><time>2026-05-03T08:06:38.514Z</time></trkpt><trkpt lat="44.815052" lon="9.0884547"><ele>695.0</ele><time>2026-05-03T08:06:39.517Z</time></trkpt><trkpt lat="44.8149629" lon="9.0884571"><ele>691.0</ele><time>2026-05-03T08:06:40.513Z</time></trkpt><trkpt lat="44.8148812" lon="9.0884797"><ele>687.0</ele><time>2026-05-03T08:06:41.509Z</time></trkpt><trkpt lat="44.8147871" lon="9.0884885"><ele>683.0</ele><time>2026-05-03T08:06:42.515Z</time></trkpt><trkpt lat="44.8146925" lon="9.0885053"><ele>679.0</ele><time>2026-05-03T08:06:43.514Z</time></trkpt><trkpt lat="44.8145775" lon="9.0885195"><ele>675.0</ele><time>2026-05-03T08:06:44.514Z</time></trkpt><trkpt lat="44.8144591" lon="9.0885226"><ele>675.0</ele><time>2026-05-03T08:06:45.517Z</time></trkpt><trkpt lat="44.814349" lon="9.0885248"><ele>675.0</ele><time>2026-05-03T08:06:46.517Z</time></trkpt><trkpt lat="44.8142406" lon="9.0885349"><ele>675.0</ele><time>2026-05-03T08:06:47.517Z</time></trkpt><trkpt lat="44.8141352" lon="9.0885295"><ele>675.0</ele><time>2026-05-03T08:06:48.511Z</time></trkpt><trkpt lat="44.814038" lon="9.0885176"><ele>675.0</ele><time>2026-05-03T08:06:49.517Z</time></trkpt><trkpt lat="44.8139688" lon="9.0885049"><ele>672.5</ele><time>2026-05-03T08:06:50.51Z</time></trkpt><trkpt lat="44.8139006" lon="9.0884866"><ele>670.0</ele><time>2026-05-03T08:06:51.518Z</time></trkpt><trkpt lat="44.8138427" lon="9.088447"><ele>667.5</ele><time>2026-05-03T08:06:52.52Z</time></trkpt><trkpt lat="44.8137567" lon="9.0883594"><ele>665.0</ele><time>2026-05-03T08:06:54.517Z</time></trkpt><trkpt lat="44.8137107" lon="9.0884277"><ele>662.5</ele><time>2026-05-03T08:06:58.511Z</time></trkpt><trkpt lat="44.8137362" lon="9.0885606"><ele>660.0</ele><time>2026-05-03T08:07:02.514Z</time></trkpt><trkpt lat="44.8137751" lon="9.088758"><ele>660.0</ele><time>2026-05-03T08:07:04.515Z</time></trkpt><trkpt lat="44.8137982" lon="9.0888501"><ele>660.0</ele><time>2026-05-03T08:07:05.516Z</time></trkpt><trkpt lat="44.8138404" lon="9.088991"><ele>660.0</ele><time>2026-05-03T08:07:07.516Z</time></trkpt><trkpt lat="44.813871" lon="9.0890744"><ele>660.0</ele><time>2026-05-03T08:07:08.518Z</time></trkpt><trkpt lat="44.8139115" lon="9.089166"><ele>660.0</ele><time>2026-05-03T08:07:09.516Z</time></trkpt><trkpt lat="44.8139545" lon="9.0892756"><ele>660.0</ele><time>2026-05-03T08:07:10.515Z</time></trkpt><trkpt lat="44.8140007" lon="9.0893954"><ele>659.0</ele><time>2026-05-03T08:07:11.515Z</time></trkpt><trkpt lat="44.8140444" lon="9.0895121"><ele>658.0</ele><time>2026-05-03T08:07:12.512Z</time></trkpt><trkpt lat="44.8140855" lon="9.0896279"><ele>657.0</ele><time>2026-05-03T08:07:13.507Z</time></trkpt><trkpt lat="44.8141116" lon="9.0897594"><ele>656.0</ele><time>2026-05-03T08:07:14.516Z</time></trkpt><trkpt lat="44.8141429" lon="9.0898979"><ele>655.0</ele><time>2026-05-03T08:07:15.509Z</time></trkpt><trkpt lat="44.814168" lon="9.0900421"><ele>653.4</ele><time>2026-05-03T08:07:16.51Z</time></trkpt><trkpt lat="44.8141923" lon="9.0901807"><ele>651.8</ele><time>2026-05-03T08:07:17.509Z</time></trkpt><trkpt lat="44.8142225" lon="9.0903222"><ele>650.2</ele><time>2026-05-03T08:07:18.508Z</time></trkpt><trkpt lat="44.81426" lon="9.0904614"><ele>648.6</ele><time>2026-05-03T08:07:19.508Z</time></trkpt><trkpt lat="44.8143116" lon="9.0905789"><ele>647.0</ele><time>2026-05-03T08:07:20.509Z</time></trkpt><trkpt lat="44.814374" lon="9.0906718"><ele>649.0</ele><time>2026-05-03T08:07:21.521Z</time></trkpt><trkpt lat="44.8144517" lon="9.0907371"><ele>651.0</ele><time>2026-05-03T08:07:22.51Z</time></trkpt><trkpt lat="44.8145333" lon="9.0907785"><ele>653.0</ele><time>2026-05-03T08:07:23.517Z</time></trkpt><trkpt lat="44.8146224" lon="9.0907953"><ele>655.0</ele><time>2026-05-03T08:07:24.518Z</time></trkpt><trkpt lat="44.8147155" lon="9.0907917"><ele>657.0</ele><time>2026-05-03T08:07:25.516Z</time></trkpt><trkpt lat="44.814816" lon="9.0907871"><ele>657.0</ele><time>2026-05-03T08:07:26.517Z</time></trkpt><trkpt lat="44.8149164" lon="9.0907934"><ele>657.0</ele><time>2026-05-03T08:07:27.519Z</time></trkpt><trkpt lat="44.8150208" lon="9.0908032"><ele>657.0</ele><time>2026-05-03T08:07:28.52Z</time></trkpt><trkpt lat="44.815133" lon="9.0908035"><ele>657.0</ele><time>2026-05-03T08:07:29.509Z</time></trkpt><trkpt lat="44.8152406" lon="9.0908044"><ele>657.0</ele><time>2026-05-03T08:07:30.517Z</time></trkpt><trkpt lat="44.8153521" lon="9.0908118"><ele>658.4000000000001</ele><time>2026-05-03T08:07:31.511Z</time></trkpt><trkpt lat="44.8154628" lon="9.0908206"><ele>659.8000000000001</ele><time>2026-05-03T08:07:32.51Z</time></trkpt><trkpt lat="44.8155708" lon="9.090833"><ele>661.2</ele><time>2026-05-03T08:07:33.509Z</time></trkpt><trkpt lat="44.8156794" lon="9.0908341"><ele>662.6</ele><time>2026-05-03T08:07:34.512Z</time></trkpt><trkpt lat="44.8157814" lon="9.090847"><ele>664.0</ele><time>2026-05-03T08:07:35.517Z</time></trkpt><trkpt lat="44.8158622" lon="9.0908963"><ele>664.0</ele><time>2026-05-03T08:07:36.515Z</time></trkpt><trkpt lat="44.815938" lon="9.0909695"><ele>664.0</ele><time>2026-05-03T08:07:37.516Z</time></trkpt><trkpt lat="44.8160158" lon="9.0910739"><ele>664.0</ele><time>2026-05-03T08:07:38.512Z</time></trkpt><trkpt lat="44.8160879" lon="9.0911954"><ele>664.0</ele><time>2026-05-03T08:07:39.516Z</time></trkpt><trkpt lat="44.8161491" lon="9.0913274"><ele>664.0</ele><time>2026-05-03T08:07:40.516Z</time></trkpt><trkpt lat="44.8162015" lon="9.0914831"><ele>666.75</ele><time>2026-05-03T08:07:41.514Z</time></trkpt><trkpt lat="44.816246" lon="9.0916501"><ele>669.5</ele><time>2026-05-03T08:07:42.519Z</time></trkpt><trkpt lat="44.8162953" lon="9.0918211"><ele>672.25</ele><time>2026-05-03T08:07:43.512Z</time></trkpt><trkpt lat="44.8163412" lon="9.0920042"><ele>675.0</ele><time>2026-05-03T08:07:44.511Z</time></trkpt><trkpt lat="44.8163943" lon="9.0921899"><ele>675.0</ele><time>2026-05-03T08:07:45.514Z</time></trkpt><trkpt lat="44.8164535" lon="9.0923742"><ele>675.0</ele><time>2026-05-03T08:07:46.516Z</time></trkpt><trkpt lat="44.8165199" lon="9.0925542"><ele>675.0</ele><time>2026-05-03T08:07:47.522Z</time></trkpt><trkpt lat="44.8165953" lon="9.0927297"><ele>675.0</ele><time>2026-05-03T08:07:48.511Z</time></trkpt><trkpt lat="44.8166838" lon="9.0928983"><ele>674.25</ele><time>2026-05-03T08:07:49.517Z</time></trkpt><trkpt lat="44.8167724" lon="9.0930661"><ele>673.5</ele><time>2026-05-03T08:07:50.512Z</time></trkpt><trkpt lat="44.8168534" lon="9.0932328"><ele>672.75</ele><time>2026-05-03T08:07:51.519Z</time></trkpt><trkpt lat="44.8169398" lon="9.0933843"><ele>672.0</ele><time>2026-05-03T08:07:52.515Z</time></trkpt><trkpt lat="44.8170246" lon="9.0935255"><ele>672.75</ele><time>2026-05-03T08:07:53.515Z</time></trkpt><trkpt lat="44.8171083" lon="9.0936681"><ele>673.5</ele><time>2026-05-03T08:07:54.513Z</time></trkpt><trkpt lat="44.8171869" lon="9.0938194"><ele>674.25</ele><time>2026-05-03T08:07:55.517Z</time></trkpt><trkpt lat="44.8172691" lon="9.0939547"><ele>675.0</ele><time>2026-05-03T08:07:56.521Z</time></trkpt><trkpt lat="44.817346" lon="9.094091"><ele>675.0</ele><time>2026-05-03T08:07:57.509Z</time></trkpt><trkpt lat="44.8174222" lon="9.0942106"><ele>675.0</ele><time>2026-05-03T08:07:58.508Z</time></trkpt><trkpt lat="44.8174829" lon="9.0943394"><ele>675.0</ele><time>2026-05-03T08:07:59.515Z</time></trkpt><trkpt lat="44.8175402" lon="9.0944762"><ele>675.0</ele><time>2026-05-03T08:08:00.512Z</time></trkpt><trkpt lat="44.8175954" lon="9.0946231"><ele>675.0</ele><time>2026-05-03T08:08:01.519Z</time></trkpt><trkpt lat="44.8176501" lon="9.094765"><ele>675.0</ele><time>2026-05-03T08:08:02.513Z</time></trkpt><trkpt lat="44.817696" lon="9.0949155"><ele>675.0</ele><time>2026-05-03T08:08:03.513Z</time></trkpt><trkpt lat="44.8177457" lon="9.09507"><ele>675.0</ele><time>2026-05-03T08:08:04.517Z</time></trkpt><trkpt lat="44.8177848" lon="9.0952368"><ele>675.2</ele><time>2026-05-03T08:08:05.512Z</time></trkpt><trkpt lat="44.8178249" lon="9.0954011"><ele>675.4</ele><time>2026-05-03T08:08:06.519Z</time></trkpt><trkpt lat="44.8178575" lon="9.0955574"><ele>675.5999999999999</ele><time>2026-05-03T08:08:07.528Z</time></trkpt><trkpt lat="44.8178862" lon="9.0957046"><ele>675.8</ele><time>2026-05-03T08:08:08.513Z</time></trkpt><trkpt lat="44.8179155" lon="9.0958405"><ele>676.0</ele><time>2026-05-03T08:08:09.518Z</time></trkpt><trkpt lat="44.8179336" lon="9.0959773"><ele>676.0</ele><time>2026-05-03T08:08:10.52Z</time></trkpt><trkpt lat="44.8179523" lon="9.0960978"><ele>676.0</ele><time>2026-05-03T08:08:11.509Z</time></trkpt><trkpt lat="44.8179866" lon="9.0962348"><ele>676.0</ele><time>2026-05-03T08:08:13.514Z</time></trkpt><trkpt lat="44.8179739" lon="9.0963433"><ele>676.0</ele><time>2026-05-03T08:08:15.516Z</time></trkpt><trkpt lat="44.8179582" lon="9.0964421"><ele>676.0</ele><time>2026-05-03T08:08:17.515Z</time></trkpt><trkpt lat="44.8179209" lon="9.0965565"><ele>676.0</ele><time>2026-05-03T08:08:20.517Z</time></trkpt><trkpt lat="44.8178671" lon="9.0966989"><ele>674.1999999999999</ele><time>2026-05-03T08:08:22.515Z</time></trkpt><trkpt lat="44.8177693" lon="9.0968315"><ele>672.4</ele><time>2026-05-03T08:08:24.515Z</time></trkpt><trkpt lat="44.8176943" lon="9.0968995"><ele>670.6</ele><time>2026-05-03T08:08:25.517Z</time></trkpt><trkpt lat="44.8176254" lon="9.096973"><ele>668.8</ele><time>2026-05-03T08:08:26.517Z</time></trkpt><trkpt lat="44.8175645" lon="9.0970386"><ele>667.0</ele><time>2026-05-03T08:08:27.516Z</time></trkpt><trkpt lat="44.8175081" lon="9.0970928"><ele>664.8</ele><time>2026-05-03T08:08:28.515Z</time></trkpt><trkpt lat="44.8174306" lon="9.0971761"><ele>662.6</ele><time>2026-05-03T08:08:30.515Z</time></trkpt><trkpt lat="44.8173994" lon="9.0973559"><ele>660.4</ele><time>2026-05-03T08:08:32.513Z</time></trkpt><trkpt lat="44.8174003" lon="9.0974757"><ele>658.1999999999999</ele><time>2026-05-03T08:08:33.516Z</time></trkpt><trkpt lat="44.8173801" lon="9.097592"><ele>656.0</ele><time>2026-05-03T08:08:34.519Z</time></trkpt><trkpt lat="44.8173361" lon="9.0976674"><ele>655.1666666666666</ele><time>2026-05-03T08:08:35.52Z</time></trkpt><trkpt lat="44.8172749" lon="9.0977202"><ele>654.3333333333333</ele><time>2026-05-03T08:08:36.517Z</time></trkpt><trkpt lat="44.817185" lon="9.0977791"><ele>653.5</ele><time>2026-05-03T08:08:38.192Z</time></trkpt><trkpt lat="44.8171239" lon="9.0978202"><ele>652.6666666666666</ele><time>2026-05-03T08:08:39.196Z</time></trkpt><trkpt lat="44.8170706" lon="9.0978718"><ele>651.8333333333334</ele><time>2026-05-03T08:08:40.195Z</time></trkpt><trkpt lat="44.8169994" lon="9.0979039"><ele>651.0</ele><time>2026-05-03T08:08:41.19Z</time></trkpt><trkpt lat="44.8169242" lon="9.0979084"><ele>651.0</ele><time>2026-05-03T08:08:42.192Z</time></trkpt><trkpt lat="44.8168499" lon="9.0979191"><ele>651.0</ele><time>2026-05-03T08:08:43.191Z</time></trkpt><trkpt lat="44.8167476" lon="9.0979349"><ele>651.0</ele><time>2026-05-03T08:08:44.191Z</time></trkpt><trkpt lat="44.8166771" lon="9.0979639"><ele>651.0</ele><time>2026-05-03T08:08:45.192Z</time></trkpt><trkpt lat="44.8166171" lon="9.0980016"><ele>651.0</ele><time>2026-05-03T08:08:46.196Z</time></trkpt><trkpt lat="44.816551" lon="9.0980729"><ele>651.0</ele><time>2026-05-03T08:08:47.187Z</time></trkpt><trkpt lat="44.8164865" lon="9.0981476"><ele>648.0</ele><time>2026-05-03T08:08:48.192Z</time></trkpt><trkpt lat="44.8164112" lon="9.0982377"><ele>645.0</ele><time>2026-05-03T08:08:49.189Z</time></trkpt><trkpt lat="44.8163335" lon="9.0983264"><ele>642.0</ele><time>2026-05-03T08:08:50.186Z</time></trkpt><trkpt lat="44.8162546" lon="9.098403"><ele>639.0</ele><time>2026-05-03T08:08:51.183Z</time></trkpt><trkpt lat="44.8161738" lon="9.0984745"><ele>636.0</ele><time>2026-05-03T08:08:52.19Z</time></trkpt><trkpt lat="44.8160963" lon="9.0985485"><ele>634.8</ele><time>2026-05-03T08:08:53.187Z</time></trkpt><trkpt lat="44.8160202" lon="9.0986527"><ele>633.6</ele><time>2026-05-03T08:08:54.192Z</time></trkpt><trkpt lat="44.8159426" lon="9.0987745"><ele>632.4</ele><time>2026-05-03T08:08:55.185Z</time></trkpt><trkpt lat="44.8158693" lon="9.0988734"><ele>631.2</ele><time>2026-05-03T08:08:56.187Z</time></trkpt><trkpt lat="44.8157887" lon="9.0989615"><ele>630.0</ele><time>2026-05-03T08:08:57.188Z</time></trkpt><trkpt lat="44.8156843" lon="9.0990641"><ele>627.4</ele><time>2026-05-03T08:08:58.194Z</time></trkpt><trkpt lat="44.8155945" lon="9.09916"><ele>624.8</ele><time>2026-05-03T08:08:59.204Z</time></trkpt><trkpt lat="44.8155268" lon="9.0992234"><ele>622.2</ele><time>2026-05-03T08:09:00.193Z</time></trkpt><trkpt lat="44.815469" lon="9.0992877"><ele>619.6</ele><time>2026-05-03T08:09:01.198Z</time></trkpt><trkpt lat="44.8153987" lon="9.0993258"><ele>617.0</ele><time>2026-05-03T08:09:23.193Z</time></trkpt><trkpt lat="44.8152878" lon="9.0993291"><ele>617.0</ele><time>2026-05-03T08:09:25.19Z</time></trkpt><trkpt lat="44.8152112" lon="9.0993518"><ele>617.0</ele><time>2026-05-03T08:09:26.198Z</time></trkpt><trkpt lat="44.8151343" lon="9.0993444"><ele>617.0</ele><time>2026-05-03T08:09:27.204Z</time></trkpt><trkpt lat="44.8150555" lon="9.0993224"><ele>617.0</ele><time>2026-05-03T08:09:28.198Z</time></trkpt><trkpt lat="44.8149723" lon="9.0992883"><ele>617.0</ele><time>2026-05-03T08:09:29.191Z</time></trkpt><trkpt lat="44.8149034" lon="9.0992649"><ele>617.0</ele><time>2026-05-03T08:09:30.193Z</time></trkpt><trkpt lat="44.814797" lon="9.0993097"><ele>615.0</ele><time>2026-05-03T08:09:32.189Z</time></trkpt><trkpt lat="44.8147466" lon="9.0993715"><ele>613.0</ele><time>2026-05-03T08:09:33.189Z</time></trkpt><trkpt lat="44.8146853" lon="9.0994287"><ele>611.0</ele><time>2026-05-03T08:09:34.195Z</time></trkpt><trkpt lat="44.8146222" lon="9.0994862"><ele>609.0</ele><time>2026-05-03T08:09:35.205Z</time></trkpt><trkpt lat="44.8145431" lon="9.099536"><ele>607.0</ele><time>2026-05-03T08:09:36.198Z</time></trkpt><trkpt lat="44.8144152" lon="9.099512"><ele>605.0</ele><time>2026-05-03T08:09:37.191Z</time></trkpt><trkpt lat="44.8143345" lon="9.0994754"><ele>600.4</ele><time>2026-05-03T08:09:38.192Z</time></trkpt><trkpt lat="44.8142617" lon="9.0994753"><ele>595.8</ele><time>2026-05-03T08:09:39.199Z</time></trkpt><trkpt lat="44.8141486" lon="9.0993657"><ele>591.2</ele><time>2026-05-03T08:09:41.189Z</time></trkpt><trkpt lat="44.8140763" lon="9.0993482"><ele>586.6</ele><time>2026-05-03T08:09:42.19Z</time></trkpt><trkpt lat="44.8139996" lon="9.0993799"><ele>582.0</ele><time>2026-05-03T08:09:43.19Z</time></trkpt><trkpt lat="44.8139082" lon="9.0994427"><ele>582.0</ele><time>2026-05-03T08:09:45.186Z</time></trkpt><trkpt lat="44.8138462" lon="9.0995524"><ele>582.0</ele><time>2026-05-03T08:09:47.192Z</time></trkpt><trkpt lat="44.8138159" lon="9.0996893"><ele>582.0</ele><time>2026-05-03T08:09:49.195Z</time></trkpt><trkpt lat="44.8137962" lon="9.0998343"><ele>582.0</ele><time>2026-05-03T08:09:51.202Z</time></trkpt><trkpt lat="44.8137283" lon="9.0999209"><ele>582.0</ele><time>2026-05-03T08:09:53.201Z</time></trkpt><trkpt lat="44.8136513" lon="9.0999638"><ele>582.8333333333334</ele><time>2026-05-03T08:09:54.193Z</time></trkpt><trkpt lat="44.8135644" lon="9.1000049"><ele>583.6666666666666</ele><time>2026-05-03T08:09:55.189Z</time></trkpt><trkpt lat="44.8134998" lon="9.1000508"><ele>584.5</ele><time>2026-05-03T08:09:56.187Z</time></trkpt><trkpt lat="44.8134422" lon="9.10012"><ele>585.3333333333333</ele><time>2026-05-03T08:09:57.191Z</time></trkpt><trkpt lat="44.8133924" lon="9.1001949"><ele>586.1666666666666</ele><time>2026-05-03T08:09:58.186Z</time></trkpt><trkpt lat="44.8133172" lon="9.1002538"><ele>587.0</ele><time>2026-05-03T08:09:59.189Z</time></trkpt><trkpt lat="44.8132499" lon="9.1002793"><ele>582.0</ele><time>2026-05-03T08:10:00.196Z</time></trkpt><trkpt lat="44.8131602" lon="9.1003222"><ele>577.0</ele><time>2026-05-03T08:10:02.187Z</time></trkpt><trkpt lat="44.8130739" lon="9.1004305"><ele>572.0</ele><time>2026-05-03T08:10:04.199Z</time></trkpt><trkpt lat="44.8130013" lon="9.100462"><ele>567.0</ele><time>2026-05-03T08:10:06.193Z</time></trkpt><trkpt lat="44.812955" lon="9.1005336"><ele>562.0</ele><time>2026-05-03T08:10:08.187Z</time></trkpt><trkpt lat="44.8129723" lon="9.1006281"><ele>557.0</ele><time>2026-05-03T08:10:10.185Z</time></trkpt><trkpt lat="44.8129929" lon="9.1007302"><ele>556.4</ele><time>2026-05-03T08:10:14.189Z</time></trkpt><trkpt lat="44.8129762" lon="9.100817"><ele>555.8000000000001</ele><time>2026-05-03T08:10:15.187Z</time></trkpt><trkpt lat="44.8129588" lon="9.1010193"><ele>555.2</ele><time>2026-05-03T08:10:16.185Z</time></trkpt><trkpt lat="44.8128591" lon="9.1011154"><ele>554.6</ele><time>2026-05-03T08:10:18.185Z</time></trkpt><trkpt lat="44.8127925" lon="9.1011746"><ele>554.0</ele><time>2026-05-03T08:10:19.198Z</time></trkpt><trkpt lat="44.8127287" lon="9.1013278"><ele>554.0</ele><time>2026-05-03T08:10:21.186Z</time></trkpt><trkpt lat="44.8126762" lon="9.1014443"><ele>554.0</ele><time>2026-05-03T08:10:23.185Z</time></trkpt><trkpt lat="44.8126112" lon="9.1014935"><ele>554.0</ele><time>2026-05-03T08:10:24.192Z</time></trkpt><trkpt lat="44.8125491" lon="9.1015489"><ele>554.0</ele><time>2026-05-03T08:10:25.192Z</time></trkpt><trkpt lat="44.8124564" lon="9.1017205"><ele>554.0</ele><time>2026-05-03T08:10:27.188Z</time></trkpt><trkpt lat="44.8124046" lon="9.101812"><ele>550.5</ele><time>2026-05-03T08:10:28.19Z</time></trkpt><trkpt lat="44.8123343" lon="9.1019042"><ele>547.0</ele><time>2026-05-03T08:10:29.193Z</time></trkpt><trkpt lat="44.8122805" lon="9.1019771"><ele>543.5</ele><time>2026-05-03T08:10:30.188Z</time></trkpt><trkpt lat="44.8122448" lon="9.1020591"><ele>540.0</ele><time>2026-05-03T08:10:31.193Z</time></trkpt><trkpt lat="44.8121801" lon="9.1021825"><ele>536.5</ele><time>2026-05-03T08:10:33.189Z</time></trkpt><trkpt lat="44.8121366" lon="9.1022499"><ele>533.0</ele><time>2026-05-03T08:10:34.192Z</time></trkpt><trkpt lat="44.812092" lon="9.1023248"><ele>531.0</ele><time>2026-05-03T08:10:35.193Z</time></trkpt><trkpt lat="44.8120416" lon="9.1024186"><ele>529.0</ele><time>2026-05-03T08:10:36.189Z</time></trkpt><trkpt lat="44.8119852" lon="9.1025539"><ele>527.0</ele><time>2026-05-03T08:10:37.2Z</time></trkpt><trkpt lat="44.8119445" lon="9.1026673"><ele>525.0</ele><time>2026-05-03T08:10:38.186Z</time></trkpt><trkpt lat="44.8119113" lon="9.1027576"><ele>523.0</ele><time>2026-05-03T08:10:39.196Z</time></trkpt><trkpt lat="44.8118166" lon="9.1028598"><ele>520.0</ele><time>2026-05-03T08:10:41.193Z</time></trkpt><trkpt lat="44.8117615" lon="9.1027787"><ele>517.0</ele><time>2026-05-03T08:10:42.189Z</time></trkpt><trkpt lat="44.8117071" lon="9.1027311"><ele>514.0</ele><time>2026-05-03T08:10:43.196Z</time></trkpt><trkpt lat="44.8116529" lon="9.1026597"><ele>511.0</ele><time>2026-05-03T08:10:44.206Z</time></trkpt><trkpt lat="44.8115596" lon="9.1025991"><ele>508.00000000000006</ele><time>2026-05-03T08:10:46.191Z</time></trkpt><trkpt lat="44.8114606" lon="9.1027041"><ele>505.0</ele><time>2026-05-03T08:10:48.189Z</time></trkpt><trkpt lat="44.8113656" lon="9.1027847"><ele>505.0</ele><time>2026-05-03T08:10:50.192Z</time></trkpt><trkpt lat="44.811295" lon="9.1028301"><ele>505.0</ele><time>2026-05-03T08:10:52.186Z</time></trkpt><trkpt lat="44.8112081" lon="9.10286"><ele>505.0</ele><time>2026-05-03T08:10:54.185Z</time></trkpt><trkpt lat="44.8111191" lon="9.1028238"><ele>505.0</ele><time>2026-05-03T08:10:57.184Z</time></trkpt><trkpt lat="44.8110511" lon="9.1027726"><ele>505.0</ele><time>2026-05-03T08:10:59.193Z</time></trkpt><trkpt lat="44.810916" lon="9.1026677"><ele>497.5</ele><time>2026-05-03T08:11:00.199Z</time></trkpt><trkpt lat="44.810496" lon="9.1026373"><ele>490.0</ele><time>2026-05-03T08:11:01.19Z</time></trkpt><trkpt lat="44.8104173" lon="9.1025862"><ele>490.0</ele><time>2026-05-03T08:11:02.188Z</time></trkpt><trkpt lat="44.8103216" lon="9.1025557"><ele>490.0</ele><time>2026-05-03T08:11:03.18Z</time></trkpt><trkpt lat="44.810215" lon="9.1025555"><ele>490.0</ele><time>2026-05-03T08:11:04.188Z</time></trkpt><trkpt lat="44.8101534" lon="9.102519"><ele>490.0</ele><time>2026-05-03T08:11:05.191Z</time></trkpt><trkpt lat="44.8100651" lon="9.1024424"><ele>490.0</ele><time>2026-05-03T08:11:06.19Z</time></trkpt><trkpt lat="44.8099574" lon="9.1024012"><ele>487.6666666666667</ele><time>2026-05-03T08:11:07.188Z</time></trkpt><trkpt lat="44.8098763" lon="9.1023993"><ele>485.33333333333337</ele><time>2026-05-03T08:11:08.186Z</time></trkpt><trkpt lat="44.8098002" lon="9.1023773"><ele>483.0</ele><time>2026-05-03T08:11:09.187Z</time></trkpt><trkpt lat="44.8097624" lon="9.102302"><ele>480.66666666666663</ele><time>2026-05-03T08:11:10.185Z</time></trkpt><trkpt lat="44.8097153" lon="9.102165"><ele>478.3333333333333</ele><time>2026-05-03T08:11:11.189Z</time></trkpt><trkpt lat="44.8096991" lon="9.1020598"><ele>476.0</ele><time>2026-05-03T08:11:12.185Z</time></trkpt><trkpt lat="44.8096737" lon="9.1019753"><ele>476.0</ele><time>2026-05-03T08:11:14.192Z</time></trkpt><trkpt lat="44.809605" lon="9.1019649"><ele>476.0</ele><time>2026-05-03T08:11:15.185Z</time></trkpt><trkpt lat="44.8094906" lon="9.1019144"><ele>476.0</ele><time>2026-05-03T08:11:17.188Z</time></trkpt><trkpt lat="44.80945" lon="9.101809"><ele>476.0</ele><time>2026-05-03T08:11:19.187Z</time></trkpt><trkpt lat="44.8094665" lon="9.1016707"><ele>476.0</ele><time>2026-05-03T08:11:21.186Z</time></trkpt><trkpt lat="44.809374" lon="9.1016232"><ele>469.4</ele><time>2026-05-03T08:11:23.187Z</time></trkpt><trkpt lat="44.8092395" lon="9.1016712"><ele>462.8</ele><time>2026-05-03T08:11:25.184Z</time></trkpt><trkpt lat="44.8091721" lon="9.1016767"><ele>456.19999999999993</ele><time>2026-05-03T08:11:26.196Z</time></trkpt><trkpt lat="44.8091144" lon="9.1015944"><ele>449.59999999999997</ele><time>2026-05-03T08:11:27.196Z</time></trkpt><trkpt lat="44.8090656" lon="9.1014972"><ele>443.0</ele><time>2026-05-03T08:11:28.188Z</time></trkpt><trkpt lat="44.8089963" lon="9.1014148"><ele>442.49999999999994</ele><time>2026-05-03T08:11:29.187Z</time></trkpt><trkpt lat="44.8089461" lon="9.1013395"><ele>442.0</ele><time>2026-05-03T08:11:30.194Z</time></trkpt><trkpt lat="44.8088928" lon="9.1012907"><ele>441.5</ele><time>2026-05-03T08:11:31.194Z</time></trkpt><trkpt lat="44.808835" lon="9.1012533"><ele>441.0</ele><time>2026-05-03T08:11:32.196Z</time></trkpt><trkpt lat="44.8088144" lon="9.1011485"><ele>440.49999999999994</ele><time>2026-05-03T08:11:34.197Z</time></trkpt><trkpt lat="44.808834" lon="9.1010575"><ele>440.0</ele><time>2026-05-03T08:11:35.192Z</time></trkpt><trkpt lat="44.8088742" lon="9.1009165"><ele>439.99999999999994</ele><time>2026-05-03T08:11:36.187Z</time></trkpt><trkpt lat="44.8088859" lon="9.1007971"><ele>440.0</ele><time>2026-05-03T08:11:37.198Z</time></trkpt><trkpt lat="44.8088762" lon="9.1006935"><ele>440.0</ele><time>2026-05-03T08:11:38.188Z</time></trkpt><trkpt lat="44.8087856" lon="9.100599"><ele>440.0</ele><time>2026-05-03T08:11:40.191Z</time></trkpt><trkpt lat="44.8087329" lon="9.1004843"><ele>439.99999999999994</ele><time>2026-05-03T08:11:42.186Z</time></trkpt><trkpt lat="44.8086577" lon="9.1004502"><ele>440.0</ele><time>2026-05-03T08:11:44.195Z</time></trkpt><trkpt lat="44.8085733" lon="9.1004659"><ele>439.6</ele><time>2026-05-03T08:11:45.181Z</time></trkpt><trkpt lat="44.808467" lon="9.1004554"><ele>439.2</ele><time>2026-05-03T08:11:46.194Z</time></trkpt><trkpt lat="44.8083743" lon="9.100448"><ele>438.79999999999995</ele><time>2026-05-03T08:11:47.186Z</time></trkpt><trkpt lat="44.8082999" lon="9.1004654"><ele>438.4</ele><time>2026-05-03T08:11:48.185Z</time></trkpt><trkpt lat="44.8082231" lon="9.100483"><ele>438.0</ele><time>2026-05-03T08:11:49.19Z</time></trkpt><trkpt lat="44.8081148" lon="9.1005219"><ele>438.0</ele><time>2026-05-03T08:11:50.185Z</time></trkpt><trkpt lat="44.8080279" lon="9.1005404"><ele>438.0</ele><time>2026-05-03T08:11:51.185Z</time></trkpt><trkpt lat="44.8079636" lon="9.1005262"><ele>438.0</ele><time>2026-05-03T08:11:52.187Z</time></trkpt><trkpt lat="44.8078939" lon="9.1004946"><ele>438.0</ele><time>2026-05-03T08:11:53.185Z</time></trkpt><trkpt lat="44.8078053" lon="9.1004711"><ele>438.0</ele><time>2026-05-03T08:11:54.182Z</time></trkpt><trkpt lat="44.8077183" lon="9.1004791"><ele>438.0</ele><time>2026-05-03T08:11:55.182Z</time></trkpt><trkpt lat="44.8076318" lon="9.1004985"><ele>438.2</ele><time>2026-05-03T08:11:56.187Z</time></trkpt><trkpt lat="44.8075416" lon="9.1005137"><ele>438.4</ele><time>2026-05-03T08:11:57.196Z</time></trkpt><trkpt lat="44.8074263" lon="9.1004971"><ele>438.59999999999997</ele><time>2026-05-03T08:11:58.182Z</time></trkpt><trkpt lat="44.8073183" lon="9.1005108"><ele>438.79999999999995</ele><time>2026-05-03T08:11:59.182Z</time></trkpt><trkpt lat="44.8072085" lon="9.1005409"><ele>439.0</ele><time>2026-05-03T08:12:00.183Z</time></trkpt><trkpt lat="44.807123" lon="9.1005613"><ele>439.0</ele><time>2026-05-03T08:12:01.183Z</time></trkpt><trkpt lat="44.8070433" lon="9.100576"><ele>439.0</ele><time>2026-05-03T08:12:02.185Z</time></trkpt><trkpt lat="44.80692" lon="9.1004973"><ele>439.0</ele><time>2026-05-03T08:12:04.19Z</time></trkpt><trkpt lat="44.8068152" lon="9.1004108"><ele>439.0</ele><time>2026-05-03T08:12:05.189Z</time></trkpt><trkpt lat="44.8067291" lon="9.1003566"><ele>439.0</ele><time>2026-05-03T08:12:06.196Z</time></trkpt><trkpt lat="44.8066407" lon="9.1002997"><ele>439.0</ele><time>2026-05-03T08:12:07.193Z</time></trkpt><trkpt lat="44.8065386" lon="9.1002503"><ele>439.0</ele><time>2026-05-03T08:12:08.188Z</time></trkpt><trkpt lat="44.806462" lon="9.1003807"><ele>439.0</ele><time>2026-05-03T08:12:09.186Z</time></trkpt><trkpt lat="44.8063879" lon="9.100393"><ele>439.0</ele><time>2026-05-03T08:12:10.185Z</time></trkpt><trkpt lat="44.8063192" lon="9.1004217"><ele>439.0</ele><time>2026-05-03T08:12:11.183Z</time></trkpt><trkpt lat="44.8062375" lon="9.1003818"><ele>439.00000000000006</ele><time>2026-05-03T08:12:12.181Z</time></trkpt><trkpt lat="44.8061666" lon="9.1003194"><ele>439.0</ele><time>2026-05-03T08:12:13.184Z</time></trkpt><trkpt lat="44.806081" lon="9.1002679"><ele>439.0</ele><time>2026-05-03T08:12:14.187Z</time></trkpt><trkpt lat="44.8060369" lon="9.1001698"><ele>439.0</ele><time>2026-05-03T08:12:15.193Z</time></trkpt><trkpt lat="44.8059939" lon="9.1000518"><ele>439.00000000000006</ele><time>2026-05-03T08:12:16.19Z</time></trkpt><trkpt lat="44.8059519" lon="9.0999604"><ele>439.0</ele><time>2026-05-03T08:12:17.187Z</time></trkpt><trkpt lat="44.805867" lon="9.0998847"><ele>438.4</ele><time>2026-05-03T08:12:18.19Z</time></trkpt><trkpt lat="44.8057826" lon="9.0997772"><ele>437.79999999999995</ele><time>2026-05-03T08:12:19.204Z</time></trkpt><trkpt lat="44.805672" lon="9.0996996"><ele>437.20000000000005</ele><time>2026-05-03T08:12:20.197Z</time></trkpt><trkpt lat="44.8055838" lon="9.099636"><ele>436.6</ele><time>2026-05-03T08:12:21.195Z</time></trkpt><trkpt lat="44.80552" lon="9.0995669"><ele>436.0</ele><time>2026-05-03T08:12:22.189Z</time></trkpt><trkpt lat="44.8054411" lon="9.0994496"><ele>436.0</ele><time>2026-05-03T08:12:23.189Z</time></trkpt><trkpt lat="44.8053951" lon="9.0993138"><ele>436.0</ele><time>2026-05-03T08:12:24.191Z</time></trkpt><trkpt lat="44.8053351" lon="9.0991765"><ele>436.0</ele><time>2026-05-03T08:12:25.191Z</time></trkpt><trkpt lat="44.8052542" lon="9.0990753"><ele>436.0</ele><time>2026-05-03T08:12:26.182Z</time></trkpt><trkpt lat="44.8051776" lon="9.0989847"><ele>436.0</ele><time>2026-05-03T08:12:27.189Z</time></trkpt><trkpt lat="44.8051081" lon="9.0988854"><ele>433.20000000000005</ele><time>2026-05-03T08:12:28.199Z</time></trkpt><trkpt lat="44.8050498" lon="9.0987465"><ele>430.40000000000003</ele><time>2026-05-03T08:12:29.186Z</time></trkpt><trkpt lat="44.804978" lon="9.0986672"><ele>427.6</ele><time>2026-05-03T08:12:30.188Z</time></trkpt><trkpt lat="44.8049251" lon="9.09859"><ele>424.8</ele><time>2026-05-03T08:12:31.186Z</time></trkpt><trkpt lat="44.8048895" lon="9.098507"><ele>422.0</ele><time>2026-05-03T08:12:32.184Z</time></trkpt><trkpt lat="44.8048374" lon="9.0983731"><ele>422.0</ele><time>2026-05-03T08:12:34.182Z</time></trkpt><trkpt lat="44.8046797" lon="9.0983952"><ele>422.0</ele><time>2026-05-03T08:12:35.186Z</time></trkpt><trkpt lat="44.8046223" lon="9.098343"><ele>422.0</ele><time>2026-05-03T08:12:36.191Z</time></trkpt><trkpt lat="44.8045468" lon="9.0982571"><ele>422.0</ele><time>2026-05-03T08:12:37.201Z</time></trkpt><trkpt lat="44.8044833" lon="9.0981994"><ele>422.0</ele><time>2026-05-03T08:12:38.194Z</time></trkpt><trkpt lat="44.8043873" lon="9.0980756"><ele>419.8</ele><time>2026-05-03T08:12:40.19Z</time></trkpt><trkpt lat="44.8043133" lon="9.0979664"><ele>417.6</ele><time>2026-05-03T08:12:41.189Z</time></trkpt><trkpt lat="44.8042238" lon="9.0978654"><ele>415.40000000000003</ele><time>2026-05-03T08:12:42.189Z</time></trkpt><trkpt lat="44.8041419" lon="9.0977745"><ele>413.20000000000005</ele><time>2026-05-03T08:12:43.181Z</time></trkpt><trkpt lat="44.8040898" lon="9.0977124"><ele>411.0</ele><time>2026-05-03T08:12:44.194Z</time></trkpt><trkpt lat="44.804049" lon="9.0976391"><ele>411.0</ele><time>2026-05-03T08:12:45.187Z</time></trkpt><trkpt lat="44.8040351" lon="9.0975457"><ele>411.0</ele><time>2026-05-03T08:12:46.183Z</time></trkpt><trkpt lat="44.8039814" lon="9.0974337"><ele>411.0</ele><time>2026-05-03T08:12:48.186Z</time></trkpt><trkpt lat="44.8039272" lon="9.0973744"><ele>411.0</ele><time>2026-05-03T08:12:49.186Z</time></trkpt><trkpt lat="44.8038678" lon="9.0973035"><ele>411.0</ele><time>2026-05-03T08:12:50.186Z</time></trkpt><trkpt lat="44.8037776" lon="9.097269"><ele>411.0</ele><time>2026-05-03T08:12:51.187Z</time></trkpt><trkpt lat="44.8036759" lon="9.0971888"><ele>410.6</ele><time>2026-05-03T08:12:53.187Z</time></trkpt><trkpt lat="44.8036083" lon="9.0970737"><ele>410.20000000000005</ele><time>2026-05-03T08:12:55.186Z</time></trkpt><trkpt lat="44.8036114" lon="9.0969298"><ele>409.79999999999995</ele><time>2026-05-03T08:12:57.184Z</time></trkpt><trkpt lat="44.8035889" lon="9.0968146"><ele>409.4</ele><time>2026-05-03T08:12:59.19Z</time></trkpt><trkpt lat="44.8035562" lon="9.0967338"><ele>409.0</ele><time>2026-05-03T08:13:02.183Z</time></trkpt><trkpt lat="44.8034711" lon="9.0966067"><ele>407.75</ele><time>2026-05-03T08:13:04.182Z</time></trkpt><trkpt lat="44.8032804" lon="9.0963451"><ele>406.5</ele><time>2026-05-03T08:13:05.182Z</time></trkpt><trkpt lat="44.8032229" lon="9.096263"><ele>405.25</ele><time>2026-05-03T08:13:06.18Z</time></trkpt><trkpt lat="44.8031832" lon="9.0961561"><ele>404.0</ele><time>2026-05-03T08:13:07.184Z</time></trkpt><trkpt lat="44.8031268" lon="9.0960281"><ele>403.99999999999994</ele><time>2026-05-03T08:13:08.189Z</time></trkpt><trkpt lat="44.8030642" lon="9.0959598"><ele>404.0</ele><time>2026-05-03T08:13:09.193Z</time></trkpt><trkpt lat="44.8030612" lon="9.0958636"><ele>404.0</ele><time>2026-05-03T08:13:10.195Z</time></trkpt><trkpt lat="44.8030614" lon="9.0957537"><ele>404.0</ele><time>2026-05-03T08:13:11.189Z</time></trkpt><trkpt lat="44.8030855" lon="9.0956432"><ele>403.99999999999994</ele><time>2026-05-03T08:13:13.183Z</time></trkpt><trkpt lat="44.8031288" lon="9.0955374"><ele>404.0</ele><time>2026-05-03T08:17:51.187Z</time></trkpt><trkpt lat="44.8031019" lon="9.0954277"><ele>403.3333333333333</ele><time>2026-05-03T08:17:55.188Z</time></trkpt><trkpt lat="44.8030055" lon="9.0954228"><ele>402.66666666666663</ele><time>2026-05-03T08:17:58.183Z</time></trkpt><trkpt lat="44.8029218" lon="9.0954274"><ele>402.0</ele><time>2026-05-03T08:18:00.187Z</time></trkpt><trkpt lat="44.802869" lon="9.0953506"><ele>401.33333333333337</ele><time>2026-05-03T08:21:26.203Z</time></trkpt><trkpt lat="44.8028451" lon="9.0952533"><ele>400.6666666666667</ele><time>2026-05-03T08:21:27.197Z</time></trkpt><trkpt lat="44.8028155" lon="9.0951635"><ele>400.0</ele><time>2026-05-03T08:21:28.187Z</time></trkpt><trkpt lat="44.8027774" lon="9.0950508"><ele>399.25</ele><time>2026-05-03T08:21:29.201Z</time></trkpt><trkpt lat="44.8027237" lon="9.094914"><ele>398.5</ele><time>2026-05-03T08:21:30.184Z</time></trkpt><trkpt lat="44.8026658" lon="9.0947614"><ele>397.75</ele><time>2026-05-03T08:21:31.182Z</time></trkpt><trkpt lat="44.8026009" lon="9.0946035"><ele>397.0</ele><time>2026-05-03T08:21:32.189Z</time></trkpt><trkpt lat="44.8025445" lon="9.0944572"><ele>396.0</ele><time>2026-05-03T08:21:33.192Z</time></trkpt><trkpt lat="44.8024828" lon="9.0943248"><ele>395.0</ele><time>2026-05-03T08:21:34.183Z</time></trkpt><trkpt lat="44.8024132" lon="9.0942132"><ele>394.0</ele><time>2026-05-03T08:21:35.181Z</time></trkpt><trkpt lat="44.8023252" lon="9.0941138"><ele>393.0</ele><time>2026-05-03T08:21:36.185Z</time></trkpt><trkpt lat="44.8022268" lon="9.094026"><ele>392.0</ele><time>2026-05-03T08:21:37.186Z</time></trkpt><trkpt lat="44.8021281" lon="9.0939384"><ele>391.25</ele><time>2026-05-03T08:21:38.187Z</time></trkpt><trkpt lat="44.8020222" lon="9.0938407"><ele>390.5</ele><time>2026-05-03T08:21:39.184Z</time></trkpt><trkpt lat="44.8019214" lon="9.0937345"><ele>389.75</ele><time>2026-05-03T08:21:40.189Z</time></trkpt><trkpt lat="44.8018283" lon="9.0936224"><ele>389.0</ele><time>2026-05-03T08:21:41.186Z</time></trkpt><trkpt lat="44.8017372" lon="9.0935079"><ele>388.0</ele><time>2026-05-03T08:21:42.188Z</time></trkpt><trkpt lat="44.8016462" lon="9.0934134"><ele>387.0</ele><time>2026-05-03T08:21:43.185Z</time></trkpt><trkpt lat="44.801555" lon="9.0933542"><ele>386.0</ele><time>2026-05-03T08:21:44.183Z</time></trkpt><trkpt lat="44.8014436" lon="9.093306"><ele>385.0</ele><time>2026-05-03T08:21:45.188Z</time></trkpt><trkpt lat="44.8013145" lon="9.0932827"><ele>385.0</ele><time>2026-05-03T08:21:46.186Z</time></trkpt><trkpt lat="44.801181" lon="9.0932584"><ele>385.0</ele><time>2026-05-03T08:21:47.187Z</time></trkpt><trkpt lat="44.8010533" lon="9.0932234"><ele>385.0</ele><time>2026-05-03T08:21:48.188Z</time></trkpt><trkpt lat="44.8009232" lon="9.0931766"><ele>385.0</ele><time>2026-05-03T08:21:49.186Z</time></trkpt><trkpt lat="44.8007897" lon="9.0931315"><ele>383.25</ele><time>2026-05-03T08:21:50.192Z</time></trkpt><trkpt lat="44.8006648" lon="9.0930759"><ele>381.5</ele><time>2026-05-03T08:21:51.189Z</time></trkpt><trkpt lat="44.8005348" lon="9.0930236"><ele>379.75</ele><time>2026-05-03T08:21:52.181Z</time></trkpt><trkpt lat="44.8004213" lon="9.0929698"><ele>378.0</ele><time>2026-05-03T08:21:53.188Z</time></trkpt><trkpt lat="44.800316" lon="9.092926"><ele>378.0</ele><time>2026-05-03T08:21:54.185Z</time></trkpt><trkpt lat="44.800211" lon="9.0929066"><ele>378.0</ele><time>2026-05-03T08:21:55.185Z</time></trkpt><trkpt lat="44.8000984" lon="9.0928986"><ele>378.0</ele><time>2026-05-03T08:21:56.187Z</time></trkpt><trkpt lat="44.7999803" lon="9.0929204"><ele>378.0</ele><time>2026-05-03T08:21:57.183Z</time></trkpt><trkpt lat="44.7998734" lon="9.0929572"><ele>378.0</ele><time>2026-05-03T08:21:58.191Z</time></trkpt><trkpt lat="44.7997772" lon="9.0929975"><ele>377.2</ele><time>2026-05-03T08:21:59.186Z</time></trkpt><trkpt lat="44.7996851" lon="9.0930344"><ele>376.4</ele><time>2026-05-03T08:22:00.19Z</time></trkpt><trkpt lat="44.7995846" lon="9.0930875"><ele>375.59999999999997</ele><time>2026-05-03T08:22:02.19Z</time></trkpt><trkpt lat="44.799509" lon="9.0931326"><ele>374.79999999999995</ele><time>2026-05-03T08:22:04.185Z</time></trkpt><trkpt lat="44.799367" lon="9.0931702"><ele>374.0</ele><time>2026-05-03T08:22:06.185Z</time></trkpt><trkpt lat="44.7992732" lon="9.0931921"><ele>373.33333333333337</ele><time>2026-05-03T08:22:07.189Z</time></trkpt><trkpt lat="44.7991817" lon="9.0932247"><ele>372.6666666666667</ele><time>2026-05-03T08:22:08.184Z</time></trkpt><trkpt lat="44.7990987" lon="9.0932642"><ele>372.0</ele><time>2026-05-03T08:22:09.183Z</time></trkpt><trkpt lat="44.7990222" lon="9.0932869"><ele>371.3333333333333</ele><time>2026-05-03T08:22:10.183Z</time></trkpt><trkpt lat="44.7989493" lon="9.0932976"><ele>370.66666666666663</ele><time>2026-05-03T08:22:11.184Z</time></trkpt><trkpt lat="44.7988826" lon="9.0933071"><ele>370.0</ele><time>2026-05-03T08:22:12.182Z</time></trkpt><trkpt lat="44.7988172" lon="9.093309"><ele>370.0</ele><time>2026-05-03T08:22:13.189Z</time></trkpt><trkpt lat="44.7987138" lon="9.0932923"><ele>370.0</ele><time>2026-05-03T08:22:15.181Z</time></trkpt><trkpt lat="44.798606" lon="9.0932542"><ele>370.0</ele><time>2026-05-03T08:22:17.19Z</time></trkpt><trkpt lat="44.7984972" lon="9.0932482"><ele>370.0</ele><time>2026-05-03T08:22:19.187Z</time></trkpt><trkpt lat="44.7984157" lon="9.0932193"><ele>370.0</ele><time>2026-05-03T08:22:21.183Z</time></trkpt><trkpt lat="44.7983037" lon="9.0931628"><ele>369.6</ele><time>2026-05-03T08:22:23.195Z</time></trkpt><trkpt lat="44.7981717" lon="9.0931717"><ele>369.2</ele><time>2026-05-03T08:22:25.186Z</time></trkpt><trkpt lat="44.7980945" lon="9.0931833"><ele>368.79999999999995</ele><time>2026-05-03T08:22:26.187Z</time></trkpt><trkpt lat="44.7980137" lon="9.0931874"><ele>368.4</ele><time>2026-05-03T08:22:28.186Z</time></trkpt><trkpt lat="44.7979684" lon="9.0931023"><ele>368.0</ele><time>2026-05-03T08:23:28.193Z</time></trkpt><trkpt lat="44.7978854" lon="9.0931952"><ele>368.75</ele><time>2026-05-03T08:24:27.185Z</time></trkpt><trkpt lat="44.7978013" lon="9.0932811"><ele>369.5</ele><time>2026-05-03T08:24:28.191Z</time></trkpt><trkpt lat="44.7977471" lon="9.0933461"><ele>370.25</ele><time>2026-05-03T08:24:29.186Z</time></trkpt><trkpt lat="44.7975639" lon="9.0935823"><ele>371.0</ele><time>2026-05-03T08:24:31.188Z</time></trkpt><trkpt lat="44.7974377" lon="9.0936081"><ele>372.1666666666667</ele><time>2026-05-03T08:24:33.184Z</time></trkpt><trkpt lat="44.7973374" lon="9.0936253"><ele>373.33333333333337</ele><time>2026-05-03T08:24:34.185Z</time></trkpt><trkpt lat="44.7972452" lon="9.0936526"><ele>374.5</ele><time>2026-05-03T08:24:35.192Z</time></trkpt><trkpt lat="44.7971583" lon="9.0936934"><ele>375.6666666666667</ele><time>2026-05-03T08:24:36.188Z</time></trkpt><trkpt lat="44.7970897" lon="9.0937371"><ele>376.8333333333333</ele><time>2026-05-03T08:24:37.188Z</time></trkpt><trkpt lat="44.7970388" lon="9.0938209"><ele>378.0</ele><time>2026-05-03T08:24:38.19Z</time></trkpt><trkpt lat="44.7969757" lon="9.0939044"><ele>378.0</ele><time>2026-05-03T08:24:39.185Z</time></trkpt><trkpt lat="44.7969019" lon="9.0940075"><ele>378.0</ele><time>2026-05-03T08:24:40.184Z</time></trkpt><trkpt lat="44.7967979" lon="9.0941054"><ele>378.0</ele><time>2026-05-03T08:24:41.182Z</time></trkpt><trkpt lat="44.7966867" lon="9.0942241"><ele>378.0</ele><time>2026-05-03T08:24:42.185Z</time></trkpt><trkpt lat="44.7965821" lon="9.0943518"><ele>379.0</ele><time>2026-05-03T08:24:43.184Z</time></trkpt><trkpt lat="44.7964864" lon="9.0944586"><ele>380.0</ele><time>2026-05-03T08:24:44.188Z</time></trkpt><trkpt lat="44.796396" lon="9.0945336"><ele>381.0</ele><time>2026-05-03T08:24:45.184Z</time></trkpt><trkpt lat="44.796294" lon="9.0945836"><ele>382.0</ele><time>2026-05-03T08:24:46.191Z</time></trkpt><trkpt lat="44.7961862" lon="9.0946368"><ele>383.0</ele><time>2026-05-03T08:24:47.197Z</time></trkpt><trkpt lat="44.7960749" lon="9.0946925"><ele>383.83333333333337</ele><time>2026-05-03T08:24:48.184Z</time></trkpt><trkpt lat="44.7959865" lon="9.09473"><ele>384.6666666666667</ele><time>2026-05-03T08:24:49.187Z</time></trkpt><trkpt lat="44.795903" lon="9.094766"><ele>385.5</ele><time>2026-05-03T08:24:50.182Z</time></trkpt><trkpt lat="44.795794" lon="9.0948004"><ele>386.33333333333337</ele><time>2026-05-03T08:24:52.187Z</time></trkpt><trkpt lat="44.7957337" lon="9.0947374"><ele>387.1666666666667</ele><time>2026-05-03T08:24:54.186Z</time></trkpt><trkpt lat="44.7957428" lon="9.0946221"><ele>388.0</ele><time>2026-05-03T08:24:55.191Z</time></trkpt><trkpt lat="44.7957293" lon="9.0944883"><ele>388.0</ele><time>2026-05-03T08:24:56.187Z</time></trkpt><trkpt lat="44.7957092" lon="9.0943262"><ele>388.0</ele><time>2026-05-03T08:24:57.19Z</time></trkpt><trkpt lat="44.7956809" lon="9.0941467"><ele>388.0</ele><time>2026-05-03T08:24:58.183Z</time></trkpt><trkpt lat="44.7956501" lon="9.0939643"><ele>388.0</ele><time>2026-05-03T08:24:59.184Z</time></trkpt><trkpt lat="44.795614" lon="9.0937772"><ele>387.75</ele><time>2026-05-03T08:25:00.181Z</time></trkpt><trkpt lat="44.7955802" lon="9.0935916"><ele>387.5</ele><time>2026-05-03T08:25:01.183Z</time></trkpt><trkpt lat="44.795543" lon="9.093407"><ele>387.25</ele><time>2026-05-03T08:25:02.187Z</time></trkpt><trkpt lat="44.7955072" lon="9.0932352"><ele>387.0</ele><time>2026-05-03T08:25:03.18Z</time></trkpt><trkpt lat="44.7954728" lon="9.0930706"><ele>386.0</ele><time>2026-05-03T08:25:04.181Z</time></trkpt><trkpt lat="44.7954396" lon="9.0929134"><ele>385.0</ele><time>2026-05-03T08:25:05.19Z</time></trkpt><trkpt lat="44.7954054" lon="9.0927523"><ele>384.0</ele><time>2026-05-03T08:25:06.188Z</time></trkpt><trkpt lat="44.7953691" lon="9.0925807"><ele>383.0</ele><time>2026-05-03T08:25:07.183Z</time></trkpt><trkpt lat="44.795334" lon="9.0924037"><ele>382.5</ele><time>2026-05-03T08:25:08.185Z</time></trkpt><trkpt lat="44.7952985" lon="9.0922298"><ele>382.0</ele><time>2026-05-03T08:25:09.181Z</time></trkpt><trkpt lat="44.7952679" lon="9.0920513"><ele>381.5</ele><time>2026-05-03T08:25:10.185Z</time></trkpt><trkpt lat="44.7952381" lon="9.0918815"><ele>381.0</ele><time>2026-05-03T08:25:11.182Z</time></trkpt><trkpt lat="44.7952063" lon="9.09171"><ele>381.25</ele><time>2026-05-03T08:25:12.18Z</time></trkpt><trkpt lat="44.7951735" lon="9.0915438"><ele>381.5</ele><time>2026-05-03T08:25:13.182Z</time></trkpt><trkpt lat="44.7951372" lon="9.091374"><ele>381.75</ele><time>2026-05-03T08:25:14.182Z</time></trkpt><trkpt lat="44.7951037" lon="9.0912024"><ele>382.0</ele><time>2026-05-03T08:25:15.182Z</time></trkpt><trkpt lat="44.7950735" lon="9.0910341"><ele>382.0</ele><time>2026-05-03T08:25:16.184Z</time></trkpt><trkpt lat="44.7950382" lon="9.0908739"><ele>382.0</ele><time>2026-05-03T08:25:17.182Z</time></trkpt><trkpt lat="44.7950114" lon="9.0907239"><ele>382.0</ele><time>2026-05-03T08:25:18.184Z</time></trkpt><trkpt lat="44.7949689" lon="9.0905801"><ele>382.0</ele><time>2026-05-03T08:25:19.184Z</time></trkpt><trkpt lat="44.7949436" lon="9.0904256"><ele>381.75</ele><time>2026-05-03T08:25:20.186Z</time></trkpt><trkpt lat="44.7949108" lon="9.0902666"><ele>381.5</ele><time>2026-05-03T08:25:21.186Z</time></trkpt><trkpt lat="44.7948858" lon="9.0901023"><ele>381.25</ele><time>2026-05-03T08:25:22.182Z</time></trkpt><trkpt lat="44.7948582" lon="9.089924"><ele>381.0</ele><time>2026-05-03T08:25:23.183Z</time></trkpt><trkpt lat="44.7948296" lon="9.0897373"><ele>379.5</ele><time>2026-05-03T08:25:24.181Z</time></trkpt><trkpt lat="44.7948002" lon="9.0895605"><ele>378.0</ele><time>2026-05-03T08:25:25.187Z</time></trkpt><trkpt lat="44.7947722" lon="9.0893935"><ele>376.5</ele><time>2026-05-03T08:25:26.179Z</time></trkpt><trkpt lat="44.7947445" lon="9.0892217"><ele>375.0</ele><time>2026-05-03T08:25:27.186Z</time></trkpt><trkpt lat="44.7947161" lon="9.0890405"><ele>374.5</ele><time>2026-05-03T08:25:28.187Z</time></trkpt><trkpt lat="44.7946857" lon="9.088852"><ele>374.0</ele><time>2026-05-03T08:25:29.186Z</time></trkpt><trkpt lat="44.7946586" lon="9.08867"><ele>373.5</ele><time>2026-05-03T08:25:30.183Z</time></trkpt><trkpt lat="44.7946289" lon="9.0884944"><ele>373.0</ele><time>2026-05-03T08:25:31.181Z</time></trkpt><trkpt lat="44.7945983" lon="9.0883219"><ele>372.5</ele><time>2026-05-03T08:25:32.184Z</time></trkpt><trkpt lat="44.7945663" lon="9.0881394"><ele>372.0</ele><time>2026-05-03T08:25:33.182Z</time></trkpt><trkpt lat="44.7945321" lon="9.0879524"><ele>371.5</ele><time>2026-05-03T08:25:34.19Z</time></trkpt><trkpt lat="44.7944991" lon="9.0877656"><ele>371.0</ele><time>2026-05-03T08:25:35.185Z</time></trkpt><trkpt lat="44.7944651" lon="9.0875813"><ele>371.0</ele><time>2026-05-03T08:25:36.183Z</time></trkpt><trkpt lat="44.794431" lon="9.0873954"><ele>371.0</ele><time>2026-05-03T08:25:37.193Z</time></trkpt><trkpt lat="44.7944055" lon="9.087206"><ele>371.0</ele><time>2026-05-03T08:25:38.181Z</time></trkpt><trkpt lat="44.7943825" lon="9.0870126"><ele>371.0</ele><time>2026-05-03T08:25:39.183Z</time></trkpt><trkpt lat="44.7943649" lon="9.0868179"><ele>371.0</ele><time>2026-05-03T08:25:40.18Z</time></trkpt><trkpt lat="44.7943486" lon="9.0866375"><ele>371.0</ele><time>2026-05-03T08:25:41.184Z</time></trkpt><trkpt lat="44.7943366" lon="9.0864615"><ele>371.0</ele><time>2026-05-03T08:25:42.183Z</time></trkpt><trkpt lat="44.7943239" lon="9.0862839"><ele>371.0</ele><time>2026-05-03T08:25:43.19Z</time></trkpt><trkpt lat="44.7943162" lon="9.0861033"><ele>372.25</ele><time>2026-05-03T08:25:44.182Z</time></trkpt><trkpt lat="44.7943042" lon="9.0859316"><ele>373.5</ele><time>2026-05-03T08:25:45.185Z</time></trkpt><trkpt lat="44.7942925" lon="9.0857538"><ele>374.75</ele><time>2026-05-03T08:25:46.184Z</time></trkpt><trkpt lat="44.7942791" lon="9.0855777"><ele>376.0</ele><time>2026-05-03T08:25:47.183Z</time></trkpt><trkpt lat="44.7942643" lon="9.0853945"><ele>376.0</ele><time>2026-05-03T08:25:48.187Z</time></trkpt><trkpt lat="44.7942521" lon="9.0852047"><ele>376.0</ele><time>2026-05-03T08:25:49.183Z</time></trkpt><trkpt lat="44.7942361" lon="9.0850104"><ele>376.0</ele><time>2026-05-03T08:25:50.184Z</time></trkpt><trkpt lat="44.7942158" lon="9.0848084"><ele>376.0</ele><time>2026-05-03T08:25:51.183Z</time></trkpt><trkpt lat="44.7941954" lon="9.084601"><ele>375.0</ele><time>2026-05-03T08:25:52.19Z</time></trkpt><trkpt lat="44.7941723" lon="9.0843896"><ele>374.0</ele><time>2026-05-03T08:25:53.187Z</time></trkpt><trkpt lat="44.7941406" lon="9.0841771"><ele>373.0</ele><time>2026-05-03T08:25:54.182Z</time></trkpt><trkpt lat="44.7940984" lon="9.0839786"><ele>371.5</ele><time>2026-05-03T08:25:55.183Z</time></trkpt><trkpt lat="44.7940544" lon="9.0837912"><ele>370.0</ele><time>2026-05-03T08:25:56.185Z</time></trkpt><trkpt lat="44.794013" lon="9.083616"><ele>368.5</ele><time>2026-05-03T08:25:57.186Z</time></trkpt><trkpt lat="44.7939725" lon="9.0834475"><ele>367.0</ele><time>2026-05-03T08:25:58.183Z</time></trkpt><trkpt lat="44.7939308" lon="9.0832668"><ele>367.0</ele><time>2026-05-03T08:25:59.191Z</time></trkpt><trkpt lat="44.793884" lon="9.0830837"><ele>367.0</ele><time>2026-05-03T08:26:00.187Z</time></trkpt><trkpt lat="44.7938315" lon="9.0829044"><ele>367.0</ele><time>2026-05-03T08:26:01.184Z</time></trkpt><trkpt lat="44.7937699" lon="9.0827242"><ele>367.0</ele><time>2026-05-03T08:26:02.186Z</time></trkpt><trkpt lat="44.7937002" lon="9.0825467"><ele>367.0</ele><time>2026-05-03T08:26:03.187Z</time></trkpt><trkpt lat="44.7936207" lon="9.0823767"><ele>367.0</ele><time>2026-05-03T08:26:04.18Z</time></trkpt><trkpt lat="44.7935329" lon="9.0822118"><ele>367.0</ele><time>2026-05-03T08:26:05.186Z</time></trkpt><trkpt lat="44.7934482" lon="9.0820531"><ele>367.0</ele><time>2026-05-03T08:26:06.181Z</time></trkpt><trkpt lat="44.793373" lon="9.0818994"><ele>367.0</ele><time>2026-05-03T08:26:07.189Z</time></trkpt><trkpt lat="44.7932977" lon="9.0817446"><ele>367.0</ele><time>2026-05-03T08:26:08.187Z</time></trkpt><trkpt lat="44.7932223" lon="9.081578"><ele>367.0</ele><time>2026-05-03T08:26:09.187Z</time></trkpt><trkpt lat="44.7931506" lon="9.0814038"><ele>367.0</ele><time>2026-05-03T08:26:10.183Z</time></trkpt><trkpt lat="44.7930859" lon="9.0812162"><ele>366.5</ele><time>2026-05-03T08:26:11.179Z</time></trkpt><trkpt lat="44.7930272" lon="9.0810233"><ele>366.0</ele><time>2026-05-03T08:26:12.181Z</time></trkpt><trkpt lat="44.7929744" lon="9.0808425"><ele>365.5</ele><time>2026-05-03T08:26:13.187Z</time></trkpt><trkpt lat="44.7929282" lon="9.0806681"><ele>365.0</ele><time>2026-05-03T08:26:14.186Z</time></trkpt><trkpt lat="44.7928813" lon="9.0804972"><ele>364.0</ele><time>2026-05-03T08:26:15.184Z</time></trkpt><trkpt lat="44.7928351" lon="9.0803223"><ele>363.0</ele><time>2026-05-03T08:26:16.185Z</time></trkpt><trkpt lat="44.7927828" lon="9.0801409"><ele>362.0</ele><time>2026-05-03T08:26:17.185Z</time></trkpt><trkpt lat="44.792727" lon="9.0799558"><ele>361.0</ele><time>2026-05-03T08:26:18.183Z</time></trkpt><trkpt lat="44.7926699" lon="9.0797695"><ele>361.0</ele><time>2026-05-03T08:26:19.187Z</time></trkpt><trkpt lat="44.7926105" lon="9.0795891"><ele>361.0</ele><time>2026-05-03T08:26:20.184Z</time></trkpt><trkpt lat="44.7925507" lon="9.0794141"><ele>361.0</ele><time>2026-05-03T08:26:21.184Z</time></trkpt><trkpt lat="44.7924859" lon="9.0792464"><ele>361.0</ele><time>2026-05-03T08:26:22.181Z</time></trkpt><trkpt lat="44.7924119" lon="9.0790942"><ele>359.25</ele><time>2026-05-03T08:26:23.184Z</time></trkpt><trkpt lat="44.792333" lon="9.0789476"><ele>357.5</ele><time>2026-05-03T08:26:24.181Z</time></trkpt><trkpt lat="44.7922459" lon="9.0787995"><ele>355.75</ele><time>2026-05-03T08:26:25.185Z</time></trkpt><trkpt lat="44.7921489" lon="9.0786509"><ele>354.0</ele><time>2026-05-03T08:26:26.189Z</time></trkpt><trkpt lat="44.7920482" lon="9.0784977"><ele>354.0</ele><time>2026-05-03T08:26:27.187Z</time></trkpt><trkpt lat="44.7919444" lon="9.0783438"><ele>354.0</ele><time>2026-05-03T08:26:28.188Z</time></trkpt><trkpt lat="44.7918344" lon="9.0781928"><ele>354.0</ele><time>2026-05-03T08:26:29.183Z</time></trkpt><trkpt lat="44.7917212" lon="9.0780459"><ele>355.0</ele><time>2026-05-03T08:26:30.181Z</time></trkpt><trkpt lat="44.7916144" lon="9.0778909"><ele>356.0</ele><time>2026-05-03T08:26:31.181Z</time></trkpt><trkpt lat="44.7915089" lon="9.0777362"><ele>357.0</ele><time>2026-05-03T08:26:32.188Z</time></trkpt><trkpt lat="44.7914065" lon="9.0775785"><ele>356.75</ele><time>2026-05-03T08:26:33.179Z</time></trkpt><trkpt lat="44.7913072" lon="9.0774214"><ele>356.5</ele><time>2026-05-03T08:26:34.18Z</time></trkpt><trkpt lat="44.7912108" lon="9.0772708"><ele>356.25</ele><time>2026-05-03T08:26:35.184Z</time></trkpt><trkpt lat="44.7911199" lon="9.0771224"><ele>356.0</ele><time>2026-05-03T08:26:36.183Z</time></trkpt><trkpt lat="44.7910381" lon="9.0769718"><ele>356.0</ele><time>2026-05-03T08:26:37.189Z</time></trkpt><trkpt lat="44.7909585" lon="9.0768192"><ele>356.0</ele><time>2026-05-03T08:26:38.181Z</time></trkpt><trkpt lat="44.790879" lon="9.0766637"><ele>356.0</ele><time>2026-05-03T08:26:39.179Z</time></trkpt><trkpt lat="44.7907983" lon="9.0765082"><ele>356.0</ele><time>2026-05-03T08:26:40.179Z</time></trkpt><trkpt lat="44.790721" lon="9.076346"><ele>356.0</ele><time>2026-05-03T08:26:41.181Z</time></trkpt><trkpt lat="44.7906375" lon="9.0761892"><ele>356.0</ele><time>2026-05-03T08:26:42.182Z</time></trkpt><trkpt lat="44.7905586" lon="9.0760267"><ele>356.0</ele><time>2026-05-03T08:26:43.18Z</time></trkpt><trkpt lat="44.7904771" lon="9.0758556"><ele>356.0</ele><time>2026-05-03T08:26:44.182Z</time></trkpt><trkpt lat="44.7903892" lon="9.0756868"><ele>356.25</ele><time>2026-05-03T08:26:45.188Z</time></trkpt><trkpt lat="44.7903082" lon="9.0755267"><ele>356.5</ele><time>2026-05-03T08:26:46.183Z</time></trkpt><trkpt lat="44.7902362" lon="9.0753684"><ele>356.75</ele><time>2026-05-03T08:26:47.187Z</time></trkpt><trkpt lat="44.7901683" lon="9.075214"><ele>357.0</ele><time>2026-05-03T08:26:48.181Z</time></trkpt><trkpt lat="44.7901095" lon="9.0750483"><ele>355.0</ele><time>2026-05-03T08:26:49.18Z</time></trkpt><trkpt lat="44.7900585" lon="9.0748748"><ele>353.0</ele><time>2026-05-03T08:26:50.181Z</time></trkpt><trkpt lat="44.790012" lon="9.0747017"><ele>351.0</ele><time>2026-05-03T08:26:51.181Z</time></trkpt><trkpt lat="44.7899623" lon="9.0745234"><ele>349.0</ele><time>2026-05-03T08:26:52.184Z</time></trkpt><trkpt lat="44.7899085" lon="9.074346"><ele>349.0</ele><time>2026-05-03T08:26:53.179Z</time></trkpt><trkpt lat="44.7898397" lon="9.0741727"><ele>349.0</ele><time>2026-05-03T08:26:54.181Z</time></trkpt><trkpt lat="44.7897638" lon="9.0740116"><ele>349.0</ele><time>2026-05-03T08:26:55.179Z</time></trkpt><trkpt lat="44.7896886" lon="9.0738556"><ele>349.0</ele><time>2026-05-03T08:26:56.189Z</time></trkpt><trkpt lat="44.7896251" lon="9.0737005"><ele>347.25</ele><time>2026-05-03T08:26:57.192Z</time></trkpt><trkpt lat="44.7895713" lon="9.0735365"><ele>345.5</ele><time>2026-05-03T08:26:58.184Z</time></trkpt><trkpt lat="44.7895223" lon="9.0733741"><ele>343.75</ele><time>2026-05-03T08:26:59.18Z</time></trkpt><trkpt lat="44.7894689" lon="9.0732121"><ele>342.0</ele><time>2026-05-03T08:27:00.179Z</time></trkpt><trkpt lat="44.789395" lon="9.0730535"><ele>341.75</ele><time>2026-05-03T08:27:01.184Z</time></trkpt><trkpt lat="44.7893068" lon="9.0729214"><ele>341.5</ele><time>2026-05-03T08:27:02.185Z</time></trkpt><trkpt lat="44.7892099" lon="9.0727913"><ele>341.25</ele><time>2026-05-03T08:27:03.184Z</time></trkpt><trkpt lat="44.7891068" lon="9.0726578"><ele>341.0</ele><time>2026-05-03T08:27:04.183Z</time></trkpt><trkpt lat="44.789006" lon="9.0725351"><ele>340.25</ele><time>2026-05-03T08:27:05.186Z</time></trkpt><trkpt lat="44.7889142" lon="9.0723952"><ele>339.5</ele><time>2026-05-03T08:27:06.18Z</time></trkpt><trkpt lat="44.7888262" lon="9.0722392"><ele>338.75</ele><time>2026-05-03T08:27:07.18Z</time></trkpt><trkpt lat="44.7887422" lon="9.0720746"><ele>338.0</ele><time>2026-05-03T08:27:08.181Z</time></trkpt><trkpt lat="44.788663" lon="9.0719001"><ele>338.0</ele><time>2026-05-03T08:27:09.182Z</time></trkpt><trkpt lat="44.7885849" lon="9.0717236"><ele>338.0</ele><time>2026-05-03T08:27:10.183Z</time></trkpt><trkpt lat="44.7885126" lon="9.0715351"><ele>338.0</ele><time>2026-05-03T08:27:11.184Z</time></trkpt><trkpt lat="44.7884355" lon="9.0713501"><ele>337.5</ele><time>2026-05-03T08:27:12.185Z</time></trkpt><trkpt lat="44.7883712" lon="9.0711635"><ele>337.0</ele><time>2026-05-03T08:27:13.183Z</time></trkpt><trkpt lat="44.7883093" lon="9.0709912"><ele>336.5</ele><time>2026-05-03T08:27:14.182Z</time></trkpt><trkpt lat="44.7882481" lon="9.0708205"><ele>336.0</ele><time>2026-05-03T08:27:15.191Z</time></trkpt><trkpt lat="44.7881867" lon="9.0706507"><ele>335.75</ele><time>2026-05-03T08:27:16.185Z</time></trkpt><trkpt lat="44.7881263" lon="9.0704763"><ele>335.5</ele><time>2026-05-03T08:27:17.188Z</time></trkpt><trkpt lat="44.7880632" lon="9.0703035"><ele>335.25</ele><time>2026-05-03T08:27:18.181Z</time></trkpt><trkpt lat="44.7879981" lon="9.0701322"><ele>335.0</ele><time>2026-05-03T08:27:19.179Z</time></trkpt><trkpt lat="44.7879298" lon="9.0699626"><ele>334.75</ele><time>2026-05-03T08:27:20.183Z</time></trkpt><trkpt lat="44.7878574" lon="9.0697973"><ele>334.5</ele><time>2026-05-03T08:27:21.186Z</time></trkpt><trkpt lat="44.7877892" lon="9.0696263"><ele>334.25</ele><time>2026-05-03T08:27:22.193Z</time></trkpt><trkpt lat="44.7877226" lon="9.069452"><ele>334.0</ele><time>2026-05-03T08:27:23.183Z</time></trkpt><trkpt lat="44.7876536" lon="9.0692783"><ele>333.75</ele><time>2026-05-03T08:27:24.187Z</time></trkpt><trkpt lat="44.787585" lon="9.0691025"><ele>333.5</ele><time>2026-05-03T08:27:25.202Z</time></trkpt><trkpt lat="44.7875118" lon="9.0689263"><ele>333.25</ele><time>2026-05-03T08:27:26.182Z</time></trkpt><trkpt lat="44.7874425" lon="9.0687493"><ele>333.0</ele><time>2026-05-03T08:27:27.181Z</time></trkpt><trkpt lat="44.787371" lon="9.0685742"><ele>333.0</ele><time>2026-05-03T08:27:28.184Z</time></trkpt><trkpt lat="44.7873085" lon="9.0683978"><ele>333.0</ele><time>2026-05-03T08:27:29.186Z</time></trkpt><trkpt lat="44.7872518" lon="9.0682288"><ele>333.0</ele><time>2026-05-03T08:27:30.185Z</time></trkpt><trkpt lat="44.7872016" lon="9.0680672"><ele>333.0</ele><time>2026-05-03T08:27:31.186Z</time></trkpt><trkpt lat="44.7871522" lon="9.0679061"><ele>333.0</ele><time>2026-05-03T08:27:32.183Z</time></trkpt><trkpt lat="44.7870978" lon="9.0677402"><ele>333.0</ele><time>2026-05-03T08:27:33.184Z</time></trkpt><trkpt lat="44.787043" lon="9.0675697"><ele>333.0</ele><time>2026-05-03T08:27:34.185Z</time></trkpt><trkpt lat="44.7869848" lon="9.0673893"><ele>333.0</ele><time>2026-05-03T08:27:35.19Z</time></trkpt><trkpt lat="44.786932" lon="9.0672025"><ele>333.0</ele><time>2026-05-03T08:27:36.185Z</time></trkpt><trkpt lat="44.7868756" lon="9.0670146"><ele>333.0</ele><time>2026-05-03T08:27:37.183Z</time></trkpt><trkpt lat="44.7868292" lon="9.0668264"><ele>333.0</ele><time>2026-05-03T08:27:38.19Z</time></trkpt><trkpt lat="44.7867794" lon="9.0666514"><ele>333.0</ele><time>2026-05-03T08:27:39.189Z</time></trkpt><trkpt lat="44.7867286" lon="9.0664809"><ele>332.5</ele><time>2026-05-03T08:27:40.185Z</time></trkpt><trkpt lat="44.7866775" lon="9.0663255"><ele>332.0</ele><time>2026-05-03T08:27:41.189Z</time></trkpt><trkpt lat="44.7866235" lon="9.066181"><ele>331.5</ele><time>2026-05-03T08:27:42.183Z</time></trkpt><trkpt lat="44.7865691" lon="9.0660484"><ele>331.0</ele><time>2026-05-03T08:27:43.189Z</time></trkpt><trkpt lat="44.7865179" lon="9.065911"><ele>330.8</ele><time>2026-05-03T08:27:44.182Z</time></trkpt><trkpt lat="44.7864621" lon="9.0657718"><ele>330.6</ele><time>2026-05-03T08:27:45.194Z</time></trkpt><trkpt lat="44.786421" lon="9.0656255"><ele>330.4</ele><time>2026-05-03T08:27:46.186Z</time></trkpt><trkpt lat="44.7863835" lon="9.0654716"><ele>330.2</ele><time>2026-05-03T08:27:47.181Z</time></trkpt><trkpt lat="44.7863573" lon="9.0653332"><ele>330.0</ele><time>2026-05-03T08:27:48.186Z</time></trkpt><trkpt lat="44.7863397" lon="9.0652034"><ele>330.0</ele><time>2026-05-03T08:27:49.187Z</time></trkpt><trkpt lat="44.786325" lon="9.0650819"><ele>330.0</ele><time>2026-05-03T08:27:50.186Z</time></trkpt><trkpt lat="44.78631" lon="9.0649579"><ele>330.0</ele><time>2026-05-03T08:27:51.18Z</time></trkpt><trkpt lat="44.786293" lon="9.0648295"><ele>330.0</ele><time>2026-05-03T08:27:52.181Z</time></trkpt><trkpt lat="44.7862708" lon="9.0646975"><ele>330.0</ele><time>2026-05-03T08:27:53.182Z</time></trkpt><trkpt lat="44.7862454" lon="9.0645743"><ele>330.0</ele><time>2026-05-03T08:27:54.185Z</time></trkpt><trkpt lat="44.7862279" lon="9.0644716"><ele>330.0</ele><time>2026-05-03T08:27:55.184Z</time></trkpt><trkpt lat="44.7862078" lon="9.0643843"><ele>330.0</ele><time>2026-05-03T08:27:56.19Z</time></trkpt><trkpt lat="44.7861314" lon="9.0642689"><ele>330.0</ele><time>2026-05-03T08:27:58.189Z</time></trkpt><trkpt lat="44.7860673" lon="9.0642604"><ele>330.0</ele><time>2026-05-03T08:27:59.191Z</time></trkpt><trkpt lat="44.7859715" lon="9.064346"><ele>330.0</ele><time>2026-05-03T08:28:01.186Z</time></trkpt><trkpt lat="44.7859043" lon="9.064435"><ele>330.5</ele><time>2026-05-03T08:28:03.182Z</time></trkpt><trkpt lat="44.7858554" lon="9.064508"><ele>331.0</ele><time>2026-05-03T08:28:11.19Z</time></trkpt><trkpt lat="44.7858332" lon="9.0645941"><ele>331.5</ele><time>2026-05-03T08:28:16.181Z</time></trkpt><trkpt lat="44.7857659" lon="9.0646225"><ele>332.0</ele><time>2026-05-03T08:29:01.182Z</time></trkpt><trkpt lat="44.7857006" lon="9.0646666"><ele>332.5</ele><time>2026-05-03T08:29:06.186Z</time></trkpt><trkpt lat="44.7856854" lon="9.064758"><ele>333.0</ele><time>2026-05-03T08:59:11.175Z</time></trkpt><trkpt lat="44.7856021" lon="9.0648664"><ele>334.0</ele><time>2026-05-03T08:59:14.182Z</time></trkpt><trkpt lat="44.7855068" lon="9.0649583"><ele>335.0</ele><time>2026-05-03T08:59:16.178Z</time></trkpt><trkpt lat="44.7854567" lon="9.0650149"><ele>336.0</ele><time>2026-05-03T08:59:17.181Z</time></trkpt><trkpt lat="44.7853932" lon="9.0650665"><ele>337.0</ele><time>2026-05-03T08:59:18.179Z</time></trkpt><trkpt lat="44.7853305" lon="9.0651131"><ele>338.0</ele><time>2026-05-03T08:59:19.178Z</time></trkpt><trkpt lat="44.785265" lon="9.0651603"><ele>339.0</ele><time>2026-05-03T08:59:20.181Z</time></trkpt><trkpt lat="44.7851923" lon="9.0652129"><ele>338.5</ele><time>2026-05-03T08:59:21.174Z</time></trkpt><trkpt lat="44.7851184" lon="9.0652578"><ele>338.0</ele><time>2026-05-03T08:59:22.177Z</time></trkpt><trkpt lat="44.7850463" lon="9.0653044"><ele>337.5</ele><time>2026-05-03T08:59:23.178Z</time></trkpt><trkpt lat="44.7849718" lon="9.0653532"><ele>337.0</ele><time>2026-05-03T08:59:24.18Z</time></trkpt><trkpt lat="44.7849081" lon="9.0653924"><ele>336.5</ele><time>2026-05-03T08:59:25.177Z</time></trkpt><trkpt lat="44.7848416" lon="9.0654277"><ele>336.0</ele><time>2026-05-03T08:59:26.176Z</time></trkpt><trkpt lat="44.7847507" lon="9.065483"><ele>336.0</ele><time>2026-05-03T08:59:28.178Z</time></trkpt><trkpt lat="44.7846715" lon="9.0655204"><ele>336.0</ele><time>2026-05-03T08:59:30.176Z</time></trkpt><trkpt lat="44.7845891" lon="9.0655586"><ele>336.0</ele><time>2026-05-03T08:59:32.184Z</time></trkpt><trkpt lat="44.7845254" lon="9.0655803"><ele>336.0</ele><time>2026-05-03T08:59:34.181Z</time></trkpt><trkpt lat="44.7844544" lon="9.0656296"><ele>336.0</ele><time>2026-05-03T09:06:04.172Z</time></trkpt><trkpt lat="44.7843695" lon="9.0657008"><ele>336.0</ele><time>2026-05-03T09:06:09.177Z</time></trkpt><trkpt lat="44.7842957" lon="9.0657226"><ele>336.0</ele><time>2026-05-03T09:06:10.177Z</time></trkpt><trkpt lat="44.7842325" lon="9.0657434"><ele>336.0</ele><time>2026-05-03T09:06:11.177Z</time></trkpt><trkpt lat="44.7841653" lon="9.0657711"><ele>336.0</ele><time>2026-05-03T09:06:12.178Z</time></trkpt><trkpt lat="44.7840905" lon="9.0658146"><ele>336.0</ele><time>2026-05-03T09:06:13.181Z</time></trkpt><trkpt lat="44.784011" lon="9.0658804"><ele>336.0</ele><time>2026-05-03T09:06:14.177Z</time></trkpt><trkpt lat="44.7839391" lon="9.0659553"><ele>336.0</ele><time>2026-05-03T09:06:15.178Z</time></trkpt><trkpt lat="44.7838671" lon="9.0660217"><ele>336.1666666666667</ele><time>2026-05-03T09:06:16.172Z</time></trkpt><trkpt lat="44.7837969" lon="9.0660703"><ele>336.3333333333333</ele><time>2026-05-03T09:06:17.18Z</time></trkpt><trkpt lat="44.7837466" lon="9.0661248"><ele>336.5</ele><time>2026-05-03T09:06:18.176Z</time></trkpt><trkpt lat="44.7836663" lon="9.0662253"><ele>336.66666666666663</ele><time>2026-05-03T09:06:20.178Z</time></trkpt><trkpt lat="44.7835939" lon="9.0663082"><ele>336.8333333333333</ele><time>2026-05-03T09:06:21.187Z</time></trkpt><trkpt lat="44.7835187" lon="9.0663871"><ele>337.0</ele><time>2026-05-03T09:06:22.18Z</time></trkpt><trkpt lat="44.7834286" lon="9.0664832"><ele>337.0</ele><time>2026-05-03T09:06:23.186Z</time></trkpt><trkpt lat="44.7833383" lon="9.0665879"><ele>337.0</ele><time>2026-05-03T09:06:24.182Z</time></trkpt><trkpt lat="44.7832447" lon="9.0666942"><ele>337.0</ele><time>2026-05-03T09:06:25.182Z</time></trkpt><trkpt lat="44.7831489" lon="9.0668006"><ele>337.0</ele><time>2026-05-03T09:06:26.177Z</time></trkpt><trkpt lat="44.7830491" lon="9.0669218"><ele>337.0</ele><time>2026-05-03T09:06:27.178Z</time></trkpt><trkpt lat="44.7829433" lon="9.0670339"><ele>337.0</ele><time>2026-05-03T09:06:28.175Z</time></trkpt><trkpt lat="44.7828366" lon="9.0671388"><ele>337.0</ele><time>2026-05-03T09:06:29.182Z</time></trkpt><trkpt lat="44.7827338" lon="9.0672321"><ele>337.0</ele><time>2026-05-03T09:06:30.181Z</time></trkpt><trkpt lat="44.7826261" lon="9.0673214"><ele>337.0</ele><time>2026-05-03T09:06:31.181Z</time></trkpt><trkpt lat="44.7825107" lon="9.0673898"><ele>337.0</ele><time>2026-05-03T09:06:32.177Z</time></trkpt><trkpt lat="44.7823835" lon="9.0674525"><ele>337.0</ele><time>2026-05-03T09:06:33.179Z</time></trkpt><trkpt lat="44.782243" lon="9.0674965"><ele>337.0</ele><time>2026-05-03T09:06:34.192Z</time></trkpt><trkpt lat="44.782102" lon="9.0675538"><ele>338.25</ele><time>2026-05-03T09:06:35.175Z</time></trkpt><trkpt lat="44.7819742" lon="9.0676108"><ele>339.5</ele><time>2026-05-03T09:06:36.183Z</time></trkpt><trkpt lat="44.7818461" lon="9.0676691"><ele>340.75</ele><time>2026-05-03T09:06:37.176Z</time></trkpt><trkpt lat="44.7817111" lon="9.0677218"><ele>342.0</ele><time>2026-05-03T09:06:38.174Z</time></trkpt><trkpt lat="44.7815757" lon="9.0677759"><ele>342.0</ele><time>2026-05-03T09:06:39.182Z</time></trkpt><trkpt lat="44.7814507" lon="9.0678332"><ele>342.0</ele><time>2026-05-03T09:06:40.181Z</time></trkpt><trkpt lat="44.7813295" lon="9.0678807"><ele>342.0</ele><time>2026-05-03T09:06:41.177Z</time></trkpt><trkpt lat="44.7812134" lon="9.0679293"><ele>342.0</ele><time>2026-05-03T09:06:42.177Z</time></trkpt><trkpt lat="44.781096" lon="9.0679815"><ele>342.20000000000005</ele><time>2026-05-03T09:06:43.176Z</time></trkpt><trkpt lat="44.7809843" lon="9.0680425"><ele>342.4</ele><time>2026-05-03T09:06:44.184Z</time></trkpt><trkpt lat="44.7808947" lon="9.0681193"><ele>342.6</ele><time>2026-05-03T09:06:45.176Z</time></trkpt><trkpt lat="44.7808142" lon="9.0682065"><ele>342.79999999999995</ele><time>2026-05-03T09:06:46.176Z</time></trkpt><trkpt lat="44.7807371" lon="9.0683377"><ele>343.0</ele><time>2026-05-03T09:06:47.18Z</time></trkpt><trkpt lat="44.7806803" lon="9.0684731"><ele>343.0</ele><time>2026-05-03T09:06:48.173Z</time></trkpt><trkpt lat="44.7806201" lon="9.0686289"><ele>343.0</ele><time>2026-05-03T09:06:49.181Z</time></trkpt><trkpt lat="44.7805762" lon="9.068776"><ele>343.0</ele><time>2026-05-03T09:06:50.188Z</time></trkpt><trkpt lat="44.7805307" lon="9.0689159"><ele>343.0</ele><time>2026-05-03T09:06:51.178Z</time></trkpt><trkpt lat="44.7804858" lon="9.0690564"><ele>342.79999999999995</ele><time>2026-05-03T09:06:52.178Z</time></trkpt><trkpt lat="44.7804406" lon="9.0691719"><ele>342.6</ele><time>2026-05-03T09:06:53.18Z</time></trkpt><trkpt lat="44.7803834" lon="9.0692691"><ele>342.4</ele><time>2026-05-03T09:06:54.178Z</time></trkpt><trkpt lat="44.7803108" lon="9.0693389"><ele>342.20000000000005</ele><time>2026-05-03T09:06:55.174Z</time></trkpt><trkpt lat="44.7802288" lon="9.0693913"><ele>342.0</ele><time>2026-05-03T09:06:56.172Z</time></trkpt><trkpt lat="44.7801369" lon="9.0694228"><ele>342.0</ele><time>2026-05-03T09:06:57.173Z</time></trkpt><trkpt lat="44.7800408" lon="9.0694408"><ele>342.0</ele><time>2026-05-03T09:06:58.172Z</time></trkpt><trkpt lat="44.779952" lon="9.0694529"><ele>342.0</ele><time>2026-05-03T09:06:59.18Z</time></trkpt><trkpt lat="44.7798635" lon="9.0694647"><ele>342.0</ele><time>2026-05-03T09:07:00.178Z</time></trkpt><trkpt lat="44.7797735" lon="9.0694772"><ele>342.0</ele><time>2026-05-03T09:07:01.179Z</time></trkpt><trkpt lat="44.7796754" lon="9.0694978"><ele>342.0</ele><time>2026-05-03T09:07:02.173Z</time></trkpt><trkpt lat="44.7795681" lon="9.069522"><ele>342.0</ele><time>2026-05-03T09:07:03.18Z</time></trkpt><trkpt lat="44.7794571" lon="9.0695473"><ele>342.0</ele><time>2026-05-03T09:07:04.181Z</time></trkpt><trkpt lat="44.7793434" lon="9.0695826"><ele>342.0</ele><time>2026-05-03T09:07:05.174Z</time></trkpt><trkpt lat="44.779227" lon="9.0696207"><ele>342.75</ele><time>2026-05-03T09:07:06.173Z</time></trkpt><trkpt lat="44.7791059" lon="9.069667"><ele>343.5</ele><time>2026-05-03T09:07:07.176Z</time></trkpt><trkpt lat="44.7789812" lon="9.0697165"><ele>344.25</ele><time>2026-05-03T09:07:08.178Z</time></trkpt><trkpt lat="44.7788588" lon="9.0697699"><ele>345.0</ele><time>2026-05-03T09:07:09.174Z</time></trkpt><trkpt lat="44.7787281" lon="9.0698224"><ele>345.0</ele><time>2026-05-03T09:07:10.181Z</time></trkpt><trkpt lat="44.7785993" lon="9.0698775"><ele>345.0</ele><time>2026-05-03T09:07:11.175Z</time></trkpt><trkpt lat="44.7784715" lon="9.0699253"><ele>345.0</ele><time>2026-05-03T09:07:12.18Z</time></trkpt><trkpt lat="44.7783414" lon="9.0699758"><ele>345.0</ele><time>2026-05-03T09:07:13.178Z</time></trkpt><trkpt lat="44.7782157" lon="9.0700256"><ele>346.25</ele><time>2026-05-03T09:07:14.175Z</time></trkpt><trkpt lat="44.7780866" lon="9.0700745"><ele>347.5</ele><time>2026-05-03T09:07:15.176Z</time></trkpt><trkpt lat="44.77796" lon="9.0701218"><ele>348.75</ele><time>2026-05-03T09:07:16.175Z</time></trkpt><trkpt lat="44.777838" lon="9.0701687"><ele>350.0</ele><time>2026-05-03T09:07:17.175Z</time></trkpt><trkpt lat="44.7777122" lon="9.0702159"><ele>350.2</ele><time>2026-05-03T09:07:18.176Z</time></trkpt><trkpt lat="44.7775892" lon="9.0702653"><ele>350.4</ele><time>2026-05-03T09:07:19.175Z</time></trkpt><trkpt lat="44.7774788" lon="9.0703109"><ele>350.6</ele><time>2026-05-03T09:07:20.174Z</time></trkpt><trkpt lat="44.7773882" lon="9.0703498"><ele>350.8</ele><time>2026-05-03T09:07:21.173Z</time></trkpt><trkpt lat="44.7773124" lon="9.0703791"><ele>351.0</ele><time>2026-05-03T09:07:22.176Z</time></trkpt><trkpt lat="44.7772503" lon="9.0704074"><ele>351.0</ele><time>2026-05-03T09:07:23.176Z</time></trkpt><trkpt lat="44.7771899" lon="9.0704393"><ele>351.0</ele><time>2026-05-03T09:07:24.178Z</time></trkpt><trkpt lat="44.7771104" lon="9.070472"><ele>351.0</ele><time>2026-05-03T09:07:25.181Z</time></trkpt><trkpt lat="44.7770196" lon="9.0705239"><ele>351.0</ele><time>2026-05-03T09:07:26.176Z</time></trkpt><trkpt lat="44.7769155" lon="9.0705751"><ele>351.0</ele><time>2026-05-03T09:07:27.174Z</time></trkpt><trkpt lat="44.7768133" lon="9.0706312"><ele>350.75</ele><time>2026-05-03T09:07:28.179Z</time></trkpt><trkpt lat="44.7767008" lon="9.0706869"><ele>350.5</ele><time>2026-05-03T09:07:29.184Z</time></trkpt><trkpt lat="44.77658" lon="9.0707412"><ele>350.25</ele><time>2026-05-03T09:07:30.174Z</time></trkpt><trkpt lat="44.7764603" lon="9.0708002"><ele>350.0</ele><time>2026-05-03T09:07:31.176Z</time></trkpt><trkpt lat="44.7763384" lon="9.0708609"><ele>350.75</ele><time>2026-05-03T09:07:32.174Z</time></trkpt><trkpt lat="44.7762156" lon="9.0709251"><ele>351.5</ele><time>2026-05-03T09:07:33.176Z</time></trkpt><trkpt lat="44.776085" lon="9.0709919"><ele>352.25</ele><time>2026-05-03T09:07:34.173Z</time></trkpt><trkpt lat="44.7759574" lon="9.0710592"><ele>353.0</ele><time>2026-05-03T09:07:35.19Z</time></trkpt><trkpt lat="44.7758248" lon="9.0711256"><ele>353.0</ele><time>2026-05-03T09:07:36.189Z</time></trkpt><trkpt lat="44.7756946" lon="9.0711898"><ele>353.0</ele><time>2026-05-03T09:07:37.177Z</time></trkpt><trkpt lat="44.7755643" lon="9.0712535"><ele>353.0</ele><time>2026-05-03T09:07:38.173Z</time></trkpt><trkpt lat="44.7754412" lon="9.0713233"><ele>353.0</ele><time>2026-05-03T09:07:39.185Z</time></trkpt><trkpt lat="44.7753211" lon="9.0714104"><ele>353.0</ele><time>2026-05-03T09:07:40.178Z</time></trkpt><trkpt lat="44.7752084" lon="9.071515"><ele>353.0</ele><time>2026-05-03T09:07:41.175Z</time></trkpt><trkpt lat="44.7751041" lon="9.0716264"><ele>353.0</ele><time>2026-05-03T09:07:42.174Z</time></trkpt><trkpt lat="44.775" lon="9.0717369"><ele>353.0</ele><time>2026-05-03T09:07:43.176Z</time></trkpt><trkpt lat="44.7748923" lon="9.0718417"><ele>354.5</ele><time>2026-05-03T09:07:44.178Z</time></trkpt><trkpt lat="44.7747761" lon="9.0719338"><ele>356.0</ele><time>2026-05-03T09:07:45.179Z</time></trkpt><trkpt lat="44.7746536" lon="9.0720015"><ele>357.5</ele><time>2026-05-03T09:07:46.188Z</time></trkpt><trkpt lat="44.7745319" lon="9.0720715"><ele>359.0</ele><time>2026-05-03T09:07:47.181Z</time></trkpt><trkpt lat="44.7744106" lon="9.0721591"><ele>359.25</ele><time>2026-05-03T09:07:48.176Z</time></trkpt><trkpt lat="44.7742986" lon="9.0722531"><ele>359.5</ele><time>2026-05-03T09:07:49.18Z</time></trkpt><trkpt lat="44.77418" lon="9.072336"><ele>359.75</ele><time>2026-05-03T09:07:50.178Z</time></trkpt><trkpt lat="44.774054" lon="9.0723853"><ele>360.0</ele><time>2026-05-03T09:07:51.177Z</time></trkpt><trkpt lat="44.7739155" lon="9.0724034"><ele>360.0</ele><time>2026-05-03T09:07:52.177Z</time></trkpt><trkpt lat="44.7737719" lon="9.0723938"><ele>360.0</ele><time>2026-05-03T09:07:53.177Z</time></trkpt><trkpt lat="44.7736278" lon="9.0723798"><ele>360.0</ele><time>2026-05-03T09:07:54.182Z</time></trkpt><trkpt lat="44.7734835" lon="9.072369"><ele>360.0</ele><time>2026-05-03T09:07:55.177Z</time></trkpt><trkpt lat="44.7733357" lon="9.0723613"><ele>359.75</ele><time>2026-05-03T09:07:56.177Z</time></trkpt><trkpt lat="44.7731862" lon="9.0723533"><ele>359.5</ele><time>2026-05-03T09:07:57.177Z</time></trkpt><trkpt lat="44.7730386" lon="9.0723629"><ele>359.25</ele><time>2026-05-03T09:07:58.18Z</time></trkpt><trkpt lat="44.7728982" lon="9.0724035"><ele>359.0</ele><time>2026-05-03T09:07:59.177Z</time></trkpt><trkpt lat="44.7727595" lon="9.0724881"><ele>361.0</ele><time>2026-05-03T09:08:00.177Z</time></trkpt><trkpt lat="44.7726371" lon="9.0726052"><ele>363.0</ele><time>2026-05-03T09:08:01.177Z</time></trkpt><trkpt lat="44.7725154" lon="9.0727315"><ele>365.0</ele><time>2026-05-03T09:08:02.179Z</time></trkpt><trkpt lat="44.7723941" lon="9.0728615"><ele>365.0</ele><time>2026-05-03T09:08:03.179Z</time></trkpt><trkpt lat="44.7722699" lon="9.0729909"><ele>365.0</ele><time>2026-05-03T09:08:04.182Z</time></trkpt><trkpt lat="44.7721464" lon="9.0731186"><ele>365.0</ele><time>2026-05-03T09:08:05.178Z</time></trkpt><trkpt lat="44.7720269" lon="9.0732205"><ele>365.0</ele><time>2026-05-03T09:08:06.178Z</time></trkpt><trkpt lat="44.7719037" lon="9.0732995"><ele>366.5</ele><time>2026-05-03T09:08:07.177Z</time></trkpt><trkpt lat="44.7717721" lon="9.0733603"><ele>368.0</ele><time>2026-05-03T09:08:08.177Z</time></trkpt><trkpt lat="44.77163" lon="9.0733952"><ele>369.5</ele><time>2026-05-03T09:08:09.187Z</time></trkpt><trkpt lat="44.771493" lon="9.0734139"><ele>371.0</ele><time>2026-05-03T09:08:10.185Z</time></trkpt><trkpt lat="44.7713558" lon="9.0734094"><ele>371.0</ele><time>2026-05-03T09:08:11.174Z</time></trkpt><trkpt lat="44.7712182" lon="9.0733781"><ele>371.0</ele><time>2026-05-03T09:08:12.18Z</time></trkpt><trkpt lat="44.7710872" lon="9.0733261"><ele>371.0</ele><time>2026-05-03T09:08:13.177Z</time></trkpt><trkpt lat="44.7709592" lon="9.0732689"><ele>371.0</ele><time>2026-05-03T09:08:14.177Z</time></trkpt><trkpt lat="44.7708316" lon="9.0732026"><ele>370.25</ele><time>2026-05-03T09:08:15.178Z</time></trkpt><trkpt lat="44.7707015" lon="9.0731411"><ele>369.5</ele><time>2026-05-03T09:08:16.18Z</time></trkpt><trkpt lat="44.7705653" lon="9.0730936"><ele>368.75</ele><time>2026-05-03T09:08:17.177Z</time></trkpt><trkpt lat="44.7704326" lon="9.0730714"><ele>368.0</ele><time>2026-05-03T09:08:18.183Z</time></trkpt><trkpt lat="44.770316" lon="9.0730708"><ele>368.0</ele><time>2026-05-03T09:08:19.175Z</time></trkpt><trkpt lat="44.7702121" lon="9.0730894"><ele>368.0</ele><time>2026-05-03T09:08:20.18Z</time></trkpt><trkpt lat="44.7701138" lon="9.0731074"><ele>368.0</ele><time>2026-05-03T09:08:21.174Z</time></trkpt><trkpt lat="44.7700293" lon="9.0731155"><ele>368.0</ele><time>2026-05-03T09:08:22.176Z</time></trkpt><trkpt lat="44.7699467" lon="9.0731093"><ele>368.0</ele><time>2026-05-03T09:08:23.177Z</time></trkpt><trkpt lat="44.7698539" lon="9.0730978"><ele>369.0</ele><time>2026-05-03T09:08:24.184Z</time></trkpt><trkpt lat="44.7697475" lon="9.073103"><ele>370.0</ele><time>2026-05-03T09:08:25.175Z</time></trkpt><trkpt lat="44.769632" lon="9.0731232"><ele>371.0</ele><time>2026-05-03T09:08:26.18Z</time></trkpt><trkpt lat="44.7695096" lon="9.0731513"><ele>372.0</ele><time>2026-05-03T09:08:27.175Z</time></trkpt><trkpt lat="44.7693811" lon="9.0731737"><ele>373.0</ele><time>2026-05-03T09:08:28.177Z</time></trkpt><trkpt lat="44.7692514" lon="9.0731944"><ele>374.0</ele><time>2026-05-03T09:08:29.19Z</time></trkpt><trkpt lat="44.7691194" lon="9.0732258"><ele>375.0</ele><time>2026-05-03T09:08:30.179Z</time></trkpt><trkpt lat="44.7689848" lon="9.0732784"><ele>376.0</ele><time>2026-05-03T09:08:31.174Z</time></trkpt><trkpt lat="44.7688549" lon="9.0733364"><ele>376.0</ele><time>2026-05-03T09:08:32.176Z</time></trkpt><trkpt lat="44.7687323" lon="9.0734051"><ele>376.0</ele><time>2026-05-03T09:08:33.173Z</time></trkpt><trkpt lat="44.7686076" lon="9.073485"><ele>376.0</ele><time>2026-05-03T09:08:34.184Z</time></trkpt><trkpt lat="44.7684774" lon="9.0735589"><ele>376.0</ele><time>2026-05-03T09:08:35.177Z</time></trkpt><trkpt lat="44.7683456" lon="9.0736248"><ele>376.25</ele><time>2026-05-03T09:08:36.173Z</time></trkpt><trkpt lat="44.7682162" lon="9.0736834"><ele>376.5</ele><time>2026-05-03T09:08:37.175Z</time></trkpt><trkpt lat="44.7680948" lon="9.0737335"><ele>376.75</ele><time>2026-05-03T09:08:38.174Z</time></trkpt><trkpt lat="44.7679829" lon="9.0737586"><ele>377.0</ele><time>2026-05-03T09:08:39.189Z</time></trkpt><trkpt lat="44.7678747" lon="9.0737581"><ele>377.0</ele><time>2026-05-03T09:08:40.175Z</time></trkpt><trkpt lat="44.7677524" lon="9.0737383"><ele>377.0</ele><time>2026-05-03T09:08:41.174Z</time></trkpt><trkpt lat="44.7676399" lon="9.0736946"><ele>377.0</ele><time>2026-05-03T09:08:42.175Z</time></trkpt><trkpt lat="44.7675117" lon="9.0736511"><ele>377.0</ele><time>2026-05-03T09:08:43.179Z</time></trkpt><trkpt lat="44.7673863" lon="9.0736031"><ele>377.75</ele><time>2026-05-03T09:08:44.176Z</time></trkpt><trkpt lat="44.7672593" lon="9.0735361"><ele>378.5</ele><time>2026-05-03T09:08:45.183Z</time></trkpt><trkpt lat="44.7671327" lon="9.0734689"><ele>379.25</ele><time>2026-05-03T09:08:46.175Z</time></trkpt><trkpt lat="44.767005" lon="9.0733963"><ele>380.0</ele><time>2026-05-03T09:08:47.178Z</time></trkpt><trkpt lat="44.7668736" lon="9.0733163"><ele>381.0</ele><time>2026-05-03T09:08:48.182Z</time></trkpt><trkpt lat="44.7667333" lon="9.0732344"><ele>382.0</ele><time>2026-05-03T09:08:49.179Z</time></trkpt><trkpt lat="44.7665888" lon="9.0731552"><ele>383.0</ele><time>2026-05-03T09:08:50.181Z</time></trkpt><trkpt lat="44.7664508" lon="9.0730806"><ele>383.0</ele><time>2026-05-03T09:08:51.177Z</time></trkpt><trkpt lat="44.7663124" lon="9.0730238"><ele>383.0</ele><time>2026-05-03T09:08:52.175Z</time></trkpt><trkpt lat="44.7661748" lon="9.0729663"><ele>383.0</ele><time>2026-05-03T09:08:53.175Z</time></trkpt><trkpt lat="44.766031" lon="9.0729157"><ele>383.0</ele><time>2026-05-03T09:08:54.184Z</time></trkpt><trkpt lat="44.7658851" lon="9.0728671"><ele>383.33333333333337</ele><time>2026-05-03T09:08:55.179Z</time></trkpt><trkpt lat="44.7657395" lon="9.0728212"><ele>383.6666666666667</ele><time>2026-05-03T09:08:56.174Z</time></trkpt><trkpt lat="44.7655846" lon="9.07278"><ele>384.0</ele><time>2026-05-03T09:08:57.178Z</time></trkpt><trkpt lat="44.7654237" lon="9.0727637"><ele>384.0</ele><time>2026-05-03T09:08:58.18Z</time></trkpt><trkpt lat="44.7652551" lon="9.0727603"><ele>384.0</ele><time>2026-05-03T09:08:59.177Z</time></trkpt><trkpt lat="44.7650872" lon="9.0727596"><ele>384.0</ele><time>2026-05-03T09:09:00.177Z</time></trkpt><trkpt lat="44.7649221" lon="9.0727493"><ele>384.33333333333337</ele><time>2026-05-03T09:09:01.174Z</time></trkpt><trkpt lat="44.7647713" lon="9.0727185"><ele>384.6666666666667</ele><time>2026-05-03T09:09:02.178Z</time></trkpt><trkpt lat="44.7646266" lon="9.0726558"><ele>385.0</ele><time>2026-05-03T09:09:03.178Z</time></trkpt><trkpt lat="44.7644893" lon="9.0725795"><ele>386.33333333333337</ele><time>2026-05-03T09:09:04.179Z</time></trkpt><trkpt lat="44.7643543" lon="9.0724941"><ele>387.66666666666663</ele><time>2026-05-03T09:09:05.177Z</time></trkpt><trkpt lat="44.7642181" lon="9.0723935"><ele>389.0</ele><time>2026-05-03T09:09:06.175Z</time></trkpt><trkpt lat="44.764084" lon="9.0722976"><ele>389.0</ele><time>2026-05-03T09:09:07.175Z</time></trkpt><trkpt lat="44.7639443" lon="9.0722177"><ele>389.0</ele><time>2026-05-03T09:09:08.176Z</time></trkpt><trkpt lat="44.7637983" lon="9.0721572"><ele>389.0</ele><time>2026-05-03T09:09:09.178Z</time></trkpt><trkpt lat="44.7636422" lon="9.0721142"><ele>389.25</ele><time>2026-05-03T09:09:10.18Z</time></trkpt><trkpt lat="44.7634826" lon="9.0720834"><ele>389.5</ele><time>2026-05-03T09:09:11.177Z</time></trkpt><trkpt lat="44.7633374" lon="9.072059"><ele>389.75</ele><time>2026-05-03T09:09:12.174Z</time></trkpt><trkpt lat="44.7632182" lon="9.072043"><ele>390.0</ele><time>2026-05-03T09:09:13.179Z</time></trkpt><trkpt lat="44.7631257" lon="9.0720413"><ele>390.0</ele><time>2026-05-03T09:09:14.181Z</time></trkpt><trkpt lat="44.7630532" lon="9.0720423"><ele>390.0</ele><time>2026-05-03T09:09:15.175Z</time></trkpt><trkpt lat="44.7629904" lon="9.0720272"><ele>390.0</ele><time>2026-05-03T09:09:16.18Z</time></trkpt><trkpt lat="44.762931" lon="9.0719916"><ele>390.0</ele><time>2026-05-03T09:09:17.18Z</time></trkpt><trkpt lat="44.7628733" lon="9.0719462"><ele>390.0</ele><time>2026-05-03T09:09:18.176Z</time></trkpt><trkpt lat="44.7627889" lon="9.0718519"><ele>390.0</ele><time>2026-05-03T09:09:20.177Z</time></trkpt><trkpt lat="44.7627212" lon="9.0718107"><ele>390.0</ele><time>2026-05-03T09:09:22.175Z</time></trkpt><trkpt lat="44.7626571" lon="9.0717722"><ele>391.0</ele><time>2026-05-03T09:09:25.179Z</time></trkpt><trkpt lat="44.7625932" lon="9.0717367"><ele>392.0</ele><time>2026-05-03T09:09:26.177Z</time></trkpt><trkpt lat="44.7625162" lon="9.0717036"><ele>393.0</ele><time>2026-05-03T09:09:27.177Z</time></trkpt><trkpt lat="44.7624227" lon="9.0716832"><ele>394.0</ele><time>2026-05-03T09:09:28.181Z</time></trkpt><trkpt lat="44.7623086" lon="9.0716932"><ele>395.0</ele><time>2026-05-03T09:09:29.18Z</time></trkpt><trkpt lat="44.7621788" lon="9.0717197"><ele>395.0</ele><time>2026-05-03T09:09:30.176Z</time></trkpt><trkpt lat="44.7620776" lon="9.0717509"><ele>395.0</ele><time>2026-05-03T09:09:31.181Z</time></trkpt><trkpt lat="44.7619858" lon="9.071756"><ele>395.0</ele><time>2026-05-03T09:09:32.176Z</time></trkpt><trkpt lat="44.7618809" lon="9.071727"><ele>395.0</ele><time>2026-05-03T09:09:33.179Z</time></trkpt><trkpt lat="44.7617601" lon="9.0717031"><ele>395.0</ele><time>2026-05-03T09:09:34.179Z</time></trkpt><trkpt lat="44.7616542" lon="9.0716729"><ele>396.2</ele><time>2026-05-03T09:09:35.185Z</time></trkpt><trkpt lat="44.7615531" lon="9.0716516"><ele>397.4</ele><time>2026-05-03T09:09:36.176Z</time></trkpt><trkpt lat="44.7614476" lon="9.0716862"><ele>398.6</ele><time>2026-05-03T09:09:37.177Z</time></trkpt><trkpt lat="44.7613289" lon="9.0717171"><ele>399.8</ele><time>2026-05-03T09:09:38.182Z</time></trkpt><trkpt lat="44.7612282" lon="9.0717291"><ele>401.0</ele><time>2026-05-03T09:09:39.175Z</time></trkpt><trkpt lat="44.7611364" lon="9.071728"><ele>400.99999999999994</ele><time>2026-05-03T09:09:40.179Z</time></trkpt><trkpt lat="44.7610418" lon="9.0717306"><ele>401.0</ele><time>2026-05-03T09:09:41.175Z</time></trkpt><trkpt lat="44.7609652" lon="9.0717293"><ele>401.0</ele><time>2026-05-03T09:09:42.177Z</time></trkpt><trkpt lat="44.7608979" lon="9.0717046"><ele>401.0</ele><time>2026-05-03T09:09:44.173Z</time></trkpt><trkpt lat="44.7608336" lon="9.0717546"><ele>400.99999999999994</ele><time>2026-05-03T09:21:04.179Z</time></trkpt><trkpt lat="44.760777" lon="9.0717992"><ele>401.0</ele><time>2026-05-03T09:21:06.171Z</time></trkpt><trkpt lat="44.7607086" lon="9.0718476"><ele>403.0</ele><time>2026-05-03T09:21:10.173Z</time></trkpt><trkpt lat="44.7606383" lon="9.07191"><ele>405.0</ele><time>2026-05-03T09:21:13.176Z</time></trkpt><trkpt lat="44.7603565" lon="9.0723096"><ele>407.0</ele><time>2026-05-03T09:21:14.17Z</time></trkpt><trkpt lat="44.7602518" lon="9.0725038"><ele>409.0</ele><time>2026-05-03T09:21:15.177Z</time></trkpt><trkpt lat="44.7601547" lon="9.0726602"><ele>411.0</ele><time>2026-05-03T09:21:16.171Z</time></trkpt><trkpt lat="44.7600456" lon="9.0727978"><ele>411.6</ele><time>2026-05-03T09:21:17.177Z</time></trkpt><trkpt lat="44.7599592" lon="9.0729034"><ele>412.20000000000005</ele><time>2026-05-03T09:21:18.18Z</time></trkpt><trkpt lat="44.7598512" lon="9.0729654"><ele>412.79999999999995</ele><time>2026-05-03T09:21:19.174Z</time></trkpt><trkpt lat="44.7597548" lon="9.0729993"><ele>413.4</ele><time>2026-05-03T09:21:20.174Z</time></trkpt><trkpt lat="44.7597458" lon="9.0728859"><ele>414.0</ele><time>2026-05-03T09:21:21.178Z</time></trkpt><trkpt lat="44.7596976" lon="9.0728248"><ele>414.0</ele><time>2026-05-03T09:21:22.174Z</time></trkpt><trkpt lat="44.7595973" lon="9.0728001"><ele>414.0</ele><time>2026-05-03T09:21:23.179Z</time></trkpt><trkpt lat="44.7595076" lon="9.072792"><ele>414.0</ele><time>2026-05-03T09:21:24.171Z</time></trkpt><trkpt lat="44.7594266" lon="9.0727983"><ele>414.0</ele><time>2026-05-03T09:21:25.174Z</time></trkpt><trkpt lat="44.7593497" lon="9.0728187"><ele>414.0</ele><time>2026-05-03T09:21:26.173Z</time></trkpt><trkpt lat="44.7592627" lon="9.0728414"><ele>414.0</ele><time>2026-05-03T09:21:27.175Z</time></trkpt><trkpt lat="44.7591925" lon="9.0729136"><ele>416.3333333333333</ele><time>2026-05-03T09:21:28.173Z</time></trkpt><trkpt lat="44.759119" lon="9.0730096"><ele>418.66666666666663</ele><time>2026-05-03T09:21:29.184Z</time></trkpt><trkpt lat="44.7590503" lon="9.0730939"><ele>421.0</ele><time>2026-05-03T09:21:30.174Z</time></trkpt><trkpt lat="44.7590034" lon="9.0731709"><ele>423.3333333333333</ele><time>2026-05-03T09:21:31.176Z</time></trkpt><trkpt lat="44.7589522" lon="9.0732297"><ele>425.66666666666663</ele><time>2026-05-03T09:21:32.177Z</time></trkpt><trkpt lat="44.7588669" lon="9.0732712"><ele>428.0</ele><time>2026-05-03T09:21:33.174Z</time></trkpt><trkpt lat="44.7587514" lon="9.0733129"><ele>428.79999999999995</ele><time>2026-05-03T09:21:34.175Z</time></trkpt><trkpt lat="44.7586596" lon="9.0733667"><ele>429.59999999999997</ele><time>2026-05-03T09:21:35.174Z</time></trkpt><trkpt lat="44.7585683" lon="9.0734242"><ele>430.40000000000003</ele><time>2026-05-03T09:21:36.179Z</time></trkpt><trkpt lat="44.7584888" lon="9.0735142"><ele>431.20000000000005</ele><time>2026-05-03T09:21:37.177Z</time></trkpt><trkpt lat="44.7584004" lon="9.0736234"><ele>432.0</ele><time>2026-05-03T09:21:38.168Z</time></trkpt><trkpt lat="44.758318" lon="9.0737028"><ele>434.40000000000003</ele><time>2026-05-03T09:21:39.175Z</time></trkpt><trkpt lat="44.7582249" lon="9.0737891"><ele>436.80000000000007</ele><time>2026-05-03T09:21:40.172Z</time></trkpt><trkpt lat="44.7581351" lon="9.0738599"><ele>439.2</ele><time>2026-05-03T09:21:41.174Z</time></trkpt><trkpt lat="44.7580623" lon="9.073938"><ele>441.6</ele><time>2026-05-03T09:21:42.173Z</time></trkpt><trkpt lat="44.7579987" lon="9.0740604"><ele>444.0</ele><time>2026-05-03T09:21:43.171Z</time></trkpt><trkpt lat="44.7579554" lon="9.0742072"><ele>445.0</ele><time>2026-05-03T09:21:44.169Z</time></trkpt><trkpt lat="44.7579114" lon="9.0743729"><ele>446.0</ele><time>2026-05-03T09:21:45.177Z</time></trkpt><trkpt lat="44.7578675" lon="9.0745459"><ele>447.0</ele><time>2026-05-03T09:21:46.17Z</time></trkpt><trkpt lat="44.7578127" lon="9.0747282"><ele>448.0</ele><time>2026-05-03T09:21:47.177Z</time></trkpt><trkpt lat="44.7577607" lon="9.0749084"><ele>447.50000000000006</ele><time>2026-05-03T09:21:48.175Z</time></trkpt><trkpt lat="44.7577227" lon="9.0750324"><ele>447.0</ele><time>2026-05-03T09:21:49.175Z</time></trkpt><trkpt lat="44.7576939" lon="9.0751618"><ele>446.5</ele><time>2026-05-03T09:21:50.179Z</time></trkpt><trkpt lat="44.7577039" lon="9.0752882"><ele>446.0</ele><time>2026-05-03T09:21:52.175Z</time></trkpt><trkpt lat="44.7576568" lon="9.0753534"><ele>445.50000000000006</ele><time>2026-05-03T09:21:53.179Z</time></trkpt><trkpt lat="44.7575882" lon="9.0754375"><ele>445.0</ele><time>2026-05-03T09:21:54.177Z</time></trkpt><trkpt lat="44.7575148" lon="9.0755502"><ele>449.8</ele><time>2026-05-03T09:21:55.177Z</time></trkpt><trkpt lat="44.7574481" lon="9.0756848"><ele>454.6</ele><time>2026-05-03T09:21:56.173Z</time></trkpt><trkpt lat="44.7573835" lon="9.0757825"><ele>459.4</ele><time>2026-05-03T09:21:57.175Z</time></trkpt><trkpt lat="44.7573115" lon="9.0758696"><ele>464.2</ele><time>2026-05-03T09:21:58.172Z</time></trkpt><trkpt lat="44.7572227" lon="9.0759657"><ele>469.0</ele><time>2026-05-03T09:21:59.171Z</time></trkpt><trkpt lat="44.757152" lon="9.0760346"><ele>469.6666666666667</ele><time>2026-05-03T09:22:00.173Z</time></trkpt><trkpt lat="44.7570841" lon="9.0760699"><ele>470.33333333333337</ele><time>2026-05-03T09:22:01.174Z</time></trkpt><trkpt lat="44.7570008" lon="9.0760804"><ele>471.0</ele><time>2026-05-03T09:22:02.173Z</time></trkpt><trkpt lat="44.7569144" lon="9.0760637"><ele>471.66666666666663</ele><time>2026-05-03T09:22:03.178Z</time></trkpt><trkpt lat="44.7568309" lon="9.0760267"><ele>472.3333333333333</ele><time>2026-05-03T09:22:04.175Z</time></trkpt><trkpt lat="44.7567514" lon="9.0760181"><ele>473.0</ele><time>2026-05-03T09:22:05.176Z</time></trkpt><trkpt lat="44.7566539" lon="9.0760456"><ele>476.79999999999995</ele><time>2026-05-03T09:22:06.175Z</time></trkpt><trkpt lat="44.7565546" lon="9.0760787"><ele>480.59999999999997</ele><time>2026-05-03T09:22:07.178Z</time></trkpt><trkpt lat="44.7564541" lon="9.0761027"><ele>484.40000000000003</ele><time>2026-05-03T09:22:08.171Z</time></trkpt><trkpt lat="44.7563609" lon="9.0761115"><ele>488.20000000000005</ele><time>2026-05-03T09:22:09.173Z</time></trkpt><trkpt lat="44.75626" lon="9.0761028"><ele>492.0</ele><time>2026-05-03T09:22:10.174Z</time></trkpt><trkpt lat="44.756153" lon="9.0760851"><ele>492.0</ele><time>2026-05-03T09:22:11.17Z</time></trkpt><trkpt lat="44.7560614" lon="9.0760682"><ele>492.0</ele><time>2026-05-03T09:22:12.171Z</time></trkpt><trkpt lat="44.7559893" lon="9.0760738"><ele>492.0</ele><time>2026-05-03T09:22:13.174Z</time></trkpt><trkpt lat="44.7559475" lon="9.0761554"><ele>492.0</ele><time>2026-05-03T09:22:16.176Z</time></trkpt><trkpt lat="44.755926" lon="9.0762773"><ele>492.0</ele><time>2026-05-03T09:22:19.18Z</time></trkpt><trkpt lat="44.7558975" lon="9.0763677"><ele>492.0</ele><time>2026-05-03T09:22:23.174Z</time></trkpt><trkpt lat="44.7558141" lon="9.076449"><ele>499.66666666666663</ele><time>2026-05-03T09:22:24.171Z</time></trkpt><trkpt lat="44.7556328" lon="9.0766697"><ele>507.3333333333333</ele><time>2026-05-03T09:22:25.169Z</time></trkpt><trkpt lat="44.755533" lon="9.076814"><ele>515.0</ele><time>2026-05-03T09:22:26.169Z</time></trkpt><trkpt lat="44.7555037" lon="9.0769256"><ele>515.0</ele><time>2026-05-03T09:22:27.174Z</time></trkpt><trkpt lat="44.7554982" lon="9.0770259"><ele>515.0</ele><time>2026-05-03T09:22:28.174Z</time></trkpt><trkpt lat="44.7554903" lon="9.0771348"><ele>515.0</ele><time>2026-05-03T09:22:29.18Z</time></trkpt><trkpt lat="44.7554864" lon="9.0772471"><ele>515.0</ele><time>2026-05-03T09:22:30.183Z</time></trkpt><trkpt lat="44.755483" lon="9.0773692"><ele>515.0</ele><time>2026-05-03T09:22:31.176Z</time></trkpt><trkpt lat="44.7555092" lon="9.0774783"><ele>515.0</ele><time>2026-05-03T09:22:32.176Z</time></trkpt><trkpt lat="44.7555462" lon="9.0775873"><ele>515.6</ele><time>2026-05-03T09:22:33.174Z</time></trkpt><trkpt lat="44.7555701" lon="9.0776725"><ele>516.2</ele><time>2026-05-03T09:22:34.173Z</time></trkpt><trkpt lat="44.7555825" lon="9.0778324"><ele>516.8</ele><time>2026-05-03T09:22:36.173Z</time></trkpt><trkpt lat="44.7554994" lon="9.0778625"><ele>517.4</ele><time>2026-05-03T09:22:37.172Z</time></trkpt><trkpt lat="44.7553926" lon="9.0778795"><ele>518.0</ele><time>2026-05-03T09:22:38.182Z</time></trkpt><trkpt lat="44.7552835" lon="9.0778855"><ele>522.4</ele><time>2026-05-03T09:22:39.182Z</time></trkpt><trkpt lat="44.7551626" lon="9.0778896"><ele>526.8</ele><time>2026-05-03T09:22:40.171Z</time></trkpt><trkpt lat="44.755035" lon="9.0778858"><ele>531.2</ele><time>2026-05-03T09:22:41.176Z</time></trkpt><trkpt lat="44.7549395" lon="9.0779087"><ele>535.6</ele><time>2026-05-03T09:22:42.186Z</time></trkpt><trkpt lat="44.754843" lon="9.0779389"><ele>540.0</ele><time>2026-05-03T09:22:43.18Z</time></trkpt><trkpt lat="44.7547435" lon="9.0779579"><ele>540.0</ele><time>2026-05-03T09:22:44.17Z</time></trkpt><trkpt lat="44.7546574" lon="9.0779732"><ele>540.0</ele><time>2026-05-03T09:22:45.175Z</time></trkpt><trkpt lat="44.7545676" lon="9.0779647"><ele>540.0</ele><time>2026-05-03T09:22:46.173Z</time></trkpt><trkpt lat="44.7545186" lon="9.0778939"><ele>540.0</ele><time>2026-05-03T09:22:47.177Z</time></trkpt><trkpt lat="44.7544661" lon="9.077828"><ele>540.0</ele><time>2026-05-03T09:22:48.175Z</time></trkpt><trkpt lat="44.7543902" lon="9.0777843"><ele>540.0</ele><time>2026-05-03T09:22:49.172Z</time></trkpt><trkpt lat="44.7542776" lon="9.0778075"><ele>544.6</ele><time>2026-05-03T09:22:51.178Z</time></trkpt><trkpt lat="44.7541928" lon="9.0777622"><ele>549.2</ele><time>2026-05-03T09:22:53.175Z</time></trkpt><trkpt lat="44.7541211" lon="9.0776632"><ele>553.8</ele><time>2026-05-03T09:22:54.179Z</time></trkpt><trkpt lat="44.7540345" lon="9.0775708"><ele>558.4</ele><time>2026-05-03T09:22:55.189Z</time></trkpt><trkpt lat="44.7539647" lon="9.0774961"><ele>563.0</ele><time>2026-05-03T09:22:56.178Z</time></trkpt><trkpt lat="44.7538526" lon="9.0774555"><ele>563.0</ele><time>2026-05-03T09:22:58.173Z</time></trkpt><trkpt lat="44.7537135" lon="9.0775358"><ele>563.0</ele><time>2026-05-03T09:23:00.178Z</time></trkpt><trkpt lat="44.7535771" lon="9.0776232"><ele>563.0</ele><time>2026-05-03T09:23:01.179Z</time></trkpt><trkpt lat="44.7534653" lon="9.0777078"><ele>563.0</ele><time>2026-05-03T09:23:02.175Z</time></trkpt><trkpt lat="44.7533857" lon="9.0778177"><ele>563.6</ele><time>2026-05-03T09:23:03.179Z</time></trkpt><trkpt lat="44.7533242" lon="9.0779259"><ele>564.1999999999999</ele><time>2026-05-03T09:23:04.172Z</time></trkpt><trkpt lat="44.7532778" lon="9.0780143"><ele>564.8</ele><time>2026-05-03T09:23:05.176Z</time></trkpt><trkpt lat="44.7532425" lon="9.0781383"><ele>565.4</ele><time>2026-05-03T09:23:07.181Z</time></trkpt><trkpt lat="44.7531836" lon="9.0783379"><ele>566.0</ele><time>2026-05-03T09:23:09.177Z</time></trkpt><trkpt lat="44.7531459" lon="9.0784884"><ele>566.8333333333333</ele><time>2026-05-03T09:23:10.174Z</time></trkpt><trkpt lat="44.7531191" lon="9.0786192"><ele>567.6666666666666</ele><time>2026-05-03T09:23:11.171Z</time></trkpt><trkpt lat="44.7531211" lon="9.0787274"><ele>568.5</ele><time>2026-05-03T09:23:12.172Z</time></trkpt><trkpt lat="44.7531354" lon="9.078851"><ele>569.3333333333334</ele><time>2026-05-03T09:23:13.177Z</time></trkpt><trkpt lat="44.7531307" lon="9.0789746"><ele>570.1666666666667</ele><time>2026-05-03T09:23:14.174Z</time></trkpt><trkpt lat="44.7531186" lon="9.0790926"><ele>571.0</ele><time>2026-05-03T09:23:15.172Z</time></trkpt><trkpt lat="44.7530867" lon="9.0791964"><ele>571.0</ele><time>2026-05-03T09:23:16.17Z</time></trkpt><trkpt lat="44.7530704" lon="9.0793119"><ele>571.0</ele><time>2026-05-03T09:23:18.172Z</time></trkpt><trkpt lat="44.7530831" lon="9.0794057"><ele>571.0</ele><time>2026-05-03T09:23:22.171Z</time></trkpt><trkpt lat="44.7530423" lon="9.0795024"><ele>571.0</ele><time>2026-05-03T09:23:26.181Z</time></trkpt><trkpt lat="44.752949" lon="9.0796455"><ele>571.0</ele><time>2026-05-03T09:23:28.171Z</time></trkpt><trkpt lat="44.7528507" lon="9.0797744"><ele>571.0</ele><time>2026-05-03T09:23:29.171Z</time></trkpt><trkpt lat="44.7527825" lon="9.0798227"><ele>571.0</ele><time>2026-05-03T09:23:30.172Z</time></trkpt><trkpt lat="44.7527201" lon="9.0798595"><ele>571.0</ele><time>2026-05-03T09:23:31.171Z</time></trkpt><trkpt lat="44.752645" lon="9.079976"><ele>571.0</ele><time>2026-05-03T09:23:33.183Z</time></trkpt><trkpt lat="44.7526446" lon="9.0800894"><ele>571.0</ele><time>2026-05-03T09:23:35.17Z</time></trkpt><trkpt lat="44.7526793" lon="9.0801828"><ele>571.0</ele><time>2026-05-03T09:23:38.174Z</time></trkpt><trkpt lat="44.7527277" lon="9.0802414"><ele>570.75</ele><time>2026-05-03T09:23:42.174Z</time></trkpt><trkpt lat="44.7528084" lon="9.080356"><ele>570.5</ele><time>2026-05-03T09:23:45.181Z</time></trkpt><trkpt lat="44.7529185" lon="9.0806788"><ele>570.25</ele><time>2026-05-03T09:23:46.173Z</time></trkpt><trkpt lat="44.7529538" lon="9.0807602"><ele>570.0</ele><time>2026-05-03T09:23:47.17Z</time></trkpt><trkpt lat="44.7529822" lon="9.080869"><ele>570.6</ele><time>2026-05-03T09:23:48.168Z</time></trkpt><trkpt lat="44.7529719" lon="9.0809963"><ele>571.2</ele><time>2026-05-03T09:23:49.173Z</time></trkpt><trkpt lat="44.7529849" lon="9.0811205"><ele>571.8</ele><time>2026-05-03T09:23:50.18Z</time></trkpt><trkpt lat="44.7530255" lon="9.0812314"><ele>572.4</ele><time>2026-05-03T09:23:52.172Z</time></trkpt><trkpt lat="44.7530998" lon="9.0813852"><ele>573.0</ele><time>2026-05-03T09:23:54.173Z</time></trkpt><trkpt lat="44.7531479" lon="9.0815024"><ele>574.5</ele><time>2026-05-03T09:23:55.181Z</time></trkpt><trkpt lat="44.7531865" lon="9.08163"><ele>576.0</ele><time>2026-05-03T09:23:56.178Z</time></trkpt><trkpt lat="44.7531697" lon="9.0817763"><ele>577.5</ele><time>2026-05-03T09:23:57.172Z</time></trkpt><trkpt lat="44.7531543" lon="9.0818801"><ele>579.0</ele><time>2026-05-03T09:23:58.174Z</time></trkpt><trkpt lat="44.7531989" lon="9.0819505"><ele>580.5</ele><time>2026-05-03T09:24:01.181Z</time></trkpt><trkpt lat="44.7532577" lon="9.0820233"><ele>582.0</ele><time>2026-05-03T09:24:05.175Z</time></trkpt><trkpt lat="44.7533824" lon="9.0821262"><ele>577.75</ele><time>2026-05-03T09:24:08.17Z</time></trkpt><trkpt lat="44.7535822" lon="9.0821964"><ele>573.5</ele><time>2026-05-03T09:24:09.176Z</time></trkpt><trkpt lat="44.7536576" lon="9.0823155"><ele>569.25</ele><time>2026-05-03T09:24:10.167Z</time></trkpt><trkpt lat="44.7537003" lon="9.0824252"><ele>565.0</ele><time>2026-05-03T09:24:11.17Z</time></trkpt><trkpt lat="44.7537323" lon="9.0825155"><ele>565.0</ele><time>2026-05-03T09:24:12.175Z</time></trkpt><trkpt lat="44.7537724" lon="9.0826249"><ele>565.0</ele><time>2026-05-03T09:24:13.177Z</time></trkpt><trkpt lat="44.7538219" lon="9.0827342"><ele>565.0</ele><time>2026-05-03T09:24:14.169Z</time></trkpt><trkpt lat="44.7538922" lon="9.0828437"><ele>565.0</ele><time>2026-05-03T09:24:15.171Z</time></trkpt><trkpt lat="44.7539246" lon="9.0829496"><ele>565.0</ele><time>2026-05-03T09:24:16.175Z</time></trkpt><trkpt lat="44.753969" lon="9.0830894"><ele>565.0</ele><time>2026-05-03T09:24:17.176Z</time></trkpt><trkpt lat="44.7539916" lon="9.0832196"><ele>565.0</ele><time>2026-05-03T09:24:18.172Z</time></trkpt><trkpt lat="44.7540213" lon="9.0833141"><ele>565.0</ele><time>2026-05-03T09:24:19.174Z</time></trkpt><trkpt lat="44.7539753" lon="9.0834442"><ele>565.0</ele><time>2026-05-03T09:24:20.179Z</time></trkpt><trkpt lat="44.7539678" lon="9.0835609"><ele>565.0</ele><time>2026-05-03T09:24:21.177Z</time></trkpt><trkpt lat="44.7539596" lon="9.0836728"><ele>565.0</ele><time>2026-05-03T09:24:22.171Z</time></trkpt><trkpt lat="44.7539551" lon="9.0837839"><ele>565.6</ele><time>2026-05-03T09:24:23.175Z</time></trkpt><trkpt lat="44.7540021" lon="9.0839308"><ele>566.2</ele><time>2026-05-03T09:24:25.175Z</time></trkpt><trkpt lat="44.7540372" lon="9.0840844"><ele>566.8</ele><time>2026-05-03T09:24:27.178Z</time></trkpt><trkpt lat="44.7540517" lon="9.0841707"><ele>567.4</ele><time>2026-05-03T09:24:28.176Z</time></trkpt><trkpt lat="44.7540674" lon="9.0843409"><ele>568.0</ele><time>2026-05-03T09:24:30.174Z</time></trkpt><trkpt lat="44.7540867" lon="9.0844683"><ele>568.0</ele><time>2026-05-03T09:24:31.178Z</time></trkpt><trkpt lat="44.7541152" lon="9.0846087"><ele>568.0</ele><time>2026-05-03T09:24:32.179Z</time></trkpt><trkpt lat="44.7541461" lon="9.084763"><ele>568.0</ele><time>2026-05-03T09:24:34.174Z</time></trkpt><trkpt lat="44.7541476" lon="9.0848789"><ele>568.0</ele><time>2026-05-03T09:24:35.175Z</time></trkpt><trkpt lat="44.7541464" lon="9.0850078"><ele>568.0</ele><time>2026-05-03T09:24:36.174Z</time></trkpt><trkpt lat="44.7541313" lon="9.0851218"><ele>567.8333333333334</ele><time>2026-05-03T09:24:37.174Z</time></trkpt><trkpt lat="44.7541259" lon="9.0852431"><ele>567.6666666666667</ele><time>2026-05-03T09:24:38.175Z</time></trkpt><trkpt lat="44.7541159" lon="9.0853805"><ele>567.5</ele><time>2026-05-03T09:24:39.171Z</time></trkpt><trkpt lat="44.7541212" lon="9.0854917"><ele>567.3333333333334</ele><time>2026-05-03T09:24:40.173Z</time></trkpt><trkpt lat="44.7541355" lon="9.0856064"><ele>567.1666666666666</ele><time>2026-05-03T09:24:41.174Z</time></trkpt><trkpt lat="44.7541675" lon="9.0857149"><ele>567.0</ele><time>2026-05-03T09:24:43.17Z</time></trkpt><trkpt lat="44.7541813" lon="9.0858719"><ele>566.8000000000001</ele><time>2026-05-03T09:24:45.177Z</time></trkpt><trkpt lat="44.7542226" lon="9.0859591"><ele>566.6</ele><time>2026-05-03T09:24:46.177Z</time></trkpt><trkpt lat="44.7542837" lon="9.0860422"><ele>566.4000000000001</ele><time>2026-05-03T09:24:47.174Z</time></trkpt><trkpt lat="44.7543383" lon="9.0861355"><ele>566.2</ele><time>2026-05-03T09:24:48.176Z</time></trkpt><trkpt lat="44.7543987" lon="9.0862461"><ele>566.0</ele><time>2026-05-03T09:24:49.175Z</time></trkpt><trkpt lat="44.754465" lon="9.0863656"><ele>562.6</ele><time>2026-05-03T09:24:51.173Z</time></trkpt><trkpt lat="44.7544667" lon="9.0865095"><ele>559.2</ele><time>2026-05-03T09:24:53.171Z</time></trkpt><trkpt lat="44.7545627" lon="9.0866175"><ele>555.8</ele><time>2026-05-03T09:24:55.182Z</time></trkpt><trkpt lat="44.7546134" lon="9.0866743"><ele>552.4</ele><time>2026-05-03T09:24:56.179Z</time></trkpt><trkpt lat="44.7546706" lon="9.086739"><ele>549.0</ele><time>2026-05-03T09:24:57.176Z</time></trkpt><trkpt lat="44.7547469" lon="9.0868364"><ele>548.8</ele><time>2026-05-03T09:24:58.17Z</time></trkpt><trkpt lat="44.7548275" lon="9.0869191"><ele>548.5999999999999</ele><time>2026-05-03T09:24:59.172Z</time></trkpt><trkpt lat="44.7549454" lon="9.0870284"><ele>548.4</ele><time>2026-05-03T09:25:00.175Z</time></trkpt><trkpt lat="44.7550214" lon="9.0871284"><ele>548.1999999999999</ele><time>2026-05-03T09:25:01.18Z</time></trkpt><trkpt lat="44.7550809" lon="9.0872093"><ele>548.0</ele><time>2026-05-03T09:25:02.175Z</time></trkpt><trkpt lat="44.7551414" lon="9.0872677"><ele>547.6</ele><time>2026-05-03T09:25:03.171Z</time></trkpt><trkpt lat="44.7552107" lon="9.0873974"><ele>547.1999999999999</ele><time>2026-05-03T09:25:05.171Z</time></trkpt><trkpt lat="44.7552532" lon="9.0875623"><ele>546.8</ele><time>2026-05-03T09:25:07.176Z</time></trkpt><trkpt lat="44.7552432" lon="9.0876917"><ele>546.4</ele><time>2026-05-03T09:25:09.172Z</time></trkpt><trkpt lat="44.7552568" lon="9.087818"><ele>546.0</ele><time>2026-05-03T09:25:11.176Z</time></trkpt><trkpt lat="44.7553424" lon="9.0878356"><ele>546.0</ele><time>2026-05-03T09:26:58.171Z</time></trkpt><trkpt lat="44.7554497" lon="9.087911"><ele>546.0</ele><time>2026-05-03T09:27:00.173Z</time></trkpt><trkpt lat="44.7554976" lon="9.0879788"><ele>546.0</ele><time>2026-05-03T09:27:01.184Z</time></trkpt><trkpt lat="44.7555432" lon="9.0880581"><ele>546.0</ele><time>2026-05-03T09:27:02.178Z</time></trkpt><trkpt lat="44.7555796" lon="9.0881364"><ele>546.0</ele><time>2026-05-03T09:27:03.171Z</time></trkpt><trkpt lat="44.7556277" lon="9.0882073"><ele>546.0</ele><time>2026-05-03T09:27:04.171Z</time></trkpt><trkpt lat="44.7557369" lon="9.0882785"><ele>546.3333333333334</ele><time>2026-05-03T09:27:06.173Z</time></trkpt><trkpt lat="44.7558237" lon="9.0883287"><ele>546.6666666666666</ele><time>2026-05-03T09:27:07.173Z</time></trkpt><trkpt lat="44.7559174" lon="9.0884066"><ele>547.0</ele><time>2026-05-03T09:27:08.173Z</time></trkpt><trkpt lat="44.7559845" lon="9.0884789"><ele>547.3333333333333</ele><time>2026-05-03T09:27:09.172Z</time></trkpt><trkpt lat="44.7560238" lon="9.0885734"><ele>547.6666666666666</ele><time>2026-05-03T09:27:10.177Z</time></trkpt><trkpt lat="44.7560775" lon="9.0886646"><ele>548.0</ele><time>2026-05-03T09:27:11.173Z</time></trkpt><trkpt lat="44.7561326" lon="9.0887759"><ele>548.0</ele><time>2026-05-03T09:27:13.172Z</time></trkpt><trkpt lat="44.7563025" lon="9.0887309"><ele>548.0</ele><time>2026-05-03T09:27:15.175Z</time></trkpt><trkpt lat="44.756394" lon="9.0887037"><ele>548.0</ele><time>2026-05-03T09:27:16.184Z</time></trkpt><trkpt lat="44.7564682" lon="9.0886563"><ele>548.0</ele><time>2026-05-03T09:27:17.178Z</time></trkpt><trkpt lat="44.7565676" lon="9.0886056"><ele>548.0</ele><time>2026-05-03T09:27:18.176Z</time></trkpt><trkpt lat="44.7566756" lon="9.0885775"><ele>548.0</ele><time>2026-05-03T09:27:19.177Z</time></trkpt><trkpt lat="44.7567705" lon="9.0885725"><ele>548.0</ele><time>2026-05-03T09:27:20.172Z</time></trkpt><trkpt lat="44.7568563" lon="9.0885605"><ele>548.0</ele><time>2026-05-03T09:27:21.174Z</time></trkpt><trkpt lat="44.7569986" lon="9.0885909"><ele>548.0</ele><time>2026-05-03T09:27:23.172Z</time></trkpt><trkpt lat="44.7570649" lon="9.0886388"><ele>550.25</ele><time>2026-05-03T09:27:24.171Z</time></trkpt><trkpt lat="44.7571473" lon="9.0887235"><ele>552.5</ele><time>2026-05-03T09:27:25.18Z</time></trkpt><trkpt lat="44.7572116" lon="9.0888351"><ele>554.75</ele><time>2026-05-03T09:27:26.175Z</time></trkpt><trkpt lat="44.7573198" lon="9.0889048"><ele>557.0</ele><time>2026-05-03T09:27:27.177Z</time></trkpt><trkpt lat="44.7574252" lon="9.0890215"><ele>560.0</ele><time>2026-05-03T09:27:28.172Z</time></trkpt><trkpt lat="44.7575159" lon="9.0890955"><ele>563.0</ele><time>2026-05-03T09:27:29.172Z</time></trkpt><trkpt lat="44.7575976" lon="9.0891286"><ele>566.0</ele><time>2026-05-03T09:27:30.176Z</time></trkpt><trkpt lat="44.7576865" lon="9.0891293"><ele>569.0</ele><time>2026-05-03T09:27:31.169Z</time></trkpt><trkpt lat="44.7577739" lon="9.0891376"><ele>572.0</ele><time>2026-05-03T09:27:32.176Z</time></trkpt><trkpt lat="44.7578611" lon="9.0891596"><ele>572.8000000000001</ele><time>2026-05-03T09:27:33.178Z</time></trkpt><trkpt lat="44.7579237" lon="9.0891983"><ele>573.6</ele><time>2026-05-03T09:27:34.175Z</time></trkpt><trkpt lat="44.7579694" lon="9.0892889"><ele>574.4000000000001</ele><time>2026-05-03T09:27:35.175Z</time></trkpt><trkpt lat="44.7580554" lon="9.0893885"><ele>575.2</ele><time>2026-05-03T09:27:36.174Z</time></trkpt><trkpt lat="44.7581373" lon="9.089509"><ele>576.0</ele><time>2026-05-03T09:27:37.171Z</time></trkpt><trkpt lat="44.7582408" lon="9.0895852"><ele>576.0</ele><time>2026-05-03T09:27:38.181Z</time></trkpt><trkpt lat="44.7583388" lon="9.0896533"><ele>576.0</ele><time>2026-05-03T09:27:39.172Z</time></trkpt><trkpt lat="44.7584848" lon="9.0896509"><ele>576.0</ele><time>2026-05-03T09:27:40.181Z</time></trkpt><trkpt lat="44.7586496" lon="9.0896381"><ele>576.0</ele><time>2026-05-03T09:27:41.168Z</time></trkpt><trkpt lat="44.7587855" lon="9.0896418"><ele>578.2</ele><time>2026-05-03T09:27:42.17Z</time></trkpt><trkpt lat="44.7589029" lon="9.0896439"><ele>580.4000000000001</ele><time>2026-05-03T09:27:43.171Z</time></trkpt><trkpt lat="44.7589802" lon="9.0896114"><ele>582.6</ele><time>2026-05-03T09:27:44.176Z</time></trkpt><trkpt lat="44.7590603" lon="9.0895359"><ele>584.8000000000001</ele><time>2026-05-03T09:27:45.172Z</time></trkpt><trkpt lat="44.7591377" lon="9.0894388"><ele>587.0</ele><time>2026-05-03T09:27:46.181Z</time></trkpt><trkpt lat="44.7591728" lon="9.0893358"><ele>587.0</ele><time>2026-05-03T09:27:47.173Z</time></trkpt><trkpt lat="44.7591862" lon="9.0892131"><ele>587.0</ele><time>2026-05-03T09:27:48.171Z</time></trkpt><trkpt lat="44.7591953" lon="9.0890784"><ele>587.0</ele><time>2026-05-03T09:27:49.172Z</time></trkpt><trkpt lat="44.7592145" lon="9.0889622"><ele>587.0</ele><time>2026-05-03T09:27:50.171Z</time></trkpt><trkpt lat="44.7592582" lon="9.0888944"><ele>587.0</ele><time>2026-05-03T09:27:51.175Z</time></trkpt><trkpt lat="44.7594066" lon="9.0888862"><ele>588.0</ele><time>2026-05-03T09:27:53.178Z</time></trkpt><trkpt lat="44.7595542" lon="9.0888485"><ele>589.0</ele><time>2026-05-03T09:27:54.179Z</time></trkpt><trkpt lat="44.7597095" lon="9.0887904"><ele>590.0</ele><time>2026-05-03T09:27:55.184Z</time></trkpt><trkpt lat="44.7598116" lon="9.0887132"><ele>591.0</ele><time>2026-05-03T09:27:56.17Z</time></trkpt><trkpt lat="44.7598824" lon="9.0886397"><ele>591.0</ele><time>2026-05-03T09:27:57.173Z</time></trkpt><trkpt lat="44.7599364" lon="9.088562"><ele>591.0</ele><time>2026-05-03T09:27:58.171Z</time></trkpt><trkpt lat="44.7599881" lon="9.0884669"><ele>591.0</ele><time>2026-05-03T09:27:59.179Z</time></trkpt><trkpt lat="44.7600373" lon="9.088352"><ele>591.0</ele><time>2026-05-03T09:28:00.176Z</time></trkpt><trkpt lat="44.760054" lon="9.0882248"><ele>591.0</ele><time>2026-05-03T09:28:01.175Z</time></trkpt><trkpt lat="44.7600725" lon="9.0881279"><ele>591.0</ele><time>2026-05-03T09:28:02.172Z</time></trkpt><trkpt lat="44.76008" lon="9.0880213"><ele>589.6666666666666</ele><time>2026-05-03T09:28:04.178Z</time></trkpt><trkpt lat="44.7601108" lon="9.0879177"><ele>588.3333333333334</ele><time>2026-05-03T09:28:08.177Z</time></trkpt><trkpt lat="44.7601801" lon="9.0878669"><ele>587.0</ele><time>2026-05-03T09:28:12.18Z</time></trkpt><trkpt lat="44.7602449" lon="9.087875"><ele>585.6666666666667</ele><time>2026-05-03T09:28:51.177Z</time></trkpt><trkpt lat="44.76033" lon="9.0879658"><ele>584.3333333333334</ele><time>2026-05-03T09:28:53.171Z</time></trkpt><trkpt lat="44.7603742" lon="9.0880861"><ele>583.0</ele><time>2026-05-03T09:28:55.179Z</time></trkpt><trkpt lat="44.7603423" lon="9.0881631"><ele>582.4</ele><time>2026-05-03T09:28:57.178Z</time></trkpt><trkpt lat="44.7602617" lon="9.0882596"><ele>581.8</ele><time>2026-05-03T09:28:59.175Z</time></trkpt><trkpt lat="44.7602381" lon="9.088366"><ele>581.2</ele><time>2026-05-03T09:29:00.189Z</time></trkpt><trkpt lat="44.7602587" lon="9.0884917"><ele>580.6</ele><time>2026-05-03T09:29:01.179Z</time></trkpt><trkpt lat="44.7602744" lon="9.0886272"><ele>580.0</ele><time>2026-05-03T09:29:02.176Z</time></trkpt><trkpt lat="44.7602757" lon="9.0887812"><ele>582.0</ele><time>2026-05-03T09:29:03.178Z</time></trkpt><trkpt lat="44.7602632" lon="9.0889107"><ele>584.0</ele><time>2026-05-03T09:29:04.175Z</time></trkpt><trkpt lat="44.7602542" lon="9.0890241"><ele>586.0</ele><time>2026-05-03T09:29:05.174Z</time></trkpt><trkpt lat="44.7602423" lon="9.0891361"><ele>588.0</ele><time>2026-05-03T09:29:06.173Z</time></trkpt><trkpt lat="44.7602563" lon="9.089294"><ele>590.0</ele><time>2026-05-03T09:29:07.171Z</time></trkpt><trkpt lat="44.7602528" lon="9.0894682"><ele>591.5</ele><time>2026-05-03T09:29:08.173Z</time></trkpt><trkpt lat="44.7602593" lon="9.0896371"><ele>593.0</ele><time>2026-05-03T09:29:09.174Z</time></trkpt><trkpt lat="44.7602766" lon="9.0898022"><ele>594.5</ele><time>2026-05-03T09:29:10.178Z</time></trkpt><trkpt lat="44.760306" lon="9.0899414"><ele>596.0</ele><time>2026-05-03T09:29:11.174Z</time></trkpt><trkpt lat="44.7603193" lon="9.0900988"><ele>597.3333333333333</ele><time>2026-05-03T09:29:12.173Z</time></trkpt><trkpt lat="44.7603314" lon="9.0902418"><ele>598.6666666666666</ele><time>2026-05-03T09:29:13.177Z</time></trkpt><trkpt lat="44.7603556" lon="9.090326"><ele>600.0</ele><time>2026-05-03T09:29:14.171Z</time></trkpt><trkpt lat="44.7603617" lon="9.0904161"><ele>601.3333333333334</ele><time>2026-05-03T09:29:15.18Z</time></trkpt><trkpt lat="44.7603387" lon="9.0905101"><ele>602.6666666666667</ele><time>2026-05-03T09:29:16.171Z</time></trkpt><trkpt lat="44.76032" lon="9.0906236"><ele>604.0</ele><time>2026-05-03T09:29:17.17Z</time></trkpt><trkpt lat="44.7602869" lon="9.090737"><ele>605.5714285714287</ele><time>2026-05-03T09:29:18.174Z</time></trkpt><trkpt lat="44.7602422" lon="9.0908257"><ele>607.1428571428571</ele><time>2026-05-03T09:29:19.177Z</time></trkpt><trkpt lat="44.7601961" lon="9.0909134"><ele>608.7142857142858</ele><time>2026-05-03T09:29:20.177Z</time></trkpt><trkpt lat="44.7601485" lon="9.0909729"><ele>610.2857142857143</ele><time>2026-05-03T09:29:21.174Z</time></trkpt><trkpt lat="44.7601111" lon="9.091052"><ele>611.8571428571429</ele><time>2026-05-03T09:29:22.177Z</time></trkpt><trkpt lat="44.7600887" lon="9.0911627"><ele>613.4285714285714</ele><time>2026-05-03T09:29:23.176Z</time></trkpt><trkpt lat="44.7600816" lon="9.091276"><ele>615.0</ele><time>2026-05-03T09:29:24.173Z</time></trkpt><trkpt lat="44.7600637" lon="9.0913674"><ele>617.8</ele><time>2026-05-03T09:29:25.178Z</time></trkpt><trkpt lat="44.7599453" lon="9.0915183"><ele>620.6</ele><time>2026-05-03T09:29:27.171Z</time></trkpt><trkpt lat="44.7598827" lon="9.0916069"><ele>623.4</ele><time>2026-05-03T09:29:28.176Z</time></trkpt><trkpt lat="44.7598035" lon="9.0917134"><ele>626.2</ele><time>2026-05-03T09:29:29.17Z</time></trkpt><trkpt lat="44.7597506" lon="9.0918146"><ele>629.0</ele><time>2026-05-03T09:29:30.175Z</time></trkpt><trkpt lat="44.759723" lon="9.0918945"><ele>631.6666666666666</ele><time>2026-05-03T09:29:31.174Z</time></trkpt><trkpt lat="44.7596795" lon="9.0919633"><ele>634.3333333333333</ele><time>2026-05-03T09:29:32.173Z</time></trkpt><trkpt lat="44.759586" lon="9.0920825"><ele>637.0</ele><time>2026-05-03T09:29:34.17Z</time></trkpt><trkpt lat="44.7595239" lon="9.0921649"><ele>639.6666666666666</ele><time>2026-05-03T09:29:35.187Z</time></trkpt><trkpt lat="44.7594844" lon="9.0922894"><ele>642.3333333333334</ele><time>2026-05-03T09:29:36.171Z</time></trkpt><trkpt lat="44.7594351" lon="9.0923683"><ele>645.0</ele><time>2026-05-03T09:29:37.172Z</time></trkpt><trkpt lat="44.7593764" lon="9.0924179"><ele>649.6666666666666</ele><time>2026-05-03T09:29:38.169Z</time></trkpt><trkpt lat="44.7593195" lon="9.0924605"><ele>654.3333333333334</ele><time>2026-05-03T09:29:39.17Z</time></trkpt><trkpt lat="44.7592497" lon="9.0924867"><ele>659.0</ele><time>2026-05-03T09:29:40.171Z</time></trkpt><trkpt lat="44.7591624" lon="9.0925411"><ele>663.6666666666667</ele><time>2026-05-03T09:29:41.172Z</time></trkpt><trkpt lat="44.7590911" lon="9.0926029"><ele>668.3333333333334</ele><time>2026-05-03T09:29:42.169Z</time></trkpt><trkpt lat="44.7590211" lon="9.0926661"><ele>673.0</ele><time>2026-05-03T09:29:43.169Z</time></trkpt><trkpt lat="44.7590093" lon="9.0927849"><ele>673.0</ele><time>2026-05-03T09:29:45.173Z</time></trkpt><trkpt lat="44.7590269" lon="9.0929047"><ele>673.0</ele><time>2026-05-03T09:29:47.181Z</time></trkpt><trkpt lat="44.7590481" lon="9.0930796"><ele>673.0</ele><time>2026-05-03T09:29:49.174Z</time></trkpt><trkpt lat="44.7590499" lon="9.0932168"><ele>673.0</ele><time>2026-05-03T09:29:50.174Z</time></trkpt><trkpt lat="44.7590603" lon="9.0933392"><ele>673.0</ele><time>2026-05-03T09:29:51.174Z</time></trkpt><trkpt lat="44.7590599" lon="9.0934393"><ele>674.4</ele><time>2026-05-03T09:29:52.172Z</time></trkpt><trkpt lat="44.7590464" lon="9.0935389"><ele>675.8</ele><time>2026-05-03T09:29:53.17Z</time></trkpt><trkpt lat="44.7589894" lon="9.0936857"><ele>677.2</ele><time>2026-05-03T09:29:55.183Z</time></trkpt><trkpt lat="44.7589215" lon="9.0937526"><ele>678.6</ele><time>2026-05-03T09:29:56.176Z</time></trkpt><trkpt lat="44.7588444" lon="9.0938256"><ele>680.0</ele><time>2026-05-03T09:29:57.174Z</time></trkpt><trkpt lat="44.7587773" lon="9.0939133"><ele>680.0</ele><time>2026-05-03T09:29:58.172Z</time></trkpt><trkpt lat="44.7587285" lon="9.094028"><ele>680.0</ele><time>2026-05-03T09:29:59.173Z</time></trkpt><trkpt lat="44.7586965" lon="9.0941573"><ele>680.0</ele><time>2026-05-03T09:30:00.171Z</time></trkpt><trkpt lat="44.7587022" lon="9.0943174"><ele>680.0</ele><time>2026-05-03T09:30:01.172Z</time></trkpt><trkpt lat="44.7587152" lon="9.0944537"><ele>680.0</ele><time>2026-05-03T09:30:02.172Z</time></trkpt><trkpt lat="44.7587226" lon="9.0945721"><ele>681.0</ele><time>2026-05-03T09:30:03.176Z</time></trkpt><trkpt lat="44.7587285" lon="9.0946833"><ele>682.0</ele><time>2026-05-03T09:30:04.175Z</time></trkpt><trkpt lat="44.7587317" lon="9.0948301"><ele>683.0</ele><time>2026-05-03T09:30:05.176Z</time></trkpt><trkpt lat="44.758737" lon="9.0949743"><ele>684.0</ele><time>2026-05-03T09:30:06.178Z</time></trkpt><trkpt lat="44.7587343" lon="9.0951037"><ele>685.0</ele><time>2026-05-03T09:30:07.176Z</time></trkpt><trkpt lat="44.758727" lon="9.0952193"><ele>687.75</ele><time>2026-05-03T09:30:08.175Z</time></trkpt><trkpt lat="44.7586942" lon="9.0953454"><ele>690.5</ele><time>2026-05-03T09:30:09.172Z</time></trkpt><trkpt lat="44.7586443" lon="9.095489"><ele>693.25</ele><time>2026-05-03T09:30:10.173Z</time></trkpt><trkpt lat="44.7585739" lon="9.0956749"><ele>696.0</ele><time>2026-05-03T09:30:11.169Z</time></trkpt><trkpt lat="44.7585158" lon="9.0958396"><ele>698.4</ele><time>2026-05-03T09:30:12.172Z</time></trkpt><trkpt lat="44.7584952" lon="9.0959768"><ele>700.8</ele><time>2026-05-03T09:30:13.177Z</time></trkpt><trkpt lat="44.7585019" lon="9.0961083"><ele>703.1999999999999</ele><time>2026-05-03T09:30:14.172Z</time></trkpt><trkpt lat="44.7585321" lon="9.0962506"><ele>705.5999999999999</ele><time>2026-05-03T09:30:15.176Z</time></trkpt><trkpt lat="44.7585758" lon="9.09639"><ele>708.0</ele><time>2026-05-03T09:30:16.171Z</time></trkpt><trkpt lat="44.758598" lon="9.0965301"><ele>710.2</ele><time>2026-05-03T09:30:17.174Z</time></trkpt><trkpt lat="44.7586108" lon="9.0966804"><ele>712.4</ele><time>2026-05-03T09:30:18.173Z</time></trkpt><trkpt lat="44.758647" lon="9.0967976"><ele>714.6</ele><time>2026-05-03T09:30:19.178Z</time></trkpt><trkpt lat="44.7587018" lon="9.0968685"><ele>716.8000000000001</ele><time>2026-05-03T09:30:20.182Z</time></trkpt><trkpt lat="44.7587731" lon="9.0969126"><ele>719.0</ele><time>2026-05-03T09:30:21.173Z</time></trkpt><trkpt lat="44.7588586" lon="9.0970134"><ele>719.0</ele><time>2026-05-03T09:30:23.171Z</time></trkpt><trkpt lat="44.7588822" lon="9.0971254"><ele>719.0</ele><time>2026-05-03T09:30:24.171Z</time></trkpt><trkpt lat="44.7589062" lon="9.0972553"><ele>719.0</ele><time>2026-05-03T09:30:25.177Z</time></trkpt><trkpt lat="44.7589436" lon="9.0974074"><ele>719.0</ele><time>2026-05-03T09:30:26.169Z</time></trkpt><trkpt lat="44.7589857" lon="9.0975723"><ele>719.0</ele><time>2026-05-03T09:30:27.18Z</time></trkpt><trkpt lat="44.7590252" lon="9.0977133"><ele>720.6</ele><time>2026-05-03T09:30:28.174Z</time></trkpt><trkpt lat="44.7590421" lon="9.0978319"><ele>722.2</ele><time>2026-05-03T09:30:29.174Z</time></trkpt><trkpt lat="44.7590486" lon="9.097927"><ele>723.8000000000001</ele><time>2026-05-03T09:30:30.179Z</time></trkpt><trkpt lat="44.7589961" lon="9.0980826"><ele>725.4000000000001</ele><time>2026-05-03T09:30:32.178Z</time></trkpt><trkpt lat="44.7588476" lon="9.0981931"><ele>727.0</ele><time>2026-05-03T09:30:33.184Z</time></trkpt><trkpt lat="44.7587393" lon="9.098283"><ele>727.0</ele><time>2026-05-03T09:30:34.179Z</time></trkpt><trkpt lat="44.7586404" lon="9.098361"><ele>727.0</ele><time>2026-05-03T09:30:35.179Z</time></trkpt><trkpt lat="44.7585456" lon="9.0984189"><ele>727.0</ele><time>2026-05-03T09:30:36.178Z</time></trkpt><trkpt lat="44.7584539" lon="9.0984641"><ele>727.0</ele><time>2026-05-03T09:30:37.175Z</time></trkpt><trkpt lat="44.7583777" lon="9.0985023"><ele>727.0</ele><time>2026-05-03T09:30:38.174Z</time></trkpt><trkpt lat="44.7583112" lon="9.0985285"><ele>726.3333333333334</ele><time>2026-05-03T09:30:39.168Z</time></trkpt><trkpt lat="44.7582462" lon="9.0985292"><ele>725.6666666666667</ele><time>2026-05-03T09:30:40.175Z</time></trkpt><trkpt lat="44.7581511" lon="9.0985425"><ele>725.0</ele><time>2026-05-03T09:30:42.175Z</time></trkpt><trkpt lat="44.7580863" lon="9.0986089"><ele>724.3333333333334</ele><time>2026-05-03T09:30:44.172Z</time></trkpt><trkpt lat="44.7580466" lon="9.0986903"><ele>723.6666666666666</ele><time>2026-05-03T09:30:46.167Z</time></trkpt><trkpt lat="44.7580676" lon="9.0987754"><ele>723.0</ele><time>2026-05-03T09:30:50.171Z</time></trkpt><trkpt lat="44.758155" lon="9.0987407"><ele>723.0</ele><time>2026-05-03T09:31:43.18Z</time></trkpt><trkpt lat="44.7582344" lon="9.0987336"><ele>723.0</ele><time>2026-05-03T09:31:44.175Z</time></trkpt><trkpt lat="44.7583253" lon="9.0987474"><ele>723.0</ele><time>2026-05-03T09:31:45.179Z</time></trkpt><trkpt lat="44.7584171" lon="9.0987793"><ele>723.0</ele><time>2026-05-03T09:31:46.172Z</time></trkpt><trkpt lat="44.7585069" lon="9.0987879"><ele>723.0</ele><time>2026-05-03T09:31:47.171Z</time></trkpt><trkpt lat="44.7585947" lon="9.0987728"><ele>723.0</ele><time>2026-05-03T09:31:48.169Z</time></trkpt><trkpt lat="44.7586914" lon="9.0987427"><ele>723.8</ele><time>2026-05-03T09:31:49.177Z</time></trkpt><trkpt lat="44.7587825" lon="9.0987281"><ele>724.5999999999999</ele><time>2026-05-03T09:31:50.176Z</time></trkpt><trkpt lat="44.7588855" lon="9.0987326"><ele>725.4000000000001</ele><time>2026-05-03T09:31:51.172Z</time></trkpt><trkpt lat="44.7589939" lon="9.0987374"><ele>726.2</ele><time>2026-05-03T09:31:52.17Z</time></trkpt><trkpt lat="44.7591037" lon="9.0987368"><ele>727.0</ele><time>2026-05-03T09:31:53.173Z</time></trkpt><trkpt lat="44.7592285" lon="9.0987418"><ele>727.0</ele><time>2026-05-03T09:31:54.175Z</time></trkpt><trkpt lat="44.7593307" lon="9.0987125"><ele>727.0</ele><time>2026-05-03T09:31:55.172Z</time></trkpt><trkpt lat="44.7594315" lon="9.09868"><ele>727.0</ele><time>2026-05-03T09:31:56.173Z</time></trkpt><trkpt lat="44.7595223" lon="9.0986495"><ele>727.0</ele><time>2026-05-03T09:31:57.172Z</time></trkpt><trkpt lat="44.7596063" lon="9.0986028"><ele>727.0</ele><time>2026-05-03T09:31:58.171Z</time></trkpt><trkpt lat="44.759699" lon="9.0985473"><ele>724.6</ele><time>2026-05-03T09:31:59.177Z</time></trkpt><trkpt lat="44.759781" lon="9.0984917"><ele>722.2</ele><time>2026-05-03T09:32:00.171Z</time></trkpt><trkpt lat="44.7598929" lon="9.0984397"><ele>719.8</ele><time>2026-05-03T09:32:01.177Z</time></trkpt><trkpt lat="44.7600127" lon="9.0983939"><ele>717.4</ele><time>2026-05-03T09:32:02.171Z</time></trkpt><trkpt lat="44.7601243" lon="9.0983632"><ele>715.0</ele><time>2026-05-03T09:32:03.171Z</time></trkpt><trkpt lat="44.7602382" lon="9.0983365"><ele>712.0</ele><time>2026-05-03T09:32:04.174Z</time></trkpt><trkpt lat="44.7603542" lon="9.0983137"><ele>709.0</ele><time>2026-05-03T09:32:05.175Z</time></trkpt><trkpt lat="44.7604509" lon="9.0982855"><ele>706.0</ele><time>2026-05-03T09:32:06.174Z</time></trkpt><trkpt lat="44.7605394" lon="9.0982618"><ele>703.0</ele><time>2026-05-03T09:32:07.173Z</time></trkpt><trkpt lat="44.7606202" lon="9.0982496"><ele>700.0</ele><time>2026-05-03T09:32:08.173Z</time></trkpt><trkpt lat="44.7607268" lon="9.0982198"><ele>700.0</ele><time>2026-05-03T09:32:09.176Z</time></trkpt><trkpt lat="44.7608264" lon="9.0981878"><ele>700.0</ele><time>2026-05-03T09:32:10.173Z</time></trkpt><trkpt lat="44.7609219" lon="9.0981551"><ele>700.0</ele><time>2026-05-03T09:32:11.171Z</time></trkpt><trkpt lat="44.7610164" lon="9.0981166"><ele>700.0</ele><time>2026-05-03T09:32:12.174Z</time></trkpt><trkpt lat="44.7611098" lon="9.0980755"><ele>700.0</ele><time>2026-05-03T09:32:13.173Z</time></trkpt><trkpt lat="44.7611995" lon="9.0980201"><ele>698.2</ele><time>2026-05-03T09:32:14.176Z</time></trkpt><trkpt lat="44.7612856" lon="9.0979528"><ele>696.4</ele><time>2026-05-03T09:32:15.178Z</time></trkpt><trkpt lat="44.7613676" lon="9.0978163"><ele>694.5999999999999</ele><time>2026-05-03T09:32:17.175Z</time></trkpt><trkpt lat="44.761417" lon="9.0977286"><ele>692.8</ele><time>2026-05-03T09:32:18.169Z</time></trkpt><trkpt lat="44.7614671" lon="9.0976304"><ele>691.0</ele><time>2026-05-03T09:32:19.175Z</time></trkpt><trkpt lat="44.7615368" lon="9.0975113"><ele>689.5</ele><time>2026-05-03T09:32:20.181Z</time></trkpt><trkpt lat="44.7615487" lon="9.0973973"><ele>688.0</ele><time>2026-05-03T09:32:21.179Z</time></trkpt><trkpt lat="44.7615628" lon="9.0972872"><ele>686.5</ele><time>2026-05-03T09:32:22.173Z</time></trkpt><trkpt lat="44.7616129" lon="9.0971732"><ele>685.0</ele><time>2026-05-03T09:32:24.17Z</time></trkpt><trkpt lat="44.7616945" lon="9.0971621"><ele>683.5</ele><time>2026-05-03T09:32:25.174Z</time></trkpt><trkpt lat="44.7617711" lon="9.0971366"><ele>682.0</ele><time>2026-05-03T09:32:26.173Z</time></trkpt><trkpt lat="44.7618976" lon="9.0970996"><ele>680.8</ele><time>2026-05-03T09:32:27.174Z</time></trkpt><trkpt lat="44.7619997" lon="9.0970574"><ele>679.6</ele><time>2026-05-03T09:32:28.169Z</time></trkpt><trkpt lat="44.7620806" lon="9.097006"><ele>678.4</ele><time>2026-05-03T09:32:29.17Z</time></trkpt><trkpt lat="44.7621703" lon="9.0969066"><ele>677.1999999999999</ele><time>2026-05-03T09:32:30.178Z</time></trkpt><trkpt lat="44.7622581" lon="9.0968406"><ele>676.0</ele><time>2026-05-03T09:32:31.172Z</time></trkpt><trkpt lat="44.7623619" lon="9.0967921"><ele>676.0</ele><time>2026-05-03T09:32:32.173Z</time></trkpt><trkpt lat="44.7624337" lon="9.0967771"><ele>676.0</ele><time>2026-05-03T09:32:33.17Z</time></trkpt><trkpt lat="44.7625179" lon="9.0967371"><ele>676.0</ele><time>2026-05-03T09:32:34.173Z</time></trkpt><trkpt lat="44.7626202" lon="9.0966914"><ele>676.0</ele><time>2026-05-03T09:32:35.173Z</time></trkpt><trkpt lat="44.7626938" lon="9.0966514"><ele>676.0</ele><time>2026-05-03T09:32:36.172Z</time></trkpt><trkpt lat="44.7627651" lon="9.0965752"><ele>676.0</ele><time>2026-05-03T09:32:37.171Z</time></trkpt><trkpt lat="44.7628148" lon="9.0964884"><ele>672.4</ele><time>2026-05-03T09:32:38.17Z</time></trkpt><trkpt lat="44.7628793" lon="9.0964505"><ele>668.8</ele><time>2026-05-03T09:32:39.173Z</time></trkpt><trkpt lat="44.7629468" lon="9.0964319"><ele>665.1999999999999</ele><time>2026-05-03T09:33:37.172Z</time></trkpt><trkpt lat="44.7630346" lon="9.0963966"><ele>661.5999999999999</ele><time>2026-05-03T09:33:39.181Z</time></trkpt><trkpt lat="44.7631227" lon="9.0963245"><ele>658.0</ele><time>2026-05-03T09:33:42.172Z</time></trkpt><trkpt lat="44.7632648" lon="9.0963171"><ele>651.0</ele><time>2026-05-03T09:33:44.178Z</time></trkpt><trkpt lat="44.7635704" lon="9.0963325"><ele>644.0</ele><time>2026-05-03T09:33:46.168Z</time></trkpt><trkpt lat="44.7638222" lon="9.0965946"><ele>644.0</ele><time>2026-05-03T09:33:49.174Z</time></trkpt><trkpt lat="44.7640216" lon="9.0968263"><ele>644.0</ele><time>2026-05-03T09:33:52.177Z</time></trkpt><trkpt lat="44.764161" lon="9.0967395"><ele>644.0</ele><time>2026-05-03T09:33:55.171Z</time></trkpt><trkpt lat="44.7643119" lon="9.0964387"><ele>643.0</ele><time>2026-05-03T09:33:58.18Z</time></trkpt><trkpt lat="44.764344" lon="9.0963345"><ele>642.0</ele><time>2026-05-03T09:33:59.177Z</time></trkpt><trkpt lat="44.7644015" lon="9.0959505"><ele>641.0</ele><time>2026-05-03T09:34:02.167Z</time></trkpt><trkpt lat="44.7643984" lon="9.0956"><ele>633.3333333333333</ele><time>2026-05-03T09:34:05.173Z</time></trkpt><trkpt lat="44.7643911" lon="9.0954705"><ele>625.6666666666666</ele><time>2026-05-03T09:34:06.178Z</time></trkpt><trkpt lat="44.7644427" lon="9.0950642"><ele>618.0</ele><time>2026-05-03T09:34:09.17Z</time></trkpt><trkpt lat="44.7645477" lon="9.0946853"><ele>615.3333333333334</ele><time>2026-05-03T09:34:12.174Z</time></trkpt><trkpt lat="44.7645737" lon="9.094584"><ele>612.6666666666667</ele><time>2026-05-03T09:34:13.171Z</time></trkpt><trkpt lat="44.7647895" lon="9.0944075"><ele>610.0</ele><time>2026-05-03T09:34:17.172Z</time></trkpt><trkpt lat="44.7648411" lon="9.0941261"><ele>607.4</ele><time>2026-05-03T09:34:20.175Z</time></trkpt><trkpt lat="44.7648381" lon="9.094029"><ele>604.8</ele><time>2026-05-03T09:34:21.179Z</time></trkpt><trkpt lat="44.7648751" lon="9.0939383"><ele>602.2</ele><time>2026-05-03T09:34:23.17Z</time></trkpt><trkpt lat="44.7647755" lon="9.0938396"><ele>599.6</ele><time>2026-05-03T09:35:45.181Z</time></trkpt><trkpt lat="44.7646923" lon="9.0938104"><ele>597.0</ele><time>2026-05-03T09:35:49.186Z</time></trkpt><trkpt lat="44.764593" lon="9.0938237"><ele>599.0</ele><time>2026-05-03T09:35:52.172Z</time></trkpt><trkpt lat="44.7637471" lon="9.093682"><ele>599.0</ele><time>2026-05-03T09:35:54.169Z</time></trkpt><trkpt lat="44.7636655" lon="9.0936279"><ele>599.0</ele><time>2026-05-03T09:35:55.166Z</time></trkpt><trkpt lat="44.7635595" lon="9.0935347"><ele>599.0</ele><time>2026-05-03T09:35:56.169Z</time></trkpt><trkpt lat="44.7634443" lon="9.093456"><ele>599.0</ele><time>2026-05-03T09:35:57.172Z</time></trkpt><trkpt lat="44.7633598" lon="9.0934485"><ele>599.0</ele><time>2026-05-03T09:35:58.17Z</time></trkpt><trkpt lat="44.7632698" lon="9.0934551"><ele>598.6</ele><time>2026-05-03T09:35:59.172Z</time></trkpt><trkpt lat="44.7631765" lon="9.0935225"><ele>598.2</ele><time>2026-05-03T09:36:00.169Z</time></trkpt><trkpt lat="44.7630903" lon="9.0935554"><ele>597.8000000000001</ele><time>2026-05-03T09:36:01.173Z</time></trkpt><trkpt lat="44.763003" lon="9.0935259"><ele>597.4</ele><time>2026-05-03T09:36:02.167Z</time></trkpt><trkpt lat="44.7629324" lon="9.0934593"><ele>597.0</ele><time>2026-05-03T09:36:03.173Z</time></trkpt><trkpt lat="44.7629204" lon="9.0932881"><ele>596.0</ele><time>2026-05-03T09:36:04.171Z</time></trkpt><trkpt lat="44.7628182" lon="9.0931055"><ele>595.0</ele><time>2026-05-03T09:36:05.181Z</time></trkpt><trkpt lat="44.7627009" lon="9.0929633"><ele>594.0</ele><time>2026-05-03T09:36:06.169Z</time></trkpt><trkpt lat="44.7625769" lon="9.0928672"><ele>594.0</ele><time>2026-05-03T09:36:07.176Z</time></trkpt><trkpt lat="44.7624475" lon="9.0927946"><ele>594.0</ele><time>2026-05-03T09:36:08.173Z</time></trkpt><trkpt lat="44.7622765" lon="9.0927971"><ele>594.0</ele><time>2026-05-03T09:36:09.173Z</time></trkpt><trkpt lat="44.7621403" lon="9.0928093"><ele>594.0</ele><time>2026-05-03T09:36:10.171Z</time></trkpt><trkpt lat="44.7619867" lon="9.0928373"><ele>596.4</ele><time>2026-05-03T09:36:11.172Z</time></trkpt><trkpt lat="44.7618316" lon="9.092848"><ele>598.8</ele><time>2026-05-03T09:36:12.168Z</time></trkpt><trkpt lat="44.7617071" lon="9.0928553"><ele>601.2</ele><time>2026-05-03T09:36:13.173Z</time></trkpt><trkpt lat="44.761623" lon="9.0928567"><ele>603.6</ele><time>2026-05-03T09:36:14.17Z</time></trkpt><trkpt lat="44.7615568" lon="9.0928307"><ele>606.0</ele><time>2026-05-03T09:36:15.171Z</time></trkpt><trkpt lat="44.7614922" lon="9.0927937"><ele>606.0</ele><time>2026-05-03T09:36:16.172Z</time></trkpt><trkpt lat="44.7614194" lon="9.0927078"><ele>606.0</ele><time>2026-05-03T09:36:17.178Z</time></trkpt><trkpt lat="44.7613577" lon="9.0925684"><ele>606.0</ele><time>2026-05-03T09:36:18.192Z</time></trkpt><trkpt lat="44.7613102" lon="9.0924209"><ele>606.0</ele><time>2026-05-03T09:36:19.186Z</time></trkpt><trkpt lat="44.7612876" lon="9.0921867"><ele>605.3333333333334</ele><time>2026-05-03T09:36:20.174Z</time></trkpt><trkpt lat="44.7613717" lon="9.0918685"><ele>604.6666666666667</ele><time>2026-05-03T09:36:21.177Z</time></trkpt><trkpt lat="44.7613456" lon="9.091637"><ele>604.0</ele><time>2026-05-03T09:36:22.174Z</time></trkpt><trkpt lat="44.7613181" lon="9.0914484"><ele>604.0</ele><time>2026-05-03T09:36:23.168Z</time></trkpt><trkpt lat="44.7612893" lon="9.0912761"><ele>604.0</ele><time>2026-05-03T09:36:24.174Z</time></trkpt><trkpt lat="44.7612539" lon="9.0911185"><ele>604.0</ele><time>2026-05-03T09:36:25.174Z</time></trkpt><trkpt lat="44.7611776" lon="9.0909632"><ele>604.0</ele><time>2026-05-03T09:36:26.171Z</time></trkpt><trkpt lat="44.7610648" lon="9.0907907"><ele>604.0</ele><time>2026-05-03T09:36:27.178Z</time></trkpt><trkpt lat="44.7609494" lon="9.0906164"><ele>604.0</ele><time>2026-05-03T09:36:28.168Z</time></trkpt><trkpt lat="44.7608562" lon="9.0904756"><ele>604.0</ele><time>2026-05-03T09:36:29.179Z</time></trkpt><trkpt lat="44.760763" lon="9.0903166"><ele>604.0</ele><time>2026-05-03T09:36:30.174Z</time></trkpt><trkpt lat="44.7607111" lon="9.0901507"><ele>604.0</ele><time>2026-05-03T09:36:31.171Z</time></trkpt><trkpt lat="44.7606672" lon="9.0899545"><ele>604.0</ele><time>2026-05-03T09:36:32.172Z</time></trkpt><trkpt lat="44.7606278" lon="9.0897034"><ele>601.3333333333334</ele><time>2026-05-03T09:36:33.177Z</time></trkpt><trkpt lat="44.7605969" lon="9.0894452"><ele>598.6666666666666</ele><time>2026-05-03T09:36:34.169Z</time></trkpt><trkpt lat="44.7605697" lon="9.0892296"><ele>596.0</ele><time>2026-05-03T09:36:35.17Z</time></trkpt><trkpt lat="44.7605411" lon="9.0890543"><ele>594.0</ele><time>2026-05-03T09:36:36.175Z</time></trkpt><trkpt lat="44.7605084" lon="9.0888404"><ele>592.0</ele><time>2026-05-03T09:36:37.174Z</time></trkpt><trkpt lat="44.7604563" lon="9.0886181"><ele>590.0</ele><time>2026-05-03T09:36:38.169Z</time></trkpt><trkpt lat="44.7604141" lon="9.0884317"><ele>590.0</ele><time>2026-05-03T09:36:39.174Z</time></trkpt><trkpt lat="44.760378" lon="9.0882788"><ele>590.0</ele><time>2026-05-03T09:36:40.171Z</time></trkpt><trkpt lat="44.7603849" lon="9.0881777"><ele>590.0</ele><time>2026-05-03T09:36:41.173Z</time></trkpt><trkpt lat="44.7603766" lon="9.0880793"><ele>590.0</ele><time>2026-05-03T09:36:42.176Z</time></trkpt><trkpt lat="44.7603198" lon="9.0879357"><ele>590.0</ele><time>2026-05-03T09:36:44.168Z</time></trkpt><trkpt lat="44.7602455" lon="9.0878711"><ele>590.2</ele><time>2026-05-03T09:36:46.175Z</time></trkpt><trkpt lat="44.7601661" lon="9.087867"><ele>590.4</ele><time>2026-05-03T09:36:49.178Z</time></trkpt><trkpt lat="44.7600973" lon="9.0878976"><ele>590.6</ele><time>2026-05-03T09:37:43.171Z</time></trkpt><trkpt lat="44.7600639" lon="9.0880031"><ele>590.8</ele><time>2026-05-03T09:37:47.176Z</time></trkpt><trkpt lat="44.7600547" lon="9.0881129"><ele>591.0</ele><time>2026-05-03T09:37:50.173Z</time></trkpt><trkpt lat="44.7599878" lon="9.0883012"><ele>591.0</ele><time>2026-05-03T09:37:52.171Z</time></trkpt><trkpt lat="44.7598276" lon="9.0887016"><ele>591.0</ele><time>2026-05-03T09:37:53.175Z</time></trkpt><trkpt lat="44.7597181" lon="9.088827"><ele>591.0</ele><time>2026-05-03T09:37:55.166Z</time></trkpt><trkpt lat="44.7596437" lon="9.0889047"><ele>591.0</ele><time>2026-05-03T09:37:56.175Z</time></trkpt><trkpt lat="44.7595502" lon="9.0889634"><ele>591.0</ele><time>2026-05-03T09:37:57.174Z</time></trkpt><trkpt lat="44.7594429" lon="9.0889779"><ele>591.0</ele><time>2026-05-03T09:37:58.168Z</time></trkpt><trkpt lat="44.75935" lon="9.0889937"><ele>591.0</ele><time>2026-05-03T09:37:59.17Z</time></trkpt><trkpt lat="44.7592689" lon="9.089001"><ele>590.2</ele><time>2026-05-03T09:38:00.168Z</time></trkpt><trkpt lat="44.7591928" lon="9.0890899"><ele>589.4000000000001</ele><time>2026-05-03T09:38:02.171Z</time></trkpt><trkpt lat="44.7591676" lon="9.0892228"><ele>588.6</ele><time>2026-05-03T09:38:03.17Z</time></trkpt><trkpt lat="44.7591585" lon="9.0893516"><ele>587.8000000000001</ele><time>2026-05-03T09:38:04.169Z</time></trkpt><trkpt lat="44.7590792" lon="9.089494"><ele>587.0</ele><time>2026-05-03T09:38:06.168Z</time></trkpt><trkpt lat="44.7589904" lon="9.089579"><ele>587.0</ele><time>2026-05-03T09:38:07.169Z</time></trkpt><trkpt lat="44.7589119" lon="9.0896486"><ele>587.0</ele><time>2026-05-03T09:38:08.171Z</time></trkpt><trkpt lat="44.7588287" lon="9.0896769"><ele>587.0</ele><time>2026-05-03T09:38:09.173Z</time></trkpt><trkpt lat="44.7587355" lon="9.0896978"><ele>587.0</ele><time>2026-05-03T09:38:10.173Z</time></trkpt><trkpt lat="44.7585691" lon="9.0896499"><ele>587.0</ele><time>2026-05-03T09:38:11.172Z</time></trkpt><trkpt lat="44.7584383" lon="9.0896429"><ele>584.25</ele><time>2026-05-03T09:38:12.17Z</time></trkpt><trkpt lat="44.7583018" lon="9.0896295"><ele>581.5</ele><time>2026-05-03T09:38:14.17Z</time></trkpt><trkpt lat="44.7582283" lon="9.0895429"><ele>578.75</ele><time>2026-05-03T09:38:15.17Z</time></trkpt><trkpt lat="44.7580868" lon="9.0893853"><ele>576.0</ele><time>2026-05-03T09:38:16.17Z</time></trkpt><trkpt lat="44.757984" lon="9.0892637"><ele>576.0</ele><time>2026-05-03T09:38:17.172Z</time></trkpt><trkpt lat="44.7579301" lon="9.0891815"><ele>576.0</ele><time>2026-05-03T09:38:18.17Z</time></trkpt><trkpt lat="44.7578649" lon="9.0891367"><ele>576.0</ele><time>2026-05-03T09:38:19.171Z</time></trkpt><trkpt lat="44.7577763" lon="9.0891118"><ele>576.0</ele><time>2026-05-03T09:38:20.168Z</time></trkpt><trkpt lat="44.7576395" lon="9.0890948"><ele>576.0</ele><time>2026-05-03T09:38:21.178Z</time></trkpt><trkpt lat="44.7575585" lon="9.0890952"><ele>571.25</ele><time>2026-05-03T09:38:22.17Z</time></trkpt><trkpt lat="44.7574597" lon="9.0890433"><ele>566.5</ele><time>2026-05-03T09:38:23.167Z</time></trkpt><trkpt lat="44.7573643" lon="9.0889493"><ele>561.75</ele><time>2026-05-03T09:38:24.168Z</time></trkpt><trkpt lat="44.7572512" lon="9.088846"><ele>557.0</ele><time>2026-05-03T09:38:25.174Z</time></trkpt><trkpt lat="44.7571572" lon="9.0887631"><ele>557.0</ele><time>2026-05-03T09:38:26.169Z</time></trkpt><trkpt lat="44.7570864" lon="9.0886264"><ele>557.0</ele><time>2026-05-03T09:38:28.169Z</time></trkpt><trkpt lat="44.7570209" lon="9.088587"><ele>557.0</ele><time>2026-05-03T09:38:29.17Z</time></trkpt><trkpt lat="44.7569511" lon="9.088521"><ele>557.0</ele><time>2026-05-03T09:38:30.17Z</time></trkpt><trkpt lat="44.7568497" lon="9.0885322"><ele>557.0</ele><time>2026-05-03T09:38:31.17Z</time></trkpt><trkpt lat="44.7567689" lon="9.0885383"><ele>555.5</ele><time>2026-05-03T09:38:32.167Z</time></trkpt><trkpt lat="44.7566982" lon="9.0885888"><ele>554.0</ele><time>2026-05-03T09:38:33.169Z</time></trkpt><trkpt lat="44.7565966" lon="9.0885954"><ele>552.5</ele><time>2026-05-03T09:38:34.171Z</time></trkpt><trkpt lat="44.7565196" lon="9.0886214"><ele>551.0</ele><time>2026-05-03T09:38:35.176Z</time></trkpt><trkpt lat="44.7564578" lon="9.0886541"><ele>549.5</ele><time>2026-05-03T09:38:36.17Z</time></trkpt><trkpt lat="44.7563769" lon="9.088706"><ele>548.0</ele><time>2026-05-03T09:38:38.171Z</time></trkpt><trkpt lat="44.7563074" lon="9.0887404"><ele>548.0</ele><time>2026-05-03T09:38:39.172Z</time></trkpt><trkpt lat="44.7562132" lon="9.0887688"><ele>548.0</ele><time>2026-05-03T09:38:40.176Z</time></trkpt><trkpt lat="44.7561319" lon="9.0887757"><ele>548.0</ele><time>2026-05-03T09:38:41.174Z</time></trkpt><trkpt lat="44.7560681" lon="9.0887365"><ele>548.0</ele><time>2026-05-03T09:38:42.17Z</time></trkpt><trkpt lat="44.7560603" lon="9.088553"><ele>548.0</ele><time>2026-05-03T09:38:44.171Z</time></trkpt><trkpt lat="44.7559975" lon="9.0884637"><ele>547.6666666666666</ele><time>2026-05-03T09:38:45.176Z</time></trkpt><trkpt lat="44.7559446" lon="9.0883911"><ele>547.3333333333333</ele><time>2026-05-03T09:38:46.177Z</time></trkpt><trkpt lat="44.7558634" lon="9.0883059"><ele>547.0</ele><time>2026-05-03T09:38:47.17Z</time></trkpt><trkpt lat="44.7557985" lon="9.0882397"><ele>546.6666666666666</ele><time>2026-05-03T09:38:48.171Z</time></trkpt><trkpt lat="44.7557141" lon="9.088185"><ele>546.3333333333334</ele><time>2026-05-03T09:38:49.167Z</time></trkpt><trkpt lat="44.7556466" lon="9.0881822"><ele>546.0</ele><time>2026-05-03T09:38:50.173Z</time></trkpt><trkpt lat="44.7555625" lon="9.0880803"><ele>546.0</ele><time>2026-05-03T09:38:52.169Z</time></trkpt><trkpt lat="44.7554899" lon="9.0879621"><ele>546.0</ele><time>2026-05-03T09:38:54.171Z</time></trkpt><trkpt lat="44.7553948" lon="9.087845"><ele>546.0</ele><time>2026-05-03T09:38:56.177Z</time></trkpt><trkpt lat="44.7553171" lon="9.0878051"><ele>546.0</ele><time>2026-05-03T09:38:57.17Z</time></trkpt><trkpt lat="44.7552442" lon="9.0877707"><ele>546.0</ele><time>2026-05-03T09:38:58.174Z</time></trkpt><trkpt lat="44.755249" lon="9.0876674"><ele>546.0</ele><time>2026-05-03T09:39:00.172Z</time></trkpt><trkpt lat="44.7552446" lon="9.0875104"><ele>546.0</ele><time>2026-05-03T09:39:02.17Z</time></trkpt><trkpt lat="44.7552149" lon="9.0874143"><ele>546.0</ele><time>2026-05-03T09:39:06.174Z</time></trkpt><trkpt lat="44.755156" lon="9.0873498"><ele>546.0</ele><time>2026-05-03T09:39:08.172Z</time></trkpt><trkpt lat="44.7549855" lon="9.0871177"><ele>546.4</ele><time>2026-05-03T09:39:09.175Z</time></trkpt><trkpt lat="44.7549203" lon="9.0870487"><ele>546.8</ele><time>2026-05-03T09:39:11.174Z</time></trkpt><trkpt lat="44.7548667" lon="9.0869949"><ele>547.1999999999999</ele><time>2026-05-03T09:39:13.175Z</time></trkpt><trkpt lat="44.7548074" lon="9.0869106"><ele>547.6</ele><time>2026-05-03T09:39:16.167Z</time></trkpt><trkpt lat="44.7547623" lon="9.0868311"><ele>548.0</ele><time>2026-05-03T09:39:20.171Z</time></trkpt><trkpt lat="44.7545995" lon="9.0866404"><ele>548.1999999999999</ele><time>2026-05-03T09:39:22.171Z</time></trkpt><trkpt lat="44.7544699" lon="9.0864895"><ele>548.4</ele><time>2026-05-03T09:39:23.17Z</time></trkpt><trkpt lat="44.7543952" lon="9.0863915"><ele>548.5999999999999</ele><time>2026-05-03T09:39:24.17Z</time></trkpt><trkpt lat="44.7543994" lon="9.0862828"><ele>548.8</ele><time>2026-05-03T09:39:27.176Z</time></trkpt><trkpt lat="44.7543865" lon="9.0861463"><ele>549.0</ele><time>2026-05-03T09:39:30.179Z</time></trkpt><trkpt lat="44.7542862" lon="9.0860238"><ele>551.8333333333334</ele><time>2026-05-03T09:39:32.174Z</time></trkpt><trkpt lat="44.7542318" lon="9.0859485"><ele>554.6666666666666</ele><time>2026-05-03T09:39:33.178Z</time></trkpt><trkpt lat="44.7541708" lon="9.0858579"><ele>557.5</ele><time>2026-05-03T09:39:34.169Z</time></trkpt><trkpt lat="44.754118" lon="9.0857909"><ele>560.3333333333333</ele><time>2026-05-03T09:39:35.169Z</time></trkpt><trkpt lat="44.7541261" lon="9.0856793"><ele>563.1666666666666</ele><time>2026-05-03T09:39:37.173Z</time></trkpt><trkpt lat="44.7541244" lon="9.0855874"><ele>566.0</ele><time>2026-05-03T09:39:39.171Z</time></trkpt><trkpt lat="44.7541009" lon="9.0854754"><ele>566.1666666666666</ele><time>2026-05-03T09:39:42.17Z</time></trkpt><trkpt lat="44.7540889" lon="9.0853426"><ele>566.3333333333333</ele><time>2026-05-03T09:39:45.174Z</time></trkpt><trkpt lat="44.7540761" lon="9.0852047"><ele>566.5</ele><time>2026-05-03T09:39:47.167Z</time></trkpt><trkpt lat="44.7540676" lon="9.0851047"><ele>566.6666666666666</ele><time>2026-05-03T09:39:48.168Z</time></trkpt><trkpt lat="44.7540591" lon="9.085008"><ele>566.8333333333334</ele><time>2026-05-03T09:39:49.186Z</time></trkpt><trkpt lat="44.7540492" lon="9.0848547"><ele>567.0</ele><time>2026-05-03T09:39:51.18Z</time></trkpt><trkpt lat="44.7540605" lon="9.084762"><ele>567.2</ele><time>2026-05-03T09:39:53.179Z</time></trkpt><trkpt lat="44.7540665" lon="9.0846265"><ele>567.4000000000001</ele><time>2026-05-03T09:40:08.176Z</time></trkpt><trkpt lat="44.754056" lon="9.0845036"><ele>567.5999999999999</ele><time>2026-05-03T09:40:10.173Z</time></trkpt><trkpt lat="44.7540432" lon="9.0843577"><ele>567.8</ele><time>2026-05-03T09:40:12.169Z</time></trkpt><trkpt lat="44.7540019" lon="9.0842051"><ele>568.0</ele><time>2026-05-03T09:40:14.178Z</time></trkpt><trkpt lat="44.7539801" lon="9.0841156"><ele>568.1999999999999</ele><time>2026-05-03T09:40:15.173Z</time></trkpt><trkpt lat="44.7539656" lon="9.084016"><ele>568.4</ele><time>2026-05-03T09:40:16.17Z</time></trkpt><trkpt lat="44.7539551" lon="9.0839062"><ele>568.5999999999999</ele><time>2026-05-03T09:40:17.169Z</time></trkpt><trkpt lat="44.7539497" lon="9.0837121"><ele>568.8</ele><time>2026-05-03T09:40:18.17Z</time></trkpt><trkpt lat="44.753951" lon="9.0835366"><ele>569.0</ele><time>2026-05-03T09:40:19.168Z</time></trkpt><trkpt lat="44.7539686" lon="9.0833792"><ele>568.2</ele><time>2026-05-03T09:40:20.171Z</time></trkpt><trkpt lat="44.753978" lon="9.0832477"><ele>567.4</ele><time>2026-05-03T09:40:21.17Z</time></trkpt><trkpt lat="44.7539467" lon="9.0831525"><ele>566.6</ele><time>2026-05-03T09:40:22.172Z</time></trkpt><trkpt lat="44.7539279" lon="9.0830496"><ele>565.8</ele><time>2026-05-03T09:40:23.172Z</time></trkpt><trkpt lat="44.7539007" lon="9.0829001"><ele>565.0</ele><time>2026-05-03T09:40:24.17Z</time></trkpt><trkpt lat="44.7538222" lon="9.0827886"><ele>565.0</ele><time>2026-05-03T09:40:25.172Z</time></trkpt><trkpt lat="44.7537391" lon="9.0826567"><ele>565.0</ele><time>2026-05-03T09:40:26.173Z</time></trkpt><trkpt lat="44.7536804" lon="9.0825416"><ele>565.0</ele><time>2026-05-03T09:40:27.169Z</time></trkpt><trkpt lat="44.7536453" lon="9.082402"><ele>565.0</ele><time>2026-05-03T09:40:28.167Z</time></trkpt><trkpt lat="44.7535985" lon="9.0822773"><ele>565.0</ele><time>2026-05-03T09:40:29.17Z</time></trkpt><trkpt lat="44.7535207" lon="9.0821653"><ele>568.4</ele><time>2026-05-03T09:40:30.174Z</time></trkpt><trkpt lat="44.7534598" lon="9.0820752"><ele>571.8</ele><time>2026-05-03T09:40:31.168Z</time></trkpt><trkpt lat="44.7533922" lon="9.082013"><ele>575.2</ele><time>2026-05-03T09:40:32.168Z</time></trkpt><trkpt lat="44.7533002" lon="9.0820043"><ele>578.6</ele><time>2026-05-03T09:40:33.168Z</time></trkpt><trkpt lat="44.7531891" lon="9.0820089"><ele>582.0</ele><time>2026-05-03T09:40:34.172Z</time></trkpt><trkpt lat="44.7531077" lon="9.0819985"><ele>582.0</ele><time>2026-05-03T09:40:35.173Z</time></trkpt><trkpt lat="44.7530403" lon="9.0819803"><ele>582.0</ele><time>2026-05-03T09:40:36.172Z</time></trkpt><trkpt lat="44.7529379" lon="9.0818902"><ele>582.0</ele><time>2026-05-03T09:40:38.17Z</time></trkpt><trkpt lat="44.7529905" lon="9.0817867"><ele>582.0</ele><time>2026-05-03T09:40:39.174Z</time></trkpt><trkpt lat="44.7530312" lon="9.0816958"><ele>582.0</ele><time>2026-05-03T09:40:40.173Z</time></trkpt><trkpt lat="44.7530521" lon="9.0815885"><ele>582.0</ele><time>2026-05-03T09:40:41.173Z</time></trkpt><trkpt lat="44.7530483" lon="9.0814661"><ele>580.5</ele><time>2026-05-03T09:40:42.172Z</time></trkpt><trkpt lat="44.7530098" lon="9.0813293"><ele>579.0</ele><time>2026-05-03T09:40:43.173Z</time></trkpt><trkpt lat="44.7529542" lon="9.0812201"><ele>577.5</ele><time>2026-05-03T09:40:44.169Z</time></trkpt><trkpt lat="44.7529116" lon="9.0811323"><ele>576.0</ele><time>2026-05-03T09:40:45.166Z</time></trkpt><trkpt lat="44.752886" lon="9.0810335"><ele>574.5</ele><time>2026-05-03T09:40:46.175Z</time></trkpt><trkpt lat="44.7528608" lon="9.0809107"><ele>573.0</ele><time>2026-05-03T09:40:47.172Z</time></trkpt><trkpt lat="44.7528362" lon="9.0807515"><ele>572.5</ele><time>2026-05-03T09:40:48.167Z</time></trkpt><trkpt lat="44.7528192" lon="9.0806284"><ele>572.0</ele><time>2026-05-03T09:40:49.174Z</time></trkpt><trkpt lat="44.7528073" lon="9.0805049"><ele>571.5</ele><time>2026-05-03T09:40:50.172Z</time></trkpt><trkpt lat="44.7527776" lon="9.0804019"><ele>571.0</ele><time>2026-05-03T09:40:51.173Z</time></trkpt><trkpt lat="44.7527463" lon="9.0803093"><ele>570.5</ele><time>2026-05-03T09:40:52.17Z</time></trkpt><trkpt lat="44.7527113" lon="9.08023"><ele>570.0</ele><time>2026-05-03T09:40:53.171Z</time></trkpt><trkpt lat="44.7526875" lon="9.0801328"><ele>570.1428571428571</ele><time>2026-05-03T09:40:56.17Z</time></trkpt><trkpt lat="44.7526438" lon="9.080067"><ele>570.2857142857143</ele><time>2026-05-03T09:41:39.172Z</time></trkpt><trkpt lat="44.7526438" lon="9.0799662"><ele>570.4285714285714</ele><time>2026-05-03T09:41:43.171Z</time></trkpt><trkpt lat="44.7526937" lon="9.079905"><ele>570.5714285714286</ele><time>2026-05-03T09:41:46.167Z</time></trkpt><trkpt lat="44.7527562" lon="9.0798294"><ele>570.7142857142857</ele><time>2026-05-03T09:41:49.175Z</time></trkpt><trkpt lat="44.7527939" lon="9.0797571"><ele>570.8571428571429</ele><time>2026-05-03T09:41:51.173Z</time></trkpt><trkpt lat="44.7528308" lon="9.0796787"><ele>571.0</ele><time>2026-05-03T09:41:53.176Z</time></trkpt><trkpt lat="44.7528613" lon="9.0795987"><ele>571.0</ele><time>2026-05-03T09:41:55.167Z</time></trkpt><trkpt lat="44.7529524" lon="9.0793367"><ele>571.0</ele><time>2026-05-03T09:41:57.174Z</time></trkpt><trkpt lat="44.7531615" lon="9.079087"><ele>571.1666666666667</ele><time>2026-05-03T09:41:58.17Z</time></trkpt><trkpt lat="44.7531787" lon="9.0789689"><ele>571.3333333333334</ele><time>2026-05-03T09:41:59.167Z</time></trkpt><trkpt lat="44.7531747" lon="9.0788366"><ele>571.5</ele><time>2026-05-03T09:42:00.167Z</time></trkpt><trkpt lat="44.7531718" lon="9.0786954"><ele>571.6666666666666</ele><time>2026-05-03T09:42:01.173Z</time></trkpt><trkpt lat="44.7531779" lon="9.0785832"><ele>571.8333333333333</ele><time>2026-05-03T09:42:02.174Z</time></trkpt><trkpt lat="44.7531935" lon="9.0784834"><ele>572.0</ele><time>2026-05-03T09:42:03.169Z</time></trkpt><trkpt lat="44.7532254" lon="9.0783265"><ele>570.5</ele><time>2026-05-03T09:42:04.172Z</time></trkpt><trkpt lat="44.7532833" lon="9.0781715"><ele>569.0</ele><time>2026-05-03T09:42:05.172Z</time></trkpt><trkpt lat="44.7533386" lon="9.0780531"><ele>567.5</ele><time>2026-05-03T09:42:06.172Z</time></trkpt><trkpt lat="44.7534042" lon="9.07792"><ele>566.0</ele><time>2026-05-03T09:42:08.169Z</time></trkpt><trkpt lat="44.7534726" lon="9.0777377"><ele>566.0</ele><time>2026-05-03T09:42:10.17Z</time></trkpt><trkpt lat="44.7535335" lon="9.0776494"><ele>566.0</ele><time>2026-05-03T09:42:11.174Z</time></trkpt><trkpt lat="44.7535818" lon="9.0775869"><ele>566.0</ele><time>2026-05-03T09:42:12.17Z</time></trkpt><trkpt lat="44.7537089" lon="9.0775131"><ele>566.0</ele><time>2026-05-03T09:42:13.173Z</time></trkpt><trkpt lat="44.7538227" lon="9.0774492"><ele>566.0</ele><time>2026-05-03T09:42:14.172Z</time></trkpt><trkpt lat="44.7538975" lon="9.0774176"><ele>565.4</ele><time>2026-05-03T09:42:15.171Z</time></trkpt><trkpt lat="44.7539791" lon="9.0773676"><ele>564.8</ele><time>2026-05-03T09:42:16.177Z</time></trkpt><trkpt lat="44.7540377" lon="9.0774211"><ele>564.1999999999999</ele><time>2026-05-03T09:42:18.173Z</time></trkpt><trkpt lat="44.7541309" lon="9.0774767"><ele>563.6</ele><time>2026-05-03T09:42:19.175Z</time></trkpt><trkpt lat="44.7542114" lon="9.0776153"><ele>563.0</ele><time>2026-05-03T09:42:20.176Z</time></trkpt><trkpt lat="44.7542832" lon="9.0776876"><ele>563.0</ele><time>2026-05-03T09:42:21.176Z</time></trkpt><trkpt lat="44.7543321" lon="9.0777507"><ele>563.0</ele><time>2026-05-03T09:42:22.172Z</time></trkpt><trkpt lat="44.7544061" lon="9.0777225"><ele>563.0</ele><time>2026-05-03T09:42:24.17Z</time></trkpt><trkpt lat="44.7544686" lon="9.0777354"><ele>563.0</ele><time>2026-05-03T09:42:25.179Z</time></trkpt><trkpt lat="44.7545455" lon="9.0777649"><ele>563.0</ele><time>2026-05-03T09:42:26.18Z</time></trkpt><trkpt lat="44.7546035" lon="9.0778502"><ele>563.0</ele><time>2026-05-03T09:42:29.18Z</time></trkpt><trkpt lat="44.7546975" lon="9.0778839"><ele>555.3333333333333</ele><time>2026-05-03T09:42:32.166Z</time></trkpt><trkpt lat="44.755011" lon="9.0778414"><ele>547.6666666666666</ele><time>2026-05-03T09:42:33.17Z</time></trkpt><trkpt lat="44.7551158" lon="9.0778581"><ele>540.0</ele><time>2026-05-03T09:42:34.167Z</time></trkpt><trkpt lat="44.7552388" lon="9.0778585"><ele>535.6</ele><time>2026-05-03T09:42:35.171Z</time></trkpt><trkpt lat="44.7553557" lon="9.0778458"><ele>531.2</ele><time>2026-05-03T09:42:36.179Z</time></trkpt><trkpt lat="44.7554697" lon="9.0778482"><ele>526.8</ele><time>2026-05-03T09:42:37.174Z</time></trkpt><trkpt lat="44.7555711" lon="9.0778087"><ele>522.4</ele><time>2026-05-03T09:42:38.176Z</time></trkpt><trkpt lat="44.7556591" lon="9.0777739"><ele>518.0</ele><time>2026-05-03T09:42:39.172Z</time></trkpt><trkpt lat="44.7555937" lon="9.0777143"><ele>518.0</ele><time>2026-05-03T09:42:40.171Z</time></trkpt><trkpt lat="44.7555698" lon="9.0776121"><ele>518.0</ele><time>2026-05-03T09:42:41.17Z</time></trkpt><trkpt lat="44.7555478" lon="9.0774959"><ele>518.0</ele><time>2026-05-03T09:42:42.172Z</time></trkpt><trkpt lat="44.7555061" lon="9.0773907"><ele>518.0</ele><time>2026-05-03T09:42:43.167Z</time></trkpt><trkpt lat="44.7555203" lon="9.0772067"><ele>518.0</ele><time>2026-05-03T09:42:45.169Z</time></trkpt><trkpt lat="44.7555465" lon="9.0770897"><ele>517.5</ele><time>2026-05-03T09:42:46.167Z</time></trkpt><trkpt lat="44.7555725" lon="9.0769625"><ele>517.0</ele><time>2026-05-03T09:42:47.169Z</time></trkpt><trkpt lat="44.7555895" lon="9.0768657"><ele>516.5</ele><time>2026-05-03T09:42:48.168Z</time></trkpt><trkpt lat="44.7556508" lon="9.0767934"><ele>516.0</ele><time>2026-05-03T09:42:49.169Z</time></trkpt><trkpt lat="44.7556921" lon="9.0767239"><ele>515.5</ele><time>2026-05-03T09:42:50.166Z</time></trkpt><trkpt lat="44.7557399" lon="9.076644"><ele>515.0</ele><time>2026-05-03T09:42:51.171Z</time></trkpt><trkpt lat="44.755791" lon="9.0765754"><ele>516.2</ele><time>2026-05-03T09:42:52.172Z</time></trkpt><trkpt lat="44.7559047" lon="9.0764717"><ele>517.4</ele><time>2026-05-03T09:42:54.175Z</time></trkpt><trkpt lat="44.7559643" lon="9.0763972"><ele>518.6</ele><time>2026-05-03T09:42:55.179Z</time></trkpt><trkpt lat="44.7560171" lon="9.0762426"><ele>519.8</ele><time>2026-05-03T09:42:57.178Z</time></trkpt><trkpt lat="44.7560589" lon="9.0761517"><ele>521.0</ele><time>2026-05-03T09:42:59.177Z</time></trkpt><trkpt lat="44.7561013" lon="9.0760271"><ele>511.3333333333333</ele><time>2026-05-03T09:43:01.198Z</time></trkpt><trkpt lat="44.7561667" lon="9.0760187"><ele>501.66666666666663</ele><time>2026-05-03T09:43:04.169Z</time></trkpt><trkpt lat="44.7562688" lon="9.0761032"><ele>492.0</ele><time>2026-05-03T09:43:07.169Z</time></trkpt><trkpt lat="44.756664" lon="9.0759908"><ele>492.0</ele><time>2026-05-03T09:43:08.169Z</time></trkpt><trkpt lat="44.7567652" lon="9.0759489"><ele>492.00000000000006</ele><time>2026-05-03T09:43:09.165Z</time></trkpt><trkpt lat="44.7568398" lon="9.0759593"><ele>492.00000000000006</ele><time>2026-05-03T09:43:10.169Z</time></trkpt><trkpt lat="44.7569037" lon="9.0759814"><ele>492.0</ele><time>2026-05-03T09:43:11.173Z</time></trkpt><trkpt lat="44.7570204" lon="9.0760754"><ele>492.0</ele><time>2026-05-03T09:43:13.17Z</time></trkpt><trkpt lat="44.7570949" lon="9.0760823"><ele>488.8333333333333</ele><time>2026-05-03T09:43:14.167Z</time></trkpt><trkpt lat="44.7571621" lon="9.0760602"><ele>485.66666666666663</ele><time>2026-05-03T09:43:15.179Z</time></trkpt><trkpt lat="44.7572159" lon="9.0760138"><ele>482.5</ele><time>2026-05-03T09:43:16.171Z</time></trkpt><trkpt lat="44.7572865" lon="9.0759281"><ele>479.3333333333333</ele><time>2026-05-03T09:43:17.17Z</time></trkpt><trkpt lat="44.7573751" lon="9.0758403"><ele>476.16666666666663</ele><time>2026-05-03T09:43:18.166Z</time></trkpt><trkpt lat="44.7574373" lon="9.0757698"><ele>473.0</ele><time>2026-05-03T09:43:19.167Z</time></trkpt><trkpt lat="44.757506" lon="9.0756932"><ele>472.2</ele><time>2026-05-03T09:43:20.167Z</time></trkpt><trkpt lat="44.7575606" lon="9.0755751"><ele>471.4</ele><time>2026-05-03T09:43:21.177Z</time></trkpt><trkpt lat="44.75761" lon="9.0754614"><ele>470.59999999999997</ele><time>2026-05-03T09:43:22.166Z</time></trkpt><trkpt lat="44.7576873" lon="9.0753655"><ele>469.79999999999995</ele><time>2026-05-03T09:43:23.171Z</time></trkpt><trkpt lat="44.7577474" lon="9.0752845"><ele>469.0</ele><time>2026-05-03T09:43:24.168Z</time></trkpt><trkpt lat="44.7578043" lon="9.0751813"><ele>464.79999999999995</ele><time>2026-05-03T09:43:26.174Z</time></trkpt><trkpt lat="44.7577871" lon="9.0750274"><ele>460.59999999999997</ele><time>2026-05-03T09:43:27.169Z</time></trkpt><trkpt lat="44.7578012" lon="9.0748972"><ele>456.4</ele><time>2026-05-03T09:43:28.174Z</time></trkpt><trkpt lat="44.7578635" lon="9.0747683"><ele>452.2</ele><time>2026-05-03T09:43:29.171Z</time></trkpt><trkpt lat="44.7579214" lon="9.0746185"><ele>448.0</ele><time>2026-05-03T09:43:30.166Z</time></trkpt><trkpt lat="44.7579571" lon="9.0744458"><ele>448.0</ele><time>2026-05-03T09:43:31.167Z</time></trkpt><trkpt lat="44.7580028" lon="9.0742972"><ele>447.99999999999994</ele><time>2026-05-03T09:43:32.169Z</time></trkpt><trkpt lat="44.7580501" lon="9.0741534"><ele>447.99999999999994</ele><time>2026-05-03T09:43:33.176Z</time></trkpt><trkpt lat="44.7580651" lon="9.0740366"><ele>448.0</ele><time>2026-05-03T09:43:34.171Z</time></trkpt><trkpt lat="44.7580856" lon="9.0739239"><ele>448.0</ele><time>2026-05-03T09:43:35.171Z</time></trkpt><trkpt lat="44.758168" lon="9.0738166"><ele>447.2</ele><time>2026-05-03T09:43:36.165Z</time></trkpt><trkpt lat="44.7582407" lon="9.0737833"><ele>446.4</ele><time>2026-05-03T09:43:37.173Z</time></trkpt><trkpt lat="44.758323" lon="9.0737259"><ele>445.59999999999997</ele><time>2026-05-03T09:43:38.169Z</time></trkpt><trkpt lat="44.7583894" lon="9.0736527"><ele>444.79999999999995</ele><time>2026-05-03T09:43:39.17Z</time></trkpt><trkpt lat="44.758463" lon="9.0735771"><ele>444.0</ele><time>2026-05-03T09:43:40.17Z</time></trkpt><trkpt lat="44.7585502" lon="9.0734661"><ele>441.6</ele><time>2026-05-03T09:43:41.169Z</time></trkpt><trkpt lat="44.7586536" lon="9.0733655"><ele>439.2</ele><time>2026-05-03T09:43:42.169Z</time></trkpt><trkpt lat="44.7587312" lon="9.0733375"><ele>436.80000000000007</ele><time>2026-05-03T09:43:43.175Z</time></trkpt><trkpt lat="44.758806" lon="9.073307"><ele>434.40000000000003</ele><time>2026-05-03T09:43:44.169Z</time></trkpt><trkpt lat="44.758923" lon="9.0732661"><ele>432.0</ele><time>2026-05-03T09:43:45.169Z</time></trkpt><trkpt lat="44.759025" lon="9.0732121"><ele>431.20000000000005</ele><time>2026-05-03T09:43:46.17Z</time></trkpt><trkpt lat="44.7591107" lon="9.0731418"><ele>430.40000000000003</ele><time>2026-05-03T09:43:47.167Z</time></trkpt><trkpt lat="44.7591677" lon="9.0730854"><ele>429.59999999999997</ele><time>2026-05-03T09:43:48.171Z</time></trkpt><trkpt lat="44.7592463" lon="9.0729381"><ele>428.79999999999995</ele><time>2026-05-03T09:43:50.17Z</time></trkpt><trkpt lat="44.7592929" lon="9.0728698"><ele>428.0</ele><time>2026-05-03T09:43:51.177Z</time></trkpt><trkpt lat="44.7594256" lon="9.0727978"><ele>425.2</ele><time>2026-05-03T09:43:53.167Z</time></trkpt><trkpt lat="44.7595066" lon="9.0727919"><ele>422.4</ele><time>2026-05-03T09:43:54.175Z</time></trkpt><trkpt lat="44.7595884" lon="9.0727858"><ele>419.59999999999997</ele><time>2026-05-03T09:43:55.179Z</time></trkpt><trkpt lat="44.7596905" lon="9.0727811"><ele>416.79999999999995</ele><time>2026-05-03T09:43:56.171Z</time></trkpt><trkpt lat="44.7597736" lon="9.0728268"><ele>414.0</ele><time>2026-05-03T09:43:57.179Z</time></trkpt><trkpt lat="44.7598658" lon="9.0728655"><ele>414.0</ele><time>2026-05-03T09:43:58.172Z</time></trkpt><trkpt lat="44.7599438" lon="9.0728977"><ele>414.0</ele><time>2026-05-03T09:43:59.178Z</time></trkpt><trkpt lat="44.76001" lon="9.0729205"><ele>414.0</ele><time>2026-05-03T09:44:00.167Z</time></trkpt><trkpt lat="44.7601434" lon="9.0727806"><ele>414.0</ele><time>2026-05-03T09:44:02.169Z</time></trkpt><trkpt lat="44.7602282" lon="9.0726494"><ele>414.0</ele><time>2026-05-03T09:44:03.169Z</time></trkpt><trkpt lat="44.7603018" lon="9.07252"><ele>412.2</ele><time>2026-05-03T09:44:04.166Z</time></trkpt><trkpt lat="44.7603569" lon="9.0724133"><ele>410.4</ele><time>2026-05-03T09:44:05.168Z</time></trkpt><trkpt lat="44.7604169" lon="9.0722968"><ele>408.6</ele><time>2026-05-03T09:44:06.175Z</time></trkpt><trkpt lat="44.7604524" lon="9.0721533"><ele>406.8</ele><time>2026-05-03T09:44:07.176Z</time></trkpt><trkpt lat="44.7605092" lon="9.072055"><ele>405.0</ele><time>2026-05-03T09:44:08.173Z</time></trkpt><trkpt lat="44.7605668" lon="9.071968"><ele>405.0</ele><time>2026-05-03T09:44:09.176Z</time></trkpt><trkpt lat="44.7606374" lon="9.0719011"><ele>405.0</ele><time>2026-05-03T09:44:10.169Z</time></trkpt><trkpt lat="44.760729" lon="9.0718479"><ele>405.0</ele><time>2026-05-03T09:44:12.174Z</time></trkpt><trkpt lat="44.7607982" lon="9.0718216"><ele>405.0</ele><time>2026-05-03T09:44:13.173Z</time></trkpt><trkpt lat="44.7608749" lon="9.0717588"><ele>405.0</ele><time>2026-05-03T09:44:14.179Z</time></trkpt><trkpt lat="44.7609435" lon="9.0717098"><ele>405.0</ele><time>2026-05-03T09:44:15.166Z</time></trkpt><trkpt lat="44.7610062" lon="9.0716806"><ele>404.4285714285714</ele><time>2026-05-03T09:44:16.171Z</time></trkpt><trkpt lat="44.7610825" lon="9.0716813"><ele>403.85714285714283</ele><time>2026-05-03T09:44:17.171Z</time></trkpt><trkpt lat="44.7611663" lon="9.0716809"><ele>403.2857142857143</ele><time>2026-05-03T09:44:18.171Z</time></trkpt><trkpt lat="44.7612509" lon="9.0716769"><ele>402.71428571428567</ele><time>2026-05-03T09:44:20.173Z</time></trkpt><trkpt lat="44.7613215" lon="9.0717051"><ele>402.14285714285717</ele><time>2026-05-03T09:48:58.17Z</time></trkpt><trkpt lat="44.7613847" lon="9.0717051"><ele>401.57142857142856</ele><time>2026-05-03T09:49:05.167Z</time></trkpt><trkpt lat="44.7614476" lon="9.0716917"><ele>401.0</ele><time>2026-05-03T09:49:33.17Z</time></trkpt><trkpt lat="44.7615532" lon="9.0716644"><ele>401.0</ele><time>2026-05-03T09:49:36.173Z</time></trkpt><trkpt lat="44.7616242" lon="9.0716992"><ele>401.0</ele><time>2026-05-03T09:49:39.173Z</time></trkpt><trkpt lat="44.761702" lon="9.0717427"><ele>401.0</ele><time>2026-05-03T09:49:40.173Z</time></trkpt><trkpt lat="44.762024" lon="9.0717507"><ele>399.8</ele><time>2026-05-03T09:49:41.171Z</time></trkpt><trkpt lat="44.7621139" lon="9.0717414"><ele>398.6</ele><time>2026-05-03T09:49:42.164Z</time></trkpt><trkpt lat="44.7622593" lon="9.0716799"><ele>397.4</ele><time>2026-05-03T09:49:44.17Z</time></trkpt><trkpt lat="44.7623556" lon="9.0716616"><ele>396.2</ele><time>2026-05-03T09:49:45.172Z</time></trkpt><trkpt lat="44.7624505" lon="9.0716564"><ele>395.0</ele><time>2026-05-03T09:49:46.194Z</time></trkpt><trkpt lat="44.7625404" lon="9.0716719"><ele>395.0</ele><time>2026-05-03T09:49:47.18Z</time></trkpt><trkpt lat="44.7626388" lon="9.0717128"><ele>395.0</ele><time>2026-05-03T09:49:48.172Z</time></trkpt><trkpt lat="44.7627136" lon="9.0717883"><ele>395.0</ele><time>2026-05-03T09:49:49.194Z</time></trkpt><trkpt lat="44.7627873" lon="9.0718596"><ele>395.0</ele><time>2026-05-03T09:49:50.168Z</time></trkpt><trkpt lat="44.7628776" lon="9.0719211"><ele>395.0</ele><time>2026-05-03T09:49:51.168Z</time></trkpt><trkpt lat="44.7629424" lon="9.0719705"><ele>394.0</ele><time>2026-05-03T09:49:52.172Z</time></trkpt><trkpt lat="44.7630389" lon="9.0720212"><ele>393.0</ele><time>2026-05-03T09:49:54.169Z</time></trkpt><trkpt lat="44.7631549" lon="9.0720302"><ele>392.0</ele><time>2026-05-03T09:49:56.17Z</time></trkpt><trkpt lat="44.7632369" lon="9.0720327"><ele>391.0</ele><time>2026-05-03T09:49:57.173Z</time></trkpt><trkpt lat="44.7633244" lon="9.0720448"><ele>390.0</ele><time>2026-05-03T09:49:58.174Z</time></trkpt><trkpt lat="44.7634316" lon="9.072065"><ele>389.75</ele><time>2026-05-03T09:49:59.179Z</time></trkpt><trkpt lat="44.7635726" lon="9.0720913"><ele>389.5</ele><time>2026-05-03T09:50:00.167Z</time></trkpt><trkpt lat="44.7637006" lon="9.0721229"><ele>389.25</ele><time>2026-05-03T09:50:01.171Z</time></trkpt><trkpt lat="44.763833" lon="9.0721654"><ele>389.0</ele><time>2026-05-03T09:50:02.165Z</time></trkpt><trkpt lat="44.7639644" lon="9.0722284"><ele>389.0</ele><time>2026-05-03T09:50:03.176Z</time></trkpt><trkpt lat="44.7640935" lon="9.0723073"><ele>389.0</ele><time>2026-05-03T09:50:04.164Z</time></trkpt><trkpt lat="44.7642225" lon="9.0723998"><ele>389.0</ele><time>2026-05-03T09:50:05.165Z</time></trkpt><trkpt lat="44.7643478" lon="9.0724939"><ele>389.0</ele><time>2026-05-03T09:50:06.171Z</time></trkpt><trkpt lat="44.7644755" lon="9.0725755"><ele>388.0</ele><time>2026-05-03T09:50:07.166Z</time></trkpt><trkpt lat="44.764606" lon="9.0726458"><ele>387.0</ele><time>2026-05-03T09:50:08.171Z</time></trkpt><trkpt lat="44.7647363" lon="9.072705"><ele>386.0</ele><time>2026-05-03T09:50:09.175Z</time></trkpt><trkpt lat="44.7648657" lon="9.072743"><ele>385.0</ele><time>2026-05-03T09:50:10.169Z</time></trkpt><trkpt lat="44.7650054" lon="9.0727586"><ele>385.0</ele><time>2026-05-03T09:50:11.198Z</time></trkpt><trkpt lat="44.7651467" lon="9.0727603"><ele>385.0</ele><time>2026-05-03T09:50:12.177Z</time></trkpt><trkpt lat="44.7652928" lon="9.0727629"><ele>385.0</ele><time>2026-05-03T09:50:13.173Z</time></trkpt><trkpt lat="44.7654432" lon="9.0727683"><ele>385.0</ele><time>2026-05-03T09:50:14.168Z</time></trkpt><trkpt lat="44.7655922" lon="9.0727857"><ele>384.6666666666667</ele><time>2026-05-03T09:50:15.168Z</time></trkpt><trkpt lat="44.7657446" lon="9.0728216"><ele>384.33333333333337</ele><time>2026-05-03T09:50:16.173Z</time></trkpt><trkpt lat="44.7658958" lon="9.0728702"><ele>384.0</ele><time>2026-05-03T09:50:17.168Z</time></trkpt><trkpt lat="44.7660483" lon="9.0729284"><ele>383.6666666666667</ele><time>2026-05-03T09:50:18.167Z</time></trkpt><trkpt lat="44.7661994" lon="9.072988"><ele>383.33333333333337</ele><time>2026-05-03T09:50:19.169Z</time></trkpt><trkpt lat="44.7663391" lon="9.0730448"><ele>383.0</ele><time>2026-05-03T09:50:20.166Z</time></trkpt><trkpt lat="44.7664831" lon="9.0731043"><ele>383.0</ele><time>2026-05-03T09:50:21.182Z</time></trkpt><trkpt lat="44.7666321" lon="9.0731697"><ele>383.0</ele><time>2026-05-03T09:50:22.17Z</time></trkpt><trkpt lat="44.7667771" lon="9.0732486"><ele>383.0</ele><time>2026-05-03T09:50:23.17Z</time></trkpt><trkpt lat="44.7669236" lon="9.0733396"><ele>382.25</ele><time>2026-05-03T09:50:24.166Z</time></trkpt><trkpt lat="44.7670645" lon="9.0734307"><ele>381.5</ele><time>2026-05-03T09:50:25.165Z</time></trkpt><trkpt lat="44.7672014" lon="9.0735059"><ele>380.75</ele><time>2026-05-03T09:50:26.205Z</time></trkpt><trkpt lat="44.7673305" lon="9.073565"><ele>380.0</ele><time>2026-05-03T09:50:27.166Z</time></trkpt><trkpt lat="44.7674496" lon="9.0736157"><ele>380.0</ele><time>2026-05-03T09:50:28.166Z</time></trkpt><trkpt lat="44.7675585" lon="9.0736558"><ele>380.0</ele><time>2026-05-03T09:50:29.18Z</time></trkpt><trkpt lat="44.7676596" lon="9.0736883"><ele>380.0</ele><time>2026-05-03T09:50:30.166Z</time></trkpt><trkpt lat="44.7677469" lon="9.0737228"><ele>380.0</ele><time>2026-05-03T09:50:31.178Z</time></trkpt><trkpt lat="44.7678189" lon="9.0737392"><ele>380.0</ele><time>2026-05-03T09:50:32.167Z</time></trkpt><trkpt lat="44.7679043" lon="9.0737995"><ele>380.2</ele><time>2026-05-03T09:50:34.177Z</time></trkpt><trkpt lat="44.7678931" lon="9.0738976"><ele>380.4</ele><time>2026-05-03T09:50:36.167Z</time></trkpt><trkpt lat="44.7678324" lon="9.0740265"><ele>380.6</ele><time>2026-05-03T09:50:38.179Z</time></trkpt><trkpt lat="44.7677886" lon="9.0741563"><ele>380.8</ele><time>2026-05-03T09:50:40.169Z</time></trkpt><trkpt lat="44.7678066" lon="9.0742677"><ele>381.0</ele><time>2026-05-03T09:50:42.166Z</time></trkpt><trkpt lat="44.7678991" lon="9.0743786"><ele>381.0</ele><time>2026-05-03T09:50:44.169Z</time></trkpt><trkpt lat="44.7679771" lon="9.0744268"><ele>381.0</ele><time>2026-05-03T09:50:45.172Z</time></trkpt><trkpt lat="44.768067" lon="9.0744685"><ele>381.0</ele><time>2026-05-03T09:50:46.182Z</time></trkpt><trkpt lat="44.7681595" lon="9.0745116"><ele>381.0</ele><time>2026-05-03T09:50:47.171Z</time></trkpt><trkpt lat="44.7682477" lon="9.0745535"><ele>381.0</ele><time>2026-05-03T09:50:48.174Z</time></trkpt><trkpt lat="44.7683279" lon="9.0746106"><ele>381.0</ele><time>2026-05-03T09:50:49.178Z</time></trkpt><trkpt lat="44.7683895" lon="9.0746841"><ele>381.0</ele><time>2026-05-03T09:50:50.167Z</time></trkpt><trkpt lat="44.7684349" lon="9.074777"><ele>381.0</ele><time>2026-05-03T09:50:51.171Z</time></trkpt><trkpt lat="44.7684621" lon="9.0748962"><ele>381.0</ele><time>2026-05-03T09:50:52.173Z</time></trkpt><trkpt lat="44.7684819" lon="9.0750358"><ele>381.0</ele><time>2026-05-03T09:50:53.167Z</time></trkpt><trkpt lat="44.7685052" lon="9.0751907"><ele>383.0</ele><time>2026-05-03T09:50:54.169Z</time></trkpt><trkpt lat="44.7685354" lon="9.0753471"><ele>385.0</ele><time>2026-05-03T09:50:55.169Z</time></trkpt><trkpt lat="44.7685706" lon="9.0755045"><ele>387.0</ele><time>2026-05-03T09:50:56.177Z</time></trkpt><trkpt lat="44.7686076" lon="9.0756559"><ele>389.0</ele><time>2026-05-03T09:50:57.169Z</time></trkpt><trkpt lat="44.7686438" lon="9.0757978"><ele>392.2</ele><time>2026-05-03T09:50:58.166Z</time></trkpt><trkpt lat="44.7686746" lon="9.0759136"><ele>395.4</ele><time>2026-05-03T09:50:59.172Z</time></trkpt><trkpt lat="44.7687232" lon="9.0760353"><ele>398.6</ele><time>2026-05-03T09:51:01.171Z</time></trkpt><trkpt lat="44.7687897" lon="9.0760649"><ele>401.8</ele><time>2026-05-03T09:51:03.171Z</time></trkpt><trkpt lat="44.7689212" lon="9.0759849"><ele>405.0</ele><time>2026-05-03T09:51:05.177Z</time></trkpt><trkpt lat="44.768999" lon="9.0759557"><ele>405.0</ele><time>2026-05-03T09:51:06.186Z</time></trkpt><trkpt lat="44.7690981" lon="9.0759242"><ele>405.0</ele><time>2026-05-03T09:51:07.172Z</time></trkpt><trkpt lat="44.769185" lon="9.0759349"><ele>405.0</ele><time>2026-05-03T09:51:08.171Z</time></trkpt><trkpt lat="44.7692836" lon="9.0759311"><ele>405.0</ele><time>2026-05-03T09:51:09.173Z</time></trkpt><trkpt lat="44.7693762" lon="9.0759227"><ele>405.0</ele><time>2026-05-03T09:51:10.17Z</time></trkpt><trkpt lat="44.7694559" lon="9.0758979"><ele>403.2</ele><time>2026-05-03T09:51:11.169Z</time></trkpt><trkpt lat="44.7695452" lon="9.0758937"><ele>401.4</ele><time>2026-05-03T09:51:13.168Z</time></trkpt><trkpt lat="44.7695744" lon="9.0760357"><ele>399.6</ele><time>2026-05-03T09:51:16.174Z</time></trkpt><trkpt lat="44.7695926" lon="9.0761635"><ele>397.8</ele><time>2026-05-03T09:51:18.169Z</time></trkpt><trkpt lat="44.7696739" lon="9.0762406"><ele>396.0</ele><time>2026-05-03T09:51:20.178Z</time></trkpt><trkpt lat="44.7697569" lon="9.0762766"><ele>396.0</ele><time>2026-05-03T09:51:21.182Z</time></trkpt><trkpt lat="44.7698416" lon="9.076313"><ele>396.0</ele><time>2026-05-03T09:51:22.168Z</time></trkpt><trkpt lat="44.7699527" lon="9.0763755"><ele>396.0</ele><time>2026-05-03T09:51:23.171Z</time></trkpt><trkpt lat="44.770059" lon="9.0764494"><ele>396.0</ele><time>2026-05-03T09:51:24.169Z</time></trkpt><trkpt lat="44.7701511" lon="9.076526"><ele>396.0</ele><time>2026-05-03T09:51:25.167Z</time></trkpt><trkpt lat="44.7702408" lon="9.076636"><ele>397.8333333333333</ele><time>2026-05-03T09:51:26.172Z</time></trkpt><trkpt lat="44.7703237" lon="9.0767401"><ele>399.66666666666663</ele><time>2026-05-03T09:51:27.172Z</time></trkpt><trkpt lat="44.7703774" lon="9.0768368"><ele>401.5</ele><time>2026-05-03T09:51:28.169Z</time></trkpt><trkpt lat="44.7704168" lon="9.076913"><ele>403.3333333333333</ele><time>2026-05-03T09:51:29.169Z</time></trkpt><trkpt lat="44.7704677" lon="9.0770139"><ele>405.16666666666663</ele><time>2026-05-03T09:51:30.169Z</time></trkpt><trkpt lat="44.7705148" lon="9.0771325"><ele>407.0</ele><time>2026-05-03T09:51:31.17Z</time></trkpt><trkpt lat="44.7705738" lon="9.0772328"><ele>406.99999999999994</ele><time>2026-05-03T09:51:32.174Z</time></trkpt><trkpt lat="44.7706611" lon="9.0773153"><ele>407.0</ele><time>2026-05-03T09:51:33.171Z</time></trkpt><trkpt lat="44.7707215" lon="9.0774008"><ele>407.0</ele><time>2026-05-03T09:51:34.166Z</time></trkpt><trkpt lat="44.7707759" lon="9.0774623"><ele>407.0</ele><time>2026-05-03T09:51:35.17Z</time></trkpt><trkpt lat="44.7708314" lon="9.0775076"><ele>406.99999999999994</ele><time>2026-05-03T09:51:36.169Z</time></trkpt><trkpt lat="44.7708939" lon="9.0775726"><ele>407.0</ele><time>2026-05-03T09:51:37.165Z</time></trkpt><trkpt lat="44.7709707" lon="9.077644"><ele>411.8</ele><time>2026-05-03T09:51:38.172Z</time></trkpt><trkpt lat="44.7710528" lon="9.0776903"><ele>416.6</ele><time>2026-05-03T09:51:39.174Z</time></trkpt><trkpt lat="44.7711333" lon="9.0777632"><ele>421.40000000000003</ele><time>2026-05-03T09:51:40.167Z</time></trkpt><trkpt lat="44.7712111" lon="9.0778275"><ele>426.20000000000005</ele><time>2026-05-03T09:51:41.174Z</time></trkpt><trkpt lat="44.7712792" lon="9.0778907"><ele>431.0</ele><time>2026-05-03T09:51:42.166Z</time></trkpt><trkpt lat="44.7713724" lon="9.078002"><ele>430.99999999999994</ele><time>2026-05-03T09:51:44.163Z</time></trkpt><trkpt lat="44.7714178" lon="9.0780697"><ele>431.0</ele><time>2026-05-03T09:51:45.168Z</time></trkpt><trkpt lat="44.7714738" lon="9.0781825"><ele>431.0</ele><time>2026-05-03T09:51:46.169Z</time></trkpt><trkpt lat="44.7715435" lon="9.0782828"><ele>431.0</ele><time>2026-05-03T09:51:47.168Z</time></trkpt><trkpt lat="44.7716033" lon="9.0783564"><ele>430.99999999999994</ele><time>2026-05-03T09:51:48.171Z</time></trkpt><trkpt lat="44.7716748" lon="9.0784263"><ele>431.0</ele><time>2026-05-03T09:51:49.168Z</time></trkpt><trkpt lat="44.7717502" lon="9.0785071"><ele>431.6</ele><time>2026-05-03T09:51:50.172Z</time></trkpt><trkpt lat="44.7718226" lon="9.0785881"><ele>432.20000000000005</ele><time>2026-05-03T09:51:51.169Z</time></trkpt><trkpt lat="44.7719125" lon="9.078647"><ele>432.79999999999995</ele><time>2026-05-03T09:51:52.169Z</time></trkpt><trkpt lat="44.7720145" lon="9.0787054"><ele>433.4</ele><time>2026-05-03T09:51:53.173Z</time></trkpt><trkpt lat="44.7721241" lon="9.078775"><ele>434.0</ele><time>2026-05-03T09:51:54.166Z</time></trkpt><trkpt lat="44.772239" lon="9.0788228"><ele>434.8333333333333</ele><time>2026-05-03T09:51:55.167Z</time></trkpt><trkpt lat="44.7723328" lon="9.0788642"><ele>435.66666666666663</ele><time>2026-05-03T09:51:56.177Z</time></trkpt><trkpt lat="44.7724014" lon="9.0789173"><ele>436.5</ele><time>2026-05-03T09:51:57.166Z</time></trkpt><trkpt lat="44.7724528" lon="9.0789922"><ele>437.33333333333337</ele><time>2026-05-03T09:51:58.166Z</time></trkpt><trkpt lat="44.772502" lon="9.0790826"><ele>438.1666666666667</ele><time>2026-05-03T09:51:59.176Z</time></trkpt><trkpt lat="44.7725153" lon="9.079218"><ele>439.0</ele><time>2026-05-03T09:52:00.173Z</time></trkpt><trkpt lat="44.7725239" lon="9.0793639"><ele>442.2</ele><time>2026-05-03T09:52:01.164Z</time></trkpt><trkpt lat="44.772554" lon="9.0794891"><ele>445.4</ele><time>2026-05-03T09:52:02.166Z</time></trkpt><trkpt lat="44.7725999" lon="9.0796056"><ele>448.6</ele><time>2026-05-03T09:52:03.168Z</time></trkpt><trkpt lat="44.7726664" lon="9.0797184"><ele>451.8</ele><time>2026-05-03T09:52:04.178Z</time></trkpt><trkpt lat="44.7727264" lon="9.0798319"><ele>455.0</ele><time>2026-05-03T09:52:05.17Z</time></trkpt><trkpt lat="44.7727759" lon="9.0799383"><ele>459.16666666666663</ele><time>2026-05-03T09:52:06.167Z</time></trkpt><trkpt lat="44.7728348" lon="9.0800426"><ele>463.3333333333333</ele><time>2026-05-03T09:52:07.176Z</time></trkpt><trkpt lat="44.7729046" lon="9.0801117"><ele>467.5</ele><time>2026-05-03T09:52:08.17Z</time></trkpt><trkpt lat="44.7729727" lon="9.0801585"><ele>471.66666666666663</ele><time>2026-05-03T09:52:09.17Z</time></trkpt><trkpt lat="44.7730288" lon="9.0802036"><ele>475.8333333333333</ele><time>2026-05-03T09:52:10.168Z</time></trkpt><trkpt lat="44.7730942" lon="9.0802411"><ele>480.0</ele><time>2026-05-03T09:52:11.169Z</time></trkpt><trkpt lat="44.7731806" lon="9.0802744"><ele>480.0</ele><time>2026-05-03T09:52:12.166Z</time></trkpt><trkpt lat="44.7732714" lon="9.0802983"><ele>480.0</ele><time>2026-05-03T09:52:13.168Z</time></trkpt><trkpt lat="44.7733472" lon="9.0803219"><ele>480.0</ele><time>2026-05-03T09:52:14.172Z</time></trkpt><trkpt lat="44.7734439" lon="9.080327"><ele>480.0</ele><time>2026-05-03T09:52:15.168Z</time></trkpt><trkpt lat="44.7735474" lon="9.080318"><ele>480.0</ele><time>2026-05-03T09:52:16.176Z</time></trkpt><trkpt lat="44.7736457" lon="9.0803027"><ele>484.8</ele><time>2026-05-03T09:52:17.166Z</time></trkpt><trkpt lat="44.7737162" lon="9.080312"><ele>489.6</ele><time>2026-05-03T09:52:18.165Z</time></trkpt><trkpt lat="44.7738544" lon="9.0803714"><ele>494.4</ele><time>2026-05-03T09:52:20.171Z</time></trkpt><trkpt lat="44.7739349" lon="9.0803901"><ele>499.2</ele><time>2026-05-03T09:52:21.167Z</time></trkpt><trkpt lat="44.774019" lon="9.080395"><ele>504.0</ele><time>2026-05-03T09:52:22.169Z</time></trkpt><trkpt lat="44.7740749" lon="9.0802962"><ele>504.0</ele><time>2026-05-03T09:52:23.174Z</time></trkpt><trkpt lat="44.7741332" lon="9.0801842"><ele>504.0</ele><time>2026-05-03T09:52:24.165Z</time></trkpt><trkpt lat="44.7741782" lon="9.0800717"><ele>504.0</ele><time>2026-05-03T09:52:25.166Z</time></trkpt><trkpt lat="44.7742346" lon="9.0799414"><ele>504.0</ele><time>2026-05-03T09:52:26.169Z</time></trkpt><trkpt lat="44.7742901" lon="9.0798186"><ele>504.0</ele><time>2026-05-03T09:52:27.168Z</time></trkpt><trkpt lat="44.7743957" lon="9.0797256"><ele>504.5</ele><time>2026-05-03T09:52:29.168Z</time></trkpt><trkpt lat="44.7744707" lon="9.0797179"><ele>505.0</ele><time>2026-05-03T09:52:30.175Z</time></trkpt><trkpt lat="44.7746124" lon="9.0796772"><ele>505.5</ele><time>2026-05-03T09:52:31.171Z</time></trkpt><trkpt lat="44.7747399" lon="9.0796017"><ele>506.0</ele><time>2026-05-03T09:52:32.169Z</time></trkpt><trkpt lat="44.7748654" lon="9.0795041"><ele>506.0</ele><time>2026-05-03T09:52:33.17Z</time></trkpt><trkpt lat="44.774976" lon="9.0793981"><ele>506.0</ele><time>2026-05-03T09:52:34.167Z</time></trkpt><trkpt lat="44.7750802" lon="9.0792964"><ele>506.0</ele><time>2026-05-03T09:52:35.168Z</time></trkpt><trkpt lat="44.7751495" lon="9.0792318"><ele>506.0</ele><time>2026-05-03T09:52:36.167Z</time></trkpt><trkpt lat="44.7752239" lon="9.0792114"><ele>506.0</ele><time>2026-05-03T09:52:37.173Z</time></trkpt><trkpt lat="44.7752866" lon="9.0792312"><ele>506.16666666666663</ele><time>2026-05-03T09:52:38.171Z</time></trkpt><trkpt lat="44.7753285" lon="9.0793083"><ele>506.3333333333333</ele><time>2026-05-03T09:52:39.17Z</time></trkpt><trkpt lat="44.7753402" lon="9.0794419"><ele>506.5</ele><time>2026-05-03T09:52:40.173Z</time></trkpt><trkpt lat="44.7753578" lon="9.0795628"><ele>506.66666666666663</ele><time>2026-05-03T09:52:41.172Z</time></trkpt><trkpt lat="44.7753446" lon="9.0796684"><ele>506.8333333333333</ele><time>2026-05-03T09:52:42.17Z</time></trkpt><trkpt lat="44.775321" lon="9.0797618"><ele>507.0</ele><time>2026-05-03T09:52:43.17Z</time></trkpt><trkpt lat="44.7752822" lon="9.0798642"><ele>506.8</ele><time>2026-05-03T09:52:44.172Z</time></trkpt><trkpt lat="44.7752412" lon="9.0799607"><ele>506.6</ele><time>2026-05-03T09:52:45.172Z</time></trkpt><trkpt lat="44.7751337" lon="9.0800553"><ele>506.40000000000003</ele><time>2026-05-03T09:52:46.173Z</time></trkpt><trkpt lat="44.7750237" lon="9.0801299"><ele>506.20000000000005</ele><time>2026-05-03T09:52:47.17Z</time></trkpt><trkpt lat="44.7749527" lon="9.0802114"><ele>506.0</ele><time>2026-05-03T09:52:48.17Z</time></trkpt><trkpt lat="44.7749126" lon="9.0803131"><ele>507.57142857142867</ele><time>2026-05-03T09:52:49.167Z</time></trkpt><trkpt lat="44.7748993" lon="9.0804234"><ele>509.14285714285717</ele><time>2026-05-03T09:52:50.168Z</time></trkpt><trkpt lat="44.774867" lon="9.0805454"><ele>510.7142857142858</ele><time>2026-05-03T09:52:52.169Z</time></trkpt><trkpt lat="44.7748077" lon="9.0805767"><ele>512.2857142857143</ele><time>2026-05-03T09:52:57.169Z</time></trkpt><trkpt lat="44.7747407" lon="9.080606"><ele>513.8571428571429</ele><time>2026-05-03T09:53:40.168Z</time></trkpt><trkpt lat="44.7746915" lon="9.0806698"><ele>515.4285714285714</ele><time>2026-05-03T09:53:43.168Z</time></trkpt><trkpt lat="44.7746536" lon="9.0807481"><ele>517.0</ele><time>2026-05-03T09:53:45.17Z</time></trkpt><trkpt lat="44.7745582" lon="9.0808192"><ele>522.0</ele><time>2026-05-03T09:53:46.169Z</time></trkpt><trkpt lat="44.7742443" lon="9.0811366"><ele>527.0</ele><time>2026-05-03T09:53:47.165Z</time></trkpt><trkpt lat="44.7740984" lon="9.0813214"><ele>527.0</ele><time>2026-05-03T09:53:48.163Z</time></trkpt><trkpt lat="44.7739987" lon="9.0814822"><ele>527.0</ele><time>2026-05-03T09:53:49.167Z</time></trkpt><trkpt lat="44.7739133" lon="9.0816276"><ele>527.0</ele><time>2026-05-03T09:53:50.168Z</time></trkpt><trkpt lat="44.7738444" lon="9.0817524"><ele>527.0</ele><time>2026-05-03T09:53:51.171Z</time></trkpt><trkpt lat="44.773786" lon="9.0818751"><ele>529.6</ele><time>2026-05-03T09:53:52.168Z</time></trkpt><trkpt lat="44.7737535" lon="9.0820087"><ele>532.2</ele><time>2026-05-03T09:53:53.169Z</time></trkpt><trkpt lat="44.7737312" lon="9.0821643"><ele>534.8</ele><time>2026-05-03T09:53:54.17Z</time></trkpt><trkpt lat="44.773718" lon="9.0823209"><ele>537.4</ele><time>2026-05-03T09:53:55.17Z</time></trkpt><trkpt lat="44.7737152" lon="9.0824764"><ele>540.0</ele><time>2026-05-03T09:53:56.171Z</time></trkpt><trkpt lat="44.7737559" lon="9.0826275"><ele>540.25</ele><time>2026-05-03T09:53:57.167Z</time></trkpt><trkpt lat="44.7737704" lon="9.0827568"><ele>540.5</ele><time>2026-05-03T09:53:58.17Z</time></trkpt><trkpt lat="44.7737431" lon="9.0829085"><ele>540.75</ele><time>2026-05-03T09:53:59.166Z</time></trkpt><trkpt lat="44.7736988" lon="9.0830905"><ele>541.0</ele><time>2026-05-03T09:54:00.166Z</time></trkpt><trkpt lat="44.7736587" lon="9.0833085"><ele>541.75</ele><time>2026-05-03T09:54:01.168Z</time></trkpt><trkpt lat="44.7736384" lon="9.0835274"><ele>542.5</ele><time>2026-05-03T09:54:02.169Z</time></trkpt><trkpt lat="44.7736332" lon="9.0837321"><ele>543.25</ele><time>2026-05-03T09:54:03.167Z</time></trkpt><trkpt lat="44.7736354" lon="9.083894"><ele>544.0</ele><time>2026-05-03T09:54:04.168Z</time></trkpt><trkpt lat="44.7736347" lon="9.084034"><ele>543.6</ele><time>2026-05-03T09:54:05.171Z</time></trkpt><trkpt lat="44.7735871" lon="9.0841508"><ele>543.2</ele><time>2026-05-03T09:54:07.166Z</time></trkpt><trkpt lat="44.7735266" lon="9.0842823"><ele>542.8000000000001</ele><time>2026-05-03T09:54:09.169Z</time></trkpt><trkpt lat="44.7734962" lon="9.0843767"><ele>542.4</ele><time>2026-05-03T09:54:10.173Z</time></trkpt><trkpt lat="44.773501" lon="9.0845279"><ele>542.0</ele><time>2026-05-03T09:54:11.174Z</time></trkpt><trkpt lat="44.7734837" lon="9.0846997"><ele>543.8000000000001</ele><time>2026-05-03T09:54:12.168Z</time></trkpt><trkpt lat="44.7734677" lon="9.0848487"><ele>545.6</ele><time>2026-05-03T09:54:13.169Z</time></trkpt><trkpt lat="44.7734457" lon="9.0849707"><ele>547.4000000000001</ele><time>2026-05-03T09:54:14.169Z</time></trkpt><trkpt lat="44.7734287" lon="9.0851346"><ele>549.2</ele><time>2026-05-03T09:54:16.167Z</time></trkpt><trkpt lat="44.7734247" lon="9.0852322"><ele>551.0</ele><time>2026-05-03T09:54:17.177Z</time></trkpt><trkpt lat="44.7734338" lon="9.0853308"><ele>554.3333333333333</ele><time>2026-05-03T09:54:18.172Z</time></trkpt><trkpt lat="44.7734431" lon="9.0854439"><ele>557.6666666666666</ele><time>2026-05-03T09:54:19.179Z</time></trkpt><trkpt lat="44.773446" lon="9.0855444"><ele>561.0</ele><time>2026-05-03T09:54:20.169Z</time></trkpt><trkpt lat="44.7734262" lon="9.0856362"><ele>564.3333333333334</ele><time>2026-05-03T09:54:21.176Z</time></trkpt><trkpt lat="44.7733645" lon="9.0856992"><ele>567.6666666666667</ele><time>2026-05-03T09:54:22.17Z</time></trkpt><trkpt lat="44.7732995" lon="9.0857658"><ele>571.0</ele><time>2026-05-03T09:54:23.173Z</time></trkpt><trkpt lat="44.7732492" lon="9.0858403"><ele>574.4</ele><time>2026-05-03T09:54:24.169Z</time></trkpt><trkpt lat="44.7732515" lon="9.0859499"><ele>577.8</ele><time>2026-05-03T09:54:26.167Z</time></trkpt><trkpt lat="44.7732316" lon="9.0860879"><ele>581.1999999999999</ele><time>2026-05-03T09:54:28.172Z</time></trkpt><trkpt lat="44.7731639" lon="9.0861403"><ele>584.6</ele><time>2026-05-03T09:54:31.184Z</time></trkpt><trkpt lat="44.7730227" lon="9.086298"><ele>588.0</ele><time>2026-05-03T09:54:34.174Z</time></trkpt><trkpt lat="44.7728328" lon="9.0864651"><ele>588.0</ele><time>2026-05-03T09:54:35.178Z</time></trkpt><trkpt lat="44.7727333" lon="9.0865433"><ele>588.0</ele><time>2026-05-03T09:54:36.162Z</time></trkpt><trkpt lat="44.7726687" lon="9.0865991"><ele>588.0</ele><time>2026-05-03T09:54:37.167Z</time></trkpt><trkpt lat="44.7727136" lon="9.0866688"><ele>588.0</ele><time>2026-05-03T09:54:38.166Z</time></trkpt><trkpt lat="44.7727633" lon="9.0867427"><ele>588.0</ele><time>2026-05-03T09:54:40.165Z</time></trkpt><trkpt lat="44.7728043" lon="9.0868167"><ele>588.0</ele><time>2026-05-03T09:54:44.172Z</time></trkpt><trkpt lat="44.7727325" lon="9.087084"><ele>591.0</ele><time>2026-05-03T09:54:46.165Z</time></trkpt><trkpt lat="44.7726641" lon="9.0872154"><ele>594.0</ele><time>2026-05-03T09:54:47.171Z</time></trkpt><trkpt lat="44.7725987" lon="9.087315"><ele>597.0</ele><time>2026-05-03T09:54:48.161Z</time></trkpt><trkpt lat="44.7725575" lon="9.0873941"><ele>600.0</ele><time>2026-05-03T09:54:49.174Z</time></trkpt><trkpt lat="44.772516" lon="9.0875431"><ele>603.0</ele><time>2026-05-03T09:54:51.176Z</time></trkpt><trkpt lat="44.772534" lon="9.0876333"><ele>607.8</ele><time>2026-05-03T09:54:52.17Z</time></trkpt><trkpt lat="44.7725382" lon="9.0877517"><ele>612.5999999999999</ele><time>2026-05-03T09:54:54.175Z</time></trkpt><trkpt lat="44.7724799" lon="9.0878624"><ele>617.4000000000001</ele><time>2026-05-03T09:54:55.175Z</time></trkpt><trkpt lat="44.7723918" lon="9.0879973"><ele>622.2</ele><time>2026-05-03T09:54:56.173Z</time></trkpt><trkpt lat="44.7723205" lon="9.0881336"><ele>627.0</ele><time>2026-05-03T09:54:57.177Z</time></trkpt><trkpt lat="44.7722725" lon="9.0882654"><ele>628.8000000000001</ele><time>2026-05-03T09:54:58.168Z</time></trkpt><trkpt lat="44.7722431" lon="9.0884096"><ele>630.6</ele><time>2026-05-03T09:54:59.169Z</time></trkpt><trkpt lat="44.7722217" lon="9.0885623"><ele>632.4000000000001</ele><time>2026-05-03T09:55:00.166Z</time></trkpt><trkpt lat="44.772207" lon="9.0887004"><ele>634.2</ele><time>2026-05-03T09:55:01.17Z</time></trkpt><trkpt lat="44.7721932" lon="9.088811"><ele>636.0</ele><time>2026-05-03T09:55:02.169Z</time></trkpt><trkpt lat="44.7721603" lon="9.0889239"><ele>636.0</ele><time>2026-05-03T09:55:03.173Z</time></trkpt><trkpt lat="44.772117" lon="9.0890608"><ele>636.0</ele><time>2026-05-03T09:55:04.177Z</time></trkpt><trkpt lat="44.7720645" lon="9.0892111"><ele>636.0</ele><time>2026-05-03T09:55:05.166Z</time></trkpt><trkpt lat="44.7720051" lon="9.0893501"><ele>636.0</ele><time>2026-05-03T09:55:06.169Z</time></trkpt><trkpt lat="44.7719399" lon="9.0894759"><ele>635.6</ele><time>2026-05-03T09:55:07.168Z</time></trkpt><trkpt lat="44.7718945" lon="9.0895907"><ele>635.2</ele><time>2026-05-03T09:55:08.164Z</time></trkpt><trkpt lat="44.7718468" lon="9.0896815"><ele>634.8</ele><time>2026-05-03T09:55:09.169Z</time></trkpt><trkpt lat="44.771759" lon="9.0897676"><ele>634.4</ele><time>2026-05-03T09:55:10.168Z</time></trkpt><trkpt lat="44.7716574" lon="9.0898593"><ele>634.0</ele><time>2026-05-03T09:55:11.169Z</time></trkpt><trkpt lat="44.7715559" lon="9.0899603"><ele>636.25</ele><time>2026-05-03T09:55:12.174Z</time></trkpt><trkpt lat="44.7714478" lon="9.0900826"><ele>638.5</ele><time>2026-05-03T09:55:13.168Z</time></trkpt><trkpt lat="44.7713354" lon="9.0902063"><ele>640.75</ele><time>2026-05-03T09:55:14.178Z</time></trkpt><trkpt lat="44.7712534" lon="9.0903002"><ele>643.0</ele><time>2026-05-03T09:55:15.172Z</time></trkpt><trkpt lat="44.7711885" lon="9.090368"><ele>643.0</ele><time>2026-05-03T09:55:16.17Z</time></trkpt><trkpt lat="44.7711127" lon="9.0904754"><ele>643.0</ele><time>2026-05-03T09:55:17.165Z</time></trkpt><trkpt lat="44.7710357" lon="9.0905812"><ele>643.0</ele><time>2026-05-03T09:55:18.167Z</time></trkpt><trkpt lat="44.7709708" lon="9.0907006"><ele>643.0</ele><time>2026-05-03T09:55:19.171Z</time></trkpt><trkpt lat="44.7708919" lon="9.0908079"><ele>643.0</ele><time>2026-05-03T09:55:20.174Z</time></trkpt><trkpt lat="44.7708143" lon="9.0909366"><ele>641.8333333333334</ele><time>2026-05-03T09:55:21.169Z</time></trkpt><trkpt lat="44.7707531" lon="9.0910388"><ele>640.6666666666667</ele><time>2026-05-03T09:55:22.166Z</time></trkpt><trkpt lat="44.7707076" lon="9.091107"><ele>639.5</ele><time>2026-05-03T09:55:23.167Z</time></trkpt><trkpt lat="44.770664" lon="9.0911757"><ele>638.3333333333334</ele><time>2026-05-03T09:55:24.167Z</time></trkpt><trkpt lat="44.7706107" lon="9.091246"><ele>637.1666666666666</ele><time>2026-05-03T09:55:25.167Z</time></trkpt><trkpt lat="44.770546" lon="9.0913123"><ele>636.0</ele><time>2026-05-03T09:55:26.172Z</time></trkpt><trkpt lat="44.7704688" lon="9.0913861"><ele>636.0</ele><time>2026-05-03T09:55:27.167Z</time></trkpt><trkpt lat="44.7704043" lon="9.0914545"><ele>636.0</ele><time>2026-05-03T09:55:28.168Z</time></trkpt><trkpt lat="44.7703422" lon="9.0915229"><ele>636.0</ele><time>2026-05-03T09:55:29.172Z</time></trkpt><trkpt lat="44.7702217" lon="9.0915843"><ele>636.0</ele><time>2026-05-03T09:55:31.169Z</time></trkpt><trkpt lat="44.7701656" lon="9.0916286"><ele>636.0</ele><time>2026-05-03T09:55:32.168Z</time></trkpt><trkpt lat="44.7700812" lon="9.0916886"><ele>636.0</ele><time>2026-05-03T09:55:34.17Z</time></trkpt><trkpt lat="44.770024" lon="9.0917364"><ele>633.0</ele><time>2026-05-03T09:55:37.167Z</time></trkpt><trkpt lat="44.7700047" lon="9.0918228"><ele>630.0</ele><time>2026-05-03T09:59:55.166Z</time></trkpt><trkpt lat="44.7700095" lon="9.0919256"><ele>627.0</ele><time>2026-05-03T09:59:56.166Z</time></trkpt><trkpt lat="44.7700209" lon="9.0920771"><ele>624.0</ele><time>2026-05-03T09:59:58.178Z</time></trkpt><trkpt lat="44.7700408" lon="9.0921898"><ele>621.0</ele><time>2026-05-03T09:59:59.179Z</time></trkpt><trkpt lat="44.7700512" lon="9.0922883"><ele>618.0</ele><time>2026-05-03T10:00:00.181Z</time></trkpt><trkpt lat="44.7701188" lon="9.0924543"><ele>617.1666666666666</ele><time>2026-05-03T10:00:02.169Z</time></trkpt><trkpt lat="44.7701498" lon="9.092545"><ele>616.3333333333334</ele><time>2026-05-03T10:00:03.172Z</time></trkpt><trkpt lat="44.7701884" lon="9.0926354"><ele>615.5</ele><time>2026-05-03T10:00:04.174Z</time></trkpt><trkpt lat="44.7702684" lon="9.0927617"><ele>614.6666666666667</ele><time>2026-05-03T10:00:06.17Z</time></trkpt><trkpt lat="44.7702749" lon="9.0928604"><ele>613.8333333333334</ele><time>2026-05-03T10:00:08.169Z</time></trkpt><trkpt lat="44.7702399" lon="9.0929547"><ele>613.0</ele><time>2026-05-03T10:00:09.167Z</time></trkpt><trkpt lat="44.7701951" lon="9.0930612"><ele>613.0</ele><time>2026-05-03T10:00:10.17Z</time></trkpt><trkpt lat="44.7701443" lon="9.0931473"><ele>613.0</ele><time>2026-05-03T10:00:11.185Z</time></trkpt><trkpt lat="44.7700874" lon="9.0932308"><ele>613.0</ele><time>2026-05-03T10:00:12.174Z</time></trkpt><trkpt lat="44.7701012" lon="9.0933816"><ele>613.0</ele><time>2026-05-03T10:00:14.165Z</time></trkpt><trkpt lat="44.7701041" lon="9.0935027"><ele>613.0</ele><time>2026-05-03T10:00:15.168Z</time></trkpt><trkpt lat="44.7701442" lon="9.0936917"><ele>611.1428571428571</ele><time>2026-05-03T10:00:17.177Z</time></trkpt><trkpt lat="44.7701287" lon="9.0937839"><ele>609.2857142857142</ele><time>2026-05-03T10:00:18.169Z</time></trkpt><trkpt lat="44.7701247" lon="9.0938838"><ele>607.4285714285713</ele><time>2026-05-03T10:00:19.173Z</time></trkpt><trkpt lat="44.770132" lon="9.0940018"><ele>605.5714285714286</ele><time>2026-05-03T10:00:21.165Z</time></trkpt><trkpt lat="44.7701236" lon="9.0941057"><ele>603.7142857142857</ele><time>2026-05-03T10:01:06.165Z</time></trkpt><trkpt lat="44.7701264" lon="9.0941973"><ele>601.8571428571428</ele><time>2026-05-03T10:01:31.173Z</time></trkpt><trkpt lat="44.7701315" lon="9.0942867"><ele>600.0</ele><time>2026-05-03T10:01:33.172Z</time></trkpt><trkpt lat="44.7700869" lon="9.0944963"><ele>598.8333333333334</ele><time>2026-05-03T10:01:35.179Z</time></trkpt><trkpt lat="44.7700902" lon="9.0946063"><ele>597.6666666666666</ele><time>2026-05-03T10:01:36.172Z</time></trkpt><trkpt lat="44.7701059" lon="9.094694"><ele>596.5</ele><time>2026-05-03T10:01:37.171Z</time></trkpt><trkpt lat="44.7701607" lon="9.0947708"><ele>595.3333333333333</ele><time>2026-05-03T10:01:38.17Z</time></trkpt><trkpt lat="44.7702366" lon="9.0948617"><ele>594.1666666666666</ele><time>2026-05-03T10:01:39.175Z</time></trkpt><trkpt lat="44.7703243" lon="9.0949407"><ele>593.0</ele><time>2026-05-03T10:01:40.167Z</time></trkpt><trkpt lat="44.7703522" lon="9.0950274"><ele>584.8</ele><time>2026-05-03T10:01:41.177Z</time></trkpt><trkpt lat="44.7703976" lon="9.0951344"><ele>576.5999999999999</ele><time>2026-05-03T10:01:42.166Z</time></trkpt><trkpt lat="44.7704166" lon="9.0952501"><ele>568.4000000000001</ele><time>2026-05-03T10:01:43.166Z</time></trkpt><trkpt lat="44.7704439" lon="9.0953672"><ele>560.2</ele><time>2026-05-03T10:01:44.164Z</time></trkpt><trkpt lat="44.7704134" lon="9.0955377"><ele>552.0</ele><time>2026-05-03T10:01:45.171Z</time></trkpt><trkpt lat="44.770391" lon="9.0956754"><ele>552.8333333333334</ele><time>2026-05-03T10:01:46.167Z</time></trkpt><trkpt lat="44.77041" lon="9.0957971"><ele>553.6666666666666</ele><time>2026-05-03T10:01:47.166Z</time></trkpt><trkpt lat="44.7704537" lon="9.0958956"><ele>554.5</ele><time>2026-05-03T10:01:48.173Z</time></trkpt><trkpt lat="44.7704717" lon="9.0959946"><ele>555.3333333333333</ele><time>2026-05-03T10:01:49.166Z</time></trkpt><trkpt lat="44.7704987" lon="9.0961628"><ele>556.1666666666666</ele><time>2026-05-03T10:01:51.167Z</time></trkpt><trkpt lat="44.7704837" lon="9.0962627"><ele>557.0</ele><time>2026-05-03T10:01:52.171Z</time></trkpt><trkpt lat="44.7704354" lon="9.0963304"><ele>557.0</ele><time>2026-05-03T10:01:53.169Z</time></trkpt><trkpt lat="44.7703864" lon="9.0964052"><ele>557.0</ele><time>2026-05-03T10:01:54.163Z</time></trkpt><trkpt lat="44.7703084" lon="9.0964818"><ele>557.0</ele><time>2026-05-03T10:01:55.167Z</time></trkpt><trkpt lat="44.7702349" lon="9.0965699"><ele>557.0</ele><time>2026-05-03T10:01:56.171Z</time></trkpt><trkpt lat="44.7701835" lon="9.0966554"><ele>557.0</ele><time>2026-05-03T10:01:57.171Z</time></trkpt><trkpt lat="44.7701319" lon="9.0967437"><ele>557.0</ele><time>2026-05-03T10:01:58.163Z</time></trkpt><trkpt lat="44.7700765" lon="9.09681"><ele>557.6666666666666</ele><time>2026-05-03T10:02:00.166Z</time></trkpt><trkpt lat="44.7699994" lon="9.0967955"><ele>558.3333333333333</ele><time>2026-05-03T10:02:02.169Z</time></trkpt><trkpt lat="44.7699324" lon="9.0967844"><ele>559.0</ele><time>2026-05-03T10:02:05.161Z</time></trkpt><trkpt lat="44.7698513" lon="9.0967736"><ele>559.6666666666666</ele><time>2026-05-03T10:02:08.166Z</time></trkpt><trkpt lat="44.7697522" lon="9.0967654"><ele>560.3333333333334</ele><time>2026-05-03T10:02:11.173Z</time></trkpt><trkpt lat="44.7696805" lon="9.0967584"><ele>561.0</ele><time>2026-05-03T10:02:13.175Z</time></trkpt><trkpt lat="44.7696123" lon="9.096811"><ele>561.0</ele><time>2026-05-03T10:02:17.17Z</time></trkpt><trkpt lat="44.7695669" lon="9.0968845"><ele>561.0</ele><time>2026-05-03T10:02:22.173Z</time></trkpt><trkpt lat="44.7695206" lon="9.0969472"><ele>561.0</ele><time>2026-05-03T10:02:29.165Z</time></trkpt><trkpt lat="44.7694504" lon="9.09699"><ele>561.0</ele><time>2026-05-03T10:02:35.167Z</time></trkpt><trkpt lat="44.7693826" lon="9.0970279"><ele>561.0</ele><time>2026-05-03T10:02:37.169Z</time></trkpt><trkpt lat="44.7692611" lon="9.0971398"><ele>561.0</ele><time>2026-05-03T10:02:39.163Z</time></trkpt><trkpt lat="44.7691845" lon="9.0972594"><ele>560.1666666666666</ele><time>2026-05-03T10:02:40.164Z</time></trkpt><trkpt lat="44.7692035" lon="9.0973507"><ele>559.3333333333334</ele><time>2026-05-03T10:02:41.164Z</time></trkpt><trkpt lat="44.7692318" lon="9.0974488"><ele>558.5</ele><time>2026-05-03T10:02:42.162Z</time></trkpt><trkpt lat="44.7692869" lon="9.0975345"><ele>557.6666666666667</ele><time>2026-05-03T10:02:43.175Z</time></trkpt><trkpt lat="44.7693519" lon="9.097615"><ele>556.8333333333334</ele><time>2026-05-03T10:02:44.166Z</time></trkpt><trkpt lat="44.7694364" lon="9.0976856"><ele>556.0</ele><time>2026-05-03T10:02:45.166Z</time></trkpt><trkpt lat="44.7695189" lon="9.0977649"><ele>554.4</ele><time>2026-05-03T10:02:46.165Z</time></trkpt><trkpt lat="44.7696072" lon="9.0978166"><ele>552.8</ele><time>2026-05-03T10:02:47.168Z</time></trkpt><trkpt lat="44.7696947" lon="9.0978657"><ele>551.1999999999999</ele><time>2026-05-03T10:02:48.163Z</time></trkpt><trkpt lat="44.7697813" lon="9.0979186"><ele>549.6</ele><time>2026-05-03T10:02:49.166Z</time></trkpt><trkpt lat="44.7698719" lon="9.0979596"><ele>548.0</ele><time>2026-05-03T10:02:50.167Z</time></trkpt><trkpt lat="44.7699575" lon="9.0980019"><ele>548.0</ele><time>2026-05-03T10:02:51.17Z</time></trkpt><trkpt lat="44.7700696" lon="9.0980087"><ele>548.0</ele><time>2026-05-03T10:02:52.168Z</time></trkpt><trkpt lat="44.7701765" lon="9.0980267"><ele>548.0</ele><time>2026-05-03T10:02:53.166Z</time></trkpt><trkpt lat="44.7702832" lon="9.0980459"><ele>548.0</ele><time>2026-05-03T10:02:54.167Z</time></trkpt><trkpt lat="44.7703871" lon="9.0981004"><ele>548.0</ele><time>2026-05-03T10:02:55.167Z</time></trkpt><trkpt lat="44.7704879" lon="9.0981779"><ele>543.5</ele><time>2026-05-03T10:02:56.164Z</time></trkpt><trkpt lat="44.7705845" lon="9.0982616"><ele>539.0</ele><time>2026-05-03T10:02:57.168Z</time></trkpt><trkpt lat="44.7706812" lon="9.0983583"><ele>534.5</ele><time>2026-05-03T10:02:58.162Z</time></trkpt><trkpt lat="44.7707865" lon="9.0984547"><ele>530.0</ele><time>2026-05-03T10:02:59.166Z</time></trkpt><trkpt lat="44.7708892" lon="9.0985392"><ele>530.0</ele><time>2026-05-03T10:03:00.168Z</time></trkpt><trkpt lat="44.7709882" lon="9.0986231"><ele>530.0</ele><time>2026-05-03T10:03:01.166Z</time></trkpt><trkpt lat="44.771085" lon="9.0987065"><ele>530.0</ele><time>2026-05-03T10:03:02.168Z</time></trkpt><trkpt lat="44.7711752" lon="9.0987785"><ele>530.0</ele><time>2026-05-03T10:03:03.172Z</time></trkpt><trkpt lat="44.771257" lon="9.0988491"><ele>530.0</ele><time>2026-05-03T10:03:04.166Z</time></trkpt><trkpt lat="44.7713409" lon="9.0989085"><ele>528.8333333333333</ele><time>2026-05-03T10:03:05.167Z</time></trkpt><trkpt lat="44.7714269" lon="9.098951"><ele>527.6666666666666</ele><time>2026-05-03T10:03:06.166Z</time></trkpt><trkpt lat="44.771511" lon="9.0989782"><ele>526.5</ele><time>2026-05-03T10:03:07.166Z</time></trkpt><trkpt lat="44.771586" lon="9.0990049"><ele>525.3333333333334</ele><time>2026-05-03T10:03:08.167Z</time></trkpt><trkpt lat="44.7716718" lon="9.0990423"><ele>524.1666666666667</ele><time>2026-05-03T10:03:09.171Z</time></trkpt><trkpt lat="44.7717574" lon="9.0990886"><ele>523.0</ele><time>2026-05-03T10:03:10.17Z</time></trkpt><trkpt lat="44.7718358" lon="9.0991764"><ele>520.5</ele><time>2026-05-03T10:03:11.167Z</time></trkpt><trkpt lat="44.7719179" lon="9.0992448"><ele>518.0</ele><time>2026-05-03T10:03:12.175Z</time></trkpt><trkpt lat="44.7719955" lon="9.0993208"><ele>515.5</ele><time>2026-05-03T10:03:13.176Z</time></trkpt><trkpt lat="44.7720672" lon="9.099414"><ele>513.0</ele><time>2026-05-03T10:03:14.165Z</time></trkpt><trkpt lat="44.772103" lon="9.0995114"><ele>510.50000000000006</ele><time>2026-05-03T10:03:15.171Z</time></trkpt><trkpt lat="44.7721141" lon="9.0996153"><ele>508.0</ele><time>2026-05-03T10:03:16.165Z</time></trkpt><trkpt lat="44.7720906" lon="9.0997495"><ele>508.0</ele><time>2026-05-03T10:03:17.171Z</time></trkpt><trkpt lat="44.7720757" lon="9.0998865"><ele>507.99999999999994</ele><time>2026-05-03T10:03:18.171Z</time></trkpt><trkpt lat="44.7720713" lon="9.1000348"><ele>507.99999999999994</ele><time>2026-05-03T10:03:19.166Z</time></trkpt><trkpt lat="44.7720992" lon="9.1001813"><ele>508.0</ele><time>2026-05-03T10:03:20.165Z</time></trkpt><trkpt lat="44.7721392" lon="9.1003126"><ele>508.0</ele><time>2026-05-03T10:03:21.17Z</time></trkpt><trkpt lat="44.7721991" lon="9.1004364"><ele>506.4</ele><time>2026-05-03T10:03:22.172Z</time></trkpt><trkpt lat="44.7722718" lon="9.1005395"><ele>504.79999999999995</ele><time>2026-05-03T10:03:23.165Z</time></trkpt><trkpt lat="44.7723634" lon="9.1006197"><ele>503.2</ele><time>2026-05-03T10:03:24.166Z</time></trkpt><trkpt lat="44.7724641" lon="9.1006978"><ele>501.6</ele><time>2026-05-03T10:03:25.168Z</time></trkpt><trkpt lat="44.7725714" lon="9.1007829"><ele>500.0</ele><time>2026-05-03T10:03:26.168Z</time></trkpt><trkpt lat="44.7726797" lon="9.1008673"><ele>496.2</ele><time>2026-05-03T10:03:27.168Z</time></trkpt><trkpt lat="44.7727758" lon="9.1009492"><ele>492.4</ele><time>2026-05-03T10:03:28.172Z</time></trkpt><trkpt lat="44.7728714" lon="9.1010483"><ele>488.6</ele><time>2026-05-03T10:03:29.166Z</time></trkpt><trkpt lat="44.7729501" lon="9.1011392"><ele>484.8</ele><time>2026-05-03T10:03:30.175Z</time></trkpt><trkpt lat="44.7730181" lon="9.1012192"><ele>481.0</ele><time>2026-05-03T10:03:31.169Z</time></trkpt><trkpt lat="44.7730584" lon="9.101306"><ele>481.0</ele><time>2026-05-03T10:03:32.173Z</time></trkpt><trkpt lat="44.7730447" lon="9.1014589"><ele>481.0</ele><time>2026-05-03T10:03:34.165Z</time></trkpt><trkpt lat="44.7729557" lon="9.1014569"><ele>481.0</ele><time>2026-05-03T10:03:35.17Z</time></trkpt><trkpt lat="44.7728634" lon="9.101452"><ele>481.0</ele><time>2026-05-03T10:03:36.169Z</time></trkpt><trkpt lat="44.77277" lon="9.1014508"><ele>481.0</ele><time>2026-05-03T10:03:37.167Z</time></trkpt><trkpt lat="44.772678" lon="9.1014515"><ele>482.00000000000006</ele><time>2026-05-03T10:03:38.164Z</time></trkpt><trkpt lat="44.7725861" lon="9.1014515"><ele>483.0</ele><time>2026-05-03T10:03:39.164Z</time></trkpt><trkpt lat="44.7725112" lon="9.1014956"><ele>484.0</ele><time>2026-05-03T10:03:40.163Z</time></trkpt><trkpt lat="44.7724577" lon="9.1015783"><ele>485.0</ele><time>2026-05-03T10:03:41.168Z</time></trkpt><trkpt lat="44.7724435" lon="9.1016799"><ele>486.00000000000006</ele><time>2026-05-03T10:03:42.17Z</time></trkpt><trkpt lat="44.7724673" lon="9.1017835"><ele>487.0</ele><time>2026-05-03T10:03:43.165Z</time></trkpt><trkpt lat="44.7725155" lon="9.1018672"><ele>485.0</ele><time>2026-05-03T10:03:44.162Z</time></trkpt><trkpt lat="44.7725874" lon="9.101942"><ele>483.00000000000006</ele><time>2026-05-03T10:03:45.168Z</time></trkpt><trkpt lat="44.7726702" lon="9.10202"><ele>481.00000000000006</ele><time>2026-05-03T10:03:46.165Z</time></trkpt><trkpt lat="44.7727546" lon="9.1021103"><ele>479.0</ele><time>2026-05-03T10:03:47.172Z</time></trkpt><trkpt lat="44.772839" lon="9.1022271"><ele>477.0</ele><time>2026-05-03T10:03:48.174Z</time></trkpt><trkpt lat="44.7729143" lon="9.102356"><ele>474.5</ele><time>2026-05-03T10:03:49.167Z</time></trkpt><trkpt lat="44.772985" lon="9.1024876"><ele>472.0</ele><time>2026-05-03T10:03:50.168Z</time></trkpt><trkpt lat="44.7730447" lon="9.1026299"><ele>469.5</ele><time>2026-05-03T10:03:51.169Z</time></trkpt><trkpt lat="44.7731005" lon="9.1027658"><ele>467.0</ele><time>2026-05-03T10:03:52.163Z</time></trkpt><trkpt lat="44.7731382" lon="9.1029109"><ele>467.0</ele><time>2026-05-03T10:03:53.163Z</time></trkpt><trkpt lat="44.7731665" lon="9.1030514"><ele>467.0</ele><time>2026-05-03T10:03:54.164Z</time></trkpt><trkpt lat="44.7731594" lon="9.1032086"><ele>467.0</ele><time>2026-05-03T10:03:55.163Z</time></trkpt><trkpt lat="44.7731295" lon="9.1033653"><ele>467.0</ele><time>2026-05-03T10:03:56.165Z</time></trkpt><trkpt lat="44.7731054" lon="9.1035295"><ele>463.5</ele><time>2026-05-03T10:03:57.162Z</time></trkpt><trkpt lat="44.7730967" lon="9.1036986"><ele>460.0</ele><time>2026-05-03T10:03:58.166Z</time></trkpt><trkpt lat="44.7731042" lon="9.1038718"><ele>456.5</ele><time>2026-05-03T10:03:59.167Z</time></trkpt><trkpt lat="44.7731123" lon="9.1040431"><ele>453.0</ele><time>2026-05-03T10:04:00.162Z</time></trkpt><trkpt lat="44.7731118" lon="9.1042135"><ele>451.59999999999997</ele><time>2026-05-03T10:04:01.167Z</time></trkpt><trkpt lat="44.7730937" lon="9.1043626"><ele>450.19999999999993</ele><time>2026-05-03T10:04:02.167Z</time></trkpt><trkpt lat="44.7730821" lon="9.1045162"><ele>448.8</ele><time>2026-05-03T10:04:03.173Z</time></trkpt><trkpt lat="44.7730731" lon="9.1046772"><ele>447.4</ele><time>2026-05-03T10:04:04.165Z</time></trkpt><trkpt lat="44.7730718" lon="9.1048339"><ele>446.0</ele><time>2026-05-03T10:04:05.165Z</time></trkpt><trkpt lat="44.7730825" lon="9.1050017"><ele>444.20000000000005</ele><time>2026-05-03T10:04:06.166Z</time></trkpt><trkpt lat="44.7730854" lon="9.105169"><ele>442.40000000000003</ele><time>2026-05-03T10:04:07.164Z</time></trkpt><trkpt lat="44.7730948" lon="9.1053339"><ele>440.6</ele><time>2026-05-03T10:04:08.162Z</time></trkpt><trkpt lat="44.7731039" lon="9.1054791"><ele>438.8</ele><time>2026-05-03T10:04:09.163Z</time></trkpt><trkpt lat="44.7731366" lon="9.1056236"><ele>437.0</ele><time>2026-05-03T10:04:10.169Z</time></trkpt><trkpt lat="44.7731856" lon="9.1057566"><ele>436.40000000000003</ele><time>2026-05-03T10:04:11.166Z</time></trkpt><trkpt lat="44.7732467" lon="9.1058829"><ele>435.80000000000007</ele><time>2026-05-03T10:04:12.162Z</time></trkpt><trkpt lat="44.7733145" lon="9.1060047"><ele>435.2</ele><time>2026-05-03T10:04:13.164Z</time></trkpt><trkpt lat="44.7733852" lon="9.1061183"><ele>434.6</ele><time>2026-05-03T10:04:14.168Z</time></trkpt><trkpt lat="44.7734541" lon="9.106231"><ele>434.0</ele><time>2026-05-03T10:04:15.163Z</time></trkpt><trkpt lat="44.7735217" lon="9.1063406"><ele>433.6</ele><time>2026-05-03T10:04:16.161Z</time></trkpt><trkpt lat="44.7735932" lon="9.1064432"><ele>433.2</ele><time>2026-05-03T10:04:17.163Z</time></trkpt><trkpt lat="44.7736641" lon="9.1065448"><ele>432.80000000000007</ele><time>2026-05-03T10:04:18.17Z</time></trkpt><trkpt lat="44.7737351" lon="9.106643"><ele>432.40000000000003</ele><time>2026-05-03T10:04:19.167Z</time></trkpt><trkpt lat="44.7738057" lon="9.1067472"><ele>432.0</ele><time>2026-05-03T10:04:20.168Z</time></trkpt><trkpt lat="44.7738747" lon="9.106851"><ele>432.0</ele><time>2026-05-03T10:04:21.165Z</time></trkpt><trkpt lat="44.7739464" lon="9.1069539"><ele>432.00000000000006</ele><time>2026-05-03T10:04:22.167Z</time></trkpt><trkpt lat="44.7740161" lon="9.1070605"><ele>432.00000000000006</ele><time>2026-05-03T10:04:23.167Z</time></trkpt><trkpt lat="44.7740808" lon="9.1071567"><ele>432.0</ele><time>2026-05-03T10:04:24.162Z</time></trkpt><trkpt lat="44.7741427" lon="9.1072493"><ele>432.0</ele><time>2026-05-03T10:04:25.162Z</time></trkpt><trkpt lat="44.7741972" lon="9.1073351"><ele>432.0</ele><time>2026-05-03T10:04:26.163Z</time></trkpt><trkpt lat="44.7742436" lon="9.1074099"><ele>432.0</ele><time>2026-05-03T10:04:27.168Z</time></trkpt><trkpt lat="44.7743049" lon="9.107525"><ele>432.0</ele><time>2026-05-03T10:04:29.166Z</time></trkpt><trkpt lat="44.7744489" lon="9.1075699"><ele>432.0</ele><time>2026-05-03T10:05:00.161Z</time></trkpt><trkpt lat="44.7746742" lon="9.1073264"><ele>434.5</ele><time>2026-05-03T10:05:03.171Z</time></trkpt><trkpt lat="44.7747628" lon="9.1071933"><ele>437.0</ele><time>2026-05-03T10:05:04.162Z</time></trkpt><trkpt lat="44.7750486" lon="9.1067984"><ele>437.0</ele><time>2026-05-03T10:05:07.166Z</time></trkpt><trkpt lat="44.7751393" lon="9.1066491"><ele>437.0</ele><time>2026-05-03T10:05:08.168Z</time></trkpt><trkpt lat="44.7752224" lon="9.1064848"><ele>437.0</ele><time>2026-05-03T10:05:09.161Z</time></trkpt><trkpt lat="44.7752883" lon="9.1063165"><ele>437.0</ele><time>2026-05-03T10:05:10.161Z</time></trkpt><trkpt lat="44.7753535" lon="9.1061538"><ele>439.25</ele><time>2026-05-03T10:05:11.165Z</time></trkpt><trkpt lat="44.7754225" lon="9.1060187"><ele>441.5</ele><time>2026-05-03T10:05:12.164Z</time></trkpt><trkpt lat="44.7755243" lon="9.1059139"><ele>443.75</ele><time>2026-05-03T10:05:13.161Z</time></trkpt><trkpt lat="44.7756226" lon="9.1057995"><ele>446.0</ele><time>2026-05-03T10:05:14.165Z</time></trkpt><trkpt lat="44.7757219" lon="9.1056757"><ele>442.5</ele><time>2026-05-03T10:05:15.167Z</time></trkpt><trkpt lat="44.7758115" lon="9.1055432"><ele>439.0</ele><time>2026-05-03T10:05:16.166Z</time></trkpt><trkpt lat="44.7759144" lon="9.1054197"><ele>435.5</ele><time>2026-05-03T10:05:17.163Z</time></trkpt><trkpt lat="44.7760173" lon="9.1053048"><ele>432.0</ele><time>2026-05-03T10:05:18.167Z</time></trkpt><trkpt lat="44.776133" lon="9.1052044"><ele>432.0</ele><time>2026-05-03T10:05:19.16Z</time></trkpt><trkpt lat="44.7762494" lon="9.1051002"><ele>432.0</ele><time>2026-05-03T10:05:20.163Z</time></trkpt><trkpt lat="44.776373" lon="9.1050004"><ele>432.0</ele><time>2026-05-03T10:05:21.164Z</time></trkpt><trkpt lat="44.7764853" lon="9.104891"><ele>432.0</ele><time>2026-05-03T10:05:22.167Z</time></trkpt><trkpt lat="44.7765807" lon="9.1047705"><ele>430.25</ele><time>2026-05-03T10:05:23.163Z</time></trkpt><trkpt lat="44.7766648" lon="9.1046348"><ele>428.5</ele><time>2026-05-03T10:05:24.166Z</time></trkpt><trkpt lat="44.7767362" lon="9.1044727"><ele>426.75</ele><time>2026-05-03T10:05:25.176Z</time></trkpt><trkpt lat="44.7768097" lon="9.1043136"><ele>425.0</ele><time>2026-05-03T10:05:26.162Z</time></trkpt><trkpt lat="44.7768811" lon="9.1041655"><ele>422.0</ele><time>2026-05-03T10:05:27.173Z</time></trkpt><trkpt lat="44.7769546" lon="9.104035"><ele>419.0</ele><time>2026-05-03T10:05:28.167Z</time></trkpt><trkpt lat="44.7772872" lon="9.1036109"><ele>419.0</ele><time>2026-05-03T10:05:32.166Z</time></trkpt><trkpt lat="44.7776404" lon="9.1033359"><ele>419.0</ele><time>2026-05-03T10:05:35.166Z</time></trkpt><trkpt lat="44.777732" lon="9.1031815"><ele>419.0</ele><time>2026-05-03T10:05:36.161Z</time></trkpt><trkpt lat="44.7778926" lon="9.1028684"><ele>419.0</ele><time>2026-05-03T10:05:38.164Z</time></trkpt><trkpt lat="44.7779811" lon="9.1027328"><ele>419.0</ele><time>2026-05-03T10:05:39.166Z</time></trkpt><trkpt lat="44.7782934" lon="9.1023386"><ele>422.5</ele><time>2026-05-03T10:05:42.164Z</time></trkpt><trkpt lat="44.7784109" lon="9.102205"><ele>426.0</ele><time>2026-05-03T10:05:43.162Z</time></trkpt><trkpt lat="44.7787484" lon="9.101819"><ele>426.0</ele><time>2026-05-03T10:05:46.17Z</time></trkpt><trkpt lat="44.7788437" lon="9.1017066"><ele>426.0</ele><time>2026-05-03T10:05:47.172Z</time></trkpt><trkpt lat="44.7791262" lon="9.1013314"><ele>420.5</ele><time>2026-05-03T10:05:50.164Z</time></trkpt><trkpt lat="44.7791933" lon="9.1011647"><ele>415.0</ele><time>2026-05-03T10:05:51.164Z</time></trkpt><trkpt lat="44.7792696" lon="9.1004887"><ele>417.5</ele><time>2026-05-03T10:05:55.17Z</time></trkpt><trkpt lat="44.7794886" lon="9.1000472"><ele>420.0</ele><time>2026-05-03T10:05:58.164Z</time></trkpt><trkpt lat="44.7795897" lon="9.0999083"><ele>408.0</ele><time>2026-05-03T10:05:59.166Z</time></trkpt><trkpt lat="44.7800767" lon="9.0993428"><ele>409.0</ele><time>2026-05-03T10:06:03.165Z</time></trkpt><trkpt lat="44.7805858" lon="9.0985995"><ele>409.0</ele><time>2026-05-03T10:06:08.161Z</time></trkpt><trkpt lat="44.7806303" lon="9.098404"><ele>409.0</ele><time>2026-05-03T10:06:09.168Z</time></trkpt><trkpt lat="44.7806489" lon="9.0981989"><ele>409.0</ele><time>2026-05-03T10:06:10.166Z</time></trkpt><trkpt lat="44.7806802" lon="9.0979761"><ele>408.33333333333337</ele><time>2026-05-03T10:06:11.162Z</time></trkpt><trkpt lat="44.7807308" lon="9.0977557"><ele>407.66666666666663</ele><time>2026-05-03T10:06:12.163Z</time></trkpt><trkpt lat="44.7807742" lon="9.097535"><ele>407.0</ele><time>2026-05-03T10:06:13.163Z</time></trkpt><trkpt lat="44.7808189" lon="9.097314"><ele>405.0</ele><time>2026-05-03T10:06:14.163Z</time></trkpt><trkpt lat="44.7808614" lon="9.0970859"><ele>403.0</ele><time>2026-05-03T10:06:15.168Z</time></trkpt><trkpt lat="44.7809102" lon="9.09685"><ele>401.0</ele><time>2026-05-03T10:06:16.165Z</time></trkpt><trkpt lat="44.7809581" lon="9.0966103"><ele>402.0</ele><time>2026-05-03T10:06:17.163Z</time></trkpt><trkpt lat="44.7810081" lon="9.0963715"><ele>403.0</ele><time>2026-05-03T10:06:18.165Z</time></trkpt><trkpt lat="44.7810537" lon="9.096132"><ele>404.0</ele><time>2026-05-03T10:06:19.17Z</time></trkpt><trkpt lat="44.7810976" lon="9.0958908"><ele>403.0</ele><time>2026-05-03T10:06:20.162Z</time></trkpt><trkpt lat="44.7811447" lon="9.095647"><ele>402.0</ele><time>2026-05-03T10:06:21.167Z</time></trkpt><trkpt lat="44.7811895" lon="9.0954053"><ele>401.0</ele><time>2026-05-03T10:06:22.17Z</time></trkpt><trkpt lat="44.7812391" lon="9.0951653"><ele>401.0</ele><time>2026-05-03T10:06:23.165Z</time></trkpt><trkpt lat="44.7812885" lon="9.0949295"><ele>401.0</ele><time>2026-05-03T10:06:24.167Z</time></trkpt><trkpt lat="44.7813374" lon="9.0946949"><ele>401.0</ele><time>2026-05-03T10:06:25.173Z</time></trkpt><trkpt lat="44.7813865" lon="9.0944625"><ele>401.0</ele><time>2026-05-03T10:06:26.166Z</time></trkpt><trkpt lat="44.7814275" lon="9.0942278"><ele>401.0</ele><time>2026-05-03T10:06:27.169Z</time></trkpt><trkpt lat="44.7814677" lon="9.0939883"><ele>401.0</ele><time>2026-05-03T10:06:28.162Z</time></trkpt><trkpt lat="44.7815076" lon="9.0937481"><ele>400.3333333333333</ele><time>2026-05-03T10:06:29.17Z</time></trkpt><trkpt lat="44.781546" lon="9.0935038"><ele>399.66666666666663</ele><time>2026-05-03T10:06:30.168Z</time></trkpt><trkpt lat="44.7815774" lon="9.0932612"><ele>399.0</ele><time>2026-05-03T10:06:31.163Z</time></trkpt><trkpt lat="44.7816066" lon="9.0930274"><ele>399.0</ele><time>2026-05-03T10:06:32.167Z</time></trkpt><trkpt lat="44.7816274" lon="9.0927921"><ele>399.0</ele><time>2026-05-03T10:06:33.17Z</time></trkpt><trkpt lat="44.7816536" lon="9.0925565"><ele>399.0</ele><time>2026-05-03T10:06:34.161Z</time></trkpt><trkpt lat="44.7816858" lon="9.0923254"><ele>398.66666666666663</ele><time>2026-05-03T10:06:35.168Z</time></trkpt><trkpt lat="44.7817131" lon="9.0920922"><ele>398.3333333333333</ele><time>2026-05-03T10:06:36.169Z</time></trkpt><trkpt lat="44.781724" lon="9.0918506"><ele>398.0</ele><time>2026-05-03T10:06:37.17Z</time></trkpt><trkpt lat="44.781722" lon="9.0916031"><ele>396.66666666666663</ele><time>2026-05-03T10:06:38.162Z</time></trkpt><trkpt lat="44.7817243" lon="9.0913544"><ele>395.33333333333337</ele><time>2026-05-03T10:06:39.161Z</time></trkpt><trkpt lat="44.7817408" lon="9.091102"><ele>394.0</ele><time>2026-05-03T10:06:40.171Z</time></trkpt><trkpt lat="44.7817666" lon="9.0908477"><ele>392.33333333333337</ele><time>2026-05-03T10:06:41.163Z</time></trkpt><trkpt lat="44.7817889" lon="9.0905931"><ele>390.66666666666663</ele><time>2026-05-03T10:06:42.165Z</time></trkpt><trkpt lat="44.7818121" lon="9.0903325"><ele>389.0</ele><time>2026-05-03T10:06:43.164Z</time></trkpt><trkpt lat="44.7818342" lon="9.090081"><ele>395.66666666666663</ele><time>2026-05-03T10:06:44.163Z</time></trkpt><trkpt lat="44.7818548" lon="9.0898328"><ele>402.33333333333337</ele><time>2026-05-03T10:06:45.161Z</time></trkpt><trkpt lat="44.7818704" lon="9.0895818"><ele>409.0</ele><time>2026-05-03T10:06:46.165Z</time></trkpt><trkpt lat="44.7818775" lon="9.0893263"><ele>407.33333333333337</ele><time>2026-05-03T10:06:47.167Z</time></trkpt><trkpt lat="44.7818749" lon="9.0890815"><ele>405.66666666666663</ele><time>2026-05-03T10:06:48.169Z</time></trkpt><trkpt lat="44.7818642" lon="9.0888461"><ele>404.0</ele><time>2026-05-03T10:06:49.165Z</time></trkpt><trkpt lat="44.7818336" lon="9.0886225"><ele>397.0</ele><time>2026-05-03T10:06:50.163Z</time></trkpt><trkpt lat="44.781784" lon="9.0884066"><ele>390.0</ele><time>2026-05-03T10:06:51.163Z</time></trkpt><trkpt lat="44.7817328" lon="9.0881947"><ele>383.0</ele><time>2026-05-03T10:06:52.162Z</time></trkpt><trkpt lat="44.7816966" lon="9.0879729"><ele>382.33333333333337</ele><time>2026-05-03T10:06:53.165Z</time></trkpt><trkpt lat="44.7816836" lon="9.0877481"><ele>381.6666666666667</ele><time>2026-05-03T10:06:54.162Z</time></trkpt><trkpt lat="44.7816811" lon="9.0875186"><ele>381.0</ele><time>2026-05-03T10:06:55.175Z</time></trkpt><trkpt lat="44.781711" lon="9.087305"><ele>380.3333333333333</ele><time>2026-05-03T10:06:56.173Z</time></trkpt><trkpt lat="44.781762" lon="9.087092"><ele>379.66666666666663</ele><time>2026-05-03T10:06:57.166Z</time></trkpt><trkpt lat="44.7818266" lon="9.0868798"><ele>379.0</ele><time>2026-05-03T10:06:58.165Z</time></trkpt><trkpt lat="44.7818727" lon="9.0866561"><ele>385.66666666666663</ele><time>2026-05-03T10:06:59.181Z</time></trkpt><trkpt lat="44.7819048" lon="9.086419"><ele>392.3333333333333</ele><time>2026-05-03T10:07:00.17Z</time></trkpt><trkpt lat="44.7819224" lon="9.0861779"><ele>399.0</ele><time>2026-05-03T10:07:01.161Z</time></trkpt><trkpt lat="44.7819289" lon="9.0859337"><ele>399.66666666666663</ele><time>2026-05-03T10:07:02.164Z</time></trkpt><trkpt lat="44.7819331" lon="9.0856801"><ele>400.3333333333333</ele><time>2026-05-03T10:07:03.166Z</time></trkpt><trkpt lat="44.7819318" lon="9.0854242"><ele>401.0</ele><time>2026-05-03T10:07:04.164Z</time></trkpt><trkpt lat="44.7819305" lon="9.0851674"><ele>400.3333333333333</ele><time>2026-05-03T10:07:05.164Z</time></trkpt><trkpt lat="44.7819351" lon="9.0849091"><ele>399.66666666666663</ele><time>2026-05-03T10:07:06.166Z</time></trkpt><trkpt lat="44.7819315" lon="9.0846564"><ele>399.0</ele><time>2026-05-03T10:07:07.165Z</time></trkpt><trkpt lat="44.7819203" lon="9.0843932"><ele>399.0</ele><time>2026-05-03T10:07:08.164Z</time></trkpt><trkpt lat="44.7819185" lon="9.0841415"><ele>399.0</ele><time>2026-05-03T10:07:09.163Z</time></trkpt><trkpt lat="44.7819118" lon="9.0838857"><ele>399.0</ele><time>2026-05-03T10:07:10.166Z</time></trkpt><trkpt lat="44.7819012" lon="9.0836309"><ele>400.0</ele><time>2026-05-03T10:07:11.162Z</time></trkpt><trkpt lat="44.7818745" lon="9.0833933"><ele>401.0</ele><time>2026-05-03T10:07:12.164Z</time></trkpt><trkpt lat="44.7818269" lon="9.0831567"><ele>402.0</ele><time>2026-05-03T10:07:13.164Z</time></trkpt><trkpt lat="44.7817588" lon="9.0829344"><ele>393.0</ele><time>2026-05-03T10:07:14.164Z</time></trkpt><trkpt lat="44.7816907" lon="9.0827171"><ele>384.0</ele><time>2026-05-03T10:07:15.163Z</time></trkpt><trkpt lat="44.7816371" lon="9.0824889"><ele>375.0</ele><time>2026-05-03T10:07:16.166Z</time></trkpt><trkpt lat="44.7815894" lon="9.0822402"><ele>375.0</ele><time>2026-05-03T10:07:17.164Z</time></trkpt><trkpt lat="44.7815475" lon="9.081997"><ele>375.0</ele><time>2026-05-03T10:07:18.166Z</time></trkpt><trkpt lat="44.7815058" lon="9.0817535"><ele>375.0</ele><time>2026-05-03T10:07:19.166Z</time></trkpt><trkpt lat="44.7814693" lon="9.0815072"><ele>375.0</ele><time>2026-05-03T10:07:20.164Z</time></trkpt><trkpt lat="44.7814384" lon="9.081255"><ele>375.0</ele><time>2026-05-03T10:07:21.17Z</time></trkpt><trkpt lat="44.7814138" lon="9.0810048"><ele>375.0</ele><time>2026-05-03T10:07:22.162Z</time></trkpt><trkpt lat="44.7813933" lon="9.0807474"><ele>376.0</ele><time>2026-05-03T10:07:23.169Z</time></trkpt><trkpt lat="44.7813651" lon="9.0804811"><ele>377.0</ele><time>2026-05-03T10:07:24.167Z</time></trkpt><trkpt lat="44.7813282" lon="9.0802189"><ele>378.0</ele><time>2026-05-03T10:07:25.167Z</time></trkpt><trkpt lat="44.7812922" lon="9.0799527"><ele>378.6666666666667</ele><time>2026-05-03T10:07:26.163Z</time></trkpt><trkpt lat="44.781249" lon="9.0796924"><ele>379.33333333333337</ele><time>2026-05-03T10:07:27.163Z</time></trkpt><trkpt lat="44.7812126" lon="9.0794337"><ele>380.0</ele><time>2026-05-03T10:07:28.164Z</time></trkpt><trkpt lat="44.7811779" lon="9.0791807"><ele>380.0</ele><time>2026-05-03T10:07:29.168Z</time></trkpt><trkpt lat="44.7811416" lon="9.0789275"><ele>380.0</ele><time>2026-05-03T10:07:30.165Z</time></trkpt><trkpt lat="44.7811061" lon="9.0786779"><ele>380.0</ele><time>2026-05-03T10:07:31.172Z</time></trkpt><trkpt lat="44.7810731" lon="9.0784373"><ele>379.0</ele><time>2026-05-03T10:07:32.17Z</time></trkpt><trkpt lat="44.7810438" lon="9.0781955"><ele>378.0</ele><time>2026-05-03T10:07:33.167Z</time></trkpt><trkpt lat="44.7810062" lon="9.0779487"><ele>377.0</ele><time>2026-05-03T10:07:34.163Z</time></trkpt><trkpt lat="44.7809718" lon="9.0777066"><ele>372.6666666666667</ele><time>2026-05-03T10:07:35.164Z</time></trkpt><trkpt lat="44.7809416" lon="9.0774654"><ele>368.3333333333333</ele><time>2026-05-03T10:07:36.163Z</time></trkpt><trkpt lat="44.7809079" lon="9.0772143"><ele>364.0</ele><time>2026-05-03T10:07:37.162Z</time></trkpt><trkpt lat="44.7808695" lon="9.0769662"><ele>364.0</ele><time>2026-05-03T10:07:38.164Z</time></trkpt><trkpt lat="44.780835" lon="9.076713"><ele>364.0</ele><time>2026-05-03T10:07:39.164Z</time></trkpt><trkpt lat="44.780803" lon="9.0764615"><ele>364.0</ele><time>2026-05-03T10:07:40.165Z</time></trkpt><trkpt lat="44.780772" lon="9.0762177"><ele>365.3333333333333</ele><time>2026-05-03T10:07:41.172Z</time></trkpt><trkpt lat="44.7807407" lon="9.0759703"><ele>366.6666666666667</ele><time>2026-05-03T10:07:42.168Z</time></trkpt><trkpt lat="44.7807139" lon="9.0757228"><ele>368.0</ele><time>2026-05-03T10:07:43.166Z</time></trkpt><trkpt lat="44.7806892" lon="9.0754694"><ele>369.0</ele><time>2026-05-03T10:07:44.166Z</time></trkpt><trkpt lat="44.7806644" lon="9.0752111"><ele>370.0</ele><time>2026-05-03T10:07:45.165Z</time></trkpt><trkpt lat="44.7806338" lon="9.0749489"><ele>371.0</ele><time>2026-05-03T10:07:46.16Z</time></trkpt><trkpt lat="44.7806075" lon="9.0746884"><ele>371.6666666666667</ele><time>2026-05-03T10:07:47.167Z</time></trkpt><trkpt lat="44.7805819" lon="9.07443"><ele>372.3333333333333</ele><time>2026-05-03T10:07:48.163Z</time></trkpt><trkpt lat="44.7805602" lon="9.0741703"><ele>373.0</ele><time>2026-05-03T10:07:49.167Z</time></trkpt><trkpt lat="44.7805328" lon="9.0739117"><ele>371.0</ele><time>2026-05-03T10:07:50.162Z</time></trkpt><trkpt lat="44.7805078" lon="9.0736547"><ele>369.0</ele><time>2026-05-03T10:07:51.17Z</time></trkpt><trkpt lat="44.7804845" lon="9.0734027"><ele>367.0</ele><time>2026-05-03T10:07:52.167Z</time></trkpt><trkpt lat="44.7804629" lon="9.0731693"><ele>365.3333333333333</ele><time>2026-05-03T10:07:53.164Z</time></trkpt><trkpt lat="44.7804441" lon="9.0729449"><ele>363.6666666666667</ele><time>2026-05-03T10:07:54.165Z</time></trkpt><trkpt lat="44.7804243" lon="9.0727113"><ele>362.0</ele><time>2026-05-03T10:07:55.165Z</time></trkpt><trkpt lat="44.7804026" lon="9.0724771"><ele>360.0</ele><time>2026-05-03T10:07:56.163Z</time></trkpt><trkpt lat="44.7803897" lon="9.0722404"><ele>358.0</ele><time>2026-05-03T10:07:57.168Z</time></trkpt><trkpt lat="44.780379" lon="9.0720046"><ele>356.0</ele><time>2026-05-03T10:07:58.165Z</time></trkpt><trkpt lat="44.7803767" lon="9.071767"><ele>354.33333333333337</ele><time>2026-05-03T10:07:59.163Z</time></trkpt><trkpt lat="44.7803778" lon="9.0715344"><ele>352.6666666666667</ele><time>2026-05-03T10:08:00.16Z</time></trkpt><trkpt lat="44.7803762" lon="9.0713005"><ele>351.0</ele><time>2026-05-03T10:08:01.164Z</time></trkpt><trkpt lat="44.7803795" lon="9.0710712"><ele>351.0</ele><time>2026-05-03T10:08:02.164Z</time></trkpt><trkpt lat="44.7803821" lon="9.0708446"><ele>351.0</ele><time>2026-05-03T10:08:03.161Z</time></trkpt><trkpt lat="44.7803879" lon="9.0706108"><ele>351.0</ele><time>2026-05-03T10:08:04.164Z</time></trkpt><trkpt lat="44.7803944" lon="9.0703777"><ele>350.6666666666667</ele><time>2026-05-03T10:08:05.162Z</time></trkpt><trkpt lat="44.7803967" lon="9.0701413"><ele>350.33333333333337</ele><time>2026-05-03T10:08:06.16Z</time></trkpt><trkpt lat="44.7804007" lon="9.0699091"><ele>350.0</ele><time>2026-05-03T10:08:07.165Z</time></trkpt><trkpt lat="44.7804136" lon="9.0696824"><ele>349.6666666666667</ele><time>2026-05-03T10:08:08.161Z</time></trkpt><trkpt lat="44.7804389" lon="9.0694567"><ele>349.3333333333333</ele><time>2026-05-03T10:08:09.162Z</time></trkpt><trkpt lat="44.7804817" lon="9.069239"><ele>349.0</ele><time>2026-05-03T10:08:10.168Z</time></trkpt><trkpt lat="44.7805421" lon="9.0690183"><ele>347.5</ele><time>2026-05-03T10:08:11.163Z</time></trkpt><trkpt lat="44.7806002" lon="9.0688131"><ele>346.0</ele><time>2026-05-03T10:08:12.17Z</time></trkpt><trkpt lat="44.7806569" lon="9.0686219"><ele>344.5</ele><time>2026-05-03T10:08:13.171Z</time></trkpt><trkpt lat="44.7807219" lon="9.068442"><ele>343.0</ele><time>2026-05-03T10:08:14.168Z</time></trkpt><trkpt lat="44.7808016" lon="9.0682918"><ele>342.75</ele><time>2026-05-03T10:08:15.164Z</time></trkpt><trkpt lat="44.7809019" lon="9.0681531"><ele>342.5</ele><time>2026-05-03T10:08:16.163Z</time></trkpt><trkpt lat="44.7810113" lon="9.0680449"><ele>342.25</ele><time>2026-05-03T10:08:17.166Z</time></trkpt><trkpt lat="44.7811262" lon="9.067965"><ele>342.0</ele><time>2026-05-03T10:08:18.172Z</time></trkpt><trkpt lat="44.7812757" lon="9.0679105"><ele>342.0</ele><time>2026-05-03T10:08:19.172Z</time></trkpt><trkpt lat="44.7814272" lon="9.0678458"><ele>342.0</ele><time>2026-05-03T10:08:20.164Z</time></trkpt><trkpt lat="44.781579" lon="9.0677832"><ele>342.0</ele><time>2026-05-03T10:08:21.169Z</time></trkpt><trkpt lat="44.7817286" lon="9.0677215"><ele>342.5</ele><time>2026-05-03T10:08:22.165Z</time></trkpt><trkpt lat="44.7818679" lon="9.0676571"><ele>343.0</ele><time>2026-05-03T10:08:23.16Z</time></trkpt><trkpt lat="44.7820008" lon="9.067608"><ele>343.5</ele><time>2026-05-03T10:08:24.166Z</time></trkpt><trkpt lat="44.7821202" lon="9.0675572"><ele>344.0</ele><time>2026-05-03T10:08:25.161Z</time></trkpt><trkpt lat="44.7822398" lon="9.0675076"><ele>344.0</ele><time>2026-05-03T10:08:26.164Z</time></trkpt><trkpt lat="44.7823509" lon="9.0674661"><ele>344.0</ele><time>2026-05-03T10:08:27.169Z</time></trkpt><trkpt lat="44.7824668" lon="9.0674259"><ele>344.0</ele><time>2026-05-03T10:08:28.162Z</time></trkpt><trkpt lat="44.7825851" lon="9.0673639"><ele>344.0</ele><time>2026-05-03T10:08:29.161Z</time></trkpt><trkpt lat="44.7827121" lon="9.067289"><ele>342.5</ele><time>2026-05-03T10:08:30.163Z</time></trkpt><trkpt lat="44.7828309" lon="9.0671963"><ele>341.0</ele><time>2026-05-03T10:08:31.174Z</time></trkpt><trkpt lat="44.7829301" lon="9.0670936"><ele>339.5</ele><time>2026-05-03T10:08:32.161Z</time></trkpt><trkpt lat="44.7830401" lon="9.0669812"><ele>338.0</ele><time>2026-05-03T10:08:33.163Z</time></trkpt><trkpt lat="44.7831553" lon="9.0668686"><ele>338.0</ele><time>2026-05-03T10:08:34.163Z</time></trkpt><trkpt lat="44.7832823" lon="9.0667493"><ele>338.0</ele><time>2026-05-03T10:08:35.163Z</time></trkpt><trkpt lat="44.7834001" lon="9.0666344"><ele>338.0</ele><time>2026-05-03T10:08:36.168Z</time></trkpt><trkpt lat="44.7835015" lon="9.0665051"><ele>338.0</ele><time>2026-05-03T10:08:37.165Z</time></trkpt><trkpt lat="44.7836051" lon="9.0663846"><ele>337.75</ele><time>2026-05-03T10:08:38.167Z</time></trkpt><trkpt lat="44.7837032" lon="9.0662874"><ele>337.5</ele><time>2026-05-03T10:08:39.166Z</time></trkpt><trkpt lat="44.7837885" lon="9.066194"><ele>337.25</ele><time>2026-05-03T10:08:40.169Z</time></trkpt><trkpt lat="44.783876" lon="9.0660867"><ele>337.0</ele><time>2026-05-03T10:08:41.165Z</time></trkpt><trkpt lat="44.7839671" lon="9.0659784"><ele>337.0</ele><time>2026-05-03T10:08:42.165Z</time></trkpt><trkpt lat="44.7840494" lon="9.0658778"><ele>337.0</ele><time>2026-05-03T10:08:43.163Z</time></trkpt><trkpt lat="44.7841279" lon="9.0658053"><ele>337.0</ele><time>2026-05-03T10:08:44.165Z</time></trkpt><trkpt lat="44.7842089" lon="9.0657545"><ele>337.0</ele><time>2026-05-03T10:08:45.174Z</time></trkpt><trkpt lat="44.7843196" lon="9.0657051"><ele>337.0</ele><time>2026-05-03T10:08:46.167Z</time></trkpt><trkpt lat="44.784435" lon="9.0656595"><ele>336.8</ele><time>2026-05-03T10:08:47.163Z</time></trkpt><trkpt lat="44.7845308" lon="9.0656175"><ele>336.6</ele><time>2026-05-03T10:08:48.165Z</time></trkpt><trkpt lat="44.7846294" lon="9.0655641"><ele>336.40000000000003</ele><time>2026-05-03T10:08:49.163Z</time></trkpt><trkpt lat="44.784731" lon="9.0655005"><ele>336.20000000000005</ele><time>2026-05-03T10:08:50.168Z</time></trkpt><trkpt lat="44.78483" lon="9.065443"><ele>336.0</ele><time>2026-05-03T10:08:51.163Z</time></trkpt><trkpt lat="44.784934" lon="9.0653954"><ele>336.0</ele><time>2026-05-03T10:08:52.168Z</time></trkpt><trkpt lat="44.7850233" lon="9.0653368"><ele>336.0</ele><time>2026-05-03T10:08:53.167Z</time></trkpt><trkpt lat="44.7851164" lon="9.0652814"><ele>336.0</ele><time>2026-05-03T10:08:54.166Z</time></trkpt><trkpt lat="44.7852149" lon="9.0652201"><ele>336.0</ele><time>2026-05-03T10:08:55.165Z</time></trkpt><trkpt lat="44.7853016" lon="9.0651516"><ele>336.0</ele><time>2026-05-03T10:08:56.166Z</time></trkpt><trkpt lat="44.7853829" lon="9.0650912"><ele>336.5</ele><time>2026-05-03T10:08:57.167Z</time></trkpt><trkpt lat="44.7854628" lon="9.0650157"><ele>337.0</ele><time>2026-05-03T10:08:58.165Z</time></trkpt><trkpt lat="44.7855428" lon="9.0649431"><ele>337.5</ele><time>2026-05-03T10:08:59.165Z</time></trkpt><trkpt lat="44.7856121" lon="9.0648639"><ele>338.0</ele><time>2026-05-03T10:09:00.161Z</time></trkpt><trkpt lat="44.7856872" lon="9.0648114"><ele>338.5</ele><time>2026-05-03T10:09:01.17Z</time></trkpt><trkpt lat="44.7857409" lon="9.0647461"><ele>339.0</ele><time>2026-05-03T10:09:02.164Z</time></trkpt><trkpt lat="44.7858075" lon="9.0646333"><ele>338.0</ele><time>2026-05-03T10:09:04.164Z</time></trkpt><trkpt lat="44.7858887" lon="9.0645412"><ele>337.0</ele><time>2026-05-03T10:09:06.165Z</time></trkpt><trkpt lat="44.7859475" lon="9.0644461"><ele>336.0</ele><time>2026-05-03T10:09:08.165Z</time></trkpt><trkpt lat="44.7860151" lon="9.0643752"><ele>335.0</ele><time>2026-05-03T10:09:10.168Z</time></trkpt><trkpt lat="44.7860766" lon="9.0643491"><ele>334.0</ele><time>2026-05-03T10:09:13.162Z</time></trkpt><trkpt lat="44.7861595" lon="9.0643832"><ele>333.0</ele><time>2026-05-03T10:09:48.164Z</time></trkpt><trkpt lat="44.7862171" lon="9.0645155"><ele>332.4</ele><time>2026-05-03T10:09:50.173Z</time></trkpt><trkpt lat="44.7862348" lon="9.0646248"><ele>331.79999999999995</ele><time>2026-05-03T10:09:51.172Z</time></trkpt><trkpt lat="44.7862442" lon="9.0647483"><ele>331.2</ele><time>2026-05-03T10:09:52.167Z</time></trkpt><trkpt lat="44.7862604" lon="9.064886"><ele>330.6</ele><time>2026-05-03T10:09:53.163Z</time></trkpt><trkpt lat="44.7862796" lon="9.0650349"><ele>330.0</ele><time>2026-05-03T10:09:54.163Z</time></trkpt><trkpt lat="44.7862972" lon="9.0651907"><ele>330.0</ele><time>2026-05-03T10:09:55.163Z</time></trkpt><trkpt lat="44.7863205" lon="9.0653596"><ele>330.0</ele><time>2026-05-03T10:09:56.166Z</time></trkpt><trkpt lat="44.7863547" lon="9.0655331"><ele>330.0</ele><time>2026-05-03T10:09:57.172Z</time></trkpt><trkpt lat="44.7864022" lon="9.0657028"><ele>330.0</ele><time>2026-05-03T10:09:58.161Z</time></trkpt><trkpt lat="44.7864616" lon="9.0658652"><ele>330.25</ele><time>2026-05-03T10:09:59.163Z</time></trkpt><trkpt lat="44.7865222" lon="9.0660238"><ele>330.5</ele><time>2026-05-03T10:10:00.164Z</time></trkpt><trkpt lat="44.7865837" lon="9.066187"><ele>330.75</ele><time>2026-05-03T10:10:01.164Z</time></trkpt><trkpt lat="44.786641" lon="9.0663502"><ele>331.0</ele><time>2026-05-03T10:10:02.162Z</time></trkpt><trkpt lat="44.7866952" lon="9.0665165"><ele>331.5</ele><time>2026-05-03T10:10:03.167Z</time></trkpt><trkpt lat="44.7867447" lon="9.0666878"><ele>332.0</ele><time>2026-05-03T10:10:04.17Z</time></trkpt><trkpt lat="44.7867965" lon="9.0668643"><ele>332.5</ele><time>2026-05-03T10:10:05.17Z</time></trkpt><trkpt lat="44.7868432" lon="9.067047"><ele>333.0</ele><time>2026-05-03T10:10:06.166Z</time></trkpt><trkpt lat="44.786894" lon="9.0672344"><ele>333.0</ele><time>2026-05-03T10:10:07.167Z</time></trkpt><trkpt lat="44.7869527" lon="9.0674238"><ele>333.0</ele><time>2026-05-03T10:10:08.173Z</time></trkpt><trkpt lat="44.7870108" lon="9.067623"><ele>333.0</ele><time>2026-05-03T10:10:09.166Z</time></trkpt><trkpt lat="44.787073" lon="9.0678217"><ele>333.0</ele><time>2026-05-03T10:10:10.162Z</time></trkpt><trkpt lat="44.7871389" lon="9.0680056"><ele>333.0</ele><time>2026-05-03T10:10:11.163Z</time></trkpt><trkpt lat="44.7872026" lon="9.0681995"><ele>333.0</ele><time>2026-05-03T10:10:12.166Z</time></trkpt><trkpt lat="44.7872652" lon="9.0683882"><ele>333.0</ele><time>2026-05-03T10:10:13.166Z</time></trkpt><trkpt lat="44.7873324" lon="9.0685872"><ele>333.0</ele><time>2026-05-03T10:10:14.17Z</time></trkpt><trkpt lat="44.7874028" lon="9.0687716"><ele>333.0</ele><time>2026-05-03T10:10:15.162Z</time></trkpt><trkpt lat="44.7874816" lon="9.0689582"><ele>333.0</ele><time>2026-05-03T10:10:16.163Z</time></trkpt><trkpt lat="44.7875604" lon="9.0691499"><ele>333.0</ele><time>2026-05-03T10:10:17.166Z</time></trkpt><trkpt lat="44.7876418" lon="9.0693394"><ele>333.0</ele><time>2026-05-03T10:10:18.162Z</time></trkpt><trkpt lat="44.7877191" lon="9.0695295"><ele>333.0</ele><time>2026-05-03T10:10:19.163Z</time></trkpt><trkpt lat="44.7877993" lon="9.0697207"><ele>333.3333333333333</ele><time>2026-05-03T10:10:20.164Z</time></trkpt><trkpt lat="44.7878767" lon="9.0699132"><ele>333.66666666666663</ele><time>2026-05-03T10:10:21.165Z</time></trkpt><trkpt lat="44.787955" lon="9.0701098"><ele>334.0</ele><time>2026-05-03T10:10:22.163Z</time></trkpt><trkpt lat="44.7880329" lon="9.070316"><ele>334.3333333333333</ele><time>2026-05-03T10:10:23.173Z</time></trkpt><trkpt lat="44.7881159" lon="9.0705212"><ele>334.6666666666667</ele><time>2026-05-03T10:10:24.166Z</time></trkpt><trkpt lat="44.7881908" lon="9.0707379"><ele>335.0</ele><time>2026-05-03T10:10:25.165Z</time></trkpt><trkpt lat="44.7882681" lon="9.0709554"><ele>335.33333333333337</ele><time>2026-05-03T10:10:26.165Z</time></trkpt><trkpt lat="44.7883471" lon="9.071173"><ele>335.6666666666667</ele><time>2026-05-03T10:10:27.171Z</time></trkpt><trkpt lat="44.7884276" lon="9.0713869"><ele>336.0</ele><time>2026-05-03T10:10:28.168Z</time></trkpt><trkpt lat="44.7885042" lon="9.0715996"><ele>336.6666666666667</ele><time>2026-05-03T10:10:29.164Z</time></trkpt><trkpt lat="44.7885858" lon="9.0718178"><ele>337.33333333333337</ele><time>2026-05-03T10:10:30.164Z</time></trkpt><trkpt lat="44.788665" lon="9.0720312"><ele>338.0</ele><time>2026-05-03T10:10:31.165Z</time></trkpt><trkpt lat="44.7887457" lon="9.0722321"><ele>338.0</ele><time>2026-05-03T10:10:32.162Z</time></trkpt><trkpt lat="44.7888474" lon="9.0724173"><ele>338.0</ele><time>2026-05-03T10:10:33.172Z</time></trkpt><trkpt lat="44.7889662" lon="9.0725812"><ele>338.0</ele><time>2026-05-03T10:10:34.162Z</time></trkpt><trkpt lat="44.7890904" lon="9.0727318"><ele>339.0</ele><time>2026-05-03T10:10:35.166Z</time></trkpt><trkpt lat="44.7892138" lon="9.0728797"><ele>340.0</ele><time>2026-05-03T10:10:36.165Z</time></trkpt><trkpt lat="44.7893288" lon="9.0730366"><ele>341.0</ele><time>2026-05-03T10:10:37.163Z</time></trkpt><trkpt lat="44.7894259" lon="9.0732197"><ele>341.33333333333337</ele><time>2026-05-03T10:10:38.169Z</time></trkpt><trkpt lat="44.7895047" lon="9.0734286"><ele>341.6666666666667</ele><time>2026-05-03T10:10:39.162Z</time></trkpt><trkpt lat="44.7895731" lon="9.0736477"><ele>342.0</ele><time>2026-05-03T10:10:40.162Z</time></trkpt><trkpt lat="44.7896626" lon="9.0738559"><ele>342.0</ele><time>2026-05-03T10:10:41.164Z</time></trkpt><trkpt lat="44.7897589" lon="9.0740621"><ele>342.0</ele><time>2026-05-03T10:10:42.172Z</time></trkpt><trkpt lat="44.7898455" lon="9.074275"><ele>342.0</ele><time>2026-05-03T10:10:43.167Z</time></trkpt><trkpt lat="44.7899212" lon="9.0744899"><ele>344.3333333333333</ele><time>2026-05-03T10:10:44.165Z</time></trkpt><trkpt lat="44.7899839" lon="9.0747148"><ele>346.66666666666663</ele><time>2026-05-03T10:10:45.17Z</time></trkpt><trkpt lat="44.7900473" lon="9.0749311"><ele>349.0</ele><time>2026-05-03T10:10:46.165Z</time></trkpt><trkpt lat="44.7901206" lon="9.0751494"><ele>348.66666666666663</ele><time>2026-05-03T10:10:47.162Z</time></trkpt><trkpt lat="44.7902012" lon="9.0753655"><ele>348.3333333333333</ele><time>2026-05-03T10:10:48.165Z</time></trkpt><trkpt lat="44.7902979" lon="9.0755825"><ele>348.0</ele><time>2026-05-03T10:10:49.164Z</time></trkpt><trkpt lat="44.7904032" lon="9.0757891"><ele>350.6666666666667</ele><time>2026-05-03T10:10:50.165Z</time></trkpt><trkpt lat="44.7905069" lon="9.0759966"><ele>353.33333333333337</ele><time>2026-05-03T10:10:51.167Z</time></trkpt><trkpt lat="44.7906126" lon="9.0762136"><ele>356.0</ele><time>2026-05-03T10:10:52.167Z</time></trkpt><trkpt lat="44.7907115" lon="9.0764215"><ele>356.0</ele><time>2026-05-03T10:10:53.171Z</time></trkpt><trkpt lat="44.7908146" lon="9.0766342"><ele>356.0</ele><time>2026-05-03T10:10:54.167Z</time></trkpt><trkpt lat="44.7909218" lon="9.0768416"><ele>356.0</ele><time>2026-05-03T10:10:55.165Z</time></trkpt><trkpt lat="44.7910268" lon="9.0770442"><ele>356.0</ele><time>2026-05-03T10:10:56.166Z</time></trkpt><trkpt lat="44.7911405" lon="9.077245"><ele>356.0</ele><time>2026-05-03T10:10:57.173Z</time></trkpt><trkpt lat="44.7912613" lon="9.0774385"><ele>356.0</ele><time>2026-05-03T10:10:58.161Z</time></trkpt><trkpt lat="44.7913887" lon="9.0776301"><ele>356.33333333333337</ele><time>2026-05-03T10:10:59.162Z</time></trkpt><trkpt lat="44.7915207" lon="9.0778267"><ele>356.6666666666667</ele><time>2026-05-03T10:11:00.163Z</time></trkpt><trkpt lat="44.7916533" lon="9.0780232"><ele>357.0</ele><time>2026-05-03T10:11:01.165Z</time></trkpt><trkpt lat="44.7917865" lon="9.0782183"><ele>356.0</ele><time>2026-05-03T10:11:02.16Z</time></trkpt><trkpt lat="44.7919188" lon="9.0784085"><ele>355.0</ele><time>2026-05-03T10:11:03.168Z</time></trkpt><trkpt lat="44.7920508" lon="9.0785945"><ele>354.0</ele><time>2026-05-03T10:11:04.168Z</time></trkpt><trkpt lat="44.79218" lon="9.0787883"><ele>354.0</ele><time>2026-05-03T10:11:05.162Z</time></trkpt><trkpt lat="44.7923005" lon="9.0789858"><ele>354.0</ele><time>2026-05-03T10:11:06.164Z</time></trkpt><trkpt lat="44.7924114" lon="9.079197"><ele>354.0</ele><time>2026-05-03T10:11:07.162Z</time></trkpt><trkpt lat="44.7925091" lon="9.0794224"><ele>356.0</ele><time>2026-05-03T10:11:08.165Z</time></trkpt><trkpt lat="44.7925969" lon="9.0796633"><ele>358.0</ele><time>2026-05-03T10:11:09.166Z</time></trkpt><trkpt lat="44.7926722" lon="9.0799129"><ele>360.0</ele><time>2026-05-03T10:11:10.163Z</time></trkpt><trkpt lat="44.7927417" lon="9.0801616"><ele>360.0</ele><time>2026-05-03T10:11:11.167Z</time></trkpt><trkpt lat="44.7928138" lon="9.0804105"><ele>360.0</ele><time>2026-05-03T10:11:12.165Z</time></trkpt><trkpt lat="44.7928796" lon="9.080656"><ele>360.0</ele><time>2026-05-03T10:11:13.162Z</time></trkpt><trkpt lat="44.7929457" lon="9.080908"><ele>361.6666666666667</ele><time>2026-05-03T10:11:14.16Z</time></trkpt><trkpt lat="44.7930109" lon="9.08115"><ele>363.33333333333337</ele><time>2026-05-03T10:11:15.167Z</time></trkpt><trkpt lat="44.7930798" lon="9.0813881"><ele>365.0</ele><time>2026-05-03T10:11:16.163Z</time></trkpt><trkpt lat="44.7931708" lon="9.0816106"><ele>365.6666666666667</ele><time>2026-05-03T10:11:17.17Z</time></trkpt><trkpt lat="44.7932761" lon="9.0818182"><ele>366.3333333333333</ele><time>2026-05-03T10:11:18.166Z</time></trkpt><trkpt lat="44.7933888" lon="9.0820216"><ele>367.0</ele><time>2026-05-03T10:11:19.168Z</time></trkpt><trkpt lat="44.7934962" lon="9.0822275"><ele>367.0</ele><time>2026-05-03T10:11:20.163Z</time></trkpt><trkpt lat="44.7935963" lon="9.0824284"><ele>367.0</ele><time>2026-05-03T10:11:21.16Z</time></trkpt><trkpt lat="44.7936885" lon="9.0826202"><ele>367.0</ele><time>2026-05-03T10:11:22.166Z</time></trkpt><trkpt lat="44.7937643" lon="9.0828254"><ele>367.0</ele><time>2026-05-03T10:11:23.17Z</time></trkpt><trkpt lat="44.7938274" lon="9.08305"><ele>367.0</ele><time>2026-05-03T10:11:24.162Z</time></trkpt><trkpt lat="44.7938848" lon="9.0832818"><ele>367.0</ele><time>2026-05-03T10:11:25.163Z</time></trkpt><trkpt lat="44.7939435" lon="9.0835176"><ele>367.0</ele><time>2026-05-03T10:11:26.159Z</time></trkpt><trkpt lat="44.7940005" lon="9.0837507"><ele>367.0</ele><time>2026-05-03T10:11:27.169Z</time></trkpt><trkpt lat="44.7940546" lon="9.0839815"><ele>367.0</ele><time>2026-05-03T10:11:28.167Z</time></trkpt><trkpt lat="44.7940986" lon="9.0842134"><ele>369.0</ele><time>2026-05-03T10:11:29.164Z</time></trkpt><trkpt lat="44.7941334" lon="9.0844392"><ele>371.0</ele><time>2026-05-03T10:11:30.164Z</time></trkpt><trkpt lat="44.7941583" lon="9.0846754"><ele>373.0</ele><time>2026-05-03T10:11:31.165Z</time></trkpt><trkpt lat="44.7941801" lon="9.0849209"><ele>374.0</ele><time>2026-05-03T10:11:32.163Z</time></trkpt><trkpt lat="44.7942014" lon="9.0851666"><ele>375.0</ele><time>2026-05-03T10:11:33.167Z</time></trkpt><trkpt lat="44.7942242" lon="9.0854105"><ele>376.0</ele><time>2026-05-03T10:11:34.165Z</time></trkpt><trkpt lat="44.7942399" lon="9.0856482"><ele>376.0</ele><time>2026-05-03T10:11:35.166Z</time></trkpt><trkpt lat="44.7942536" lon="9.0858907"><ele>376.0</ele><time>2026-05-03T10:11:36.172Z</time></trkpt><trkpt lat="44.7942676" lon="9.0861354"><ele>376.0</ele><time>2026-05-03T10:11:37.167Z</time></trkpt><trkpt lat="44.7942848" lon="9.0863843"><ele>375.3333333333333</ele><time>2026-05-03T10:11:38.163Z</time></trkpt><trkpt lat="44.7943037" lon="9.0866278"><ele>374.6666666666667</ele><time>2026-05-03T10:11:39.162Z</time></trkpt><trkpt lat="44.7943273" lon="9.0868764"><ele>374.0</ele><time>2026-05-03T10:11:40.161Z</time></trkpt><trkpt lat="44.7943584" lon="9.0871215"><ele>373.0</ele><time>2026-05-03T10:11:41.164Z</time></trkpt><trkpt lat="44.7943975" lon="9.0873676"><ele>372.0</ele><time>2026-05-03T10:11:42.162Z</time></trkpt><trkpt lat="44.7944396" lon="9.0876098"><ele>371.0</ele><time>2026-05-03T10:11:43.166Z</time></trkpt><trkpt lat="44.7944808" lon="9.0878558"><ele>371.0</ele><time>2026-05-03T10:11:44.166Z</time></trkpt><trkpt lat="44.7945211" lon="9.0880937"><ele>371.0</ele><time>2026-05-03T10:11:45.163Z</time></trkpt><trkpt lat="44.7945608" lon="9.0883359"><ele>371.0</ele><time>2026-05-03T10:11:46.162Z</time></trkpt><trkpt lat="44.7946031" lon="9.0885792"><ele>371.6666666666667</ele><time>2026-05-03T10:11:47.162Z</time></trkpt><trkpt lat="44.7946449" lon="9.0888134"><ele>372.3333333333333</ele><time>2026-05-03T10:11:48.165Z</time></trkpt><trkpt lat="44.794687" lon="9.0890496"><ele>373.0</ele><time>2026-05-03T10:11:49.163Z</time></trkpt><trkpt lat="44.7947261" lon="9.0892844"><ele>373.66666666666663</ele><time>2026-05-03T10:11:50.165Z</time></trkpt><trkpt lat="44.7947669" lon="9.0895243"><ele>374.3333333333333</ele><time>2026-05-03T10:11:51.167Z</time></trkpt><trkpt lat="44.7948051" lon="9.0897715"><ele>375.0</ele><time>2026-05-03T10:11:52.165Z</time></trkpt><trkpt lat="44.7948509" lon="9.0900147"><ele>377.0</ele><time>2026-05-03T10:11:53.166Z</time></trkpt><trkpt lat="44.7948884" lon="9.0902576"><ele>379.0</ele><time>2026-05-03T10:11:54.165Z</time></trkpt><trkpt lat="44.7949246" lon="9.0905027"><ele>381.0</ele><time>2026-05-03T10:11:55.168Z</time></trkpt><trkpt lat="44.7949718" lon="9.0907486"><ele>381.3333333333333</ele><time>2026-05-03T10:11:56.165Z</time></trkpt><trkpt lat="44.7950155" lon="9.0909897"><ele>381.66666666666663</ele><time>2026-05-03T10:11:57.167Z</time></trkpt><trkpt lat="44.795065" lon="9.0912376"><ele>382.0</ele><time>2026-05-03T10:11:58.173Z</time></trkpt><trkpt lat="44.7951121" lon="9.0914786"><ele>381.66666666666663</ele><time>2026-05-03T10:11:59.166Z</time></trkpt><trkpt lat="44.7951567" lon="9.0917242"><ele>381.3333333333333</ele><time>2026-05-03T10:12:00.165Z</time></trkpt><trkpt lat="44.795203" lon="9.091965"><ele>381.0</ele><time>2026-05-03T10:12:01.162Z</time></trkpt><trkpt lat="44.7952475" lon="9.0922022"><ele>381.6666666666667</ele><time>2026-05-03T10:12:02.162Z</time></trkpt><trkpt lat="44.7952956" lon="9.0924369"><ele>382.33333333333337</ele><time>2026-05-03T10:12:03.168Z</time></trkpt><trkpt lat="44.7953442" lon="9.092673"><ele>383.0</ele><time>2026-05-03T10:12:04.167Z</time></trkpt><trkpt lat="44.795392" lon="9.0929026"><ele>383.0</ele><time>2026-05-03T10:12:05.165Z</time></trkpt><trkpt lat="44.7954372" lon="9.0931258"><ele>383.0</ele><time>2026-05-03T10:12:06.165Z</time></trkpt><trkpt lat="44.7954817" lon="9.0933448"><ele>383.0</ele><time>2026-05-03T10:12:07.166Z</time></trkpt><trkpt lat="44.7955245" lon="9.0935531"><ele>384.0</ele><time>2026-05-03T10:12:08.169Z</time></trkpt><trkpt lat="44.7955633" lon="9.0937447"><ele>385.0</ele><time>2026-05-03T10:12:09.166Z</time></trkpt><trkpt lat="44.7955933" lon="9.0939153"><ele>386.0</ele><time>2026-05-03T10:12:10.164Z</time></trkpt><trkpt lat="44.7956272" lon="9.094084"><ele>387.0</ele><time>2026-05-03T10:12:11.166Z</time></trkpt><trkpt lat="44.7956519" lon="9.0942295"><ele>387.1666666666667</ele><time>2026-05-03T10:12:12.165Z</time></trkpt><trkpt lat="44.7956765" lon="9.0943614"><ele>387.33333333333337</ele><time>2026-05-03T10:12:13.163Z</time></trkpt><trkpt lat="44.7956935" lon="9.0944787"><ele>387.5</ele><time>2026-05-03T10:12:14.167Z</time></trkpt><trkpt lat="44.795701" lon="9.0945827"><ele>387.6666666666667</ele><time>2026-05-03T10:12:15.168Z</time></trkpt><trkpt lat="44.7957185" lon="9.0947484"><ele>387.83333333333337</ele><time>2026-05-03T10:12:17.167Z</time></trkpt><trkpt lat="44.7957722" lon="9.0948194"><ele>388.0</ele><time>2026-05-03T10:12:19.168Z</time></trkpt><trkpt lat="44.7958647" lon="9.094798"><ele>388.0</ele><time>2026-05-03T10:12:21.17Z</time></trkpt><trkpt lat="44.7960022" lon="9.0947479"><ele>388.0</ele><time>2026-05-03T10:12:23.187Z</time></trkpt><trkpt lat="44.7960761" lon="9.094718"><ele>388.0</ele><time>2026-05-03T10:12:24.174Z</time></trkpt><trkpt lat="44.7961512" lon="9.0946896"><ele>388.0</ele><time>2026-05-03T10:12:25.167Z</time></trkpt><trkpt lat="44.7962396" lon="9.0946596"><ele>388.0</ele><time>2026-05-03T10:12:26.164Z</time></trkpt><trkpt lat="44.7963348" lon="9.0946251"><ele>387.1666666666667</ele><time>2026-05-03T10:12:27.173Z</time></trkpt><trkpt lat="44.7964155" lon="9.0945844"><ele>386.33333333333337</ele><time>2026-05-03T10:12:28.167Z</time></trkpt><trkpt lat="44.7964864" lon="9.094533"><ele>385.5</ele><time>2026-05-03T10:12:29.193Z</time></trkpt><trkpt lat="44.7965575" lon="9.0944688"><ele>384.6666666666667</ele><time>2026-05-03T10:12:30.18Z</time></trkpt><trkpt lat="44.7966278" lon="9.0943876"><ele>383.83333333333337</ele><time>2026-05-03T10:12:31.167Z</time></trkpt><trkpt lat="44.7967007" lon="9.094302"><ele>383.0</ele><time>2026-05-03T10:12:32.174Z</time></trkpt><trkpt lat="44.796768" lon="9.0942102"><ele>382.5</ele><time>2026-05-03T10:12:33.168Z</time></trkpt><trkpt lat="44.7968399" lon="9.0941266"><ele>382.0</ele><time>2026-05-03T10:12:34.162Z</time></trkpt><trkpt lat="44.7969187" lon="9.0940537"><ele>381.5</ele><time>2026-05-03T10:12:35.165Z</time></trkpt><trkpt lat="44.7969799" lon="9.0939889"><ele>381.0</ele><time>2026-05-03T10:12:36.166Z</time></trkpt><trkpt lat="44.7970508" lon="9.0939094"><ele>380.5</ele><time>2026-05-03T10:12:37.163Z</time></trkpt><trkpt lat="44.7971119" lon="9.0938184"><ele>380.0</ele><time>2026-05-03T10:12:38.168Z</time></trkpt><trkpt lat="44.7971685" lon="9.0937416"><ele>379.6666666666667</ele><time>2026-05-03T10:12:39.163Z</time></trkpt><trkpt lat="44.7972193" lon="9.0936821"><ele>379.33333333333337</ele><time>2026-05-03T10:12:40.163Z</time></trkpt><trkpt lat="44.7973376" lon="9.093641"><ele>379.0</ele><time>2026-05-03T10:12:42.163Z</time></trkpt><trkpt lat="44.7974213" lon="9.0936235"><ele>378.6666666666667</ele><time>2026-05-03T10:12:43.168Z</time></trkpt><trkpt lat="44.7975095" lon="9.0936084"><ele>378.3333333333333</ele><time>2026-05-03T10:12:44.169Z</time></trkpt><trkpt lat="44.7975824" lon="9.0935959"><ele>378.0</ele><time>2026-05-03T10:12:45.163Z</time></trkpt><trkpt lat="44.7976789" lon="9.0935079"><ele>376.8333333333333</ele><time>2026-05-03T10:12:47.163Z</time></trkpt><trkpt lat="44.7977501" lon="9.09341"><ele>375.6666666666667</ele><time>2026-05-03T10:12:49.162Z</time></trkpt><trkpt lat="44.7978133" lon="9.0933127"><ele>374.5</ele><time>2026-05-03T10:12:51.163Z</time></trkpt><trkpt lat="44.7978785" lon="9.093231"><ele>373.33333333333337</ele><time>2026-05-03T10:12:53.163Z</time></trkpt><trkpt lat="44.7979513" lon="9.0931708"><ele>372.1666666666667</ele><time>2026-05-03T10:12:55.165Z</time></trkpt><trkpt lat="44.798025" lon="9.093175"><ele>371.0</ele><time>2026-05-03T10:12:58.16Z</time></trkpt><trkpt lat="44.798097" lon="9.0931984"><ele>370.5</ele><time>2026-05-03T10:14:13.171Z</time></trkpt><trkpt lat="44.7981703" lon="9.0931784"><ele>370.0</ele><time>2026-05-03T10:14:14.169Z</time></trkpt><trkpt lat="44.798253" lon="9.0931791"><ele>369.5</ele><time>2026-05-03T10:14:15.162Z</time></trkpt><trkpt lat="44.7983506" lon="9.0931969"><ele>369.0</ele><time>2026-05-03T10:14:17.175Z</time></trkpt><trkpt lat="44.7984438" lon="9.0932294"><ele>368.5</ele><time>2026-05-03T10:14:19.168Z</time></trkpt><trkpt lat="44.7985364" lon="9.0932413"><ele>368.0</ele><time>2026-05-03T10:14:21.161Z</time></trkpt><trkpt lat="44.7986015" lon="9.0932458"><ele>368.33333333333337</ele><time>2026-05-03T10:14:22.162Z</time></trkpt><trkpt lat="44.7986639" lon="9.0932623"><ele>368.6666666666667</ele><time>2026-05-03T10:14:23.168Z</time></trkpt><trkpt lat="44.7987337" lon="9.0932833"><ele>369.0</ele><time>2026-05-03T10:14:24.167Z</time></trkpt><trkpt lat="44.7988105" lon="9.0932972"><ele>369.3333333333333</ele><time>2026-05-03T10:14:26.165Z</time></trkpt><trkpt lat="44.7988736" lon="9.0933011"><ele>369.66666666666663</ele><time>2026-05-03T10:14:42.165Z</time></trkpt><trkpt lat="44.7989413" lon="9.0932913"><ele>370.0</ele><time>2026-05-03T10:14:44.165Z</time></trkpt><trkpt lat="44.7990557" lon="9.0932687"><ele>369.6</ele><time>2026-05-03T10:14:46.159Z</time></trkpt><trkpt lat="44.7991389" lon="9.0932402"><ele>369.2</ele><time>2026-05-03T10:14:47.167Z</time></trkpt><trkpt lat="44.7992407" lon="9.0932113"><ele>368.79999999999995</ele><time>2026-05-03T10:14:48.172Z</time></trkpt><trkpt lat="44.7993358" lon="9.0931821"><ele>368.4</ele><time>2026-05-03T10:14:49.161Z</time></trkpt><trkpt lat="44.79941" lon="9.0931672"><ele>368.0</ele><time>2026-05-03T10:14:50.163Z</time></trkpt><trkpt lat="44.7994987" lon="9.093134"><ele>368.0</ele><time>2026-05-03T10:14:52.174Z</time></trkpt><trkpt lat="44.7995402" lon="9.0930235"><ele>368.0</ele><time>2026-05-03T10:14:54.165Z</time></trkpt><trkpt lat="44.7994853" lon="9.0929547"><ele>368.0</ele><time>2026-05-03T10:14:56.167Z</time></trkpt><trkpt lat="44.7993471" lon="9.0930103"><ele>368.0</ele><time>2026-05-03T10:14:58.167Z</time></trkpt><trkpt lat="44.7992479" lon="9.0930451"><ele>368.0</ele><time>2026-05-03T10:14:59.166Z</time></trkpt><trkpt lat="44.7991281" lon="9.0930746"><ele>368.0</ele><time>2026-05-03T10:15:00.165Z</time></trkpt><trkpt lat="44.7990242" lon="9.0930762"><ele>368.0</ele><time>2026-05-03T10:15:01.163Z</time></trkpt><trkpt lat="44.7989282" lon="9.093057"><ele>368.0</ele><time>2026-05-03T10:15:02.16Z</time></trkpt><trkpt lat="44.7988407" lon="9.0930462"><ele>368.0</ele><time>2026-05-03T10:15:03.163Z</time></trkpt><trkpt lat="44.7987506" lon="9.0930522"><ele>368.0</ele><time>2026-05-03T10:15:04.162Z</time></trkpt><trkpt lat="44.7986684" lon="9.0930598"><ele>368.0</ele><time>2026-05-03T10:15:05.16Z</time></trkpt><trkpt lat="44.7985951" lon="9.0930682"><ele>368.0</ele><time>2026-05-03T10:15:06.163Z</time></trkpt><trkpt lat="44.7985082" lon="9.0930786"><ele>368.0</ele><time>2026-05-03T10:15:07.165Z</time></trkpt><trkpt lat="44.7983065" lon="9.0930924"><ele>368.0</ele><time>2026-05-03T10:15:09.168Z</time></trkpt><trkpt lat="44.7982218" lon="9.0930996"><ele>368.0</ele><time>2026-05-03T10:15:10.162Z</time></trkpt><trkpt lat="44.7981505" lon="9.0931084"><ele>368.0</ele><time>2026-05-03T10:15:11.166Z</time></trkpt><trkpt lat="44.7980856" lon="9.0931128"><ele>368.0</ele><time>2026-05-03T10:15:12.162Z</time></trkpt><trkpt lat="44.7980084" lon="9.0931318"><ele>368.0</ele><time>2026-05-03T10:15:14.163Z</time></trkpt><trkpt lat="44.7980622" lon="9.0932015"><ele>368.0</ele><time>2026-05-03T10:15:18.172Z</time></trkpt><trkpt lat="44.7981784" lon="9.0931785"><ele>368.0</ele><time>2026-05-03T10:15:21.168Z</time></trkpt><trkpt lat="44.798249" lon="9.0931649"><ele>368.0</ele><time>2026-05-03T10:15:22.163Z</time></trkpt><trkpt lat="44.7983184" lon="9.0931763"><ele>368.0</ele><time>2026-05-03T10:15:23.166Z</time></trkpt><trkpt lat="44.798407" lon="9.0931878"><ele>368.0</ele><time>2026-05-03T10:15:24.162Z</time></trkpt><trkpt lat="44.7984945" lon="9.0932291"><ele>368.0</ele><time>2026-05-03T10:15:26.16Z</time></trkpt><trkpt lat="44.7985888" lon="9.0932419"><ele>368.0</ele><time>2026-05-03T10:15:28.166Z</time></trkpt><trkpt lat="44.7986965" lon="9.0932692"><ele>368.0</ele><time>2026-05-03T10:15:30.168Z</time></trkpt><trkpt lat="44.7988108" lon="9.0932921"><ele>368.0</ele><time>2026-05-03T10:15:32.159Z</time></trkpt><trkpt lat="44.7989183" lon="9.0932923"><ele>368.0</ele><time>2026-05-03T10:15:34.166Z</time></trkpt><trkpt lat="44.7990352" lon="9.0932768"><ele>368.0</ele><time>2026-05-03T10:15:36.165Z</time></trkpt><trkpt lat="44.7991035" lon="9.0932604"><ele>368.0</ele><time>2026-05-03T10:15:37.175Z</time></trkpt><trkpt lat="44.7991725" lon="9.0932359"><ele>368.0</ele><time>2026-05-03T10:15:38.17Z</time></trkpt><trkpt lat="44.7992391" lon="9.0932099"><ele>368.0</ele><time>2026-05-03T10:15:39.166Z</time></trkpt><trkpt lat="44.799345" lon="9.0931733"><ele>369.2</ele><time>2026-05-03T10:15:41.161Z</time></trkpt><trkpt lat="44.7994148" lon="9.0931494"><ele>370.4</ele><time>2026-05-03T10:15:43.165Z</time></trkpt><trkpt lat="44.7995085" lon="9.0931728"><ele>371.59999999999997</ele><time>2026-05-03T10:17:59.163Z</time></trkpt><trkpt lat="44.7995063" lon="9.093401"><ele>372.79999999999995</ele><time>2026-05-03T10:18:04.162Z</time></trkpt><trkpt lat="44.7994875" lon="9.0935257"><ele>374.0</ele><time>2026-05-03T10:18:05.159Z</time></trkpt><trkpt lat="44.7994081" lon="9.0941422"><ele>378.5</ele><time>2026-05-03T10:18:09.157Z</time></trkpt><trkpt lat="44.7994077" lon="9.0942739"><ele>383.0</ele><time>2026-05-03T10:18:10.165Z</time></trkpt><trkpt lat="44.7994581" lon="9.0948006"><ele>385.5</ele><time>2026-05-03T10:18:14.164Z</time></trkpt><trkpt lat="44.7994839" lon="9.0949441"><ele>388.0</ele><time>2026-05-03T10:18:15.165Z</time></trkpt><trkpt lat="44.7995953" lon="9.0956058"><ele>384.0</ele><time>2026-05-03T10:18:19.163Z</time></trkpt><trkpt lat="44.7997956" lon="9.0965896"><ele>384.0</ele><time>2026-05-03T10:18:24.164Z</time></trkpt><trkpt lat="44.7999123" lon="9.0972696"><ele>383.5</ele><time>2026-05-03T10:18:28.166Z</time></trkpt><trkpt lat="44.7999458" lon="9.0974637"><ele>383.0</ele><time>2026-05-03T10:18:29.167Z</time></trkpt><trkpt lat="44.7996216" lon="9.0989091"><ele>387.6666666666667</ele><time>2026-05-03T10:18:36.168Z</time></trkpt><trkpt lat="44.7995479" lon="9.0991196"><ele>392.33333333333337</ele><time>2026-05-03T10:18:37.166Z</time></trkpt><trkpt lat="44.7994674" lon="9.0993208"><ele>397.0</ele><time>2026-05-03T10:18:38.164Z</time></trkpt><trkpt lat="44.7993757" lon="9.0995076"><ele>392.6666666666667</ele><time>2026-05-03T10:18:39.163Z</time></trkpt><trkpt lat="44.7992616" lon="9.099669"><ele>388.33333333333337</ele><time>2026-05-03T10:18:40.163Z</time></trkpt><trkpt lat="44.7991383" lon="9.0998142"><ele>384.0</ele><time>2026-05-03T10:18:41.168Z</time></trkpt><trkpt lat="44.7990041" lon="9.0999532"><ele>384.0</ele><time>2026-05-03T10:18:42.165Z</time></trkpt><trkpt lat="44.7988862" lon="9.1001004"><ele>384.0</ele><time>2026-05-03T10:18:43.169Z</time></trkpt><trkpt lat="44.798777" lon="9.1002476"><ele>384.0</ele><time>2026-05-03T10:18:44.172Z</time></trkpt><trkpt lat="44.7986818" lon="9.1003973"><ele>384.0</ele><time>2026-05-03T10:18:45.16Z</time></trkpt><trkpt lat="44.798603" lon="9.1005587"><ele>384.0</ele><time>2026-05-03T10:18:46.167Z</time></trkpt><trkpt lat="44.7985433" lon="9.1007393"><ele>384.0</ele><time>2026-05-03T10:18:47.165Z</time></trkpt><trkpt lat="44.798492" lon="9.1009293"><ele>384.0</ele><time>2026-05-03T10:18:48.162Z</time></trkpt><trkpt lat="44.7984511" lon="9.1011262"><ele>383.5</ele><time>2026-05-03T10:18:49.166Z</time></trkpt><trkpt lat="44.7984263" lon="9.1013259"><ele>383.0</ele><time>2026-05-03T10:18:50.168Z</time></trkpt><trkpt lat="44.7984065" lon="9.1015272"><ele>382.5</ele><time>2026-05-03T10:18:51.161Z</time></trkpt><trkpt lat="44.7983902" lon="9.1017256"><ele>382.0</ele><time>2026-05-03T10:18:52.158Z</time></trkpt><trkpt lat="44.7983738" lon="9.101911"><ele>382.0</ele><time>2026-05-03T10:18:53.165Z</time></trkpt><trkpt lat="44.7983521" lon="9.102091"><ele>382.0</ele><time>2026-05-03T10:18:54.159Z</time></trkpt><trkpt lat="44.7983276" lon="9.1022726"><ele>382.0</ele><time>2026-05-03T10:18:55.159Z</time></trkpt><trkpt lat="44.7982992" lon="9.1024531"><ele>382.0</ele><time>2026-05-03T10:18:56.167Z</time></trkpt><trkpt lat="44.7982537" lon="9.1026065"><ele>382.40000000000003</ele><time>2026-05-03T10:18:57.172Z</time></trkpt><trkpt lat="44.7981938" lon="9.1027208"><ele>382.8</ele><time>2026-05-03T10:18:58.16Z</time></trkpt><trkpt lat="44.798117" lon="9.1028084"><ele>383.2</ele><time>2026-05-03T10:18:59.169Z</time></trkpt><trkpt lat="44.7980206" lon="9.1028853"><ele>383.6</ele><time>2026-05-03T10:19:00.164Z</time></trkpt><trkpt lat="44.7979167" lon="9.1029594"><ele>384.0</ele><time>2026-05-03T10:19:01.164Z</time></trkpt><trkpt lat="44.7978121" lon="9.1030434"><ele>384.0</ele><time>2026-05-03T10:19:02.169Z</time></trkpt><trkpt lat="44.797706" lon="9.103135"><ele>384.0</ele><time>2026-05-03T10:19:03.166Z</time></trkpt><trkpt lat="44.7975957" lon="9.1032295"><ele>384.0</ele><time>2026-05-03T10:19:04.168Z</time></trkpt><trkpt lat="44.7974893" lon="9.1033267"><ele>384.0</ele><time>2026-05-03T10:19:05.161Z</time></trkpt><trkpt lat="44.7973869" lon="9.1034264"><ele>385.0</ele><time>2026-05-03T10:19:06.164Z</time></trkpt><trkpt lat="44.7972877" lon="9.1035315"><ele>386.0</ele><time>2026-05-03T10:19:07.161Z</time></trkpt><trkpt lat="44.797195" lon="9.1036353"><ele>387.0</ele><time>2026-05-03T10:19:08.165Z</time></trkpt><trkpt lat="44.7971117" lon="9.1037545"><ele>388.0</ele><time>2026-05-03T10:19:09.162Z</time></trkpt><trkpt lat="44.7970397" lon="9.1038721"><ele>388.0</ele><time>2026-05-03T10:19:10.162Z</time></trkpt><trkpt lat="44.7969745" lon="9.1039906"><ele>388.0</ele><time>2026-05-03T10:19:11.164Z</time></trkpt><trkpt lat="44.7969132" lon="9.1041127"><ele>388.0</ele><time>2026-05-03T10:19:12.16Z</time></trkpt><trkpt lat="44.7968599" lon="9.1042228"><ele>388.0</ele><time>2026-05-03T10:19:13.169Z</time></trkpt><trkpt lat="44.796812" lon="9.1043225"><ele>388.0</ele><time>2026-05-03T10:19:14.164Z</time></trkpt><trkpt lat="44.7967645" lon="9.1044147"><ele>388.6666666666667</ele><time>2026-05-03T10:19:15.164Z</time></trkpt><trkpt lat="44.7967249" lon="9.1044946"><ele>389.33333333333337</ele><time>2026-05-03T10:19:16.166Z</time></trkpt><trkpt lat="44.7966703" lon="9.1046233"><ele>390.0</ele><time>2026-05-03T10:19:18.166Z</time></trkpt><trkpt lat="44.7966249" lon="9.1047256"><ele>390.66666666666663</ele><time>2026-05-03T10:19:21.168Z</time></trkpt><trkpt lat="44.7966242" lon="9.1048626"><ele>391.3333333333333</ele><time>2026-05-03T10:19:24.162Z</time></trkpt><trkpt lat="44.7966623" lon="9.1049393"><ele>392.0</ele><time>2026-05-03T10:19:25.163Z</time></trkpt><trkpt lat="44.7967255" lon="9.1050139"><ele>392.8</ele><time>2026-05-03T10:19:26.165Z</time></trkpt><trkpt lat="44.7967809" lon="9.1051132"><ele>393.6</ele><time>2026-05-03T10:19:27.164Z</time></trkpt><trkpt lat="44.7968176" lon="9.1052298"><ele>394.40000000000003</ele><time>2026-05-03T10:19:28.161Z</time></trkpt><trkpt lat="44.7968408" lon="9.1053567"><ele>395.20000000000005</ele><time>2026-05-03T10:19:29.164Z</time></trkpt><trkpt lat="44.7968418" lon="9.1055003"><ele>396.0</ele><time>2026-05-03T10:19:30.163Z</time></trkpt><trkpt lat="44.796824" lon="9.1056404"><ele>396.6</ele><time>2026-05-03T10:19:31.165Z</time></trkpt><trkpt lat="44.79679" lon="9.1057881"><ele>397.20000000000005</ele><time>2026-05-03T10:19:32.162Z</time></trkpt><trkpt lat="44.7967725" lon="9.1059376"><ele>397.79999999999995</ele><time>2026-05-03T10:19:33.166Z</time></trkpt><trkpt lat="44.7967477" lon="9.1060871"><ele>398.4</ele><time>2026-05-03T10:19:34.166Z</time></trkpt><trkpt lat="44.7967072" lon="9.1062414"><ele>399.0</ele><time>2026-05-03T10:19:35.163Z</time></trkpt><trkpt lat="44.7966637" lon="9.1063928"><ele>399.0</ele><time>2026-05-03T10:19:36.16Z</time></trkpt><trkpt lat="44.796599" lon="9.1065374"><ele>399.0</ele><time>2026-05-03T10:19:37.165Z</time></trkpt><trkpt lat="44.7965205" lon="9.1066757"><ele>399.0</ele><time>2026-05-03T10:19:38.162Z</time></trkpt><trkpt lat="44.7964376" lon="9.1068163"><ele>399.0</ele><time>2026-05-03T10:19:39.165Z</time></trkpt><trkpt lat="44.796352" lon="9.1069564"><ele>399.2</ele><time>2026-05-03T10:19:40.164Z</time></trkpt><trkpt lat="44.7962748" lon="9.107081"><ele>399.4</ele><time>2026-05-03T10:19:41.169Z</time></trkpt><trkpt lat="44.7962086" lon="9.1071947"><ele>399.6</ele><time>2026-05-03T10:19:42.163Z</time></trkpt><trkpt lat="44.7961548" lon="9.1072931"><ele>399.8</ele><time>2026-05-03T10:19:43.17Z</time></trkpt><trkpt lat="44.7961054" lon="9.1073851"><ele>400.0</ele><time>2026-05-03T10:19:44.171Z</time></trkpt><trkpt lat="44.7960609" lon="9.1074864"><ele>399.6</ele><time>2026-05-03T10:19:45.163Z</time></trkpt><trkpt lat="44.7960232" lon="9.1075958"><ele>399.2</ele><time>2026-05-03T10:19:46.17Z</time></trkpt><trkpt lat="44.796022" lon="9.1076995"><ele>398.79999999999995</ele><time>2026-05-03T10:19:47.164Z</time></trkpt><trkpt lat="44.7960179" lon="9.1078657"><ele>398.4</ele><time>2026-05-03T10:19:49.163Z</time></trkpt><trkpt lat="44.796008" lon="9.1080288"><ele>398.0</ele><time>2026-05-03T10:19:51.164Z</time></trkpt><trkpt lat="44.7959928" lon="9.1081552"><ele>397.25</ele><time>2026-05-03T10:19:53.17Z</time></trkpt><trkpt lat="44.7959895" lon="9.1082478"><ele>396.5</ele><time>2026-05-03T10:19:55.166Z</time></trkpt><trkpt lat="44.7960164" lon="9.1083364"><ele>395.75</ele><time>2026-05-03T10:19:59.158Z</time></trkpt><trkpt lat="44.7960738" lon="9.1086288"><ele>395.0</ele><time>2026-05-03T10:20:01.159Z</time></trkpt><trkpt lat="44.7961474" lon="9.1087515"><ele>395.0</ele><time>2026-05-03T10:20:03.156Z</time></trkpt><trkpt lat="44.7962505" lon="9.1088377"><ele>395.0</ele><time>2026-05-03T10:20:05.164Z</time></trkpt><trkpt lat="44.7963498" lon="9.108887"><ele>395.0</ele><time>2026-05-03T10:20:07.17Z</time></trkpt><trkpt lat="44.7964567" lon="9.1089129"><ele>395.0</ele><time>2026-05-03T10:20:09.17Z</time></trkpt><trkpt lat="44.7965282" lon="9.1089121"><ele>395.0</ele><time>2026-05-03T10:20:10.161Z</time></trkpt><trkpt lat="44.7966041" lon="9.1088978"><ele>394.99999999999994</ele><time>2026-05-03T10:20:11.165Z</time></trkpt><trkpt lat="44.7966817" lon="9.1088771"><ele>395.0</ele><time>2026-05-03T10:20:12.158Z</time></trkpt><trkpt lat="44.7967592" lon="9.108859"><ele>395.0</ele><time>2026-05-03T10:20:13.165Z</time></trkpt><trkpt lat="44.7968263" lon="9.1088494"><ele>395.0</ele><time>2026-05-03T10:20:14.161Z</time></trkpt><trkpt lat="44.796898" lon="9.1088414"><ele>394.99999999999994</ele><time>2026-05-03T10:20:15.16Z</time></trkpt><trkpt lat="44.7970049" lon="9.1088684"><ele>395.0</ele><time>2026-05-03T10:20:17.162Z</time></trkpt><trkpt lat="44.7971076" lon="9.1089748"><ele>396.16666666666663</ele><time>2026-05-03T10:20:19.16Z</time></trkpt><trkpt lat="44.7971631" lon="9.109052"><ele>397.3333333333333</ele><time>2026-05-03T10:20:20.163Z</time></trkpt><trkpt lat="44.797209" lon="9.1091423"><ele>398.5</ele><time>2026-05-03T10:20:21.163Z</time></trkpt><trkpt lat="44.7972468" lon="9.1092336"><ele>399.66666666666663</ele><time>2026-05-03T10:20:22.16Z</time></trkpt><trkpt lat="44.797297" lon="9.1093206"><ele>400.8333333333333</ele><time>2026-05-03T10:20:23.163Z</time></trkpt><trkpt lat="44.797344" lon="9.1094099"><ele>402.0</ele><time>2026-05-03T10:20:24.158Z</time></trkpt><trkpt lat="44.7973793" lon="9.1094896"><ele>402.20000000000005</ele><time>2026-05-03T10:20:25.162Z</time></trkpt><trkpt lat="44.7974017" lon="9.1096611"><ele>402.4</ele><time>2026-05-03T10:20:27.162Z</time></trkpt><trkpt lat="44.7974085" lon="9.1097493"><ele>402.6</ele><time>2026-05-03T10:20:28.16Z</time></trkpt><trkpt lat="44.7974367" lon="9.109857"><ele>402.79999999999995</ele><time>2026-05-03T10:20:30.16Z</time></trkpt><trkpt lat="44.797513" lon="9.1098669"><ele>403.0</ele><time>2026-05-03T10:20:33.163Z</time></trkpt><trkpt lat="44.7976223" lon="9.1097935"><ele>405.50000000000006</ele><time>2026-05-03T10:20:35.165Z</time></trkpt><trkpt lat="44.797674" lon="9.1097403"><ele>408.0</ele><time>2026-05-03T10:20:36.17Z</time></trkpt><trkpt lat="44.7977236" lon="9.1096702"><ele>410.5</ele><time>2026-05-03T10:20:37.169Z</time></trkpt><trkpt lat="44.7977802" lon="9.109617"><ele>413.0</ele><time>2026-05-03T10:20:38.165Z</time></trkpt><trkpt lat="44.7978638" lon="9.1095082"><ele>415.50000000000006</ele><time>2026-05-03T10:20:40.164Z</time></trkpt><trkpt lat="44.7979323" lon="9.1094617"><ele>418.0</ele><time>2026-05-03T10:20:41.164Z</time></trkpt><trkpt lat="44.7979869" lon="9.1094071"><ele>418.0</ele><time>2026-05-03T10:20:42.175Z</time></trkpt><trkpt lat="44.7980515" lon="9.1093862"><ele>418.0</ele><time>2026-05-03T10:20:43.168Z</time></trkpt><trkpt lat="44.7981404" lon="9.1093525"><ele>418.0</ele><time>2026-05-03T10:20:44.161Z</time></trkpt><trkpt lat="44.798206" lon="9.1093247"><ele>418.0</ele><time>2026-05-03T10:20:45.162Z</time></trkpt><trkpt lat="44.7982856" lon="9.1092895"><ele>418.0</ele><time>2026-05-03T10:20:46.167Z</time></trkpt><trkpt lat="44.7983475" lon="9.1092548"><ele>418.0</ele><time>2026-05-03T10:20:47.16Z</time></trkpt><trkpt lat="44.7984123" lon="9.1092349"><ele>418.0</ele><time>2026-05-03T10:20:48.167Z</time></trkpt><trkpt lat="44.7984805" lon="9.109209"><ele>419.83333333333337</ele><time>2026-05-03T10:20:49.167Z</time></trkpt><trkpt lat="44.7985423" lon="9.1091787"><ele>421.6666666666667</ele><time>2026-05-03T10:20:50.162Z</time></trkpt><trkpt lat="44.7986401" lon="9.1091629"><ele>423.5</ele><time>2026-05-03T10:20:52.166Z</time></trkpt><trkpt lat="44.7987091" lon="9.1091507"><ele>425.33333333333337</ele><time>2026-05-03T10:20:53.162Z</time></trkpt><trkpt lat="44.7988174" lon="9.1091503"><ele>427.1666666666667</ele><time>2026-05-03T10:20:55.163Z</time></trkpt><trkpt lat="44.7989217" lon="9.1091599"><ele>429.0</ele><time>2026-05-03T10:20:57.165Z</time></trkpt><trkpt lat="44.7990209" lon="9.1091722"><ele>429.0</ele><time>2026-05-03T10:20:59.167Z</time></trkpt><trkpt lat="44.7991075" lon="9.1091825"><ele>429.0</ele><time>2026-05-03T10:21:01.171Z</time></trkpt><trkpt lat="44.799219" lon="9.1092121"><ele>429.0</ele><time>2026-05-03T10:21:03.159Z</time></trkpt><trkpt lat="44.7993349" lon="9.1092283"><ele>429.0</ele><time>2026-05-03T10:21:05.168Z</time></trkpt><trkpt lat="44.7994021" lon="9.1092233"><ele>429.0</ele><time>2026-05-03T10:21:06.16Z</time></trkpt><trkpt lat="44.799495" lon="9.1091715"><ele>429.1666666666667</ele><time>2026-05-03T10:21:08.165Z</time></trkpt><trkpt lat="44.7995604" lon="9.109143"><ele>429.33333333333337</ele><time>2026-05-03T10:21:09.165Z</time></trkpt><trkpt lat="44.7996421" lon="9.1090838"><ele>429.5</ele><time>2026-05-03T10:21:11.167Z</time></trkpt><trkpt lat="44.7997578" lon="9.1089739"><ele>429.6666666666667</ele><time>2026-05-03T10:21:13.166Z</time></trkpt><trkpt lat="44.7998101" lon="9.1089237"><ele>429.83333333333337</ele><time>2026-05-03T10:21:14.165Z</time></trkpt><trkpt lat="44.7998822" lon="9.1088657"><ele>430.0</ele><time>2026-05-03T10:21:16.167Z</time></trkpt><trkpt lat="44.799952" lon="9.1088743"><ele>430.00000000000006</ele><time>2026-05-03T10:21:17.17Z</time></trkpt><trkpt lat="44.8000625" lon="9.1089445"><ele>430.0</ele><time>2026-05-03T10:21:19.162Z</time></trkpt><trkpt lat="44.8001488" lon="9.1089884"><ele>430.0</ele><time>2026-05-03T10:21:20.169Z</time></trkpt><trkpt lat="44.8002324" lon="9.1090228"><ele>430.0</ele><time>2026-05-03T10:21:21.17Z</time></trkpt><trkpt lat="44.8002968" lon="9.1090431"><ele>430.00000000000006</ele><time>2026-05-03T10:21:22.167Z</time></trkpt><trkpt lat="44.8003619" lon="9.1090502"><ele>430.0</ele><time>2026-05-03T10:21:23.164Z</time></trkpt><trkpt lat="44.8004525" lon="9.1090791"><ele>434.83333333333337</ele><time>2026-05-03T10:21:25.164Z</time></trkpt><trkpt lat="44.8005197" lon="9.1091209"><ele>439.6666666666667</ele><time>2026-05-03T10:21:27.16Z</time></trkpt><trkpt lat="44.8005668" lon="9.1091883"><ele>444.5</ele><time>2026-05-03T10:21:30.17Z</time></trkpt><trkpt lat="44.8006131" lon="9.1092966"><ele>449.33333333333337</ele><time>2026-05-03T10:21:33.167Z</time></trkpt><trkpt lat="44.8006496" lon="9.1093782"><ele>454.1666666666667</ele><time>2026-05-03T10:21:34.161Z</time></trkpt><trkpt lat="44.8007002" lon="9.1094847"><ele>459.0</ele><time>2026-05-03T10:21:35.167Z</time></trkpt><trkpt lat="44.8007931" lon="9.1096646"><ele>459.0</ele><time>2026-05-03T10:21:36.168Z</time></trkpt><trkpt lat="44.8008619" lon="9.109816"><ele>459.0</ele><time>2026-05-03T10:21:37.168Z</time></trkpt><trkpt lat="44.8009336" lon="9.1098956"><ele>459.0</ele><time>2026-05-03T10:21:39.158Z</time></trkpt><trkpt lat="44.8010117" lon="9.1099114"><ele>459.0</ele><time>2026-05-03T10:21:50.158Z</time></trkpt><trkpt lat="44.8010799" lon="9.1098299"><ele>459.0</ele><time>2026-05-03T10:21:53.169Z</time></trkpt><trkpt lat="44.8011312" lon="9.1097411"><ele>462.0</ele><time>2026-05-03T10:21:57.158Z</time></trkpt><trkpt lat="44.8012012" lon="9.1096433"><ele>465.0</ele><time>2026-05-03T10:22:00.161Z</time></trkpt><trkpt lat="44.8012938" lon="9.1095305"><ele>468.0</ele><time>2026-05-03T10:22:02.166Z</time></trkpt><trkpt lat="44.8013565" lon="9.1094892"><ele>471.0</ele><time>2026-05-03T10:22:03.16Z</time></trkpt><trkpt lat="44.8014262" lon="9.1094674"><ele>474.0</ele><time>2026-05-03T10:22:04.168Z</time></trkpt><trkpt lat="44.8015494" lon="9.1095111"><ele>474.0</ele><time>2026-05-03T10:22:05.164Z</time></trkpt><trkpt lat="44.801705" lon="9.1094606"><ele>474.0</ele><time>2026-05-03T10:22:06.158Z</time></trkpt><trkpt lat="44.8017882" lon="9.1094795"><ele>474.0</ele><time>2026-05-03T10:22:07.163Z</time></trkpt><trkpt lat="44.8018543" lon="9.1094766"><ele>474.0</ele><time>2026-05-03T10:22:08.161Z</time></trkpt><trkpt lat="44.8019562" lon="9.1095007"><ele>474.0</ele><time>2026-05-03T10:22:10.163Z</time></trkpt><trkpt lat="44.8020252" lon="9.1095032"><ele>478.2</ele><time>2026-05-03T10:22:12.159Z</time></trkpt><trkpt lat="44.8020994" lon="9.1095078"><ele>482.4</ele><time>2026-05-03T10:22:15.169Z</time></trkpt><trkpt lat="44.8022077" lon="9.1095425"><ele>486.6</ele><time>2026-05-03T10:22:17.167Z</time></trkpt><trkpt lat="44.8023466" lon="9.1096056"><ele>490.8</ele><time>2026-05-03T10:22:18.16Z</time></trkpt><trkpt lat="44.8024375" lon="9.1096922"><ele>495.0</ele><time>2026-05-03T10:22:20.16Z</time></trkpt><trkpt lat="44.8025378" lon="9.109755"><ele>495.0</ele><time>2026-05-03T10:22:22.17Z</time></trkpt><trkpt lat="44.8026254" lon="9.1098036"><ele>495.0</ele><time>2026-05-03T10:22:24.164Z</time></trkpt><trkpt lat="44.8026884" lon="9.1098105"><ele>495.0</ele><time>2026-05-03T10:22:25.168Z</time></trkpt><trkpt lat="44.8027695" lon="9.1098185"><ele>495.0</ele><time>2026-05-03T10:22:27.164Z</time></trkpt><trkpt lat="44.8028417" lon="9.1098228"><ele>495.0</ele><time>2026-05-03T10:22:32.161Z</time></trkpt><trkpt lat="44.802954" lon="9.1098523"><ele>495.0</ele><time>2026-05-03T10:22:34.166Z</time></trkpt><trkpt lat="44.8030207" lon="9.1098697"><ele>501.0</ele><time>2026-05-03T10:22:35.159Z</time></trkpt><trkpt lat="44.8030877" lon="9.1098904"><ele>507.0</ele><time>2026-05-03T10:22:36.17Z</time></trkpt><trkpt lat="44.8031512" lon="9.1099199"><ele>513.0</ele><time>2026-05-03T10:22:37.167Z</time></trkpt><trkpt lat="44.8032305" lon="9.1100099"><ele>519.0</ele><time>2026-05-03T10:22:38.163Z</time></trkpt><trkpt lat="44.8033848" lon="9.1100902"><ele>525.0</ele><time>2026-05-03T10:22:39.159Z</time></trkpt><trkpt lat="44.8034276" lon="9.1102392"><ele>529.6</ele><time>2026-05-03T10:22:41.156Z</time></trkpt><trkpt lat="44.8034988" lon="9.1103661"><ele>534.2</ele><time>2026-05-03T10:22:43.167Z</time></trkpt><trkpt lat="44.8035205" lon="9.1105159"><ele>538.8</ele><time>2026-05-03T10:22:45.163Z</time></trkpt><trkpt lat="44.8035696" lon="9.1106856"><ele>543.4</ele><time>2026-05-03T10:22:47.166Z</time></trkpt><trkpt lat="44.8036217" lon="9.1107502"><ele>548.0</ele><time>2026-05-03T10:22:48.164Z</time></trkpt><trkpt lat="44.8037191" lon="9.1108269"><ele>548.0</ele><time>2026-05-03T10:22:50.165Z</time></trkpt><trkpt lat="44.8037838" lon="9.1108514"><ele>548.0</ele><time>2026-05-03T10:22:52.161Z</time></trkpt><trkpt lat="44.8038698" lon="9.1108599"><ele>548.0</ele><time>2026-05-03T10:25:07.165Z</time></trkpt><trkpt lat="44.8039479" lon="9.1108587"><ele>548.0</ele><time>2026-05-03T10:25:08.162Z</time></trkpt><trkpt lat="44.8040141" lon="9.1108625"><ele>548.0</ele><time>2026-05-03T10:25:09.169Z</time></trkpt><trkpt lat="44.8041232" lon="9.1108344"><ele>548.0</ele><time>2026-05-03T10:25:11.164Z</time></trkpt><trkpt lat="44.8041968" lon="9.1107931"><ele>548.0</ele><time>2026-05-03T10:25:12.165Z</time></trkpt><trkpt lat="44.8042566" lon="9.1107619"><ele>548.0</ele><time>2026-05-03T10:25:13.164Z</time></trkpt><trkpt lat="44.8043337" lon="9.1107184"><ele>548.0</ele><time>2026-05-03T10:25:15.16Z</time></trkpt><trkpt lat="44.8044018" lon="9.1107871"><ele>548.0</ele><time>2026-05-03T10:26:20.157Z</time></trkpt><trkpt lat="44.8044766" lon="9.1108253"><ele>548.0</ele><time>2026-05-03T10:26:23.167Z</time></trkpt><trkpt lat="44.8045438" lon="9.1108515"><ele>548.0</ele><time>2026-05-03T10:26:26.159Z</time></trkpt><trkpt lat="44.8046153" lon="9.1108881"><ele>551.3333333333333</ele><time>2026-05-03T10:26:44.157Z</time></trkpt><trkpt lat="44.8047004" lon="9.1109453"><ele>554.6666666666666</ele><time>2026-05-03T10:26:47.159Z</time></trkpt><trkpt lat="44.8047869" lon="9.1109452"><ele>558.0</ele><time>2026-05-03T10:26:50.165Z</time></trkpt><trkpt lat="44.8048427" lon="9.110903"><ele>561.3333333333334</ele><time>2026-05-03T10:26:52.157Z</time></trkpt><trkpt lat="44.8049152" lon="9.1108661"><ele>564.6666666666667</ele><time>2026-05-03T10:26:54.162Z</time></trkpt><trkpt lat="44.80502" lon="9.1108544"><ele>568.0</ele><time>2026-05-03T10:26:56.161Z</time></trkpt><trkpt lat="44.8051122" lon="9.1107804"><ele>575.6666666666667</ele><time>2026-05-03T10:26:59.16Z</time></trkpt><trkpt lat="44.8051873" lon="9.1107304"><ele>583.3333333333334</ele><time>2026-05-03T10:27:01.167Z</time></trkpt><trkpt lat="44.8054934" lon="9.110577"><ele>591.0</ele><time>2026-05-03T10:27:03.153Z</time></trkpt><trkpt lat="44.8056724" lon="9.1105141"><ele>591.0</ele><time>2026-05-03T10:27:05.168Z</time></trkpt><trkpt lat="44.8057594" lon="9.1105121"><ele>591.0</ele><time>2026-05-03T10:27:06.169Z</time></trkpt><trkpt lat="44.805863" lon="9.1104898"><ele>591.0</ele><time>2026-05-03T10:27:07.17Z</time></trkpt><trkpt lat="44.8059669" lon="9.1104404"><ele>591.0</ele><time>2026-05-03T10:27:08.161Z</time></trkpt><trkpt lat="44.8060703" lon="9.1103979"><ele>591.0</ele><time>2026-05-03T10:27:09.164Z</time></trkpt><trkpt lat="44.8061423" lon="9.1103679"><ele>589.8333333333334</ele><time>2026-05-03T10:27:10.162Z</time></trkpt><trkpt lat="44.8062251" lon="9.110279"><ele>588.6666666666666</ele><time>2026-05-03T10:27:12.164Z</time></trkpt><trkpt lat="44.8062704" lon="9.1101743"><ele>587.5</ele><time>2026-05-03T10:27:14.177Z</time></trkpt><trkpt lat="44.80628" lon="9.1100734"><ele>586.3333333333333</ele><time>2026-05-03T10:27:16.164Z</time></trkpt><trkpt lat="44.8062934" lon="9.1099557"><ele>585.1666666666666</ele><time>2026-05-03T10:27:19.162Z</time></trkpt><trkpt lat="44.8062929" lon="9.1098632"><ele>584.0</ele><time>2026-05-03T10:27:23.163Z</time></trkpt><trkpt lat="44.8062877" lon="9.1096418"><ele>584.0</ele><time>2026-05-03T10:27:24.159Z</time></trkpt><trkpt lat="44.806263" lon="9.1094048"><ele>584.0</ele><time>2026-05-03T10:27:25.161Z</time></trkpt><trkpt lat="44.8062408" lon="9.1092608"><ele>584.0</ele><time>2026-05-03T10:27:26.163Z</time></trkpt><trkpt lat="44.8062227" lon="9.109156"><ele>584.0</ele><time>2026-05-03T10:27:27.163Z</time></trkpt><trkpt lat="44.8062041" lon="9.1090556"><ele>584.0</ele><time>2026-05-03T10:27:28.161Z</time></trkpt><trkpt lat="44.8061884" lon="9.1089324"><ele>585.1428571428571</ele><time>2026-05-03T10:27:30.167Z</time></trkpt><trkpt lat="44.8062086" lon="9.1088422"><ele>586.2857142857143</ele><time>2026-05-03T10:27:31.158Z</time></trkpt><trkpt lat="44.8062384" lon="9.1087582"><ele>587.4285714285714</ele><time>2026-05-03T10:27:32.166Z</time></trkpt><trkpt lat="44.8062651" lon="9.108672"><ele>588.5714285714286</ele><time>2026-05-03T10:27:33.173Z</time></trkpt><trkpt lat="44.8063031" lon="9.1085738"><ele>589.7142857142857</ele><time>2026-05-03T10:27:34.162Z</time></trkpt><trkpt lat="44.8063314" lon="9.1084945"><ele>590.8571428571429</ele><time>2026-05-03T10:27:35.166Z</time></trkpt><trkpt lat="44.8063933" lon="9.1083979"><ele>592.0</ele><time>2026-05-03T10:27:36.171Z</time></trkpt><trkpt lat="44.8064829" lon="9.1082864"><ele>591.0</ele><time>2026-05-03T10:27:37.037Z</time></trkpt><trkpt lat="44.8065494" lon="9.1081811"><ele>590.0</ele><time>2026-05-03T10:27:37.974Z</time></trkpt><trkpt lat="44.8066098" lon="9.1081415"><ele>589.0</ele><time>2026-05-03T10:27:38.971Z</time></trkpt><trkpt lat="44.8066842" lon="9.1081183"><ele>588.0</ele><time>2026-05-03T10:27:39.97Z</time></trkpt><trkpt lat="44.8067646" lon="9.1080679"><ele>587.0</ele><time>2026-05-03T10:27:40.965Z</time></trkpt><trkpt lat="44.8068517" lon="9.1079908"><ele>586.0</ele><time>2026-05-03T10:27:41.964Z</time></trkpt><trkpt lat="44.8069439" lon="9.107913"><ele>586.0</ele><time>2026-05-03T10:27:42.966Z</time></trkpt><trkpt lat="44.807049" lon="9.107857"><ele>586.0</ele><time>2026-05-03T10:27:43.986Z</time></trkpt><trkpt lat="44.8071509" lon="9.1078035"><ele>586.0</ele><time>2026-05-03T10:27:44.995Z</time></trkpt><trkpt lat="44.8072636" lon="9.1077705"><ele>586.0</ele><time>2026-05-03T10:27:45.971Z</time></trkpt><trkpt lat="44.8073726" lon="9.1077338"><ele>586.0</ele><time>2026-05-03T10:27:46.97Z</time></trkpt><trkpt lat="44.8074815" lon="9.1076941"><ele>586.0</ele><time>2026-05-03T10:27:47.968Z</time></trkpt><trkpt lat="44.8075907" lon="9.1076533"><ele>586.0</ele><time>2026-05-03T10:27:48.971Z</time></trkpt><trkpt lat="44.8077069" lon="9.1076077"><ele>586.0</ele><time>2026-05-03T10:27:49.965Z</time></trkpt><trkpt lat="44.807805" lon="9.1075488"><ele>586.0</ele><time>2026-05-03T10:27:50.965Z</time></trkpt><trkpt lat="44.8079002" lon="9.1074758"><ele>586.0</ele><time>2026-05-03T10:27:51.965Z</time></trkpt><trkpt lat="44.8079894" lon="9.1073913"><ele>585.0</ele><time>2026-05-03T10:27:52.971Z</time></trkpt><trkpt lat="44.808062" lon="9.107321"><ele>584.0</ele><time>2026-05-03T10:27:53.965Z</time></trkpt><trkpt lat="44.8081366" lon="9.1072626"><ele>583.0</ele><time>2026-05-03T10:27:54.969Z</time></trkpt><trkpt lat="44.8082179" lon="9.10723"><ele>582.0</ele><time>2026-05-03T10:27:55.965Z</time></trkpt><trkpt lat="44.8083109" lon="9.1072103"><ele>581.0</ele><time>2026-05-03T10:27:56.964Z</time></trkpt><trkpt lat="44.8084101" lon="9.1072083"><ele>581.0</ele><time>2026-05-03T10:27:57.964Z</time></trkpt><trkpt lat="44.8085057" lon="9.1072275"><ele>581.0</ele><time>2026-05-03T10:27:58.969Z</time></trkpt><trkpt lat="44.8085984" lon="9.1072642"><ele>581.0</ele><time>2026-05-03T10:27:59.963Z</time></trkpt><trkpt lat="44.8086894" lon="9.107309"><ele>581.0</ele><time>2026-05-03T10:28:00.967Z</time></trkpt><trkpt lat="44.808778" lon="9.10736"><ele>581.0</ele><time>2026-05-03T10:28:01.966Z</time></trkpt><trkpt lat="44.8088585" lon="9.107412"><ele>581.0</ele><time>2026-05-03T10:28:02.962Z</time></trkpt><trkpt lat="44.8090114" lon="9.1075587"><ele>581.0</ele><time>2026-05-03T10:28:04.967Z</time></trkpt><trkpt lat="44.8091517" lon="9.1076535"><ele>581.0</ele><time>2026-05-03T10:28:06.965Z</time></trkpt><trkpt lat="44.8093114" lon="9.1076679"><ele>581.4</ele><time>2026-05-03T10:28:08.968Z</time></trkpt><trkpt lat="44.8094354" lon="9.1076428"><ele>581.8</ele><time>2026-05-03T10:28:10.965Z</time></trkpt><trkpt lat="44.8095132" lon="9.1076324"><ele>582.1999999999999</ele><time>2026-05-03T10:28:12.966Z</time></trkpt><trkpt lat="44.8096001" lon="9.1076657"><ele>582.6</ele><time>2026-05-03T10:28:14.967Z</time></trkpt><trkpt lat="44.8097221" lon="9.1077281"><ele>583.0</ele><time>2026-05-03T10:28:16.967Z</time></trkpt><trkpt lat="44.8098365" lon="9.1077717"><ele>583.0</ele><time>2026-05-03T10:28:18.965Z</time></trkpt><trkpt lat="44.8100093" lon="9.1078295"><ele>583.0</ele><time>2026-05-03T10:28:20.967Z</time></trkpt><trkpt lat="44.8101279" lon="9.1079244"><ele>583.0</ele><time>2026-05-03T10:28:22.968Z</time></trkpt><trkpt lat="44.8102532" lon="9.10804"><ele>584.3333333333334</ele><time>2026-05-03T10:28:24.964Z</time></trkpt><trkpt lat="44.810388" lon="9.1081822"><ele>585.6666666666666</ele><time>2026-05-03T10:28:26.969Z</time></trkpt><trkpt lat="44.8104524" lon="9.108395"><ele>587.0</ele><time>2026-05-03T10:28:28.969Z</time></trkpt><trkpt lat="44.8105667" lon="9.1084426"><ele>583.0</ele><time>2026-05-03T10:28:30.967Z</time></trkpt><trkpt lat="44.8106668" lon="9.1085377"><ele>579.0</ele><time>2026-05-03T10:28:32.964Z</time></trkpt><trkpt lat="44.810764" lon="9.1086448"><ele>575.0</ele><time>2026-05-03T10:28:34.968Z</time></trkpt><trkpt lat="44.810979" lon="9.1088004"><ele>576.6666666666666</ele><time>2026-05-03T10:28:36.968Z</time></trkpt><trkpt lat="44.8111585" lon="9.1089407"><ele>578.3333333333334</ele><time>2026-05-03T10:28:38.966Z</time></trkpt><trkpt lat="44.8112867" lon="9.1091629"><ele>580.0</ele><time>2026-05-03T10:28:40.964Z</time></trkpt><trkpt lat="44.8114352" lon="9.1093873"><ele>576.6666666666667</ele><time>2026-05-03T10:28:42.971Z</time></trkpt><trkpt lat="44.8115818" lon="9.1095753"><ele>573.3333333333334</ele><time>2026-05-03T10:28:44.966Z</time></trkpt><trkpt lat="44.8116985" lon="9.1097226"><ele>570.0</ele><time>2026-05-03T10:28:46.968Z</time></trkpt><trkpt lat="44.8117572" lon="9.1099501"><ele>568.8</ele><time>2026-05-03T10:28:48.974Z</time></trkpt><trkpt lat="44.8117733" lon="9.1100948"><ele>567.6</ele><time>2026-05-03T10:28:50.965Z</time></trkpt><trkpt lat="44.8117989" lon="9.1101921"><ele>566.4</ele><time>2026-05-03T10:29:57.969Z</time></trkpt><trkpt lat="44.8118624" lon="9.1101811"><ele>565.2</ele><time>2026-05-03T10:30:00.966Z</time></trkpt><trkpt lat="44.8119314" lon="9.1101424"><ele>564.0</ele><time>2026-05-03T10:30:02.968Z</time></trkpt><trkpt lat="44.8121538" lon="9.1100006"><ele>562.5</ele><time>2026-05-03T10:30:06.966Z</time></trkpt><trkpt lat="44.8124243" lon="9.1095228"><ele>561.0</ele><time>2026-05-03T10:30:12.974Z</time></trkpt><trkpt lat="44.812437" lon="9.109423"><ele>561.0</ele><time>2026-05-03T10:30:13.964Z</time></trkpt><trkpt lat="44.8124589" lon="9.1093199"><ele>561.0</ele><time>2026-05-03T10:30:14.964Z</time></trkpt><trkpt lat="44.8124815" lon="9.1092203"><ele>561.0</ele><time>2026-05-03T10:30:15.967Z</time></trkpt><trkpt lat="44.8124909" lon="9.1091135"><ele>561.0</ele><time>2026-05-03T10:30:16.963Z</time></trkpt><trkpt lat="44.8124648" lon="9.1090164"><ele>561.0</ele><time>2026-05-03T10:30:17.971Z</time></trkpt><trkpt lat="44.8124492" lon="9.1088666"><ele>561.0</ele><time>2026-05-03T10:30:19.96Z</time></trkpt><trkpt lat="44.8124755" lon="9.1087858"><ele>561.6666666666666</ele><time>2026-05-03T10:30:20.968Z</time></trkpt><trkpt lat="44.8125371" lon="9.1087282"><ele>562.3333333333334</ele><time>2026-05-03T10:30:21.965Z</time></trkpt><trkpt lat="44.8125952" lon="9.1086647"><ele>563.0</ele><time>2026-05-03T10:30:22.964Z</time></trkpt><trkpt lat="44.8126451" lon="9.1085192"><ele>563.6666666666667</ele><time>2026-05-03T10:30:24.969Z</time></trkpt><trkpt lat="44.8126573" lon="9.1084033"><ele>564.3333333333334</ele><time>2026-05-03T10:30:25.97Z</time></trkpt><trkpt lat="44.81266" lon="9.1082574"><ele>565.0</ele><time>2026-05-03T10:30:26.965Z</time></trkpt><trkpt lat="44.8126612" lon="9.1081185"><ele>565.4</ele><time>2026-05-03T10:30:27.966Z</time></trkpt><trkpt lat="44.8126572" lon="9.1079843"><ele>565.8</ele><time>2026-05-03T10:30:28.963Z</time></trkpt><trkpt lat="44.8126484" lon="9.107862"><ele>566.2</ele><time>2026-05-03T10:30:29.966Z</time></trkpt><trkpt lat="44.812647" lon="9.1077436"><ele>566.6</ele><time>2026-05-03T10:30:30.969Z</time></trkpt><trkpt lat="44.812701" lon="9.1076656"><ele>567.0</ele><time>2026-05-03T10:30:31.964Z</time></trkpt><trkpt lat="44.8127617" lon="9.1075072"><ele>560.0</ele><time>2026-05-03T10:30:33.961Z</time></trkpt><trkpt lat="44.8128437" lon="9.1074471"><ele>553.0</ele><time>2026-05-03T10:30:35.969Z</time></trkpt><trkpt lat="44.8129062" lon="9.1074266"><ele>546.0</ele><time>2026-05-03T10:30:36.964Z</time></trkpt><trkpt lat="44.8130333" lon="9.107399"><ele>539.0</ele><time>2026-05-03T10:30:38.968Z</time></trkpt><trkpt lat="44.8131291" lon="9.1073969"><ele>532.0</ele><time>2026-05-03T10:30:39.966Z</time></trkpt><trkpt lat="44.8132199" lon="9.1073853"><ele>532.0</ele><time>2026-05-03T10:30:40.964Z</time></trkpt><trkpt lat="44.8132916" lon="9.1073634"><ele>532.0</ele><time>2026-05-03T10:30:41.968Z</time></trkpt><trkpt lat="44.8133524" lon="9.1073274"><ele>532.0</ele><time>2026-05-03T10:30:42.971Z</time></trkpt><trkpt lat="44.8134166" lon="9.1072843"><ele>532.0</ele><time>2026-05-03T10:30:43.971Z</time></trkpt><trkpt lat="44.8134967" lon="9.107226"><ele>532.0</ele><time>2026-05-03T10:30:44.963Z</time></trkpt><trkpt lat="44.8135609" lon="9.1071618"><ele>532.0</ele><time>2026-05-03T10:30:45.966Z</time></trkpt><trkpt lat="44.8136021" lon="9.1070875"><ele>532.0</ele><time>2026-05-03T10:30:46.964Z</time></trkpt><trkpt lat="44.8136451" lon="9.1069991"><ele>530.0</ele><time>2026-05-03T10:30:47.963Z</time></trkpt><trkpt lat="44.8137007" lon="9.106898"><ele>528.0</ele><time>2026-05-03T10:30:48.975Z</time></trkpt><trkpt lat="44.8137701" lon="9.106833"><ele>526.0</ele><time>2026-05-03T10:30:49.973Z</time></trkpt><trkpt lat="44.8138388" lon="9.1067926"><ele>524.0</ele><time>2026-05-03T10:30:50.962Z</time></trkpt><trkpt lat="44.8139175" lon="9.1067821"><ele>522.0</ele><time>2026-05-03T10:30:51.962Z</time></trkpt><trkpt lat="44.8140048" lon="9.1067858"><ele>520.0</ele><time>2026-05-03T10:30:52.967Z</time></trkpt><trkpt lat="44.8141106" lon="9.1067832"><ele>520.0</ele><time>2026-05-03T10:30:53.968Z</time></trkpt><trkpt lat="44.8142169" lon="9.1067647"><ele>520.0</ele><time>2026-05-03T10:30:54.965Z</time></trkpt><trkpt lat="44.8143014" lon="9.1067503"><ele>520.0</ele><time>2026-05-03T10:30:55.971Z</time></trkpt><trkpt lat="44.8143796" lon="9.1067393"><ele>520.0</ele><time>2026-05-03T10:30:56.971Z</time></trkpt><trkpt lat="44.8144265" lon="9.1068187"><ele>520.0</ele><time>2026-05-03T10:30:57.964Z</time></trkpt><trkpt lat="44.8144973" lon="9.1069486"><ele>519.4</ele><time>2026-05-03T10:30:59.962Z</time></trkpt><trkpt lat="44.8145999" lon="9.1070725"><ele>518.8</ele><time>2026-05-03T10:31:01.963Z</time></trkpt><trkpt lat="44.8146649" lon="9.1071524"><ele>518.2</ele><time>2026-05-03T10:31:02.966Z</time></trkpt><trkpt lat="44.8147243" lon="9.1072638"><ele>517.6</ele><time>2026-05-03T10:31:03.964Z</time></trkpt><trkpt lat="44.8147821" lon="9.1073541"><ele>517.0</ele><time>2026-05-03T10:31:04.964Z</time></trkpt><trkpt lat="44.8148502" lon="9.1074259"><ele>517.0</ele><time>2026-05-03T10:31:05.962Z</time></trkpt><trkpt lat="44.8149188" lon="9.1074741"><ele>517.0</ele><time>2026-05-03T10:31:06.967Z</time></trkpt><trkpt lat="44.8149963" lon="9.1075086"><ele>517.0</ele><time>2026-05-03T10:31:07.964Z</time></trkpt><trkpt lat="44.8150657" lon="9.1075362"><ele>517.0</ele><time>2026-05-03T10:31:09.963Z</time></trkpt><trkpt lat="44.8151568" lon="9.1074889"><ele>517.0</ele><time>2026-05-03T10:31:31.965Z</time></trkpt><trkpt lat="44.8151711" lon="9.1074003"><ele>517.0</ele><time>2026-05-03T10:31:33.964Z</time></trkpt><trkpt lat="44.8151433" lon="9.1073026"><ele>519.2</ele><time>2026-05-03T10:31:35.97Z</time></trkpt><trkpt lat="44.8150905" lon="9.1072163"><ele>521.4000000000001</ele><time>2026-05-03T10:31:37.968Z</time></trkpt><trkpt lat="44.8150476" lon="9.1071303"><ele>523.5999999999999</ele><time>2026-05-03T10:31:40.966Z</time></trkpt><trkpt lat="44.8150443" lon="9.1070081"><ele>525.8</ele><time>2026-05-03T10:32:26.969Z</time></trkpt><trkpt lat="44.8150911" lon="9.1068495"><ele>528.0</ele><time>2026-05-03T10:32:28.964Z</time></trkpt><trkpt lat="44.815139" lon="9.1067197"><ele>527.8333333333334</ele><time>2026-05-03T10:32:30.968Z</time></trkpt><trkpt lat="44.8151625" lon="9.1066328"><ele>527.6666666666666</ele><time>2026-05-03T10:32:31.965Z</time></trkpt><trkpt lat="44.8151868" lon="9.1065329"><ele>527.5</ele><time>2026-05-03T10:32:32.965Z</time></trkpt><trkpt lat="44.8152242" lon="9.1064152"><ele>527.3333333333333</ele><time>2026-05-03T10:32:33.97Z</time></trkpt><trkpt lat="44.8152798" lon="9.1062899"><ele>527.1666666666666</ele><time>2026-05-03T10:32:34.965Z</time></trkpt><trkpt lat="44.8153312" lon="9.1061831"><ele>527.0</ele><time>2026-05-03T10:32:35.963Z</time></trkpt><trkpt lat="44.8153687" lon="9.1060886"><ele>529.6666666666666</ele><time>2026-05-03T10:32:36.971Z</time></trkpt><trkpt lat="44.8153866" lon="9.1059778"><ele>532.3333333333333</ele><time>2026-05-03T10:32:37.967Z</time></trkpt><trkpt lat="44.8153648" lon="9.1058636"><ele>535.0</ele><time>2026-05-03T10:32:38.964Z</time></trkpt><trkpt lat="44.8153553" lon="9.1057524"><ele>537.6666666666666</ele><time>2026-05-03T10:32:39.965Z</time></trkpt><trkpt lat="44.8153436" lon="9.1056451"><ele>540.3333333333334</ele><time>2026-05-03T10:32:40.962Z</time></trkpt><trkpt lat="44.8153367" lon="9.1055499"><ele>543.0</ele><time>2026-05-03T10:32:41.963Z</time></trkpt><trkpt lat="44.8153445" lon="9.1054506"><ele>546.4</ele><time>2026-05-03T10:32:42.966Z</time></trkpt><trkpt lat="44.8153941" lon="9.105303"><ele>549.8</ele><time>2026-05-03T10:32:44.968Z</time></trkpt><trkpt lat="44.8154129" lon="9.1051209"><ele>553.2</ele><time>2026-05-03T10:32:46.963Z</time></trkpt><trkpt lat="44.8153666" lon="9.105035"><ele>556.6</ele><time>2026-05-03T10:32:47.962Z</time></trkpt><trkpt lat="44.8153054" lon="9.1049327"><ele>560.0</ele><time>2026-05-03T10:32:49.965Z</time></trkpt><trkpt lat="44.8152296" lon="9.1048336"><ele>564.75</ele><time>2026-05-03T10:32:51.967Z</time></trkpt><trkpt lat="44.8150639" lon="9.1047567"><ele>569.5</ele><time>2026-05-03T10:32:53.968Z</time></trkpt><trkpt lat="44.8149664" lon="9.1047122"><ele>574.25</ele><time>2026-05-03T10:32:54.965Z</time></trkpt><trkpt lat="44.8148845" lon="9.1046568"><ele>579.0</ele><time>2026-05-03T10:32:55.963Z</time></trkpt><trkpt lat="44.8148116" lon="9.1045814"><ele>579.0</ele><time>2026-05-03T10:32:56.968Z</time></trkpt><trkpt lat="44.8147514" lon="9.1044927"><ele>579.0</ele><time>2026-05-03T10:32:57.962Z</time></trkpt><trkpt lat="44.814712" lon="9.1044061"><ele>579.0</ele><time>2026-05-03T10:32:58.963Z</time></trkpt><trkpt lat="44.8146765" lon="9.1043031"><ele>579.0</ele><time>2026-05-03T10:32:59.965Z</time></trkpt><trkpt lat="44.8146877" lon="9.104176"><ele>579.0</ele><time>2026-05-03T10:33:00.97Z</time></trkpt><trkpt lat="44.8146982" lon="9.1040409"><ele>579.0</ele><time>2026-05-03T10:33:01.965Z</time></trkpt><trkpt lat="44.8147153" lon="9.1039182"><ele>581.8333333333334</ele><time>2026-05-03T10:33:02.968Z</time></trkpt><trkpt lat="44.8147298" lon="9.1038103"><ele>584.6666666666666</ele><time>2026-05-03T10:33:03.968Z</time></trkpt><trkpt lat="44.8147502" lon="9.103704"><ele>587.5</ele><time>2026-05-03T10:33:04.966Z</time></trkpt><trkpt lat="44.814768" lon="9.1036034"><ele>590.3333333333333</ele><time>2026-05-03T10:33:05.965Z</time></trkpt><trkpt lat="44.8147676" lon="9.1035106"><ele>593.1666666666666</ele><time>2026-05-03T10:33:06.969Z</time></trkpt><trkpt lat="44.8147656" lon="9.1033244"><ele>596.0</ele><time>2026-05-03T10:33:08.964Z</time></trkpt><trkpt lat="44.8147658" lon="9.103216"><ele>598.0</ele><time>2026-05-03T10:33:09.962Z</time></trkpt><trkpt lat="44.8147696" lon="9.1031025"><ele>600.0</ele><time>2026-05-03T10:33:10.963Z</time></trkpt><trkpt lat="44.8147616" lon="9.103009"><ele>602.0</ele><time>2026-05-03T10:33:11.963Z</time></trkpt><trkpt lat="44.8147703" lon="9.1028621"><ele>604.0</ele><time>2026-05-03T10:33:13.97Z</time></trkpt><trkpt lat="44.8148722" lon="9.1027308"><ele>606.0</ele><time>2026-05-03T10:33:15.968Z</time></trkpt><trkpt lat="44.8149438" lon="9.1026614"><ele>606.0</ele><time>2026-05-03T10:33:16.971Z</time></trkpt><trkpt lat="44.8150014" lon="9.1026005"><ele>606.0</ele><time>2026-05-03T10:33:17.969Z</time></trkpt><trkpt lat="44.8150446" lon="9.1025252"><ele>606.0</ele><time>2026-05-03T10:33:18.962Z</time></trkpt><trkpt lat="44.8151002" lon="9.1024474"><ele>606.0</ele><time>2026-05-03T10:33:19.965Z</time></trkpt><trkpt lat="44.8151514" lon="9.1023759"><ele>606.0</ele><time>2026-05-03T10:33:20.962Z</time></trkpt><trkpt lat="44.8151912" lon="9.1023015"><ele>606.0</ele><time>2026-05-03T10:33:21.968Z</time></trkpt><trkpt lat="44.8152266" lon="9.102193"><ele>606.0</ele><time>2026-05-03T10:33:22.962Z</time></trkpt><trkpt lat="44.8152538" lon="9.102057"><ele>607.1666666666666</ele><time>2026-05-03T10:33:23.963Z</time></trkpt><trkpt lat="44.8152994" lon="9.1019355"><ele>608.3333333333334</ele><time>2026-05-03T10:33:24.963Z</time></trkpt><trkpt lat="44.8153388" lon="9.1018307"><ele>609.5</ele><time>2026-05-03T10:33:25.963Z</time></trkpt><trkpt lat="44.8153724" lon="9.1017133"><ele>610.6666666666667</ele><time>2026-05-03T10:33:26.973Z</time></trkpt><trkpt lat="44.8153932" lon="9.1016111"><ele>611.8333333333334</ele><time>2026-05-03T10:33:27.967Z</time></trkpt><trkpt lat="44.8154161" lon="9.1015127"><ele>613.0</ele><time>2026-05-03T10:33:28.967Z</time></trkpt><trkpt lat="44.8154434" lon="9.101414"><ele>614.1999999999999</ele><time>2026-05-03T10:33:29.963Z</time></trkpt><trkpt lat="44.8154764" lon="9.1013079"><ele>615.4</ele><time>2026-05-03T10:33:30.967Z</time></trkpt><trkpt lat="44.8155248" lon="9.1011818"><ele>616.5999999999999</ele><time>2026-05-03T10:33:32.968Z</time></trkpt><trkpt lat="44.8155537" lon="9.1010785"><ele>617.8</ele><time>2026-05-03T10:33:35.964Z</time></trkpt><trkpt lat="44.8155595" lon="9.1009095"><ele>619.0</ele><time>2026-05-03T10:33:37.963Z</time></trkpt><trkpt lat="44.8155565" lon="9.1008062"><ele>618.8333333333334</ele><time>2026-05-03T10:33:38.967Z</time></trkpt><trkpt lat="44.8155537" lon="9.1006895"><ele>618.6666666666667</ele><time>2026-05-03T10:33:39.967Z</time></trkpt><trkpt lat="44.8155498" lon="9.100573"><ele>618.5</ele><time>2026-05-03T10:33:40.963Z</time></trkpt><trkpt lat="44.8155547" lon="9.1004712"><ele>618.3333333333334</ele><time>2026-05-03T10:33:41.962Z</time></trkpt><trkpt lat="44.8155335" lon="9.1002999"><ele>618.1666666666666</ele><time>2026-05-03T10:33:43.963Z</time></trkpt><trkpt lat="44.8155244" lon="9.1002114"><ele>618.0</ele><time>2026-05-03T10:33:44.964Z</time></trkpt><trkpt lat="44.8154764" lon="9.1000706"><ele>618.0</ele><time>2026-05-03T10:33:46.963Z</time></trkpt><trkpt lat="44.8154441" lon="9.0999184"><ele>618.0</ele><time>2026-05-03T10:33:48.965Z</time></trkpt><trkpt lat="44.8154448" lon="9.0998162"><ele>618.0</ele><time>2026-05-03T10:33:49.965Z</time></trkpt><trkpt lat="44.8154372" lon="9.0996999"><ele>618.0</ele><time>2026-05-03T10:33:50.963Z</time></trkpt><trkpt lat="44.8154275" lon="9.099595"><ele>618.0</ele><time>2026-05-03T10:33:51.962Z</time></trkpt><trkpt lat="44.8154375" lon="9.0995025"><ele>618.0</ele><time>2026-05-03T10:33:52.978Z</time></trkpt><trkpt lat="44.8154564" lon="9.0993587"><ele>617.8333333333334</ele><time>2026-05-03T10:33:54.964Z</time></trkpt><trkpt lat="44.8155034" lon="9.0992839"><ele>617.6666666666666</ele><time>2026-05-03T10:34:02.964Z</time></trkpt><trkpt lat="44.8155532" lon="9.0991932"><ele>617.5</ele><time>2026-05-03T10:34:05.965Z</time></trkpt><trkpt lat="44.8156352" lon="9.099128"><ele>617.3333333333333</ele><time>2026-05-03T10:34:13.964Z</time></trkpt><trkpt lat="44.8156817" lon="9.0990622"><ele>617.1666666666666</ele><time>2026-05-03T10:34:14.966Z</time></trkpt><trkpt lat="44.8157294" lon="9.0989881"><ele>617.0</ele><time>2026-05-03T10:34:15.966Z</time></trkpt><trkpt lat="44.8158594" lon="9.0988779"><ele>615.5</ele><time>2026-05-03T10:34:16.968Z</time></trkpt><trkpt lat="44.8159528" lon="9.0987621"><ele>614.0</ele><time>2026-05-03T10:34:17.967Z</time></trkpt><trkpt lat="44.8160277" lon="9.0986409"><ele>612.5</ele><time>2026-05-03T10:34:18.976Z</time></trkpt><trkpt lat="44.8161074" lon="9.0985256"><ele>611.0</ele><time>2026-05-03T10:34:19.966Z</time></trkpt><trkpt lat="44.8161907" lon="9.0984379"><ele>614.8</ele><time>2026-05-03T10:34:20.965Z</time></trkpt><trkpt lat="44.8162542" lon="9.0983618"><ele>618.6</ele><time>2026-05-03T10:34:21.968Z</time></trkpt><trkpt lat="44.8163367" lon="9.0982738"><ele>622.4</ele><time>2026-05-03T10:34:22.968Z</time></trkpt><trkpt lat="44.8164288" lon="9.098175"><ele>626.2</ele><time>2026-05-03T10:34:23.964Z</time></trkpt><trkpt lat="44.8165109" lon="9.0980638"><ele>630.0</ele><time>2026-05-03T10:34:24.969Z</time></trkpt><trkpt lat="44.8165905" lon="9.0979867"><ele>631.2</ele><time>2026-05-03T10:34:25.961Z</time></trkpt><trkpt lat="44.8166903" lon="9.0979409"><ele>632.4</ele><time>2026-05-03T10:34:26.966Z</time></trkpt><trkpt lat="44.8167847" lon="9.0979146"><ele>633.6</ele><time>2026-05-03T10:34:27.968Z</time></trkpt><trkpt lat="44.8168852" lon="9.0979029"><ele>634.8</ele><time>2026-05-03T10:34:28.965Z</time></trkpt><trkpt lat="44.8169745" lon="9.0978922"><ele>636.0</ele><time>2026-05-03T10:34:29.96Z</time></trkpt><trkpt lat="44.8170473" lon="9.0978659"><ele>638.5</ele><time>2026-05-03T10:34:30.965Z</time></trkpt><trkpt lat="44.8171486" lon="9.0977739"><ele>641.0</ele><time>2026-05-03T10:34:32.967Z</time></trkpt><trkpt lat="44.8172149" lon="9.0977136"><ele>643.5</ele><time>2026-05-03T10:34:34.967Z</time></trkpt><trkpt lat="44.8172716" lon="9.0976742"><ele>646.0</ele><time>2026-05-03T10:34:45.968Z</time></trkpt><trkpt lat="44.8173619" lon="9.0975858"><ele>648.5</ele><time>2026-05-03T10:34:47.965Z</time></trkpt><trkpt lat="44.8174006" lon="9.0975158"><ele>651.0</ele><time>2026-05-03T10:34:48.966Z</time></trkpt><trkpt lat="44.8174207" lon="9.0974305"><ele>651.8333333333334</ele><time>2026-05-03T10:34:49.96Z</time></trkpt><trkpt lat="44.817419" lon="9.0973193"><ele>652.6666666666666</ele><time>2026-05-03T10:34:50.963Z</time></trkpt><trkpt lat="44.8174204" lon="9.0972081"><ele>653.5</ele><time>2026-05-03T10:34:51.964Z</time></trkpt><trkpt lat="44.8174604" lon="9.0970853"><ele>654.3333333333333</ele><time>2026-05-03T10:34:53.971Z</time></trkpt><trkpt lat="44.8175564" lon="9.0969992"><ele>655.1666666666666</ele><time>2026-05-03T10:34:55.969Z</time></trkpt><trkpt lat="44.8176167" lon="9.0969436"><ele>656.0</ele><time>2026-05-03T10:34:56.967Z</time></trkpt><trkpt lat="44.8176798" lon="9.0968854"><ele>657.8333333333333</ele><time>2026-05-03T10:34:57.964Z</time></trkpt><trkpt lat="44.8177482" lon="9.0968269"><ele>659.6666666666666</ele><time>2026-05-03T10:34:58.97Z</time></trkpt><trkpt lat="44.8178074" lon="9.0967625"><ele>661.5</ele><time>2026-05-03T10:34:59.968Z</time></trkpt><trkpt lat="44.8178642" lon="9.09668"><ele>663.3333333333334</ele><time>2026-05-03T10:35:00.962Z</time></trkpt><trkpt lat="44.8179132" lon="9.0965984"><ele>665.1666666666667</ele><time>2026-05-03T10:35:01.964Z</time></trkpt><trkpt lat="44.817948" lon="9.0964605"><ele>667.0</ele><time>2026-05-03T10:35:03.967Z</time></trkpt><trkpt lat="44.8179885" lon="9.0963318"><ele>668.5</ele><time>2026-05-03T10:35:05.972Z</time></trkpt><trkpt lat="44.8180046" lon="9.0962452"><ele>670.0</ele><time>2026-05-03T10:35:11.964Z</time></trkpt><trkpt lat="44.8179989" lon="9.0961027"><ele>671.5</ele><time>2026-05-03T10:35:26.962Z</time></trkpt><trkpt lat="44.8179869" lon="9.0960072"><ele>673.0</ele><time>2026-05-03T10:35:27.962Z</time></trkpt><trkpt lat="44.8179708" lon="9.0958873"><ele>674.5</ele><time>2026-05-03T10:35:28.961Z</time></trkpt><trkpt lat="44.8179483" lon="9.0957456"><ele>676.0</ele><time>2026-05-03T10:35:29.963Z</time></trkpt><trkpt lat="44.817917" lon="9.0955884"><ele>679.25</ele><time>2026-05-03T10:35:30.965Z</time></trkpt><trkpt lat="44.8178801" lon="9.0954193"><ele>682.5</ele><time>2026-05-03T10:35:31.965Z</time></trkpt><trkpt lat="44.8178408" lon="9.0952405"><ele>685.75</ele><time>2026-05-03T10:35:32.964Z</time></trkpt><trkpt lat="44.8177925" lon="9.0950573"><ele>689.0</ele><time>2026-05-03T10:35:33.964Z</time></trkpt><trkpt lat="44.8177412" lon="9.0948719"><ele>691.0</ele><time>2026-05-03T10:35:34.961Z</time></trkpt><trkpt lat="44.8176934" lon="9.094685"><ele>693.0</ele><time>2026-05-03T10:35:35.963Z</time></trkpt><trkpt lat="44.8176366" lon="9.0945136"><ele>695.0</ele><time>2026-05-03T10:35:36.965Z</time></trkpt><trkpt lat="44.8175652" lon="9.0943471"><ele>697.0</ele><time>2026-05-03T10:35:37.965Z</time></trkpt><trkpt lat="44.8174868" lon="9.0941947"><ele>694.0</ele><time>2026-05-03T10:35:38.969Z</time></trkpt><trkpt lat="44.817396" lon="9.0940415"><ele>691.0</ele><time>2026-05-03T10:35:39.962Z</time></trkpt><trkpt lat="44.8173034" lon="9.0938801"><ele>688.0</ele><time>2026-05-03T10:35:40.962Z</time></trkpt><trkpt lat="44.8172079" lon="9.0937102"><ele>685.0</ele><time>2026-05-03T10:35:41.963Z</time></trkpt><trkpt lat="44.8171141" lon="9.0935432"><ele>685.0</ele><time>2026-05-03T10:35:42.965Z</time></trkpt><trkpt lat="44.8170252" lon="9.0933869"><ele>685.0</ele><time>2026-05-03T10:35:43.965Z</time></trkpt><trkpt lat="44.8169493" lon="9.0932311"><ele>685.0</ele><time>2026-05-03T10:35:44.966Z</time></trkpt><trkpt lat="44.8168643" lon="9.0930638"><ele>685.0</ele><time>2026-05-03T10:35:45.961Z</time></trkpt><trkpt lat="44.816768" lon="9.0929005"><ele>681.6666666666667</ele><time>2026-05-03T10:35:46.965Z</time></trkpt><trkpt lat="44.8166741" lon="9.0927293"><ele>678.3333333333334</ele><time>2026-05-03T10:35:47.962Z</time></trkpt><trkpt lat="44.8165895" lon="9.0925566"><ele>675.0</ele><time>2026-05-03T10:35:48.964Z</time></trkpt><trkpt lat="44.8165033" lon="9.0923881"><ele>675.0</ele><time>2026-05-03T10:35:49.964Z</time></trkpt><trkpt lat="44.8164243" lon="9.0922129"><ele>675.0</ele><time>2026-05-03T10:35:50.963Z</time></trkpt><trkpt lat="44.8163758" lon="9.0920332"><ele>675.0</ele><time>2026-05-03T10:35:51.963Z</time></trkpt><trkpt lat="44.8163239" lon="9.0918436"><ele>675.0</ele><time>2026-05-03T10:35:52.969Z</time></trkpt><trkpt lat="44.816281" lon="9.0916558"><ele>677.25</ele><time>2026-05-03T10:35:53.964Z</time></trkpt><trkpt lat="44.8162344" lon="9.0914698"><ele>679.5</ele><time>2026-05-03T10:35:54.96Z</time></trkpt><trkpt lat="44.8161731" lon="9.0912961"><ele>681.75</ele><time>2026-05-03T10:35:55.968Z</time></trkpt><trkpt lat="44.8161065" lon="9.091142"><ele>684.0</ele><time>2026-05-03T10:35:56.967Z</time></trkpt><trkpt lat="44.8160337" lon="9.091013"><ele>680.0</ele><time>2026-05-03T10:35:57.966Z</time></trkpt><trkpt lat="44.8159567" lon="9.090913"><ele>676.0</ele><time>2026-05-03T10:35:58.967Z</time></trkpt><trkpt lat="44.8158698" lon="9.0908324"><ele>672.0</ele><time>2026-05-03T10:35:59.961Z</time></trkpt><trkpt lat="44.8157729" lon="9.0907971"><ele>668.0</ele><time>2026-05-03T10:36:00.964Z</time></trkpt><trkpt lat="44.8156641" lon="9.0907847"><ele>664.0</ele><time>2026-05-03T10:36:01.961Z</time></trkpt><trkpt lat="44.8155443" lon="9.0907876"><ele>664.0</ele><time>2026-05-03T10:36:02.967Z</time></trkpt><trkpt lat="44.8154161" lon="9.0907887"><ele>664.0</ele><time>2026-05-03T10:36:03.961Z</time></trkpt><trkpt lat="44.8152848" lon="9.0907875"><ele>664.0</ele><time>2026-05-03T10:36:04.969Z</time></trkpt><trkpt lat="44.8151447" lon="9.0907797"><ele>664.0</ele><time>2026-05-03T10:36:05.969Z</time></trkpt><trkpt lat="44.8150028" lon="9.0907707"><ele>664.5</ele><time>2026-05-03T10:36:06.966Z</time></trkpt><trkpt lat="44.8148651" lon="9.0907648"><ele>665.0</ele><time>2026-05-03T10:36:07.966Z</time></trkpt><trkpt lat="44.8147366" lon="9.0907638"><ele>665.5</ele><time>2026-05-03T10:36:08.967Z</time></trkpt><trkpt lat="44.8146182" lon="9.0907562"><ele>666.0</ele><time>2026-05-03T10:36:09.963Z</time></trkpt><trkpt lat="44.8145084" lon="9.0907257"><ele>666.0</ele><time>2026-05-03T10:36:10.967Z</time></trkpt><trkpt lat="44.8144126" lon="9.0906648"><ele>666.0</ele><time>2026-05-03T10:36:11.974Z</time></trkpt><trkpt lat="44.8143332" lon="9.0905615"><ele>666.0</ele><time>2026-05-03T10:36:12.97Z</time></trkpt><trkpt lat="44.8142786" lon="9.0904195"><ele>666.0</ele><time>2026-05-03T10:36:13.967Z</time></trkpt><trkpt lat="44.8142388" lon="9.0902459"><ele>663.25</ele><time>2026-05-03T10:36:14.969Z</time></trkpt><trkpt lat="44.8142055" lon="9.0900534"><ele>660.5</ele><time>2026-05-03T10:36:15.966Z</time></trkpt><trkpt lat="44.8141687" lon="9.0898535"><ele>657.75</ele><time>2026-05-03T10:36:16.968Z</time></trkpt><trkpt lat="44.8141238" lon="9.0896507"><ele>655.0</ele><time>2026-05-03T10:36:17.963Z</time></trkpt><trkpt lat="44.8140678" lon="9.0894526"><ele>655.0</ele><time>2026-05-03T10:36:18.965Z</time></trkpt><trkpt lat="44.8139971" lon="9.0892594"><ele>655.0</ele><time>2026-05-03T10:36:19.969Z</time></trkpt><trkpt lat="44.8139256" lon="9.0890793"><ele>655.0</ele><time>2026-05-03T10:36:20.972Z</time></trkpt><trkpt lat="44.8138638" lon="9.0889147"><ele>655.0</ele><time>2026-05-03T10:36:21.961Z</time></trkpt><trkpt lat="44.8138086" lon="9.0887605"><ele>655.8333333333334</ele><time>2026-05-03T10:36:22.965Z</time></trkpt><trkpt lat="44.8137699" lon="9.0886311"><ele>656.6666666666667</ele><time>2026-05-03T10:36:23.962Z</time></trkpt><trkpt lat="44.8137425" lon="9.0885174"><ele>657.5</ele><time>2026-05-03T10:36:24.962Z</time></trkpt><trkpt lat="44.8137233" lon="9.0884286"><ele>658.3333333333334</ele><time>2026-05-03T10:36:25.97Z</time></trkpt><trkpt lat="44.8137337" lon="9.0883334"><ele>659.1666666666666</ele><time>2026-05-03T10:36:28.969Z</time></trkpt><trkpt lat="44.8137999" lon="9.0883866"><ele>660.0</ele><time>2026-05-03T10:36:31.965Z</time></trkpt><trkpt lat="44.8138614" lon="9.0884543"><ele>660.0</ele><time>2026-05-03T10:36:33.978Z</time></trkpt><trkpt lat="44.8139802" lon="9.0885196"><ele>660.0</ele><time>2026-05-03T10:36:35.96Z</time></trkpt><trkpt lat="44.8140585" lon="9.0885386"><ele>660.0</ele><time>2026-05-03T10:36:36.971Z</time></trkpt><trkpt lat="44.8141539" lon="9.0885414"><ele>660.0</ele><time>2026-05-03T10:36:37.966Z</time></trkpt><trkpt lat="44.8142387" lon="9.0885314"><ele>660.0</ele><time>2026-05-03T10:36:38.964Z</time></trkpt><trkpt lat="44.8143305" lon="9.0885105"><ele>663.0</ele><time>2026-05-03T10:36:39.961Z</time></trkpt><trkpt lat="44.8144086" lon="9.0885059"><ele>666.0</ele><time>2026-05-03T10:36:40.965Z</time></trkpt><trkpt lat="44.8145038" lon="9.0885118"><ele>669.0</ele><time>2026-05-03T10:36:41.963Z</time></trkpt><trkpt lat="44.8146074" lon="9.0885127"><ele>672.0</ele><time>2026-05-03T10:36:42.97Z</time></trkpt><trkpt lat="44.814742" lon="9.0885018"><ele>675.0</ele><time>2026-05-03T10:36:43.966Z</time></trkpt><trkpt lat="44.8148805" lon="9.0884834"><ele>675.0</ele><time>2026-05-03T10:36:44.962Z</time></trkpt><trkpt lat="44.8149983" lon="9.0884693"><ele>675.0</ele><time>2026-05-03T10:36:45.962Z</time></trkpt><trkpt lat="44.8151159" lon="9.0884683"><ele>675.0</ele><time>2026-05-03T10:36:46.967Z</time></trkpt><trkpt lat="44.8152265" lon="9.0884784"><ele>675.0</ele><time>2026-05-03T10:36:47.981Z</time></trkpt><trkpt lat="44.8153364" lon="9.0884972"><ele>679.0</ele><time>2026-05-03T10:36:48.97Z</time></trkpt><trkpt lat="44.8154495" lon="9.0885259"><ele>683.0</ele><time>2026-05-03T10:36:49.962Z</time></trkpt><trkpt lat="44.8155537" lon="9.0885554"><ele>687.0</ele><time>2026-05-03T10:36:50.966Z</time></trkpt><trkpt lat="44.8156566" lon="9.0885858"><ele>691.0</ele><time>2026-05-03T10:36:51.961Z</time></trkpt><trkpt lat="44.8157497" lon="9.088603"><ele>695.0</ele><time>2026-05-03T10:36:52.961Z</time></trkpt><trkpt lat="44.8158257" lon="9.0885961"><ele>695.0000000000001</ele><time>2026-05-03T10:36:53.962Z</time></trkpt><trkpt lat="44.8158938" lon="9.0885799"><ele>695.0</ele><time>2026-05-03T10:36:54.971Z</time></trkpt><trkpt lat="44.8159585" lon="9.0885544"><ele>695.0</ele><time>2026-05-03T10:36:55.966Z</time></trkpt><trkpt lat="44.8160286" lon="9.0885163"><ele>695.0</ele><time>2026-05-03T10:36:57.963Z</time></trkpt><trkpt lat="44.816022" lon="9.0884216"><ele>695.0</ele><time>2026-05-03T10:37:00.963Z</time></trkpt><trkpt lat="44.8160125" lon="9.088332"><ele>695.0000000000001</ele><time>2026-05-03T10:37:27.961Z</time></trkpt><trkpt lat="44.8160246" lon="9.0882432"><ele>695.0</ele><time>2026-05-03T10:37:29.967Z</time></trkpt><trkpt lat="44.8160305" lon="9.0881353"><ele>701.8</ele><time>2026-05-03T10:37:30.965Z</time></trkpt><trkpt lat="44.8160236" lon="9.0879862"><ele>708.6</ele><time>2026-05-03T10:37:31.962Z</time></trkpt><trkpt lat="44.8160305" lon="9.0878348"><ele>715.4000000000001</ele><time>2026-05-03T10:37:32.966Z</time></trkpt><trkpt lat="44.8160315" lon="9.0877057"><ele>722.2</ele><time>2026-05-03T10:37:33.964Z</time></trkpt><trkpt lat="44.8160248" lon="9.0875943"><ele>729.0</ele><time>2026-05-03T10:37:34.967Z</time></trkpt><trkpt lat="44.8160259" lon="9.0874513"><ele>726.2</ele><time>2026-05-03T10:37:35.966Z</time></trkpt><trkpt lat="44.8160152" lon="9.0872935"><ele>723.4000000000001</ele><time>2026-05-03T10:37:36.96Z</time></trkpt><trkpt lat="44.8160087" lon="9.0871334"><ele>720.6</ele><time>2026-05-03T10:37:37.958Z</time></trkpt><trkpt lat="44.8160224" lon="9.0869761"><ele>717.8</ele><time>2026-05-03T10:37:38.965Z</time></trkpt><trkpt lat="44.8160272" lon="9.0868215"><ele>715.0</ele><time>2026-05-03T10:37:39.962Z</time></trkpt><trkpt lat="44.816033" lon="9.0866615"><ele>712.6666666666667</ele><time>2026-05-03T10:37:40.968Z</time></trkpt><trkpt lat="44.8160418" lon="9.0865329"><ele>710.3333333333334</ele><time>2026-05-03T10:37:41.97Z</time></trkpt><trkpt lat="44.8160328" lon="9.0864288"><ele>708.0</ele><time>2026-05-03T10:37:42.964Z</time></trkpt><trkpt lat="44.816014" lon="9.0863224"><ele>705.6666666666666</ele><time>2026-05-03T10:37:43.962Z</time></trkpt><trkpt lat="44.8159601" lon="9.0862001"><ele>703.3333333333333</ele><time>2026-05-03T10:37:44.964Z</time></trkpt><trkpt lat="44.8159454" lon="9.0860802"><ele>701.0</ele><time>2026-05-03T10:37:45.965Z</time></trkpt><trkpt lat="44.8159207" lon="9.0859713"><ele>698.4</ele><time>2026-05-03T10:37:46.959Z</time></trkpt><trkpt lat="44.815917" lon="9.0858481"><ele>695.8</ele><time>2026-05-03T10:37:47.964Z</time></trkpt><trkpt lat="44.8158935" lon="9.0857178"><ele>693.1999999999999</ele><time>2026-05-03T10:37:48.962Z</time></trkpt><trkpt lat="44.8158598" lon="9.085589"><ele>690.5999999999999</ele><time>2026-05-03T10:37:49.965Z</time></trkpt><trkpt lat="44.8158234" lon="9.0854475"><ele>688.0</ele><time>2026-05-03T10:37:50.964Z</time></trkpt><trkpt lat="44.8157986" lon="9.0853311"><ele>688.0</ele><time>2026-05-03T10:37:51.965Z</time></trkpt><trkpt lat="44.8157622" lon="9.0852184"><ele>688.0</ele><time>2026-05-03T10:37:52.961Z</time></trkpt><trkpt lat="44.8157261" lon="9.085096"><ele>688.0</ele><time>2026-05-03T10:37:53.961Z</time></trkpt><trkpt lat="44.8157019" lon="9.0849663"><ele>688.0</ele><time>2026-05-03T10:37:54.962Z</time></trkpt><trkpt lat="44.8156977" lon="9.0848451"><ele>688.0</ele><time>2026-05-03T10:37:55.962Z</time></trkpt><trkpt lat="44.8156881" lon="9.0847325"><ele>688.0</ele><time>2026-05-03T10:37:56.964Z</time></trkpt><trkpt lat="44.815675" lon="9.0846422"><ele>687.8333333333334</ele><time>2026-05-03T10:37:57.96Z</time></trkpt><trkpt lat="44.8156523" lon="9.0845519"><ele>687.6666666666667</ele><time>2026-05-03T10:37:58.968Z</time></trkpt><trkpt lat="44.8156159" lon="9.0844632"><ele>687.5</ele><time>2026-05-03T10:37:59.965Z</time></trkpt><trkpt lat="44.8155668" lon="9.0843872"><ele>687.3333333333334</ele><time>2026-05-03T10:38:00.965Z</time></trkpt><trkpt lat="44.8155157" lon="9.084284"><ele>687.1666666666666</ele><time>2026-05-03T10:38:01.962Z</time></trkpt><trkpt lat="44.8154705" lon="9.0841808"><ele>687.0</ele><time>2026-05-03T10:38:02.961Z</time></trkpt><trkpt lat="44.8153967" lon="9.0840879"><ele>685.4000000000001</ele><time>2026-05-03T10:38:03.959Z</time></trkpt><trkpt lat="44.8153188" lon="9.0839768"><ele>683.8000000000001</ele><time>2026-05-03T10:38:04.963Z</time></trkpt><trkpt lat="44.8152494" lon="9.0838652"><ele>682.2</ele><time>2026-05-03T10:38:05.971Z</time></trkpt><trkpt lat="44.8151947" lon="9.0837414"><ele>680.6</ele><time>2026-05-03T10:38:06.969Z</time></trkpt><trkpt lat="44.81515" lon="9.0836301"><ele>679.0</ele><time>2026-05-03T10:38:07.964Z</time></trkpt><trkpt lat="44.8150822" lon="9.0835142"><ele>679.8333333333334</ele><time>2026-05-03T10:38:09.96Z</time></trkpt><trkpt lat="44.8150513" lon="9.0834329"><ele>680.6666666666667</ele><time>2026-05-03T10:38:10.964Z</time></trkpt><trkpt lat="44.8150042" lon="9.0833389"><ele>681.5</ele><time>2026-05-03T10:38:11.971Z</time></trkpt><trkpt lat="44.8149524" lon="9.0832536"><ele>682.3333333333334</ele><time>2026-05-03T10:38:12.97Z</time></trkpt><trkpt lat="44.814902" lon="9.0831526"><ele>683.1666666666666</ele><time>2026-05-03T10:38:13.96Z</time></trkpt><trkpt lat="44.8148559" lon="9.083071"><ele>684.0</ele><time>2026-05-03T10:38:14.959Z</time></trkpt><trkpt lat="44.8148072" lon="9.0829827"><ele>684.0</ele><time>2026-05-03T10:38:15.961Z</time></trkpt><trkpt lat="44.8147518" lon="9.0828937"><ele>684.0</ele><time>2026-05-03T10:38:16.961Z</time></trkpt><trkpt lat="44.8146942" lon="9.0828299"><ele>684.0</ele><time>2026-05-03T10:38:17.963Z</time></trkpt><trkpt lat="44.8146355" lon="9.0827521"><ele>684.0</ele><time>2026-05-03T10:38:18.961Z</time></trkpt><trkpt lat="44.8145727" lon="9.0826582"><ele>684.0</ele><time>2026-05-03T10:38:19.968Z</time></trkpt><trkpt lat="44.8145107" lon="9.0825632"><ele>684.0</ele><time>2026-05-03T10:38:20.966Z</time></trkpt><trkpt lat="44.8144411" lon="9.0824928"><ele>684.8571428571428</ele><time>2026-05-03T10:38:21.962Z</time></trkpt><trkpt lat="44.8143836" lon="9.0824237"><ele>685.7142857142857</ele><time>2026-05-03T10:38:22.958Z</time></trkpt><trkpt lat="44.814316" lon="9.0823637"><ele>686.5714285714286</ele><time>2026-05-03T10:38:23.961Z</time></trkpt><trkpt lat="44.8142645" lon="9.0823065"><ele>687.4285714285713</ele><time>2026-05-03T10:38:24.962Z</time></trkpt><trkpt lat="44.8142081" lon="9.0822354"><ele>688.2857142857142</ele><time>2026-05-03T10:38:25.959Z</time></trkpt><trkpt lat="44.8141686" lon="9.0821535"><ele>689.1428571428571</ele><time>2026-05-03T10:38:26.963Z</time></trkpt><trkpt lat="44.8141292" lon="9.0820588"><ele>690.0</ele><time>2026-05-03T10:38:27.96Z</time></trkpt><trkpt lat="44.8141285" lon="9.081959"><ele>687.1666666666666</ele><time>2026-05-03T10:38:28.964Z</time></trkpt><trkpt lat="44.8141077" lon="9.0818695"><ele>684.3333333333334</ele><time>2026-05-03T10:38:29.962Z</time></trkpt><trkpt lat="44.8140808" lon="9.0817678"><ele>681.5</ele><time>2026-05-03T10:38:30.964Z</time></trkpt><trkpt lat="44.8140502" lon="9.0816594"><ele>678.6666666666667</ele><time>2026-05-03T10:38:31.961Z</time></trkpt><trkpt lat="44.8140132" lon="9.0815531"><ele>675.8333333333334</ele><time>2026-05-03T10:38:32.962Z</time></trkpt><trkpt lat="44.8139639" lon="9.0814051"><ele>673.0</ele><time>2026-05-03T10:38:33.972Z</time></trkpt><trkpt lat="44.8139222" lon="9.0812607"><ele>673.0</ele><time>2026-05-03T10:38:34.959Z</time></trkpt><trkpt lat="44.8138822" lon="9.0811146"><ele>673.0</ele><time>2026-05-03T10:38:35.976Z</time></trkpt><trkpt lat="44.8138613" lon="9.0809578"><ele>673.0</ele><time>2026-05-03T10:38:36.963Z</time></trkpt><trkpt lat="44.8138395" lon="9.0807974"><ele>673.0</ele><time>2026-05-03T10:38:37.965Z</time></trkpt><trkpt lat="44.8138175" lon="9.080628"><ele>673.5999999999999</ele><time>2026-05-03T10:38:38.964Z</time></trkpt><trkpt lat="44.8137917" lon="9.080478"><ele>674.1999999999999</ele><time>2026-05-03T10:38:39.965Z</time></trkpt><trkpt lat="44.8137486" lon="9.0803654"><ele>674.8</ele><time>2026-05-03T10:38:40.961Z</time></trkpt><trkpt lat="44.8136918" lon="9.0802467"><ele>675.4</ele><time>2026-05-03T10:38:41.961Z</time></trkpt><trkpt lat="44.8136218" lon="9.08014"><ele>676.0</ele><time>2026-05-03T10:38:42.965Z</time></trkpt><trkpt lat="44.8135509" lon="9.0800254"><ele>675.0</ele><time>2026-05-03T10:38:43.962Z</time></trkpt><trkpt lat="44.8134984" lon="9.0799107"><ele>674.0</ele><time>2026-05-03T10:38:44.961Z</time></trkpt><trkpt lat="44.8134674" lon="9.0798006"><ele>673.0</ele><time>2026-05-03T10:38:45.962Z</time></trkpt><trkpt lat="44.8134409" lon="9.0797045"><ele>672.0</ele><time>2026-05-03T10:38:46.964Z</time></trkpt><trkpt lat="44.8134089" lon="9.0796228"><ele>671.0</ele><time>2026-05-03T10:38:47.96Z</time></trkpt><trkpt lat="44.8134284" lon="9.0795159"><ele>670.0</ele><time>2026-05-03T10:38:49.963Z</time></trkpt><trkpt lat="44.8134798" lon="9.0794229"><ele>670.0</ele><time>2026-05-03T10:38:51.962Z</time></trkpt><trkpt lat="44.8135317" lon="9.0793226"><ele>670.0</ele><time>2026-05-03T10:38:53.964Z</time></trkpt><trkpt lat="44.8135813" lon="9.0792409"><ele>670.0</ele><time>2026-05-03T10:38:55.962Z</time></trkpt><trkpt lat="44.8136487" lon="9.0791546"><ele>670.0</ele><time>2026-05-03T10:38:58.962Z</time></trkpt><trkpt lat="44.8137002" lon="9.0790574"><ele>670.0</ele><time>2026-05-03T10:39:01.963Z</time></trkpt><trkpt lat="44.8137169" lon="9.0789465"><ele>670.0</ele><time>2026-05-03T10:39:38.969Z</time></trkpt><trkpt lat="44.813749" lon="9.0787831"><ele>668.6</ele><time>2026-05-03T10:39:40.966Z</time></trkpt><trkpt lat="44.8137923" lon="9.0786693"><ele>667.2</ele><time>2026-05-03T10:39:41.971Z</time></trkpt><trkpt lat="44.8138312" lon="9.0785442"><ele>665.8</ele><time>2026-05-03T10:39:42.959Z</time></trkpt><trkpt lat="44.8138675" lon="9.0784043"><ele>664.4</ele><time>2026-05-03T10:39:43.96Z</time></trkpt><trkpt lat="44.8139066" lon="9.0782561"><ele>663.0</ele><time>2026-05-03T10:39:44.962Z</time></trkpt><trkpt lat="44.8139521" lon="9.0781012"><ele>661.4</ele><time>2026-05-03T10:39:45.965Z</time></trkpt><trkpt lat="44.8139967" lon="9.0779404"><ele>659.8</ele><time>2026-05-03T10:39:46.961Z</time></trkpt><trkpt lat="44.8140404" lon="9.0777845"><ele>658.2</ele><time>2026-05-03T10:39:47.957Z</time></trkpt><trkpt lat="44.8140781" lon="9.0776411"><ele>656.6</ele><time>2026-05-03T10:39:48.962Z</time></trkpt><trkpt lat="44.8141166" lon="9.0775123"><ele>655.0</ele><time>2026-05-03T10:39:49.962Z</time></trkpt><trkpt lat="44.814154" lon="9.0773965"><ele>653.4</ele><time>2026-05-03T10:39:50.971Z</time></trkpt><trkpt lat="44.8142113" lon="9.0772982"><ele>651.8</ele><time>2026-05-03T10:39:51.961Z</time></trkpt><trkpt lat="44.8142752" lon="9.0771974"><ele>650.2</ele><time>2026-05-03T10:39:52.958Z</time></trkpt><trkpt lat="44.8143303" lon="9.0770961"><ele>648.6</ele><time>2026-05-03T10:39:53.963Z</time></trkpt><trkpt lat="44.8143859" lon="9.0770264"><ele>647.0</ele><time>2026-05-03T10:39:54.959Z</time></trkpt><trkpt lat="44.8144969" lon="9.0770338"><ele>650.5</ele><time>2026-05-03T10:39:56.961Z</time></trkpt><trkpt lat="44.8145468" lon="9.0770912"><ele>654.0</ele><time>2026-05-03T10:39:57.967Z</time></trkpt><trkpt lat="44.8145964" lon="9.0771616"><ele>657.5</ele><time>2026-05-03T10:39:58.961Z</time></trkpt><trkpt lat="44.8146488" lon="9.0772142"><ele>661.0</ele><time>2026-05-03T10:39:59.965Z</time></trkpt><trkpt lat="44.8147449" lon="9.0772117"><ele>664.5</ele><time>2026-05-03T10:40:01.962Z</time></trkpt><trkpt lat="44.8148001" lon="9.0771529"><ele>668.0</ele><time>2026-05-03T10:40:02.965Z</time></trkpt><trkpt lat="44.8148663" lon="9.0770713"><ele>668.0</ele><time>2026-05-03T10:40:03.962Z</time></trkpt><trkpt lat="44.8149401" lon="9.0769777"><ele>668.0</ele><time>2026-05-03T10:40:04.963Z</time></trkpt><trkpt lat="44.8150421" lon="9.0768649"><ele>668.0</ele><time>2026-05-03T10:40:05.969Z</time></trkpt><trkpt lat="44.8151324" lon="9.0767445"><ele>668.0</ele><time>2026-05-03T10:40:06.959Z</time></trkpt><trkpt lat="44.8152191" lon="9.0766243"><ele>670.0</ele><time>2026-05-03T10:40:07.963Z</time></trkpt><trkpt lat="44.8152965" lon="9.0765266"><ele>672.0</ele><time>2026-05-03T10:40:08.965Z</time></trkpt><trkpt lat="44.8153817" lon="9.0764534"><ele>674.0</ele><time>2026-05-03T10:40:09.963Z</time></trkpt><trkpt lat="44.8154694" lon="9.0763922"><ele>676.0</ele><time>2026-05-03T10:40:10.969Z</time></trkpt><trkpt lat="44.8155488" lon="9.0763329"><ele>678.0</ele><time>2026-05-03T10:40:11.962Z</time></trkpt><trkpt lat="44.8156472" lon="9.076261"><ele>678.0</ele><time>2026-05-03T10:40:13.976Z</time></trkpt><trkpt lat="44.8157016" lon="9.0762162"><ele>678.0</ele><time>2026-05-03T10:40:20.963Z</time></trkpt><trkpt lat="44.8157713" lon="9.0761246"><ele>678.0</ele><time>2026-05-03T10:40:22.966Z</time></trkpt><trkpt lat="44.8158205" lon="9.0760439"><ele>678.0</ele><time>2026-05-03T10:40:23.97Z</time></trkpt><trkpt lat="44.8158736" lon="9.0759531"><ele>678.0</ele><time>2026-05-03T10:40:24.968Z</time></trkpt><trkpt lat="44.8159349" lon="9.0758411"><ele>678.0</ele><time>2026-05-03T10:40:25.965Z</time></trkpt><trkpt lat="44.8160085" lon="9.0757462"><ele>678.5</ele><time>2026-05-03T10:40:26.962Z</time></trkpt><trkpt lat="44.8160734" lon="9.0756665"><ele>679.0</ele><time>2026-05-03T10:40:27.961Z</time></trkpt><trkpt lat="44.8161345" lon="9.0755937"><ele>679.5</ele><time>2026-05-03T10:40:28.967Z</time></trkpt><trkpt lat="44.8161978" lon="9.0755325"><ele>680.0</ele><time>2026-05-03T10:40:29.97Z</time></trkpt><trkpt lat="44.8162631" lon="9.075483"><ele>680.5</ele><time>2026-05-03T10:40:30.967Z</time></trkpt><trkpt lat="44.8163708" lon="9.0755198"><ele>681.0</ele><time>2026-05-03T10:40:32.966Z</time></trkpt><trkpt lat="44.8164353" lon="9.0755896"><ele>681.0</ele><time>2026-05-03T10:40:33.984Z</time></trkpt><trkpt lat="44.8164846" lon="9.0756564"><ele>681.0</ele><time>2026-05-03T10:40:34.968Z</time></trkpt><trkpt lat="44.8165328" lon="9.0757284"><ele>681.0</ele><time>2026-05-03T10:40:35.963Z</time></trkpt><trkpt lat="44.8166186" lon="9.0757676"><ele>681.0</ele><time>2026-05-03T10:40:37.971Z</time></trkpt><trkpt lat="44.8167517" lon="9.0757364"><ele>681.0</ele><time>2026-05-03T10:40:39.961Z</time></trkpt><trkpt lat="44.8168553" lon="9.0757239"><ele>680.0</ele><time>2026-05-03T10:40:40.968Z</time></trkpt><trkpt lat="44.8169558" lon="9.0757148"><ele>679.0</ele><time>2026-05-03T10:40:41.968Z</time></trkpt><trkpt lat="44.8170585" lon="9.0756995"><ele>678.0</ele><time>2026-05-03T10:40:42.964Z</time></trkpt><trkpt lat="44.8171725" lon="9.0756721"><ele>677.0</ele><time>2026-05-03T10:40:43.96Z</time></trkpt><trkpt lat="44.8172937" lon="9.0756374"><ele>676.0</ele><time>2026-05-03T10:40:44.96Z</time></trkpt><trkpt lat="44.8174146" lon="9.0755986"><ele>676.0</ele><time>2026-05-03T10:40:45.964Z</time></trkpt><trkpt lat="44.8175218" lon="9.0755566"><ele>676.0</ele><time>2026-05-03T10:40:46.97Z</time></trkpt><trkpt lat="44.8175967" lon="9.0755142"><ele>676.0</ele><time>2026-05-03T10:40:47.963Z</time></trkpt><trkpt lat="44.8176401" lon="9.0754435"><ele>676.0</ele><time>2026-05-03T10:40:48.962Z</time></trkpt><trkpt lat="44.8176714" lon="9.0753607"><ele>676.0</ele><time>2026-05-03T10:40:49.967Z</time></trkpt><trkpt lat="44.8177023" lon="9.0752655"><ele>676.0</ele><time>2026-05-03T10:40:50.97Z</time></trkpt><trkpt lat="44.8177486" lon="9.0751435"><ele>676.0</ele><time>2026-05-03T10:40:52.963Z</time></trkpt><trkpt lat="44.8177441" lon="9.075032"><ele>676.0</ele><time>2026-05-03T10:40:55.966Z</time></trkpt><trkpt lat="44.8177613" lon="9.0749248"><ele>676.0</ele><time>2026-05-03T10:40:59.96Z</time></trkpt><trkpt lat="44.817794" lon="9.0748024"><ele>676.0</ele><time>2026-05-03T10:41:02.964Z</time></trkpt><trkpt lat="44.8178164" lon="9.0747074"><ele>676.0</ele><time>2026-05-03T10:41:04.967Z</time></trkpt><trkpt lat="44.8178927" lon="9.074641"><ele>676.0</ele><time>2026-05-03T10:41:07.959Z</time></trkpt><trkpt lat="44.8179629" lon="9.0746698"><ele>676.0</ele><time>2026-05-03T10:41:08.968Z</time></trkpt><trkpt lat="44.818033" lon="9.0746883"><ele>676.0</ele><time>2026-05-03T10:41:09.967Z</time></trkpt><trkpt lat="44.8180993" lon="9.0747132"><ele>676.0</ele><time>2026-05-03T10:41:10.963Z</time></trkpt><trkpt lat="44.818168" lon="9.074735"><ele>676.0</ele><time>2026-05-03T10:41:11.963Z</time></trkpt><trkpt lat="44.8182701" lon="9.0747197"><ele>676.0</ele><time>2026-05-03T10:41:13.965Z</time></trkpt><trkpt lat="44.8183687" lon="9.074657"><ele>676.0</ele><time>2026-05-03T10:41:15.961Z</time></trkpt><trkpt lat="44.8184812" lon="9.0745938"><ele>676.75</ele><time>2026-05-03T10:41:17.96Z</time></trkpt><trkpt lat="44.8185726" lon="9.0745236"><ele>677.5</ele><time>2026-05-03T10:41:18.97Z</time></trkpt><trkpt lat="44.818687" lon="9.0744534"><ele>678.25</ele><time>2026-05-03T10:41:19.963Z</time></trkpt><trkpt lat="44.818811" lon="9.0744045"><ele>679.0</ele><time>2026-05-03T10:41:20.962Z</time></trkpt><trkpt lat="44.8189287" lon="9.0743574"><ele>679.0</ele><time>2026-05-03T10:41:21.968Z</time></trkpt><trkpt lat="44.8190381" lon="9.074345"><ele>679.0</ele><time>2026-05-03T10:41:22.97Z</time></trkpt><trkpt lat="44.8191489" lon="9.0743414"><ele>679.0</ele><time>2026-05-03T10:41:23.972Z</time></trkpt><trkpt lat="44.8192642" lon="9.0743743"><ele>679.0</ele><time>2026-05-03T10:41:24.966Z</time></trkpt><trkpt lat="44.8193702" lon="9.0744277"><ele>679.4000000000001</ele><time>2026-05-03T10:41:25.974Z</time></trkpt><trkpt lat="44.8194704" lon="9.0744991"><ele>679.8</ele><time>2026-05-03T10:41:26.97Z</time></trkpt><trkpt lat="44.8195667" lon="9.0745575"><ele>680.2</ele><time>2026-05-03T10:41:27.964Z</time></trkpt><trkpt lat="44.81965" lon="9.0745962"><ele>680.5999999999999</ele><time>2026-05-03T10:41:28.976Z</time></trkpt><trkpt lat="44.8197205" lon="9.074603"><ele>681.0</ele><time>2026-05-03T10:41:29.971Z</time></trkpt><trkpt lat="44.8197931" lon="9.0746319"><ele>681.0</ele><time>2026-05-03T10:41:30.965Z</time></trkpt><trkpt lat="44.8198718" lon="9.0746538"><ele>681.0</ele><time>2026-05-03T10:41:31.968Z</time></trkpt><trkpt lat="44.8199452" lon="9.0746427"><ele>681.0</ele><time>2026-05-03T10:41:32.963Z</time></trkpt><trkpt lat="44.8200321" lon="9.0745914"><ele>681.0</ele><time>2026-05-03T10:41:33.961Z</time></trkpt><trkpt lat="44.8201268" lon="9.0745231"><ele>681.0</ele><time>2026-05-03T10:41:34.989Z</time></trkpt><trkpt lat="44.8202214" lon="9.0744727"><ele>679.8333333333334</ele><time>2026-05-03T10:41:35.967Z</time></trkpt><trkpt lat="44.8203118" lon="9.074477"><ele>678.6666666666666</ele><time>2026-05-03T10:41:36.963Z</time></trkpt><trkpt lat="44.8204152" lon="9.0745233"><ele>677.5</ele><time>2026-05-03T10:41:37.959Z</time></trkpt><trkpt lat="44.8204808" lon="9.074535"><ele>676.3333333333333</ele><time>2026-05-03T10:41:38.962Z</time></trkpt><trkpt lat="44.8205521" lon="9.0745269"><ele>675.1666666666666</ele><time>2026-05-03T10:41:39.961Z</time></trkpt><trkpt lat="44.8206498" lon="9.0745328"><ele>674.0</ele><time>2026-05-03T10:41:40.963Z</time></trkpt><trkpt lat="44.8207326" lon="9.0745522"><ele>674.0</ele><time>2026-05-03T10:41:41.96Z</time></trkpt><trkpt lat="44.8208046" lon="9.0745607"><ele>674.0</ele><time>2026-05-03T10:41:42.964Z</time></trkpt><trkpt lat="44.8208753" lon="9.0745941"><ele>674.0</ele><time>2026-05-03T10:41:43.962Z</time></trkpt><trkpt lat="44.8209493" lon="9.0746439"><ele>674.0</ele><time>2026-05-03T10:41:44.962Z</time></trkpt><trkpt lat="44.8210231" lon="9.07477"><ele>674.0</ele><time>2026-05-03T10:41:45.965Z</time></trkpt><trkpt lat="44.8211326" lon="9.0749657"><ele>671.0</ele><time>2026-05-03T10:41:46.964Z</time></trkpt><trkpt lat="44.8212398" lon="9.0751369"><ele>668.0</ele><time>2026-05-03T10:41:47.963Z</time></trkpt><trkpt lat="44.8213432" lon="9.0753155"><ele>665.0</ele><time>2026-05-03T10:41:48.964Z</time></trkpt><trkpt lat="44.8214366" lon="9.0754603"><ele>665.0</ele><time>2026-05-03T10:41:49.965Z</time></trkpt><trkpt lat="44.821518" lon="9.0755728"><ele>665.0</ele><time>2026-05-03T10:41:50.96Z</time></trkpt><trkpt lat="44.8215961" lon="9.0756757"><ele>665.0</ele><time>2026-05-03T10:41:51.965Z</time></trkpt><trkpt lat="44.8216679" lon="9.0757499"><ele>665.0</ele><time>2026-05-03T10:41:52.967Z</time></trkpt><trkpt lat="44.821755" lon="9.0757724"><ele>665.0</ele><time>2026-05-03T10:41:53.963Z</time></trkpt><trkpt lat="44.8218397" lon="9.0757129"><ele>663.1666666666666</ele><time>2026-05-03T10:41:55.966Z</time></trkpt><trkpt lat="44.8219179" lon="9.075614"><ele>661.3333333333333</ele><time>2026-05-03T10:41:57.968Z</time></trkpt><trkpt lat="44.8219748" lon="9.0755174"><ele>659.5</ele><time>2026-05-03T10:41:58.966Z</time></trkpt><trkpt lat="44.8220503" lon="9.0754218"><ele>657.6666666666666</ele><time>2026-05-03T10:41:59.961Z</time></trkpt><trkpt lat="44.8221042" lon="9.0753518"><ele>655.8333333333334</ele><time>2026-05-03T10:42:00.967Z</time></trkpt><trkpt lat="44.8221636" lon="9.0753011"><ele>654.0</ele><time>2026-05-03T10:42:03.964Z</time></trkpt><trkpt lat="44.8222416" lon="9.0753015"><ele>654.0</ele><time>2026-05-03T10:42:07.966Z</time></trkpt><trkpt lat="44.8223141" lon="9.0752828"><ele>654.0</ele><time>2026-05-03T10:42:10.961Z</time></trkpt><trkpt lat="44.8223768" lon="9.0752485"><ele>654.0</ele><time>2026-05-03T10:42:13.964Z</time></trkpt><trkpt lat="44.8224483" lon="9.0752044"><ele>654.0</ele><time>2026-05-03T10:42:16.963Z</time></trkpt><trkpt lat="44.8225129" lon="9.0751705"><ele>654.0</ele><time>2026-05-03T10:42:19.958Z</time></trkpt><trkpt lat="44.8225757" lon="9.0751154"><ele>654.0</ele><time>2026-05-03T10:42:22.97Z</time></trkpt><trkpt lat="44.8226517" lon="9.0752311"><ele>653.8333333333334</ele><time>2026-05-03T10:42:46.962Z</time></trkpt><trkpt lat="44.8226962" lon="9.0753142"><ele>653.6666666666666</ele><time>2026-05-03T10:42:47.963Z</time></trkpt><trkpt lat="44.8227355" lon="9.0753902"><ele>653.5</ele><time>2026-05-03T10:42:48.968Z</time></trkpt><trkpt lat="44.8227588" lon="9.0754835"><ele>653.3333333333333</ele><time>2026-05-03T10:42:49.969Z</time></trkpt><trkpt lat="44.822734" lon="9.0756702"><ele>653.1666666666666</ele><time>2026-05-03T10:42:51.967Z</time></trkpt><trkpt lat="44.8227124" lon="9.0758034"><ele>653.0</ele><time>2026-05-03T10:42:52.965Z</time></trkpt><trkpt lat="44.8227072" lon="9.0759291"><ele>653.0</ele><time>2026-05-03T10:42:53.959Z</time></trkpt><trkpt lat="44.8227027" lon="9.0760468"><ele>653.0</ele><time>2026-05-03T10:42:54.959Z</time></trkpt><trkpt lat="44.8226717" lon="9.0761625"><ele>653.0</ele><time>2026-05-03T10:42:55.963Z</time></trkpt><trkpt lat="44.8226475" lon="9.0762875"><ele>653.0</ele><time>2026-05-03T10:42:56.962Z</time></trkpt><trkpt lat="44.8226369" lon="9.0764247"><ele>653.0</ele><time>2026-05-03T10:42:57.961Z</time></trkpt><trkpt lat="44.8226301" lon="9.0765804"><ele>652.75</ele><time>2026-05-03T10:42:58.958Z</time></trkpt><trkpt lat="44.8226529" lon="9.076794"><ele>652.5</ele><time>2026-05-03T10:42:59.964Z</time></trkpt><trkpt lat="44.8227039" lon="9.0769537"><ele>652.25</ele><time>2026-05-03T10:43:00.962Z</time></trkpt><trkpt lat="44.8227356" lon="9.0770956"><ele>652.0</ele><time>2026-05-03T10:43:01.961Z</time></trkpt><trkpt lat="44.8227852" lon="9.0772471"><ele>652.0</ele><time>2026-05-03T10:43:02.961Z</time></trkpt><trkpt lat="44.8228307" lon="9.0773123"><ele>652.0</ele><time>2026-05-03T10:43:03.973Z</time></trkpt><trkpt lat="44.8228554" lon="9.0772239"><ele>652.0</ele><time>2026-05-03T10:43:05.962Z</time></trkpt><trkpt lat="44.8229764" lon="9.0772108"><ele>652.0</ele><time>2026-05-03T10:43:08.962Z</time></trkpt><trkpt lat="44.8230937" lon="9.0772674"><ele>652.0</ele><time>2026-05-03T10:43:10.962Z</time></trkpt><trkpt lat="44.8232034" lon="9.07727"><ele>652.0</ele><time>2026-05-03T10:43:13.962Z</time></trkpt><trkpt lat="44.8232716" lon="9.0772569"><ele>652.0</ele><time>2026-05-03T10:43:14.958Z</time></trkpt><trkpt lat="44.8233582" lon="9.0772874"><ele>652.0</ele><time>2026-05-03T10:43:15.963Z</time></trkpt><trkpt lat="44.8234359" lon="9.0773116"><ele>652.0</ele><time>2026-05-03T10:43:16.961Z</time></trkpt><trkpt lat="44.8235166" lon="9.0773507"><ele>652.0</ele><time>2026-05-03T10:43:17.962Z</time></trkpt><trkpt lat="44.8236002" lon="9.0773463"><ele>652.0</ele><time>2026-05-03T10:43:18.965Z</time></trkpt><trkpt lat="44.8236654" lon="9.0773567"><ele>653.4000000000001</ele><time>2026-05-03T10:43:19.96Z</time></trkpt><trkpt lat="44.8237727" lon="9.0774657"><ele>654.8000000000001</ele><time>2026-05-03T10:43:21.963Z</time></trkpt><trkpt lat="44.8238267" lon="9.0775455"><ele>656.2</ele><time>2026-05-03T10:43:22.963Z</time></trkpt><trkpt lat="44.8238923" lon="9.0776852"><ele>657.6</ele><time>2026-05-03T10:43:24.965Z</time></trkpt><trkpt lat="44.8239245" lon="9.0777893"><ele>659.0</ele><time>2026-05-03T10:43:25.963Z</time></trkpt><trkpt lat="44.8239745" lon="9.077859"><ele>659.0</ele><time>2026-05-03T10:43:26.965Z</time></trkpt><trkpt lat="44.8241049" lon="9.0778306"><ele>659.0</ele><time>2026-05-03T10:43:28.962Z</time></trkpt><trkpt lat="44.8241676" lon="9.0777741"><ele>659.0</ele><time>2026-05-03T10:43:29.958Z</time></trkpt><trkpt lat="44.8242212" lon="9.0777241"><ele>659.0</ele><time>2026-05-03T10:43:30.964Z</time></trkpt><trkpt lat="44.8243059" lon="9.0776189"><ele>659.0</ele><time>2026-05-03T10:43:32.961Z</time></trkpt><trkpt lat="44.8243675" lon="9.0775143"><ele>658.0</ele><time>2026-05-03T10:43:33.966Z</time></trkpt><trkpt lat="44.8244394" lon="9.077389"><ele>657.0</ele><time>2026-05-03T10:43:34.958Z</time></trkpt><trkpt lat="44.8244923" lon="9.0772614"><ele>656.0</ele><time>2026-05-03T10:43:35.959Z</time></trkpt><trkpt lat="44.8245102" lon="9.0771056"><ele>655.0</ele><time>2026-05-03T10:43:36.966Z</time></trkpt><trkpt lat="44.8245402" lon="9.0769431"><ele>655.0</ele><time>2026-05-03T10:43:37.964Z</time></trkpt><trkpt lat="44.8245563" lon="9.0767813"><ele>655.0</ele><time>2026-05-03T10:43:38.962Z</time></trkpt><trkpt lat="44.8245784" lon="9.0766578"><ele>655.0</ele><time>2026-05-03T10:43:39.962Z</time></trkpt><trkpt lat="44.824614" lon="9.0765487"><ele>655.0</ele><time>2026-05-03T10:43:40.963Z</time></trkpt><trkpt lat="44.8246625" lon="9.0764668"><ele>655.0</ele><time>2026-05-03T10:43:41.966Z</time></trkpt><trkpt lat="44.824731" lon="9.0763805"><ele>655.4</ele><time>2026-05-03T10:43:42.961Z</time></trkpt><trkpt lat="44.8248071" lon="9.0763076"><ele>655.8</ele><time>2026-05-03T10:43:43.962Z</time></trkpt><trkpt lat="44.8248896" lon="9.076254"><ele>656.2</ele><time>2026-05-03T10:43:44.965Z</time></trkpt><trkpt lat="44.8250071" lon="9.0762151"><ele>656.6</ele><time>2026-05-03T10:43:46.96Z</time></trkpt><trkpt lat="44.8250909" lon="9.0761815"><ele>657.0</ele><time>2026-05-03T10:43:47.964Z</time></trkpt><trkpt lat="44.8251525" lon="9.0761285"><ele>655.4000000000001</ele><time>2026-05-03T10:43:49.958Z</time></trkpt><trkpt lat="44.8252207" lon="9.0760306"><ele>653.8000000000001</ele><time>2026-05-03T10:43:51.965Z</time></trkpt><trkpt lat="44.8252621" lon="9.0759163"><ele>652.2</ele><time>2026-05-03T10:43:53.959Z</time></trkpt><trkpt lat="44.825357" lon="9.0758321"><ele>650.6</ele><time>2026-05-03T10:43:55.961Z</time></trkpt><trkpt lat="44.8254298" lon="9.0757885"><ele>649.0</ele><time>2026-05-03T10:43:56.963Z</time></trkpt><trkpt lat="44.8255071" lon="9.0757304"><ele>649.0</ele><time>2026-05-03T10:43:58.961Z</time></trkpt><trkpt lat="44.8254369" lon="9.0757999"><ele>649.0</ele><time>2026-05-03T10:44:11.967Z</time></trkpt><trkpt lat="44.8253819" lon="9.0758595"><ele>649.0</ele><time>2026-05-03T10:44:13.971Z</time></trkpt><trkpt lat="44.8253125" lon="9.0759229"><ele>649.0</ele><time>2026-05-03T10:44:16.964Z</time></trkpt><trkpt lat="44.8252233" lon="9.0760635"><ele>649.0</ele><time>2026-05-03T10:44:18.973Z</time></trkpt><trkpt lat="44.8251718" lon="9.0761326"><ele>649.0</ele><time>2026-05-03T10:44:19.976Z</time></trkpt><trkpt lat="44.8250953" lon="9.0761782"><ele>651.0</ele><time>2026-05-03T10:44:20.968Z</time></trkpt><trkpt lat="44.8249959" lon="9.0762465"><ele>653.0</ele><time>2026-05-03T10:44:21.969Z</time></trkpt><trkpt lat="44.8248884" lon="9.0763321"><ele>655.0</ele><time>2026-05-03T10:44:22.97Z</time></trkpt><trkpt lat="44.8247747" lon="9.0764313"><ele>657.0</ele><time>2026-05-03T10:44:23.977Z</time></trkpt><trkpt lat="44.8246591" lon="9.0765223"><ele>657.0</ele><time>2026-05-03T10:44:24.965Z</time></trkpt><trkpt lat="44.8245756" lon="9.0765803"><ele>657.0</ele><time>2026-05-03T10:44:25.97Z</time></trkpt><trkpt lat="44.824507" lon="9.0766381"><ele>657.0</ele><time>2026-05-03T10:44:26.977Z</time></trkpt><trkpt lat="44.82446" lon="9.0767491"><ele>657.0</ele><time>2026-05-03T10:44:27.962Z</time></trkpt><trkpt lat="44.8244506" lon="9.0768879"><ele>657.0</ele><time>2026-05-03T10:44:28.972Z</time></trkpt><trkpt lat="44.8244503" lon="9.0770335"><ele>656.6666666666666</ele><time>2026-05-03T10:44:29.963Z</time></trkpt><trkpt lat="44.8244466" lon="9.077189"><ele>656.3333333333334</ele><time>2026-05-03T10:44:30.968Z</time></trkpt><trkpt lat="44.8244376" lon="9.0773285"><ele>656.0</ele><time>2026-05-03T10:44:31.973Z</time></trkpt><trkpt lat="44.8244095" lon="9.0774405"><ele>655.6666666666667</ele><time>2026-05-03T10:44:32.963Z</time></trkpt><trkpt lat="44.8243672" lon="9.0775321"><ele>655.3333333333334</ele><time>2026-05-03T10:44:33.965Z</time></trkpt><trkpt lat="44.8243093" lon="9.0776047"><ele>655.0</ele><time>2026-05-03T10:44:34.962Z</time></trkpt><trkpt lat="44.8242527" lon="9.0776773"><ele>655.6666666666667</ele><time>2026-05-03T10:44:35.963Z</time></trkpt><trkpt lat="44.8241924" lon="9.077756"><ele>656.3333333333334</ele><time>2026-05-03T10:44:36.964Z</time></trkpt><trkpt lat="44.8241314" lon="9.0778358"><ele>657.0</ele><time>2026-05-03T10:44:37.969Z</time></trkpt><trkpt lat="44.8240728" lon="9.0779189"><ele>657.6666666666666</ele><time>2026-05-03T10:44:38.968Z</time></trkpt><trkpt lat="44.824017" lon="9.0780017"><ele>658.3333333333333</ele><time>2026-05-03T10:44:39.963Z</time></trkpt><trkpt lat="44.8239682" lon="9.078082"><ele>659.0</ele><time>2026-05-03T10:44:40.963Z</time></trkpt><trkpt lat="44.8239289" lon="9.0781923"><ele>657.6666666666666</ele><time>2026-05-03T10:44:41.964Z</time></trkpt><trkpt lat="44.8239188" lon="9.0783229"><ele>656.3333333333333</ele><time>2026-05-03T10:44:42.963Z</time></trkpt><trkpt lat="44.8239107" lon="9.0784474"><ele>655.0</ele><time>2026-05-03T10:44:43.958Z</time></trkpt><trkpt lat="44.823916" lon="9.0785534"><ele>653.6666666666666</ele><time>2026-05-03T10:44:44.96Z</time></trkpt><trkpt lat="44.8239064" lon="9.0786675"><ele>652.3333333333334</ele><time>2026-05-03T10:44:45.966Z</time></trkpt><trkpt lat="44.8238832" lon="9.0787899"><ele>651.0</ele><time>2026-05-03T10:44:46.964Z</time></trkpt><trkpt lat="44.8238598" lon="9.0788776"><ele>651.0</ele><time>2026-05-03T10:44:47.957Z</time></trkpt><trkpt lat="44.8238001" lon="9.0790519"><ele>651.0</ele><time>2026-05-03T10:44:49.959Z</time></trkpt><trkpt lat="44.8237708" lon="9.0791408"><ele>651.0</ele><time>2026-05-03T10:44:50.971Z</time></trkpt><trkpt lat="44.8237402" lon="9.0792266"><ele>651.0</ele><time>2026-05-03T10:44:51.965Z</time></trkpt><trkpt lat="44.8237267" lon="9.0793172"><ele>651.0</ele><time>2026-05-03T10:44:52.966Z</time></trkpt><trkpt lat="44.82368" lon="9.0794813"><ele>649.5999999999999</ele><time>2026-05-03T10:44:54.967Z</time></trkpt><trkpt lat="44.8236119" lon="9.0795829"><ele>648.2</ele><time>2026-05-03T10:44:55.96Z</time></trkpt><trkpt lat="44.8235408" lon="9.0796867"><ele>646.8</ele><time>2026-05-03T10:44:56.967Z</time></trkpt><trkpt lat="44.823457" lon="9.0797678"><ele>645.4000000000001</ele><time>2026-05-03T10:44:57.965Z</time></trkpt><trkpt lat="44.8233646" lon="9.0798306"><ele>644.0</ele><time>2026-05-03T10:44:58.968Z</time></trkpt><trkpt lat="44.8232742" lon="9.0798777"><ele>644.0</ele><time>2026-05-03T10:44:59.951Z</time></trkpt><trkpt lat="44.8232042" lon="9.0799199"><ele>644.0</ele><time>2026-05-03T10:45:00.952Z</time></trkpt><trkpt lat="44.8231457" lon="9.0799813"><ele>644.0</ele><time>2026-05-03T10:45:01.946Z</time></trkpt><trkpt lat="44.8230841" lon="9.0801033"><ele>644.0</ele><time>2026-05-03T10:45:03.945Z</time></trkpt><trkpt lat="44.8230231" lon="9.0802451"><ele>644.0</ele><time>2026-05-03T10:45:05.944Z</time></trkpt><trkpt lat="44.8229855" lon="9.0803391"><ele>644.0</ele><time>2026-05-03T10:45:06.94Z</time></trkpt><trkpt lat="44.8229564" lon="9.0804395"><ele>643.8333333333333</ele><time>2026-05-03T10:45:07.937Z</time></trkpt><trkpt lat="44.8229444" lon="9.0805404"><ele>643.6666666666666</ele><time>2026-05-03T10:45:08.943Z</time></trkpt><trkpt lat="44.822961" lon="9.0806416"><ele>643.5</ele><time>2026-05-03T10:45:09.946Z</time></trkpt><trkpt lat="44.8230023" lon="9.0807567"><ele>643.3333333333334</ele><time>2026-05-03T10:45:10.939Z</time></trkpt><trkpt lat="44.823045" lon="9.0808506"><ele>643.1666666666667</ele><time>2026-05-03T10:45:11.947Z</time></trkpt><trkpt lat="44.8230869" lon="9.0809837"><ele>643.0</ele><time>2026-05-03T10:45:13.94Z</time></trkpt><trkpt lat="44.8230296" lon="9.0810823"><ele>641.6</ele><time>2026-05-03T10:45:16.946Z</time></trkpt><trkpt lat="44.8229488" lon="9.0810903"><ele>640.1999999999999</ele><time>2026-05-03T10:45:18.947Z</time></trkpt><trkpt lat="44.8228648" lon="9.0811373"><ele>638.8</ele><time>2026-05-03T10:45:20.946Z</time></trkpt><trkpt lat="44.8227956" lon="9.0812392"><ele>637.4</ele><time>2026-05-03T10:45:22.943Z</time></trkpt><trkpt lat="44.8227075" lon="9.0813643"><ele>636.0</ele><time>2026-05-03T10:45:24.949Z</time></trkpt><trkpt lat="44.8226568" lon="9.0814313"><ele>634.6666666666666</ele><time>2026-05-03T10:45:25.939Z</time></trkpt><trkpt lat="44.8226024" lon="9.0815056"><ele>633.3333333333334</ele><time>2026-05-03T10:45:26.946Z</time></trkpt><trkpt lat="44.8225186" lon="9.0816173"><ele>632.0</ele><time>2026-05-03T10:45:28.949Z</time></trkpt><trkpt lat="44.8224365" lon="9.0817036"><ele>630.6666666666667</ele><time>2026-05-03T10:45:30.94Z</time></trkpt><trkpt lat="44.8223724" lon="9.0817405"><ele>629.3333333333334</ele><time>2026-05-03T10:45:32.946Z</time></trkpt><trkpt lat="44.8223093" lon="9.0817819"><ele>628.0</ele><time>2026-05-03T10:45:34.954Z</time></trkpt><trkpt lat="44.8222658" lon="9.0818781"><ele>627.1999999999999</ele><time>2026-05-03T10:45:36.948Z</time></trkpt><trkpt lat="44.8222619" lon="9.0820206"><ele>626.4</ele><time>2026-05-03T10:45:38.94Z</time></trkpt><trkpt lat="44.8222766" lon="9.0821156"><ele>625.5999999999999</ele><time>2026-05-03T10:45:39.941Z</time></trkpt><trkpt lat="44.8223115" lon="9.0822721"><ele>624.8</ele><time>2026-05-03T10:45:41.942Z</time></trkpt><trkpt lat="44.8223611" lon="9.0823944"><ele>624.0</ele><time>2026-05-03T10:45:43.944Z</time></trkpt><trkpt lat="44.8224499" lon="9.0824687"><ele>622.0</ele><time>2026-05-03T10:45:45.939Z</time></trkpt><trkpt lat="44.8225137" lon="9.0825423"><ele>620.0</ele><time>2026-05-03T10:45:47.953Z</time></trkpt><trkpt lat="44.822558" lon="9.0826464"><ele>618.0</ele><time>2026-05-03T10:45:49.942Z</time></trkpt><trkpt lat="44.8225894" lon="9.0827918"><ele>616.0</ele><time>2026-05-03T10:45:51.943Z</time></trkpt><trkpt lat="44.8226439" lon="9.0829054"><ele>614.0</ele><time>2026-05-03T10:45:53.941Z</time></trkpt><trkpt lat="44.8226981" lon="9.0830477"><ele>613.5</ele><time>2026-05-03T10:45:55.951Z</time></trkpt><trkpt lat="44.8227194" lon="9.0831712"><ele>613.0</ele><time>2026-05-03T10:45:57.947Z</time></trkpt><trkpt lat="44.8227547" lon="9.0832963"><ele>612.5</ele><time>2026-05-03T10:45:59.951Z</time></trkpt><trkpt lat="44.822818" lon="9.0833368"><ele>612.0</ele><time>2026-05-03T10:46:02.94Z</time></trkpt><trkpt lat="44.8228835" lon="9.0833578"><ele>611.5</ele><time>2026-05-03T10:46:12.944Z</time></trkpt><trkpt lat="44.8229471" lon="9.0832283"><ele>611.0</ele><time>2026-05-03T10:46:14.941Z</time></trkpt><trkpt lat="44.8229723" lon="9.0831366"><ele>611.0</ele><time>2026-05-03T10:46:15.941Z</time></trkpt><trkpt lat="44.8230689" lon="9.083015"><ele>611.0</ele><time>2026-05-03T10:46:16.943Z</time></trkpt><trkpt lat="44.8231429" lon="9.0829033"><ele>611.0</ele><time>2026-05-03T10:46:17.939Z</time></trkpt><trkpt lat="44.8232482" lon="9.0828195"><ele>611.0</ele><time>2026-05-03T10:46:19.943Z</time></trkpt><trkpt lat="44.823337" lon="9.0827902"><ele>611.0</ele><time>2026-05-03T10:46:20.946Z</time></trkpt><trkpt lat="44.8234508" lon="9.0827503"><ele>611.0</ele><time>2026-05-03T10:46:21.941Z</time></trkpt><trkpt lat="44.8235752" lon="9.0827461"><ele>611.0</ele><time>2026-05-03T10:46:22.948Z</time></trkpt><trkpt lat="44.8236763" lon="9.0827306"><ele>611.0</ele><time>2026-05-03T10:46:23.944Z</time></trkpt><trkpt lat="44.8237671" lon="9.0827061"><ele>611.0</ele><time>2026-05-03T10:46:24.944Z</time></trkpt><trkpt lat="44.8238249" lon="9.0826359"><ele>610.0</ele><time>2026-05-03T10:46:25.94Z</time></trkpt><trkpt lat="44.8238576" lon="9.0825427"><ele>609.0</ele><time>2026-05-03T10:46:26.941Z</time></trkpt><trkpt lat="44.8238805" lon="9.0823923"><ele>608.0</ele><time>2026-05-03T10:46:27.944Z</time></trkpt><trkpt lat="44.8239074" lon="9.0822157"><ele>607.0</ele><time>2026-05-03T10:46:28.949Z</time></trkpt><trkpt lat="44.8239307" lon="9.0820678"><ele>606.0</ele><time>2026-05-03T10:46:29.94Z</time></trkpt><trkpt lat="44.823972" lon="9.0819666"><ele>606.0</ele><time>2026-05-03T10:46:30.946Z</time></trkpt><trkpt lat="44.8240848" lon="9.0819248"><ele>606.0</ele><time>2026-05-03T10:46:32.945Z</time></trkpt><trkpt lat="44.8241941" lon="9.0819384"><ele>606.0</ele><time>2026-05-03T10:46:33.942Z</time></trkpt><trkpt lat="44.8242841" lon="9.0819021"><ele>606.0</ele><time>2026-05-03T10:46:34.946Z</time></trkpt><trkpt lat="44.8243642" lon="9.0818337"><ele>606.0</ele><time>2026-05-03T10:46:35.947Z</time></trkpt><trkpt lat="44.8244402" lon="9.0817442"><ele>605.8333333333334</ele><time>2026-05-03T10:46:36.943Z</time></trkpt><trkpt lat="44.8245028" lon="9.0816467"><ele>605.6666666666666</ele><time>2026-05-03T10:46:38.945Z</time></trkpt><trkpt lat="44.8245684" lon="9.0816314"><ele>605.5</ele><time>2026-05-03T10:46:39.939Z</time></trkpt><trkpt lat="44.8246388" lon="9.0815937"><ele>605.3333333333333</ele><time>2026-05-03T10:46:40.946Z</time></trkpt><trkpt lat="44.8247106" lon="9.0815355"><ele>605.1666666666666</ele><time>2026-05-03T10:46:41.944Z</time></trkpt><trkpt lat="44.8247812" lon="9.0814435"><ele>605.0</ele><time>2026-05-03T10:46:42.943Z</time></trkpt><trkpt lat="44.8248548" lon="9.0813454"><ele>605.0</ele><time>2026-05-03T10:46:43.942Z</time></trkpt><trkpt lat="44.8249381" lon="9.0812567"><ele>605.0</ele><time>2026-05-03T10:46:44.94Z</time></trkpt><trkpt lat="44.8250198" lon="9.0811688"><ele>605.0</ele><time>2026-05-03T10:46:45.942Z</time></trkpt><trkpt lat="44.8250991" lon="9.0810486"><ele>605.0</ele><time>2026-05-03T10:46:46.943Z</time></trkpt><trkpt lat="44.8251512" lon="9.0809212"><ele>605.0</ele><time>2026-05-03T10:46:47.993Z</time></trkpt><trkpt lat="44.8252026" lon="9.0807985"><ele>602.6</ele><time>2026-05-03T10:46:48.947Z</time></trkpt><trkpt lat="44.8252828" lon="9.0806812"><ele>600.2</ele><time>2026-05-03T10:46:49.941Z</time></trkpt><trkpt lat="44.8253438" lon="9.0805564"><ele>597.8</ele><time>2026-05-03T10:46:50.941Z</time></trkpt><trkpt lat="44.8254017" lon="9.0804253"><ele>595.4</ele><time>2026-05-03T10:46:51.942Z</time></trkpt><trkpt lat="44.8254459" lon="9.0803123"><ele>593.0</ele><time>2026-05-03T10:46:52.94Z</time></trkpt><trkpt lat="44.8255328" lon="9.0804054"><ele>593.0</ele><time>2026-05-03T10:46:57.955Z</time></trkpt><trkpt lat="44.8255771" lon="9.0804686"><ele>593.0</ele><time>2026-05-03T10:46:58.962Z</time></trkpt><trkpt lat="44.8256347" lon="9.0805291"><ele>593.0</ele><time>2026-05-03T10:46:59.946Z</time></trkpt><trkpt lat="44.8256997" lon="9.0805665"><ele>593.0</ele><time>2026-05-03T10:47:00.947Z</time></trkpt><trkpt lat="44.8258169" lon="9.0804863"><ele>593.0</ele><time>2026-05-03T10:47:02.951Z</time></trkpt><trkpt lat="44.8258797" lon="9.0803903"><ele>593.0</ele><time>2026-05-03T10:47:03.948Z</time></trkpt><trkpt lat="44.8259541" lon="9.0802934"><ele>592.8</ele><time>2026-05-03T10:47:04.94Z</time></trkpt><trkpt lat="44.8260298" lon="9.0801995"><ele>592.5999999999999</ele><time>2026-05-03T10:47:05.94Z</time></trkpt><trkpt lat="44.8261096" lon="9.0801067"><ele>592.4000000000001</ele><time>2026-05-03T10:47:06.942Z</time></trkpt><trkpt lat="44.826174" lon="9.0799784"><ele>592.2</ele><time>2026-05-03T10:47:07.952Z</time></trkpt><trkpt lat="44.8262302" lon="9.0798417"><ele>592.0</ele><time>2026-05-03T10:47:08.948Z</time></trkpt><trkpt lat="44.8262471" lon="9.0797385"><ele>592.0</ele><time>2026-05-03T10:47:09.945Z</time></trkpt><trkpt lat="44.8263226" lon="9.0795917"><ele>592.0</ele><time>2026-05-03T10:47:11.945Z</time></trkpt><trkpt lat="44.8264166" lon="9.0795311"><ele>592.0</ele><time>2026-05-03T10:47:12.944Z</time></trkpt><trkpt lat="44.8265131" lon="9.0794663"><ele>592.0</ele><time>2026-05-03T10:47:13.941Z</time></trkpt><trkpt lat="44.8266112" lon="9.0793804"><ele>592.0</ele><time>2026-05-03T10:47:14.941Z</time></trkpt><trkpt lat="44.8267072" lon="9.0792665"><ele>592.0</ele><time>2026-05-03T10:47:15.939Z</time></trkpt><trkpt lat="44.8268103" lon="9.0791235"><ele>592.0</ele><time>2026-05-03T10:47:16.949Z</time></trkpt><trkpt lat="44.8269339" lon="9.0789592"><ele>592.0</ele><time>2026-05-03T10:47:17.943Z</time></trkpt><trkpt lat="44.8270514" lon="9.0787835"><ele>591.5</ele><time>2026-05-03T10:47:18.945Z</time></trkpt><trkpt lat="44.8271481" lon="9.0786304"><ele>591.0</ele><time>2026-05-03T10:47:19.946Z</time></trkpt><trkpt lat="44.8272197" lon="9.0784903"><ele>590.5</ele><time>2026-05-03T10:47:20.942Z</time></trkpt><trkpt lat="44.8272862" lon="9.0783513"><ele>590.0</ele><time>2026-05-03T10:47:21.944Z</time></trkpt><trkpt lat="44.8273635" lon="9.0782171"><ele>590.8</ele><time>2026-05-03T10:47:22.945Z</time></trkpt><trkpt lat="44.8274282" lon="9.0780965"><ele>591.6</ele><time>2026-05-03T10:47:23.941Z</time></trkpt><trkpt lat="44.8274845" lon="9.0779969"><ele>592.4</ele><time>2026-05-03T10:47:24.947Z</time></trkpt><trkpt lat="44.8275406" lon="9.0779174"><ele>593.2</ele><time>2026-05-03T10:47:25.947Z</time></trkpt><trkpt lat="44.827589" lon="9.0778466"><ele>594.0</ele><time>2026-05-03T10:47:26.947Z</time></trkpt><trkpt lat="44.8276569" lon="9.0777288"><ele>591.8571428571429</ele><time>2026-05-03T10:47:28.938Z</time></trkpt><trkpt lat="44.8277029" lon="9.0776356"><ele>589.7142857142858</ele><time>2026-05-03T10:47:31.939Z</time></trkpt><trkpt lat="44.8277488" lon="9.0775487"><ele>587.5714285714286</ele><time>2026-05-03T10:47:34.945Z</time></trkpt><trkpt lat="44.8278038" lon="9.0775021"><ele>585.4285714285714</ele><time>2026-05-03T10:47:37.943Z</time></trkpt><trkpt lat="44.8278783" lon="9.0775267"><ele>583.2857142857142</ele><time>2026-05-03T10:47:40.946Z</time></trkpt><trkpt lat="44.8279433" lon="9.0775876"><ele>581.1428571428571</ele><time>2026-05-03T10:47:43.941Z</time></trkpt><trkpt lat="44.8280138" lon="9.0776047"><ele>579.0</ele><time>2026-05-03T10:47:47.942Z</time></trkpt><trkpt lat="44.8280736" lon="9.0775645"><ele>579.0</ele><time>2026-05-03T10:47:53.943Z</time></trkpt><trkpt lat="44.828132" lon="9.0775073"><ele>579.0</ele><time>2026-05-03T10:47:58.947Z</time></trkpt><trkpt lat="44.8281889" lon="9.0774473"><ele>579.0</ele><time>2026-05-03T10:48:02.946Z</time></trkpt><trkpt lat="44.8282386" lon="9.0773908"><ele>579.0</ele><time>2026-05-03T10:48:06.942Z</time></trkpt><trkpt lat="44.828293" lon="9.0773176"><ele>579.0</ele><time>2026-05-03T10:48:10.938Z</time></trkpt><trkpt lat="44.828344" lon="9.0772416"><ele>579.0</ele><time>2026-05-03T10:48:14.941Z</time></trkpt><trkpt lat="44.8284125" lon="9.0771441"><ele>568.75</ele><time>2026-05-03T10:48:17.945Z</time></trkpt><trkpt lat="44.8285196" lon="9.0771931"><ele>558.5</ele><time>2026-05-03T10:48:18.945Z</time></trkpt><trkpt lat="44.8286245" lon="9.0772656"><ele>548.25</ele><time>2026-05-03T10:48:19.945Z</time></trkpt><trkpt lat="44.8287275" lon="9.0773415"><ele>538.0</ele><time>2026-05-03T10:48:20.944Z</time></trkpt><trkpt lat="44.8288254" lon="9.0774218"><ele>540.4</ele><time>2026-05-03T10:48:21.939Z</time></trkpt><trkpt lat="44.8289231" lon="9.0775113"><ele>542.8</ele><time>2026-05-03T10:48:22.941Z</time></trkpt><trkpt lat="44.8290047" lon="9.0776031"><ele>545.2</ele><time>2026-05-03T10:48:23.939Z</time></trkpt><trkpt lat="44.829062" lon="9.0777009"><ele>547.6</ele><time>2026-05-03T10:48:24.943Z</time></trkpt><trkpt lat="44.8291129" lon="9.0778007"><ele>550.0</ele><time>2026-05-03T10:48:25.938Z</time></trkpt><trkpt lat="44.8291591" lon="9.0778999"><ele>550.0</ele><time>2026-05-03T10:48:26.946Z</time></trkpt><trkpt lat="44.8292086" lon="9.077975"><ele>550.0</ele><time>2026-05-03T10:48:27.94Z</time></trkpt><trkpt lat="44.8292803" lon="9.0779473"><ele>550.0</ele><time>2026-05-03T10:48:28.949Z</time></trkpt><trkpt lat="44.8293241" lon="9.0777915"><ele>550.0</ele><time>2026-05-03T10:48:30.95Z</time></trkpt><trkpt lat="44.8292993" lon="9.077676"><ele>550.0</ele><time>2026-05-03T10:48:31.94Z</time></trkpt><trkpt lat="44.8292774" lon="9.0775417"><ele>550.0</ele><time>2026-05-03T10:48:32.941Z</time></trkpt><trkpt lat="44.8292573" lon="9.077395"><ele>547.6</ele><time>2026-05-03T10:48:33.942Z</time></trkpt><trkpt lat="44.8292309" lon="9.0772471"><ele>545.2</ele><time>2026-05-03T10:48:34.94Z</time></trkpt><trkpt lat="44.8292174" lon="9.0771041"><ele>542.8</ele><time>2026-05-03T10:48:35.943Z</time></trkpt><trkpt lat="44.8292063" lon="9.076966"><ele>540.4</ele><time>2026-05-03T10:48:36.95Z</time></trkpt><trkpt lat="44.8291754" lon="9.0768358"><ele>538.0</ele><time>2026-05-03T10:48:37.94Z</time></trkpt><trkpt lat="44.829145" lon="9.0767019"><ele>535.4</ele><time>2026-05-03T10:48:38.942Z</time></trkpt><trkpt lat="44.8291119" lon="9.0765684"><ele>532.8</ele><time>2026-05-03T10:48:39.939Z</time></trkpt><trkpt lat="44.8290771" lon="9.0764308"><ele>530.2</ele><time>2026-05-03T10:48:40.94Z</time></trkpt><trkpt lat="44.8290305" lon="9.0762902"><ele>527.6</ele><time>2026-05-03T10:48:41.943Z</time></trkpt><trkpt lat="44.8289791" lon="9.0761553"><ele>525.0</ele><time>2026-05-03T10:48:42.939Z</time></trkpt><trkpt lat="44.8289166" lon="9.0760202"><ele>525.0</ele><time>2026-05-03T10:48:43.941Z</time></trkpt><trkpt lat="44.8288458" lon="9.0758898"><ele>525.0</ele><time>2026-05-03T10:48:44.941Z</time></trkpt><trkpt lat="44.8288118" lon="9.0757464"><ele>525.0</ele><time>2026-05-03T10:48:45.946Z</time></trkpt><trkpt lat="44.8287981" lon="9.0756178"><ele>525.0</ele><time>2026-05-03T10:48:46.943Z</time></trkpt><trkpt lat="44.8287912" lon="9.0754739"><ele>525.0</ele><time>2026-05-03T10:48:47.942Z</time></trkpt><trkpt lat="44.8287873" lon="9.0753071"><ele>523.4</ele><time>2026-05-03T10:48:48.941Z</time></trkpt><trkpt lat="44.8288074" lon="9.0751393"><ele>521.8</ele><time>2026-05-03T10:48:49.943Z</time></trkpt><trkpt lat="44.8288144" lon="9.074987"><ele>520.2</ele><time>2026-05-03T10:48:50.943Z</time></trkpt><trkpt lat="44.8288317" lon="9.0748466"><ele>518.6</ele><time>2026-05-03T10:48:51.936Z</time></trkpt><trkpt lat="44.8288634" lon="9.0747224"><ele>517.0</ele><time>2026-05-03T10:48:52.94Z</time></trkpt><trkpt lat="44.8289156" lon="9.0746292"><ele>516.8000000000001</ele><time>2026-05-03T10:48:53.949Z</time></trkpt><trkpt lat="44.8289779" lon="9.0745372"><ele>516.6</ele><time>2026-05-03T10:48:54.941Z</time></trkpt><trkpt lat="44.8290205" lon="9.0744276"><ele>516.4000000000001</ele><time>2026-05-03T10:48:55.945Z</time></trkpt><trkpt lat="44.8290505" lon="9.0742969"><ele>516.2</ele><time>2026-05-03T10:48:56.938Z</time></trkpt><trkpt lat="44.829076" lon="9.0741417"><ele>516.0</ele><time>2026-05-03T10:48:57.937Z</time></trkpt><trkpt lat="44.8291018" lon="9.0739783"><ele>516.0</ele><time>2026-05-03T10:48:58.942Z</time></trkpt><trkpt lat="44.8291114" lon="9.0738182"><ele>516.0</ele><time>2026-05-03T10:48:59.941Z</time></trkpt><trkpt lat="44.8291229" lon="9.0736689"><ele>516.0</ele><time>2026-05-03T10:49:00.943Z</time></trkpt><trkpt lat="44.8291329" lon="9.073527"><ele>516.0</ele><time>2026-05-03T10:49:01.94Z</time></trkpt><trkpt lat="44.8291364" lon="9.0733967"><ele>516.0</ele><time>2026-05-03T10:49:02.94Z</time></trkpt><trkpt lat="44.8291368" lon="9.0732754"><ele>515.6666666666666</ele><time>2026-05-03T10:49:03.942Z</time></trkpt><trkpt lat="44.8291308" lon="9.073165"><ele>515.3333333333334</ele><time>2026-05-03T10:49:04.942Z</time></trkpt><trkpt lat="44.8291218" lon="9.0730616"><ele>515.0</ele><time>2026-05-03T10:49:05.939Z</time></trkpt><trkpt lat="44.8291099" lon="9.072974"><ele>514.6666666666667</ele><time>2026-05-03T10:49:06.942Z</time></trkpt><trkpt lat="44.8291056" lon="9.072845"><ele>514.3333333333334</ele><time>2026-05-03T10:49:08.943Z</time></trkpt><trkpt lat="44.8291642" lon="9.0728086"><ele>514.0</ele><time>2026-05-03T10:49:11.943Z</time></trkpt><trkpt lat="44.8292117" lon="9.0729257"><ele>514.0</ele><time>2026-05-03T10:49:14.941Z</time></trkpt><trkpt lat="44.8292109" lon="9.0730327"><ele>514.0</ele><time>2026-05-03T10:49:16.947Z</time></trkpt><trkpt lat="44.8292568" lon="9.0731452"><ele>514.0</ele><time>2026-05-03T10:49:19.94Z</time></trkpt><trkpt lat="44.829366" lon="9.0730972"><ele>514.0</ele><time>2026-05-03T10:49:21.942Z</time></trkpt><trkpt lat="44.8294267" lon="9.0730409"><ele>514.0</ele><time>2026-05-03T10:49:22.942Z</time></trkpt><trkpt lat="44.8294953" lon="9.0729692"><ele>514.0</ele><time>2026-05-03T10:49:23.944Z</time></trkpt><trkpt lat="44.8295637" lon="9.0728865"><ele>510.0</ele><time>2026-05-03T10:49:24.942Z</time></trkpt><trkpt lat="44.8296319" lon="9.0727928"><ele>506.0</ele><time>2026-05-03T10:49:25.942Z</time></trkpt><trkpt lat="44.8296891" lon="9.0726887"><ele>502.0</ele><time>2026-05-03T10:49:26.938Z</time></trkpt><trkpt lat="44.8297355" lon="9.0725708"><ele>498.0</ele><time>2026-05-03T10:49:27.941Z</time></trkpt><trkpt lat="44.8297627" lon="9.0724403"><ele>494.0</ele><time>2026-05-03T10:49:28.943Z</time></trkpt><trkpt lat="44.8297859" lon="9.0722995"><ele>494.0</ele><time>2026-05-03T10:49:29.938Z</time></trkpt><trkpt lat="44.8298098" lon="9.0721504"><ele>494.0</ele><time>2026-05-03T10:49:30.941Z</time></trkpt><trkpt lat="44.8298321" lon="9.0720082"><ele>494.0</ele><time>2026-05-03T10:49:31.939Z</time></trkpt><trkpt lat="44.8298523" lon="9.0718657"><ele>494.0</ele><time>2026-05-03T10:49:32.945Z</time></trkpt><trkpt lat="44.8298617" lon="9.0717282"><ele>494.0</ele><time>2026-05-03T10:49:33.94Z</time></trkpt><trkpt lat="44.8298609" lon="9.0716009"><ele>492.6</ele><time>2026-05-03T10:49:34.939Z</time></trkpt><trkpt lat="44.8298483" lon="9.0714134"><ele>491.2</ele><time>2026-05-03T10:49:36.948Z</time></trkpt><trkpt lat="44.8298425" lon="9.0712967"><ele>489.80000000000007</ele><time>2026-05-03T10:49:38.946Z</time></trkpt><trkpt lat="44.8298378" lon="9.0711868"><ele>488.40000000000003</ele><time>2026-05-03T10:49:40.944Z</time></trkpt><trkpt lat="44.829853" lon="9.071062"><ele>487.0</ele><time>2026-05-03T10:49:42.943Z</time></trkpt><trkpt lat="44.8299216" lon="9.0709593"><ele>487.0</ele><time>2026-05-03T10:49:44.945Z</time></trkpt><trkpt lat="44.8299978" lon="9.0709237"><ele>487.00000000000006</ele><time>2026-05-03T10:49:46.945Z</time></trkpt><trkpt lat="44.8300875" lon="9.0709276"><ele>487.00000000000006</ele><time>2026-05-03T10:49:48.951Z</time></trkpt><trkpt lat="44.8301856" lon="9.0709605"><ele>487.0</ele><time>2026-05-03T10:49:50.939Z</time></trkpt><trkpt lat="44.8303054" lon="9.0710186"><ele>487.0</ele><time>2026-05-03T10:49:52.939Z</time></trkpt><trkpt lat="44.8303691" lon="9.0710452"><ele>484.6666666666667</ele><time>2026-05-03T10:49:53.938Z</time></trkpt><trkpt lat="44.8304344" lon="9.0710601"><ele>482.33333333333337</ele><time>2026-05-03T10:49:54.938Z</time></trkpt><trkpt lat="44.8305482" lon="9.0710344"><ele>480.0</ele><time>2026-05-03T10:49:56.945Z</time></trkpt><trkpt lat="44.8306062" lon="9.0709717"><ele>477.66666666666663</ele><time>2026-05-03T10:49:58.947Z</time></trkpt><trkpt lat="44.8305881" lon="9.0708776"><ele>475.3333333333333</ele><time>2026-05-03T10:50:00.939Z</time></trkpt><trkpt lat="44.8304904" lon="9.0707985"><ele>473.0</ele><time>2026-05-03T10:50:02.938Z</time></trkpt><trkpt lat="44.8304344" lon="9.0706409"><ele>471.0</ele><time>2026-05-03T10:50:04.94Z</time></trkpt><trkpt lat="44.8304358" lon="9.070525"><ele>468.99999999999994</ele><time>2026-05-03T10:50:05.94Z</time></trkpt><trkpt lat="44.8304587" lon="9.0703882"><ele>466.99999999999994</ele><time>2026-05-03T10:50:06.941Z</time></trkpt><trkpt lat="44.8304923" lon="9.0702299"><ele>465.0</ele><time>2026-05-03T10:50:07.939Z</time></trkpt><trkpt lat="44.8305261" lon="9.0700675"><ele>463.0</ele><time>2026-05-03T10:50:08.939Z</time></trkpt><trkpt lat="44.8305607" lon="9.0698985"><ele>461.0</ele><time>2026-05-03T10:50:09.942Z</time></trkpt><trkpt lat="44.8305913" lon="9.0697337"><ele>459.0</ele><time>2026-05-03T10:50:10.943Z</time></trkpt><trkpt lat="44.8306178" lon="9.0695666"><ele>457.0</ele><time>2026-05-03T10:50:11.946Z</time></trkpt><trkpt lat="44.8306436" lon="9.0693968"><ele>455.0</ele><time>2026-05-03T10:50:12.942Z</time></trkpt><trkpt lat="44.8306647" lon="9.0692256"><ele>453.5</ele><time>2026-05-03T10:50:13.941Z</time></trkpt><trkpt lat="44.8306828" lon="9.0690484"><ele>452.0</ele><time>2026-05-03T10:50:14.938Z</time></trkpt><trkpt lat="44.8307014" lon="9.0688653"><ele>450.5</ele><time>2026-05-03T10:50:15.939Z</time></trkpt><trkpt lat="44.8307207" lon="9.0686799"><ele>449.0</ele><time>2026-05-03T10:50:16.939Z</time></trkpt><trkpt lat="44.8307388" lon="9.0685022"><ele>449.0</ele><time>2026-05-03T10:50:17.937Z</time></trkpt><trkpt lat="44.8307517" lon="9.0683337"><ele>449.0</ele><time>2026-05-03T10:50:18.939Z</time></trkpt><trkpt lat="44.8307606" lon="9.068169"><ele>449.0</ele><time>2026-05-03T10:50:19.94Z</time></trkpt><trkpt lat="44.8307596" lon="9.0680027"><ele>449.0</ele><time>2026-05-03T10:50:20.938Z</time></trkpt><trkpt lat="44.8307564" lon="9.0678292"><ele>447.5</ele><time>2026-05-03T10:50:21.937Z</time></trkpt><trkpt lat="44.8307557" lon="9.0676545"><ele>446.0</ele><time>2026-05-03T10:50:22.943Z</time></trkpt><trkpt lat="44.8307646" lon="9.0674844"><ele>444.5</ele><time>2026-05-03T10:50:23.944Z</time></trkpt><trkpt lat="44.8307756" lon="9.0673199"><ele>443.0</ele><time>2026-05-03T10:50:24.947Z</time></trkpt><trkpt lat="44.8307734" lon="9.0671529"><ele>441.75</ele><time>2026-05-03T10:50:25.937Z</time></trkpt><trkpt lat="44.8307552" lon="9.0669867"><ele>440.5</ele><time>2026-05-03T10:50:26.939Z</time></trkpt><trkpt lat="44.8307283" lon="9.0668182"><ele>439.25</ele><time>2026-05-03T10:50:27.939Z</time></trkpt><trkpt lat="44.8307012" lon="9.0666615"><ele>438.0</ele><time>2026-05-03T10:50:28.938Z</time></trkpt><trkpt lat="44.8306761" lon="9.0665061"><ele>436.25</ele><time>2026-05-03T10:50:29.943Z</time></trkpt><trkpt lat="44.8306627" lon="9.0663484"><ele>434.5</ele><time>2026-05-03T10:50:30.943Z</time></trkpt><trkpt lat="44.8306569" lon="9.0661827"><ele>432.75</ele><time>2026-05-03T10:50:31.944Z</time></trkpt><trkpt lat="44.8306663" lon="9.0660141"><ele>431.0</ele><time>2026-05-03T10:50:32.942Z</time></trkpt><trkpt lat="44.8307138" lon="9.065684"><ele>426.0</ele><time>2026-05-03T10:50:34.938Z</time></trkpt><trkpt lat="44.8307679" lon="9.0653623"><ele>421.0</ele><time>2026-05-03T10:50:36.942Z</time></trkpt><trkpt lat="44.8308385" lon="9.0650494"><ele>417.6666666666667</ele><time>2026-05-03T10:50:38.945Z</time></trkpt><trkpt lat="44.8309134" lon="9.064745"><ele>414.33333333333337</ele><time>2026-05-03T10:50:40.94Z</time></trkpt><trkpt lat="44.8309882" lon="9.064478"><ele>411.0</ele><time>2026-05-03T10:50:42.939Z</time></trkpt><trkpt lat="44.8310549" lon="9.0642769"><ele>411.0</ele><time>2026-05-03T10:50:44.944Z</time></trkpt><trkpt lat="44.831164" lon="9.0641974"><ele>411.0</ele><time>2026-05-03T10:50:46.944Z</time></trkpt><trkpt lat="44.8313447" lon="9.0641851"><ele>411.0</ele><time>2026-05-03T10:50:48.942Z</time></trkpt><trkpt lat="44.8315584" lon="9.0642172"><ele>411.0</ele><time>2026-05-03T10:50:50.944Z</time></trkpt><trkpt lat="44.8317484" lon="9.06436"><ele>411.0</ele><time>2026-05-03T10:50:52.94Z</time></trkpt><trkpt lat="44.831913" lon="9.0645805"><ele>411.0</ele><time>2026-05-03T10:50:54.946Z</time></trkpt><trkpt lat="44.8320952" lon="9.0647747"><ele>410.66666666666663</ele><time>2026-05-03T10:50:56.944Z</time></trkpt><trkpt lat="44.8323046" lon="9.0648269"><ele>410.3333333333333</ele><time>2026-05-03T10:50:58.943Z</time></trkpt><trkpt lat="44.8324996" lon="9.06487"><ele>410.0</ele><time>2026-05-03T10:51:00.944Z</time></trkpt><trkpt lat="44.8326383" lon="9.0649808"><ele>407.5</ele><time>2026-05-03T10:51:02.941Z</time></trkpt><trkpt lat="44.8328186" lon="9.0651979"><ele>405.0</ele><time>2026-05-03T10:51:04.943Z</time></trkpt><trkpt lat="44.8329937" lon="9.0653844"><ele>405.0</ele><time>2026-05-03T10:51:06.942Z</time></trkpt><trkpt lat="44.8331834" lon="9.0655619"><ele>405.0</ele><time>2026-05-03T10:51:08.945Z</time></trkpt><trkpt lat="44.8334257" lon="9.0656739"><ele>409.0</ele><time>2026-05-03T10:51:10.941Z</time></trkpt><trkpt lat="44.8337082" lon="9.0658217"><ele>413.0</ele><time>2026-05-03T10:51:12.939Z</time></trkpt><trkpt lat="44.8339723" lon="9.0659595"><ele>413.0</ele><time>2026-05-03T10:51:14.946Z</time></trkpt><trkpt lat="44.834222" lon="9.0660845"><ele>413.0</ele><time>2026-05-03T10:51:16.942Z</time></trkpt><trkpt lat="44.8344258" lon="9.0662251"><ele>409.0</ele><time>2026-05-03T10:51:18.94Z</time></trkpt><trkpt lat="44.8346215" lon="9.066416"><ele>405.0</ele><time>2026-05-03T10:51:20.941Z</time></trkpt><trkpt lat="44.8348336" lon="9.0666092"><ele>406.66666666666663</ele><time>2026-05-03T10:51:22.946Z</time></trkpt><trkpt lat="44.835013" lon="9.0667682"><ele>408.3333333333333</ele><time>2026-05-03T10:51:24.939Z</time></trkpt><trkpt lat="44.835162" lon="9.0669282"><ele>410.0</ele><time>2026-05-03T10:51:26.938Z</time></trkpt><trkpt lat="44.8353242" lon="9.0670346"><ele>410.0</ele><time>2026-05-03T10:51:28.943Z</time></trkpt><trkpt lat="44.8355399" lon="9.0670527"><ele>410.0</ele><time>2026-05-03T10:51:30.946Z</time></trkpt><trkpt lat="44.8357685" lon="9.0670868"><ele>410.0</ele><time>2026-05-03T10:51:32.94Z</time></trkpt><trkpt lat="44.8359603" lon="9.0671237"><ele>410.5</ele><time>2026-05-03T10:51:34.941Z</time></trkpt><trkpt lat="44.8360854" lon="9.067164"><ele>411.0</ele><time>2026-05-03T10:51:36.941Z</time></trkpt><trkpt lat="44.8361904" lon="9.0671838"><ele>411.5</ele><time>2026-05-03T10:51:40.939Z</time></trkpt><trkpt lat="44.8363051" lon="9.0671636"><ele>412.0</ele><time>2026-05-03T10:51:44.942Z</time></trkpt><trkpt lat="44.836393" lon="9.0672354"><ele>412.0</ele><time>2026-05-03T10:51:48.941Z</time></trkpt><trkpt lat="44.8364496" lon="9.067289"><ele>412.0</ele><time>2026-05-03T10:51:52.943Z</time></trkpt><trkpt lat="44.8365088" lon="9.0673273"><ele>412.0</ele><time>2026-05-03T10:51:58.942Z</time></trkpt><trkpt lat="44.8365723" lon="9.0673387"><ele>412.0</ele><time>2026-05-03T10:53:20.941Z</time></trkpt><trkpt lat="44.8366951" lon="9.0673552"><ele>412.0</ele><time>2026-05-03T10:53:22.938Z</time></trkpt><trkpt lat="44.8368385" lon="9.067443"><ele>408.0</ele><time>2026-05-03T10:53:24.946Z</time></trkpt><trkpt lat="44.8369736" lon="9.0675762"><ele>404.0</ele><time>2026-05-03T10:53:26.939Z</time></trkpt><trkpt lat="44.8371057" lon="9.0677364"><ele>400.0</ele><time>2026-05-03T10:53:28.944Z</time></trkpt><trkpt lat="44.837236" lon="9.0679081"><ele>400.0</ele><time>2026-05-03T10:53:30.937Z</time></trkpt><trkpt lat="44.8373618" lon="9.0680948"><ele>400.0</ele><time>2026-05-03T10:53:32.941Z</time></trkpt><trkpt lat="44.8374833" lon="9.0682532"><ele>400.0</ele><time>2026-05-03T10:53:34.941Z</time></trkpt><trkpt lat="44.8376196" lon="9.0683472"><ele>393.33333333333337</ele><time>2026-05-03T10:53:36.941Z</time></trkpt><trkpt lat="44.8378008" lon="9.068366"><ele>386.6666666666667</ele><time>2026-05-03T10:53:38.942Z</time></trkpt><trkpt lat="44.8380019" lon="9.0684609"><ele>380.0</ele><time>2026-05-03T10:53:40.94Z</time></trkpt><trkpt lat="44.8381686" lon="9.0685618"><ele>380.0</ele><time>2026-05-03T10:53:42.947Z</time></trkpt><trkpt lat="44.838299" lon="9.0686616"><ele>380.0</ele><time>2026-05-03T10:53:44.943Z</time></trkpt><trkpt lat="44.8384508" lon="9.0687198"><ele>380.0</ele><time>2026-05-03T10:53:46.94Z</time></trkpt><trkpt lat="44.8386322" lon="9.0687228"><ele>378.0</ele><time>2026-05-03T10:53:48.943Z</time></trkpt><trkpt lat="44.8387558" lon="9.068774"><ele>376.0</ele><time>2026-05-03T10:53:50.941Z</time></trkpt><trkpt lat="44.8388487" lon="9.0689192"><ele>374.0</ele><time>2026-05-03T10:53:52.943Z</time></trkpt><trkpt lat="44.8389401" lon="9.0691093"><ele>372.0</ele><time>2026-05-03T10:53:54.939Z</time></trkpt><trkpt lat="44.8390303" lon="9.0692195"><ele>370.5</ele><time>2026-05-03T10:53:56.938Z</time></trkpt><trkpt lat="44.839149" lon="9.0692223"><ele>369.0</ele><time>2026-05-03T10:53:58.936Z</time></trkpt><trkpt lat="44.8393002" lon="9.069249"><ele>367.5</ele><time>2026-05-03T10:54:00.944Z</time></trkpt><trkpt lat="44.8394488" lon="9.0693853"><ele>366.0</ele><time>2026-05-03T10:54:02.94Z</time></trkpt><trkpt lat="44.8396031" lon="9.0695453"><ele>364.0</ele><time>2026-05-03T10:54:04.943Z</time></trkpt><trkpt lat="44.8396894" lon="9.0696872"><ele>362.0</ele><time>2026-05-03T10:54:06.939Z</time></trkpt><trkpt lat="44.8397657" lon="9.0698549"><ele>360.0</ele><time>2026-05-03T10:54:08.945Z</time></trkpt><trkpt lat="44.8398555" lon="9.0699648"><ele>358.0</ele><time>2026-05-03T10:54:10.943Z</time></trkpt><trkpt lat="44.8400171" lon="9.0700665"><ele>351.3333333333333</ele><time>2026-05-03T10:54:12.937Z</time></trkpt><trkpt lat="44.8402152" lon="9.0701061"><ele>344.6666666666667</ele><time>2026-05-03T10:54:14.943Z</time></trkpt><trkpt lat="44.8403597" lon="9.0701798"><ele>338.0</ele><time>2026-05-03T10:54:16.941Z</time></trkpt><trkpt lat="44.8404493" lon="9.0702411"><ele>338.0</ele><time>2026-05-03T10:54:18.943Z</time></trkpt><trkpt lat="44.8405763" lon="9.0703234"><ele>338.0</ele><time>2026-05-03T10:54:20.935Z</time></trkpt><trkpt lat="44.8407107" lon="9.0703875"><ele>338.0</ele><time>2026-05-03T10:54:22.94Z</time></trkpt><trkpt lat="44.8408873" lon="9.0703301"><ele>336.6666666666667</ele><time>2026-05-03T10:54:24.936Z</time></trkpt><trkpt lat="44.8410833" lon="9.0702494"><ele>335.3333333333333</ele><time>2026-05-03T10:54:26.944Z</time></trkpt><trkpt lat="44.8412331" lon="9.0702535"><ele>334.0</ele><time>2026-05-03T10:54:28.94Z</time></trkpt><trkpt lat="44.8413796" lon="9.0703734"><ele>334.0</ele><time>2026-05-03T10:54:30.948Z</time></trkpt><trkpt lat="44.8415743" lon="9.0705178"><ele>334.0</ele><time>2026-05-03T10:54:32.939Z</time></trkpt><trkpt lat="44.841812" lon="9.0704852"><ele>332.3333333333333</ele><time>2026-05-03T10:54:34.94Z</time></trkpt><trkpt lat="44.8420481" lon="9.0704028"><ele>330.6666666666667</ele><time>2026-05-03T10:54:36.937Z</time></trkpt><trkpt lat="44.8422354" lon="9.0704651"><ele>329.0</ele><time>2026-05-03T10:54:38.944Z</time></trkpt><trkpt lat="44.8424449" lon="9.0706244"><ele>327.0</ele><time>2026-05-03T10:54:40.938Z</time></trkpt><trkpt lat="44.8426845" lon="9.0707755"><ele>325.0</ele><time>2026-05-03T10:54:42.938Z</time></trkpt><trkpt lat="44.8428789" lon="9.0709416"><ele>325.0</ele><time>2026-05-03T10:54:44.941Z</time></trkpt><trkpt lat="44.8430273" lon="9.0710381"><ele>325.0</ele><time>2026-05-03T10:54:46.941Z</time></trkpt><trkpt lat="44.8432148" lon="9.071057"><ele>325.0</ele><time>2026-05-03T10:54:48.938Z</time></trkpt><trkpt lat="44.8434532" lon="9.0710257"><ele>322.0</ele><time>2026-05-03T10:54:50.942Z</time></trkpt><trkpt lat="44.8436865" lon="9.0709975"><ele>319.0</ele><time>2026-05-03T10:54:52.945Z</time></trkpt><trkpt lat="44.8438343" lon="9.0710036"><ele>316.0</ele><time>2026-05-03T10:54:54.94Z</time></trkpt><trkpt lat="44.8438986" lon="9.0709992"><ele>313.0</ele><time>2026-05-03T10:54:56.944Z</time></trkpt><trkpt lat="44.8439737" lon="9.0709574"><ele>313.0</ele><time>2026-05-03T10:55:00.942Z</time></trkpt><trkpt lat="44.8439705" lon="9.0708409"><ele>313.0</ele><time>2026-05-03T10:55:45.938Z</time></trkpt><trkpt lat="44.8439992" lon="9.0705852"><ele>313.0</ele><time>2026-05-03T10:55:49.939Z</time></trkpt><trkpt lat="44.8440075" lon="9.0704784"><ele>313.0</ele><time>2026-05-03T10:55:50.946Z</time></trkpt><trkpt lat="44.8440061" lon="9.0703701"><ele>313.0</ele><time>2026-05-03T10:55:51.94Z</time></trkpt><trkpt lat="44.844001" lon="9.0702423"><ele>312.6</ele><time>2026-05-03T10:55:52.947Z</time></trkpt><trkpt lat="44.8439911" lon="9.0700933"><ele>312.20000000000005</ele><time>2026-05-03T10:55:53.944Z</time></trkpt><trkpt lat="44.8439683" lon="9.0699412"><ele>311.8</ele><time>2026-05-03T10:55:54.936Z</time></trkpt><trkpt lat="44.8439345" lon="9.0698029"><ele>311.40000000000003</ele><time>2026-05-03T10:55:55.944Z</time></trkpt><trkpt lat="44.843893" lon="9.06967"><ele>311.0</ele><time>2026-05-03T10:55:56.938Z</time></trkpt><trkpt lat="44.8438571" lon="9.0695301"><ele>311.0</ele><time>2026-05-03T10:55:57.939Z</time></trkpt><trkpt lat="44.8438417" lon="9.0693798"><ele>311.0</ele><time>2026-05-03T10:55:58.948Z</time></trkpt><trkpt lat="44.8438444" lon="9.0692197"><ele>311.0</ele><time>2026-05-03T10:56:00.41Z</time></trkpt><trkpt lat="44.8438653" lon="9.0690587"><ele>311.0</ele><time>2026-05-03T10:56:01.402Z</time></trkpt><trkpt lat="44.8438944" lon="9.0688992"><ele>311.75</ele><time>2026-05-03T10:56:02.399Z</time></trkpt><trkpt lat="44.8439253" lon="9.0687362"><ele>312.5</ele><time>2026-05-03T10:56:03.409Z</time></trkpt><trkpt lat="44.8439552" lon="9.0685678"><ele>313.25</ele><time>2026-05-03T10:56:04.42Z</time></trkpt><trkpt lat="44.8439796" lon="9.0684026"><ele>314.0</ele><time>2026-05-03T10:56:05.408Z</time></trkpt><trkpt lat="44.843996" lon="9.068231"><ele>315.5</ele><time>2026-05-03T10:56:06.405Z</time></trkpt><trkpt lat="44.8440036" lon="9.0680577"><ele>317.0</ele><time>2026-05-03T10:56:07.403Z</time></trkpt><trkpt lat="44.844007" lon="9.0678803"><ele>318.5</ele><time>2026-05-03T10:56:08.405Z</time></trkpt><trkpt lat="44.8440086" lon="9.0677014"><ele>320.0</ele><time>2026-05-03T10:56:09.409Z</time></trkpt><trkpt lat="44.8440091" lon="9.0675202"><ele>321.5</ele><time>2026-05-03T10:56:10.398Z</time></trkpt><trkpt lat="44.8440137" lon="9.0673371"><ele>323.0</ele><time>2026-05-03T10:56:11.399Z</time></trkpt><trkpt lat="44.8440226" lon="9.0671524"><ele>324.5</ele><time>2026-05-03T10:56:12.413Z</time></trkpt><trkpt lat="44.8440292" lon="9.0669704"><ele>326.0</ele><time>2026-05-03T10:56:13.405Z</time></trkpt><trkpt lat="44.8440316" lon="9.0667902"><ele>326.0</ele><time>2026-05-03T10:56:14.402Z</time></trkpt><trkpt lat="44.8440322" lon="9.0666123"><ele>326.0</ele><time>2026-05-03T10:56:15.405Z</time></trkpt><trkpt lat="44.8440324" lon="9.0664394"><ele>326.0</ele><time>2026-05-03T10:56:16.408Z</time></trkpt><trkpt lat="44.8440357" lon="9.0662874"><ele>326.0</ele><time>2026-05-03T10:56:17.402Z</time></trkpt><trkpt lat="44.844007" lon="9.0661589"><ele>327.0</ele><time>2026-05-03T10:56:18.398Z</time></trkpt><trkpt lat="44.8439492" lon="9.0660575"><ele>328.0</ele><time>2026-05-03T10:56:19.414Z</time></trkpt><trkpt lat="44.8438788" lon="9.0659853"><ele>329.0</ele><time>2026-05-03T10:56:20.407Z</time></trkpt><trkpt lat="44.8438286" lon="9.0659125"><ele>330.0</ele><time>2026-05-03T10:56:21.398Z</time></trkpt><trkpt lat="44.8437861" lon="9.0658363"><ele>331.0</ele><time>2026-05-03T10:56:22.4Z</time></trkpt><trkpt lat="44.8438464" lon="9.065793"><ele>332.0</ele><time>2026-05-03T10:56:23.403Z</time></trkpt><trkpt lat="44.8439278" lon="9.0657754"><ele>333.0</ele><time>2026-05-03T10:56:24.401Z</time></trkpt><trkpt lat="44.8440235" lon="9.065761"><ele>334.0</ele><time>2026-05-03T10:56:25.407Z</time></trkpt><trkpt lat="44.8441159" lon="9.0657302"><ele>335.0</ele><time>2026-05-03T10:56:26.401Z</time></trkpt><trkpt lat="44.8441954" lon="9.0656724"><ele>336.0</ele><time>2026-05-03T10:56:27.401Z</time></trkpt><trkpt lat="44.8442615" lon="9.0655731"><ele>337.0</ele><time>2026-05-03T10:56:28.397Z</time></trkpt><trkpt lat="44.8443172" lon="9.0654372"><ele>338.6</ele><time>2026-05-03T10:56:29.399Z</time></trkpt><trkpt lat="44.8443698" lon="9.0652902"><ele>340.20000000000005</ele><time>2026-05-03T10:56:30.413Z</time></trkpt><trkpt lat="44.8444129" lon="9.0651474"><ele>341.8</ele><time>2026-05-03T10:56:31.405Z</time></trkpt><trkpt lat="44.8444424" lon="9.0650212"><ele>343.4</ele><time>2026-05-03T10:56:32.4Z</time></trkpt><trkpt lat="44.8444661" lon="9.0649105"><ele>345.0</ele><time>2026-05-03T10:56:33.4Z</time></trkpt><trkpt lat="44.8444862" lon="9.0648058"><ele>345.1666666666667</ele><time>2026-05-03T10:56:34.408Z</time></trkpt><trkpt lat="44.8445097" lon="9.0647029"><ele>345.3333333333333</ele><time>2026-05-03T10:56:35.4Z</time></trkpt><trkpt lat="44.8445357" lon="9.0646197"><ele>345.5</ele><time>2026-05-03T10:56:36.406Z</time></trkpt><trkpt lat="44.8446132" lon="9.0645582"><ele>345.66666666666663</ele><time>2026-05-03T10:56:38.404Z</time></trkpt><trkpt lat="44.8446941" lon="9.064571"><ele>345.8333333333333</ele><time>2026-05-03T10:56:40.405Z</time></trkpt><trkpt lat="44.8447556" lon="9.0645906"><ele>346.0</ele><time>2026-05-03T10:56:42.401Z</time></trkpt><trkpt lat="44.8448335" lon="9.0645915"><ele>346.0</ele><time>2026-05-03T10:57:04.404Z</time></trkpt><trkpt lat="44.8449474" lon="9.0646096"><ele>346.0</ele><time>2026-05-03T10:57:06.403Z</time></trkpt><trkpt lat="44.8450116" lon="9.0646422"><ele>346.0</ele><time>2026-05-03T10:57:07.401Z</time></trkpt><trkpt lat="44.8450712" lon="9.0646857"><ele>346.0</ele><time>2026-05-03T10:57:08.405Z</time></trkpt><trkpt lat="44.8450915" lon="9.0647824"><ele>346.0</ele><time>2026-05-03T10:57:09.416Z</time></trkpt><trkpt lat="44.8451093" lon="9.0648727"><ele>346.0</ele><time>2026-05-03T10:57:10.404Z</time></trkpt><trkpt lat="44.8451119" lon="9.0649805"><ele>345.8</ele><time>2026-05-03T10:57:11.406Z</time></trkpt><trkpt lat="44.8450429" lon="9.0651002"><ele>345.6</ele><time>2026-05-03T10:57:12.401Z</time></trkpt><trkpt lat="44.8449822" lon="9.0652296"><ele>345.4</ele><time>2026-05-03T10:57:13.407Z</time></trkpt><trkpt lat="44.8449471" lon="9.0653681"><ele>345.2</ele><time>2026-05-03T10:57:14.404Z</time></trkpt><trkpt lat="44.8449413" lon="9.0655117"><ele>345.0</ele><time>2026-05-03T10:57:15.396Z</time></trkpt><trkpt lat="44.8449511" lon="9.0656725"><ele>345.75</ele><time>2026-05-03T10:57:16.396Z</time></trkpt><trkpt lat="44.8449633" lon="9.0658475"><ele>346.5</ele><time>2026-05-03T10:57:17.404Z</time></trkpt><trkpt lat="44.8449741" lon="9.0660306"><ele>347.25</ele><time>2026-05-03T10:57:18.404Z</time></trkpt><trkpt lat="44.8449859" lon="9.06621"><ele>348.0</ele><time>2026-05-03T10:57:19.401Z</time></trkpt><trkpt lat="44.8449995" lon="9.0663672"><ele>348.0</ele><time>2026-05-03T10:57:20.409Z</time></trkpt><trkpt lat="44.8450232" lon="9.0664983"><ele>348.0</ele><time>2026-05-03T10:57:21.4Z</time></trkpt><trkpt lat="44.8450552" lon="9.0666018"><ele>348.0</ele><time>2026-05-03T10:57:22.41Z</time></trkpt><trkpt lat="44.8451614" lon="9.0666586"><ele>348.0</ele><time>2026-05-03T10:57:24.4Z</time></trkpt><trkpt lat="44.8452574" lon="9.0665379"><ele>348.0</ele><time>2026-05-03T10:57:26.403Z</time></trkpt><trkpt lat="44.8452854" lon="9.0664433"><ele>350.5</ele><time>2026-05-03T10:57:27.408Z</time></trkpt><trkpt lat="44.8453099" lon="9.066342"><ele>353.0</ele><time>2026-05-03T10:57:28.399Z</time></trkpt><trkpt lat="44.8453318" lon="9.0662399"><ele>355.5</ele><time>2026-05-03T10:57:29.401Z</time></trkpt><trkpt lat="44.8453473" lon="9.0661313"><ele>358.0</ele><time>2026-05-03T10:57:30.401Z</time></trkpt><trkpt lat="44.8453585" lon="9.066019"><ele>360.5</ele><time>2026-05-03T10:57:31.397Z</time></trkpt><trkpt lat="44.845365" lon="9.0659066"><ele>363.0</ele><time>2026-05-03T10:57:32.408Z</time></trkpt><trkpt lat="44.8453645" lon="9.065805"><ele>363.5</ele><time>2026-05-03T10:57:33.402Z</time></trkpt><trkpt lat="44.8453735" lon="9.0656572"><ele>364.0</ele><time>2026-05-03T10:57:35.404Z</time></trkpt><trkpt lat="44.8454471" lon="9.0655972"><ele>364.5</ele><time>2026-05-03T10:57:38.404Z</time></trkpt><trkpt lat="44.8455215" lon="9.0656293"><ele>365.0</ele><time>2026-05-03T10:57:39.412Z</time></trkpt><trkpt lat="44.8455902" lon="9.0656708"><ele>365.5</ele><time>2026-05-03T10:57:40.411Z</time></trkpt><trkpt lat="44.8456546" lon="9.0657089"><ele>366.0</ele><time>2026-05-03T10:57:41.409Z</time></trkpt><trkpt lat="44.8457205" lon="9.0657556"><ele>365.4</ele><time>2026-05-03T10:57:42.41Z</time></trkpt><trkpt lat="44.8457966" lon="9.0658216"><ele>364.8</ele><time>2026-05-03T10:57:43.399Z</time></trkpt><trkpt lat="44.845876" lon="9.0658973"><ele>364.2</ele><time>2026-05-03T10:57:44.398Z</time></trkpt><trkpt lat="44.84594" lon="9.0659924"><ele>363.59999999999997</ele><time>2026-05-03T10:57:45.403Z</time></trkpt><trkpt lat="44.8459867" lon="9.0661133"><ele>363.0</ele><time>2026-05-03T10:57:46.402Z</time></trkpt><trkpt lat="44.8460199" lon="9.0662336"><ele>367.5</ele><time>2026-05-03T10:57:47.401Z</time></trkpt><trkpt lat="44.8460626" lon="9.0663657"><ele>372.0</ele><time>2026-05-03T10:57:48.399Z</time></trkpt><trkpt lat="44.8461196" lon="9.0664946"><ele>376.5</ele><time>2026-05-03T10:57:49.404Z</time></trkpt><trkpt lat="44.8461945" lon="9.0666194"><ele>381.0</ele><time>2026-05-03T10:57:50.408Z</time></trkpt><trkpt lat="44.8462804" lon="9.066749"><ele>381.0</ele><time>2026-05-03T10:57:51.568Z</time></trkpt><trkpt lat="44.8464367" lon="9.0669935"><ele>381.0</ele><time>2026-05-03T10:57:53.404Z</time></trkpt><trkpt lat="44.8465028" lon="9.0671124"><ele>381.0</ele><time>2026-05-03T10:57:54.402Z</time></trkpt><trkpt lat="44.8465598" lon="9.0672315"><ele>381.0</ele><time>2026-05-03T10:57:55.403Z</time></trkpt><trkpt lat="44.8466008" lon="9.0673635"><ele>381.75</ele><time>2026-05-03T10:57:56.405Z</time></trkpt><trkpt lat="44.8466191" lon="9.0675277"><ele>382.5</ele><time>2026-05-03T10:57:57.4Z</time></trkpt><trkpt lat="44.8466318" lon="9.067718"><ele>383.25</ele><time>2026-05-03T10:57:58.403Z</time></trkpt><trkpt lat="44.8466421" lon="9.0679088"><ele>384.0</ele><time>2026-05-03T10:57:59.407Z</time></trkpt><trkpt lat="44.8466547" lon="9.0680873"><ele>384.0</ele><time>2026-05-03T10:58:00.402Z</time></trkpt><trkpt lat="44.8466663" lon="9.0682413"><ele>384.0</ele><time>2026-05-03T10:58:01.401Z</time></trkpt><trkpt lat="44.8466792" lon="9.068359"><ele>384.0</ele><time>2026-05-03T10:58:02.397Z</time></trkpt><trkpt lat="44.8467065" lon="9.0684418"><ele>384.0</ele><time>2026-05-03T10:58:03.403Z</time></trkpt><trkpt lat="44.8468083" lon="9.0684875"><ele>384.0</ele><time>2026-05-03T10:58:05.401Z</time></trkpt><trkpt lat="44.8469109" lon="9.0683564"><ele>387.0</ele><time>2026-05-03T10:58:07.401Z</time></trkpt><trkpt lat="44.8469684" lon="9.0682275"><ele>390.0</ele><time>2026-05-03T10:58:08.414Z</time></trkpt><trkpt lat="44.8470327" lon="9.068069"><ele>393.0</ele><time>2026-05-03T10:58:09.419Z</time></trkpt><trkpt lat="44.847101" lon="9.0679002"><ele>396.0</ele><time>2026-05-03T10:58:10.403Z</time></trkpt><trkpt lat="44.8471754" lon="9.0677194"><ele>396.0</ele><time>2026-05-03T10:58:11.413Z</time></trkpt><trkpt lat="44.8472447" lon="9.0675548"><ele>396.0</ele><time>2026-05-03T10:58:12.405Z</time></trkpt><trkpt lat="44.84731" lon="9.0673887"><ele>396.0</ele><time>2026-05-03T10:58:13.409Z</time></trkpt><trkpt lat="44.8473747" lon="9.067238"><ele>396.0</ele><time>2026-05-03T10:58:14.407Z</time></trkpt><trkpt lat="44.8474365" lon="9.0670904"><ele>396.75</ele><time>2026-05-03T10:58:15.407Z</time></trkpt><trkpt lat="44.8475019" lon="9.0669459"><ele>397.5</ele><time>2026-05-03T10:58:16.403Z</time></trkpt><trkpt lat="44.84758" lon="9.0667973"><ele>398.25</ele><time>2026-05-03T10:58:17.398Z</time></trkpt><trkpt lat="44.8476566" lon="9.0666461"><ele>399.0</ele><time>2026-05-03T10:58:18.399Z</time></trkpt><trkpt lat="44.8477241" lon="9.0665005"><ele>402.25</ele><time>2026-05-03T10:58:19.402Z</time></trkpt><trkpt lat="44.8477723" lon="9.0663619"><ele>405.5</ele><time>2026-05-03T10:58:20.407Z</time></trkpt><trkpt lat="44.8478026" lon="9.0661836"><ele>408.75</ele><time>2026-05-03T10:58:21.406Z</time></trkpt><trkpt lat="44.8478272" lon="9.066004"><ele>412.0</ele><time>2026-05-03T10:58:22.404Z</time></trkpt><trkpt lat="44.8478434" lon="9.0658213"><ele>413.25</ele><time>2026-05-03T10:58:23.404Z</time></trkpt><trkpt lat="44.8478487" lon="9.0656459"><ele>414.5</ele><time>2026-05-03T10:58:24.401Z</time></trkpt><trkpt lat="44.8478495" lon="9.0654796"><ele>415.75</ele><time>2026-05-03T10:58:25.404Z</time></trkpt><trkpt lat="44.8478575" lon="9.0653083"><ele>417.0</ele><time>2026-05-03T10:58:26.406Z</time></trkpt><trkpt lat="44.847878" lon="9.0651505"><ele>417.0</ele><time>2026-05-03T10:58:27.405Z</time></trkpt><trkpt lat="44.8479253" lon="9.0650018"><ele>417.0</ele><time>2026-05-03T10:58:28.401Z</time></trkpt><trkpt lat="44.8479974" lon="9.0648664"><ele>417.0</ele><time>2026-05-03T10:58:29.404Z</time></trkpt><trkpt lat="44.8480867" lon="9.0647331"><ele>417.0</ele><time>2026-05-03T10:58:30.405Z</time></trkpt><trkpt lat="44.8481887" lon="9.0645872"><ele>417.33333333333337</ele><time>2026-05-03T10:58:31.403Z</time></trkpt><trkpt lat="44.8483012" lon="9.0644198"><ele>417.6666666666667</ele><time>2026-05-03T10:58:32.407Z</time></trkpt><trkpt lat="44.8484134" lon="9.0642485"><ele>418.0</ele><time>2026-05-03T10:58:33.406Z</time></trkpt><trkpt lat="44.8485186" lon="9.0640929"><ele>420.75</ele><time>2026-05-03T10:58:34.405Z</time></trkpt><trkpt lat="44.848629" lon="9.063939"><ele>423.5</ele><time>2026-05-03T10:58:35.403Z</time></trkpt><trkpt lat="44.848734" lon="9.0637871"><ele>426.25</ele><time>2026-05-03T10:58:36.402Z</time></trkpt><trkpt lat="44.8488213" lon="9.0636546"><ele>429.0</ele><time>2026-05-03T10:58:37.402Z</time></trkpt><trkpt lat="44.8488948" lon="9.0635397"><ele>429.0</ele><time>2026-05-03T10:58:38.406Z</time></trkpt><trkpt lat="44.8489561" lon="9.0634427"><ele>429.0</ele><time>2026-05-03T10:58:39.403Z</time></trkpt><trkpt lat="44.8489982" lon="9.0633701"><ele>429.0</ele><time>2026-05-03T10:58:40.406Z</time></trkpt><trkpt lat="44.8490432" lon="9.0632726"><ele>429.0</ele><time>2026-05-03T10:58:42.406Z</time></trkpt><trkpt lat="44.8490266" lon="9.0631595"><ele>429.0</ele><time>2026-05-03T10:58:46.406Z</time></trkpt><trkpt lat="44.8489687" lon="9.0630898"><ele>429.0</ele><time>2026-05-03T10:58:49.402Z</time></trkpt><trkpt lat="44.8489157" lon="9.0630237"><ele>430.0</ele><time>2026-05-03T10:58:51.4Z</time></trkpt><trkpt lat="44.8488965" lon="9.0629081"><ele>431.0</ele><time>2026-05-03T10:58:53.41Z</time></trkpt><trkpt lat="44.8489333" lon="9.0627556"><ele>432.0</ele><time>2026-05-03T10:58:55.407Z</time></trkpt><trkpt lat="44.8489556" lon="9.0626496"><ele>433.0</ele><time>2026-05-03T10:58:56.41Z</time></trkpt><trkpt lat="44.8489871" lon="9.0625418"><ele>434.0</ele><time>2026-05-03T10:58:57.404Z</time></trkpt><trkpt lat="44.8490133" lon="9.0624281"><ele>435.0</ele><time>2026-05-03T10:58:58.403Z</time></trkpt><trkpt lat="44.8490412" lon="9.0623038"><ele>435.0</ele><time>2026-05-03T10:58:59.405Z</time></trkpt><trkpt lat="44.84907" lon="9.0621702"><ele>435.0</ele><time>2026-05-03T10:59:00.402Z</time></trkpt><trkpt lat="44.8490961" lon="9.0620306"><ele>435.0</ele><time>2026-05-03T10:59:01.42Z</time></trkpt><trkpt lat="44.8491207" lon="9.0618881"><ele>435.0</ele><time>2026-05-03T10:59:02.403Z</time></trkpt><trkpt lat="44.8491424" lon="9.061745"><ele>435.0</ele><time>2026-05-03T10:59:03.399Z</time></trkpt><trkpt lat="44.8491635" lon="9.0616049"><ele>433.8</ele><time>2026-05-03T10:59:04.411Z</time></trkpt><trkpt lat="44.8491976" lon="9.0614698"><ele>432.6</ele><time>2026-05-03T10:59:05.398Z</time></trkpt><trkpt lat="44.8492376" lon="9.0613296"><ele>431.4</ele><time>2026-05-03T10:59:06.401Z</time></trkpt><trkpt lat="44.8492663" lon="9.0611864"><ele>430.2</ele><time>2026-05-03T10:59:07.409Z</time></trkpt><trkpt lat="44.8492842" lon="9.0610442"><ele>429.0</ele><time>2026-05-03T10:59:08.398Z</time></trkpt><trkpt lat="44.8493046" lon="9.0609082"><ele>433.2</ele><time>2026-05-03T10:59:09.398Z</time></trkpt><trkpt lat="44.8493311" lon="9.0607752"><ele>437.4</ele><time>2026-05-03T10:59:10.402Z</time></trkpt><trkpt lat="44.8493546" lon="9.0606408"><ele>441.6</ele><time>2026-05-03T10:59:11.402Z</time></trkpt><trkpt lat="44.8493744" lon="9.0605019"><ele>445.8</ele><time>2026-05-03T10:59:12.4Z</time></trkpt><trkpt lat="44.8493937" lon="9.0603633"><ele>450.0</ele><time>2026-05-03T10:59:13.404Z</time></trkpt><trkpt lat="44.8494101" lon="9.0602175"><ele>450.0</ele><time>2026-05-03T10:59:14.406Z</time></trkpt><trkpt lat="44.8494307" lon="9.0600688"><ele>450.0</ele><time>2026-05-03T10:59:15.399Z</time></trkpt><trkpt lat="44.8494519" lon="9.0599161"><ele>450.0</ele><time>2026-05-03T10:59:16.404Z</time></trkpt><trkpt lat="44.8494823" lon="9.0597672"><ele>450.0</ele><time>2026-05-03T10:59:17.406Z</time></trkpt><trkpt lat="44.8495148" lon="9.0596262"><ele>450.0</ele><time>2026-05-03T10:59:18.4Z</time></trkpt><trkpt lat="44.8495445" lon="9.0594997"><ele>449.6666666666667</ele><time>2026-05-03T10:59:19.412Z</time></trkpt><trkpt lat="44.8495682" lon="9.0593993"><ele>449.33333333333337</ele><time>2026-05-03T10:59:20.405Z</time></trkpt><trkpt lat="44.8495922" lon="9.0592969"><ele>449.0</ele><time>2026-05-03T10:59:21.404Z</time></trkpt><trkpt lat="44.8496171" lon="9.0591939"><ele>448.6666666666667</ele><time>2026-05-03T10:59:22.402Z</time></trkpt><trkpt lat="44.849661" lon="9.0590625"><ele>448.33333333333337</ele><time>2026-05-03T10:59:24.399Z</time></trkpt><trkpt lat="44.8497557" lon="9.0590484"><ele>448.0</ele><time>2026-05-03T10:59:26.407Z</time></trkpt><trkpt lat="44.8498276" lon="9.0590436"><ele>448.1666666666667</ele><time>2026-05-03T10:59:27.4Z</time></trkpt><trkpt lat="44.8499" lon="9.0590209"><ele>448.33333333333337</ele><time>2026-05-03T10:59:28.4Z</time></trkpt><trkpt lat="44.8499817" lon="9.0589823"><ele>448.5</ele><time>2026-05-03T10:59:29.401Z</time></trkpt><trkpt lat="44.8500684" lon="9.0589359"><ele>448.66666666666663</ele><time>2026-05-03T10:59:30.404Z</time></trkpt><trkpt lat="44.8501519" lon="9.0588775"><ele>448.8333333333333</ele><time>2026-05-03T10:59:31.398Z</time></trkpt><trkpt lat="44.8502341" lon="9.0588439"><ele>449.0</ele><time>2026-05-03T10:59:32.399Z</time></trkpt><trkpt lat="44.8503017" lon="9.0587854"><ele>449.0</ele><time>2026-05-03T10:59:34.401Z</time></trkpt><trkpt lat="44.8503" lon="9.058604"><ele>449.0</ele><time>2026-05-03T10:59:36.405Z</time></trkpt><trkpt lat="44.8503013" lon="9.0584796"><ele>449.0</ele><time>2026-05-03T10:59:37.402Z</time></trkpt><trkpt lat="44.8502932" lon="9.0583504"><ele>449.0</ele><time>2026-05-03T10:59:38.4Z</time></trkpt><trkpt lat="44.850286" lon="9.0582059"><ele>449.0</ele><time>2026-05-03T10:59:39.397Z</time></trkpt><trkpt lat="44.8502874" lon="9.0580543"><ele>449.0</ele><time>2026-05-03T10:59:40.404Z</time></trkpt><trkpt lat="44.8503099" lon="9.0578892"><ele>449.0</ele><time>2026-05-03T10:59:41.403Z</time></trkpt><trkpt lat="44.8503153" lon="9.0577162"><ele>449.0</ele><time>2026-05-03T10:59:42.401Z</time></trkpt><trkpt lat="44.8503034" lon="9.0575482"><ele>449.0</ele><time>2026-05-03T10:59:43.4Z</time></trkpt><trkpt lat="44.8502736" lon="9.0574002"><ele>449.49999999999994</ele><time>2026-05-03T10:59:44.4Z</time></trkpt><trkpt lat="44.8502488" lon="9.0572771"><ele>450.0</ele><time>2026-05-03T10:59:45.404Z</time></trkpt><trkpt lat="44.8502649" lon="9.0571484"><ele>450.5</ele><time>2026-05-03T10:59:47.4Z</time></trkpt><trkpt lat="44.8503065" lon="9.0570572"><ele>451.0</ele><time>2026-05-03T10:59:50.397Z</time></trkpt><trkpt lat="44.8503667" lon="9.056966"><ele>451.49999999999994</ele><time>2026-05-03T11:00:09.405Z</time></trkpt><trkpt lat="44.8504137" lon="9.0568758"><ele>452.0</ele><time>2026-05-03T11:00:10.403Z</time></trkpt><trkpt lat="44.8504589" lon="9.0567604"><ele>454.25</ele><time>2026-05-03T11:00:11.396Z</time></trkpt><trkpt lat="44.8504991" lon="9.0566178"><ele>456.5</ele><time>2026-05-03T11:00:12.401Z</time></trkpt><trkpt lat="44.8505134" lon="9.056463"><ele>458.75</ele><time>2026-05-03T11:00:13.407Z</time></trkpt><trkpt lat="44.8505359" lon="9.0562969"><ele>461.0</ele><time>2026-05-03T11:00:14.404Z</time></trkpt><trkpt lat="44.8505582" lon="9.0561369"><ele>461.0</ele><time>2026-05-03T11:00:15.399Z</time></trkpt><trkpt lat="44.8505614" lon="9.0559927"><ele>461.0</ele><time>2026-05-03T11:00:16.403Z</time></trkpt><trkpt lat="44.8505658" lon="9.0558699"><ele>461.0</ele><time>2026-05-03T11:00:17.397Z</time></trkpt><trkpt lat="44.8505799" lon="9.0557704"><ele>461.0</ele><time>2026-05-03T11:00:18.395Z</time></trkpt><trkpt lat="44.8506545" lon="9.0556958"><ele>461.0</ele><time>2026-05-03T11:00:20.399Z</time></trkpt><trkpt lat="44.8507578" lon="9.0557189"><ele>461.0</ele><time>2026-05-03T11:00:22.397Z</time></trkpt><trkpt lat="44.8508615" lon="9.0559134"><ele>461.0</ele><time>2026-05-03T11:00:24.397Z</time></trkpt><trkpt lat="44.8509173" lon="9.0560689"><ele>461.0</ele><time>2026-05-03T11:00:25.402Z</time></trkpt><trkpt lat="44.850977" lon="9.0562224"><ele>461.0</ele><time>2026-05-03T11:00:26.4Z</time></trkpt><trkpt lat="44.8510504" lon="9.0563519"><ele>462.20000000000005</ele><time>2026-05-03T11:00:27.4Z</time></trkpt><trkpt lat="44.8511362" lon="9.0564741"><ele>463.40000000000003</ele><time>2026-05-03T11:00:28.398Z</time></trkpt><trkpt lat="44.8512249" lon="9.0565635"><ele>464.6</ele><time>2026-05-03T11:00:29.399Z</time></trkpt><trkpt lat="44.8513202" lon="9.0566214"><ele>465.8</ele><time>2026-05-03T11:00:30.401Z</time></trkpt><trkpt lat="44.8514239" lon="9.0566585"><ele>467.0</ele><time>2026-05-03T11:00:31.402Z</time></trkpt><trkpt lat="44.8515096" lon="9.0566907"><ele>465.16666666666663</ele><time>2026-05-03T11:00:32.404Z</time></trkpt><trkpt lat="44.8515839" lon="9.0567437"><ele>463.3333333333333</ele><time>2026-05-03T11:00:33.402Z</time></trkpt><trkpt lat="44.8516531" lon="9.0568027"><ele>461.5</ele><time>2026-05-03T11:00:34.4Z</time></trkpt><trkpt lat="44.8517242" lon="9.0568658"><ele>459.66666666666663</ele><time>2026-05-03T11:00:35.4Z</time></trkpt><trkpt lat="44.8517812" lon="9.0569348"><ele>457.8333333333333</ele><time>2026-05-03T11:00:36.408Z</time></trkpt><trkpt lat="44.8518241" lon="9.0570444"><ele>456.0</ele><time>2026-05-03T11:00:37.405Z</time></trkpt><trkpt lat="44.8518546" lon="9.0571588"><ele>456.0</ele><time>2026-05-03T11:00:38.4Z</time></trkpt><trkpt lat="44.8518791" lon="9.0572851"><ele>456.0</ele><time>2026-05-03T11:00:39.403Z</time></trkpt><trkpt lat="44.8519249" lon="9.0574015"><ele>456.0</ele><time>2026-05-03T11:00:40.402Z</time></trkpt><trkpt lat="44.851988" lon="9.0574966"><ele>456.0</ele><time>2026-05-03T11:00:41.399Z</time></trkpt><trkpt lat="44.8520682" lon="9.0575803"><ele>456.0</ele><time>2026-05-03T11:00:42.401Z</time></trkpt><trkpt lat="44.8521554" lon="9.0576609"><ele>456.0</ele><time>2026-05-03T11:00:43.397Z</time></trkpt><trkpt lat="44.8522269" lon="9.057718"><ele>456.0</ele><time>2026-05-03T11:00:44.399Z</time></trkpt><trkpt lat="44.8523127" lon="9.0576988"><ele>456.0</ele><time>2026-05-03T11:00:47.4Z</time></trkpt><trkpt lat="44.8523719" lon="9.0576132"><ele>456.0</ele><time>2026-05-03T11:00:49.401Z</time></trkpt><trkpt lat="44.8524372" lon="9.0575636"><ele>456.0</ele><time>2026-05-03T11:00:50.402Z</time></trkpt><trkpt lat="44.8524924" lon="9.0574974"><ele>456.0</ele><time>2026-05-03T11:00:51.398Z</time></trkpt><trkpt lat="44.8525447" lon="9.0574128"><ele>456.0</ele><time>2026-05-03T11:00:52.399Z</time></trkpt><trkpt lat="44.852603" lon="9.057308"><ele>456.0</ele><time>2026-05-03T11:00:53.401Z</time></trkpt><trkpt lat="44.8526474" lon="9.0571963"><ele>456.0</ele><time>2026-05-03T11:00:54.398Z</time></trkpt><trkpt lat="44.8526969" lon="9.0570986"><ele>456.0</ele><time>2026-05-03T11:00:55.401Z</time></trkpt><trkpt lat="44.8527708" lon="9.0569948"><ele>456.0</ele><time>2026-05-03T11:00:56.396Z</time></trkpt><trkpt lat="44.8528499" lon="9.0569501"><ele>456.0</ele><time>2026-05-03T11:00:57.398Z</time></trkpt><trkpt lat="44.8529197" lon="9.056954"><ele>456.0</ele><time>2026-05-03T11:00:58.399Z</time></trkpt><trkpt lat="44.8530182" lon="9.0570439"><ele>456.0</ele><time>2026-05-03T11:01:00.401Z</time></trkpt><trkpt lat="44.8531033" lon="9.0571594"><ele>456.0</ele><time>2026-05-03T11:01:02.399Z</time></trkpt><trkpt lat="44.853187" lon="9.0572583"><ele>456.0</ele><time>2026-05-03T11:01:04.4Z</time></trkpt><trkpt lat="44.8532549" lon="9.0573349"><ele>456.0</ele><time>2026-05-03T11:01:06.4Z</time></trkpt><trkpt lat="44.8533042" lon="9.0573959"><ele>456.0</ele><time>2026-05-03T11:01:08.401Z</time></trkpt><trkpt lat="44.8533528" lon="9.0574795"><ele>456.0</ele><time>2026-05-03T11:01:39.402Z</time></trkpt><trkpt lat="44.8534493" lon="9.0575911"><ele>456.0</ele><time>2026-05-03T11:01:41.401Z</time></trkpt><trkpt lat="44.853518" lon="9.0576652"><ele>456.0</ele><time>2026-05-03T11:01:42.404Z</time></trkpt><trkpt lat="44.8535927" lon="9.0577388"><ele>456.0</ele><time>2026-05-03T11:01:43.398Z</time></trkpt><trkpt lat="44.8536628" lon="9.0578055"><ele>455.1666666666667</ele><time>2026-05-03T11:01:44.402Z</time></trkpt><trkpt lat="44.8537348" lon="9.0578652"><ele>454.33333333333337</ele><time>2026-05-03T11:01:45.406Z</time></trkpt><trkpt lat="44.8538038" lon="9.0579015"><ele>453.5</ele><time>2026-05-03T11:01:46.396Z</time></trkpt><trkpt lat="44.8538651" lon="9.05794"><ele>452.6666666666667</ele><time>2026-05-03T11:01:47.405Z</time></trkpt><trkpt lat="44.8539177" lon="9.0579959"><ele>451.83333333333337</ele><time>2026-05-03T11:01:48.398Z</time></trkpt><trkpt lat="44.8539676" lon="9.0580649"><ele>451.0</ele><time>2026-05-03T11:01:49.401Z</time></trkpt><trkpt lat="44.8540319" lon="9.0581997"><ele>448.50000000000006</ele><time>2026-05-03T11:01:51.398Z</time></trkpt><trkpt lat="44.8540646" lon="9.058334"><ele>446.0</ele><time>2026-05-03T11:01:53.406Z</time></trkpt><trkpt lat="44.8540807" lon="9.0584267"><ele>443.5</ele><time>2026-05-03T11:01:54.4Z</time></trkpt><trkpt lat="44.8541024" lon="9.0585343"><ele>441.0</ele><time>2026-05-03T11:01:55.404Z</time></trkpt><trkpt lat="44.8541275" lon="9.0586499"><ele>438.50000000000006</ele><time>2026-05-03T11:01:56.396Z</time></trkpt><trkpt lat="44.8541558" lon="9.0587779"><ele>436.0</ele><time>2026-05-03T11:01:57.4Z</time></trkpt><trkpt lat="44.8541896" lon="9.058921"><ele>436.00000000000006</ele><time>2026-05-03T11:01:58.401Z</time></trkpt><trkpt lat="44.8542315" lon="9.059042"><ele>436.0</ele><time>2026-05-03T11:01:59.403Z</time></trkpt><trkpt lat="44.8542848" lon="9.0591372"><ele>436.0</ele><time>2026-05-03T11:02:00.402Z</time></trkpt><trkpt lat="44.8543526" lon="9.0591964"><ele>436.0</ele><time>2026-05-03T11:02:01.407Z</time></trkpt><trkpt lat="44.8544245" lon="9.059203"><ele>436.00000000000006</ele><time>2026-05-03T11:02:02.401Z</time></trkpt><trkpt lat="44.8545245" lon="9.0591982"><ele>436.0</ele><time>2026-05-03T11:02:03.408Z</time></trkpt><trkpt lat="44.8546284" lon="9.0591936"><ele>434.20000000000005</ele><time>2026-05-03T11:02:04.418Z</time></trkpt><trkpt lat="44.8547066" lon="9.0592369"><ele>432.40000000000003</ele><time>2026-05-03T11:02:05.411Z</time></trkpt><trkpt lat="44.8547891" lon="9.0592952"><ele>430.6</ele><time>2026-05-03T11:02:06.405Z</time></trkpt><trkpt lat="44.8548817" lon="9.059413"><ele>428.8</ele><time>2026-05-03T11:02:07.408Z</time></trkpt><trkpt lat="44.8549793" lon="9.0595244"><ele>427.0</ele><time>2026-05-03T11:02:08.4Z</time></trkpt><trkpt lat="44.8550696" lon="9.0596078"><ele>427.83333333333337</ele><time>2026-05-03T11:02:09.398Z</time></trkpt><trkpt lat="44.8551581" lon="9.0596715"><ele>428.6666666666667</ele><time>2026-05-03T11:02:10.398Z</time></trkpt><trkpt lat="44.8552177" lon="9.0597003"><ele>429.5</ele><time>2026-05-03T11:02:11.401Z</time></trkpt><trkpt lat="44.8552961" lon="9.0596934"><ele>430.33333333333337</ele><time>2026-05-03T11:02:31.404Z</time></trkpt><trkpt lat="44.8553727" lon="9.0596671"><ele>431.1666666666667</ele><time>2026-05-03T11:02:37.402Z</time></trkpt><trkpt lat="44.8554393" lon="9.0596193"><ele>432.0</ele><time>2026-05-03T11:02:39.399Z</time></trkpt><trkpt lat="44.8555009" lon="9.0595868"><ele>432.0</ele><time>2026-05-03T11:02:41.398Z</time></trkpt><trkpt lat="44.8556176" lon="9.0596171"><ele>432.00000000000006</ele><time>2026-05-03T11:02:43.406Z</time></trkpt><trkpt lat="44.8557009" lon="9.0596567"><ele>432.00000000000006</ele><time>2026-05-03T11:02:44.397Z</time></trkpt><trkpt lat="44.8557793" lon="9.0597019"><ele>432.0</ele><time>2026-05-03T11:02:45.402Z</time></trkpt><trkpt lat="44.8558588" lon="9.0597648"><ele>432.0</ele><time>2026-05-03T11:02:46.402Z</time></trkpt><trkpt lat="44.8559297" lon="9.0598429"><ele>433.0</ele><time>2026-05-03T11:02:47.405Z</time></trkpt><trkpt lat="44.8559837" lon="9.0599328"><ele>434.00000000000006</ele><time>2026-05-03T11:02:48.4Z</time></trkpt><trkpt lat="44.8560283" lon="9.0600447"><ele>435.00000000000006</ele><time>2026-05-03T11:02:49.4Z</time></trkpt><trkpt lat="44.8560587" lon="9.0601637"><ele>436.0</ele><time>2026-05-03T11:02:50.402Z</time></trkpt><trkpt lat="44.8560744" lon="9.0602929"><ele>437.0</ele><time>2026-05-03T11:02:51.403Z</time></trkpt><trkpt lat="44.8560864" lon="9.0604584"><ele>437.0</ele><time>2026-05-03T11:02:52.4Z</time></trkpt><trkpt lat="44.8560978" lon="9.0606266"><ele>437.0</ele><time>2026-05-03T11:02:53.398Z</time></trkpt><trkpt lat="44.8561224" lon="9.0607981"><ele>437.0</ele><time>2026-05-03T11:02:54.403Z</time></trkpt><trkpt lat="44.8561529" lon="9.0609716"><ele>437.0</ele><time>2026-05-03T11:02:55.402Z</time></trkpt><trkpt lat="44.8562001" lon="9.0611323"><ele>434.20000000000005</ele><time>2026-05-03T11:02:56.399Z</time></trkpt><trkpt lat="44.8562517" lon="9.0612984"><ele>431.40000000000003</ele><time>2026-05-03T11:02:57.4Z</time></trkpt><trkpt lat="44.8563067" lon="9.0614546"><ele>428.6</ele><time>2026-05-03T11:02:58.404Z</time></trkpt><trkpt lat="44.8563465" lon="9.0615997"><ele>425.79999999999995</ele><time>2026-05-03T11:02:59.398Z</time></trkpt><trkpt lat="44.8563513" lon="9.0616942"><ele>423.0</ele><time>2026-05-03T11:03:00.418Z</time></trkpt><trkpt lat="44.8563453" lon="9.0617903"><ele>420.2</ele><time>2026-05-03T11:03:01.407Z</time></trkpt><trkpt lat="44.8562951" lon="9.0618706"><ele>417.4</ele><time>2026-05-03T11:03:02.401Z</time></trkpt><trkpt lat="44.8562519" lon="9.0619818"><ele>414.59999999999997</ele><time>2026-05-03T11:03:03.399Z</time></trkpt><trkpt lat="44.856222" lon="9.0621205"><ele>411.79999999999995</ele><time>2026-05-03T11:03:04.405Z</time></trkpt><trkpt lat="44.8561956" lon="9.0622664"><ele>409.0</ele><time>2026-05-03T11:03:05.402Z</time></trkpt><trkpt lat="44.8562037" lon="9.0624278"><ele>407.4</ele><time>2026-05-03T11:03:06.397Z</time></trkpt><trkpt lat="44.8562371" lon="9.0625619"><ele>405.79999999999995</ele><time>2026-05-03T11:03:07.402Z</time></trkpt><trkpt lat="44.8562734" lon="9.0626672"><ele>404.20000000000005</ele><time>2026-05-03T11:03:08.404Z</time></trkpt><trkpt lat="44.8563306" lon="9.062774"><ele>402.6</ele><time>2026-05-03T11:03:09.403Z</time></trkpt><trkpt lat="44.8564065" lon="9.0628667"><ele>401.0</ele><time>2026-05-03T11:03:10.396Z</time></trkpt><trkpt lat="44.85649" lon="9.0629048"><ele>400.99999999999994</ele><time>2026-05-03T11:03:11.41Z</time></trkpt><trkpt lat="44.8565601" lon="9.0629157"><ele>401.0</ele><time>2026-05-03T11:03:12.404Z</time></trkpt><trkpt lat="44.8566237" lon="9.0629075"><ele>401.0</ele><time>2026-05-03T11:03:15.399Z</time></trkpt><trkpt lat="44.8566602" lon="9.0630143"><ele>401.0</ele><time>2026-05-03T11:03:21.403Z</time></trkpt><trkpt lat="44.856634" lon="9.06319"><ele>400.99999999999994</ele><time>2026-05-03T11:03:23.398Z</time></trkpt><trkpt lat="44.8566293" lon="9.063301"><ele>401.0</ele><time>2026-05-03T11:03:24.396Z</time></trkpt><trkpt lat="44.8566298" lon="9.0634012"><ele>399.66666666666663</ele><time>2026-05-03T11:03:25.397Z</time></trkpt><trkpt lat="44.8566084" lon="9.0635132"><ele>398.3333333333333</ele><time>2026-05-03T11:03:27.414Z</time></trkpt><trkpt lat="44.8565845" lon="9.0636044"><ele>397.0</ele><time>2026-05-03T11:03:29.399Z</time></trkpt><trkpt lat="44.8565433" lon="9.0637499"><ele>395.66666666666663</ele><time>2026-05-03T11:03:31.396Z</time></trkpt><trkpt lat="44.8565086" lon="9.0638529"><ele>394.3333333333333</ele><time>2026-05-03T11:03:32.398Z</time></trkpt><trkpt lat="44.8564644" lon="9.0639701"><ele>393.0</ele><time>2026-05-03T11:03:33.399Z</time></trkpt><trkpt lat="44.8564257" lon="9.0640924"><ele>391.0</ele><time>2026-05-03T11:03:34.4Z</time></trkpt><trkpt lat="44.8564025" lon="9.0642283"><ele>389.0</ele><time>2026-05-03T11:03:35.404Z</time></trkpt><trkpt lat="44.8563981" lon="9.064361"><ele>387.0</ele><time>2026-05-03T11:03:36.402Z</time></trkpt><trkpt lat="44.8563917" lon="9.0644804"><ele>385.0</ele><time>2026-05-03T11:03:37.4Z</time></trkpt><trkpt lat="44.8563729" lon="9.0645756"><ele>383.0</ele><time>2026-05-03T11:03:38.401Z</time></trkpt><trkpt lat="44.8562902" lon="9.0646902"><ele>383.0</ele><time>2026-05-03T11:03:40.401Z</time></trkpt><trkpt lat="44.8562301" lon="9.0647328"><ele>383.0</ele><time>2026-05-03T11:03:41.404Z</time></trkpt><trkpt lat="44.8561771" lon="9.0647954"><ele>383.0</ele><time>2026-05-03T11:03:42.402Z</time></trkpt><trkpt lat="44.8561108" lon="9.064862"><ele>383.0</ele><time>2026-05-03T11:03:43.399Z</time></trkpt><trkpt lat="44.856054" lon="9.0649098"><ele>383.0</ele><time>2026-05-03T11:03:44.401Z</time></trkpt><trkpt lat="44.8560329" lon="9.065047"><ele>383.0</ele><time>2026-05-03T11:03:45.399Z</time></trkpt><trkpt lat="44.8560206" lon="9.0651823"><ele>381.83333333333337</ele><time>2026-05-03T11:03:46.397Z</time></trkpt><trkpt lat="44.8559911" lon="9.0652765"><ele>380.6666666666667</ele><time>2026-05-03T11:03:47.399Z</time></trkpt><trkpt lat="44.8559644" lon="9.0653811"><ele>379.5</ele><time>2026-05-03T11:03:48.396Z</time></trkpt><trkpt lat="44.8559374" lon="9.0654839"><ele>378.3333333333333</ele><time>2026-05-03T11:03:49.397Z</time></trkpt><trkpt lat="44.8558765" lon="9.0656039"><ele>377.16666666666663</ele><time>2026-05-03T11:03:50.397Z</time></trkpt><trkpt lat="44.855815" lon="9.065734"><ele>376.0</ele><time>2026-05-03T11:03:51.399Z</time></trkpt><trkpt lat="44.8557648" lon="9.065846"><ele>372.4</ele><time>2026-05-03T11:03:52.396Z</time></trkpt><trkpt lat="44.8557249" lon="9.0659505"><ele>368.8</ele><time>2026-05-03T11:03:53.397Z</time></trkpt><trkpt lat="44.8556962" lon="9.0660868"><ele>365.2</ele><time>2026-05-03T11:03:54.398Z</time></trkpt><trkpt lat="44.8556794" lon="9.0662366"><ele>361.59999999999997</ele><time>2026-05-03T11:03:55.399Z</time></trkpt><trkpt lat="44.8556995" lon="9.0664025"><ele>358.0</ele><time>2026-05-03T11:03:56.394Z</time></trkpt><trkpt lat="44.8557614" lon="9.0665857"><ele>360.0</ele><time>2026-05-03T11:03:57.398Z</time></trkpt><trkpt lat="44.8558218" lon="9.0667639"><ele>362.0</ele><time>2026-05-03T11:03:58.399Z</time></trkpt><trkpt lat="44.8558597" lon="9.0669322"><ele>364.0</ele><time>2026-05-03T11:03:59.4Z</time></trkpt><trkpt lat="44.8559017" lon="9.0670801"><ele>366.0</ele><time>2026-05-03T11:04:00.396Z</time></trkpt><trkpt lat="44.8559646" lon="9.0672194"><ele>366.0</ele><time>2026-05-03T11:04:01.402Z</time></trkpt><trkpt lat="44.8560344" lon="9.0673347"><ele>366.0</ele><time>2026-05-03T11:04:02.397Z</time></trkpt><trkpt lat="44.8561035" lon="9.0674338"><ele>366.0</ele><time>2026-05-03T11:04:03.4Z</time></trkpt><trkpt lat="44.8561785" lon="9.0675436"><ele>366.0</ele><time>2026-05-03T11:04:04.402Z</time></trkpt><trkpt lat="44.8562607" lon="9.0676676"><ele>366.0</ele><time>2026-05-03T11:04:05.397Z</time></trkpt><trkpt lat="44.8563433" lon="9.0677863"><ele>362.8</ele><time>2026-05-03T11:04:06.399Z</time></trkpt><trkpt lat="44.8564269" lon="9.0679"><ele>359.6</ele><time>2026-05-03T11:04:07.397Z</time></trkpt><trkpt lat="44.8565063" lon="9.067992"><ele>356.4</ele><time>2026-05-03T11:04:08.398Z</time></trkpt><trkpt lat="44.8565642" lon="9.0680825"><ele>353.2</ele><time>2026-05-03T11:04:09.402Z</time></trkpt><trkpt lat="44.8566043" lon="9.0681796"><ele>350.0</ele><time>2026-05-03T11:04:10.404Z</time></trkpt><trkpt lat="44.8566251" lon="9.0682723"><ele>348.0</ele><time>2026-05-03T11:04:11.4Z</time></trkpt><trkpt lat="44.8566274" lon="9.0683768"><ele>346.0</ele><time>2026-05-03T11:04:12.397Z</time></trkpt><trkpt lat="44.8566338" lon="9.0684918"><ele>344.0</ele><time>2026-05-03T11:04:13.402Z</time></trkpt><trkpt lat="44.8566393" lon="9.0686265"><ele>342.0</ele><time>2026-05-03T11:04:14.403Z</time></trkpt><trkpt lat="44.8566505" lon="9.068775"><ele>340.0</ele><time>2026-05-03T11:04:15.399Z</time></trkpt><trkpt lat="44.8566683" lon="9.0689249"><ele>340.0</ele><time>2026-05-03T11:04:16.403Z</time></trkpt><trkpt lat="44.8566979" lon="9.0690638"><ele>340.0</ele><time>2026-05-03T11:04:17.399Z</time></trkpt><trkpt lat="44.8567317" lon="9.0691783"><ele>340.0</ele><time>2026-05-03T11:04:18.402Z</time></trkpt><trkpt lat="44.8567696" lon="9.069292"><ele>340.0</ele><time>2026-05-03T11:04:19.405Z</time></trkpt><trkpt lat="44.8568057" lon="9.0694185"><ele>340.0</ele><time>2026-05-03T11:04:20.401Z</time></trkpt><trkpt lat="44.8568296" lon="9.0695564"><ele>341.0</ele><time>2026-05-03T11:04:21.401Z</time></trkpt><trkpt lat="44.8568297" lon="9.0696822"><ele>342.0</ele><time>2026-05-03T11:04:22.401Z</time></trkpt><trkpt lat="44.856836" lon="9.0697927"><ele>343.0</ele><time>2026-05-03T11:04:23.405Z</time></trkpt><trkpt lat="44.8568613" lon="9.0699002"><ele>344.0</ele><time>2026-05-03T11:04:24.4Z</time></trkpt><trkpt lat="44.8569239" lon="9.070017"><ele>345.0</ele><time>2026-05-03T11:04:25.406Z</time></trkpt><trkpt lat="44.8569926" lon="9.0701188"><ele>342.0</ele><time>2026-05-03T11:04:26.4Z</time></trkpt><trkpt lat="44.8570431" lon="9.0701881"><ele>339.0</ele><time>2026-05-03T11:04:27.402Z</time></trkpt><trkpt lat="44.8571115" lon="9.0702329"><ele>336.0</ele><time>2026-05-03T11:04:28.401Z</time></trkpt><trkpt lat="44.8571893" lon="9.0702768"><ele>333.0</ele><time>2026-05-03T11:04:29.403Z</time></trkpt><trkpt lat="44.8572948" lon="9.0702894"><ele>330.0</ele><time>2026-05-03T11:04:30.401Z</time></trkpt><trkpt lat="44.8573982" lon="9.0702992"><ele>327.0</ele><time>2026-05-03T11:04:31.404Z</time></trkpt><trkpt lat="44.8574968" lon="9.0703209"><ele>327.0</ele><time>2026-05-03T11:04:32.4Z</time></trkpt><trkpt lat="44.85759" lon="9.0703689"><ele>327.0</ele><time>2026-05-03T11:04:33.403Z</time></trkpt><trkpt lat="44.8576657" lon="9.0704312"><ele>327.0</ele><time>2026-05-03T11:04:34.399Z</time></trkpt><trkpt lat="44.8577291" lon="9.0704826"><ele>327.0</ele><time>2026-05-03T11:04:35.406Z</time></trkpt><trkpt lat="44.8578428" lon="9.0705347"><ele>327.0</ele><time>2026-05-03T11:04:37.4Z</time></trkpt><trkpt lat="44.8579645" lon="9.0705609"><ele>326.40000000000003</ele><time>2026-05-03T11:04:39.403Z</time></trkpt><trkpt lat="44.8580307" lon="9.0705341"><ele>325.8</ele><time>2026-05-03T11:04:40.401Z</time></trkpt><trkpt lat="44.8581043" lon="9.0704839"><ele>325.2</ele><time>2026-05-03T11:04:41.404Z</time></trkpt><trkpt lat="44.858179" lon="9.0704268"><ele>324.6</ele><time>2026-05-03T11:04:42.406Z</time></trkpt><trkpt lat="44.8582831" lon="9.0703346"><ele>324.0</ele><time>2026-05-03T11:04:43.4Z</time></trkpt><trkpt lat="44.8583761" lon="9.0702406"><ele>323.2</ele><time>2026-05-03T11:04:44.398Z</time></trkpt><trkpt lat="44.8584776" lon="9.0701287"><ele>322.4</ele><time>2026-05-03T11:04:45.395Z</time></trkpt><trkpt lat="44.8585699" lon="9.0700338"><ele>321.6</ele><time>2026-05-03T11:04:46.398Z</time></trkpt><trkpt lat="44.8586577" lon="9.0699472"><ele>320.8</ele><time>2026-05-03T11:04:47.399Z</time></trkpt><trkpt lat="44.8587329" lon="9.0698612"><ele>320.0</ele><time>2026-05-03T11:04:48.396Z</time></trkpt><trkpt lat="44.8588011" lon="9.0697684"><ele>320.0</ele><time>2026-05-03T11:04:49.397Z</time></trkpt><trkpt lat="44.8588717" lon="9.0696626"><ele>320.0</ele><time>2026-05-03T11:04:50.402Z</time></trkpt><trkpt lat="44.8589369" lon="9.0695388"><ele>320.0</ele><time>2026-05-03T11:04:51.4Z</time></trkpt><trkpt lat="44.8589859" lon="9.0694249"><ele>320.0</ele><time>2026-05-03T11:04:52.401Z</time></trkpt><trkpt lat="44.8590008" lon="9.0693014"><ele>320.0</ele><time>2026-05-03T11:04:53.396Z</time></trkpt><trkpt lat="44.8590279" lon="9.0691731"><ele>321.0</ele><time>2026-05-03T11:04:54.397Z</time></trkpt><trkpt lat="44.859062" lon="9.0690572"><ele>322.0</ele><time>2026-05-03T11:04:55.408Z</time></trkpt><trkpt lat="44.8590886" lon="9.068972"><ele>323.0</ele><time>2026-05-03T11:04:56.398Z</time></trkpt><trkpt lat="44.8591744" lon="9.0689556"><ele>324.0</ele><time>2026-05-03T11:04:58.406Z</time></trkpt><trkpt lat="44.8592332" lon="9.069019"><ele>325.0</ele><time>2026-05-03T11:04:59.399Z</time></trkpt><trkpt lat="44.8593043" lon="9.0690723"><ele>326.0</ele><time>2026-05-03T11:05:00.414Z</time></trkpt><trkpt lat="44.8593777" lon="9.0691016"><ele>322.40000000000003</ele><time>2026-05-03T11:05:01.401Z</time></trkpt><trkpt lat="44.8594622" lon="9.0691207"><ele>318.8</ele><time>2026-05-03T11:05:02.401Z</time></trkpt><trkpt lat="44.8595458" lon="9.0691437"><ele>315.20000000000005</ele><time>2026-05-03T11:05:03.4Z</time></trkpt><trkpt lat="44.8596547" lon="9.0691689"><ele>311.6</ele><time>2026-05-03T11:05:04.404Z</time></trkpt><trkpt lat="44.8597591" lon="9.0691874"><ele>308.0</ele><time>2026-05-03T11:05:05.398Z</time></trkpt><trkpt lat="44.859862" lon="9.0691862"><ele>308.0</ele><time>2026-05-03T11:05:06.399Z</time></trkpt><trkpt lat="44.8599744" lon="9.0692004"><ele>308.0</ele><time>2026-05-03T11:05:07.403Z</time></trkpt><trkpt lat="44.8600873" lon="9.0691903"><ele>308.0</ele><time>2026-05-03T11:05:08.399Z</time></trkpt><trkpt lat="44.8601734" lon="9.0691819"><ele>308.0</ele><time>2026-05-03T11:05:09.406Z</time></trkpt><trkpt lat="44.8602657" lon="9.0691725"><ele>308.0</ele><time>2026-05-03T11:05:10.434Z</time></trkpt><trkpt lat="44.8603538" lon="9.0691604"><ele>304.5</ele><time>2026-05-03T11:05:11.403Z</time></trkpt><trkpt lat="44.860431" lon="9.0691424"><ele>301.0</ele><time>2026-05-03T11:05:12.398Z</time></trkpt><trkpt lat="44.8605073" lon="9.0691062"><ele>297.5</ele><time>2026-05-03T11:05:13.399Z</time></trkpt><trkpt lat="44.8605897" lon="9.069053"><ele>294.0</ele><time>2026-05-03T11:05:14.4Z</time></trkpt><trkpt lat="44.8606634" lon="9.0689822"><ele>290.5</ele><time>2026-05-03T11:05:15.4Z</time></trkpt><trkpt lat="44.8607337" lon="9.0689169"><ele>287.0</ele><time>2026-05-03T11:05:16.409Z</time></trkpt><trkpt lat="44.8607962" lon="9.0688254"><ele>287.0</ele><time>2026-05-03T11:05:17.4Z</time></trkpt><trkpt lat="44.8608509" lon="9.0687453"><ele>287.0</ele><time>2026-05-03T11:05:18.405Z</time></trkpt><trkpt lat="44.8608898" lon="9.0686342"><ele>287.0</ele><time>2026-05-03T11:05:19.397Z</time></trkpt><trkpt lat="44.8608953" lon="9.0684872"><ele>287.0</ele><time>2026-05-03T11:05:20.401Z</time></trkpt><trkpt lat="44.8608669" lon="9.0683697"><ele>287.0</ele><time>2026-05-03T11:05:21.397Z</time></trkpt><trkpt lat="44.8608074" lon="9.0682425"><ele>288.4</ele><time>2026-05-03T11:05:22.406Z</time></trkpt><trkpt lat="44.8607745" lon="9.0681376"><ele>289.79999999999995</ele><time>2026-05-03T11:05:23.4Z</time></trkpt><trkpt lat="44.8607568" lon="9.0680401"><ele>291.2</ele><time>2026-05-03T11:05:24.404Z</time></trkpt><trkpt lat="44.860839" lon="9.0679037"><ele>292.59999999999997</ele><time>2026-05-03T11:05:26.399Z</time></trkpt><trkpt lat="44.860916" lon="9.0678171"><ele>294.0</ele><time>2026-05-03T11:05:27.4Z</time></trkpt><trkpt lat="44.8609654" lon="9.0677294"><ele>287.4</ele><time>2026-05-03T11:05:28.403Z</time></trkpt><trkpt lat="44.8610129" lon="9.0676301"><ele>280.79999999999995</ele><time>2026-05-03T11:05:29.402Z</time></trkpt><trkpt lat="44.8610606" lon="9.0675172"><ele>274.20000000000005</ele><time>2026-05-03T11:05:30.4Z</time></trkpt><trkpt lat="44.8611052" lon="9.067396"><ele>267.6</ele><time>2026-05-03T11:05:31.4Z</time></trkpt><trkpt lat="44.8611424" lon="9.0672705"><ele>261.0</ele><time>2026-05-03T11:05:32.409Z</time></trkpt><trkpt lat="44.8611702" lon="9.067149"><ele>261.0</ele><time>2026-05-03T11:05:33.405Z</time></trkpt><trkpt lat="44.8612306" lon="9.0670218"><ele>261.0</ele><time>2026-05-03T11:05:34.401Z</time></trkpt><trkpt lat="44.8612701" lon="9.0669105"><ele>261.0</ele><time>2026-05-03T11:05:35.4Z</time></trkpt><trkpt lat="44.8613217" lon="9.0667482"><ele>261.0</ele><time>2026-05-03T11:05:37.402Z</time></trkpt><trkpt lat="44.8614781" lon="9.0667606"><ele>261.0</ele><time>2026-05-03T11:05:39.402Z</time></trkpt><trkpt lat="44.8615482" lon="9.0667873"><ele>261.0</ele><time>2026-05-03T11:05:40.402Z</time></trkpt><trkpt lat="44.8616695" lon="9.0666792"><ele>261.0</ele><time>2026-05-03T11:05:42.402Z</time></trkpt><trkpt lat="44.8617379" lon="9.0665752"><ele>261.0</ele><time>2026-05-03T11:05:43.4Z</time></trkpt><trkpt lat="44.8618119" lon="9.0664835"><ele>261.0</ele><time>2026-05-03T11:05:44.402Z</time></trkpt><trkpt lat="44.8618728" lon="9.0664358"><ele>259.3333333333333</ele><time>2026-05-03T11:05:45.4Z</time></trkpt><trkpt lat="44.8619487" lon="9.0663944"><ele>257.6666666666667</ele><time>2026-05-03T11:05:46.398Z</time></trkpt><trkpt lat="44.8620299" lon="9.0663781"><ele>256.0</ele><time>2026-05-03T11:05:47.4Z</time></trkpt><trkpt lat="44.8621018" lon="9.0663451"><ele>254.33333333333334</ele><time>2026-05-03T11:05:48.398Z</time></trkpt><trkpt lat="44.8621955" lon="9.0662866"><ele>252.66666666666669</ele><time>2026-05-03T11:05:50.406Z</time></trkpt><trkpt lat="44.8622427" lon="9.0662085"><ele>251.0</ele><time>2026-05-03T11:06:27.397Z</time></trkpt><trkpt lat="44.8622921" lon="9.06612"><ele>251.0</ele><time>2026-05-03T11:06:29.402Z</time></trkpt><trkpt lat="44.862338" lon="9.0660352"><ele>251.00000000000003</ele><time>2026-05-03T11:06:30.399Z</time></trkpt><trkpt lat="44.862394" lon="9.0659359"><ele>251.00000000000003</ele><time>2026-05-03T11:06:31.401Z</time></trkpt><trkpt lat="44.8624633" lon="9.0658207"><ele>251.0</ele><time>2026-05-03T11:06:32.396Z</time></trkpt><trkpt lat="44.8625404" lon="9.0656955"><ele>251.0</ele><time>2026-05-03T11:06:33.399Z</time></trkpt><trkpt lat="44.8626206" lon="9.0655653"><ele>249.8</ele><time>2026-05-03T11:06:34.399Z</time></trkpt><trkpt lat="44.8626955" lon="9.0654379"><ele>248.60000000000002</ele><time>2026-05-03T11:06:35.396Z</time></trkpt><trkpt lat="44.8627651" lon="9.0653334"><ele>247.4</ele><time>2026-05-03T11:06:36.409Z</time></trkpt><trkpt lat="44.8628382" lon="9.065266"><ele>246.2</ele><time>2026-05-03T11:06:37.405Z</time></trkpt><trkpt lat="44.8629116" lon="9.065256"><ele>245.0</ele><time>2026-05-03T11:06:38.4Z</time></trkpt><trkpt lat="44.862995" lon="9.0653035"><ele>245.0</ele><time>2026-05-03T11:06:39.398Z</time></trkpt><trkpt lat="44.8630934" lon="9.0654058"><ele>245.0</ele><time>2026-05-03T11:06:40.398Z</time></trkpt><trkpt lat="44.8632057" lon="9.0655494"><ele>245.0</ele><time>2026-05-03T11:06:41.407Z</time></trkpt><trkpt lat="44.8633272" lon="9.0657153"><ele>245.0</ele><time>2026-05-03T11:06:42.398Z</time></trkpt><trkpt lat="44.8634601" lon="9.0658948"><ele>243.0</ele><time>2026-05-03T11:06:43.4Z</time></trkpt><trkpt lat="44.8636009" lon="9.0660811"><ele>241.0</ele><time>2026-05-03T11:06:44.399Z</time></trkpt><trkpt lat="44.8637419" lon="9.0662652"><ele>239.0</ele><time>2026-05-03T11:06:45.402Z</time></trkpt><trkpt lat="44.8638792" lon="9.0664415"><ele>238.66666666666669</ele><time>2026-05-03T11:06:46.404Z</time></trkpt><trkpt lat="44.8640153" lon="9.0666136"><ele>238.33333333333331</ele><time>2026-05-03T11:06:47.402Z</time></trkpt><trkpt lat="44.8641483" lon="9.0667879"><ele>238.0</ele><time>2026-05-03T11:06:48.397Z</time></trkpt><trkpt lat="44.8642721" lon="9.0669545"><ele>237.5</ele><time>2026-05-03T11:06:49.401Z</time></trkpt><trkpt lat="44.8643891" lon="9.067114"><ele>237.0</ele><time>2026-05-03T11:06:50.4Z</time></trkpt><trkpt lat="44.8644915" lon="9.0672521"><ele>236.5</ele><time>2026-05-03T11:06:51.399Z</time></trkpt><trkpt lat="44.8645821" lon="9.0673765"><ele>236.0</ele><time>2026-05-03T11:06:52.399Z</time></trkpt><trkpt lat="44.8646682" lon="9.0674807"><ele>235.8</ele><time>2026-05-03T11:06:53.399Z</time></trkpt><trkpt lat="44.8647573" lon="9.0675535"><ele>235.60000000000002</ele><time>2026-05-03T11:06:54.4Z</time></trkpt><trkpt lat="44.8648513" lon="9.0675839"><ele>235.4</ele><time>2026-05-03T11:06:55.399Z</time></trkpt><trkpt lat="44.8649561" lon="9.0675683"><ele>235.2</ele><time>2026-05-03T11:06:56.399Z</time></trkpt><trkpt lat="44.8650664" lon="9.0675202"><ele>235.0</ele><time>2026-05-03T11:06:57.399Z</time></trkpt><trkpt lat="44.8651737" lon="9.0674326"><ele>234.75</ele><time>2026-05-03T11:06:58.401Z</time></trkpt><trkpt lat="44.8652678" lon="9.0673088"><ele>234.5</ele><time>2026-05-03T11:06:59.398Z</time></trkpt><trkpt lat="44.8653481" lon="9.0671556"><ele>234.25</ele><time>2026-05-03T11:07:00.398Z</time></trkpt><trkpt lat="44.8654255" lon="9.0669924"><ele>234.0</ele><time>2026-05-03T11:07:01.4Z</time></trkpt><trkpt lat="44.8655101" lon="9.0668207"><ele>234.0</ele><time>2026-05-03T11:07:02.4Z</time></trkpt><trkpt lat="44.8656012" lon="9.0666622"><ele>234.0</ele><time>2026-05-03T11:07:03.403Z</time></trkpt><trkpt lat="44.8656871" lon="9.06653"><ele>234.0</ele><time>2026-05-03T11:07:04.749Z</time></trkpt><trkpt lat="44.8657586" lon="9.0664198"><ele>234.0</ele><time>2026-05-03T11:07:05.737Z</time></trkpt><trkpt lat="44.8658228" lon="9.0663184"><ele>234.2</ele><time>2026-05-03T11:07:06.74Z</time></trkpt><trkpt lat="44.8658891" lon="9.0662156"><ele>234.39999999999998</ele><time>2026-05-03T11:07:07.741Z</time></trkpt><trkpt lat="44.8659562" lon="9.0661079"><ele>234.6</ele><time>2026-05-03T11:07:08.735Z</time></trkpt><trkpt lat="44.8660256" lon="9.065991"><ele>234.8</ele><time>2026-05-03T11:07:09.736Z</time></trkpt><trkpt lat="44.8661005" lon="9.0658727"><ele>235.0</ele><time>2026-05-03T11:07:10.741Z</time></trkpt><trkpt lat="44.8661713" lon="9.0657657"><ele>235.49999999999997</ele><time>2026-05-03T11:07:11.743Z</time></trkpt><trkpt lat="44.8662359" lon="9.0656712"><ele>236.0</ele><time>2026-05-03T11:07:12.742Z</time></trkpt><trkpt lat="44.866293" lon="9.0655889"><ele>236.5</ele><time>2026-05-03T11:07:13.74Z</time></trkpt><trkpt lat="44.8663439" lon="9.0655152"><ele>237.0</ele><time>2026-05-03T11:07:14.738Z</time></trkpt><trkpt lat="44.8663927" lon="9.0654479"><ele>237.49999999999997</ele><time>2026-05-03T11:07:15.743Z</time></trkpt><trkpt lat="44.8664433" lon="9.0653839"><ele>238.0</ele><time>2026-05-03T11:07:16.737Z</time></trkpt><trkpt lat="44.8664992" lon="9.0653176"><ele>238.0</ele><time>2026-05-03T11:07:17.739Z</time></trkpt><trkpt lat="44.8665537" lon="9.0652513"><ele>238.0</ele><time>2026-05-03T11:07:18.741Z</time></trkpt><trkpt lat="44.8666013" lon="9.0651925"><ele>238.0</ele><time>2026-05-03T11:07:19.739Z</time></trkpt><trkpt lat="44.8666762" lon="9.0650803"><ele>238.0</ele><time>2026-05-03T11:07:21.745Z</time></trkpt><trkpt lat="44.866685" lon="9.064944"><ele>238.0</ele><time>2026-05-03T11:07:23.738Z</time></trkpt><trkpt lat="44.8666029" lon="9.0647992"><ele>237.83333333333331</ele><time>2026-05-03T11:07:25.739Z</time></trkpt><trkpt lat="44.8665421" lon="9.0647222"><ele>237.66666666666666</ele><time>2026-05-03T11:07:26.744Z</time></trkpt><trkpt lat="44.8664735" lon="9.0646434"><ele>237.5</ele><time>2026-05-03T11:07:27.738Z</time></trkpt><trkpt lat="44.866407" lon="9.0645675"><ele>237.33333333333331</ele><time>2026-05-03T11:07:28.736Z</time></trkpt><trkpt lat="44.8663455" lon="9.0644961"><ele>237.16666666666666</ele><time>2026-05-03T11:07:29.742Z</time></trkpt><trkpt lat="44.866285" lon="9.0644309"><ele>237.0</ele><time>2026-05-03T11:07:30.741Z</time></trkpt><trkpt lat="44.8662259" lon="9.0643585"><ele>237.0</ele><time>2026-05-03T11:07:31.739Z</time></trkpt><trkpt lat="44.8661052" lon="9.0641987"><ele>237.0</ele><time>2026-05-03T11:07:33.742Z</time></trkpt><trkpt lat="44.865962" lon="9.0638809"><ele>237.0</ele><time>2026-05-03T11:07:37.738Z</time></trkpt><trkpt lat="44.8662123" lon="9.0634967"><ele>237.0</ele><time>2026-05-03T11:07:41.759Z</time></trkpt><trkpt lat="44.8665117" lon="9.0630617"><ele>237.0</ele><time>2026-05-03T11:07:46.737Z</time></trkpt><trkpt lat="44.8666243" lon="9.0627894"><ele>237.0</ele><time>2026-05-03T11:07:49.738Z</time></trkpt><trkpt lat="44.8666524" lon="9.0626779"><ele>237.0</ele><time>2026-05-03T11:07:50.734Z</time></trkpt><trkpt lat="44.8666721" lon="9.0624236"><ele>237.0</ele><time>2026-05-03T11:07:52.736Z</time></trkpt><trkpt lat="44.8666618" lon="9.0622934"><ele>237.0</ele><time>2026-05-03T11:07:53.744Z</time></trkpt><trkpt lat="44.8666528" lon="9.0621667"><ele>237.0</ele><time>2026-05-03T11:07:54.736Z</time></trkpt><trkpt lat="44.8667218" lon="9.0616941"><ele>241.66666666666669</ele><time>2026-05-03T11:07:58.743Z</time></trkpt><trkpt lat="44.8668798" lon="9.0614031"><ele>246.33333333333334</ele><time>2026-05-03T11:08:01.738Z</time></trkpt><trkpt lat="44.8669505" lon="9.0613157"><ele>251.0</ele><time>2026-05-03T11:08:02.738Z</time></trkpt><trkpt lat="44.8672854" lon="9.0610435"><ele>252.5</ele><time>2026-05-03T11:08:06.736Z</time></trkpt><trkpt lat="44.8676294" lon="9.0607795"><ele>254.0</ele><time>2026-05-03T11:08:10.738Z</time></trkpt><trkpt lat="44.8678947" lon="9.0605889"><ele>254.0</ele><time>2026-05-03T11:08:13.736Z</time></trkpt><trkpt lat="44.8679749" lon="9.060532"><ele>254.0</ele><time>2026-05-03T11:08:14.737Z</time></trkpt><trkpt lat="44.8681698" lon="9.0602732"><ele>254.0</ele><time>2026-05-03T11:08:17.741Z</time></trkpt><trkpt lat="44.8682834" lon="9.0597508"><ele>254.0</ele><time>2026-05-03T11:08:21.738Z</time></trkpt><trkpt lat="44.8684971" lon="9.0594138"><ele>254.0</ele><time>2026-05-03T11:08:24.744Z</time></trkpt><trkpt lat="44.8685821" lon="9.0593222"><ele>254.0</ele><time>2026-05-03T11:08:25.737Z</time></trkpt><trkpt lat="44.8689413" lon="9.059172"><ele>252.5</ele><time>2026-05-03T11:08:29.742Z</time></trkpt><trkpt lat="44.8692782" lon="9.0593613"><ele>251.0</ele><time>2026-05-03T11:08:33.737Z</time></trkpt><trkpt lat="44.8696275" lon="9.0595291"><ele>251.0</ele><time>2026-05-03T11:08:37.74Z</time></trkpt><trkpt lat="44.8700321" lon="9.0595237"><ele>251.0</ele><time>2026-05-03T11:08:41.739Z</time></trkpt><trkpt lat="44.8703229" lon="9.0594644"><ele>250.25</ele><time>2026-05-03T11:08:44.737Z</time></trkpt><trkpt lat="44.8704119" lon="9.0594257"><ele>249.5</ele><time>2026-05-03T11:08:45.74Z</time></trkpt><trkpt lat="44.870507" lon="9.0593628"><ele>248.75</ele><time>2026-05-03T11:08:46.735Z</time></trkpt><trkpt lat="44.8706757" lon="9.0591609"><ele>248.0</ele><time>2026-05-03T11:08:48.745Z</time></trkpt><trkpt lat="44.8707443" lon="9.0590373"><ele>248.0</ele><time>2026-05-03T11:08:49.743Z</time></trkpt><trkpt lat="44.8707958" lon="9.0589053"><ele>248.0</ele><time>2026-05-03T11:08:50.74Z</time></trkpt><trkpt lat="44.870831" lon="9.0586213"><ele>248.0</ele><time>2026-05-03T11:08:52.734Z</time></trkpt><trkpt lat="44.8708012" lon="9.0583855"><ele>248.0</ele><time>2026-05-03T11:08:54.736Z</time></trkpt><trkpt lat="44.8708061" lon="9.0582901"><ele>248.0</ele><time>2026-05-03T11:08:55.737Z</time></trkpt><trkpt lat="44.8708384" lon="9.0582074"><ele>248.0</ele><time>2026-05-03T11:08:56.737Z</time></trkpt><trkpt lat="44.8711806" lon="9.0582347"><ele>248.25</ele><time>2026-05-03T11:09:00.737Z</time></trkpt><trkpt lat="44.8713075" lon="9.0583653"><ele>248.5</ele><time>2026-05-03T11:09:01.74Z</time></trkpt><trkpt lat="44.8714158" lon="9.058475"><ele>248.75</ele><time>2026-05-03T11:09:02.739Z</time></trkpt><trkpt lat="44.8715127" lon="9.058566"><ele>249.0</ele><time>2026-05-03T11:09:03.739Z</time></trkpt><trkpt lat="44.8716056" lon="9.0586459"><ele>249.0</ele><time>2026-05-03T11:09:04.739Z</time></trkpt><trkpt lat="44.8716909" lon="9.0587193"><ele>249.0</ele><time>2026-05-03T11:09:05.736Z</time></trkpt><trkpt lat="44.8717747" lon="9.0587883"><ele>249.0</ele><time>2026-05-03T11:09:06.736Z</time></trkpt><trkpt lat="44.8718528" lon="9.0588472"><ele>249.0</ele><time>2026-05-03T11:09:07.739Z</time></trkpt><trkpt lat="44.8719209" lon="9.0588848"><ele>249.0</ele><time>2026-05-03T11:09:08.739Z</time></trkpt><trkpt lat="44.8719853" lon="9.0588851"><ele>249.0</ele><time>2026-05-03T11:09:09.739Z</time></trkpt><trkpt lat="44.8720635" lon="9.0588447"><ele>247.75</ele><time>2026-05-03T11:09:10.743Z</time></trkpt><trkpt lat="44.8721584" lon="9.0587664"><ele>246.5</ele><time>2026-05-03T11:09:11.745Z</time></trkpt><trkpt lat="44.8722615" lon="9.0586652"><ele>245.25</ele><time>2026-05-03T11:09:12.74Z</time></trkpt><trkpt lat="44.872373" lon="9.0585556"><ele>244.0</ele><time>2026-05-03T11:09:13.736Z</time></trkpt><trkpt lat="44.8724863" lon="9.058449"><ele>244.0</ele><time>2026-05-03T11:09:14.739Z</time></trkpt><trkpt lat="44.8725975" lon="9.0583561"><ele>244.0</ele><time>2026-05-03T11:09:15.737Z</time></trkpt><trkpt lat="44.872701" lon="9.0582681"><ele>244.0</ele><time>2026-05-03T11:09:16.752Z</time></trkpt><trkpt lat="44.8728062" lon="9.058184"><ele>244.0</ele><time>2026-05-03T11:09:17.736Z</time></trkpt><trkpt lat="44.8729122" lon="9.0580954"><ele>243.0</ele><time>2026-05-03T11:09:18.734Z</time></trkpt><trkpt lat="44.8730216" lon="9.0580033"><ele>242.0</ele><time>2026-05-03T11:09:19.74Z</time></trkpt><trkpt lat="44.873133" lon="9.0579146"><ele>241.0</ele><time>2026-05-03T11:09:20.742Z</time></trkpt><trkpt lat="44.8732459" lon="9.05782"><ele>240.0</ele><time>2026-05-03T11:09:21.736Z</time></trkpt><trkpt lat="44.8733583" lon="9.057731"><ele>239.75</ele><time>2026-05-03T11:09:22.743Z</time></trkpt><trkpt lat="44.8734649" lon="9.0576474"><ele>239.5</ele><time>2026-05-03T11:09:23.735Z</time></trkpt><trkpt lat="44.8735601" lon="9.0575766"><ele>239.25</ele><time>2026-05-03T11:09:24.739Z</time></trkpt><trkpt lat="44.8736523" lon="9.0575059"><ele>239.0</ele><time>2026-05-03T11:09:25.737Z</time></trkpt><trkpt lat="44.8737499" lon="9.0574198"><ele>239.0</ele><time>2026-05-03T11:09:26.736Z</time></trkpt><trkpt lat="44.8738587" lon="9.0573208"><ele>239.0</ele><time>2026-05-03T11:09:27.738Z</time></trkpt><trkpt lat="44.8739744" lon="9.0572206"><ele>239.0</ele><time>2026-05-03T11:09:28.735Z</time></trkpt><trkpt lat="44.8740905" lon="9.0571223"><ele>239.0</ele><time>2026-05-03T11:09:29.736Z</time></trkpt><trkpt lat="44.8741977" lon="9.0570314"><ele>237.25</ele><time>2026-05-03T11:09:30.736Z</time></trkpt><trkpt lat="44.8742961" lon="9.056949"><ele>235.5</ele><time>2026-05-03T11:09:31.735Z</time></trkpt><trkpt lat="44.8743923" lon="9.0568683"><ele>233.75</ele><time>2026-05-03T11:09:32.74Z</time></trkpt><trkpt lat="44.8744915" lon="9.05679"><ele>232.0</ele><time>2026-05-03T11:09:33.738Z</time></trkpt><trkpt lat="44.8745933" lon="9.0567086"><ele>232.0</ele><time>2026-05-03T11:09:34.735Z</time></trkpt><trkpt lat="44.8747" lon="9.0566219"><ele>232.0</ele><time>2026-05-03T11:09:35.738Z</time></trkpt><trkpt lat="44.8748127" lon="9.0565261"><ele>232.0</ele><time>2026-05-03T11:09:36.74Z</time></trkpt><trkpt lat="44.8749261" lon="9.0564191"><ele>232.0</ele><time>2026-05-03T11:09:37.745Z</time></trkpt><trkpt lat="44.875032" lon="9.0563192"><ele>232.75</ele><time>2026-05-03T11:09:38.74Z</time></trkpt><trkpt lat="44.8751398" lon="9.0562302"><ele>233.5</ele><time>2026-05-03T11:09:39.739Z</time></trkpt><trkpt lat="44.8752462" lon="9.0561526"><ele>234.25</ele><time>2026-05-03T11:09:40.741Z</time></trkpt><trkpt lat="44.8753494" lon="9.0560753"><ele>235.0</ele><time>2026-05-03T11:09:41.737Z</time></trkpt><trkpt lat="44.8754461" lon="9.0559981"><ele>235.0</ele><time>2026-05-03T11:09:42.74Z</time></trkpt><trkpt lat="44.8755353" lon="9.0559206"><ele>235.0</ele><time>2026-05-03T11:09:43.737Z</time></trkpt><trkpt lat="44.875625" lon="9.0558481"><ele>235.0</ele><time>2026-05-03T11:09:44.736Z</time></trkpt><trkpt lat="44.8757203" lon="9.0557777"><ele>235.0</ele><time>2026-05-03T11:09:45.737Z</time></trkpt><trkpt lat="44.875819" lon="9.0557013"><ele>235.0</ele><time>2026-05-03T11:09:46.736Z</time></trkpt><trkpt lat="44.8759249" lon="9.055623"><ele>234.4</ele><time>2026-05-03T11:09:47.738Z</time></trkpt><trkpt lat="44.8760345" lon="9.0555342"><ele>233.8</ele><time>2026-05-03T11:09:48.737Z</time></trkpt><trkpt lat="44.8761371" lon="9.0554511"><ele>233.2</ele><time>2026-05-03T11:09:49.736Z</time></trkpt><trkpt lat="44.8761974" lon="9.0553751"><ele>232.6</ele><time>2026-05-03T11:09:50.743Z</time></trkpt><trkpt lat="44.8762723" lon="9.0553162"><ele>232.0</ele><time>2026-05-03T11:09:51.739Z</time></trkpt><trkpt lat="44.8763568" lon="9.0552969"><ele>232.0</ele><time>2026-05-03T11:09:52.736Z</time></trkpt><trkpt lat="44.8764485" lon="9.0553201"><ele>232.0</ele><time>2026-05-03T11:09:53.737Z</time></trkpt><trkpt lat="44.8765498" lon="9.0553779"><ele>232.0</ele><time>2026-05-03T11:09:54.736Z</time></trkpt><trkpt lat="44.8766629" lon="9.0554589"><ele>232.0</ele><time>2026-05-03T11:09:55.74Z</time></trkpt><trkpt lat="44.8767888" lon="9.0555469"><ele>231.5</ele><time>2026-05-03T11:09:56.738Z</time></trkpt><trkpt lat="44.8769192" lon="9.0556244"><ele>231.0</ele><time>2026-05-03T11:09:57.743Z</time></trkpt><trkpt lat="44.8770433" lon="9.055689"><ele>230.5</ele><time>2026-05-03T11:09:58.736Z</time></trkpt><trkpt lat="44.8771615" lon="9.0557482"><ele>230.0</ele><time>2026-05-03T11:09:59.741Z</time></trkpt><trkpt lat="44.8772696" lon="9.0557989"><ele>229.2</ele><time>2026-05-03T11:10:00.742Z</time></trkpt><trkpt lat="44.8773711" lon="9.0558409"><ele>228.4</ele><time>2026-05-03T11:10:01.738Z</time></trkpt><trkpt lat="44.8774797" lon="9.0558752"><ele>227.60000000000002</ele><time>2026-05-03T11:10:02.739Z</time></trkpt><trkpt lat="44.8775896" lon="9.0558956"><ele>226.8</ele><time>2026-05-03T11:10:03.739Z</time></trkpt><trkpt lat="44.8777006" lon="9.05591"><ele>226.0</ele><time>2026-05-03T11:10:04.741Z</time></trkpt><trkpt lat="44.8778045" lon="9.0559049"><ele>225.5</ele><time>2026-05-03T11:10:05.741Z</time></trkpt><trkpt lat="44.8779086" lon="9.0558838"><ele>225.0</ele><time>2026-05-03T11:10:06.752Z</time></trkpt><trkpt lat="44.878011" lon="9.0558356"><ele>224.5</ele><time>2026-05-03T11:10:07.742Z</time></trkpt><trkpt lat="44.8781188" lon="9.05576"><ele>224.0</ele><time>2026-05-03T11:10:08.738Z</time></trkpt><trkpt lat="44.8782296" lon="9.0556836"><ele>224.0</ele><time>2026-05-03T11:10:09.738Z</time></trkpt><trkpt lat="44.8783496" lon="9.0556169"><ele>224.0</ele><time>2026-05-03T11:10:10.741Z</time></trkpt><trkpt lat="44.8784719" lon="9.0555638"><ele>224.0</ele><time>2026-05-03T11:10:11.74Z</time></trkpt><trkpt lat="44.878591" lon="9.0555064"><ele>224.0</ele><time>2026-05-03T11:10:12.739Z</time></trkpt><trkpt lat="44.8786996" lon="9.0554491"><ele>223.39999999999998</ele><time>2026-05-03T11:10:13.736Z</time></trkpt><trkpt lat="44.8787921" lon="9.0553957"><ele>222.79999999999998</ele><time>2026-05-03T11:10:14.736Z</time></trkpt><trkpt lat="44.8788819" lon="9.0553572"><ele>222.20000000000002</ele><time>2026-05-03T11:10:15.74Z</time></trkpt><trkpt lat="44.8789478" lon="9.0554082"><ele>221.60000000000002</ele><time>2026-05-03T11:10:16.744Z</time></trkpt><trkpt lat="44.8790194" lon="9.0555164"><ele>221.0</ele><time>2026-05-03T11:10:17.739Z</time></trkpt><trkpt lat="44.8790845" lon="9.0556634"><ele>221.20000000000002</ele><time>2026-05-03T11:10:18.736Z</time></trkpt><trkpt lat="44.8791488" lon="9.0558104"><ele>221.40000000000003</ele><time>2026-05-03T11:10:19.739Z</time></trkpt><trkpt lat="44.879208" lon="9.0559317"><ele>221.6</ele><time>2026-05-03T11:10:20.742Z</time></trkpt><trkpt lat="44.8792683" lon="9.0560113"><ele>221.8</ele><time>2026-05-03T11:10:21.743Z</time></trkpt><trkpt lat="44.8793376" lon="9.0560575"><ele>222.0</ele><time>2026-05-03T11:10:22.736Z</time></trkpt><trkpt lat="44.879419" lon="9.0560596"><ele>222.0</ele><time>2026-05-03T11:10:23.741Z</time></trkpt><trkpt lat="44.879521" lon="9.0560109"><ele>222.0</ele><time>2026-05-03T11:10:24.741Z</time></trkpt><trkpt lat="44.8796386" lon="9.0559187"><ele>222.0</ele><time>2026-05-03T11:10:25.739Z</time></trkpt><trkpt lat="44.8797478" lon="9.0558131"><ele>222.0</ele><time>2026-05-03T11:10:26.74Z</time></trkpt><trkpt lat="44.8798424" lon="9.055718"><ele>222.2</ele><time>2026-05-03T11:10:27.741Z</time></trkpt><trkpt lat="44.8799317" lon="9.0556288"><ele>222.39999999999998</ele><time>2026-05-03T11:10:28.742Z</time></trkpt><trkpt lat="44.8800209" lon="9.0555434"><ele>222.60000000000002</ele><time>2026-05-03T11:10:29.741Z</time></trkpt><trkpt lat="44.8801076" lon="9.0554624"><ele>222.8</ele><time>2026-05-03T11:10:30.735Z</time></trkpt><trkpt lat="44.8801892" lon="9.055389"><ele>223.0</ele><time>2026-05-03T11:10:31.741Z</time></trkpt><trkpt lat="44.8802693" lon="9.0553104"><ele>223.0</ele><time>2026-05-03T11:10:32.736Z</time></trkpt><trkpt lat="44.8803553" lon="9.0552332"><ele>223.0</ele><time>2026-05-03T11:10:33.741Z</time></trkpt><trkpt lat="44.8804429" lon="9.0551512"><ele>223.0</ele><time>2026-05-03T11:10:34.739Z</time></trkpt><trkpt lat="44.8805199" lon="9.0550768"><ele>223.0</ele><time>2026-05-03T11:10:35.739Z</time></trkpt><trkpt lat="44.8805837" lon="9.0550087"><ele>223.0</ele><time>2026-05-03T11:10:36.738Z</time></trkpt><trkpt lat="44.8806419" lon="9.054954"><ele>222.99999999999997</ele><time>2026-05-03T11:10:37.739Z</time></trkpt><trkpt lat="44.8807046" lon="9.0549179"><ele>223.0</ele><time>2026-05-03T11:10:38.737Z</time></trkpt><trkpt lat="44.8807722" lon="9.0549056"><ele>223.0</ele><time>2026-05-03T11:10:39.738Z</time></trkpt><trkpt lat="44.8808561" lon="9.0549431"><ele>223.0</ele><time>2026-05-03T11:10:40.743Z</time></trkpt><trkpt lat="44.8809301" lon="9.0550257"><ele>222.99999999999997</ele><time>2026-05-03T11:10:41.739Z</time></trkpt><trkpt lat="44.8810039" lon="9.0551266"><ele>223.0</ele><time>2026-05-03T11:10:42.736Z</time></trkpt><trkpt lat="44.8810839" lon="9.0552059"><ele>222.60000000000002</ele><time>2026-05-03T11:10:43.746Z</time></trkpt><trkpt lat="44.8811792" lon="9.0552497"><ele>222.20000000000002</ele><time>2026-05-03T11:10:44.741Z</time></trkpt><trkpt lat="44.8812735" lon="9.0552767"><ele>221.8</ele><time>2026-05-03T11:10:45.737Z</time></trkpt><trkpt lat="44.8813761" lon="9.0553032"><ele>221.4</ele><time>2026-05-03T11:10:46.746Z</time></trkpt><trkpt lat="44.8814757" lon="9.0553385"><ele>221.0</ele><time>2026-05-03T11:10:47.735Z</time></trkpt><trkpt lat="44.8815682" lon="9.0553702"><ele>221.00000000000003</ele><time>2026-05-03T11:10:48.74Z</time></trkpt><trkpt lat="44.8816611" lon="9.0554015"><ele>221.0</ele><time>2026-05-03T11:10:49.752Z</time></trkpt><trkpt lat="44.8817477" lon="9.055406"><ele>221.0</ele><time>2026-05-03T11:10:50.745Z</time></trkpt><trkpt lat="44.8818268" lon="9.0553777"><ele>221.0</ele><time>2026-05-03T11:10:51.738Z</time></trkpt><trkpt lat="44.8818944" lon="9.0553014"><ele>221.00000000000003</ele><time>2026-05-03T11:10:52.735Z</time></trkpt><trkpt lat="44.8819446" lon="9.0551928"><ele>221.0</ele><time>2026-05-03T11:10:53.741Z</time></trkpt><trkpt lat="44.881989" lon="9.0550591"><ele>220.8</ele><time>2026-05-03T11:10:54.74Z</time></trkpt><trkpt lat="44.8820411" lon="9.0549214"><ele>220.60000000000002</ele><time>2026-05-03T11:10:55.739Z</time></trkpt><trkpt lat="44.8821016" lon="9.054795"><ele>220.4</ele><time>2026-05-03T11:10:56.737Z</time></trkpt><trkpt lat="44.8821856" lon="9.0546831"><ele>220.2</ele><time>2026-05-03T11:10:57.74Z</time></trkpt><trkpt lat="44.882286" lon="9.0546085"><ele>220.0</ele><time>2026-05-03T11:10:58.735Z</time></trkpt><trkpt lat="44.8823995" lon="9.0545756"><ele>220.0</ele><time>2026-05-03T11:10:59.736Z</time></trkpt><trkpt lat="44.8825222" lon="9.0545749"><ele>220.0</ele><time>2026-05-03T11:11:00.742Z</time></trkpt><trkpt lat="44.882643" lon="9.054575"><ele>220.0</ele><time>2026-05-03T11:11:01.736Z</time></trkpt><trkpt lat="44.8827539" lon="9.0545708"><ele>220.0</ele><time>2026-05-03T11:11:02.733Z</time></trkpt><trkpt lat="44.8828514" lon="9.0545593"><ele>218.8</ele><time>2026-05-03T11:11:03.743Z</time></trkpt><trkpt lat="44.8829487" lon="9.0545435"><ele>217.6</ele><time>2026-05-03T11:11:04.737Z</time></trkpt><trkpt lat="44.8830491" lon="9.0545169"><ele>216.39999999999998</ele><time>2026-05-03T11:11:05.746Z</time></trkpt><trkpt lat="44.883152" lon="9.0544746"><ele>215.2</ele><time>2026-05-03T11:11:06.737Z</time></trkpt><trkpt lat="44.8832585" lon="9.0544041"><ele>214.0</ele><time>2026-05-03T11:11:07.742Z</time></trkpt><trkpt lat="44.8833634" lon="9.0543063"><ele>212.0</ele><time>2026-05-03T11:11:08.739Z</time></trkpt><trkpt lat="44.8834645" lon="9.0541884"><ele>210.0</ele><time>2026-05-03T11:11:09.739Z</time></trkpt><trkpt lat="44.8835625" lon="9.054063"><ele>208.0</ele><time>2026-05-03T11:11:10.736Z</time></trkpt><trkpt lat="44.8836516" lon="9.0539492"><ele>206.0</ele><time>2026-05-03T11:11:11.752Z</time></trkpt><trkpt lat="44.8837326" lon="9.0538501"><ele>209.20000000000002</ele><time>2026-05-03T11:11:12.735Z</time></trkpt><trkpt lat="44.8838187" lon="9.0537478"><ele>212.4</ele><time>2026-05-03T11:11:13.744Z</time></trkpt><trkpt lat="44.883901" lon="9.0536513"><ele>215.6</ele><time>2026-05-03T11:11:14.738Z</time></trkpt><trkpt lat="44.8839848" lon="9.0535439"><ele>218.8</ele><time>2026-05-03T11:11:15.735Z</time></trkpt><trkpt lat="44.8840737" lon="9.0534406"><ele>222.0</ele><time>2026-05-03T11:11:16.733Z</time></trkpt><trkpt lat="44.8841703" lon="9.0533427"><ele>221.5</ele><time>2026-05-03T11:11:17.739Z</time></trkpt><trkpt lat="44.8842728" lon="9.0532451"><ele>221.0</ele><time>2026-05-03T11:11:18.734Z</time></trkpt><trkpt lat="44.8843855" lon="9.053127"><ele>220.5</ele><time>2026-05-03T11:11:19.738Z</time></trkpt><trkpt lat="44.8845127" lon="9.0529881"><ele>220.0</ele><time>2026-05-03T11:11:20.736Z</time></trkpt><trkpt lat="44.8846519" lon="9.0528509"><ele>220.0</ele><time>2026-05-03T11:11:21.736Z</time></trkpt><trkpt lat="44.8847925" lon="9.0527315"><ele>220.0</ele><time>2026-05-03T11:11:22.739Z</time></trkpt><trkpt lat="44.8849278" lon="9.0526318"><ele>220.0</ele><time>2026-05-03T11:11:23.737Z</time></trkpt><trkpt lat="44.8850726" lon="9.0525566"><ele>221.66666666666666</ele><time>2026-05-03T11:11:24.737Z</time></trkpt><trkpt lat="44.8852175" lon="9.0525142"><ele>223.33333333333331</ele><time>2026-05-03T11:11:25.737Z</time></trkpt><trkpt lat="44.8853761" lon="9.0524894"><ele>225.0</ele><time>2026-05-03T11:11:26.735Z</time></trkpt><trkpt lat="44.8855335" lon="9.0524547"><ele>225.0</ele><time>2026-05-03T11:11:27.74Z</time></trkpt><trkpt lat="44.8856865" lon="9.0524114"><ele>225.0</ele><time>2026-05-03T11:11:28.735Z</time></trkpt><trkpt lat="44.8858399" lon="9.0523603"><ele>225.0</ele><time>2026-05-03T11:11:29.735Z</time></trkpt><trkpt lat="44.8859879" lon="9.0523033"><ele>223.25</ele><time>2026-05-03T11:11:30.743Z</time></trkpt><trkpt lat="44.8861242" lon="9.0522565"><ele>221.5</ele><time>2026-05-03T11:11:31.736Z</time></trkpt><trkpt lat="44.8862604" lon="9.0522167"><ele>219.75</ele><time>2026-05-03T11:11:32.736Z</time></trkpt><trkpt lat="44.886398" lon="9.0521894"><ele>218.0</ele><time>2026-05-03T11:11:33.736Z</time></trkpt><trkpt lat="44.8865456" lon="9.0521724"><ele>218.0</ele><time>2026-05-03T11:11:34.735Z</time></trkpt><trkpt lat="44.886699" lon="9.0521839"><ele>218.0</ele><time>2026-05-03T11:11:35.739Z</time></trkpt><trkpt lat="44.8868561" lon="9.0522108"><ele>218.0</ele><time>2026-05-03T11:11:36.737Z</time></trkpt><trkpt lat="44.8870021" lon="9.0522729"><ele>216.0</ele><time>2026-05-03T11:11:37.736Z</time></trkpt><trkpt lat="44.8871454" lon="9.0523503"><ele>214.0</ele><time>2026-05-03T11:11:38.738Z</time></trkpt><trkpt lat="44.8872804" lon="9.0524317"><ele>212.0</ele><time>2026-05-03T11:11:39.736Z</time></trkpt><trkpt lat="44.8874099" lon="9.0525139"><ele>210.0</ele><time>2026-05-03T11:11:40.736Z</time></trkpt><trkpt lat="44.8875286" lon="9.0525975"><ele>209.25</ele><time>2026-05-03T11:11:41.739Z</time></trkpt><trkpt lat="44.8876371" lon="9.0526576"><ele>208.5</ele><time>2026-05-03T11:11:42.737Z</time></trkpt><trkpt lat="44.8877445" lon="9.0526791"><ele>207.75</ele><time>2026-05-03T11:11:43.738Z</time></trkpt><trkpt lat="44.8878616" lon="9.0526606"><ele>207.0</ele><time>2026-05-03T11:11:44.736Z</time></trkpt><trkpt lat="44.8879831" lon="9.0526085"><ele>207.0</ele><time>2026-05-03T11:11:45.75Z</time></trkpt><trkpt lat="44.8881199" lon="9.0525564"><ele>207.0</ele><time>2026-05-03T11:11:46.75Z</time></trkpt><trkpt lat="44.8882547" lon="9.0525571"><ele>207.0</ele><time>2026-05-03T11:11:47.741Z</time></trkpt><trkpt lat="44.8883921" lon="9.0525954"><ele>207.0</ele><time>2026-05-03T11:11:48.74Z</time></trkpt><trkpt lat="44.8885326" lon="9.0526768"><ele>207.33333333333331</ele><time>2026-05-03T11:11:49.738Z</time></trkpt><trkpt lat="44.8886701" lon="9.0527905"><ele>207.66666666666666</ele><time>2026-05-03T11:11:50.737Z</time></trkpt><trkpt lat="44.8888031" lon="9.0529224"><ele>208.0</ele><time>2026-05-03T11:11:51.736Z</time></trkpt><trkpt lat="44.8889247" lon="9.0530515"><ele>208.0</ele><time>2026-05-03T11:11:52.737Z</time></trkpt><trkpt lat="44.8890424" lon="9.0531543"><ele>208.0</ele><time>2026-05-03T11:11:53.741Z</time></trkpt><trkpt lat="44.889159" lon="9.0532116"><ele>208.0</ele><time>2026-05-03T11:11:54.738Z</time></trkpt><trkpt lat="44.8892791" lon="9.053225"><ele>208.0</ele><time>2026-05-03T11:11:55.739Z</time></trkpt><trkpt lat="44.8894038" lon="9.0531948"><ele>207.5</ele><time>2026-05-03T11:11:56.74Z</time></trkpt><trkpt lat="44.8895338" lon="9.0531435"><ele>207.0</ele><time>2026-05-03T11:11:57.735Z</time></trkpt><trkpt lat="44.8896754" lon="9.0530846"><ele>206.5</ele><time>2026-05-03T11:11:58.743Z</time></trkpt><trkpt lat="44.8898269" lon="9.0530182"><ele>206.0</ele><time>2026-05-03T11:11:59.741Z</time></trkpt><trkpt lat="44.8899821" lon="9.0529452"><ele>205.66666666666669</ele><time>2026-05-03T11:12:00.737Z</time></trkpt><trkpt lat="44.8901424" lon="9.0528749"><ele>205.33333333333331</ele><time>2026-05-03T11:12:01.739Z</time></trkpt><trkpt lat="44.890306" lon="9.0528029"><ele>205.0</ele><time>2026-05-03T11:12:02.739Z</time></trkpt><trkpt lat="44.8904705" lon="9.0527324"><ele>205.0</ele><time>2026-05-03T11:12:03.738Z</time></trkpt><trkpt lat="44.8906349" lon="9.0526655"><ele>205.0</ele><time>2026-05-03T11:12:04.742Z</time></trkpt><trkpt lat="44.8907959" lon="9.0526031"><ele>205.0</ele><time>2026-05-03T11:12:05.74Z</time></trkpt><trkpt lat="44.8909583" lon="9.0525379"><ele>206.0</ele><time>2026-05-03T11:12:06.736Z</time></trkpt><trkpt lat="44.891122" lon="9.0524688"><ele>207.0</ele><time>2026-05-03T11:12:07.738Z</time></trkpt><trkpt lat="44.891284" lon="9.0523987"><ele>208.0</ele><time>2026-05-03T11:12:08.738Z</time></trkpt><trkpt lat="44.8914459" lon="9.0523278"><ele>208.0</ele><time>2026-05-03T11:12:09.735Z</time></trkpt><trkpt lat="44.8916066" lon="9.052256"><ele>208.0</ele><time>2026-05-03T11:12:10.739Z</time></trkpt><trkpt lat="44.8917644" lon="9.0521812"><ele>208.0</ele><time>2026-05-03T11:12:11.736Z</time></trkpt><trkpt lat="44.8919253" lon="9.0521111"><ele>207.0</ele><time>2026-05-03T11:12:12.736Z</time></trkpt><trkpt lat="44.8920828" lon="9.0520382"><ele>206.0</ele><time>2026-05-03T11:12:13.739Z</time></trkpt><trkpt lat="44.8922334" lon="9.0519683"><ele>205.0</ele><time>2026-05-03T11:12:14.734Z</time></trkpt><trkpt lat="44.8923707" lon="9.0518959"><ele>205.0</ele><time>2026-05-03T11:12:15.744Z</time></trkpt><trkpt lat="44.8925024" lon="9.0518167"><ele>205.0</ele><time>2026-05-03T11:12:16.745Z</time></trkpt><trkpt lat="44.8926179" lon="9.0517353"><ele>205.0</ele><time>2026-05-03T11:12:17.736Z</time></trkpt><trkpt lat="44.892723" lon="9.0516492"><ele>205.0</ele><time>2026-05-03T11:12:18.734Z</time></trkpt><trkpt lat="44.8928158" lon="9.0515647"><ele>204.83333333333331</ele><time>2026-05-03T11:12:19.741Z</time></trkpt><trkpt lat="44.8929001" lon="9.0514871"><ele>204.66666666666666</ele><time>2026-05-03T11:12:20.746Z</time></trkpt><trkpt lat="44.8929644" lon="9.0514343"><ele>204.5</ele><time>2026-05-03T11:12:21.735Z</time></trkpt><trkpt lat="44.8930418" lon="9.0514216"><ele>204.33333333333331</ele><time>2026-05-03T11:12:23.742Z</time></trkpt><trkpt lat="44.8930943" lon="9.0515177"><ele>204.16666666666666</ele><time>2026-05-03T11:12:25.742Z</time></trkpt><trkpt lat="44.8930955" lon="9.0516374"><ele>204.0</ele><time>2026-05-03T11:12:26.741Z</time></trkpt><trkpt lat="44.8931022" lon="9.0517641"><ele>204.0</ele><time>2026-05-03T11:12:27.743Z</time></trkpt><trkpt lat="44.8931205" lon="9.0518848"><ele>204.0</ele><time>2026-05-03T11:12:28.734Z</time></trkpt><trkpt lat="44.8931495" lon="9.0520184"><ele>204.0</ele><time>2026-05-03T11:12:29.739Z</time></trkpt><trkpt lat="44.8931912" lon="9.0521826"><ele>204.0</ele><time>2026-05-03T11:12:30.746Z</time></trkpt><trkpt lat="44.8932339" lon="9.0523531"><ele>204.0</ele><time>2026-05-03T11:12:31.734Z</time></trkpt><trkpt lat="44.8932644" lon="9.052514"><ele>203.5</ele><time>2026-05-03T11:12:32.737Z</time></trkpt><trkpt lat="44.8932677" lon="9.0526879"><ele>203.0</ele><time>2026-05-03T11:12:33.737Z</time></trkpt><trkpt lat="44.8932348" lon="9.0528327"><ele>202.5</ele><time>2026-05-03T11:12:34.737Z</time></trkpt><trkpt lat="44.8931745" lon="9.0529725"><ele>202.0</ele><time>2026-05-03T11:12:35.74Z</time></trkpt><trkpt lat="44.8931129" lon="9.0531193"><ele>202.0</ele><time>2026-05-03T11:12:36.735Z</time></trkpt><trkpt lat="44.8930693" lon="9.0532833"><ele>202.0</ele><time>2026-05-03T11:12:37.737Z</time></trkpt><trkpt lat="44.8930565" lon="9.0534472"><ele>202.0</ele><time>2026-05-03T11:12:38.739Z</time></trkpt><trkpt lat="44.8930941" lon="9.0536165"><ele>202.0</ele><time>2026-05-03T11:12:39.739Z</time></trkpt><trkpt lat="44.8931518" lon="9.0537902"><ele>200.75</ele><time>2026-05-03T11:12:40.737Z</time></trkpt><trkpt lat="44.8932272" lon="9.0539562"><ele>199.5</ele><time>2026-05-03T11:12:41.734Z</time></trkpt><trkpt lat="44.8933141" lon="9.0540968"><ele>198.25</ele><time>2026-05-03T11:12:42.736Z</time></trkpt><trkpt lat="44.8934145" lon="9.0542048"><ele>197.0</ele><time>2026-05-03T11:12:43.737Z</time></trkpt><trkpt lat="44.8935185" lon="9.0542928"><ele>195.6</ele><time>2026-05-03T11:12:44.737Z</time></trkpt><trkpt lat="44.8936138" lon="9.0543691"><ele>194.2</ele><time>2026-05-03T11:12:45.738Z</time></trkpt><trkpt lat="44.8936965" lon="9.0544376"><ele>192.8</ele><time>2026-05-03T11:12:46.744Z</time></trkpt><trkpt lat="44.8937726" lon="9.0545026"><ele>191.4</ele><time>2026-05-03T11:12:47.741Z</time></trkpt><trkpt lat="44.8938503" lon="9.0545654"><ele>190.0</ele><time>2026-05-03T11:12:48.742Z</time></trkpt><trkpt lat="44.893923" lon="9.0546277"><ele>190.0</ele><time>2026-05-03T11:12:49.734Z</time></trkpt><trkpt lat="44.8939948" lon="9.0546905"><ele>190.0</ele><time>2026-05-03T11:12:50.738Z</time></trkpt><trkpt lat="44.8940617" lon="9.0547479"><ele>190.0</ele><time>2026-05-03T11:12:51.737Z</time></trkpt><trkpt lat="44.8941222" lon="9.054798"><ele>190.0</ele><time>2026-05-03T11:12:52.74Z</time></trkpt><trkpt lat="44.8942199" lon="9.0548759"><ele>190.0</ele><time>2026-05-03T11:12:54.737Z</time></trkpt><trkpt lat="44.8943064" lon="9.0549419"><ele>190.0</ele><time>2026-05-03T11:12:56.737Z</time></trkpt><trkpt lat="44.89439" lon="9.0550108"><ele>190.8</ele><time>2026-05-03T11:12:58.737Z</time></trkpt><trkpt lat="44.8944755" lon="9.0550999"><ele>191.6</ele><time>2026-05-03T11:13:00.742Z</time></trkpt><trkpt lat="44.8945485" lon="9.0551924"><ele>192.39999999999998</ele><time>2026-05-03T11:13:02.736Z</time></trkpt><trkpt lat="44.8946372" lon="9.0552651"><ele>193.2</ele><time>2026-05-03T11:13:04.738Z</time></trkpt><trkpt lat="44.8947439" lon="9.0553503"><ele>194.0</ele><time>2026-05-03T11:13:06.739Z</time></trkpt><trkpt lat="44.8948004" lon="9.0554004"><ele>194.0</ele><time>2026-05-03T11:13:07.736Z</time></trkpt><trkpt lat="44.8948572" lon="9.0554562"><ele>194.0</ele><time>2026-05-03T11:13:08.74Z</time></trkpt><trkpt lat="44.8949132" lon="9.0555027"><ele>194.0</ele><time>2026-05-03T11:13:09.739Z</time></trkpt><trkpt lat="44.8949684" lon="9.0555506"><ele>194.0</ele><time>2026-05-03T11:13:10.747Z</time></trkpt><trkpt lat="44.8950448" lon="9.0556047"><ele>194.0</ele><time>2026-05-03T11:13:11.74Z</time></trkpt><trkpt lat="44.8951093" lon="9.0556562"><ele>194.0</ele><time>2026-05-03T11:13:12.738Z</time></trkpt><trkpt lat="44.895174" lon="9.0557174"><ele>194.0</ele><time>2026-05-03T11:13:13.743Z</time></trkpt><trkpt lat="44.8952387" lon="9.0557754"><ele>194.66666666666669</ele><time>2026-05-03T11:13:14.738Z</time></trkpt><trkpt lat="44.8953043" lon="9.0558299"><ele>195.33333333333334</ele><time>2026-05-03T11:13:15.738Z</time></trkpt><trkpt lat="44.8953673" lon="9.0558741"><ele>196.0</ele><time>2026-05-03T11:13:16.742Z</time></trkpt><trkpt lat="44.8954297" lon="9.0559315"><ele>196.66666666666669</ele><time>2026-05-03T11:13:17.738Z</time></trkpt><trkpt lat="44.895495" lon="9.055991"><ele>197.33333333333334</ele><time>2026-05-03T11:13:18.739Z</time></trkpt><trkpt lat="44.8955611" lon="9.0560488"><ele>198.0</ele><time>2026-05-03T11:13:19.741Z</time></trkpt><trkpt lat="44.8956293" lon="9.05611"><ele>198.0</ele><time>2026-05-03T11:13:20.755Z</time></trkpt><trkpt lat="44.8956957" lon="9.0561682"><ele>198.0</ele><time>2026-05-03T11:13:21.736Z</time></trkpt><trkpt lat="44.8957636" lon="9.0562305"><ele>198.0</ele><time>2026-05-03T11:13:22.737Z</time></trkpt><trkpt lat="44.8958194" lon="9.0562855"><ele>198.0</ele><time>2026-05-03T11:13:23.739Z</time></trkpt><trkpt lat="44.8958802" lon="9.0563645"><ele>198.0</ele><time>2026-05-03T11:13:25.743Z</time></trkpt><trkpt lat="44.8958665" lon="9.0564715"><ele>198.0</ele><time>2026-05-03T11:13:31.743Z</time></trkpt><trkpt lat="44.8958035" lon="9.0566068"><ele>198.2</ele><time>2026-05-03T11:13:33.743Z</time></trkpt><trkpt lat="44.8957656" lon="9.0567026"><ele>198.4</ele><time>2026-05-03T11:13:34.739Z</time></trkpt><trkpt lat="44.8957304" lon="9.0568292"><ele>198.6</ele><time>2026-05-03T11:13:35.746Z</time></trkpt><trkpt lat="44.8956916" lon="9.0569618"><ele>198.79999999999998</ele><time>2026-05-03T11:13:36.735Z</time></trkpt><trkpt lat="44.895642" lon="9.0571167"><ele>199.0</ele><time>2026-05-03T11:13:37.739Z</time></trkpt><trkpt lat="44.8955916" lon="9.057275"><ele>199.0</ele><time>2026-05-03T11:13:38.732Z</time></trkpt><trkpt lat="44.8955408" lon="9.0574425"><ele>199.0</ele><time>2026-05-03T11:13:39.743Z</time></trkpt><trkpt lat="44.8954866" lon="9.0576074"><ele>199.0</ele><time>2026-05-03T11:13:40.742Z</time></trkpt><trkpt lat="44.8954381" lon="9.0577751"><ele>199.0</ele><time>2026-05-03T11:13:41.741Z</time></trkpt><trkpt lat="44.8953884" lon="9.0579415"><ele>199.25</ele><time>2026-05-03T11:13:42.734Z</time></trkpt><trkpt lat="44.8953325" lon="9.0581151"><ele>199.5</ele><time>2026-05-03T11:13:43.741Z</time></trkpt><trkpt lat="44.8952764" lon="9.0582876"><ele>199.75</ele><time>2026-05-03T11:13:44.748Z</time></trkpt><trkpt lat="44.895224" lon="9.0584559"><ele>200.0</ele><time>2026-05-03T11:13:45.736Z</time></trkpt><trkpt lat="44.8951762" lon="9.0586081"><ele>200.00000000000003</ele><time>2026-05-03T11:13:46.741Z</time></trkpt><trkpt lat="44.8951338" lon="9.0587465"><ele>200.0</ele><time>2026-05-03T11:13:47.747Z</time></trkpt><trkpt lat="44.895096" lon="9.0588661"><ele>200.0</ele><time>2026-05-03T11:13:48.743Z</time></trkpt><trkpt lat="44.8950647" lon="9.0589807"><ele>200.0</ele><time>2026-05-03T11:13:49.732Z</time></trkpt><trkpt lat="44.8950382" lon="9.0590881"><ele>200.00000000000003</ele><time>2026-05-03T11:13:50.749Z</time></trkpt><trkpt lat="44.8950259" lon="9.0591956"><ele>200.0</ele><time>2026-05-03T11:13:51.735Z</time></trkpt><trkpt lat="44.8950282" lon="9.0593068"><ele>200.0</ele><time>2026-05-03T11:13:52.738Z</time></trkpt><trkpt lat="44.8950547" lon="9.0594264"><ele>200.0</ele><time>2026-05-03T11:13:53.742Z</time></trkpt><trkpt lat="44.8950851" lon="9.0595537"><ele>200.0</ele><time>2026-05-03T11:13:54.737Z</time></trkpt><trkpt lat="44.8950896" lon="9.0597145"><ele>200.0</ele><time>2026-05-03T11:13:55.736Z</time></trkpt><trkpt lat="44.8950422" lon="9.0599046"><ele>200.0</ele><time>2026-05-03T11:13:56.744Z</time></trkpt><trkpt lat="44.8949963" lon="9.0600993"><ele>201.0</ele><time>2026-05-03T11:13:57.742Z</time></trkpt><trkpt lat="44.8949518" lon="9.0603056"><ele>202.0</ele><time>2026-05-03T11:13:58.745Z</time></trkpt><trkpt lat="44.8949244" lon="9.0605158"><ele>203.0</ele><time>2026-05-03T11:13:59.737Z</time></trkpt><trkpt lat="44.8948969" lon="9.0607272"><ele>203.66666666666669</ele><time>2026-05-03T11:14:00.738Z</time></trkpt><trkpt lat="44.8948823" lon="9.0609451"><ele>204.33333333333331</ele><time>2026-05-03T11:14:01.739Z</time></trkpt><trkpt lat="44.8948732" lon="9.0611638"><ele>205.0</ele><time>2026-05-03T11:14:02.736Z</time></trkpt><trkpt lat="44.8948569" lon="9.0613906"><ele>205.0</ele><time>2026-05-03T11:14:03.737Z</time></trkpt><trkpt lat="44.8948156" lon="9.0616111"><ele>205.0</ele><time>2026-05-03T11:14:04.743Z</time></trkpt><trkpt lat="44.8947478" lon="9.0618311"><ele>205.0</ele><time>2026-05-03T11:14:05.737Z</time></trkpt><trkpt lat="44.8946723" lon="9.0620464"><ele>206.66666666666666</ele><time>2026-05-03T11:14:06.737Z</time></trkpt><trkpt lat="44.8945917" lon="9.0622622"><ele>208.33333333333331</ele><time>2026-05-03T11:14:07.744Z</time></trkpt><trkpt lat="44.8945097" lon="9.0624713"><ele>210.0</ele><time>2026-05-03T11:14:08.733Z</time></trkpt><trkpt lat="44.8944268" lon="9.0626867"><ele>211.0</ele><time>2026-05-03T11:14:09.737Z</time></trkpt><trkpt lat="44.8943545" lon="9.0629078"><ele>212.0</ele><time>2026-05-03T11:14:10.736Z</time></trkpt><trkpt lat="44.894297" lon="9.0631327"><ele>213.0</ele><time>2026-05-03T11:14:11.736Z</time></trkpt><trkpt lat="44.894256" lon="9.0633698"><ele>210.66666666666669</ele><time>2026-05-03T11:14:12.736Z</time></trkpt><trkpt lat="44.8942247" lon="9.0636147"><ele>208.33333333333334</ele><time>2026-05-03T11:14:13.736Z</time></trkpt><trkpt lat="44.8941968" lon="9.0638613"><ele>206.0</ele><time>2026-05-03T11:14:14.739Z</time></trkpt><trkpt lat="44.8941665" lon="9.0640998"><ele>206.66666666666669</ele><time>2026-05-03T11:14:15.736Z</time></trkpt><trkpt lat="44.8941395" lon="9.0643315"><ele>207.33333333333331</ele><time>2026-05-03T11:14:16.735Z</time></trkpt><trkpt lat="44.894132" lon="9.0645584"><ele>208.0</ele><time>2026-05-03T11:14:17.736Z</time></trkpt><trkpt lat="44.8941442" lon="9.0647892"><ele>209.0</ele><time>2026-05-03T11:14:18.736Z</time></trkpt><trkpt lat="44.8941694" lon="9.0650293"><ele>210.0</ele><time>2026-05-03T11:14:19.735Z</time></trkpt><trkpt lat="44.8942046" lon="9.0652794"><ele>211.0</ele><time>2026-05-03T11:14:20.739Z</time></trkpt><trkpt lat="44.8942375" lon="9.0655302"><ele>217.33333333333331</ele><time>2026-05-03T11:14:21.737Z</time></trkpt><trkpt lat="44.8942659" lon="9.0657896"><ele>223.66666666666669</ele><time>2026-05-03T11:14:22.735Z</time></trkpt><trkpt lat="44.8942791" lon="9.0660407"><ele>230.0</ele><time>2026-05-03T11:14:23.735Z</time></trkpt><trkpt lat="44.8942817" lon="9.0662757"><ele>224.0</ele><time>2026-05-03T11:14:24.735Z</time></trkpt><trkpt lat="44.8942279" lon="9.0664854"><ele>218.0</ele><time>2026-05-03T11:14:25.741Z</time></trkpt><trkpt lat="44.8941606" lon="9.0666956"><ele>212.0</ele><time>2026-05-03T11:14:26.737Z</time></trkpt><trkpt lat="44.8940878" lon="9.0669072"><ele>212.0</ele><time>2026-05-03T11:14:27.74Z</time></trkpt><trkpt lat="44.8940242" lon="9.067105"><ele>212.0</ele><time>2026-05-03T11:14:28.736Z</time></trkpt><trkpt lat="44.893982" lon="9.0672963"><ele>212.0</ele><time>2026-05-03T11:14:29.737Z</time></trkpt><trkpt lat="44.8939646" lon="9.0674855"><ele>212.0</ele><time>2026-05-03T11:14:30.738Z</time></trkpt><trkpt lat="44.8939791" lon="9.067672"><ele>211.66666666666669</ele><time>2026-05-03T11:14:31.745Z</time></trkpt><trkpt lat="44.894015" lon="9.0678698"><ele>211.33333333333331</ele><time>2026-05-03T11:14:32.736Z</time></trkpt><trkpt lat="44.8940592" lon="9.0680718"><ele>211.0</ele><time>2026-05-03T11:14:33.735Z</time></trkpt><trkpt lat="44.894106" lon="9.0682829"><ele>210.25</ele><time>2026-05-03T11:14:34.735Z</time></trkpt><trkpt lat="44.8941482" lon="9.0684949"><ele>209.5</ele><time>2026-05-03T11:14:35.738Z</time></trkpt><trkpt lat="44.8941906" lon="9.0686989"><ele>208.75</ele><time>2026-05-03T11:14:36.735Z</time></trkpt><trkpt lat="44.894239" lon="9.0688857"><ele>208.0</ele><time>2026-05-03T11:14:37.739Z</time></trkpt><trkpt lat="44.8942966" lon="9.069058"><ele>211.2</ele><time>2026-05-03T11:14:38.739Z</time></trkpt><trkpt lat="44.8943582" lon="9.0692177"><ele>214.4</ele><time>2026-05-03T11:14:39.739Z</time></trkpt><trkpt lat="44.8944078" lon="9.0693663"><ele>217.59999999999997</ele><time>2026-05-03T11:14:40.736Z</time></trkpt><trkpt lat="44.8944422" lon="9.0695102"><ele>220.79999999999998</ele><time>2026-05-03T11:14:41.742Z</time></trkpt><trkpt lat="44.8944619" lon="9.0696391"><ele>224.0</ele><time>2026-05-03T11:14:42.737Z</time></trkpt><trkpt lat="44.8944703" lon="9.069786"><ele>224.0</ele><time>2026-05-03T11:14:43.739Z</time></trkpt><trkpt lat="44.8944582" lon="9.0699539"><ele>224.0</ele><time>2026-05-03T11:14:44.739Z</time></trkpt><trkpt lat="44.8944366" lon="9.0701228"><ele>224.0</ele><time>2026-05-03T11:14:45.74Z</time></trkpt><trkpt lat="44.8944024" lon="9.0702793"><ele>224.0</ele><time>2026-05-03T11:14:46.741Z</time></trkpt><trkpt lat="44.8943564" lon="9.0704209"><ele>224.0</ele><time>2026-05-03T11:14:47.743Z</time></trkpt><trkpt lat="44.894315" lon="9.0705583"><ele>224.0</ele><time>2026-05-03T11:14:48.738Z</time></trkpt><trkpt lat="44.894295" lon="9.0707133"><ele>224.0</ele><time>2026-05-03T11:14:49.741Z</time></trkpt><trkpt lat="44.8942959" lon="9.0708875"><ele>224.0</ele><time>2026-05-03T11:14:50.739Z</time></trkpt><trkpt lat="44.8943107" lon="9.0710802"><ele>224.25</ele><time>2026-05-03T11:14:51.737Z</time></trkpt><trkpt lat="44.8943264" lon="9.0712793"><ele>224.5</ele><time>2026-05-03T11:14:52.739Z</time></trkpt><trkpt lat="44.8943389" lon="9.0714801"><ele>224.75</ele><time>2026-05-03T11:14:53.735Z</time></trkpt><trkpt lat="44.8943441" lon="9.0716664"><ele>225.0</ele><time>2026-05-03T11:14:54.739Z</time></trkpt><trkpt lat="44.8943434" lon="9.0718358"><ele>223.75</ele><time>2026-05-03T11:14:55.741Z</time></trkpt><trkpt lat="44.8943431" lon="9.0720023"><ele>222.5</ele><time>2026-05-03T11:14:56.733Z</time></trkpt><trkpt lat="44.8943515" lon="9.0721786"><ele>221.25</ele><time>2026-05-03T11:14:57.739Z</time></trkpt><trkpt lat="44.8943865" lon="9.0723532"><ele>220.0</ele><time>2026-05-03T11:14:58.736Z</time></trkpt><trkpt lat="44.8944553" lon="9.0725158"><ele>219.75</ele><time>2026-05-03T11:14:59.74Z</time></trkpt><trkpt lat="44.8945449" lon="9.0726711"><ele>219.5</ele><time>2026-05-03T11:15:00.738Z</time></trkpt><trkpt lat="44.8946367" lon="9.0728203"><ele>219.25</ele><time>2026-05-03T11:15:01.744Z</time></trkpt><trkpt lat="44.8947191" lon="9.0729642"><ele>219.0</ele><time>2026-05-03T11:15:02.74Z</time></trkpt><trkpt lat="44.8947912" lon="9.0731223"><ele>220.5</ele><time>2026-05-03T11:15:03.745Z</time></trkpt><trkpt lat="44.8948487" lon="9.0733041"><ele>222.0</ele><time>2026-05-03T11:15:04.74Z</time></trkpt><trkpt lat="44.8948943" lon="9.0734771"><ele>223.5</ele><time>2026-05-03T11:15:05.74Z</time></trkpt><trkpt lat="44.8949364" lon="9.0736674"><ele>225.0</ele><time>2026-05-03T11:15:06.735Z</time></trkpt><trkpt lat="44.8949694" lon="9.0738652"><ele>225.0</ele><time>2026-05-03T11:15:07.734Z</time></trkpt><trkpt lat="44.8949742" lon="9.0740503"><ele>225.0</ele><time>2026-05-03T11:15:08.735Z</time></trkpt><trkpt lat="44.8949434" lon="9.0742108"><ele>225.0</ele><time>2026-05-03T11:15:09.739Z</time></trkpt><trkpt lat="44.8948875" lon="9.0743682"><ele>225.0</ele><time>2026-05-03T11:15:10.739Z</time></trkpt><trkpt lat="44.8948172" lon="9.0745229"><ele>225.75</ele><time>2026-05-03T11:15:11.739Z</time></trkpt><trkpt lat="44.8947403" lon="9.0746757"><ele>226.5</ele><time>2026-05-03T11:15:12.734Z</time></trkpt><trkpt lat="44.894672" lon="9.0748288"><ele>227.25</ele><time>2026-05-03T11:15:13.748Z</time></trkpt><trkpt lat="44.8946199" lon="9.0749815"><ele>228.0</ele><time>2026-05-03T11:15:14.741Z</time></trkpt><trkpt lat="44.8945842" lon="9.0751439"><ele>228.25</ele><time>2026-05-03T11:15:15.744Z</time></trkpt><trkpt lat="44.8945563" lon="9.0753111"><ele>228.5</ele><time>2026-05-03T11:15:16.741Z</time></trkpt><trkpt lat="44.8945565" lon="9.0754829"><ele>228.75</ele><time>2026-05-03T11:15:17.741Z</time></trkpt><trkpt lat="44.894561" lon="9.0756462"><ele>229.0</ele><time>2026-05-03T11:15:18.736Z</time></trkpt><trkpt lat="44.894566" lon="9.0758005"><ele>229.5</ele><time>2026-05-03T11:15:19.735Z</time></trkpt><trkpt lat="44.8945729" lon="9.0759596"><ele>230.0</ele><time>2026-05-03T11:15:20.735Z</time></trkpt><trkpt lat="44.894598" lon="9.0761171"><ele>230.5</ele><time>2026-05-03T11:15:21.74Z</time></trkpt><trkpt lat="44.8946474" lon="9.0762616"><ele>231.0</ele><time>2026-05-03T11:15:22.737Z</time></trkpt><trkpt lat="44.8947264" lon="9.0764086"><ele>231.0</ele><time>2026-05-03T11:15:23.735Z</time></trkpt><trkpt lat="44.8948373" lon="9.0765497"><ele>231.0</ele><time>2026-05-03T11:15:24.739Z</time></trkpt><trkpt lat="44.8949608" lon="9.076666"><ele>231.0</ele><time>2026-05-03T11:15:25.744Z</time></trkpt><trkpt lat="44.8950833" lon="9.0767678"><ele>231.0</ele><time>2026-05-03T11:15:26.736Z</time></trkpt><trkpt lat="44.8951947" lon="9.0768866"><ele>234.33333333333331</ele><time>2026-05-03T11:15:27.737Z</time></trkpt><trkpt lat="44.8952946" lon="9.0770383"><ele>237.66666666666666</ele><time>2026-05-03T11:15:28.735Z</time></trkpt><trkpt lat="44.8953829" lon="9.0772187"><ele>241.0</ele><time>2026-05-03T11:15:29.742Z</time></trkpt><trkpt lat="44.8954694" lon="9.0774123"><ele>238.66666666666666</ele><time>2026-05-03T11:15:30.741Z</time></trkpt><trkpt lat="44.895548" lon="9.0776173"><ele>236.33333333333331</ele><time>2026-05-03T11:15:31.741Z</time></trkpt><trkpt lat="44.8956222" lon="9.0778256"><ele>234.0</ele><time>2026-05-03T11:15:32.739Z</time></trkpt><trkpt lat="44.8956896" lon="9.0780406"><ele>234.0</ele><time>2026-05-03T11:15:33.736Z</time></trkpt><trkpt lat="44.8957706" lon="9.0782322"><ele>234.0</ele><time>2026-05-03T11:15:34.739Z</time></trkpt><trkpt lat="44.8958762" lon="9.0783857"><ele>234.0</ele><time>2026-05-03T11:15:35.737Z</time></trkpt><trkpt lat="44.8959939" lon="9.0785161"><ele>239.5</ele><time>2026-05-03T11:15:36.736Z</time></trkpt><trkpt lat="44.8960942" lon="9.0786456"><ele>245.0</ele><time>2026-05-03T11:15:37.745Z</time></trkpt><trkpt lat="44.8961737" lon="9.0787781"><ele>250.5</ele><time>2026-05-03T11:15:38.741Z</time></trkpt><trkpt lat="44.8961933" lon="9.078924"><ele>256.0</ele><time>2026-05-03T11:15:39.737Z</time></trkpt><trkpt lat="44.896208" lon="9.0790688"><ele>253.0</ele><time>2026-05-03T11:15:40.747Z</time></trkpt><trkpt lat="44.8961714" lon="9.0792027"><ele>250.00000000000003</ele><time>2026-05-03T11:15:41.744Z</time></trkpt><trkpt lat="44.8961227" lon="9.0793265"><ele>247.00000000000003</ele><time>2026-05-03T11:15:42.737Z</time></trkpt><trkpt lat="44.8960635" lon="9.0794473"><ele>244.0</ele><time>2026-05-03T11:15:43.741Z</time></trkpt><trkpt lat="44.8960178" lon="9.0795691"><ele>241.0</ele><time>2026-05-03T11:15:44.736Z</time></trkpt><trkpt lat="44.8959931" lon="9.0796895"><ele>241.0</ele><time>2026-05-03T11:15:45.734Z</time></trkpt><trkpt lat="44.8959906" lon="9.079798"><ele>241.00000000000003</ele><time>2026-05-03T11:15:46.739Z</time></trkpt><trkpt lat="44.8960034" lon="9.0799049"><ele>241.00000000000003</ele><time>2026-05-03T11:15:47.738Z</time></trkpt><trkpt lat="44.8960314" lon="9.0800222"><ele>241.0</ele><time>2026-05-03T11:15:49.429Z</time></trkpt><trkpt lat="44.8961374" lon="9.0802457"><ele>241.0</ele><time>2026-05-03T11:15:50.914Z</time></trkpt><trkpt lat="44.8962259" lon="9.0805119"><ele>239.0</ele><time>2026-05-03T11:15:52.733Z</time></trkpt><trkpt lat="44.8962308" lon="9.0806839"><ele>237.0</ele><time>2026-05-03T11:15:53.738Z</time></trkpt><trkpt lat="44.8961981" lon="9.0808595"><ele>235.0</ele><time>2026-05-03T11:15:54.741Z</time></trkpt><trkpt lat="44.8961197" lon="9.0810465"><ele>233.0</ele><time>2026-05-03T11:15:55.738Z</time></trkpt><trkpt lat="44.8960485" lon="9.0812463"><ele>231.33333333333334</ele><time>2026-05-03T11:15:56.74Z</time></trkpt><trkpt lat="44.896003" lon="9.0814691"><ele>229.66666666666669</ele><time>2026-05-03T11:15:57.738Z</time></trkpt><trkpt lat="44.8959663" lon="9.0817051"><ele>228.0</ele><time>2026-05-03T11:15:58.738Z</time></trkpt><trkpt lat="44.8959286" lon="9.0819504"><ele>225.33333333333331</ele><time>2026-05-03T11:15:59.739Z</time></trkpt><trkpt lat="44.8958902" lon="9.0822077"><ele>222.66666666666666</ele><time>2026-05-03T11:16:00.739Z</time></trkpt><trkpt lat="44.895855" lon="9.0824686"><ele>220.0</ele><time>2026-05-03T11:16:01.739Z</time></trkpt><trkpt lat="44.8958239" lon="9.0827301"><ele>220.0</ele><time>2026-05-03T11:16:02.748Z</time></trkpt><trkpt lat="44.8957952" lon="9.0829931"><ele>220.0</ele><time>2026-05-03T11:16:03.74Z</time></trkpt><trkpt lat="44.8957668" lon="9.0832464"><ele>220.0</ele><time>2026-05-03T11:16:04.737Z</time></trkpt><trkpt lat="44.8957423" lon="9.0834939"><ele>220.66666666666666</ele><time>2026-05-03T11:16:05.739Z</time></trkpt><trkpt lat="44.8957417" lon="9.0837423"><ele>221.33333333333331</ele><time>2026-05-03T11:16:06.735Z</time></trkpt><trkpt lat="44.8957599" lon="9.083999"><ele>222.0</ele><time>2026-05-03T11:16:07.738Z</time></trkpt><trkpt lat="44.8957841" lon="9.0842551"><ele>222.66666666666669</ele><time>2026-05-03T11:16:08.735Z</time></trkpt><trkpt lat="44.8958113" lon="9.0845253"><ele>223.33333333333334</ele><time>2026-05-03T11:16:09.737Z</time></trkpt><trkpt lat="44.895839" lon="9.0848057"><ele>224.0</ele><time>2026-05-03T11:16:10.747Z</time></trkpt><trkpt lat="44.8958641" lon="9.0850868"><ele>224.0</ele><time>2026-05-03T11:16:11.741Z</time></trkpt><trkpt lat="44.8958874" lon="9.0853576"><ele>224.0</ele><time>2026-05-03T11:16:12.74Z</time></trkpt><trkpt lat="44.8959083" lon="9.085611"><ele>224.0</ele><time>2026-05-03T11:16:13.733Z</time></trkpt><trkpt lat="44.8959272" lon="9.0858533"><ele>227.0</ele><time>2026-05-03T11:16:14.737Z</time></trkpt><trkpt lat="44.8959445" lon="9.0860859"><ele>230.0</ele><time>2026-05-03T11:16:15.742Z</time></trkpt><trkpt lat="44.8959615" lon="9.0863133"><ele>233.0</ele><time>2026-05-03T11:16:16.743Z</time></trkpt><trkpt lat="44.8959884" lon="9.0865427"><ele>233.33333333333334</ele><time>2026-05-03T11:16:17.738Z</time></trkpt><trkpt lat="44.8960295" lon="9.0867743"><ele>233.66666666666669</ele><time>2026-05-03T11:16:18.738Z</time></trkpt><trkpt lat="44.8960895" lon="9.0870019"><ele>234.0</ele><time>2026-05-03T11:16:19.737Z</time></trkpt><trkpt lat="44.8961596" lon="9.0872229"><ele>233.25</ele><time>2026-05-03T11:16:20.737Z</time></trkpt><trkpt lat="44.8962307" lon="9.0874278"><ele>232.5</ele><time>2026-05-03T11:16:21.749Z</time></trkpt><trkpt lat="44.8962966" lon="9.0876143"><ele>231.75</ele><time>2026-05-03T11:16:22.737Z</time></trkpt><trkpt lat="44.8963534" lon="9.0877851"><ele>231.0</ele><time>2026-05-03T11:16:23.735Z</time></trkpt><trkpt lat="44.8964002" lon="9.0879448"><ele>231.0</ele><time>2026-05-03T11:16:24.736Z</time></trkpt><trkpt lat="44.8964394" lon="9.0880866"><ele>231.00000000000003</ele><time>2026-05-03T11:16:25.748Z</time></trkpt><trkpt lat="44.8964762" lon="9.0882234"><ele>231.00000000000003</ele><time>2026-05-03T11:16:26.739Z</time></trkpt><trkpt lat="44.8965126" lon="9.0883525"><ele>231.0</ele><time>2026-05-03T11:16:27.736Z</time></trkpt><trkpt lat="44.8965471" lon="9.0884639"><ele>231.0</ele><time>2026-05-03T11:16:28.735Z</time></trkpt><trkpt lat="44.8965783" lon="9.0885511"><ele>231.0</ele><time>2026-05-03T11:16:29.739Z</time></trkpt><trkpt lat="44.8966392" lon="9.0886204"><ele>231.0</ele><time>2026-05-03T11:16:31.739Z</time></trkpt><trkpt lat="44.8967048" lon="9.0885831"><ele>231.0</ele><time>2026-05-03T11:16:52.739Z</time></trkpt><trkpt lat="44.8967812" lon="9.0884531"><ele>231.0</ele><time>2026-05-03T11:16:54.736Z</time></trkpt><trkpt lat="44.8968346" lon="9.0883915"><ele>231.0</ele><time>2026-05-03T11:16:55.748Z</time></trkpt><trkpt lat="44.8968936" lon="9.0883579"><ele>231.0</ele><time>2026-05-03T11:16:56.738Z</time></trkpt><trkpt lat="44.8969823" lon="9.0883732"><ele>232.5</ele><time>2026-05-03T11:16:57.737Z</time></trkpt><trkpt lat="44.8970986" lon="9.0884115"><ele>234.0</ele><time>2026-05-03T11:16:58.737Z</time></trkpt><trkpt lat="44.8972246" lon="9.0884654"><ele>235.5</ele><time>2026-05-03T11:16:59.742Z</time></trkpt><trkpt lat="44.897347" lon="9.0885019"><ele>237.0</ele><time>2026-05-03T11:17:00.74Z</time></trkpt><trkpt lat="44.8974551" lon="9.0885032"><ele>237.0</ele><time>2026-05-03T11:17:01.738Z</time></trkpt><trkpt lat="44.8975629" lon="9.088464"><ele>237.0</ele><time>2026-05-03T11:17:02.745Z</time></trkpt><trkpt lat="44.8976651" lon="9.0883794"><ele>237.0</ele><time>2026-05-03T11:17:03.745Z</time></trkpt><trkpt lat="44.897757" lon="9.0882865"><ele>237.0</ele><time>2026-05-03T11:17:04.737Z</time></trkpt><trkpt lat="44.8978529" lon="9.0882018"><ele>241.25</ele><time>2026-05-03T11:17:05.746Z</time></trkpt><trkpt lat="44.8979456" lon="9.088147"><ele>245.5</ele><time>2026-05-03T11:17:06.738Z</time></trkpt><trkpt lat="44.8980466" lon="9.0881388"><ele>249.75</ele><time>2026-05-03T11:17:07.742Z</time></trkpt><trkpt lat="44.8981431" lon="9.0881634"><ele>254.0</ele><time>2026-05-03T11:17:08.734Z</time></trkpt><trkpt lat="44.8983211" lon="9.0882927"><ele>254.0</ele><time>2026-05-03T11:17:10.735Z</time></trkpt><trkpt lat="44.8984137" lon="9.0883693"><ele>253.99999999999997</ele><time>2026-05-03T11:17:11.737Z</time></trkpt><trkpt lat="44.8985138" lon="9.0884372"><ele>253.99999999999997</ele><time>2026-05-03T11:17:12.738Z</time></trkpt><trkpt lat="44.8986085" lon="9.088471"><ele>254.0</ele><time>2026-05-03T11:17:13.738Z</time></trkpt><trkpt lat="44.8987021" lon="9.0884502"><ele>254.0</ele><time>2026-05-03T11:17:14.744Z</time></trkpt><trkpt lat="44.8988181" lon="9.0884023"><ele>256.0</ele><time>2026-05-03T11:17:15.746Z</time></trkpt><trkpt lat="44.8989397" lon="9.0883464"><ele>258.0</ele><time>2026-05-03T11:17:16.736Z</time></trkpt><trkpt lat="44.8990391" lon="9.0882982"><ele>260.0</ele><time>2026-05-03T11:17:17.74Z</time></trkpt><trkpt lat="44.8991306" lon="9.088297"><ele>262.0</ele><time>2026-05-03T11:17:18.734Z</time></trkpt><trkpt lat="44.8992182" lon="9.088331"><ele>264.0</ele><time>2026-05-03T11:17:19.737Z</time></trkpt><trkpt lat="44.8993023" lon="9.0883593"><ele>265.4</ele><time>2026-05-03T11:17:20.74Z</time></trkpt><trkpt lat="44.8993994" lon="9.0883781"><ele>266.79999999999995</ele><time>2026-05-03T11:17:21.737Z</time></trkpt><trkpt lat="44.8995027" lon="9.0883972"><ele>268.20000000000005</ele><time>2026-05-03T11:17:22.738Z</time></trkpt><trkpt lat="44.8996051" lon="9.0884118"><ele>269.6</ele><time>2026-05-03T11:17:23.739Z</time></trkpt><trkpt lat="44.8997102" lon="9.0884211"><ele>271.0</ele><time>2026-05-03T11:17:24.745Z</time></trkpt><trkpt lat="44.8998241" lon="9.0884261"><ele>271.0</ele><time>2026-05-03T11:17:25.742Z</time></trkpt><trkpt lat="44.899937" lon="9.0884316"><ele>271.0</ele><time>2026-05-03T11:17:26.739Z</time></trkpt><trkpt lat="44.9000483" lon="9.0884374"><ele>271.0</ele><time>2026-05-03T11:17:27.743Z</time></trkpt><trkpt lat="44.9001898" lon="9.0884257"><ele>271.0</ele><time>2026-05-03T11:17:28.748Z</time></trkpt><trkpt lat="44.9003022" lon="9.0884113"><ele>274.40000000000003</ele><time>2026-05-03T11:17:29.734Z</time></trkpt><trkpt lat="44.900418" lon="9.0883707"><ele>277.8</ele><time>2026-05-03T11:17:30.737Z</time></trkpt><trkpt lat="44.9005198" lon="9.0883067"><ele>281.20000000000005</ele><time>2026-05-03T11:17:31.737Z</time></trkpt><trkpt lat="44.900603" lon="9.0882487"><ele>284.6</ele><time>2026-05-03T11:17:32.738Z</time></trkpt><trkpt lat="44.9006865" lon="9.0881915"><ele>288.0</ele><time>2026-05-03T11:17:33.742Z</time></trkpt><trkpt lat="44.9007715" lon="9.0881836"><ele>289.6</ele><time>2026-05-03T11:17:34.736Z</time></trkpt><trkpt lat="44.9008479" lon="9.0881695"><ele>291.20000000000005</ele><time>2026-05-03T11:17:35.739Z</time></trkpt><trkpt lat="44.9009469" lon="9.0881756"><ele>292.8</ele><time>2026-05-03T11:17:36.738Z</time></trkpt><trkpt lat="44.9010557" lon="9.0882025"><ele>294.40000000000003</ele><time>2026-05-03T11:17:37.739Z</time></trkpt><trkpt lat="44.9011637" lon="9.0882358"><ele>296.0</ele><time>2026-05-03T11:17:38.738Z</time></trkpt><trkpt lat="44.9012656" lon="9.0882657"><ele>298.40000000000003</ele><time>2026-05-03T11:17:39.737Z</time></trkpt><trkpt lat="44.9013669" lon="9.088313"><ele>300.8</ele><time>2026-05-03T11:17:40.736Z</time></trkpt><trkpt lat="44.901463" lon="9.0883512"><ele>303.20000000000005</ele><time>2026-05-03T11:17:41.741Z</time></trkpt><trkpt lat="44.9015415" lon="9.0883954"><ele>305.6</ele><time>2026-05-03T11:17:42.734Z</time></trkpt><trkpt lat="44.9016269" lon="9.0884438"><ele>308.0</ele><time>2026-05-03T11:17:43.738Z</time></trkpt><trkpt lat="44.9017275" lon="9.0884926"><ele>314.0</ele><time>2026-05-03T11:17:44.74Z</time></trkpt><trkpt lat="44.9018278" lon="9.0885414"><ele>320.0</ele><time>2026-05-03T11:17:45.737Z</time></trkpt><trkpt lat="44.9019191" lon="9.0885809"><ele>326.0</ele><time>2026-05-03T11:17:46.739Z</time></trkpt><trkpt lat="44.902008" lon="9.088637"><ele>332.0</ele><time>2026-05-03T11:17:47.736Z</time></trkpt><trkpt lat="44.9020687" lon="9.0886997"><ele>338.0</ele><time>2026-05-03T11:17:48.741Z</time></trkpt><trkpt lat="44.9021289" lon="9.0887701"><ele>338.0</ele><time>2026-05-03T11:17:49.737Z</time></trkpt><trkpt lat="44.9022034" lon="9.0888557"><ele>338.0</ele><time>2026-05-03T11:17:50.736Z</time></trkpt><trkpt lat="44.9022847" lon="9.0889484"><ele>338.0</ele><time>2026-05-03T11:17:51.738Z</time></trkpt><trkpt lat="44.9023541" lon="9.0890099"><ele>338.0</ele><time>2026-05-03T11:17:52.738Z</time></trkpt><trkpt lat="44.9024598" lon="9.0890685"><ele>338.0</ele><time>2026-05-03T11:17:54.736Z</time></trkpt><trkpt lat="44.9025258" lon="9.0890606"><ele>338.0</ele><time>2026-05-03T11:17:56.737Z</time></trkpt><trkpt lat="44.9025059" lon="9.0889515"><ele>338.0</ele><time>2026-05-03T11:18:00.738Z</time></trkpt><trkpt lat="44.9024953" lon="9.0887916"><ele>338.0</ele><time>2026-05-03T11:18:02.739Z</time></trkpt><trkpt lat="44.9024273" lon="9.0886753"><ele>338.0</ele><time>2026-05-03T11:18:03.734Z</time></trkpt><trkpt lat="44.9023542" lon="9.0885624"><ele>338.0</ele><time>2026-05-03T11:18:04.738Z</time></trkpt><trkpt lat="44.9022848" lon="9.0884447"><ele>338.0</ele><time>2026-05-03T11:18:05.738Z</time></trkpt><trkpt lat="44.9022464" lon="9.0883267"><ele>338.0</ele><time>2026-05-03T11:18:06.745Z</time></trkpt><trkpt lat="44.9022556" lon="9.0882062"><ele>338.0</ele><time>2026-05-03T11:18:07.739Z</time></trkpt><trkpt lat="44.9022557" lon="9.0880827"><ele>338.0</ele><time>2026-05-03T11:18:08.738Z</time></trkpt><trkpt lat="44.902256" lon="9.0879593"><ele>338.0</ele><time>2026-05-03T11:18:09.743Z</time></trkpt><trkpt lat="44.902226" lon="9.0878436"><ele>338.0</ele><time>2026-05-03T11:18:10.742Z</time></trkpt><trkpt lat="44.9021964" lon="9.0877477"><ele>341.83333333333337</ele><time>2026-05-03T11:18:11.746Z</time></trkpt><trkpt lat="44.9021505" lon="9.0876649"><ele>345.6666666666667</ele><time>2026-05-03T11:18:12.74Z</time></trkpt><trkpt lat="44.9020865" lon="9.0875967"><ele>349.5</ele><time>2026-05-03T11:18:13.739Z</time></trkpt><trkpt lat="44.9019901" lon="9.0874965"><ele>353.3333333333333</ele><time>2026-05-03T11:18:15.734Z</time></trkpt><trkpt lat="44.9019727" lon="9.0874087"><ele>357.16666666666663</ele><time>2026-05-03T11:18:17.739Z</time></trkpt><trkpt lat="44.9020374" lon="9.0873192"><ele>361.0</ele><time>2026-05-03T11:18:19.735Z</time></trkpt><trkpt lat="44.9021144" lon="9.0872031"><ele>365.6</ele><time>2026-05-03T11:18:21.733Z</time></trkpt><trkpt lat="44.9021624" lon="9.0870974"><ele>370.20000000000005</ele><time>2026-05-03T11:18:23.743Z</time></trkpt><trkpt lat="44.9020647" lon="9.0870868"><ele>374.79999999999995</ele><time>2026-05-03T11:18:24.738Z</time></trkpt><trkpt lat="44.9019733" lon="9.0870692"><ele>379.4</ele><time>2026-05-03T11:18:25.736Z</time></trkpt><trkpt lat="44.9018944" lon="9.0870547"><ele>384.0</ele><time>2026-05-03T11:18:26.741Z</time></trkpt><trkpt lat="44.9018552" lon="9.0869089"><ele>384.0</ele><time>2026-05-03T11:18:29.736Z</time></trkpt><trkpt lat="44.9018238" lon="9.0867592"><ele>384.0</ele><time>2026-05-03T11:18:31.738Z</time></trkpt><trkpt lat="44.9017602" lon="9.0867481"><ele>384.0</ele><time>2026-05-03T11:18:34.74Z</time></trkpt><trkpt lat="44.9017222" lon="9.0866422"><ele>384.0</ele><time>2026-05-03T11:19:06.74Z</time></trkpt><trkpt lat="44.9016712" lon="9.0865402"><ele>384.0</ele><time>2026-05-03T11:19:08.735Z</time></trkpt><trkpt lat="44.9016531" lon="9.0863821"><ele>378.0</ele><time>2026-05-03T11:19:10.743Z</time></trkpt><trkpt lat="44.9016137" lon="9.0862204"><ele>372.0</ele><time>2026-05-03T11:19:12.741Z</time></trkpt><trkpt lat="44.9016036" lon="9.0861242"><ele>366.0</ele><time>2026-05-03T11:19:13.733Z</time></trkpt><trkpt lat="44.9015817" lon="9.0860262"><ele>360.0</ele><time>2026-05-03T11:19:14.736Z</time></trkpt><trkpt lat="44.9015727" lon="9.0859262"><ele>354.0</ele><time>2026-05-03T11:19:15.738Z</time></trkpt><trkpt lat="44.9015391" lon="9.0857745"><ele>348.0</ele><time>2026-05-03T11:19:17.737Z</time></trkpt><trkpt lat="44.9015719" lon="9.0856104"><ele>345.1666666666667</ele><time>2026-05-03T11:19:19.74Z</time></trkpt><trkpt lat="44.9016097" lon="9.0854528"><ele>342.3333333333333</ele><time>2026-05-03T11:19:21.733Z</time></trkpt><trkpt lat="44.9016444" lon="9.0853372"><ele>339.5</ele><time>2026-05-03T11:19:23.74Z</time></trkpt><trkpt lat="44.9016301" lon="9.0852469"><ele>336.66666666666663</ele><time>2026-05-03T11:19:25.737Z</time></trkpt><trkpt lat="44.9016148" lon="9.0851493"><ele>333.8333333333333</ele><time>2026-05-03T11:19:27.741Z</time></trkpt><trkpt lat="44.9016378" lon="9.085032"><ele>331.0</ele><time>2026-05-03T11:19:30.737Z</time></trkpt><trkpt lat="44.901702" lon="9.0849534"><ele>328.66666666666663</ele><time>2026-05-03T11:19:32.737Z</time></trkpt><trkpt lat="44.9017461" lon="9.0848886"><ele>326.3333333333333</ele><time>2026-05-03T11:19:34.741Z</time></trkpt><trkpt lat="44.901826" lon="9.0848823"><ele>324.0</ele><time>2026-05-03T11:19:36.733Z</time></trkpt><trkpt lat="44.9019373" lon="9.0848424"><ele>321.6666666666667</ele><time>2026-05-03T11:19:37.733Z</time></trkpt><trkpt lat="44.9020407" lon="9.0848311"><ele>319.33333333333337</ele><time>2026-05-03T11:19:38.74Z</time></trkpt><trkpt lat="44.9021155" lon="9.0848104"><ele>317.0</ele><time>2026-05-03T11:19:39.736Z</time></trkpt><trkpt lat="44.9021957" lon="9.0847417"><ele>322.33333333333337</ele><time>2026-05-03T11:19:40.733Z</time></trkpt><trkpt lat="44.9022865" lon="9.0846791"><ele>327.6666666666667</ele><time>2026-05-03T11:19:41.743Z</time></trkpt><trkpt lat="44.9023361" lon="9.0846177"><ele>333.0</ele><time>2026-05-03T11:19:42.736Z</time></trkpt><trkpt lat="44.9024286" lon="9.0845482"><ele>338.3333333333333</ele><time>2026-05-03T11:19:44.735Z</time></trkpt><trkpt lat="44.9024881" lon="9.0845108"><ele>343.66666666666663</ele><time>2026-05-03T11:19:45.739Z</time></trkpt><trkpt lat="44.9025488" lon="9.0844621"><ele>349.0</ele><time>2026-05-03T11:19:46.735Z</time></trkpt><trkpt lat="44.9026334" lon="9.084394"><ele>353.3333333333333</ele><time>2026-05-03T11:19:47.739Z</time></trkpt><trkpt lat="44.902697" lon="9.0843155"><ele>357.66666666666663</ele><time>2026-05-03T11:19:48.733Z</time></trkpt><trkpt lat="44.9027537" lon="9.0842233"><ele>362.0</ele><time>2026-05-03T11:19:49.735Z</time></trkpt><trkpt lat="44.9027743" lon="9.0841105"><ele>366.3333333333333</ele><time>2026-05-03T11:19:50.735Z</time></trkpt><trkpt lat="44.9027772" lon="9.0840094"><ele>370.6666666666667</ele><time>2026-05-03T11:19:51.733Z</time></trkpt><trkpt lat="44.9028052" lon="9.0838781"><ele>375.0</ele><time>2026-05-03T11:19:53.735Z</time></trkpt><trkpt lat="44.9028589" lon="9.0837942"><ele>375.0</ele><time>2026-05-03T11:19:55.733Z</time></trkpt><trkpt lat="44.9029346" lon="9.0837242"><ele>375.0</ele><time>2026-05-03T11:19:57.738Z</time></trkpt><trkpt lat="44.9030311" lon="9.0836946"><ele>375.0</ele><time>2026-05-03T11:19:59.745Z</time></trkpt><trkpt lat="44.9031438" lon="9.0836648"><ele>375.0</ele><time>2026-05-03T11:20:01.737Z</time></trkpt><trkpt lat="44.9032102" lon="9.0836444"><ele>375.0</ele><time>2026-05-03T11:20:02.735Z</time></trkpt><trkpt lat="44.903323" lon="9.0836109"><ele>375.0</ele><time>2026-05-03T11:20:04.733Z</time></trkpt><trkpt lat="44.9034005" lon="9.0835512"><ele>375.0</ele><time>2026-05-03T11:20:05.734Z</time></trkpt><trkpt lat="44.9034644" lon="9.0834727"><ele>375.0</ele><time>2026-05-03T11:20:06.736Z</time></trkpt><trkpt lat="44.903539" lon="9.0834"><ele>375.0</ele><time>2026-05-03T11:20:07.739Z</time></trkpt><trkpt lat="44.9036164" lon="9.0833856"><ele>375.0</ele><time>2026-05-03T11:20:08.735Z</time></trkpt><trkpt lat="44.9036977" lon="9.0834013"><ele>375.0</ele><time>2026-05-03T11:20:09.738Z</time></trkpt><trkpt lat="44.9037764" lon="9.0833943"><ele>373.6666666666667</ele><time>2026-05-03T11:20:10.734Z</time></trkpt><trkpt lat="44.9038441" lon="9.0833711"><ele>372.3333333333333</ele><time>2026-05-03T11:20:11.734Z</time></trkpt><trkpt lat="44.9039048" lon="9.0833305"><ele>371.0</ele><time>2026-05-03T11:20:13.734Z</time></trkpt><trkpt lat="44.9038507" lon="9.0832743"><ele>369.66666666666663</ele><time>2026-05-03T11:20:19.735Z</time></trkpt><trkpt lat="44.9039703" lon="9.0832715"><ele>368.3333333333333</ele><time>2026-05-03T11:21:09.736Z</time></trkpt><trkpt lat="44.9040689" lon="9.0832464"><ele>367.0</ele><time>2026-05-03T11:21:10.74Z</time></trkpt><trkpt lat="44.9041625" lon="9.0832179"><ele>367.0</ele><time>2026-05-03T11:21:11.738Z</time></trkpt><trkpt lat="44.9042332" lon="9.0831823"><ele>367.0</ele><time>2026-05-03T11:21:12.735Z</time></trkpt><trkpt lat="44.9043558" lon="9.0832222"><ele>367.0</ele><time>2026-05-03T11:21:14.735Z</time></trkpt><trkpt lat="44.9044134" lon="9.0832766"><ele>367.0</ele><time>2026-05-03T11:21:15.732Z</time></trkpt><trkpt lat="44.9044118" lon="9.0833724"><ele>367.0</ele><time>2026-05-03T11:21:18.734Z</time></trkpt><trkpt lat="44.9043925" lon="9.0834586"><ele>367.0</ele><time>2026-05-03T11:21:19.738Z</time></trkpt><trkpt lat="44.9043745" lon="9.0835588"><ele>372.40000000000003</ele><time>2026-05-03T11:21:20.734Z</time></trkpt><trkpt lat="44.9043987" lon="9.0836541"><ele>377.8</ele><time>2026-05-03T11:21:21.736Z</time></trkpt><trkpt lat="44.9045129" lon="9.0837216"><ele>383.2</ele><time>2026-05-03T11:21:23.737Z</time></trkpt><trkpt lat="44.9046128" lon="9.0836977"><ele>388.6</ele><time>2026-05-03T11:21:24.741Z</time></trkpt><trkpt lat="44.9047144" lon="9.0836657"><ele>394.0</ele><time>2026-05-03T11:21:25.734Z</time></trkpt><trkpt lat="44.9048162" lon="9.0836475"><ele>394.0</ele><time>2026-05-03T11:21:26.734Z</time></trkpt><trkpt lat="44.9049202" lon="9.0836256"><ele>394.0</ele><time>2026-05-03T11:21:27.734Z</time></trkpt><trkpt lat="44.9050333" lon="9.0835757"><ele>394.0</ele><time>2026-05-03T11:21:28.74Z</time></trkpt><trkpt lat="44.9051597" lon="9.0834953"><ele>394.0</ele><time>2026-05-03T11:21:29.744Z</time></trkpt><trkpt lat="44.9052667" lon="9.0834229"><ele>392.6</ele><time>2026-05-03T11:21:30.737Z</time></trkpt><trkpt lat="44.9053726" lon="9.0833852"><ele>391.2</ele><time>2026-05-03T11:21:31.735Z</time></trkpt><trkpt lat="44.9054668" lon="9.0833652"><ele>389.8</ele><time>2026-05-03T11:21:32.738Z</time></trkpt><trkpt lat="44.9055686" lon="9.0833346"><ele>388.40000000000003</ele><time>2026-05-03T11:21:33.738Z</time></trkpt><trkpt lat="44.9056599" lon="9.0832913"><ele>387.0</ele><time>2026-05-03T11:21:34.731Z</time></trkpt><trkpt lat="44.9057463" lon="9.0832502"><ele>387.0</ele><time>2026-05-03T11:21:35.736Z</time></trkpt><trkpt lat="44.9058096" lon="9.0832308"><ele>387.0</ele><time>2026-05-03T11:21:36.747Z</time></trkpt><trkpt lat="44.9059386" lon="9.0832564"><ele>387.0</ele><time>2026-05-03T11:21:38.737Z</time></trkpt><trkpt lat="44.9060325" lon="9.0832919"><ele>387.0</ele><time>2026-05-03T11:21:39.734Z</time></trkpt><trkpt lat="44.9061552" lon="9.0833084"><ele>387.0</ele><time>2026-05-03T11:21:40.734Z</time></trkpt><trkpt lat="44.9062839" lon="9.0833041"><ele>392.20000000000005</ele><time>2026-05-03T11:21:41.747Z</time></trkpt><trkpt lat="44.9063756" lon="9.0832995"><ele>397.4</ele><time>2026-05-03T11:21:42.733Z</time></trkpt><trkpt lat="44.9064864" lon="9.0833232"><ele>402.6</ele><time>2026-05-03T11:21:44.736Z</time></trkpt><trkpt lat="44.9066006" lon="9.08337"><ele>407.79999999999995</ele><time>2026-05-03T11:21:46.738Z</time></trkpt><trkpt lat="44.9066802" lon="9.0833622"><ele>413.0</ele><time>2026-05-03T11:21:48.734Z</time></trkpt><trkpt lat="44.9066488" lon="9.0832537"><ele>413.0</ele><time>2026-05-03T11:21:50.737Z</time></trkpt><trkpt lat="44.9065799" lon="9.0830971"><ele>413.0</ele><time>2026-05-03T11:21:52.733Z</time></trkpt><trkpt lat="44.9065323" lon="9.0830084"><ele>413.0</ele><time>2026-05-03T11:21:53.737Z</time></trkpt><trkpt lat="44.9064899" lon="9.0828818"><ele>413.0</ele><time>2026-05-03T11:21:54.734Z</time></trkpt><trkpt lat="44.9064612" lon="9.0827618"><ele>413.0</ele><time>2026-05-03T11:21:55.734Z</time></trkpt><trkpt lat="44.9064269" lon="9.0826356"><ele>413.0</ele><time>2026-05-03T11:21:56.739Z</time></trkpt><trkpt lat="44.9064015" lon="9.0825447"><ele>413.0</ele><time>2026-05-03T11:21:57.736Z</time></trkpt><trkpt lat="44.9064529" lon="9.0824679"><ele>413.0</ele><time>2026-05-03T11:22:00.736Z</time></trkpt><trkpt lat="44.9065351" lon="9.0824634"><ele>413.0</ele><time>2026-05-03T11:22:01.739Z</time></trkpt><trkpt lat="44.9065987" lon="9.0824395"><ele>413.0</ele><time>2026-05-03T11:22:02.749Z</time></trkpt><trkpt lat="44.9066668" lon="9.0824121"><ele>413.0</ele><time>2026-05-03T11:22:03.738Z</time></trkpt><trkpt lat="44.9067428" lon="9.0823962"><ele>413.0</ele><time>2026-05-03T11:22:04.737Z</time></trkpt><trkpt lat="44.9068123" lon="9.0824334"><ele>417.16666666666663</ele><time>2026-05-03T11:22:05.752Z</time></trkpt><trkpt lat="44.90688" lon="9.0824824"><ele>421.3333333333333</ele><time>2026-05-03T11:22:06.746Z</time></trkpt><trkpt lat="44.9069427" lon="9.0825603"><ele>425.5</ele><time>2026-05-03T11:22:07.739Z</time></trkpt><trkpt lat="44.9070117" lon="9.0826237"><ele>429.66666666666663</ele><time>2026-05-03T11:22:08.74Z</time></trkpt><trkpt lat="44.9070666" lon="9.0826735"><ele>433.8333333333333</ele><time>2026-05-03T11:22:09.738Z</time></trkpt><trkpt lat="44.9071316" lon="9.082721"><ele>438.0</ele><time>2026-05-03T11:22:10.737Z</time></trkpt><trkpt lat="44.9072076" lon="9.0827629"><ele>438.0</ele><time>2026-05-03T11:22:11.742Z</time></trkpt><trkpt lat="44.9072802" lon="9.0827856"><ele>438.0</ele><time>2026-05-03T11:22:12.735Z</time></trkpt><trkpt lat="44.9073532" lon="9.0827897"><ele>438.0</ele><time>2026-05-03T11:22:13.736Z</time></trkpt><trkpt lat="44.9074265" lon="9.0827694"><ele>438.0</ele><time>2026-05-03T11:22:14.737Z</time></trkpt><trkpt lat="44.9075038" lon="9.0827163"><ele>438.0</ele><time>2026-05-03T11:22:15.735Z</time></trkpt><trkpt lat="44.9075799" lon="9.0826351"><ele>438.0</ele><time>2026-05-03T11:22:16.736Z</time></trkpt><trkpt lat="44.9076421" lon="9.082549"><ele>443.1666666666667</ele><time>2026-05-03T11:22:17.739Z</time></trkpt><trkpt lat="44.9076912" lon="9.0824871"><ele>448.33333333333337</ele><time>2026-05-03T11:22:18.739Z</time></trkpt><trkpt lat="44.9077703" lon="9.0824004"><ele>453.5</ele><time>2026-05-03T11:22:20.736Z</time></trkpt><trkpt lat="44.9078498" lon="9.0822919"><ele>458.6666666666667</ele><time>2026-05-03T11:22:22.738Z</time></trkpt><trkpt lat="44.9078963" lon="9.0822159"><ele>463.83333333333337</ele><time>2026-05-03T11:22:23.736Z</time></trkpt><trkpt lat="44.907959" lon="9.0821514"><ele>469.0</ele><time>2026-05-03T11:22:24.731Z</time></trkpt><trkpt lat="44.9080191" lon="9.0820773"><ele>469.83333333333337</ele><time>2026-05-03T11:22:25.738Z</time></trkpt><trkpt lat="44.9080659" lon="9.0820039"><ele>470.6666666666667</ele><time>2026-05-03T11:22:26.734Z</time></trkpt><trkpt lat="44.9081011" lon="9.0819053"><ele>471.5</ele><time>2026-05-03T11:22:27.737Z</time></trkpt><trkpt lat="44.9081187" lon="9.0817774"><ele>472.33333333333337</ele><time>2026-05-03T11:22:28.737Z</time></trkpt><trkpt lat="44.9081311" lon="9.0816416"><ele>473.1666666666667</ele><time>2026-05-03T11:22:29.733Z</time></trkpt><trkpt lat="44.9081478" lon="9.0815149"><ele>474.0</ele><time>2026-05-03T11:22:30.741Z</time></trkpt><trkpt lat="44.9081602" lon="9.0814024"><ele>475.5</ele><time>2026-05-03T11:22:31.745Z</time></trkpt><trkpt lat="44.9081827" lon="9.0812876"><ele>477.0</ele><time>2026-05-03T11:22:32.738Z</time></trkpt><trkpt lat="44.9082085" lon="9.0811652"><ele>478.5</ele><time>2026-05-03T11:22:33.732Z</time></trkpt><trkpt lat="44.9082317" lon="9.0810291"><ele>480.0</ele><time>2026-05-03T11:22:34.735Z</time></trkpt><trkpt lat="44.9082582" lon="9.0809097"><ele>481.5</ele><time>2026-05-03T11:22:35.737Z</time></trkpt><trkpt lat="44.9082894" lon="9.0807976"><ele>483.0</ele><time>2026-05-03T11:22:36.743Z</time></trkpt><trkpt lat="44.9083299" lon="9.0807111"><ele>483.8333333333333</ele><time>2026-05-03T11:22:37.737Z</time></trkpt><trkpt lat="44.9083785" lon="9.0806132"><ele>484.66666666666663</ele><time>2026-05-03T11:22:38.74Z</time></trkpt><trkpt lat="44.9084341" lon="9.0805181"><ele>485.5</ele><time>2026-05-03T11:22:39.745Z</time></trkpt><trkpt lat="44.9084814" lon="9.0804368"><ele>486.3333333333333</ele><time>2026-05-03T11:22:40.749Z</time></trkpt><trkpt lat="44.9085402" lon="9.0803818"><ele>487.16666666666663</ele><time>2026-05-03T11:22:41.739Z</time></trkpt><trkpt lat="44.9086178" lon="9.0803599"><ele>488.0</ele><time>2026-05-03T11:22:42.732Z</time></trkpt><trkpt lat="44.9086848" lon="9.0803663"><ele>488.1428571428571</ele><time>2026-05-03T11:22:43.741Z</time></trkpt><trkpt lat="44.9087695" lon="9.0803624"><ele>488.2857142857143</ele><time>2026-05-03T11:22:44.735Z</time></trkpt><trkpt lat="44.9088395" lon="9.0803505"><ele>488.42857142857144</ele><time>2026-05-03T11:22:45.732Z</time></trkpt><trkpt lat="44.9089122" lon="9.0803425"><ele>488.57142857142856</ele><time>2026-05-03T11:22:46.734Z</time></trkpt><trkpt lat="44.9089815" lon="9.0803416"><ele>488.7142857142858</ele><time>2026-05-03T11:22:47.747Z</time></trkpt><trkpt lat="44.909007" lon="9.0804321"><ele>488.8571428571429</ele><time>2026-05-03T11:22:50.742Z</time></trkpt><trkpt lat="44.9090156" lon="9.0805253"><ele>489.0</ele><time>2026-05-03T11:22:53.738Z</time></trkpt><trkpt lat="44.9090671" lon="9.0806006"><ele>489.0</ele><time>2026-05-03T11:23:43.742Z</time></trkpt><trkpt lat="44.909095" lon="9.0807607"><ele>489.0</ele><time>2026-05-03T11:23:46.74Z</time></trkpt><trkpt lat="44.9091507" lon="9.0809221"><ele>489.0</ele><time>2026-05-03T11:23:48.737Z</time></trkpt><trkpt lat="44.9091844" lon="9.0810102"><ele>489.0</ele><time>2026-05-03T11:23:49.738Z</time></trkpt><trkpt lat="44.9092073" lon="9.0811375"><ele>489.0</ele><time>2026-05-03T11:23:50.737Z</time></trkpt><trkpt lat="44.9092147" lon="9.0812943"><ele>490.0</ele><time>2026-05-03T11:23:51.737Z</time></trkpt><trkpt lat="44.9092128" lon="9.081444"><ele>491.0</ele><time>2026-05-03T11:23:52.736Z</time></trkpt><trkpt lat="44.9092218" lon="9.0815737"><ele>492.0</ele><time>2026-05-03T11:23:53.737Z</time></trkpt><trkpt lat="44.9092376" lon="9.0816928"><ele>493.0</ele><time>2026-05-03T11:23:54.735Z</time></trkpt><trkpt lat="44.9092596" lon="9.0818158"><ele>494.0</ele><time>2026-05-03T11:23:55.737Z</time></trkpt><trkpt lat="44.9092797" lon="9.0819535"><ele>494.0</ele><time>2026-05-03T11:23:56.739Z</time></trkpt><trkpt lat="44.9092959" lon="9.0821057"><ele>494.0</ele><time>2026-05-03T11:23:57.739Z</time></trkpt><trkpt lat="44.90932" lon="9.082262"><ele>494.0</ele><time>2026-05-03T11:23:58.736Z</time></trkpt><trkpt lat="44.909353" lon="9.0824284"><ele>494.0</ele><time>2026-05-03T11:23:59.734Z</time></trkpt><trkpt lat="44.9093919" lon="9.0825988"><ele>496.6</ele><time>2026-05-03T11:24:00.736Z</time></trkpt><trkpt lat="44.909427" lon="9.0827652"><ele>499.2</ele><time>2026-05-03T11:24:01.741Z</time></trkpt><trkpt lat="44.9094524" lon="9.0829084"><ele>501.80000000000007</ele><time>2026-05-03T11:24:02.739Z</time></trkpt><trkpt lat="44.9094716" lon="9.0830401"><ele>504.40000000000003</ele><time>2026-05-03T11:24:03.755Z</time></trkpt><trkpt lat="44.9095102" lon="9.0831946"><ele>507.0</ele><time>2026-05-03T11:24:04.742Z</time></trkpt><trkpt lat="44.9095605" lon="9.0833644"><ele>509.75</ele><time>2026-05-03T11:24:05.733Z</time></trkpt><trkpt lat="44.9096188" lon="9.0835377"><ele>512.5</ele><time>2026-05-03T11:24:06.741Z</time></trkpt><trkpt lat="44.909663" lon="9.0836819"><ele>515.25</ele><time>2026-05-03T11:24:07.744Z</time></trkpt><trkpt lat="44.9096982" lon="9.083867"><ele>518.0</ele><time>2026-05-03T11:24:08.755Z</time></trkpt><trkpt lat="44.9097386" lon="9.0840286"><ele>521.6666666666666</ele><time>2026-05-03T11:24:09.735Z</time></trkpt><trkpt lat="44.9098534" lon="9.0843479"><ele>525.3333333333334</ele><time>2026-05-03T11:24:11.135Z</time></trkpt><trkpt lat="44.9099206" lon="9.0845364"><ele>529.0</ele><time>2026-05-03T11:24:12.133Z</time></trkpt><trkpt lat="44.9099897" lon="9.0847233"><ele>529.0</ele><time>2026-05-03T11:24:13.131Z</time></trkpt><trkpt lat="44.9100379" lon="9.0849085"><ele>529.0</ele><time>2026-05-03T11:24:14.13Z</time></trkpt><trkpt lat="44.910067" lon="9.0850266"><ele>529.0</ele><time>2026-05-03T11:24:15.14Z</time></trkpt><trkpt lat="44.9100936" lon="9.0851527"><ele>529.0</ele><time>2026-05-03T11:24:16.133Z</time></trkpt><trkpt lat="44.9101087" lon="9.0853059"><ele>529.0</ele><time>2026-05-03T11:24:17.129Z</time></trkpt><trkpt lat="44.9101321" lon="9.0854734"><ele>529.6666666666667</ele><time>2026-05-03T11:24:18.135Z</time></trkpt><trkpt lat="44.9101642" lon="9.0856034"><ele>530.3333333333334</ele><time>2026-05-03T11:24:19.134Z</time></trkpt><trkpt lat="44.9101912" lon="9.0857012"><ele>531.0</ele><time>2026-05-03T11:24:20.13Z</time></trkpt><trkpt lat="44.9102174" lon="9.0858368"><ele>531.6666666666666</ele><time>2026-05-03T11:24:22.137Z</time></trkpt><trkpt lat="44.9102295" lon="9.0859314"><ele>532.3333333333333</ele><time>2026-05-03T11:24:24.139Z</time></trkpt><trkpt lat="44.9102236" lon="9.0860213"><ele>533.0</ele><time>2026-05-03T11:24:26.132Z</time></trkpt><trkpt lat="44.9102284" lon="9.0861107"><ele>535.0</ele><time>2026-05-03T11:24:28.136Z</time></trkpt><trkpt lat="44.9102291" lon="9.086203"><ele>537.0</ele><time>2026-05-03T11:24:30.127Z</time></trkpt><trkpt lat="44.910226" lon="9.0863089"><ele>539.0</ele><time>2026-05-03T11:24:32.14Z</time></trkpt><trkpt lat="44.910237" lon="9.0864257"><ele>541.0</ele><time>2026-05-03T11:24:34.131Z</time></trkpt><trkpt lat="44.9102498" lon="9.0865709"><ele>543.0</ele><time>2026-05-03T11:24:36.137Z</time></trkpt><trkpt lat="44.9102781" lon="9.0867779"><ele>545.25</ele><time>2026-05-03T11:24:38.128Z</time></trkpt><trkpt lat="44.9103029" lon="9.0869153"><ele>547.5</ele><time>2026-05-03T11:24:39.137Z</time></trkpt><trkpt lat="44.910332" lon="9.0871003"><ele>549.75</ele><time>2026-05-03T11:24:40.138Z</time></trkpt><trkpt lat="44.9103579" lon="9.0873138"><ele>552.0</ele><time>2026-05-03T11:24:41.132Z</time></trkpt><trkpt lat="44.9103804" lon="9.0875237"><ele>552.5</ele><time>2026-05-03T11:24:42.129Z</time></trkpt><trkpt lat="44.9103947" lon="9.0877264"><ele>553.0</ele><time>2026-05-03T11:24:43.132Z</time></trkpt><trkpt lat="44.9104033" lon="9.0879211"><ele>553.5</ele><time>2026-05-03T11:24:44.129Z</time></trkpt><trkpt lat="44.910398" lon="9.0881421"><ele>554.0</ele><time>2026-05-03T11:24:45.13Z</time></trkpt><trkpt lat="44.9103897" lon="9.08836"><ele>553.0</ele><time>2026-05-03T11:24:46.132Z</time></trkpt><trkpt lat="44.9103826" lon="9.0885557"><ele>552.0</ele><time>2026-05-03T11:24:47.134Z</time></trkpt><trkpt lat="44.9103836" lon="9.0887217"><ele>551.0</ele><time>2026-05-03T11:24:48.134Z</time></trkpt><trkpt lat="44.910403" lon="9.0888649"><ele>550.0</ele><time>2026-05-03T11:24:49.129Z</time></trkpt><trkpt lat="44.9104326" lon="9.0889641"><ele>549.0</ele><time>2026-05-03T11:24:50.133Z</time></trkpt><trkpt lat="44.9104614" lon="9.0890497"><ele>547.5</ele><time>2026-05-03T11:24:51.131Z</time></trkpt><trkpt lat="44.9104943" lon="9.0892727"><ele>546.0</ele><time>2026-05-03T11:24:53.133Z</time></trkpt><trkpt lat="44.9105096" lon="9.089439"><ele>544.5</ele><time>2026-05-03T11:24:54.139Z</time></trkpt><trkpt lat="44.910529" lon="9.0896067"><ele>543.0</ele><time>2026-05-03T11:24:55.13Z</time></trkpt><trkpt lat="44.9105564" lon="9.0897423"><ele>543.0</ele><time>2026-05-03T11:24:56.132Z</time></trkpt><trkpt lat="44.9105895" lon="9.0898687"><ele>543.0</ele><time>2026-05-03T11:24:57.145Z</time></trkpt><trkpt lat="44.9106245" lon="9.0900044"><ele>543.0</ele><time>2026-05-03T11:24:58.138Z</time></trkpt><trkpt lat="44.9106692" lon="9.0901007"><ele>543.0</ele><time>2026-05-03T11:24:59.133Z</time></trkpt><trkpt lat="44.9107101" lon="9.0902038"><ele>543.0</ele><time>2026-05-03T11:25:00.136Z</time></trkpt><trkpt lat="44.9107593" lon="9.0902779"><ele>543.0</ele><time>2026-05-03T11:25:03.132Z</time></trkpt><trkpt lat="44.9108185" lon="9.090324"><ele>543.1999999999999</ele><time>2026-05-03T11:25:05.135Z</time></trkpt><trkpt lat="44.9108722" lon="9.0904235"><ele>543.4</ele><time>2026-05-03T11:25:07.133Z</time></trkpt><trkpt lat="44.9109101" lon="9.0905269"><ele>543.5999999999999</ele><time>2026-05-03T11:25:08.132Z</time></trkpt><trkpt lat="44.9109599" lon="9.0906416"><ele>543.8</ele><time>2026-05-03T11:25:09.131Z</time></trkpt><trkpt lat="44.9110332" lon="9.090769"><ele>544.0</ele><time>2026-05-03T11:25:10.129Z</time></trkpt><trkpt lat="44.9111437" lon="9.0909041"><ele>543.0</ele><time>2026-05-03T11:25:11.143Z</time></trkpt><trkpt lat="44.9112369" lon="9.091024"><ele>542.0</ele><time>2026-05-03T11:25:12.132Z</time></trkpt><trkpt lat="44.9113427" lon="9.0911504"><ele>541.0</ele><time>2026-05-03T11:25:13.137Z</time></trkpt><trkpt lat="44.9114409" lon="9.0912732"><ele>540.0</ele><time>2026-05-03T11:25:14.138Z</time></trkpt><trkpt lat="44.911533" lon="9.0913832"><ele>540.0</ele><time>2026-05-03T11:25:15.141Z</time></trkpt><trkpt lat="44.9116077" lon="9.0914841"><ele>540.0</ele><time>2026-05-03T11:25:16.137Z</time></trkpt><trkpt lat="44.9116673" lon="9.0915894"><ele>540.0</ele><time>2026-05-03T11:25:17.136Z</time></trkpt><trkpt lat="44.9117191" lon="9.091702"><ele>540.0</ele><time>2026-05-03T11:25:18.136Z</time></trkpt><trkpt lat="44.9117494" lon="9.0918155"><ele>540.0</ele><time>2026-05-03T11:25:19.133Z</time></trkpt><trkpt lat="44.9117784" lon="9.0919356"><ele>542.0</ele><time>2026-05-03T11:25:20.139Z</time></trkpt><trkpt lat="44.911803" lon="9.0920207"><ele>544.0</ele><time>2026-05-03T11:25:21.136Z</time></trkpt><trkpt lat="44.9118869" lon="9.0921019"><ele>546.0</ele><time>2026-05-03T11:25:23.13Z</time></trkpt><trkpt lat="44.9119631" lon="9.0921303"><ele>548.0</ele><time>2026-05-03T11:25:25.127Z</time></trkpt><trkpt lat="44.9120173" lon="9.0921879"><ele>550.0</ele><time>2026-05-03T11:25:27.151Z</time></trkpt><trkpt lat="44.9120492" lon="9.0922708"><ele>552.0</ele><time>2026-05-03T11:25:29.131Z</time></trkpt><trkpt lat="44.9120167" lon="9.0923547"><ele>554.0</ele><time>2026-05-03T11:25:33.134Z</time></trkpt><trkpt lat="44.9119728" lon="9.09242"><ele>555.3333333333333</ele><time>2026-05-03T11:26:08.129Z</time></trkpt><trkpt lat="44.911901" lon="9.0924993"><ele>556.6666666666666</ele><time>2026-05-03T11:26:10.131Z</time></trkpt><trkpt lat="44.911841" lon="9.0925656"><ele>558.0</ele><time>2026-05-03T11:26:12.13Z</time></trkpt><trkpt lat="44.9118648" lon="9.092704"><ele>559.3333333333334</ele><time>2026-05-03T11:26:15.132Z</time></trkpt><trkpt lat="44.9118992" lon="9.0927841"><ele>560.6666666666667</ele><time>2026-05-03T11:26:16.134Z</time></trkpt><trkpt lat="44.9119329" lon="9.0928697"><ele>562.0</ele><time>2026-05-03T11:26:17.129Z</time></trkpt><trkpt lat="44.9119713" lon="9.0929567"><ele>562.0</ele><time>2026-05-03T11:26:18.134Z</time></trkpt><trkpt lat="44.9120192" lon="9.0930453"><ele>562.0</ele><time>2026-05-03T11:26:19.125Z</time></trkpt><trkpt lat="44.9120759" lon="9.0931419"><ele>562.0</ele><time>2026-05-03T11:26:20.135Z</time></trkpt><trkpt lat="44.9121372" lon="9.0932478"><ele>562.0</ele><time>2026-05-03T11:26:21.131Z</time></trkpt><trkpt lat="44.9122023" lon="9.0933653"><ele>562.0</ele><time>2026-05-03T11:26:22.134Z</time></trkpt><trkpt lat="44.9122621" lon="9.093482"><ele>561.0</ele><time>2026-05-03T11:26:23.152Z</time></trkpt><trkpt lat="44.9123188" lon="9.093596"><ele>560.0</ele><time>2026-05-03T11:26:24.128Z</time></trkpt><trkpt lat="44.9123775" lon="9.0937077"><ele>559.0</ele><time>2026-05-03T11:26:25.128Z</time></trkpt><trkpt lat="44.9124219" lon="9.093826"><ele>558.0</ele><time>2026-05-03T11:26:26.136Z</time></trkpt><trkpt lat="44.9124554" lon="9.0939635"><ele>557.0</ele><time>2026-05-03T11:26:27.134Z</time></trkpt><trkpt lat="44.9124706" lon="9.0941057"><ele>554.0</ele><time>2026-05-03T11:26:28.131Z</time></trkpt><trkpt lat="44.9124615" lon="9.0942501"><ele>551.0</ele><time>2026-05-03T11:26:29.133Z</time></trkpt><trkpt lat="44.9124626" lon="9.0943874"><ele>548.0</ele><time>2026-05-03T11:26:30.131Z</time></trkpt><trkpt lat="44.912477" lon="9.0945319"><ele>545.0</ele><time>2026-05-03T11:26:31.135Z</time></trkpt><trkpt lat="44.9125022" lon="9.094659"><ele>542.0</ele><time>2026-05-03T11:26:32.136Z</time></trkpt><trkpt lat="44.912546" lon="9.0947857"><ele>543.5</ele><time>2026-05-03T11:26:33.133Z</time></trkpt><trkpt lat="44.912595" lon="9.0949018"><ele>545.0</ele><time>2026-05-03T11:26:34.129Z</time></trkpt><trkpt lat="44.9126416" lon="9.0950157"><ele>546.5</ele><time>2026-05-03T11:26:35.134Z</time></trkpt><trkpt lat="44.9126823" lon="9.0951206"><ele>548.0</ele><time>2026-05-03T11:26:36.134Z</time></trkpt><trkpt lat="44.9127156" lon="9.0952202"><ele>549.5</ele><time>2026-05-03T11:26:37.129Z</time></trkpt><trkpt lat="44.9127312" lon="9.0953093"><ele>551.0</ele><time>2026-05-03T11:26:38.137Z</time></trkpt><trkpt lat="44.9126894" lon="9.0954823"><ele>551.0</ele><time>2026-05-03T11:26:40.133Z</time></trkpt><trkpt lat="44.9126454" lon="9.0955628"><ele>551.0</ele><time>2026-05-03T11:26:41.135Z</time></trkpt><trkpt lat="44.9126098" lon="9.0956469"><ele>551.0</ele><time>2026-05-03T11:26:42.13Z</time></trkpt><trkpt lat="44.912586" lon="9.0957422"><ele>551.0</ele><time>2026-05-03T11:26:43.126Z</time></trkpt><trkpt lat="44.9126398" lon="9.0958969"><ele>551.0</ele><time>2026-05-03T11:26:45.131Z</time></trkpt><trkpt lat="44.9126977" lon="9.0959682"><ele>551.0</ele><time>2026-05-03T11:26:46.127Z</time></trkpt><trkpt lat="44.9127587" lon="9.0960572"><ele>547.2</ele><time>2026-05-03T11:26:47.135Z</time></trkpt><trkpt lat="44.912813" lon="9.0961578"><ele>543.4000000000001</ele><time>2026-05-03T11:26:48.135Z</time></trkpt><trkpt lat="44.9128567" lon="9.0962766"><ele>539.6</ele><time>2026-05-03T11:26:49.132Z</time></trkpt><trkpt lat="44.9129006" lon="9.0963881"><ele>535.8000000000001</ele><time>2026-05-03T11:26:50.13Z</time></trkpt><trkpt lat="44.9129549" lon="9.0964897"><ele>532.0</ele><time>2026-05-03T11:26:51.132Z</time></trkpt><trkpt lat="44.9130068" lon="9.0965917"><ele>529.0</ele><time>2026-05-03T11:26:52.125Z</time></trkpt><trkpt lat="44.9130469" lon="9.0966975"><ele>526.0</ele><time>2026-05-03T11:26:53.134Z</time></trkpt><trkpt lat="44.9130827" lon="9.0967956"><ele>523.0</ele><time>2026-05-03T11:26:54.13Z</time></trkpt><trkpt lat="44.9131312" lon="9.0968753"><ele>520.0</ele><time>2026-05-03T11:26:55.127Z</time></trkpt><trkpt lat="44.9131991" lon="9.0969142"><ele>517.0</ele><time>2026-05-03T11:26:56.13Z</time></trkpt><trkpt lat="44.9132806" lon="9.0969259"><ele>514.0</ele><time>2026-05-03T11:26:57.125Z</time></trkpt><trkpt lat="44.913367" lon="9.0969164"><ele>515.0</ele><time>2026-05-03T11:26:58.126Z</time></trkpt><trkpt lat="44.9134611" lon="9.096897"><ele>516.0</ele><time>2026-05-03T11:26:59.134Z</time></trkpt><trkpt lat="44.9135667" lon="9.0968885"><ele>517.0</ele><time>2026-05-03T11:27:00.131Z</time></trkpt><trkpt lat="44.9136765" lon="9.0968973"><ele>518.0</ele><time>2026-05-03T11:27:01.135Z</time></trkpt><trkpt lat="44.9137862" lon="9.096917"><ele>519.0</ele><time>2026-05-03T11:27:02.139Z</time></trkpt><trkpt lat="44.9138951" lon="9.0969527"><ele>519.0</ele><time>2026-05-03T11:27:03.133Z</time></trkpt><trkpt lat="44.9139969" lon="9.09701"><ele>519.0</ele><time>2026-05-03T11:27:04.133Z</time></trkpt><trkpt lat="44.9140954" lon="9.0970787"><ele>519.0</ele><time>2026-05-03T11:27:05.134Z</time></trkpt><trkpt lat="44.9141912" lon="9.0971553"><ele>519.0</ele><time>2026-05-03T11:27:06.132Z</time></trkpt><trkpt lat="44.9142939" lon="9.0972316"><ele>519.0</ele><time>2026-05-03T11:27:07.138Z</time></trkpt><trkpt lat="44.9143994" lon="9.097302"><ele>517.0</ele><time>2026-05-03T11:27:08.132Z</time></trkpt><trkpt lat="44.9144948" lon="9.0973848"><ele>515.0</ele><time>2026-05-03T11:27:09.13Z</time></trkpt><trkpt lat="44.9145854" lon="9.0974939"><ele>513.0</ele><time>2026-05-03T11:27:10.129Z</time></trkpt><trkpt lat="44.9146778" lon="9.0976168"><ele>511.0</ele><time>2026-05-03T11:27:11.136Z</time></trkpt><trkpt lat="44.9147669" lon="9.0977337"><ele>511.0</ele><time>2026-05-03T11:27:12.131Z</time></trkpt><trkpt lat="44.914847" lon="9.0978525"><ele>511.0</ele><time>2026-05-03T11:27:13.13Z</time></trkpt><trkpt lat="44.9149154" lon="9.0979645"><ele>511.0</ele><time>2026-05-03T11:27:14.129Z</time></trkpt><trkpt lat="44.9149852" lon="9.0980764"><ele>511.0</ele><time>2026-05-03T11:27:15.128Z</time></trkpt><trkpt lat="44.9150607" lon="9.0981813"><ele>511.0</ele><time>2026-05-03T11:27:16.136Z</time></trkpt><trkpt lat="44.9151367" lon="9.098276"><ele>510.00000000000006</ele><time>2026-05-03T11:27:17.127Z</time></trkpt><trkpt lat="44.9152083" lon="9.0983533"><ele>509.0</ele><time>2026-05-03T11:27:18.134Z</time></trkpt><trkpt lat="44.9152675" lon="9.0984174"><ele>508.0</ele><time>2026-05-03T11:27:19.127Z</time></trkpt><trkpt lat="44.9152658" lon="9.0985149"><ele>507.0</ele><time>2026-05-03T11:27:21.132Z</time></trkpt><trkpt lat="44.9151696" lon="9.0984951"><ele>506.00000000000006</ele><time>2026-05-03T11:27:23.13Z</time></trkpt><trkpt lat="44.9150668" lon="9.0984342"><ele>505.0</ele><time>2026-05-03T11:27:25.133Z</time></trkpt><trkpt lat="44.9150075" lon="9.0985181"><ele>505.00000000000006</ele><time>2026-05-03T11:27:27.131Z</time></trkpt><trkpt lat="44.915075" lon="9.0985905"><ele>505.0</ele><time>2026-05-03T11:27:29.129Z</time></trkpt><trkpt lat="44.9151697" lon="9.0986231"><ele>505.0</ele><time>2026-05-03T11:27:31.134Z</time></trkpt><trkpt lat="44.9152391" lon="9.0986463"><ele>505.0</ele><time>2026-05-03T11:27:33.13Z</time></trkpt><trkpt lat="44.9152675" lon="9.0987278"><ele>505.00000000000006</ele><time>2026-05-03T11:27:36.134Z</time></trkpt><trkpt lat="44.9151589" lon="9.0987428"><ele>505.0</ele><time>2026-05-03T11:27:39.133Z</time></trkpt><trkpt lat="44.915043" lon="9.0987017"><ele>502.6666666666667</ele><time>2026-05-03T11:27:41.132Z</time></trkpt><trkpt lat="44.9149755" lon="9.09869"><ele>500.33333333333337</ele><time>2026-05-03T11:27:42.128Z</time></trkpt><trkpt lat="44.9148997" lon="9.0986939"><ele>498.0</ele><time>2026-05-03T11:27:43.137Z</time></trkpt><trkpt lat="44.9148248" lon="9.0987132"><ele>495.66666666666663</ele><time>2026-05-03T11:27:44.129Z</time></trkpt><trkpt lat="44.9147454" lon="9.0987441"><ele>493.3333333333333</ele><time>2026-05-03T11:27:45.127Z</time></trkpt><trkpt lat="44.9146605" lon="9.0987957"><ele>491.0</ele><time>2026-05-03T11:27:46.132Z</time></trkpt><trkpt lat="44.9145717" lon="9.0988353"><ele>491.0</ele><time>2026-05-03T11:27:47.13Z</time></trkpt><trkpt lat="44.9144744" lon="9.0988482"><ele>491.0</ele><time>2026-05-03T11:27:48.131Z</time></trkpt><trkpt lat="44.9143731" lon="9.0988351"><ele>491.0</ele><time>2026-05-03T11:27:49.135Z</time></trkpt><trkpt lat="44.9142731" lon="9.0987768"><ele>491.0</ele><time>2026-05-03T11:27:50.129Z</time></trkpt><trkpt lat="44.9141768" lon="9.0987128"><ele>491.0</ele><time>2026-05-03T11:27:51.134Z</time></trkpt><trkpt lat="44.9140937" lon="9.0986188"><ele>488.49999999999994</ele><time>2026-05-03T11:27:52.13Z</time></trkpt><trkpt lat="44.9140188" lon="9.0985233"><ele>486.0</ele><time>2026-05-03T11:27:53.13Z</time></trkpt><trkpt lat="44.913948" lon="9.0984443"><ele>483.5</ele><time>2026-05-03T11:27:54.134Z</time></trkpt><trkpt lat="44.9138819" lon="9.0984057"><ele>481.0</ele><time>2026-05-03T11:27:55.134Z</time></trkpt><trkpt lat="44.9137934" lon="9.0985064"><ele>478.49999999999994</ele><time>2026-05-03T11:27:57.132Z</time></trkpt><trkpt lat="44.9138012" lon="9.0985994"><ele>476.0</ele><time>2026-05-03T11:27:58.129Z</time></trkpt><trkpt lat="44.913852" lon="9.0986859"><ele>476.0</ele><time>2026-05-03T11:27:59.131Z</time></trkpt><trkpt lat="44.9139295" lon="9.0987649"><ele>476.0</ele><time>2026-05-03T11:28:00.129Z</time></trkpt><trkpt lat="44.9140238" lon="9.098842"><ele>476.0</ele><time>2026-05-03T11:28:01.132Z</time></trkpt><trkpt lat="44.9141266" lon="9.0989222"><ele>476.0</ele><time>2026-05-03T11:28:02.128Z</time></trkpt><trkpt lat="44.9142257" lon="9.0990016"><ele>476.0</ele><time>2026-05-03T11:28:03.135Z</time></trkpt><trkpt lat="44.914315" lon="9.0990743"><ele>475.6</ele><time>2026-05-03T11:28:04.141Z</time></trkpt><trkpt lat="44.9143867" lon="9.0991481"><ele>475.20000000000005</ele><time>2026-05-03T11:28:05.13Z</time></trkpt><trkpt lat="44.9144411" lon="9.0992318"><ele>474.79999999999995</ele><time>2026-05-03T11:28:06.134Z</time></trkpt><trkpt lat="44.9144707" lon="9.0993383"><ele>474.4</ele><time>2026-05-03T11:28:07.142Z</time></trkpt><trkpt lat="44.9144088" lon="9.0994145"><ele>474.0</ele><time>2026-05-03T11:28:09.129Z</time></trkpt><trkpt lat="44.9142225" lon="9.0992745"><ele>471.0</ele><time>2026-05-03T11:28:11.13Z</time></trkpt><trkpt lat="44.9140926" lon="9.0991838"><ele>468.0</ele><time>2026-05-03T11:28:12.132Z</time></trkpt><trkpt lat="44.9139555" lon="9.0991299"><ele>465.0</ele><time>2026-05-03T11:28:13.135Z</time></trkpt><trkpt lat="44.9138461" lon="9.0991083"><ele>462.0</ele><time>2026-05-03T11:28:14.128Z</time></trkpt><trkpt lat="44.9137577" lon="9.0991229"><ele>462.0</ele><time>2026-05-03T11:28:15.125Z</time></trkpt><trkpt lat="44.9136875" lon="9.0991926"><ele>462.00000000000006</ele><time>2026-05-03T11:28:16.131Z</time></trkpt><trkpt lat="44.9136291" lon="9.0992998"><ele>462.00000000000006</ele><time>2026-05-03T11:28:17.134Z</time></trkpt><trkpt lat="44.9135683" lon="9.0994169"><ele>462.0</ele><time>2026-05-03T11:28:18.131Z</time></trkpt><trkpt lat="44.9134964" lon="9.0995106"><ele>462.0</ele><time>2026-05-03T11:28:19.135Z</time></trkpt><trkpt lat="44.9134111" lon="9.0995728"><ele>460.0</ele><time>2026-05-03T11:28:20.133Z</time></trkpt><trkpt lat="44.9133208" lon="9.0996182"><ele>458.00000000000006</ele><time>2026-05-03T11:28:21.134Z</time></trkpt><trkpt lat="44.9132263" lon="9.0996377"><ele>456.00000000000006</ele><time>2026-05-03T11:28:22.133Z</time></trkpt><trkpt lat="44.9131332" lon="9.0996467"><ele>454.0</ele><time>2026-05-03T11:28:23.129Z</time></trkpt><trkpt lat="44.9130372" lon="9.0996699"><ele>452.0</ele><time>2026-05-03T11:28:24.131Z</time></trkpt><trkpt lat="44.9129442" lon="9.0996805"><ele>452.0</ele><time>2026-05-03T11:28:25.136Z</time></trkpt><trkpt lat="44.9128477" lon="9.0996935"><ele>452.00000000000006</ele><time>2026-05-03T11:28:26.134Z</time></trkpt><trkpt lat="44.9127463" lon="9.0997073"><ele>452.00000000000006</ele><time>2026-05-03T11:28:27.13Z</time></trkpt><trkpt lat="44.9126366" lon="9.0997416"><ele>452.0</ele><time>2026-05-03T11:28:28.131Z</time></trkpt><trkpt lat="44.9125204" lon="9.0997822"><ele>452.0</ele><time>2026-05-03T11:28:29.13Z</time></trkpt><trkpt lat="44.9124146" lon="9.0998245"><ele>449.99999999999994</ele><time>2026-05-03T11:28:30.129Z</time></trkpt><trkpt lat="44.9123218" lon="9.0998691"><ele>448.0</ele><time>2026-05-03T11:28:31.133Z</time></trkpt><trkpt lat="44.9122512" lon="9.0998944"><ele>446.0</ele><time>2026-05-03T11:28:32.129Z</time></trkpt><trkpt lat="44.912182" lon="9.0998706"><ele>444.0</ele><time>2026-05-03T11:28:33.131Z</time></trkpt><trkpt lat="44.9121176" lon="9.0998254"><ele>441.99999999999994</ele><time>2026-05-03T11:28:34.129Z</time></trkpt><trkpt lat="44.9120771" lon="9.0997033"><ele>440.0</ele><time>2026-05-03T11:28:35.126Z</time></trkpt><trkpt lat="44.9120247" lon="9.099604"><ele>440.0</ele><time>2026-05-03T11:28:36.131Z</time></trkpt><trkpt lat="44.9119571" lon="9.0995616"><ele>440.0</ele><time>2026-05-03T11:28:37.133Z</time></trkpt><trkpt lat="44.911872" lon="9.099564"><ele>440.0</ele><time>2026-05-03T11:28:38.129Z</time></trkpt><trkpt lat="44.9117712" lon="9.0996021"><ele>440.0</ele><time>2026-05-03T11:28:39.161Z</time></trkpt><trkpt lat="44.9116656" lon="9.0996558"><ele>440.0</ele><time>2026-05-03T11:28:40.148Z</time></trkpt><trkpt lat="44.9115513" lon="9.099705"><ele>436.5</ele><time>2026-05-03T11:28:41.128Z</time></trkpt><trkpt lat="44.9114348" lon="9.0997479"><ele>433.0</ele><time>2026-05-03T11:28:42.132Z</time></trkpt><trkpt lat="44.9113246" lon="9.0997956"><ele>429.5</ele><time>2026-05-03T11:28:43.13Z</time></trkpt><trkpt lat="44.9112216" lon="9.0998557"><ele>426.0</ele><time>2026-05-03T11:28:44.127Z</time></trkpt><trkpt lat="44.9111268" lon="9.0999366"><ele>424.8</ele><time>2026-05-03T11:28:45.131Z</time></trkpt><trkpt lat="44.9110415" lon="9.1000474"><ele>423.6</ele><time>2026-05-03T11:28:46.135Z</time></trkpt><trkpt lat="44.9109568" lon="9.1001577"><ele>422.4</ele><time>2026-05-03T11:28:47.135Z</time></trkpt><trkpt lat="44.9108667" lon="9.1002522"><ele>421.2</ele><time>2026-05-03T11:28:48.128Z</time></trkpt><trkpt lat="44.9107674" lon="9.1003046"><ele>420.0</ele><time>2026-05-03T11:28:49.134Z</time></trkpt><trkpt lat="44.9106591" lon="9.1003098"><ele>417.25</ele><time>2026-05-03T11:28:50.131Z</time></trkpt><trkpt lat="44.9105447" lon="9.1002711"><ele>414.5</ele><time>2026-05-03T11:28:51.127Z</time></trkpt><trkpt lat="44.9104285" lon="9.1001999"><ele>411.75</ele><time>2026-05-03T11:28:52.128Z</time></trkpt><trkpt lat="44.9103141" lon="9.1001172"><ele>409.0</ele><time>2026-05-03T11:28:53.124Z</time></trkpt><trkpt lat="44.9102027" lon="9.1000305"><ele>409.0</ele><time>2026-05-03T11:28:54.127Z</time></trkpt><trkpt lat="44.9100962" lon="9.0999639"><ele>409.0</ele><time>2026-05-03T11:28:55.136Z</time></trkpt><trkpt lat="44.9099865" lon="9.0999328"><ele>409.0</ele><time>2026-05-03T11:28:56.141Z</time></trkpt><trkpt lat="44.909876" lon="9.0999369"><ele>409.0</ele><time>2026-05-03T11:28:57.134Z</time></trkpt><trkpt lat="44.9097678" lon="9.0999518"><ele>409.0</ele><time>2026-05-03T11:28:58.128Z</time></trkpt><trkpt lat="44.9096698" lon="9.099944"><ele>407.5</ele><time>2026-05-03T11:28:59.135Z</time></trkpt><trkpt lat="44.9095762" lon="9.0998979"><ele>406.0</ele><time>2026-05-03T11:29:00.13Z</time></trkpt><trkpt lat="44.9094779" lon="9.0998338"><ele>404.5</ele><time>2026-05-03T11:29:01.129Z</time></trkpt><trkpt lat="44.9093639" lon="9.0997771"><ele>403.0</ele><time>2026-05-03T11:29:02.129Z</time></trkpt><trkpt lat="44.9092419" lon="9.0997329"><ele>399.75</ele><time>2026-05-03T11:29:03.129Z</time></trkpt><trkpt lat="44.9091156" lon="9.0996897"><ele>396.5</ele><time>2026-05-03T11:29:04.129Z</time></trkpt><trkpt lat="44.9089932" lon="9.0996369"><ele>393.25</ele><time>2026-05-03T11:29:05.131Z</time></trkpt><trkpt lat="44.9088739" lon="9.0995864"><ele>390.0</ele><time>2026-05-03T11:29:06.136Z</time></trkpt><trkpt lat="44.9087586" lon="9.0995467"><ele>390.0</ele><time>2026-05-03T11:29:07.126Z</time></trkpt><trkpt lat="44.908647" lon="9.0995324"><ele>390.0</ele><time>2026-05-03T11:29:08.131Z</time></trkpt><trkpt lat="44.9085423" lon="9.099527"><ele>390.0</ele><time>2026-05-03T11:29:09.129Z</time></trkpt><trkpt lat="44.9084522" lon="9.0995024"><ele>390.0</ele><time>2026-05-03T11:29:10.129Z</time></trkpt><trkpt lat="44.9083734" lon="9.0994434"><ele>390.0</ele><time>2026-05-03T11:29:11.135Z</time></trkpt><trkpt lat="44.9083046" lon="9.0993461"><ele>387.8</ele><time>2026-05-03T11:29:12.132Z</time></trkpt><trkpt lat="44.9082341" lon="9.0992265"><ele>385.6</ele><time>2026-05-03T11:29:13.131Z</time></trkpt><trkpt lat="44.9081672" lon="9.0990986"><ele>383.4</ele><time>2026-05-03T11:29:14.127Z</time></trkpt><trkpt lat="44.9081096" lon="9.0989711"><ele>381.2</ele><time>2026-05-03T11:29:15.13Z</time></trkpt><trkpt lat="44.9080583" lon="9.0988655"><ele>379.0</ele><time>2026-05-03T11:29:16.132Z</time></trkpt><trkpt lat="44.9080042" lon="9.0988049"><ele>379.0</ele><time>2026-05-03T11:29:17.128Z</time></trkpt><trkpt lat="44.9078835" lon="9.0988274"><ele>379.0</ele><time>2026-05-03T11:29:19.135Z</time></trkpt><trkpt lat="44.9078391" lon="9.0988914"><ele>379.0</ele><time>2026-05-03T11:29:20.13Z</time></trkpt><trkpt lat="44.9078276" lon="9.0990566"><ele>379.0</ele><time>2026-05-03T11:29:21.13Z</time></trkpt><trkpt lat="44.9078169" lon="9.0992332"><ele>379.0</ele><time>2026-05-03T11:29:22.129Z</time></trkpt><trkpt lat="44.9077975" lon="9.0994129"><ele>378.4</ele><time>2026-05-03T11:29:23.145Z</time></trkpt><trkpt lat="44.907774" lon="9.0995719"><ele>377.79999999999995</ele><time>2026-05-03T11:29:24.13Z</time></trkpt><trkpt lat="44.9077462" lon="9.0997136"><ele>377.20000000000005</ele><time>2026-05-03T11:29:25.129Z</time></trkpt><trkpt lat="44.9076932" lon="9.0998162"><ele>376.6</ele><time>2026-05-03T11:29:26.132Z</time></trkpt><trkpt lat="44.9076127" lon="9.0998693"><ele>376.0</ele><time>2026-05-03T11:29:27.134Z</time></trkpt><trkpt lat="44.907516" lon="9.0998845"><ele>373.0</ele><time>2026-05-03T11:29:28.127Z</time></trkpt><trkpt lat="44.9074072" lon="9.0998824"><ele>370.0</ele><time>2026-05-03T11:29:29.132Z</time></trkpt><trkpt lat="44.9072871" lon="9.0998769"><ele>367.0</ele><time>2026-05-03T11:29:30.13Z</time></trkpt><trkpt lat="44.9071616" lon="9.0998759"><ele>364.0</ele><time>2026-05-03T11:29:31.133Z</time></trkpt><trkpt lat="44.9070363" lon="9.0998881"><ele>363.75</ele><time>2026-05-03T11:29:32.134Z</time></trkpt><trkpt lat="44.9069182" lon="9.0999191"><ele>363.5</ele><time>2026-05-03T11:29:33.132Z</time></trkpt><trkpt lat="44.906808" lon="9.0999711"><ele>363.25</ele><time>2026-05-03T11:29:34.135Z</time></trkpt><trkpt lat="44.906704" lon="9.1000398"><ele>363.0</ele><time>2026-05-03T11:29:35.145Z</time></trkpt><trkpt lat="44.9065993" lon="9.1001109"><ele>361.0</ele><time>2026-05-03T11:29:36.13Z</time></trkpt><trkpt lat="44.9064964" lon="9.1001904"><ele>359.0</ele><time>2026-05-03T11:29:37.134Z</time></trkpt><trkpt lat="44.9063953" lon="9.1002697"><ele>357.0</ele><time>2026-05-03T11:29:38.133Z</time></trkpt><trkpt lat="44.9063015" lon="9.100331"><ele>355.0</ele><time>2026-05-03T11:29:39.133Z</time></trkpt><trkpt lat="44.9062071" lon="9.1003769"><ele>353.0</ele><time>2026-05-03T11:29:40.134Z</time></trkpt><trkpt lat="44.906124" lon="9.1004241"><ele>353.0</ele><time>2026-05-03T11:29:41.133Z</time></trkpt><trkpt lat="44.9060559" lon="9.1004819"><ele>353.0</ele><time>2026-05-03T11:29:42.131Z</time></trkpt><trkpt lat="44.9060106" lon="9.100555"><ele>353.0</ele><time>2026-05-03T11:29:43.126Z</time></trkpt><trkpt lat="44.9059795" lon="9.1006393"><ele>353.0</ele><time>2026-05-03T11:29:44.132Z</time></trkpt><trkpt lat="44.906014" lon="9.1007263"><ele>353.0</ele><time>2026-05-03T11:29:45.135Z</time></trkpt><trkpt lat="44.9060675" lon="9.1008117"><ele>353.0</ele><time>2026-05-03T11:29:46.133Z</time></trkpt><trkpt lat="44.9061386" lon="9.1009083"><ele>352.75</ele><time>2026-05-03T11:29:47.129Z</time></trkpt><trkpt lat="44.9062192" lon="9.1010182"><ele>352.5</ele><time>2026-05-03T11:29:48.131Z</time></trkpt><trkpt lat="44.9063034" lon="9.1011431"><ele>352.25</ele><time>2026-05-03T11:29:49.131Z</time></trkpt><trkpt lat="44.9063889" lon="9.1012803"><ele>352.0</ele><time>2026-05-03T11:29:50.133Z</time></trkpt><trkpt lat="44.9064672" lon="9.1014156"><ele>352.0</ele><time>2026-05-03T11:29:51.127Z</time></trkpt><trkpt lat="44.9065357" lon="9.1015447"><ele>352.0</ele><time>2026-05-03T11:29:52.134Z</time></trkpt><trkpt lat="44.9065923" lon="9.1016753"><ele>352.0</ele><time>2026-05-03T11:29:53.134Z</time></trkpt><trkpt lat="44.906627" lon="9.1018195"><ele>352.0</ele><time>2026-05-03T11:29:54.136Z</time></trkpt><trkpt lat="44.9066288" lon="9.1019784"><ele>352.0</ele><time>2026-05-03T11:29:55.13Z</time></trkpt><trkpt lat="44.906608" lon="9.1021483"><ele>350.5</ele><time>2026-05-03T11:29:56.131Z</time></trkpt><trkpt lat="44.9065838" lon="9.1023281"><ele>349.0</ele><time>2026-05-03T11:29:57.129Z</time></trkpt><trkpt lat="44.9065627" lon="9.1025008"><ele>347.5</ele><time>2026-05-03T11:29:58.132Z</time></trkpt><trkpt lat="44.9065424" lon="9.102671"><ele>346.0</ele><time>2026-05-03T11:29:59.134Z</time></trkpt><trkpt lat="44.906516" lon="9.102831"><ele>344.8</ele><time>2026-05-03T11:30:00.131Z</time></trkpt><trkpt lat="44.9064705" lon="9.102965"><ele>343.6</ele><time>2026-05-03T11:30:01.133Z</time></trkpt><trkpt lat="44.9064006" lon="9.1030581"><ele>342.4</ele><time>2026-05-03T11:30:02.133Z</time></trkpt><trkpt lat="44.9063114" lon="9.1031109"><ele>341.2</ele><time>2026-05-03T11:30:03.128Z</time></trkpt><trkpt lat="44.9062163" lon="9.1031384"><ele>340.0</ele><time>2026-05-03T11:30:04.13Z</time></trkpt><trkpt lat="44.9061293" lon="9.1031529"><ele>340.0</ele><time>2026-05-03T11:30:05.132Z</time></trkpt><trkpt lat="44.9060469" lon="9.1031663"><ele>340.0</ele><time>2026-05-03T11:30:06.131Z</time></trkpt><trkpt lat="44.9059575" lon="9.1031832"><ele>340.0</ele><time>2026-05-03T11:30:07.136Z</time></trkpt><trkpt lat="44.9058616" lon="9.103199"><ele>340.0</ele><time>2026-05-03T11:30:08.131Z</time></trkpt><trkpt lat="44.9057718" lon="9.1032174"><ele>340.0</ele><time>2026-05-03T11:30:09.131Z</time></trkpt><trkpt lat="44.9056959" lon="9.1032449"><ele>340.0</ele><time>2026-05-03T11:30:10.133Z</time></trkpt><trkpt lat="44.9056287" lon="9.1032807"><ele>338.66666666666663</ele><time>2026-05-03T11:30:11.127Z</time></trkpt><trkpt lat="44.9056069" lon="9.1033654"><ele>337.3333333333333</ele><time>2026-05-03T11:30:12.134Z</time></trkpt><trkpt lat="44.9056514" lon="9.1034492"><ele>336.0</ele><time>2026-05-03T11:30:13.14Z</time></trkpt><trkpt lat="44.9057249" lon="9.1034925"><ele>334.6666666666667</ele><time>2026-05-03T11:30:14.133Z</time></trkpt><trkpt lat="44.9058077" lon="9.1035033"><ele>333.33333333333337</ele><time>2026-05-03T11:30:15.126Z</time></trkpt><trkpt lat="44.9059046" lon="9.103499"><ele>332.0</ele><time>2026-05-03T11:30:16.131Z</time></trkpt><trkpt lat="44.9060031" lon="9.1035192"><ele>332.0</ele><time>2026-05-03T11:30:17.135Z</time></trkpt><trkpt lat="44.9061059" lon="9.1035738"><ele>332.0</ele><time>2026-05-03T11:30:18.131Z</time></trkpt><trkpt lat="44.9061995" lon="9.1036622"><ele>332.0</ele><time>2026-05-03T11:30:19.129Z</time></trkpt><trkpt lat="44.9062902" lon="9.103751"><ele>332.0</ele><time>2026-05-03T11:30:20.138Z</time></trkpt><trkpt lat="44.9063826" lon="9.103825"><ele>332.0</ele><time>2026-05-03T11:30:21.136Z</time></trkpt><trkpt lat="44.9064576" lon="9.1038893"><ele>332.0</ele><time>2026-05-03T11:30:22.129Z</time></trkpt><trkpt lat="44.9065049" lon="9.1039537"><ele>332.0</ele><time>2026-05-03T11:30:23.125Z</time></trkpt><trkpt lat="44.906497" lon="9.1040861"><ele>332.0</ele><time>2026-05-03T11:30:25.134Z</time></trkpt><trkpt lat="44.9063803" lon="9.1041327"><ele>332.0</ele><time>2026-05-03T11:30:27.133Z</time></trkpt><trkpt lat="44.9063087" lon="9.1041178"><ele>332.0</ele><time>2026-05-03T11:30:28.131Z</time></trkpt><trkpt lat="44.9062132" lon="9.1040607"><ele>332.0</ele><time>2026-05-03T11:30:29.133Z</time></trkpt><trkpt lat="44.9061186" lon="9.1040237"><ele>332.0</ele><time>2026-05-03T11:30:30.13Z</time></trkpt><trkpt lat="44.906022" lon="9.1040118"><ele>332.0</ele><time>2026-05-03T11:30:31.129Z</time></trkpt><trkpt lat="44.9059291" lon="9.1040299"><ele>332.0</ele><time>2026-05-03T11:30:32.129Z</time></trkpt><trkpt lat="44.9058504" lon="9.1040938"><ele>332.0</ele><time>2026-05-03T11:30:33.128Z</time></trkpt><trkpt lat="44.9057983" lon="9.1041948"><ele>328.40000000000003</ele><time>2026-05-03T11:30:34.132Z</time></trkpt><trkpt lat="44.9057778" lon="9.1043309"><ele>324.8</ele><time>2026-05-03T11:30:35.132Z</time></trkpt><trkpt lat="44.9057746" lon="9.1044623"><ele>321.2</ele><time>2026-05-03T11:30:36.132Z</time></trkpt><trkpt lat="44.9057459" lon="9.1045824"><ele>317.6</ele><time>2026-05-03T11:30:37.127Z</time></trkpt><trkpt lat="44.9056758" lon="9.1046636"><ele>314.0</ele><time>2026-05-03T11:30:38.128Z</time></trkpt><trkpt lat="44.9055873" lon="9.1047063"><ele>314.0</ele><time>2026-05-03T11:30:39.132Z</time></trkpt><trkpt lat="44.9054814" lon="9.1047386"><ele>314.0</ele><time>2026-05-03T11:30:40.128Z</time></trkpt><trkpt lat="44.9053606" lon="9.1047667"><ele>314.0</ele><time>2026-05-03T11:30:41.13Z</time></trkpt><trkpt lat="44.9052434" lon="9.1047814"><ele>314.0</ele><time>2026-05-03T11:30:42.132Z</time></trkpt><trkpt lat="44.9051315" lon="9.1047643"><ele>313.25</ele><time>2026-05-03T11:30:43.129Z</time></trkpt><trkpt lat="44.9050265" lon="9.1047225"><ele>312.5</ele><time>2026-05-03T11:30:44.133Z</time></trkpt><trkpt lat="44.9049048" lon="9.1046668"><ele>311.75</ele><time>2026-05-03T11:30:45.13Z</time></trkpt><trkpt lat="44.9047823" lon="9.1046084"><ele>311.0</ele><time>2026-05-03T11:30:46.129Z</time></trkpt><trkpt lat="44.904665" lon="9.1045502"><ele>311.0</ele><time>2026-05-03T11:30:47.135Z</time></trkpt><trkpt lat="44.9045578" lon="9.1044929"><ele>311.0</ele><time>2026-05-03T11:30:48.131Z</time></trkpt><trkpt lat="44.9044651" lon="9.1044264"><ele>311.0</ele><time>2026-05-03T11:30:49.131Z</time></trkpt><trkpt lat="44.9043954" lon="9.1043739"><ele>311.0</ele><time>2026-05-03T11:30:50.13Z</time></trkpt><trkpt lat="44.9042813" lon="9.1043671"><ele>311.0</ele><time>2026-05-03T11:30:52.131Z</time></trkpt><trkpt lat="44.904269" lon="9.1045346"><ele>311.0</ele><time>2026-05-03T11:30:54.128Z</time></trkpt><trkpt lat="44.9043164" lon="9.1046426"><ele>311.0</ele><time>2026-05-03T11:30:55.132Z</time></trkpt><trkpt lat="44.9043868" lon="9.104751"><ele>311.0</ele><time>2026-05-03T11:30:56.135Z</time></trkpt><trkpt lat="44.9044483" lon="9.1048584"><ele>311.0</ele><time>2026-05-03T11:30:57.131Z</time></trkpt><trkpt lat="44.9044827" lon="9.1049715"><ele>311.0</ele><time>2026-05-03T11:30:58.134Z</time></trkpt><trkpt lat="44.9045023" lon="9.1050795"><ele>308.5</ele><time>2026-05-03T11:30:59.13Z</time></trkpt><trkpt lat="44.9044687" lon="9.1051748"><ele>306.0</ele><time>2026-05-03T11:31:00.131Z</time></trkpt><trkpt lat="44.9044278" lon="9.1052492"><ele>303.5</ele><time>2026-05-03T11:31:01.131Z</time></trkpt><trkpt lat="44.9043557" lon="9.1053465"><ele>301.0</ele><time>2026-05-03T11:31:03.132Z</time></trkpt><trkpt lat="44.9042902" lon="9.1053909"><ele>298.5</ele><time>2026-05-03T11:31:05.132Z</time></trkpt><trkpt lat="44.904212" lon="9.1053989"><ele>296.0</ele><time>2026-05-03T11:31:08.133Z</time></trkpt><trkpt lat="44.9040956" lon="9.1053695"><ele>293.0</ele><time>2026-05-03T11:31:10.135Z</time></trkpt><trkpt lat="44.9040136" lon="9.1053288"><ele>290.0</ele><time>2026-05-03T11:31:11.129Z</time></trkpt><trkpt lat="44.903915" lon="9.1052711"><ele>287.0</ele><time>2026-05-03T11:31:12.13Z</time></trkpt><trkpt lat="44.9038066" lon="9.1051859"><ele>284.0</ele><time>2026-05-03T11:31:13.13Z</time></trkpt><trkpt lat="44.9036952" lon="9.105074"><ele>284.0</ele><time>2026-05-03T11:31:14.137Z</time></trkpt><trkpt lat="44.9035838" lon="9.1049476"><ele>284.0</ele><time>2026-05-03T11:31:15.129Z</time></trkpt><trkpt lat="44.9034685" lon="9.1048235"><ele>284.0</ele><time>2026-05-03T11:31:16.128Z</time></trkpt><trkpt lat="44.9033539" lon="9.104721"><ele>284.0</ele><time>2026-05-03T11:31:17.133Z</time></trkpt><trkpt lat="44.9032325" lon="9.1046298"><ele>282.75</ele><time>2026-05-03T11:31:18.132Z</time></trkpt><trkpt lat="44.9031087" lon="9.104546"><ele>281.5</ele><time>2026-05-03T11:31:19.131Z</time></trkpt><trkpt lat="44.902985" lon="9.1044694"><ele>280.25</ele><time>2026-05-03T11:31:20.13Z</time></trkpt><trkpt lat="44.9028631" lon="9.1043973"><ele>279.0</ele><time>2026-05-03T11:31:21.13Z</time></trkpt><trkpt lat="44.90274" lon="9.1043244"><ele>279.0</ele><time>2026-05-03T11:31:22.13Z</time></trkpt><trkpt lat="44.9026141" lon="9.1042641"><ele>279.0</ele><time>2026-05-03T11:31:23.13Z</time></trkpt><trkpt lat="44.9024834" lon="9.104221"><ele>279.0</ele><time>2026-05-03T11:31:24.125Z</time></trkpt><trkpt lat="44.9023548" lon="9.1041858"><ele>279.0</ele><time>2026-05-03T11:31:25.13Z</time></trkpt><trkpt lat="44.9022371" lon="9.1041506"><ele>278.5</ele><time>2026-05-03T11:31:26.134Z</time></trkpt><trkpt lat="44.9021258" lon="9.1041086"><ele>278.0</ele><time>2026-05-03T11:31:27.135Z</time></trkpt><trkpt lat="44.9020192" lon="9.104049"><ele>277.5</ele><time>2026-05-03T11:31:28.126Z</time></trkpt><trkpt lat="44.9019116" lon="9.1039657"><ele>277.0</ele><time>2026-05-03T11:31:29.131Z</time></trkpt><trkpt lat="44.9018086" lon="9.1038666"><ele>275.2</ele><time>2026-05-03T11:31:30.133Z</time></trkpt><trkpt lat="44.9017165" lon="9.1037602"><ele>273.4</ele><time>2026-05-03T11:31:31.133Z</time></trkpt><trkpt lat="44.901641" lon="9.1036457"><ele>271.6</ele><time>2026-05-03T11:31:32.132Z</time></trkpt><trkpt lat="44.9015931" lon="9.1035209"><ele>269.8</ele><time>2026-05-03T11:31:33.138Z</time></trkpt><trkpt lat="44.9015776" lon="9.1033871"><ele>268.0</ele><time>2026-05-03T11:31:34.132Z</time></trkpt><trkpt lat="44.9015991" lon="9.1032518"><ele>267.8</ele><time>2026-05-03T11:31:35.133Z</time></trkpt><trkpt lat="44.9016288" lon="9.1031099"><ele>267.6</ele><time>2026-05-03T11:31:36.131Z</time></trkpt><trkpt lat="44.9016623" lon="9.1029625"><ele>267.4</ele><time>2026-05-03T11:31:37.131Z</time></trkpt><trkpt lat="44.901696" lon="9.1028192"><ele>267.2</ele><time>2026-05-03T11:31:38.125Z</time></trkpt><trkpt lat="44.9017176" lon="9.1026808"><ele>267.0</ele><time>2026-05-03T11:31:39.134Z</time></trkpt><trkpt lat="44.9017107" lon="9.1025453"><ele>268.2</ele><time>2026-05-03T11:31:40.138Z</time></trkpt><trkpt lat="44.9016755" lon="9.1024142"><ele>269.4</ele><time>2026-05-03T11:31:41.138Z</time></trkpt><trkpt lat="44.9016156" lon="9.1022939"><ele>270.6</ele><time>2026-05-03T11:31:42.128Z</time></trkpt><trkpt lat="44.9015402" lon="9.1021971"><ele>271.8</ele><time>2026-05-03T11:31:43.128Z</time></trkpt><trkpt lat="44.9014642" lon="9.1021231"><ele>273.0</ele><time>2026-05-03T11:31:44.127Z</time></trkpt><trkpt lat="44.9014032" lon="9.1020697"><ele>273.0</ele><time>2026-05-03T11:31:45.132Z</time></trkpt><trkpt lat="44.901327" lon="9.1019904"><ele>273.0</ele><time>2026-05-03T11:31:47.128Z</time></trkpt><trkpt lat="44.90129" lon="9.1019122"><ele>273.0</ele><time>2026-05-03T11:31:49.138Z</time></trkpt><trkpt lat="44.9012666" lon="9.1018078"><ele>273.0</ele><time>2026-05-03T11:31:52.127Z</time></trkpt></trkseg></trk></gpx>